<?xml version='1.0' encoding='UTF-8'?><gpx version="1.1" creator="JPX - https://github.com/jenetics/jpx" xmlns="http://www.topografix.com/GPX/1/1"><trk><trkseg><trkpt lat="44.7982024" lon="10.3135363"><ele>62.00000000000001</ele><time>2026-05-04T13:22:30.4Z</time></trkpt><trkpt lat="44.7982785" lon="10.313554"><ele>62.0</ele><time>2026-05-04T13:22:33.4Z</time></trkpt><trkpt lat="44.7983395" lon="10.3135807"><ele>62.0</ele><time>2026-05-04T13:22:35.401Z</time></trkpt><trkpt lat="44.7984749" lon="10.3135792"><ele>62.0</ele><time>2026-05-04T13:22:38.4Z</time></trkpt><trkpt lat="44.7985588" lon="10.3135539"><ele>62.00000000000001</ele><time>2026-05-04T13:22:41.4Z</time></trkpt><trkpt lat="44.7986443" lon="10.3135334"><ele>62.0</ele><time>2026-05-04T13:22:44.401Z</time></trkpt><trkpt lat="44.7988296" lon="10.3135013"><ele>61.50000000000001</ele><time>2026-05-04T13:22:53.4Z</time></trkpt><trkpt lat="44.7989139" lon="10.3135069"><ele>61.0</ele><time>2026-05-04T13:22:55.401Z</time></trkpt><trkpt lat="44.7989982" lon="10.3135209"><ele>60.5</ele><time>2026-05-04T13:22:57.401Z</time></trkpt><trkpt lat="44.799077" lon="10.3135282"><ele>60.0</ele><time>2026-05-04T13:22:58.401Z</time></trkpt><trkpt lat="44.7991699" lon="10.3135429"><ele>59.50000000000001</ele><time>2026-05-04T13:23:00.401Z</time></trkpt><trkpt lat="44.7992376" lon="10.3135657"><ele>59.0</ele><time>2026-05-04T13:23:02.4Z</time></trkpt><trkpt lat="44.79932" lon="10.3135732"><ele>59.333333333333336</ele><time>2026-05-04T13:23:04.401Z</time></trkpt><trkpt lat="44.7994079" lon="10.3135776"><ele>59.66666666666667</ele><time>2026-05-04T13:23:06.4Z</time></trkpt><trkpt lat="44.7994937" lon="10.313577"><ele>60.0</ele><time>2026-05-04T13:23:08.401Z</time></trkpt><trkpt lat="44.7995476" lon="10.3136705"><ele>60.33333333333333</ele><time>2026-05-04T13:23:10.401Z</time></trkpt><trkpt lat="44.799594" lon="10.3137543"><ele>60.666666666666664</ele><time>2026-05-04T13:23:12.401Z</time></trkpt><trkpt lat="44.7996377" lon="10.3138326"><ele>61.0</ele><time>2026-05-04T13:23:14.4Z</time></trkpt><trkpt lat="44.7996908" lon="10.313914"><ele>60.99999999999999</ele><time>2026-05-04T13:23:17.401Z</time></trkpt><trkpt lat="44.7997441" lon="10.3139976"><ele>61.0</ele><time>2026-05-04T13:23:21.4Z</time></trkpt><trkpt lat="44.7998128" lon="10.3139841"><ele>61.0</ele><time>2026-05-04T13:23:24.401Z</time></trkpt><trkpt lat="44.7998831" lon="10.3139171"><ele>61.0</ele><time>2026-05-04T13:23:27.4Z</time></trkpt><trkpt lat="44.7999603" lon="10.3138564"><ele>60.99999999999999</ele><time>2026-05-04T13:23:29.401Z</time></trkpt><trkpt lat="44.8000331" lon="10.3137882"><ele>61.0</ele><time>2026-05-04T13:23:31.4Z</time></trkpt><trkpt lat="44.8000914" lon="10.3137222"><ele>60.99999999999999</ele><time>2026-05-04T13:23:33.401Z</time></trkpt><trkpt lat="44.800141" lon="10.3136286"><ele>61.0</ele><time>2026-05-04T13:23:36.4Z</time></trkpt><trkpt lat="44.8002034" lon="10.3136552"><ele>60.99999999999999</ele><time>2026-05-04T13:23:41.401Z</time></trkpt><trkpt lat="44.8002448" lon="10.3137258"><ele>60.99999999999999</ele><time>2026-05-04T13:23:44.401Z</time></trkpt><trkpt lat="44.8003203" lon="10.3137252"><ele>61.0</ele><time>2026-05-04T13:23:47.401Z</time></trkpt><trkpt lat="44.8003547" lon="10.3138042"><ele>60.99999999999999</ele><time>2026-05-04T13:23:52.4Z</time></trkpt><trkpt lat="44.8003993" lon="10.3138863"><ele>60.99999999999999</ele><time>2026-05-04T13:24:02.401Z</time></trkpt><trkpt lat="44.8004717" lon="10.313935"><ele>61.33333333333333</ele><time>2026-05-04T13:24:05.401Z</time></trkpt><trkpt lat="44.8005441" lon="10.3139851"><ele>61.666666666666664</ele><time>2026-05-04T13:24:07.401Z</time></trkpt><trkpt lat="44.8005934" lon="10.3140856"><ele>62.0</ele><time>2026-05-04T13:24:09.401Z</time></trkpt><trkpt lat="44.8006019" lon="10.3141945"><ele>62.33333333333333</ele><time>2026-05-04T13:24:11.4Z</time></trkpt><trkpt lat="44.8006505" lon="10.3143052"><ele>62.666666666666664</ele><time>2026-05-04T13:24:13.4Z</time></trkpt><trkpt lat="44.8006917" lon="10.3144127"><ele>63.0</ele><time>2026-05-04T13:24:15.4Z</time></trkpt><trkpt lat="44.8007293" lon="10.3145011"><ele>63.0</ele><time>2026-05-04T13:24:17.401Z</time></trkpt><trkpt lat="44.8007725" lon="10.3146077"><ele>63.0</ele><time>2026-05-04T13:24:19.401Z</time></trkpt><trkpt lat="44.8008173" lon="10.3147037"><ele>63.0</ele><time>2026-05-04T13:24:21.4Z</time></trkpt><trkpt lat="44.8008452" lon="10.3148063"><ele>63.0</ele><time>2026-05-04T13:24:23.401Z</time></trkpt><trkpt lat="44.8008758" lon="10.314915"><ele>63.0</ele><time>2026-05-04T13:24:25.4Z</time></trkpt><trkpt lat="44.800911" lon="10.3150199"><ele>63.0</ele><time>2026-05-04T13:24:27.401Z</time></trkpt><trkpt lat="44.8009575" lon="10.3151277"><ele>62.8</ele><time>2026-05-04T13:24:29.401Z</time></trkpt><trkpt lat="44.8010051" lon="10.3152389"><ele>62.599999999999994</ele><time>2026-05-04T13:24:31.401Z</time></trkpt><trkpt lat="44.8010703" lon="10.3153447"><ele>62.400000000000006</ele><time>2026-05-04T13:24:33.401Z</time></trkpt><trkpt lat="44.8011132" lon="10.31547"><ele>62.2</ele><time>2026-05-04T13:24:35.401Z</time></trkpt><trkpt lat="44.801158" lon="10.3155819"><ele>62.0</ele><time>2026-05-04T13:24:37.401Z</time></trkpt><trkpt lat="44.8012108" lon="10.3157105"><ele>62.0</ele><time>2026-05-04T13:24:39.401Z</time></trkpt><trkpt lat="44.801253" lon="10.3158336"><ele>62.0</ele><time>2026-05-04T13:24:41.401Z</time></trkpt><trkpt lat="44.8012847" lon="10.3159674"><ele>62.0</ele><time>2026-05-04T13:24:43.4Z</time></trkpt><trkpt lat="44.8013333" lon="10.3161032"><ele>62.0</ele><time>2026-05-04T13:24:45.4Z</time></trkpt><trkpt lat="44.8013762" lon="10.3162289"><ele>62.0</ele><time>2026-05-04T13:24:47.4Z</time></trkpt><trkpt lat="44.8014297" lon="10.3163465"><ele>61.833333333333336</ele><time>2026-05-04T13:24:49.401Z</time></trkpt><trkpt lat="44.8014484" lon="10.3164664"><ele>61.66666666666667</ele><time>2026-05-04T13:24:51.4Z</time></trkpt><trkpt lat="44.8014886" lon="10.3165849"><ele>61.5</ele><time>2026-05-04T13:24:53.4Z</time></trkpt><trkpt lat="44.8015305" lon="10.3166968"><ele>61.33333333333333</ele><time>2026-05-04T13:24:55.4Z</time></trkpt><trkpt lat="44.801545" lon="10.3167953"><ele>61.166666666666664</ele><time>2026-05-04T13:24:57.4Z</time></trkpt><trkpt lat="44.8015871" lon="10.3169187"><ele>61.0</ele><time>2026-05-04T13:25:00.4Z</time></trkpt><trkpt lat="44.8016276" lon="10.3170198"><ele>61.0</ele><time>2026-05-04T13:25:02.4Z</time></trkpt><trkpt lat="44.8016467" lon="10.3171341"><ele>60.99999999999999</ele><time>2026-05-04T13:25:04.401Z</time></trkpt><trkpt lat="44.8016382" lon="10.3172753"><ele>60.99999999999999</ele><time>2026-05-04T13:25:06.401Z</time></trkpt><trkpt lat="44.8016327" lon="10.3174107"><ele>61.0</ele><time>2026-05-04T13:25:08.4Z</time></trkpt><trkpt lat="44.8016299" lon="10.3175551"><ele>61.0</ele><time>2026-05-04T13:25:10.401Z</time></trkpt><trkpt lat="44.8016306" lon="10.3176734"><ele>61.0</ele><time>2026-05-04T13:25:12.4Z</time></trkpt><trkpt lat="44.8016246" lon="10.3178045"><ele>60.99999999999999</ele><time>2026-05-04T13:25:14.401Z</time></trkpt><trkpt lat="44.801623" lon="10.3179372"><ele>60.99999999999999</ele><time>2026-05-04T13:25:16.401Z</time></trkpt><trkpt lat="44.801638" lon="10.3180781"><ele>61.0</ele><time>2026-05-04T13:25:18.401Z</time></trkpt><trkpt lat="44.8016533" lon="10.3182085"><ele>61.0</ele><time>2026-05-04T13:25:20.401Z</time></trkpt><trkpt lat="44.801668" lon="10.3183386"><ele>61.0</ele><time>2026-05-04T13:25:22.401Z</time></trkpt><trkpt lat="44.8016668" lon="10.3184738"><ele>60.99999999999999</ele><time>2026-05-04T13:25:24.401Z</time></trkpt><trkpt lat="44.8016918" lon="10.3186197"><ele>60.99999999999999</ele><time>2026-05-04T13:25:26.401Z</time></trkpt><trkpt lat="44.8017108" lon="10.3187368"><ele>61.0</ele><time>2026-05-04T13:25:28.401Z</time></trkpt><trkpt lat="44.8017222" lon="10.3188728"><ele>61.0</ele><time>2026-05-04T13:25:30.4Z</time></trkpt><trkpt lat="44.8017182" lon="10.319005"><ele>61.0</ele><time>2026-05-04T13:25:32.401Z</time></trkpt><trkpt lat="44.8017581" lon="10.3191384"><ele>60.99999999999999</ele><time>2026-05-04T13:25:34.401Z</time></trkpt><trkpt lat="44.8017712" lon="10.3192603"><ele>60.99999999999999</ele><time>2026-05-04T13:25:36.4Z</time></trkpt><trkpt lat="44.8017876" lon="10.3193861"><ele>61.0</ele><time>2026-05-04T13:25:38.4Z</time></trkpt><trkpt lat="44.8018071" lon="10.3195154"><ele>61.0</ele><time>2026-05-04T13:25:40.401Z</time></trkpt><trkpt lat="44.801871" lon="10.3196462"><ele>61.4</ele><time>2026-05-04T13:25:42.4Z</time></trkpt><trkpt lat="44.801896" lon="10.3197706"><ele>61.8</ele><time>2026-05-04T13:25:44.4Z</time></trkpt><trkpt lat="44.8019423" lon="10.3199072"><ele>62.199999999999996</ele><time>2026-05-04T13:25:46.4Z</time></trkpt><trkpt lat="44.8019675" lon="10.3200435"><ele>62.599999999999994</ele><time>2026-05-04T13:25:48.4Z</time></trkpt><trkpt lat="44.8020042" lon="10.3201824"><ele>63.0</ele><time>2026-05-04T13:25:50.4Z</time></trkpt><trkpt lat="44.802039" lon="10.3203211"><ele>63.0</ele><time>2026-05-04T13:25:52.401Z</time></trkpt><trkpt lat="44.8020693" lon="10.3204517"><ele>63.0</ele><time>2026-05-04T13:25:54.401Z</time></trkpt><trkpt lat="44.8020978" lon="10.320586"><ele>63.0</ele><time>2026-05-04T13:25:56.4Z</time></trkpt><trkpt lat="44.8021298" lon="10.3207274"><ele>63.0</ele><time>2026-05-04T13:25:58.4Z</time></trkpt><trkpt lat="44.8021592" lon="10.3208083"><ele>63.0</ele><time>2026-05-04T13:25:59.401Z</time></trkpt><trkpt lat="44.8021725" lon="10.320931"><ele>62.833333333333336</ele><time>2026-05-04T13:26:01.401Z</time></trkpt><trkpt lat="44.802252" lon="10.321046"><ele>62.66666666666667</ele><time>2026-05-04T13:26:03.4Z</time></trkpt><trkpt lat="44.802306" lon="10.3211332"><ele>62.5</ele><time>2026-05-04T13:26:05.4Z</time></trkpt><trkpt lat="44.8023517" lon="10.3212293"><ele>62.333333333333336</ele><time>2026-05-04T13:26:07.401Z</time></trkpt><trkpt lat="44.802433" lon="10.3212789"><ele>62.16666666666667</ele><time>2026-05-04T13:26:09.4Z</time></trkpt><trkpt lat="44.8024972" lon="10.3213144"><ele>62.0</ele><time>2026-05-04T13:26:11.401Z</time></trkpt><trkpt lat="44.8025628" lon="10.3213524"><ele>62.00000000000001</ele><time>2026-05-04T13:26:13.4Z</time></trkpt><trkpt lat="44.8026271" lon="10.3213934"><ele>62.0</ele><time>2026-05-04T13:26:15.4Z</time></trkpt><trkpt lat="44.8026906" lon="10.3214449"><ele>62.0</ele><time>2026-05-04T13:26:17.401Z</time></trkpt><trkpt lat="44.8027061" lon="10.3215519"><ele>62.0</ele><time>2026-05-04T13:26:19.401Z</time></trkpt><trkpt lat="44.8027233" lon="10.3216847"><ele>62.00000000000001</ele><time>2026-05-04T13:26:21.4Z</time></trkpt><trkpt lat="44.802728" lon="10.3218204"><ele>62.0</ele><time>2026-05-04T13:26:24.401Z</time></trkpt><trkpt lat="44.8026932" lon="10.3219397"><ele>62.00000000000001</ele><time>2026-05-04T13:26:26.4Z</time></trkpt><trkpt lat="44.8026773" lon="10.3220738"><ele>62.0</ele><time>2026-05-04T13:26:28.401Z</time></trkpt><trkpt lat="44.8026714" lon="10.3221816"><ele>62.0</ele><time>2026-05-04T13:26:30.401Z</time></trkpt><trkpt lat="44.8026686" lon="10.3222899"><ele>62.0</ele><time>2026-05-04T13:26:32.401Z</time></trkpt><trkpt lat="44.8026567" lon="10.3224117"><ele>62.00000000000001</ele><time>2026-05-04T13:26:35.401Z</time></trkpt><trkpt lat="44.8026424" lon="10.3225164"><ele>62.0</ele><time>2026-05-04T13:26:37.4Z</time></trkpt><trkpt lat="44.802556" lon="10.3226191"><ele>62.0</ele><time>2026-05-04T13:26:39.401Z</time></trkpt><trkpt lat="44.802529" lon="10.322737"><ele>62.0</ele><time>2026-05-04T13:26:41.4Z</time></trkpt><trkpt lat="44.8024994" lon="10.3228652"><ele>62.0</ele><time>2026-05-04T13:26:43.401Z</time></trkpt><trkpt lat="44.8024679" lon="10.3229933"><ele>62.0</ele><time>2026-05-04T13:26:45.4Z</time></trkpt><trkpt lat="44.8024316" lon="10.3231341"><ele>62.0</ele><time>2026-05-04T13:26:47.401Z</time></trkpt><trkpt lat="44.8024106" lon="10.3232425"><ele>61.333333333333336</ele><time>2026-05-04T13:26:49.401Z</time></trkpt><trkpt lat="44.8023852" lon="10.3233594"><ele>60.66666666666667</ele><time>2026-05-04T13:26:51.401Z</time></trkpt><trkpt lat="44.8023677" lon="10.323471"><ele>60.0</ele><time>2026-05-04T13:26:53.4Z</time></trkpt><trkpt lat="44.8023458" lon="10.3235994"><ele>59.33333333333333</ele><time>2026-05-04T13:26:55.4Z</time></trkpt><trkpt lat="44.8023204" lon="10.3237019"><ele>58.666666666666664</ele><time>2026-05-04T13:26:57.4Z</time></trkpt><trkpt lat="44.8022968" lon="10.3238119"><ele>58.0</ele><time>2026-05-04T13:26:59.401Z</time></trkpt><trkpt lat="44.8022726" lon="10.3239158"><ele>58.0</ele><time>2026-05-04T13:27:01.4Z</time></trkpt><trkpt lat="44.802251" lon="10.3240247"><ele>58.0</ele><time>2026-05-04T13:27:03.4Z</time></trkpt><trkpt lat="44.8022117" lon="10.3241411"><ele>58.0</ele><time>2026-05-04T13:27:05.4Z</time></trkpt><trkpt lat="44.8021919" lon="10.3242596"><ele>58.0</ele><time>2026-05-04T13:27:07.401Z</time></trkpt><trkpt lat="44.8021685" lon="10.3243912"><ele>58.0</ele><time>2026-05-04T13:27:09.4Z</time></trkpt><trkpt lat="44.8021376" lon="10.3245229"><ele>58.0</ele><time>2026-05-04T13:27:11.401Z</time></trkpt><trkpt lat="44.8021132" lon="10.3246425"><ele>58.0</ele><time>2026-05-04T13:27:13.4Z</time></trkpt><trkpt lat="44.8020942" lon="10.324777"><ele>58.0</ele><time>2026-05-04T13:27:15.4Z</time></trkpt><trkpt lat="44.8020716" lon="10.3249161"><ele>58.0</ele><time>2026-05-04T13:27:17.4Z</time></trkpt><trkpt lat="44.8020488" lon="10.325062"><ele>58.0</ele><time>2026-05-04T13:27:19.4Z</time></trkpt><trkpt lat="44.8020271" lon="10.3252268"><ele>59.2</ele><time>2026-05-04T13:27:21.401Z</time></trkpt><trkpt lat="44.8020146" lon="10.3253219"><ele>60.4</ele><time>2026-05-04T13:27:22.4Z</time></trkpt><trkpt lat="44.8019869" lon="10.3254653"><ele>61.60000000000001</ele><time>2026-05-04T13:27:24.4Z</time></trkpt><trkpt lat="44.8019662" lon="10.3256226"><ele>62.800000000000004</ele><time>2026-05-04T13:27:26.4Z</time></trkpt><trkpt lat="44.8019355" lon="10.3257598"><ele>64.0</ele><time>2026-05-04T13:27:28.401Z</time></trkpt><trkpt lat="44.801896" lon="10.3259107"><ele>65.0</ele><time>2026-05-04T13:27:30.401Z</time></trkpt><trkpt lat="44.8017732" lon="10.3260454"><ele>66.0</ele><time>2026-05-04T13:27:33.401Z</time></trkpt><trkpt lat="44.8017582" lon="10.3261591"><ele>67.0</ele><time>2026-05-04T13:27:34.401Z</time></trkpt><trkpt lat="44.8017389" lon="10.3262563"><ele>68.0</ele><time>2026-05-04T13:27:35.401Z</time></trkpt><trkpt lat="44.8017393" lon="10.3263751"><ele>69.0</ele><time>2026-05-04T13:27:36.401Z</time></trkpt><trkpt lat="44.8017225" lon="10.3264666"><ele>69.0</ele><time>2026-05-04T13:27:37.4Z</time></trkpt><trkpt lat="44.8017066" lon="10.3265539"><ele>69.0</ele><time>2026-05-04T13:27:38.401Z</time></trkpt><trkpt lat="44.8017026" lon="10.3266465"><ele>69.0</ele><time>2026-05-04T13:27:39.4Z</time></trkpt><trkpt lat="44.8016921" lon="10.3268058"><ele>69.0</ele><time>2026-05-04T13:27:41.401Z</time></trkpt><trkpt lat="44.8017421" lon="10.3269"><ele>69.0</ele><time>2026-05-04T13:27:42.4Z</time></trkpt><trkpt lat="44.8018047" lon="10.3270353"><ele>69.0</ele><time>2026-05-04T13:27:44.401Z</time></trkpt><trkpt lat="44.801868" lon="10.3270716"><ele>68.83333333333333</ele><time>2026-05-04T13:27:47.4Z</time></trkpt><trkpt lat="44.801926" lon="10.3271323"><ele>68.66666666666667</ele><time>2026-05-04T13:27:49.401Z</time></trkpt><trkpt lat="44.8020268" lon="10.3271685"><ele>68.5</ele><time>2026-05-04T13:27:52.401Z</time></trkpt><trkpt lat="44.8021122" lon="10.3271517"><ele>68.33333333333334</ele><time>2026-05-04T13:27:54.401Z</time></trkpt><trkpt lat="44.8021974" lon="10.3271612"><ele>68.16666666666667</ele><time>2026-05-04T13:27:56.401Z</time></trkpt><trkpt lat="44.8022689" lon="10.3271898"><ele>68.0</ele><time>2026-05-04T13:27:58.4Z</time></trkpt><trkpt lat="44.8023325" lon="10.3271937"><ele>68.0</ele><time>2026-05-04T13:28:00.4Z</time></trkpt><trkpt lat="44.8024004" lon="10.3272225"><ele>68.0</ele><time>2026-05-04T13:28:02.4Z</time></trkpt><trkpt lat="44.8024818" lon="10.3272391"><ele>68.0</ele><time>2026-05-04T13:28:06.4Z</time></trkpt><trkpt lat="44.8025766" lon="10.3272604"><ele>68.0</ele><time>2026-05-04T13:28:09.401Z</time></trkpt><trkpt lat="44.8026538" lon="10.3273044"><ele>68.0</ele><time>2026-05-04T13:28:11.4Z</time></trkpt><trkpt lat="44.802735" lon="10.3273572"><ele>68.0</ele><time>2026-05-04T13:28:13.401Z</time></trkpt><trkpt lat="44.8028189" lon="10.3273853"><ele>67.16666666666667</ele><time>2026-05-04T13:28:15.4Z</time></trkpt><trkpt lat="44.8028962" lon="10.3274042"><ele>66.33333333333334</ele><time>2026-05-04T13:28:17.401Z</time></trkpt><trkpt lat="44.8029703" lon="10.3274389"><ele>65.5</ele><time>2026-05-04T13:28:19.4Z</time></trkpt><trkpt lat="44.803046" lon="10.3274777"><ele>64.66666666666667</ele><time>2026-05-04T13:28:21.4Z</time></trkpt><trkpt lat="44.8031223" lon="10.3275164"><ele>63.833333333333336</ele><time>2026-05-04T13:28:23.401Z</time></trkpt><trkpt lat="44.8031992" lon="10.3275545"><ele>63.0</ele><time>2026-05-04T13:28:25.401Z</time></trkpt><trkpt lat="44.8032799" lon="10.3275853"><ele>63.0</ele><time>2026-05-04T13:28:27.4Z</time></trkpt><trkpt lat="44.8033757" lon="10.327644"><ele>63.0</ele><time>2026-05-04T13:28:29.4Z</time></trkpt><trkpt lat="44.803453" lon="10.3276632"><ele>63.0</ele><time>2026-05-04T13:28:31.401Z</time></trkpt><trkpt lat="44.8035767" lon="10.3277115"><ele>63.0</ele><time>2026-05-04T13:28:34.401Z</time></trkpt><trkpt lat="44.803656" lon="10.3278172"><ele>63.0</ele><time>2026-05-04T13:28:36.401Z</time></trkpt><trkpt lat="44.8037468" lon="10.3278833"><ele>62.5</ele><time>2026-05-04T13:28:38.4Z</time></trkpt><trkpt lat="44.8038301" lon="10.3279367"><ele>62.0</ele><time>2026-05-04T13:28:40.4Z</time></trkpt><trkpt lat="44.803903" lon="10.3279903"><ele>61.5</ele><time>2026-05-04T13:28:42.4Z</time></trkpt><trkpt lat="44.8039858" lon="10.3280396"><ele>61.0</ele><time>2026-05-04T13:28:44.4Z</time></trkpt><trkpt lat="44.8040738" lon="10.3280994"><ele>60.5</ele><time>2026-05-04T13:28:46.4Z</time></trkpt><trkpt lat="44.8041564" lon="10.3281398"><ele>60.0</ele><time>2026-05-04T13:28:48.4Z</time></trkpt><trkpt lat="44.8042534" lon="10.3281623"><ele>60.4</ele><time>2026-05-04T13:28:50.401Z</time></trkpt><trkpt lat="44.8043534" lon="10.3282017"><ele>60.8</ele><time>2026-05-04T13:28:52.4Z</time></trkpt><trkpt lat="44.8044469" lon="10.3282358"><ele>61.2</ele><time>2026-05-04T13:28:54.401Z</time></trkpt><trkpt lat="44.8045647" lon="10.3282672"><ele>61.6</ele><time>2026-05-04T13:28:56.4Z</time></trkpt><trkpt lat="44.8046869" lon="10.3282993"><ele>62.0</ele><time>2026-05-04T13:28:58.4Z</time></trkpt><trkpt lat="44.8047712" lon="10.3283521"><ele>62.0</ele><time>2026-05-04T13:29:00.401Z</time></trkpt><trkpt lat="44.8048803" lon="10.3284052"><ele>62.0</ele><time>2026-05-04T13:29:02.4Z</time></trkpt><trkpt lat="44.8049973" lon="10.3284353"><ele>62.0</ele><time>2026-05-04T13:29:04.401Z</time></trkpt><trkpt lat="44.8050617" lon="10.3284622"><ele>62.0</ele><time>2026-05-04T13:29:05.4Z</time></trkpt><trkpt lat="44.8051401" lon="10.3285548"><ele>62.0</ele><time>2026-05-04T13:29:07.401Z</time></trkpt><trkpt lat="44.8052656" lon="10.3285898"><ele>61.833333333333336</ele><time>2026-05-04T13:29:09.4Z</time></trkpt><trkpt lat="44.8053324" lon="10.3286172"><ele>61.66666666666667</ele><time>2026-05-04T13:29:10.401Z</time></trkpt><trkpt lat="44.8054359" lon="10.3286678"><ele>61.5</ele><time>2026-05-04T13:29:12.401Z</time></trkpt><trkpt lat="44.8054966" lon="10.3287052"><ele>61.33333333333333</ele><time>2026-05-04T13:29:13.4Z</time></trkpt><trkpt lat="44.8055724" lon="10.3287375"><ele>61.166666666666664</ele><time>2026-05-04T13:29:14.401Z</time></trkpt><trkpt lat="44.8056505" lon="10.3287666"><ele>61.0</ele><time>2026-05-04T13:29:15.401Z</time></trkpt><trkpt lat="44.8057432" lon="10.3288132"><ele>61.0</ele><time>2026-05-04T13:29:16.4Z</time></trkpt><trkpt lat="44.8058024" lon="10.3288462"><ele>60.99999999999999</ele><time>2026-05-04T13:29:17.4Z</time></trkpt><trkpt lat="44.8059251" lon="10.3288917"><ele>60.99999999999999</ele><time>2026-05-04T13:29:19.401Z</time></trkpt><trkpt lat="44.805997" lon="10.3289087"><ele>61.0</ele><time>2026-05-04T13:29:21.401Z</time></trkpt><trkpt lat="44.8060637" lon="10.3289318"><ele>61.0</ele><time>2026-05-04T13:29:22.4Z</time></trkpt><trkpt lat="44.8061989" lon="10.3289842"><ele>61.14285714285714</ele><time>2026-05-04T13:29:24.4Z</time></trkpt><trkpt lat="44.8062606" lon="10.3290147"><ele>61.285714285714285</ele><time>2026-05-04T13:29:25.401Z</time></trkpt><trkpt lat="44.8063322" lon="10.3290308"><ele>61.42857142857143</ele><time>2026-05-04T13:29:26.4Z</time></trkpt><trkpt lat="44.8064017" lon="10.3290464"><ele>61.57142857142857</ele><time>2026-05-04T13:29:27.4Z</time></trkpt><trkpt lat="44.8064641" lon="10.3290586"><ele>61.71428571428572</ele><time>2026-05-04T13:29:28.4Z</time></trkpt><trkpt lat="44.806529" lon="10.3290772"><ele>61.85714285714286</ele><time>2026-05-04T13:29:29.4Z</time></trkpt><trkpt lat="44.8065862" lon="10.3291223"><ele>62.0</ele><time>2026-05-04T13:29:30.4Z</time></trkpt><trkpt lat="44.8067082" lon="10.3291632"><ele>62.0</ele><time>2026-05-04T13:29:32.401Z</time></trkpt><trkpt lat="44.8068256" lon="10.3292103"><ele>62.0</ele><time>2026-05-04T13:29:34.401Z</time></trkpt><trkpt lat="44.8069442" lon="10.3292572"><ele>62.0</ele><time>2026-05-04T13:29:36.4Z</time></trkpt><trkpt lat="44.8070601" lon="10.3293146"><ele>62.0</ele><time>2026-05-04T13:29:38.401Z</time></trkpt><trkpt lat="44.8071229" lon="10.3293319"><ele>62.0</ele><time>2026-05-04T13:29:39.401Z</time></trkpt><trkpt lat="44.8072409" lon="10.3293738"><ele>61.6</ele><time>2026-05-04T13:29:41.4Z</time></trkpt><trkpt lat="44.8073497" lon="10.3294123"><ele>61.2</ele><time>2026-05-04T13:29:43.4Z</time></trkpt><trkpt lat="44.8074463" lon="10.3294563"><ele>60.8</ele><time>2026-05-04T13:29:45.401Z</time></trkpt><trkpt lat="44.8075229" lon="10.3294843"><ele>60.4</ele><time>2026-05-04T13:29:46.4Z</time></trkpt><trkpt lat="44.8075908" lon="10.3295025"><ele>60.0</ele><time>2026-05-04T13:29:47.401Z</time></trkpt><trkpt lat="44.8077006" lon="10.3295521"><ele>60.0</ele><time>2026-05-04T13:29:49.401Z</time></trkpt><trkpt lat="44.8078042" lon="10.329653"><ele>60.0</ele><time>2026-05-04T13:29:51.4Z</time></trkpt><trkpt lat="44.8079148" lon="10.3297065"><ele>60.0</ele><time>2026-05-04T13:29:53.401Z</time></trkpt><trkpt lat="44.8079814" lon="10.3297304"><ele>60.0</ele><time>2026-05-04T13:29:54.4Z</time></trkpt><trkpt lat="44.8080992" lon="10.3297491"><ele>60.0</ele><time>2026-05-04T13:29:56.4Z</time></trkpt><trkpt lat="44.8082091" lon="10.3297937"><ele>60.0</ele><time>2026-05-04T13:29:58.401Z</time></trkpt><trkpt lat="44.8082958" lon="10.3297971"><ele>60.0</ele><time>2026-05-04T13:30:00.4Z</time></trkpt><trkpt lat="44.8083585" lon="10.3298535"><ele>60.0</ele><time>2026-05-04T13:30:03.401Z</time></trkpt><trkpt lat="44.8083625" lon="10.3299619"><ele>60.0</ele><time>2026-05-04T13:30:06.401Z</time></trkpt><trkpt lat="44.8084156" lon="10.3299018"><ele>60.0</ele><time>2026-05-04T13:30:26.401Z</time></trkpt><trkpt lat="44.8084987" lon="10.3298875"><ele>60.0</ele><time>2026-05-04T13:30:29.4Z</time></trkpt><trkpt lat="44.8085658" lon="10.3298779"><ele>60.4</ele><time>2026-05-04T13:30:31.4Z</time></trkpt><trkpt lat="44.8086336" lon="10.3298905"><ele>60.8</ele><time>2026-05-04T13:30:33.401Z</time></trkpt><trkpt lat="44.8087203" lon="10.3299382"><ele>61.2</ele><time>2026-05-04T13:30:36.4Z</time></trkpt><trkpt lat="44.8088298" lon="10.3299706"><ele>61.6</ele><time>2026-05-04T13:30:38.4Z</time></trkpt><trkpt lat="44.8089318" lon="10.3299987"><ele>62.0</ele><time>2026-05-04T13:30:40.401Z</time></trkpt><trkpt lat="44.8090217" lon="10.330029"><ele>62.0</ele><time>2026-05-04T13:30:42.4Z</time></trkpt><trkpt lat="44.8091272" lon="10.33006"><ele>62.0</ele><time>2026-05-04T13:30:44.401Z</time></trkpt><trkpt lat="44.809218" lon="10.3300925"><ele>62.0</ele><time>2026-05-04T13:30:46.401Z</time></trkpt><trkpt lat="44.809305" lon="10.3301123"><ele>62.0</ele><time>2026-05-04T13:30:48.4Z</time></trkpt><trkpt lat="44.8094067" lon="10.3301717"><ele>62.0</ele><time>2026-05-04T13:30:50.401Z</time></trkpt><trkpt lat="44.8095206" lon="10.3302164"><ele>60.8</ele><time>2026-05-04T13:30:52.401Z</time></trkpt><trkpt lat="44.809594" lon="10.3302369"><ele>59.6</ele><time>2026-05-04T13:30:54.4Z</time></trkpt><trkpt lat="44.8096619" lon="10.3302427"><ele>58.39999999999999</ele><time>2026-05-04T13:30:56.401Z</time></trkpt><trkpt lat="44.8098649" lon="10.330251"><ele>57.199999999999996</ele><time>2026-05-04T13:31:03.44Z</time></trkpt><trkpt lat="44.8099242" lon="10.3303383"><ele>56.0</ele><time>2026-05-04T13:31:05.387Z</time></trkpt><trkpt lat="44.8100029" lon="10.3303937"><ele>56.00000000000001</ele><time>2026-05-04T13:31:07.393Z</time></trkpt><trkpt lat="44.8100913" lon="10.3304072"><ele>56.0</ele><time>2026-05-04T13:31:09.391Z</time></trkpt><trkpt lat="44.8101711" lon="10.33042"><ele>56.0</ele><time>2026-05-04T13:31:11.391Z</time></trkpt><trkpt lat="44.8102406" lon="10.3304316"><ele>56.0</ele><time>2026-05-04T13:31:13.39Z</time></trkpt><trkpt lat="44.8103221" lon="10.3304429"><ele>56.00000000000001</ele><time>2026-05-04T13:31:15.39Z</time></trkpt><trkpt lat="44.8104044" lon="10.3304556"><ele>56.0</ele><time>2026-05-04T13:31:17.391Z</time></trkpt><trkpt lat="44.8104933" lon="10.3304697"><ele>56.0</ele><time>2026-05-04T13:31:19.391Z</time></trkpt><trkpt lat="44.8105784" lon="10.3304873"><ele>55.99999999999999</ele><time>2026-05-04T13:31:21.39Z</time></trkpt><trkpt lat="44.8106446" lon="10.3304993"><ele>55.99999999999999</ele><time>2026-05-04T13:31:23.39Z</time></trkpt><trkpt lat="44.8107228" lon="10.3305183"><ele>56.0</ele><time>2026-05-04T13:31:26.391Z</time></trkpt><trkpt lat="44.8108226" lon="10.3305438"><ele>56.0</ele><time>2026-05-04T13:31:28.39Z</time></trkpt><trkpt lat="44.8109546" lon="10.3305928"><ele>55.4</ele><time>2026-05-04T13:31:29.39Z</time></trkpt><trkpt lat="44.8110488" lon="10.3306184"><ele>54.8</ele><time>2026-05-04T13:31:31.39Z</time></trkpt><trkpt lat="44.8111391" lon="10.3306561"><ele>54.199999999999996</ele><time>2026-05-04T13:31:33.39Z</time></trkpt><trkpt lat="44.8112404" lon="10.3306802"><ele>53.599999999999994</ele><time>2026-05-04T13:31:35.391Z</time></trkpt><trkpt lat="44.8113317" lon="10.3307111"><ele>53.0</ele><time>2026-05-04T13:31:37.39Z</time></trkpt><trkpt lat="44.8114098" lon="10.3307484"><ele>53.00000000000001</ele><time>2026-05-04T13:31:39.391Z</time></trkpt><trkpt lat="44.8115047" lon="10.330775"><ele>53.0</ele><time>2026-05-04T13:31:41.39Z</time></trkpt><trkpt lat="44.8115952" lon="10.3308102"><ele>53.0</ele><time>2026-05-04T13:31:43.391Z</time></trkpt><trkpt lat="44.8116692" lon="10.3308241"><ele>53.0</ele><time>2026-05-04T13:31:45.391Z</time></trkpt><trkpt lat="44.8117431" lon="10.3308469"><ele>53.00000000000001</ele><time>2026-05-04T13:31:47.39Z</time></trkpt><trkpt lat="44.8118132" lon="10.3308542"><ele>53.0</ele><time>2026-05-04T13:31:49.391Z</time></trkpt><trkpt lat="44.8118933" lon="10.3308647"><ele>53.4</ele><time>2026-05-04T13:31:51.39Z</time></trkpt><trkpt lat="44.811994" lon="10.3308745"><ele>53.8</ele><time>2026-05-04T13:31:53.39Z</time></trkpt><trkpt lat="44.8120962" lon="10.3308822"><ele>54.2</ele><time>2026-05-04T13:31:55.39Z</time></trkpt><trkpt lat="44.8121987" lon="10.3308954"><ele>54.6</ele><time>2026-05-04T13:31:57.391Z</time></trkpt><trkpt lat="44.8122838" lon="10.3308994"><ele>55.0</ele><time>2026-05-04T13:31:59.391Z</time></trkpt><trkpt lat="44.8123696" lon="10.3309228"><ele>54.99999999999999</ele><time>2026-05-04T13:32:01.391Z</time></trkpt><trkpt lat="44.8124632" lon="10.3309157"><ele>55.0</ele><time>2026-05-04T13:32:03.39Z</time></trkpt><trkpt lat="44.8125417" lon="10.3309214"><ele>55.0</ele><time>2026-05-04T13:32:05.39Z</time></trkpt><trkpt lat="44.8126124" lon="10.3309293"><ele>55.0</ele><time>2026-05-04T13:32:07.39Z</time></trkpt><trkpt lat="44.812687" lon="10.3309258"><ele>54.99999999999999</ele><time>2026-05-04T13:32:09.39Z</time></trkpt><trkpt lat="44.8127827" lon="10.3309683"><ele>55.0</ele><time>2026-05-04T13:32:11.391Z</time></trkpt><trkpt lat="44.81287" lon="10.3309857"><ele>55.166666666666664</ele><time>2026-05-04T13:32:13.391Z</time></trkpt><trkpt lat="44.8129605" lon="10.3310045"><ele>55.33333333333333</ele><time>2026-05-04T13:32:15.39Z</time></trkpt><trkpt lat="44.813039" lon="10.3310292"><ele>55.5</ele><time>2026-05-04T13:32:17.39Z</time></trkpt><trkpt lat="44.813131" lon="10.3310493"><ele>55.66666666666667</ele><time>2026-05-04T13:32:19.39Z</time></trkpt><trkpt lat="44.8132132" lon="10.3310573"><ele>55.833333333333336</ele><time>2026-05-04T13:32:21.391Z</time></trkpt><trkpt lat="44.8132913" lon="10.331068"><ele>56.0</ele><time>2026-05-04T13:32:23.391Z</time></trkpt><trkpt lat="44.813374" lon="10.3310799"><ele>56.0</ele><time>2026-05-04T13:32:25.39Z</time></trkpt><trkpt lat="44.813445" lon="10.3310834"><ele>56.0</ele><time>2026-05-04T13:32:27.391Z</time></trkpt><trkpt lat="44.8135139" lon="10.3311002"><ele>56.0</ele><time>2026-05-04T13:32:29.391Z</time></trkpt><trkpt lat="44.8135778" lon="10.331103"><ele>56.0</ele><time>2026-05-04T13:32:31.39Z</time></trkpt><trkpt lat="44.813649" lon="10.3311057"><ele>56.0</ele><time>2026-05-04T13:32:33.391Z</time></trkpt><trkpt lat="44.8137196" lon="10.3311041"><ele>56.0</ele><time>2026-05-04T13:32:36.391Z</time></trkpt><trkpt lat="44.8137971" lon="10.3310989"><ele>56.0</ele><time>2026-05-04T13:32:39.391Z</time></trkpt><trkpt lat="44.8138675" lon="10.3311152"><ele>55.57142857142857</ele><time>2026-05-04T13:32:42.39Z</time></trkpt><trkpt lat="44.8139273" lon="10.3311808"><ele>55.14285714285714</ele><time>2026-05-04T13:32:46.39Z</time></trkpt><trkpt lat="44.8139747" lon="10.33126"><ele>54.714285714285715</ele><time>2026-05-04T13:32:50.39Z</time></trkpt><trkpt lat="44.8139668" lon="10.3313519"><ele>54.285714285714285</ele><time>2026-05-04T13:32:53.391Z</time></trkpt><trkpt lat="44.813951" lon="10.3314472"><ele>53.857142857142854</ele><time>2026-05-04T13:32:55.39Z</time></trkpt><trkpt lat="44.813921" lon="10.33156"><ele>53.42857142857143</ele><time>2026-05-04T13:32:57.391Z</time></trkpt><trkpt lat="44.8138991" lon="10.3316654"><ele>53.0</ele><time>2026-05-04T13:32:59.39Z</time></trkpt><trkpt lat="44.8138874" lon="10.3317654"><ele>53.0</ele><time>2026-05-04T13:33:01.391Z</time></trkpt><trkpt lat="44.8138896" lon="10.3318831"><ele>53.0</ele><time>2026-05-04T13:33:03.39Z</time></trkpt><trkpt lat="44.8138778" lon="10.3320021"><ele>53.0</ele><time>2026-05-04T13:33:05.39Z</time></trkpt><trkpt lat="44.8138646" lon="10.3321343"><ele>53.0</ele><time>2026-05-04T13:33:07.39Z</time></trkpt><trkpt lat="44.8138614" lon="10.3322539"><ele>53.0</ele><time>2026-05-04T13:33:09.39Z</time></trkpt><trkpt lat="44.8138368" lon="10.3324004"><ele>53.0</ele><time>2026-05-04T13:33:11.391Z</time></trkpt><trkpt lat="44.813824" lon="10.3325483"><ele>53.0</ele><time>2026-05-04T13:33:13.391Z</time></trkpt><trkpt lat="44.8138107" lon="10.3326957"><ele>53.0</ele><time>2026-05-04T13:33:15.39Z</time></trkpt><trkpt lat="44.8137822" lon="10.3328496"><ele>53.0</ele><time>2026-05-04T13:33:17.391Z</time></trkpt><trkpt lat="44.8137712" lon="10.3329812"><ele>53.0</ele><time>2026-05-04T13:33:19.391Z</time></trkpt><trkpt lat="44.8137482" lon="10.3331356"><ele>53.2</ele><time>2026-05-04T13:33:21.39Z</time></trkpt><trkpt lat="44.8137316" lon="10.3332715"><ele>53.4</ele><time>2026-05-04T13:33:23.391Z</time></trkpt><trkpt lat="44.8137014" lon="10.3334226"><ele>53.60000000000001</ele><time>2026-05-04T13:33:25.391Z</time></trkpt><trkpt lat="44.813705" lon="10.3335586"><ele>53.800000000000004</ele><time>2026-05-04T13:33:27.39Z</time></trkpt><trkpt lat="44.8136873" lon="10.3336723"><ele>54.0</ele><time>2026-05-04T13:33:29.39Z</time></trkpt><trkpt lat="44.8136628" lon="10.3337675"><ele>53.6</ele><time>2026-05-04T13:33:30.39Z</time></trkpt><trkpt lat="44.8136276" lon="10.3339155"><ele>53.2</ele><time>2026-05-04T13:33:32.39Z</time></trkpt><trkpt lat="44.8135936" lon="10.3340563"><ele>52.800000000000004</ele><time>2026-05-04T13:33:34.391Z</time></trkpt><trkpt lat="44.8135728" lon="10.3342066"><ele>52.400000000000006</ele><time>2026-05-04T13:33:36.391Z</time></trkpt><trkpt lat="44.813532" lon="10.3343485"><ele>52.0</ele><time>2026-05-04T13:33:38.391Z</time></trkpt><trkpt lat="44.8134973" lon="10.3344934"><ele>51.8</ele><time>2026-05-04T13:33:40.39Z</time></trkpt><trkpt lat="44.8134585" lon="10.3346326"><ele>51.6</ele><time>2026-05-04T13:33:42.391Z</time></trkpt><trkpt lat="44.8134467" lon="10.3347205"><ele>51.4</ele><time>2026-05-04T13:33:43.39Z</time></trkpt><trkpt lat="44.8134065" lon="10.3348732"><ele>51.199999999999996</ele><time>2026-05-04T13:33:45.39Z</time></trkpt><trkpt lat="44.8133639" lon="10.3350244"><ele>51.0</ele><time>2026-05-04T13:33:47.39Z</time></trkpt><trkpt lat="44.8133414" lon="10.3351778"><ele>51.0</ele><time>2026-05-04T13:33:49.39Z</time></trkpt><trkpt lat="44.8132931" lon="10.3353361"><ele>51.0</ele><time>2026-05-04T13:33:51.39Z</time></trkpt><trkpt lat="44.8132649" lon="10.3354801"><ele>51.0</ele><time>2026-05-04T13:33:53.391Z</time></trkpt><trkpt lat="44.8132309" lon="10.3356214"><ele>51.0</ele><time>2026-05-04T13:33:55.39Z</time></trkpt><trkpt lat="44.8132006" lon="10.3357727"><ele>51.0</ele><time>2026-05-04T13:33:57.391Z</time></trkpt><trkpt lat="44.8131849" lon="10.335901"><ele>51.0</ele><time>2026-05-04T13:33:59.39Z</time></trkpt><trkpt lat="44.8131533" lon="10.3360239"><ele>51.0</ele><time>2026-05-04T13:34:01.391Z</time></trkpt><trkpt lat="44.813122" lon="10.3361683"><ele>51.0</ele><time>2026-05-04T13:34:03.391Z</time></trkpt><trkpt lat="44.8130927" lon="10.336302"><ele>51.0</ele><time>2026-05-04T13:34:05.391Z</time></trkpt><trkpt lat="44.8130784" lon="10.3364336"><ele>51.0</ele><time>2026-05-04T13:34:07.391Z</time></trkpt><trkpt lat="44.8130601" lon="10.3365751"><ele>51.166666666666664</ele><time>2026-05-04T13:34:09.39Z</time></trkpt><trkpt lat="44.8130306" lon="10.336702"><ele>51.33333333333333</ele><time>2026-05-04T13:34:11.391Z</time></trkpt><trkpt lat="44.8130103" lon="10.3368257"><ele>51.5</ele><time>2026-05-04T13:34:13.39Z</time></trkpt><trkpt lat="44.8130026" lon="10.3369224"><ele>51.666666666666664</ele><time>2026-05-04T13:34:15.39Z</time></trkpt><trkpt lat="44.8130553" lon="10.3369879"><ele>51.83333333333333</ele><time>2026-05-04T13:34:17.391Z</time></trkpt><trkpt lat="44.8131073" lon="10.3370504"><ele>52.0</ele><time>2026-05-04T13:34:20.39Z</time></trkpt><trkpt lat="44.8131012" lon="10.3371446"><ele>51.99999999999999</ele><time>2026-05-04T13:34:23.391Z</time></trkpt><trkpt lat="44.8130441" lon="10.3372064"><ele>52.0</ele><time>2026-05-04T13:34:25.391Z</time></trkpt><trkpt lat="44.8129691" lon="10.3372546"><ele>52.0</ele><time>2026-05-04T13:34:27.39Z</time></trkpt><trkpt lat="44.8129134" lon="10.3373359"><ele>52.0</ele><time>2026-05-04T13:34:29.39Z</time></trkpt><trkpt lat="44.8128721" lon="10.3374368"><ele>51.99999999999999</ele><time>2026-05-04T13:34:31.39Z</time></trkpt><trkpt lat="44.8128431" lon="10.3375483"><ele>52.0</ele><time>2026-05-04T13:34:33.39Z</time></trkpt><trkpt lat="44.8128159" lon="10.3376581"><ele>51.666666666666664</ele><time>2026-05-04T13:34:35.391Z</time></trkpt><trkpt lat="44.8127878" lon="10.3377471"><ele>51.33333333333333</ele><time>2026-05-04T13:34:37.391Z</time></trkpt><trkpt lat="44.8127582" lon="10.3378459"><ele>51.0</ele><time>2026-05-04T13:34:40.391Z</time></trkpt><trkpt lat="44.8127417" lon="10.3379432"><ele>50.66666666666667</ele><time>2026-05-04T13:34:42.39Z</time></trkpt><trkpt lat="44.812716" lon="10.3380494"><ele>50.333333333333336</ele><time>2026-05-04T13:34:44.391Z</time></trkpt><trkpt lat="44.812688" lon="10.3381666"><ele>50.0</ele><time>2026-05-04T13:34:46.391Z</time></trkpt><trkpt lat="44.8126626" lon="10.338282"><ele>50.0</ele><time>2026-05-04T13:34:48.391Z</time></trkpt><trkpt lat="44.812637" lon="10.3384268"><ele>50.0</ele><time>2026-05-04T13:34:50.39Z</time></trkpt><trkpt lat="44.8126026" lon="10.3385731"><ele>50.0</ele><time>2026-05-04T13:34:52.391Z</time></trkpt><trkpt lat="44.8125729" lon="10.3387222"><ele>50.0</ele><time>2026-05-04T13:34:54.39Z</time></trkpt><trkpt lat="44.8125388" lon="10.3388689"><ele>50.0</ele><time>2026-05-04T13:34:56.39Z</time></trkpt><trkpt lat="44.8125256" lon="10.3390185"><ele>49.8</ele><time>2026-05-04T13:34:58.391Z</time></trkpt><trkpt lat="44.8125084" lon="10.3391609"><ele>49.6</ele><time>2026-05-04T13:35:00.391Z</time></trkpt><trkpt lat="44.8124744" lon="10.3392974"><ele>49.400000000000006</ele><time>2026-05-04T13:35:02.391Z</time></trkpt><trkpt lat="44.8124465" lon="10.3394301"><ele>49.2</ele><time>2026-05-04T13:35:04.391Z</time></trkpt><trkpt lat="44.8124124" lon="10.339552"><ele>49.0</ele><time>2026-05-04T13:35:06.391Z</time></trkpt><trkpt lat="44.8123921" lon="10.3396971"><ele>48.6</ele><time>2026-05-04T13:35:08.391Z</time></trkpt><trkpt lat="44.8123584" lon="10.3398399"><ele>48.2</ele><time>2026-05-04T13:35:10.391Z</time></trkpt><trkpt lat="44.8123245" lon="10.3399792"><ele>47.800000000000004</ele><time>2026-05-04T13:35:12.39Z</time></trkpt><trkpt lat="44.8122883" lon="10.340133"><ele>47.400000000000006</ele><time>2026-05-04T13:35:14.39Z</time></trkpt><trkpt lat="44.8122507" lon="10.3402824"><ele>47.0</ele><time>2026-05-04T13:35:16.391Z</time></trkpt><trkpt lat="44.8122161" lon="10.3404304"><ele>47.0</ele><time>2026-05-04T13:35:18.39Z</time></trkpt><trkpt lat="44.8121747" lon="10.3405881"><ele>47.0</ele><time>2026-05-04T13:35:20.39Z</time></trkpt><trkpt lat="44.8121489" lon="10.3407228"><ele>47.0</ele><time>2026-05-04T13:35:22.39Z</time></trkpt><trkpt lat="44.8121217" lon="10.340868"><ele>47.0</ele><time>2026-05-04T13:35:24.39Z</time></trkpt><trkpt lat="44.812095" lon="10.3410119"><ele>47.0</ele><time>2026-05-04T13:35:26.391Z</time></trkpt><trkpt lat="44.8120639" lon="10.3411408"><ele>47.0</ele><time>2026-05-04T13:35:28.391Z</time></trkpt><trkpt lat="44.8120623" lon="10.3412408"><ele>47.0</ele><time>2026-05-04T13:35:30.391Z</time></trkpt><trkpt lat="44.8121502" lon="10.3412802"><ele>47.0</ele><time>2026-05-04T13:35:33.391Z</time></trkpt><trkpt lat="44.8122186" lon="10.3413004"><ele>47.0</ele><time>2026-05-04T13:35:35.391Z</time></trkpt><trkpt lat="44.8122912" lon="10.3413664"><ele>47.0</ele><time>2026-05-04T13:35:38.39Z</time></trkpt><trkpt lat="44.8123555" lon="10.3414367"><ele>47.0</ele><time>2026-05-04T13:35:40.39Z</time></trkpt><trkpt lat="44.8124411" lon="10.3414855"><ele>47.0</ele><time>2026-05-04T13:35:42.391Z</time></trkpt><trkpt lat="44.8125313" lon="10.3415393"><ele>47.0</ele><time>2026-05-04T13:35:44.391Z</time></trkpt><trkpt lat="44.8126187" lon="10.341582"><ele>47.0</ele><time>2026-05-04T13:35:46.391Z</time></trkpt><trkpt lat="44.812721" lon="10.3416243"><ele>47.0</ele><time>2026-05-04T13:35:48.391Z</time></trkpt><trkpt lat="44.8128284" lon="10.3416612"><ele>47.0</ele><time>2026-05-04T13:35:50.39Z</time></trkpt><trkpt lat="44.8128885" lon="10.3416885"><ele>47.0</ele><time>2026-05-04T13:35:51.39Z</time></trkpt><trkpt lat="44.8129471" lon="10.3417294"><ele>47.0</ele><time>2026-05-04T13:35:52.39Z</time></trkpt><trkpt lat="44.8130516" lon="10.3417756"><ele>47.0</ele><time>2026-05-04T13:35:54.39Z</time></trkpt><trkpt lat="44.8131454" lon="10.3418412"><ele>47.0</ele><time>2026-05-04T13:35:56.391Z</time></trkpt><trkpt lat="44.8132405" lon="10.3418818"><ele>47.0</ele><time>2026-05-04T13:35:58.391Z</time></trkpt><trkpt lat="44.8133043" lon="10.3419025"><ele>47.0</ele><time>2026-05-04T13:35:59.39Z</time></trkpt><trkpt lat="44.8133653" lon="10.3419254"><ele>47.0</ele><time>2026-05-04T13:36:00.391Z</time></trkpt><trkpt lat="44.8134502" lon="10.3420025"><ele>47.0</ele><time>2026-05-04T13:36:02.391Z</time></trkpt><trkpt lat="44.8134565" lon="10.3421406"><ele>47.0</ele><time>2026-05-04T13:36:04.391Z</time></trkpt><trkpt lat="44.8134358" lon="10.3422778"><ele>47.0</ele><time>2026-05-04T13:36:06.39Z</time></trkpt><trkpt lat="44.8134058" lon="10.342418"><ele>47.0</ele><time>2026-05-04T13:36:08.39Z</time></trkpt><trkpt lat="44.8133836" lon="10.3425673"><ele>47.0</ele><time>2026-05-04T13:36:10.39Z</time></trkpt><trkpt lat="44.8133589" lon="10.3427044"><ele>47.0</ele><time>2026-05-04T13:36:12.391Z</time></trkpt><trkpt lat="44.8133269" lon="10.3428634"><ele>47.0</ele><time>2026-05-04T13:36:14.39Z</time></trkpt><trkpt lat="44.8132947" lon="10.3430187"><ele>47.0</ele><time>2026-05-04T13:36:16.39Z</time></trkpt><trkpt lat="44.8132676" lon="10.343168"><ele>47.0</ele><time>2026-05-04T13:36:18.39Z</time></trkpt><trkpt lat="44.8132394" lon="10.3433167"><ele>47.0</ele><time>2026-05-04T13:36:20.391Z</time></trkpt><trkpt lat="44.8132005" lon="10.3434562"><ele>47.0</ele><time>2026-05-04T13:36:22.39Z</time></trkpt><trkpt lat="44.8131663" lon="10.3436175"><ele>47.0</ele><time>2026-05-04T13:36:24.391Z</time></trkpt><trkpt lat="44.8131363" lon="10.3437768"><ele>47.0</ele><time>2026-05-04T13:36:26.39Z</time></trkpt><trkpt lat="44.8131082" lon="10.3439351"><ele>47.0</ele><time>2026-05-04T13:36:28.39Z</time></trkpt><trkpt lat="44.8130785" lon="10.3440869"><ele>47.0</ele><time>2026-05-04T13:36:30.391Z</time></trkpt><trkpt lat="44.8130584" lon="10.3442445"><ele>47.0</ele><time>2026-05-04T13:36:32.39Z</time></trkpt><trkpt lat="44.8130379" lon="10.3443972"><ele>47.0</ele><time>2026-05-04T13:36:34.39Z</time></trkpt><trkpt lat="44.8130091" lon="10.344561"><ele>46.8</ele><time>2026-05-04T13:36:36.39Z</time></trkpt><trkpt lat="44.8129625" lon="10.3447191"><ele>46.6</ele><time>2026-05-04T13:36:38.39Z</time></trkpt><trkpt lat="44.8129327" lon="10.3447985"><ele>46.4</ele><time>2026-05-04T13:36:39.391Z</time></trkpt><trkpt lat="44.8128909" lon="10.3449681"><ele>46.199999999999996</ele><time>2026-05-04T13:36:41.391Z</time></trkpt><trkpt lat="44.8128785" lon="10.3451333"><ele>46.0</ele><time>2026-05-04T13:36:43.39Z</time></trkpt><trkpt lat="44.8128268" lon="10.3452974"><ele>46.0</ele><time>2026-05-04T13:36:45.391Z</time></trkpt><trkpt lat="44.8128045" lon="10.3453804"><ele>46.0</ele><time>2026-05-04T13:36:46.391Z</time></trkpt><trkpt lat="44.8127799" lon="10.3455362"><ele>46.0</ele><time>2026-05-04T13:36:48.39Z</time></trkpt><trkpt lat="44.8127599" lon="10.3456913"><ele>46.0</ele><time>2026-05-04T13:36:50.391Z</time></trkpt><trkpt lat="44.8127261" lon="10.3457987"><ele>46.0</ele><time>2026-05-04T13:36:52.391Z</time></trkpt><trkpt lat="44.812658" lon="10.3458072"><ele>46.0</ele><time>2026-05-04T13:36:55.39Z</time></trkpt><trkpt lat="44.8125949" lon="10.3457572"><ele>45.833333333333336</ele><time>2026-05-04T13:36:57.391Z</time></trkpt><trkpt lat="44.8125297" lon="10.3456958"><ele>45.66666666666667</ele><time>2026-05-04T13:36:59.391Z</time></trkpt><trkpt lat="44.8124531" lon="10.3456769"><ele>45.5</ele><time>2026-05-04T13:37:01.39Z</time></trkpt><trkpt lat="44.812397" lon="10.3457497"><ele>45.333333333333336</ele><time>2026-05-04T13:37:03.39Z</time></trkpt><trkpt lat="44.8123828" lon="10.3458487"><ele>45.166666666666664</ele><time>2026-05-04T13:37:05.39Z</time></trkpt><trkpt lat="44.8123768" lon="10.3459614"><ele>45.0</ele><time>2026-05-04T13:37:07.391Z</time></trkpt><trkpt lat="44.8123442" lon="10.3460688"><ele>45.0</ele><time>2026-05-04T13:37:09.391Z</time></trkpt><trkpt lat="44.8123169" lon="10.3461675"><ele>45.0</ele><time>2026-05-04T13:37:11.39Z</time></trkpt><trkpt lat="44.8123035" lon="10.3462621"><ele>45.0</ele><time>2026-05-04T13:37:13.39Z</time></trkpt><trkpt lat="44.8122849" lon="10.3463628"><ele>45.0</ele><time>2026-05-04T13:37:15.39Z</time></trkpt><trkpt lat="44.8122411" lon="10.3464688"><ele>45.0</ele><time>2026-05-04T13:37:17.391Z</time></trkpt><trkpt lat="44.8122236" lon="10.3465987"><ele>45.0</ele><time>2026-05-04T13:37:19.39Z</time></trkpt><trkpt lat="44.8122016" lon="10.346748"><ele>44.8</ele><time>2026-05-04T13:37:21.391Z</time></trkpt><trkpt lat="44.8122012" lon="10.3468876"><ele>44.6</ele><time>2026-05-04T13:37:23.39Z</time></trkpt><trkpt lat="44.8121887" lon="10.3470232"><ele>44.400000000000006</ele><time>2026-05-04T13:37:25.39Z</time></trkpt><trkpt lat="44.8121874" lon="10.347194"><ele>44.2</ele><time>2026-05-04T13:37:27.39Z</time></trkpt><trkpt lat="44.8122304" lon="10.3472756"><ele>44.0</ele><time>2026-05-04T13:37:29.39Z</time></trkpt><trkpt lat="44.8123144" lon="10.3472237"><ele>44.0</ele><time>2026-05-04T13:37:31.39Z</time></trkpt><trkpt lat="44.8123842" lon="10.3471204"><ele>44.0</ele><time>2026-05-04T13:37:33.39Z</time></trkpt><trkpt lat="44.8124451" lon="10.347177"><ele>44.0</ele><time>2026-05-04T13:37:34.391Z</time></trkpt><trkpt lat="44.8125484" lon="10.3472104"><ele>44.0</ele><time>2026-05-04T13:37:36.39Z</time></trkpt><trkpt lat="44.8126551" lon="10.3472011"><ele>44.0</ele><time>2026-05-04T13:37:38.391Z</time></trkpt><trkpt lat="44.8127232" lon="10.3472035"><ele>44.400000000000006</ele><time>2026-05-04T13:37:39.391Z</time></trkpt><trkpt lat="44.8128336" lon="10.3471988"><ele>44.8</ele><time>2026-05-04T13:37:41.39Z</time></trkpt><trkpt lat="44.8129575" lon="10.3472033"><ele>45.2</ele><time>2026-05-04T13:37:43.391Z</time></trkpt><trkpt lat="44.8130254" lon="10.347189"><ele>45.599999999999994</ele><time>2026-05-04T13:37:44.39Z</time></trkpt><trkpt lat="44.8130886" lon="10.34719"><ele>46.0</ele><time>2026-05-04T13:37:45.391Z</time></trkpt><trkpt lat="44.8132103" lon="10.3472007"><ele>46.0</ele><time>2026-05-04T13:37:47.39Z</time></trkpt><trkpt lat="44.8132748" lon="10.3472015"><ele>46.0</ele><time>2026-05-04T13:37:48.391Z</time></trkpt><trkpt lat="44.8133415" lon="10.3471919"><ele>46.0</ele><time>2026-05-04T13:37:49.39Z</time></trkpt><trkpt lat="44.8134656" lon="10.3471845"><ele>46.0</ele><time>2026-05-04T13:37:51.39Z</time></trkpt><trkpt lat="44.8135705" lon="10.3471879"><ele>46.0</ele><time>2026-05-04T13:37:53.39Z</time></trkpt><trkpt lat="44.8136788" lon="10.3471831"><ele>45.75</ele><time>2026-05-04T13:37:55.39Z</time></trkpt><trkpt lat="44.8137874" lon="10.3471931"><ele>45.5</ele><time>2026-05-04T13:37:57.39Z</time></trkpt><trkpt lat="44.8139065" lon="10.3471923"><ele>45.25</ele><time>2026-05-04T13:37:59.39Z</time></trkpt><trkpt lat="44.814023" lon="10.347209"><ele>45.0</ele><time>2026-05-04T13:38:01.391Z</time></trkpt><trkpt lat="44.8141395" lon="10.3472272"><ele>45.0</ele><time>2026-05-04T13:38:03.39Z</time></trkpt><trkpt lat="44.814209" lon="10.3472442"><ele>45.0</ele><time>2026-05-04T13:38:04.391Z</time></trkpt><trkpt lat="44.814325" lon="10.3472645"><ele>45.0</ele><time>2026-05-04T13:38:06.39Z</time></trkpt><trkpt lat="44.8143857" lon="10.3472889"><ele>45.0</ele><time>2026-05-04T13:38:07.39Z</time></trkpt><trkpt lat="44.8145118" lon="10.3473289"><ele>45.0</ele><time>2026-05-04T13:38:09.39Z</time></trkpt><trkpt lat="44.8145747" lon="10.3473627"><ele>45.0</ele><time>2026-05-04T13:38:10.39Z</time></trkpt><trkpt lat="44.8146849" lon="10.3474169"><ele>45.5</ele><time>2026-05-04T13:38:12.39Z</time></trkpt><trkpt lat="44.8147414" lon="10.3474621"><ele>46.0</ele><time>2026-05-04T13:38:13.39Z</time></trkpt><trkpt lat="44.8148442" lon="10.3475331"><ele>46.5</ele><time>2026-05-04T13:38:15.391Z</time></trkpt><trkpt lat="44.8148986" lon="10.3475779"><ele>47.0</ele><time>2026-05-04T13:38:16.391Z</time></trkpt><trkpt lat="44.8149956" lon="10.347686"><ele>47.5</ele><time>2026-05-04T13:38:18.391Z</time></trkpt><trkpt lat="44.8150434" lon="10.3477449"><ele>48.0</ele><time>2026-05-04T13:38:19.39Z</time></trkpt><trkpt lat="44.8151101" lon="10.3478685"><ele>47.599999999999994</ele><time>2026-05-04T13:38:21.39Z</time></trkpt><trkpt lat="44.8151591" lon="10.3479257"><ele>47.199999999999996</ele><time>2026-05-04T13:38:22.39Z</time></trkpt><trkpt lat="44.8152637" lon="10.3480449"><ele>46.8</ele><time>2026-05-04T13:38:24.39Z</time></trkpt><trkpt lat="44.8153574" lon="10.3481799"><ele>46.4</ele><time>2026-05-04T13:38:26.391Z</time></trkpt><trkpt lat="44.8154037" lon="10.3482493"><ele>46.0</ele><time>2026-05-04T13:38:27.391Z</time></trkpt><trkpt lat="44.8154442" lon="10.3483179"><ele>45.8</ele><time>2026-05-04T13:38:28.391Z</time></trkpt><trkpt lat="44.8155069" lon="10.3484711"><ele>45.599999999999994</ele><time>2026-05-04T13:38:30.39Z</time></trkpt><trkpt lat="44.8155868" lon="10.3485983"><ele>45.4</ele><time>2026-05-04T13:38:32.39Z</time></trkpt><trkpt lat="44.8156338" lon="10.3486961"><ele>45.2</ele><time>2026-05-04T13:38:34.39Z</time></trkpt><trkpt lat="44.8156873" lon="10.3487632"><ele>45.0</ele><time>2026-05-04T13:38:36.39Z</time></trkpt><trkpt lat="44.8157351" lon="10.3488217"><ele>44.8</ele><time>2026-05-04T13:38:38.39Z</time></trkpt><trkpt lat="44.8157912" lon="10.3489122"><ele>44.6</ele><time>2026-05-04T13:38:40.39Z</time></trkpt><trkpt lat="44.8158495" lon="10.3490097"><ele>44.400000000000006</ele><time>2026-05-04T13:38:42.39Z</time></trkpt><trkpt lat="44.8159252" lon="10.3491463"><ele>44.2</ele><time>2026-05-04T13:38:44.39Z</time></trkpt><trkpt lat="44.815977" lon="10.3492874"><ele>44.0</ele><time>2026-05-04T13:38:46.391Z</time></trkpt><trkpt lat="44.8160347" lon="10.3493758"><ele>44.0</ele><time>2026-05-04T13:38:47.39Z</time></trkpt><trkpt lat="44.8160717" lon="10.349449"><ele>44.0</ele><time>2026-05-04T13:38:48.39Z</time></trkpt><trkpt lat="44.8161153" lon="10.3495852"><ele>44.0</ele><time>2026-05-04T13:38:50.391Z</time></trkpt><trkpt lat="44.8161746" lon="10.3497405"><ele>44.0</ele><time>2026-05-04T13:38:52.391Z</time></trkpt><trkpt lat="44.8162452" lon="10.3498836"><ele>44.0</ele><time>2026-05-04T13:38:54.39Z</time></trkpt><trkpt lat="44.8163073" lon="10.3500207"><ele>43.800000000000004</ele><time>2026-05-04T13:38:56.391Z</time></trkpt><trkpt lat="44.8163421" lon="10.3501073"><ele>43.6</ele><time>2026-05-04T13:38:57.39Z</time></trkpt><trkpt lat="44.8163746" lon="10.3501909"><ele>43.4</ele><time>2026-05-04T13:38:58.391Z</time></trkpt><trkpt lat="44.8164128" lon="10.3502755"><ele>43.2</ele><time>2026-05-04T13:38:59.39Z</time></trkpt><trkpt lat="44.8164592" lon="10.3504299"><ele>43.0</ele><time>2026-05-04T13:39:01.391Z</time></trkpt><trkpt lat="44.8165112" lon="10.3505878"><ele>43.0</ele><time>2026-05-04T13:39:03.39Z</time></trkpt><trkpt lat="44.8165419" lon="10.3506703"><ele>43.0</ele><time>2026-05-04T13:39:04.391Z</time></trkpt><trkpt lat="44.8165651" lon="10.3507581"><ele>43.0</ele><time>2026-05-04T13:39:05.391Z</time></trkpt><trkpt lat="44.8165921" lon="10.3508411"><ele>43.0</ele><time>2026-05-04T13:39:06.391Z</time></trkpt><trkpt lat="44.8166208" lon="10.3509246"><ele>43.0</ele><time>2026-05-04T13:39:07.391Z</time></trkpt><trkpt lat="44.8166547" lon="10.3510157"><ele>43.0</ele><time>2026-05-04T13:39:08.391Z</time></trkpt><trkpt lat="44.8167153" lon="10.3511807"><ele>43.0</ele><time>2026-05-04T13:39:10.391Z</time></trkpt><trkpt lat="44.8167399" lon="10.3512683"><ele>43.0</ele><time>2026-05-04T13:39:11.39Z</time></trkpt><trkpt lat="44.8167727" lon="10.3513477"><ele>43.0</ele><time>2026-05-04T13:39:12.391Z</time></trkpt><trkpt lat="44.816823" lon="10.3515149"><ele>43.0</ele><time>2026-05-04T13:39:14.391Z</time></trkpt><trkpt lat="44.8168751" lon="10.3516687"><ele>43.0</ele><time>2026-05-04T13:39:16.39Z</time></trkpt><trkpt lat="44.8169044" lon="10.3517505"><ele>43.0</ele><time>2026-05-04T13:39:17.39Z</time></trkpt><trkpt lat="44.8169337" lon="10.3518344"><ele>43.0</ele><time>2026-05-04T13:39:18.39Z</time></trkpt><trkpt lat="44.8169638" lon="10.3519161"><ele>43.0</ele><time>2026-05-04T13:39:19.39Z</time></trkpt><trkpt lat="44.8170088" lon="10.3520851"><ele>43.0</ele><time>2026-05-04T13:39:21.39Z</time></trkpt><trkpt lat="44.8170723" lon="10.3522452"><ele>43.0</ele><time>2026-05-04T13:39:23.39Z</time></trkpt><trkpt lat="44.8170978" lon="10.3523281"><ele>43.0</ele><time>2026-05-04T13:39:24.391Z</time></trkpt><trkpt lat="44.8171518" lon="10.3524767"><ele>43.0</ele><time>2026-05-04T13:39:26.39Z</time></trkpt><trkpt lat="44.8172078" lon="10.3526313"><ele>43.0</ele><time>2026-05-04T13:39:28.39Z</time></trkpt><trkpt lat="44.8172549" lon="10.3527898"><ele>43.0</ele><time>2026-05-04T13:39:30.39Z</time></trkpt><trkpt lat="44.8172934" lon="10.3529371"><ele>43.0</ele><time>2026-05-04T13:39:32.39Z</time></trkpt><trkpt lat="44.8173306" lon="10.3530676"><ele>43.5</ele><time>2026-05-04T13:39:34.391Z</time></trkpt><trkpt lat="44.8173699" lon="10.3532095"><ele>44.0</ele><time>2026-05-04T13:39:36.391Z</time></trkpt><trkpt lat="44.817401" lon="10.3533609"><ele>44.5</ele><time>2026-05-04T13:39:38.39Z</time></trkpt><trkpt lat="44.8174393" lon="10.3535198"><ele>45.0</ele><time>2026-05-04T13:39:40.39Z</time></trkpt><trkpt lat="44.8174512" lon="10.3536758"><ele>45.0</ele><time>2026-05-04T13:39:42.391Z</time></trkpt><trkpt lat="44.8174593" lon="10.3538453"><ele>45.0</ele><time>2026-05-04T13:39:44.391Z</time></trkpt><trkpt lat="44.8174794" lon="10.3539998"><ele>45.0</ele><time>2026-05-04T13:39:46.39Z</time></trkpt><trkpt lat="44.8175254" lon="10.354149"><ele>45.0</ele><time>2026-05-04T13:39:48.39Z</time></trkpt><trkpt lat="44.8175428" lon="10.3542359"><ele>45.0</ele><time>2026-05-04T13:39:49.39Z</time></trkpt><trkpt lat="44.8175548" lon="10.3543235"><ele>44.6</ele><time>2026-05-04T13:39:50.391Z</time></trkpt><trkpt lat="44.8176052" lon="10.3544713"><ele>44.2</ele><time>2026-05-04T13:39:52.391Z</time></trkpt><trkpt lat="44.8176887" lon="10.3545591"><ele>43.8</ele><time>2026-05-04T13:39:54.391Z</time></trkpt><trkpt lat="44.8177919" lon="10.3546071"><ele>43.4</ele><time>2026-05-04T13:39:56.391Z</time></trkpt><trkpt lat="44.8179026" lon="10.3546435"><ele>43.0</ele><time>2026-05-04T13:39:58.391Z</time></trkpt><trkpt lat="44.8179684" lon="10.3546983"><ele>42.833333333333336</ele><time>2026-05-04T13:40:00.391Z</time></trkpt><trkpt lat="44.8179702" lon="10.3548121"><ele>42.66666666666667</ele><time>2026-05-04T13:40:08.39Z</time></trkpt><trkpt lat="44.8179566" lon="10.3548994"><ele>42.5</ele><time>2026-05-04T13:40:10.39Z</time></trkpt><trkpt lat="44.817899" lon="10.3549638"><ele>42.333333333333336</ele><time>2026-05-04T13:40:12.39Z</time></trkpt><trkpt lat="44.8178057" lon="10.3550199"><ele>42.166666666666664</ele><time>2026-05-04T13:40:14.391Z</time></trkpt><trkpt lat="44.8177424" lon="10.3550962"><ele>42.0</ele><time>2026-05-04T13:40:16.391Z</time></trkpt><trkpt lat="44.8177152" lon="10.3552192"><ele>42.0</ele><time>2026-05-04T13:40:18.391Z</time></trkpt><trkpt lat="44.8177241" lon="10.3553664"><ele>42.0</ele><time>2026-05-04T13:40:20.39Z</time></trkpt><trkpt lat="44.8177538" lon="10.355524"><ele>42.0</ele><time>2026-05-04T13:40:22.39Z</time></trkpt><trkpt lat="44.8177772" lon="10.3556836"><ele>42.0</ele><time>2026-05-04T13:40:24.39Z</time></trkpt><trkpt lat="44.817822" lon="10.355831"><ele>42.25</ele><time>2026-05-04T13:40:26.39Z</time></trkpt><trkpt lat="44.8178583" lon="10.3559679"><ele>42.5</ele><time>2026-05-04T13:40:28.39Z</time></trkpt><trkpt lat="44.8178969" lon="10.3561306"><ele>42.75</ele><time>2026-05-04T13:40:30.39Z</time></trkpt><trkpt lat="44.8179158" lon="10.3562972"><ele>43.0</ele><time>2026-05-04T13:40:32.39Z</time></trkpt><trkpt lat="44.8179514" lon="10.3564614"><ele>42.5</ele><time>2026-05-04T13:40:34.391Z</time></trkpt><trkpt lat="44.8179772" lon="10.3566277"><ele>42.0</ele><time>2026-05-04T13:40:36.391Z</time></trkpt><trkpt lat="44.8180107" lon="10.3567877"><ele>41.5</ele><time>2026-05-04T13:40:38.391Z</time></trkpt><trkpt lat="44.8180327" lon="10.3569482"><ele>41.0</ele><time>2026-05-04T13:40:40.39Z</time></trkpt><trkpt lat="44.8180558" lon="10.3570952"><ele>40.75</ele><time>2026-05-04T13:40:42.39Z</time></trkpt><trkpt lat="44.8180817" lon="10.3572565"><ele>40.5</ele><time>2026-05-04T13:40:44.391Z</time></trkpt><trkpt lat="44.8181059" lon="10.357416"><ele>40.25</ele><time>2026-05-04T13:40:46.39Z</time></trkpt><trkpt lat="44.818133" lon="10.3575649"><ele>40.0</ele><time>2026-05-04T13:40:48.39Z</time></trkpt><trkpt lat="44.8181604" lon="10.357727"><ele>40.0</ele><time>2026-05-04T13:40:50.391Z</time></trkpt><trkpt lat="44.8181938" lon="10.3578834"><ele>40.0</ele><time>2026-05-04T13:40:52.39Z</time></trkpt><trkpt lat="44.8182267" lon="10.3580333"><ele>40.0</ele><time>2026-05-04T13:40:54.39Z</time></trkpt><trkpt lat="44.818243" lon="10.3581207"><ele>40.0</ele><time>2026-05-04T13:40:55.39Z</time></trkpt><trkpt lat="44.8182619" lon="10.3582059"><ele>40.0</ele><time>2026-05-04T13:40:56.39Z</time></trkpt><trkpt lat="44.8182832" lon="10.35838"><ele>40.0</ele><time>2026-05-04T13:40:58.39Z</time></trkpt><trkpt lat="44.8183027" lon="10.3584737"><ele>40.0</ele><time>2026-05-04T13:40:59.391Z</time></trkpt><trkpt lat="44.8183146" lon="10.3585632"><ele>40.0</ele><time>2026-05-04T13:41:00.391Z</time></trkpt><trkpt lat="44.8183239" lon="10.3586531"><ele>40.0</ele><time>2026-05-04T13:41:01.391Z</time></trkpt><trkpt lat="44.8183604" lon="10.3588237"><ele>40.0</ele><time>2026-05-04T13:41:03.39Z</time></trkpt><trkpt lat="44.8183816" lon="10.3589094"><ele>40.0</ele><time>2026-05-04T13:41:04.39Z</time></trkpt><trkpt lat="44.8184054" lon="10.3590007"><ele>40.6</ele><time>2026-05-04T13:41:05.39Z</time></trkpt><trkpt lat="44.8184187" lon="10.3590956"><ele>41.2</ele><time>2026-05-04T13:41:06.39Z</time></trkpt><trkpt lat="44.8184447" lon="10.3591784"><ele>41.8</ele><time>2026-05-04T13:41:07.391Z</time></trkpt><trkpt lat="44.8184809" lon="10.3593528"><ele>42.4</ele><time>2026-05-04T13:41:09.391Z</time></trkpt><trkpt lat="44.8184975" lon="10.3595164"><ele>43.0</ele><time>2026-05-04T13:41:11.39Z</time></trkpt><trkpt lat="44.8185206" lon="10.3596925"><ele>42.5</ele><time>2026-05-04T13:41:13.39Z</time></trkpt><trkpt lat="44.818548" lon="10.3598606"><ele>42.0</ele><time>2026-05-04T13:41:15.391Z</time></trkpt><trkpt lat="44.8185634" lon="10.3599476"><ele>41.5</ele><time>2026-05-04T13:41:16.39Z</time></trkpt><trkpt lat="44.8185822" lon="10.360036"><ele>41.0</ele><time>2026-05-04T13:41:17.391Z</time></trkpt><trkpt lat="44.8185985" lon="10.3601276"><ele>40.5</ele><time>2026-05-04T13:41:18.391Z</time></trkpt><trkpt lat="44.8186246" lon="10.3602958"><ele>40.0</ele><time>2026-05-04T13:41:20.391Z</time></trkpt><trkpt lat="44.8186498" lon="10.3604572"><ele>39.2</ele><time>2026-05-04T13:41:22.391Z</time></trkpt><trkpt lat="44.8186742" lon="10.3606043"><ele>38.4</ele><time>2026-05-04T13:41:24.391Z</time></trkpt><trkpt lat="44.8186887" lon="10.3607352"><ele>37.6</ele><time>2026-05-04T13:41:26.391Z</time></trkpt><trkpt lat="44.8187027" lon="10.3608902"><ele>36.8</ele><time>2026-05-04T13:41:28.391Z</time></trkpt><trkpt lat="44.8187342" lon="10.3610392"><ele>36.0</ele><time>2026-05-04T13:41:30.391Z</time></trkpt><trkpt lat="44.8187605" lon="10.3611781"><ele>36.0</ele><time>2026-05-04T13:41:32.391Z</time></trkpt><trkpt lat="44.818793" lon="10.3613264"><ele>36.0</ele><time>2026-05-04T13:41:34.39Z</time></trkpt><trkpt lat="44.818857" lon="10.3614289"><ele>36.0</ele><time>2026-05-04T13:41:36.39Z</time></trkpt><trkpt lat="44.8189481" lon="10.3615106"><ele>36.0</ele><time>2026-05-04T13:41:38.39Z</time></trkpt><trkpt lat="44.8190235" lon="10.3616448"><ele>36.0</ele><time>2026-05-04T13:41:40.39Z</time></trkpt><trkpt lat="44.8191021" lon="10.3617474"><ele>36.2</ele><time>2026-05-04T13:41:42.39Z</time></trkpt><trkpt lat="44.8191751" lon="10.361843"><ele>36.400000000000006</ele><time>2026-05-04T13:41:44.391Z</time></trkpt><trkpt lat="44.8191625" lon="10.3619669"><ele>36.6</ele><time>2026-05-04T13:41:46.391Z</time></trkpt><trkpt lat="44.8190961" lon="10.3620658"><ele>36.800000000000004</ele><time>2026-05-04T13:41:48.391Z</time></trkpt><trkpt lat="44.8190112" lon="10.3621414"><ele>37.0</ele><time>2026-05-04T13:41:50.39Z</time></trkpt><trkpt lat="44.8189686" lon="10.3622862"><ele>37.75</ele><time>2026-05-04T13:41:52.39Z</time></trkpt><trkpt lat="44.8189771" lon="10.3624405"><ele>38.5</ele><time>2026-05-04T13:41:54.39Z</time></trkpt><trkpt lat="44.8189894" lon="10.3626076"><ele>39.25</ele><time>2026-05-04T13:41:56.39Z</time></trkpt><trkpt lat="44.8190084" lon="10.3627767"><ele>40.0</ele><time>2026-05-04T13:41:58.391Z</time></trkpt><trkpt lat="44.8190306" lon="10.362939"><ele>40.2</ele><time>2026-05-04T13:42:00.39Z</time></trkpt><trkpt lat="44.8190533" lon="10.3631086"><ele>40.4</ele><time>2026-05-04T13:42:02.391Z</time></trkpt><trkpt lat="44.8190609" lon="10.3632166"><ele>40.599999999999994</ele><time>2026-05-04T13:42:03.39Z</time></trkpt><trkpt lat="44.8190938" lon="10.3633744"><ele>40.8</ele><time>2026-05-04T13:42:05.39Z</time></trkpt><trkpt lat="44.8191275" lon="10.3635259"><ele>41.0</ele><time>2026-05-04T13:42:07.39Z</time></trkpt><trkpt lat="44.8191596" lon="10.3636105"><ele>41.0</ele><time>2026-05-04T13:42:08.391Z</time></trkpt><trkpt lat="44.8191756" lon="10.3637174"><ele>41.0</ele><time>2026-05-04T13:42:10.391Z</time></trkpt><trkpt lat="44.8192634" lon="10.3637564"><ele>41.0</ele><time>2026-05-04T13:42:12.39Z</time></trkpt><trkpt lat="44.8193821" lon="10.3637958"><ele>41.0</ele><time>2026-05-04T13:42:14.391Z</time></trkpt><trkpt lat="44.8194996" lon="10.3638342"><ele>41.0</ele><time>2026-05-04T13:42:16.39Z</time></trkpt><trkpt lat="44.8196194" lon="10.3638852"><ele>40.42857142857142</ele><time>2026-05-04T13:42:18.39Z</time></trkpt><trkpt lat="44.8196836" lon="10.3639036"><ele>39.857142857142854</ele><time>2026-05-04T13:42:19.391Z</time></trkpt><trkpt lat="44.8197545" lon="10.363928"><ele>39.285714285714285</ele><time>2026-05-04T13:42:20.391Z</time></trkpt><trkpt lat="44.8198199" lon="10.3639652"><ele>38.71428571428571</ele><time>2026-05-04T13:42:21.391Z</time></trkpt><trkpt lat="44.8199072" lon="10.3639802"><ele>38.14285714285714</ele><time>2026-05-04T13:42:22.39Z</time></trkpt><trkpt lat="44.8199828" lon="10.3640061"><ele>37.57142857142857</ele><time>2026-05-04T13:42:23.39Z</time></trkpt><trkpt lat="44.8200546" lon="10.3640329"><ele>37.0</ele><time>2026-05-04T13:42:24.39Z</time></trkpt><trkpt lat="44.8201397" lon="10.3640636"><ele>37.16666666666667</ele><time>2026-05-04T13:42:25.39Z</time></trkpt><trkpt lat="44.8202223" lon="10.3640947"><ele>37.333333333333336</ele><time>2026-05-04T13:42:26.39Z</time></trkpt><trkpt lat="44.8203079" lon="10.3641251"><ele>37.5</ele><time>2026-05-04T13:42:27.391Z</time></trkpt><trkpt lat="44.8203828" lon="10.3641517"><ele>37.666666666666664</ele><time>2026-05-04T13:42:28.379Z</time></trkpt><trkpt lat="44.8204526" lon="10.364169"><ele>37.83333333333333</ele><time>2026-05-04T13:42:29.39Z</time></trkpt><trkpt lat="44.82052" lon="10.3641956"><ele>38.0</ele><time>2026-05-04T13:42:30.391Z</time></trkpt><trkpt lat="44.8205803" lon="10.3642267"><ele>38.0</ele><time>2026-05-04T13:42:31.39Z</time></trkpt><trkpt lat="44.8206697" lon="10.3642643"><ele>38.0</ele><time>2026-05-04T13:42:33.391Z</time></trkpt><trkpt lat="44.8207505" lon="10.3642954"><ele>38.0</ele><time>2026-05-04T13:42:35.39Z</time></trkpt><trkpt lat="44.8208012" lon="10.3643543"><ele>38.0</ele><time>2026-05-04T13:42:37.391Z</time></trkpt><trkpt lat="44.820803" lon="10.3644581"><ele>38.0</ele><time>2026-05-04T13:42:39.39Z</time></trkpt><trkpt lat="44.8207051" lon="10.3644635"><ele>38.0</ele><time>2026-05-04T13:42:41.39Z</time></trkpt><trkpt lat="44.820601" lon="10.364434"><ele>38.0</ele><time>2026-05-04T13:42:43.391Z</time></trkpt><trkpt lat="44.8205101" lon="10.3643976"><ele>38.0</ele><time>2026-05-04T13:42:45.39Z</time></trkpt><trkpt lat="44.8203999" lon="10.3644027"><ele>38.0</ele><time>2026-05-04T13:42:47.39Z</time></trkpt><trkpt lat="44.8203228" lon="10.3645114"><ele>38.0</ele><time>2026-05-04T13:42:49.391Z</time></trkpt><trkpt lat="44.8203057" lon="10.3646585"><ele>38.0</ele><time>2026-05-04T13:42:51.391Z</time></trkpt><trkpt lat="44.8202833" lon="10.3648089"><ele>38.0</ele><time>2026-05-04T13:42:53.39Z</time></trkpt><trkpt lat="44.8202613" lon="10.364968"><ele>38.0</ele><time>2026-05-04T13:42:55.391Z</time></trkpt><trkpt lat="44.8202391" lon="10.3651266"><ele>38.0</ele><time>2026-05-04T13:42:57.391Z</time></trkpt><trkpt lat="44.8202169" lon="10.3652656"><ele>38.0</ele><time>2026-05-04T13:42:59.39Z</time></trkpt><trkpt lat="44.8201984" lon="10.3653954"><ele>38.0</ele><time>2026-05-04T13:43:01.391Z</time></trkpt><trkpt lat="44.8201819" lon="10.365542"><ele>38.0</ele><time>2026-05-04T13:43:03.391Z</time></trkpt><trkpt lat="44.8201591" lon="10.3657201"><ele>38.0</ele><time>2026-05-04T13:43:05.391Z</time></trkpt><trkpt lat="44.8201394" lon="10.3658937"><ele>38.0</ele><time>2026-05-04T13:43:07.391Z</time></trkpt><trkpt lat="44.8201229" lon="10.3660536"><ele>38.0</ele><time>2026-05-04T13:43:09.39Z</time></trkpt><trkpt lat="44.8201198" lon="10.3661448"><ele>38.0</ele><time>2026-05-04T13:43:10.39Z</time></trkpt><trkpt lat="44.8201014" lon="10.3662303"><ele>37.6</ele><time>2026-05-04T13:43:11.391Z</time></trkpt><trkpt lat="44.8200886" lon="10.3663185"><ele>37.199999999999996</ele><time>2026-05-04T13:43:12.39Z</time></trkpt><trkpt lat="44.8200632" lon="10.3664921"><ele>36.8</ele><time>2026-05-04T13:43:14.39Z</time></trkpt><trkpt lat="44.82004" lon="10.3666579"><ele>36.4</ele><time>2026-05-04T13:43:16.391Z</time></trkpt><trkpt lat="44.8200318" lon="10.3667517"><ele>36.0</ele><time>2026-05-04T13:43:17.391Z</time></trkpt><trkpt lat="44.8200126" lon="10.366927"><ele>36.666666666666664</ele><time>2026-05-04T13:43:19.39Z</time></trkpt><trkpt lat="44.8200042" lon="10.3670152"><ele>37.333333333333336</ele><time>2026-05-04T13:43:20.39Z</time></trkpt><trkpt lat="44.8199906" lon="10.3671037"><ele>38.0</ele><time>2026-05-04T13:43:21.391Z</time></trkpt><trkpt lat="44.8199765" lon="10.3672734"><ele>38.66666666666667</ele><time>2026-05-04T13:43:23.39Z</time></trkpt><trkpt lat="44.8199512" lon="10.3674317"><ele>39.333333333333336</ele><time>2026-05-04T13:43:25.391Z</time></trkpt><trkpt lat="44.8199436" lon="10.3675222"><ele>40.0</ele><time>2026-05-04T13:43:26.391Z</time></trkpt><trkpt lat="44.8199487" lon="10.3676108"><ele>40.0</ele><time>2026-05-04T13:43:27.39Z</time></trkpt><trkpt lat="44.8199426" lon="10.3677775"><ele>40.0</ele><time>2026-05-04T13:43:29.391Z</time></trkpt><trkpt lat="44.8199349" lon="10.3679439"><ele>40.0</ele><time>2026-05-04T13:43:31.39Z</time></trkpt><trkpt lat="44.8199329" lon="10.368034"><ele>40.0</ele><time>2026-05-04T13:43:32.391Z</time></trkpt><trkpt lat="44.8199367" lon="10.3681253"><ele>40.0</ele><time>2026-05-04T13:43:33.391Z</time></trkpt><trkpt lat="44.8199242" lon="10.368216"><ele>40.0</ele><time>2026-05-04T13:43:34.39Z</time></trkpt><trkpt lat="44.8199309" lon="10.3683081"><ele>40.0</ele><time>2026-05-04T13:43:35.391Z</time></trkpt><trkpt lat="44.8199416" lon="10.3684761"><ele>40.0</ele><time>2026-05-04T13:43:37.39Z</time></trkpt><trkpt lat="44.8199516" lon="10.368651"><ele>40.0</ele><time>2026-05-04T13:43:39.39Z</time></trkpt><trkpt lat="44.8199669" lon="10.368813"><ele>40.0</ele><time>2026-05-04T13:43:41.39Z</time></trkpt><trkpt lat="44.8199852" lon="10.3689825"><ele>39.75</ele><time>2026-05-04T13:43:43.391Z</time></trkpt><trkpt lat="44.819996" lon="10.3691518"><ele>39.5</ele><time>2026-05-04T13:43:45.39Z</time></trkpt><trkpt lat="44.8200138" lon="10.3693258"><ele>39.25</ele><time>2026-05-04T13:43:47.391Z</time></trkpt><trkpt lat="44.8200223" lon="10.3694981"><ele>39.0</ele><time>2026-05-04T13:43:49.391Z</time></trkpt><trkpt lat="44.8200398" lon="10.3696736"><ele>39.25</ele><time>2026-05-04T13:43:51.391Z</time></trkpt><trkpt lat="44.8200676" lon="10.3698361"><ele>39.5</ele><time>2026-05-04T13:43:53.391Z</time></trkpt><trkpt lat="44.8200897" lon="10.3700044"><ele>39.75</ele><time>2026-05-04T13:43:55.39Z</time></trkpt><trkpt lat="44.8201154" lon="10.3701751"><ele>40.0</ele><time>2026-05-04T13:43:57.391Z</time></trkpt><trkpt lat="44.8201446" lon="10.3703444"><ele>39.6</ele><time>2026-05-04T13:43:59.39Z</time></trkpt><trkpt lat="44.8201589" lon="10.3704346"><ele>39.2</ele><time>2026-05-04T13:44:00.391Z</time></trkpt><trkpt lat="44.8201732" lon="10.370601"><ele>38.8</ele><time>2026-05-04T13:44:02.391Z</time></trkpt><trkpt lat="44.8202372" lon="10.3707378"><ele>38.4</ele><time>2026-05-04T13:44:04.39Z</time></trkpt><trkpt lat="44.8202842" lon="10.3708877"><ele>38.0</ele><time>2026-05-04T13:44:06.391Z</time></trkpt><trkpt lat="44.8202998" lon="10.3709751"><ele>37.83333333333333</ele><time>2026-05-04T13:44:07.39Z</time></trkpt><trkpt lat="44.8203102" lon="10.3710661"><ele>37.666666666666664</ele><time>2026-05-04T13:44:08.391Z</time></trkpt><trkpt lat="44.8203207" lon="10.3711595"><ele>37.5</ele><time>2026-05-04T13:44:09.39Z</time></trkpt><trkpt lat="44.8203369" lon="10.3713388"><ele>37.333333333333336</ele><time>2026-05-04T13:44:11.391Z</time></trkpt><trkpt lat="44.8203502" lon="10.3714353"><ele>37.16666666666667</ele><time>2026-05-04T13:44:12.391Z</time></trkpt><trkpt lat="44.8203666" lon="10.3715324"><ele>37.0</ele><time>2026-05-04T13:44:13.39Z</time></trkpt><trkpt lat="44.8203882" lon="10.3716801"><ele>37.333333333333336</ele><time>2026-05-04T13:44:15.391Z</time></trkpt><trkpt lat="44.8203843" lon="10.3717848"><ele>37.66666666666667</ele><time>2026-05-04T13:44:17.391Z</time></trkpt><trkpt lat="44.8203794" lon="10.3719067"><ele>38.0</ele><time>2026-05-04T13:44:19.39Z</time></trkpt><trkpt lat="44.8204013" lon="10.3720249"><ele>38.333333333333336</ele><time>2026-05-04T13:44:21.391Z</time></trkpt><trkpt lat="44.8204115" lon="10.3721625"><ele>38.666666666666664</ele><time>2026-05-04T13:44:23.391Z</time></trkpt><trkpt lat="44.8204185" lon="10.3722878"><ele>39.0</ele><time>2026-05-04T13:44:25.391Z</time></trkpt><trkpt lat="44.8204183" lon="10.3724471"><ele>39.0</ele><time>2026-05-04T13:44:27.391Z</time></trkpt><trkpt lat="44.8204371" lon="10.3725712"><ele>39.0</ele><time>2026-05-04T13:44:29.39Z</time></trkpt><trkpt lat="44.8204498" lon="10.372713"><ele>39.0</ele><time>2026-05-04T13:44:31.391Z</time></trkpt><trkpt lat="44.8204813" lon="10.3728516"><ele>39.0</ele><time>2026-05-04T13:44:33.391Z</time></trkpt><trkpt lat="44.8204922" lon="10.3730083"><ele>39.0</ele><time>2026-05-04T13:44:35.39Z</time></trkpt><trkpt lat="44.8205133" lon="10.3731604"><ele>39.25</ele><time>2026-05-04T13:44:37.391Z</time></trkpt><trkpt lat="44.8205436" lon="10.3733176"><ele>39.5</ele><time>2026-05-04T13:44:39.391Z</time></trkpt><trkpt lat="44.8205729" lon="10.3734789"><ele>39.75</ele><time>2026-05-04T13:44:41.39Z</time></trkpt><trkpt lat="44.8206144" lon="10.3736234"><ele>40.0</ele><time>2026-05-04T13:44:43.39Z</time></trkpt><trkpt lat="44.8206654" lon="10.3737561"><ele>40.0</ele><time>2026-05-04T13:44:45.39Z</time></trkpt><trkpt lat="44.8207211" lon="10.3739053"><ele>40.0</ele><time>2026-05-04T13:44:47.391Z</time></trkpt><trkpt lat="44.8207677" lon="10.3740534"><ele>40.0</ele><time>2026-05-04T13:44:49.391Z</time></trkpt><trkpt lat="44.8208136" lon="10.3742011"><ele>40.0</ele><time>2026-05-04T13:44:51.391Z</time></trkpt><trkpt lat="44.8208289" lon="10.3743658"><ele>40.0</ele><time>2026-05-04T13:44:53.39Z</time></trkpt><trkpt lat="44.82085" lon="10.3745365"><ele>40.0</ele><time>2026-05-04T13:44:55.39Z</time></trkpt><trkpt lat="44.8208766" lon="10.374698"><ele>40.0</ele><time>2026-05-04T13:44:57.39Z</time></trkpt><trkpt lat="44.8209014" lon="10.3748614"><ele>40.0</ele><time>2026-05-04T13:44:59.391Z</time></trkpt><trkpt lat="44.8209364" lon="10.3750267"><ele>39.5</ele><time>2026-05-04T13:45:01.39Z</time></trkpt><trkpt lat="44.8209879" lon="10.3751732"><ele>39.0</ele><time>2026-05-04T13:45:03.39Z</time></trkpt><trkpt lat="44.8210667" lon="10.3752971"><ele>38.5</ele><time>2026-05-04T13:45:05.391Z</time></trkpt><trkpt lat="44.8211651" lon="10.3754027"><ele>38.0</ele><time>2026-05-04T13:45:07.39Z</time></trkpt><trkpt lat="44.8212557" lon="10.3755164"><ele>39.25</ele><time>2026-05-04T13:45:09.39Z</time></trkpt><trkpt lat="44.821318" lon="10.3756512"><ele>40.5</ele><time>2026-05-04T13:45:11.391Z</time></trkpt><trkpt lat="44.8213293" lon="10.3758159"><ele>41.75</ele><time>2026-05-04T13:45:13.39Z</time></trkpt><trkpt lat="44.8213388" lon="10.3759981"><ele>43.0</ele><time>2026-05-04T13:45:15.39Z</time></trkpt><trkpt lat="44.821359" lon="10.3761775"><ele>43.0</ele><time>2026-05-04T13:45:17.39Z</time></trkpt><trkpt lat="44.8214043" lon="10.3762585"><ele>43.0</ele><time>2026-05-04T13:45:18.391Z</time></trkpt><trkpt lat="44.8214619" lon="10.3764026"><ele>43.0</ele><time>2026-05-04T13:45:20.39Z</time></trkpt><trkpt lat="44.8214918" lon="10.3764809"><ele>43.0</ele><time>2026-05-04T13:45:21.39Z</time></trkpt><trkpt lat="44.8215441" lon="10.3766334"><ele>43.0</ele><time>2026-05-04T13:45:23.39Z</time></trkpt><trkpt lat="44.8216051" lon="10.376778"><ele>43.16666666666667</ele><time>2026-05-04T13:45:25.391Z</time></trkpt><trkpt lat="44.8216282" lon="10.3768628"><ele>43.333333333333336</ele><time>2026-05-04T13:45:26.391Z</time></trkpt><trkpt lat="44.8216513" lon="10.3769469"><ele>43.5</ele><time>2026-05-04T13:45:27.39Z</time></trkpt><trkpt lat="44.8217104" lon="10.3771137"><ele>43.666666666666664</ele><time>2026-05-04T13:45:29.391Z</time></trkpt><trkpt lat="44.8217429" lon="10.37719"><ele>43.83333333333333</ele><time>2026-05-04T13:45:30.39Z</time></trkpt><trkpt lat="44.8217973" lon="10.3773469"><ele>44.0</ele><time>2026-05-04T13:45:32.391Z</time></trkpt><trkpt lat="44.8218283" lon="10.3774244"><ele>44.0</ele><time>2026-05-04T13:45:33.39Z</time></trkpt><trkpt lat="44.8218873" lon="10.3775754"><ele>44.0</ele><time>2026-05-04T13:45:35.391Z</time></trkpt><trkpt lat="44.8219189" lon="10.3776554"><ele>44.0</ele><time>2026-05-04T13:45:36.39Z</time></trkpt><trkpt lat="44.8219777" lon="10.3778086"><ele>44.0</ele><time>2026-05-04T13:45:38.391Z</time></trkpt><trkpt lat="44.8220083" lon="10.3778862"><ele>44.0</ele><time>2026-05-04T13:45:39.39Z</time></trkpt><trkpt lat="44.8220623" lon="10.3780467"><ele>43.666666666666664</ele><time>2026-05-04T13:45:41.391Z</time></trkpt><trkpt lat="44.8220927" lon="10.3781304"><ele>43.33333333333333</ele><time>2026-05-04T13:45:42.391Z</time></trkpt><trkpt lat="44.8221253" lon="10.3782072"><ele>43.0</ele><time>2026-05-04T13:45:43.391Z</time></trkpt><trkpt lat="44.8221903" lon="10.3783606"><ele>42.666666666666664</ele><time>2026-05-04T13:45:45.391Z</time></trkpt><trkpt lat="44.8222298" lon="10.3784313"><ele>42.333333333333336</ele><time>2026-05-04T13:45:46.39Z</time></trkpt><trkpt lat="44.8222708" lon="10.3785013"><ele>42.0</ele><time>2026-05-04T13:45:47.39Z</time></trkpt><trkpt lat="44.8223413" lon="10.3786109"><ele>42.0</ele><time>2026-05-04T13:45:49.391Z</time></trkpt><trkpt lat="44.8223952" lon="10.3786848"><ele>42.0</ele><time>2026-05-04T13:45:51.391Z</time></trkpt><trkpt lat="44.8224303" lon="10.3787746"><ele>42.0</ele><time>2026-05-04T13:45:54.39Z</time></trkpt><trkpt lat="44.8224876" lon="10.3788251"><ele>42.0</ele><time>2026-05-04T13:45:57.391Z</time></trkpt><trkpt lat="44.8225495" lon="10.3788707"><ele>42.0</ele><time>2026-05-04T13:45:59.39Z</time></trkpt><trkpt lat="44.8226118" lon="10.3789222"><ele>42.0</ele><time>2026-05-04T13:46:01.39Z</time></trkpt><trkpt lat="44.822679" lon="10.3789729"><ele>42.0</ele><time>2026-05-04T13:46:03.39Z</time></trkpt><trkpt lat="44.8227726" lon="10.3790188"><ele>41.4</ele><time>2026-05-04T13:46:06.391Z</time></trkpt><trkpt lat="44.8228461" lon="10.3790714"><ele>40.800000000000004</ele><time>2026-05-04T13:46:08.39Z</time></trkpt><trkpt lat="44.8229208" lon="10.3791569"><ele>40.2</ele><time>2026-05-04T13:46:10.39Z</time></trkpt><trkpt lat="44.8229677" lon="10.379264"><ele>39.6</ele><time>2026-05-04T13:46:12.39Z</time></trkpt><trkpt lat="44.8229777" lon="10.3793881"><ele>39.0</ele><time>2026-05-04T13:46:14.391Z</time></trkpt><trkpt lat="44.8229614" lon="10.3795323"><ele>39.0</ele><time>2026-05-04T13:46:16.391Z</time></trkpt><trkpt lat="44.8229553" lon="10.3796697"><ele>39.0</ele><time>2026-05-04T13:46:18.391Z</time></trkpt><trkpt lat="44.8229278" lon="10.3798072"><ele>39.0</ele><time>2026-05-04T13:46:20.39Z</time></trkpt><trkpt lat="44.8228935" lon="10.3799471"><ele>39.0</ele><time>2026-05-04T13:46:22.39Z</time></trkpt><trkpt lat="44.8228342" lon="10.3800637"><ele>39.0</ele><time>2026-05-04T13:46:24.391Z</time></trkpt><trkpt lat="44.8227686" lon="10.3801883"><ele>39.0</ele><time>2026-05-04T13:46:26.391Z</time></trkpt><trkpt lat="44.8227443" lon="10.3803392"><ele>39.0</ele><time>2026-05-04T13:46:28.391Z</time></trkpt><trkpt lat="44.822771" lon="10.3805011"><ele>39.0</ele><time>2026-05-04T13:46:30.391Z</time></trkpt><trkpt lat="44.8228207" lon="10.3806359"><ele>39.0</ele><time>2026-05-04T13:46:32.391Z</time></trkpt><trkpt lat="44.8228907" lon="10.3807526"><ele>39.0</ele><time>2026-05-04T13:46:34.391Z</time></trkpt><trkpt lat="44.8229822" lon="10.3808565"><ele>39.0</ele><time>2026-05-04T13:46:36.391Z</time></trkpt><trkpt lat="44.823028" lon="10.3810037"><ele>39.0</ele><time>2026-05-04T13:46:38.39Z</time></trkpt><trkpt lat="44.8230666" lon="10.3811602"><ele>39.0</ele><time>2026-05-04T13:46:40.391Z</time></trkpt><trkpt lat="44.8231195" lon="10.3813073"><ele>39.0</ele><time>2026-05-04T13:46:42.39Z</time></trkpt><trkpt lat="44.8231655" lon="10.3814587"><ele>38.6</ele><time>2026-05-04T13:46:44.391Z</time></trkpt><trkpt lat="44.8232258" lon="10.3816016"><ele>38.2</ele><time>2026-05-04T13:46:46.39Z</time></trkpt><trkpt lat="44.8232906" lon="10.3817483"><ele>37.800000000000004</ele><time>2026-05-04T13:46:48.391Z</time></trkpt><trkpt lat="44.8233252" lon="10.3818248"><ele>37.4</ele><time>2026-05-04T13:46:49.39Z</time></trkpt><trkpt lat="44.8233969" lon="10.3819742"><ele>37.0</ele><time>2026-05-04T13:46:51.39Z</time></trkpt><trkpt lat="44.8234592" lon="10.382114"><ele>37.8</ele><time>2026-05-04T13:46:53.391Z</time></trkpt><trkpt lat="44.8234967" lon="10.3821857"><ele>38.6</ele><time>2026-05-04T13:46:54.391Z</time></trkpt><trkpt lat="44.8235606" lon="10.382334"><ele>39.4</ele><time>2026-05-04T13:46:56.391Z</time></trkpt><trkpt lat="44.8236338" lon="10.3824878"><ele>40.199999999999996</ele><time>2026-05-04T13:46:58.391Z</time></trkpt><trkpt lat="44.823674" lon="10.3825618"><ele>41.0</ele><time>2026-05-04T13:46:59.391Z</time></trkpt><trkpt lat="44.8237177" lon="10.3826517"><ele>41.0</ele><time>2026-05-04T13:47:00.391Z</time></trkpt><trkpt lat="44.8237509" lon="10.3827326"><ele>41.0</ele><time>2026-05-04T13:47:01.391Z</time></trkpt><trkpt lat="44.823815" lon="10.3828793"><ele>41.0</ele><time>2026-05-04T13:47:03.391Z</time></trkpt><trkpt lat="44.8238708" lon="10.383037"><ele>41.0</ele><time>2026-05-04T13:47:05.391Z</time></trkpt><trkpt lat="44.8239315" lon="10.3831943"><ele>41.0</ele><time>2026-05-04T13:47:07.39Z</time></trkpt><trkpt lat="44.8239659" lon="10.3832707"><ele>40.33333333333333</ele><time>2026-05-04T13:47:08.39Z</time></trkpt><trkpt lat="44.8240001" lon="10.3833473"><ele>39.666666666666664</ele><time>2026-05-04T13:47:09.39Z</time></trkpt><trkpt lat="44.824065" lon="10.3834947"><ele>39.0</ele><time>2026-05-04T13:47:11.391Z</time></trkpt><trkpt lat="44.8241002" lon="10.3835696"><ele>38.333333333333336</ele><time>2026-05-04T13:47:12.391Z</time></trkpt><trkpt lat="44.824147" lon="10.3837268"><ele>37.66666666666667</ele><time>2026-05-04T13:47:14.39Z</time></trkpt><trkpt lat="44.8241558" lon="10.3838152"><ele>37.0</ele><time>2026-05-04T13:47:15.39Z</time></trkpt><trkpt lat="44.8241837" lon="10.3839689"><ele>37.0</ele><time>2026-05-04T13:47:17.39Z</time></trkpt><trkpt lat="44.8242408" lon="10.3841006"><ele>37.0</ele><time>2026-05-04T13:47:19.39Z</time></trkpt><trkpt lat="44.8243008" lon="10.3842277"><ele>37.0</ele><time>2026-05-04T13:47:21.39Z</time></trkpt><trkpt lat="44.8243562" lon="10.3843699"><ele>37.0</ele><time>2026-05-04T13:47:23.39Z</time></trkpt><trkpt lat="44.824405" lon="10.3845266"><ele>37.8</ele><time>2026-05-04T13:47:25.391Z</time></trkpt><trkpt lat="44.8244542" lon="10.3846627"><ele>38.6</ele><time>2026-05-04T13:47:27.39Z</time></trkpt><trkpt lat="44.824506" lon="10.384809"><ele>39.4</ele><time>2026-05-04T13:47:29.391Z</time></trkpt><trkpt lat="44.8245396" lon="10.3849455"><ele>40.199999999999996</ele><time>2026-05-04T13:47:31.39Z</time></trkpt><trkpt lat="44.8245689" lon="10.3850277"><ele>41.0</ele><time>2026-05-04T13:47:32.39Z</time></trkpt><trkpt lat="44.8246082" lon="10.3851115"><ele>40.8</ele><time>2026-05-04T13:47:34.391Z</time></trkpt><trkpt lat="44.8246867" lon="10.3852137"><ele>40.599999999999994</ele><time>2026-05-04T13:47:37.39Z</time></trkpt><trkpt lat="44.8247377" lon="10.3853171"><ele>40.4</ele><time>2026-05-04T13:47:39.39Z</time></trkpt><trkpt lat="44.8247889" lon="10.3854415"><ele>40.2</ele><time>2026-05-04T13:47:41.39Z</time></trkpt><trkpt lat="44.8248398" lon="10.3855743"><ele>40.0</ele><time>2026-05-04T13:47:43.39Z</time></trkpt><trkpt lat="44.8248713" lon="10.3857137"><ele>40.0</ele><time>2026-05-04T13:47:45.39Z</time></trkpt><trkpt lat="44.8249262" lon="10.3858442"><ele>40.0</ele><time>2026-05-04T13:47:47.39Z</time></trkpt><trkpt lat="44.8249921" lon="10.385945"><ele>40.0</ele><time>2026-05-04T13:47:49.39Z</time></trkpt><trkpt lat="44.8250724" lon="10.3860531"><ele>40.0</ele><time>2026-05-04T13:47:51.391Z</time></trkpt><trkpt lat="44.825114" lon="10.386123"><ele>40.0</ele><time>2026-05-04T13:47:52.39Z</time></trkpt><trkpt lat="44.8251907" lon="10.3861567"><ele>40.0</ele><time>2026-05-04T13:47:53.391Z</time></trkpt><trkpt lat="44.825259" lon="10.3863128"><ele>40.0</ele><time>2026-05-04T13:47:55.39Z</time></trkpt><trkpt lat="44.8253221" lon="10.3864649"><ele>40.0</ele><time>2026-05-04T13:47:57.39Z</time></trkpt><trkpt lat="44.8253478" lon="10.3865634"><ele>40.0</ele><time>2026-05-04T13:47:58.39Z</time></trkpt><trkpt lat="44.8253711" lon="10.386648"><ele>40.0</ele><time>2026-05-04T13:47:59.39Z</time></trkpt><trkpt lat="44.8253985" lon="10.3867306"><ele>39.833333333333336</ele><time>2026-05-04T13:48:00.39Z</time></trkpt><trkpt lat="44.8254391" lon="10.386871"><ele>39.66666666666667</ele><time>2026-05-04T13:48:02.39Z</time></trkpt><trkpt lat="44.825499" lon="10.3870096"><ele>39.5</ele><time>2026-05-04T13:48:04.391Z</time></trkpt><trkpt lat="44.8255314" lon="10.3870886"><ele>39.333333333333336</ele><time>2026-05-04T13:48:05.39Z</time></trkpt><trkpt lat="44.8255237" lon="10.387188"><ele>39.166666666666664</ele><time>2026-05-04T13:48:06.391Z</time></trkpt><trkpt lat="44.8255679" lon="10.3872699"><ele>39.0</ele><time>2026-05-04T13:48:07.391Z</time></trkpt><trkpt lat="44.825611" lon="10.3874266"><ele>39.0</ele><time>2026-05-04T13:48:09.39Z</time></trkpt><trkpt lat="44.825668" lon="10.3875639"><ele>39.0</ele><time>2026-05-04T13:48:11.39Z</time></trkpt><trkpt lat="44.8257271" lon="10.387687"><ele>39.0</ele><time>2026-05-04T13:48:13.39Z</time></trkpt><trkpt lat="44.8258011" lon="10.3878368"><ele>39.0</ele><time>2026-05-04T13:48:15.391Z</time></trkpt><trkpt lat="44.8258648" lon="10.3879722"><ele>38.8</ele><time>2026-05-04T13:48:17.39Z</time></trkpt><trkpt lat="44.8259443" lon="10.3880885"><ele>38.599999999999994</ele><time>2026-05-04T13:48:19.39Z</time></trkpt><trkpt lat="44.8260305" lon="10.3880855"><ele>38.4</ele><time>2026-05-04T13:48:21.391Z</time></trkpt><trkpt lat="44.8261282" lon="10.3880434"><ele>38.199999999999996</ele><time>2026-05-04T13:48:23.391Z</time></trkpt><trkpt lat="44.8262276" lon="10.3879786"><ele>38.0</ele><time>2026-05-04T13:48:25.39Z</time></trkpt><trkpt lat="44.8263275" lon="10.3878953"><ele>37.8</ele><time>2026-05-04T13:48:27.39Z</time></trkpt><trkpt lat="44.826425" lon="10.3878163"><ele>37.599999999999994</ele><time>2026-05-04T13:48:29.39Z</time></trkpt><trkpt lat="44.8265194" lon="10.3877278"><ele>37.400000000000006</ele><time>2026-05-04T13:48:31.39Z</time></trkpt><trkpt lat="44.8266159" lon="10.3877273"><ele>37.2</ele><time>2026-05-04T13:48:33.39Z</time></trkpt><trkpt lat="44.8266725" lon="10.3878198"><ele>37.0</ele><time>2026-05-04T13:48:35.391Z</time></trkpt><trkpt lat="44.8267146" lon="10.3879247"><ele>36.800000000000004</ele><time>2026-05-04T13:48:38.391Z</time></trkpt><trkpt lat="44.8267612" lon="10.388046"><ele>36.6</ele><time>2026-05-04T13:48:41.39Z</time></trkpt><trkpt lat="44.8267357" lon="10.3881467"><ele>36.400000000000006</ele><time>2026-05-04T13:48:43.391Z</time></trkpt><trkpt lat="44.826672" lon="10.3882148"><ele>36.2</ele><time>2026-05-04T13:48:45.39Z</time></trkpt><trkpt lat="44.8265852" lon="10.3882815"><ele>36.0</ele><time>2026-05-04T13:48:47.391Z</time></trkpt><trkpt lat="44.8265123" lon="10.3883779"><ele>36.0</ele><time>2026-05-04T13:48:49.39Z</time></trkpt><trkpt lat="44.8265047" lon="10.3885094"><ele>36.0</ele><time>2026-05-04T13:48:51.39Z</time></trkpt><trkpt lat="44.8264775" lon="10.3886248"><ele>36.0</ele><time>2026-05-04T13:48:53.391Z</time></trkpt><trkpt lat="44.8264055" lon="10.3887027"><ele>36.0</ele><time>2026-05-04T13:48:55.391Z</time></trkpt><trkpt lat="44.8263269" lon="10.3887655"><ele>36.0</ele><time>2026-05-04T13:48:57.391Z</time></trkpt><trkpt lat="44.8262693" lon="10.3888607"><ele>36.166666666666664</ele><time>2026-05-04T13:48:59.39Z</time></trkpt><trkpt lat="44.8262659" lon="10.3889875"><ele>36.333333333333336</ele><time>2026-05-04T13:49:01.39Z</time></trkpt><trkpt lat="44.8263147" lon="10.3890932"><ele>36.5</ele><time>2026-05-04T13:49:03.391Z</time></trkpt><trkpt lat="44.8263516" lon="10.3892097"><ele>36.66666666666667</ele><time>2026-05-04T13:49:05.39Z</time></trkpt><trkpt lat="44.8264014" lon="10.3893165"><ele>36.833333333333336</ele><time>2026-05-04T13:49:07.39Z</time></trkpt><trkpt lat="44.8264419" lon="10.3894188"><ele>37.0</ele><time>2026-05-04T13:49:09.39Z</time></trkpt><trkpt lat="44.8264865" lon="10.3895169"><ele>37.0</ele><time>2026-05-04T13:49:11.391Z</time></trkpt><trkpt lat="44.8265357" lon="10.3896163"><ele>37.0</ele><time>2026-05-04T13:49:13.391Z</time></trkpt><trkpt lat="44.8265892" lon="10.389738"><ele>37.0</ele><time>2026-05-04T13:49:15.39Z</time></trkpt><trkpt lat="44.8266298" lon="10.3898673"><ele>37.0</ele><time>2026-05-04T13:49:17.391Z</time></trkpt><trkpt lat="44.8266887" lon="10.3899849"><ele>37.0</ele><time>2026-05-04T13:49:19.391Z</time></trkpt><trkpt lat="44.8267387" lon="10.3901085"><ele>37.0</ele><time>2026-05-04T13:49:21.39Z</time></trkpt><trkpt lat="44.8267772" lon="10.3902235"><ele>37.0</ele><time>2026-05-04T13:49:23.391Z</time></trkpt><trkpt lat="44.8268401" lon="10.3903375"><ele>37.0</ele><time>2026-05-04T13:49:25.391Z</time></trkpt><trkpt lat="44.8268847" lon="10.3904595"><ele>37.0</ele><time>2026-05-04T13:49:27.39Z</time></trkpt><trkpt lat="44.8269346" lon="10.3905618"><ele>37.0</ele><time>2026-05-04T13:49:29.391Z</time></trkpt><trkpt lat="44.8269747" lon="10.390692"><ele>37.2</ele><time>2026-05-04T13:49:31.391Z</time></trkpt><trkpt lat="44.8270331" lon="10.3908045"><ele>37.400000000000006</ele><time>2026-05-04T13:49:33.39Z</time></trkpt><trkpt lat="44.8270833" lon="10.3909159"><ele>37.599999999999994</ele><time>2026-05-04T13:49:35.391Z</time></trkpt><trkpt lat="44.8271305" lon="10.391039"><ele>37.8</ele><time>2026-05-04T13:49:37.39Z</time></trkpt><trkpt lat="44.8271761" lon="10.3911645"><ele>38.0</ele><time>2026-05-04T13:49:39.391Z</time></trkpt><trkpt lat="44.8272395" lon="10.39129"><ele>37.8</ele><time>2026-05-04T13:49:41.391Z</time></trkpt><trkpt lat="44.827291" lon="10.3914175"><ele>37.599999999999994</ele><time>2026-05-04T13:49:43.391Z</time></trkpt><trkpt lat="44.8273476" lon="10.3915278"><ele>37.400000000000006</ele><time>2026-05-04T13:49:45.391Z</time></trkpt><trkpt lat="44.8273967" lon="10.3916565"><ele>37.2</ele><time>2026-05-04T13:49:47.391Z</time></trkpt><trkpt lat="44.8274494" lon="10.391783"><ele>37.0</ele><time>2026-05-04T13:49:49.39Z</time></trkpt><trkpt lat="44.8275117" lon="10.3919064"><ele>37.0</ele><time>2026-05-04T13:49:51.39Z</time></trkpt><trkpt lat="44.8275674" lon="10.3920299"><ele>37.0</ele><time>2026-05-04T13:49:53.391Z</time></trkpt><trkpt lat="44.8276211" lon="10.3921629"><ele>37.0</ele><time>2026-05-04T13:49:55.39Z</time></trkpt><trkpt lat="44.8276592" lon="10.3922948"><ele>37.0</ele><time>2026-05-04T13:49:57.391Z</time></trkpt><trkpt lat="44.8277184" lon="10.3924136"><ele>37.0</ele><time>2026-05-04T13:49:59.39Z</time></trkpt><trkpt lat="44.8277622" lon="10.3925381"><ele>37.16666666666667</ele><time>2026-05-04T13:50:01.39Z</time></trkpt><trkpt lat="44.8278124" lon="10.3926447"><ele>37.333333333333336</ele><time>2026-05-04T13:50:03.391Z</time></trkpt><trkpt lat="44.8278541" lon="10.3927526"><ele>37.5</ele><time>2026-05-04T13:50:05.39Z</time></trkpt><trkpt lat="44.8279161" lon="10.3927989"><ele>37.666666666666664</ele><time>2026-05-04T13:50:08.39Z</time></trkpt><trkpt lat="44.8279998" lon="10.392775"><ele>37.83333333333333</ele><time>2026-05-04T13:50:13.391Z</time></trkpt><trkpt lat="44.8280204" lon="10.3926865"><ele>38.0</ele><time>2026-05-04T13:50:22.39Z</time></trkpt><trkpt lat="44.8280471" lon="10.3925586"><ele>38.0</ele><time>2026-05-04T13:50:25.39Z</time></trkpt><trkpt lat="44.8280669" lon="10.3924562"><ele>38.0</ele><time>2026-05-04T13:50:27.391Z</time></trkpt><trkpt lat="44.8280802" lon="10.3923372"><ele>38.0</ele><time>2026-05-04T13:50:29.391Z</time></trkpt><trkpt lat="44.8280995" lon="10.3922169"><ele>38.0</ele><time>2026-05-04T13:50:31.391Z</time></trkpt><trkpt lat="44.828156" lon="10.3919677"><ele>38.0</ele><time>2026-05-04T13:50:35.39Z</time></trkpt><trkpt lat="44.8281711" lon="10.3918444"><ele>38.166666666666664</ele><time>2026-05-04T13:50:37.39Z</time></trkpt><trkpt lat="44.8282063" lon="10.3917427"><ele>38.33333333333333</ele><time>2026-05-04T13:50:39.391Z</time></trkpt><trkpt lat="44.828275" lon="10.391751"><ele>38.5</ele><time>2026-05-04T13:50:41.39Z</time></trkpt><trkpt lat="44.8283586" lon="10.3917828"><ele>38.666666666666664</ele><time>2026-05-04T13:50:43.39Z</time></trkpt><trkpt lat="44.8284594" lon="10.3918341"><ele>38.833333333333336</ele><time>2026-05-04T13:50:45.39Z</time></trkpt><trkpt lat="44.8285583" lon="10.3918895"><ele>39.0</ele><time>2026-05-04T13:50:47.39Z</time></trkpt><trkpt lat="44.8286647" lon="10.3919311"><ele>38.8</ele><time>2026-05-04T13:50:49.39Z</time></trkpt><trkpt lat="44.8287641" lon="10.3919894"><ele>38.599999999999994</ele><time>2026-05-04T13:50:51.39Z</time></trkpt><trkpt lat="44.8288691" lon="10.3920327"><ele>38.4</ele><time>2026-05-04T13:50:53.391Z</time></trkpt><trkpt lat="44.8289754" lon="10.3920732"><ele>38.199999999999996</ele><time>2026-05-04T13:50:55.391Z</time></trkpt><trkpt lat="44.8290804" lon="10.3921242"><ele>38.0</ele><time>2026-05-04T13:50:57.391Z</time></trkpt><trkpt lat="44.8291796" lon="10.3921774"><ele>38.0</ele><time>2026-05-04T13:50:59.39Z</time></trkpt><trkpt lat="44.8292783" lon="10.392214"><ele>38.0</ele><time>2026-05-04T13:51:01.39Z</time></trkpt><trkpt lat="44.8293911" lon="10.3922671"><ele>38.0</ele><time>2026-05-04T13:51:03.39Z</time></trkpt><trkpt lat="44.8294539" lon="10.3923706"><ele>38.0</ele><time>2026-05-04T13:51:05.391Z</time></trkpt><trkpt lat="44.8294495" lon="10.3925031"><ele>38.0</ele><time>2026-05-04T13:51:07.39Z</time></trkpt><trkpt lat="44.8294558" lon="10.3926078"><ele>37.6</ele><time>2026-05-04T13:51:09.391Z</time></trkpt><trkpt lat="44.8295328" lon="10.3926914"><ele>37.199999999999996</ele><time>2026-05-04T13:51:12.39Z</time></trkpt><trkpt lat="44.8296109" lon="10.3927332"><ele>36.8</ele><time>2026-05-04T13:51:14.391Z</time></trkpt><trkpt lat="44.8296943" lon="10.3927695"><ele>36.4</ele><time>2026-05-04T13:51:16.39Z</time></trkpt><trkpt lat="44.8297881" lon="10.3928184"><ele>36.0</ele><time>2026-05-04T13:51:18.39Z</time></trkpt><trkpt lat="44.829877" lon="10.3928692"><ele>36.0</ele><time>2026-05-04T13:51:20.391Z</time></trkpt><trkpt lat="44.829975" lon="10.3929076"><ele>36.0</ele><time>2026-05-04T13:51:22.391Z</time></trkpt><trkpt lat="44.8300774" lon="10.3929375"><ele>36.0</ele><time>2026-05-04T13:51:24.391Z</time></trkpt><trkpt lat="44.8301777" lon="10.3929772"><ele>36.0</ele><time>2026-05-04T13:51:26.39Z</time></trkpt><trkpt lat="44.8302765" lon="10.3930181"><ele>36.0</ele><time>2026-05-04T13:51:28.39Z</time></trkpt><trkpt lat="44.8303693" lon="10.3930598"><ele>35.8</ele><time>2026-05-04T13:51:30.391Z</time></trkpt><trkpt lat="44.8304654" lon="10.393113"><ele>35.6</ele><time>2026-05-04T13:51:32.391Z</time></trkpt><trkpt lat="44.8305733" lon="10.3931566"><ele>35.4</ele><time>2026-05-04T13:51:34.391Z</time></trkpt><trkpt lat="44.8306859" lon="10.3932125"><ele>35.2</ele><time>2026-05-04T13:51:36.39Z</time></trkpt><trkpt lat="44.8307893" lon="10.393263"><ele>35.0</ele><time>2026-05-04T13:51:38.391Z</time></trkpt><trkpt lat="44.8308933" lon="10.3933022"><ele>35.5</ele><time>2026-05-04T13:51:40.39Z</time></trkpt><trkpt lat="44.831019" lon="10.3933547"><ele>36.0</ele><time>2026-05-04T13:51:42.391Z</time></trkpt><trkpt lat="44.8311179" lon="10.3934144"><ele>36.5</ele><time>2026-05-04T13:51:44.391Z</time></trkpt><trkpt lat="44.8312276" lon="10.3934609"><ele>37.0</ele><time>2026-05-04T13:51:46.39Z</time></trkpt><trkpt lat="44.8313409" lon="10.3934836"><ele>37.0</ele><time>2026-05-04T13:51:48.39Z</time></trkpt><trkpt lat="44.8314396" lon="10.3935346"><ele>37.0</ele><time>2026-05-04T13:51:50.39Z</time></trkpt><trkpt lat="44.8315426" lon="10.3935874"><ele>37.0</ele><time>2026-05-04T13:51:52.39Z</time></trkpt><trkpt lat="44.8316401" lon="10.3936312"><ele>37.0</ele><time>2026-05-04T13:51:54.391Z</time></trkpt><trkpt lat="44.8317084" lon="10.3936652"><ele>37.0</ele><time>2026-05-04T13:51:56.391Z</time></trkpt><trkpt lat="44.8317634" lon="10.3937211"><ele>37.0</ele><time>2026-05-04T13:52:00.39Z</time></trkpt><trkpt lat="44.8317265" lon="10.3938113"><ele>37.0</ele><time>2026-05-04T13:52:02.391Z</time></trkpt><trkpt lat="44.8317135" lon="10.3939047"><ele>37.0</ele><time>2026-05-04T13:52:04.39Z</time></trkpt><trkpt lat="44.8316681" lon="10.3940268"><ele>37.0</ele><time>2026-05-04T13:52:06.39Z</time></trkpt><trkpt lat="44.8316427" lon="10.3941534"><ele>37.0</ele><time>2026-05-04T13:52:08.39Z</time></trkpt><trkpt lat="44.8316103" lon="10.3942812"><ele>37.0</ele><time>2026-05-04T13:52:10.39Z</time></trkpt><trkpt lat="44.8315867" lon="10.3944287"><ele>36.800000000000004</ele><time>2026-05-04T13:52:12.39Z</time></trkpt><trkpt lat="44.8315506" lon="10.3945804"><ele>36.6</ele><time>2026-05-04T13:52:14.39Z</time></trkpt><trkpt lat="44.8315344" lon="10.3947254"><ele>36.400000000000006</ele><time>2026-05-04T13:52:16.39Z</time></trkpt><trkpt lat="44.8315114" lon="10.3948791"><ele>36.2</ele><time>2026-05-04T13:52:18.39Z</time></trkpt><trkpt lat="44.8314675" lon="10.39503"><ele>36.0</ele><time>2026-05-04T13:52:20.391Z</time></trkpt><trkpt lat="44.8314308" lon="10.3951974"><ele>35.8</ele><time>2026-05-04T13:52:22.39Z</time></trkpt><trkpt lat="44.8313918" lon="10.3953471"><ele>35.6</ele><time>2026-05-04T13:52:24.39Z</time></trkpt><trkpt lat="44.8313731" lon="10.395504"><ele>35.4</ele><time>2026-05-04T13:52:26.39Z</time></trkpt><trkpt lat="44.8313502" lon="10.395637"><ele>35.2</ele><time>2026-05-04T13:52:28.391Z</time></trkpt><trkpt lat="44.8313335" lon="10.3957531"><ele>35.0</ele><time>2026-05-04T13:52:30.391Z</time></trkpt><trkpt lat="44.8313804" lon="10.3958314"><ele>35.0</ele><time>2026-05-04T13:52:32.39Z</time></trkpt><trkpt lat="44.8314848" lon="10.395883"><ele>35.0</ele><time>2026-05-04T13:52:35.39Z</time></trkpt><trkpt lat="44.8315843" lon="10.3959278"><ele>35.0</ele><time>2026-05-04T13:52:37.39Z</time></trkpt><trkpt lat="44.8316834" lon="10.3959655"><ele>35.0</ele><time>2026-05-04T13:52:39.391Z</time></trkpt><trkpt lat="44.8317854" lon="10.3960218"><ele>35.0</ele><time>2026-05-04T13:52:41.39Z</time></trkpt><trkpt lat="44.8318448" lon="10.3960541"><ele>35.0</ele><time>2026-05-04T13:52:42.39Z</time></trkpt><trkpt lat="44.8319525" lon="10.3961065"><ele>35.0</ele><time>2026-05-04T13:52:44.391Z</time></trkpt><trkpt lat="44.8320618" lon="10.3961698"><ele>35.0</ele><time>2026-05-04T13:52:46.39Z</time></trkpt><trkpt lat="44.8321664" lon="10.3962255"><ele>35.0</ele><time>2026-05-04T13:52:48.391Z</time></trkpt><trkpt lat="44.8322723" lon="10.3962654"><ele>35.0</ele><time>2026-05-04T13:52:50.391Z</time></trkpt><trkpt lat="44.8323765" lon="10.3963084"><ele>35.0</ele><time>2026-05-04T13:52:52.391Z</time></trkpt><trkpt lat="44.8324394" lon="10.3963393"><ele>35.0</ele><time>2026-05-04T13:52:53.39Z</time></trkpt><trkpt lat="44.8325379" lon="10.3963973"><ele>35.0</ele><time>2026-05-04T13:52:55.39Z</time></trkpt><trkpt lat="44.8326486" lon="10.3964307"><ele>35.0</ele><time>2026-05-04T13:52:57.391Z</time></trkpt><trkpt lat="44.8327295" lon="10.3964904"><ele>35.5</ele><time>2026-05-04T13:52:59.39Z</time></trkpt><trkpt lat="44.8328336" lon="10.3965325"><ele>36.0</ele><time>2026-05-04T13:53:01.39Z</time></trkpt><trkpt lat="44.8329446" lon="10.3965767"><ele>36.5</ele><time>2026-05-04T13:53:03.391Z</time></trkpt><trkpt lat="44.8330466" lon="10.3966533"><ele>37.0</ele><time>2026-05-04T13:53:05.391Z</time></trkpt><trkpt lat="44.8331541" lon="10.3967025"><ele>37.0</ele><time>2026-05-04T13:53:07.391Z</time></trkpt><trkpt lat="44.8332718" lon="10.3967513"><ele>37.0</ele><time>2026-05-04T13:53:09.391Z</time></trkpt><trkpt lat="44.8333309" lon="10.3967824"><ele>37.0</ele><time>2026-05-04T13:53:10.39Z</time></trkpt><trkpt lat="44.8334514" lon="10.396844"><ele>37.0</ele><time>2026-05-04T13:53:12.39Z</time></trkpt><trkpt lat="44.833564" lon="10.3968943"><ele>37.0</ele><time>2026-05-04T13:53:14.391Z</time></trkpt><trkpt lat="44.833676" lon="10.3969411"><ele>37.0</ele><time>2026-05-04T13:53:16.391Z</time></trkpt><trkpt lat="44.833792" lon="10.3969967"><ele>37.0</ele><time>2026-05-04T13:53:18.391Z</time></trkpt><trkpt lat="44.833905" lon="10.3970537"><ele>37.0</ele><time>2026-05-04T13:53:20.39Z</time></trkpt><trkpt lat="44.8340185" lon="10.3971159"><ele>37.0</ele><time>2026-05-04T13:53:22.391Z</time></trkpt><trkpt lat="44.8340806" lon="10.3971394"><ele>37.0</ele><time>2026-05-04T13:53:23.391Z</time></trkpt><trkpt lat="44.8342021" lon="10.3971964"><ele>36.833333333333336</ele><time>2026-05-04T13:53:25.391Z</time></trkpt><trkpt lat="44.8342633" lon="10.3972324"><ele>36.66666666666667</ele><time>2026-05-04T13:53:26.39Z</time></trkpt><trkpt lat="44.8343774" lon="10.397287"><ele>36.5</ele><time>2026-05-04T13:53:28.391Z</time></trkpt><trkpt lat="44.8344375" lon="10.3973145"><ele>36.333333333333336</ele><time>2026-05-04T13:53:29.39Z</time></trkpt><trkpt lat="44.8345003" lon="10.3973448"><ele>36.166666666666664</ele><time>2026-05-04T13:53:30.39Z</time></trkpt><trkpt lat="44.8346208" lon="10.3973801"><ele>36.0</ele><time>2026-05-04T13:53:32.39Z</time></trkpt><trkpt lat="44.8347342" lon="10.3974384"><ele>35.6</ele><time>2026-05-04T13:53:34.39Z</time></trkpt><trkpt lat="44.834844" lon="10.3974915"><ele>35.2</ele><time>2026-05-04T13:53:36.391Z</time></trkpt><trkpt lat="44.8349435" lon="10.3975447"><ele>34.8</ele><time>2026-05-04T13:53:38.391Z</time></trkpt><trkpt lat="44.8350397" lon="10.3975971"><ele>34.4</ele><time>2026-05-04T13:53:40.39Z</time></trkpt><trkpt lat="44.8351255" lon="10.3976387"><ele>34.0</ele><time>2026-05-04T13:53:42.391Z</time></trkpt><trkpt lat="44.8352084" lon="10.397684"><ele>33.6</ele><time>2026-05-04T13:53:44.39Z</time></trkpt><trkpt lat="44.8353003" lon="10.3977277"><ele>33.2</ele><time>2026-05-04T13:53:46.391Z</time></trkpt><trkpt lat="44.8353959" lon="10.3977743"><ele>32.800000000000004</ele><time>2026-05-04T13:53:48.39Z</time></trkpt><trkpt lat="44.8355017" lon="10.3978367"><ele>32.4</ele><time>2026-05-04T13:53:50.39Z</time></trkpt><trkpt lat="44.8356061" lon="10.3979004"><ele>32.0</ele><time>2026-05-04T13:53:52.391Z</time></trkpt><trkpt lat="44.835706" lon="10.3979694"><ele>31.75</ele><time>2026-05-04T13:53:54.39Z</time></trkpt><trkpt lat="44.8358013" lon="10.3980598"><ele>31.5</ele><time>2026-05-04T13:53:56.391Z</time></trkpt><trkpt lat="44.8358847" lon="10.3981534"><ele>31.25</ele><time>2026-05-04T13:53:58.39Z</time></trkpt><trkpt lat="44.8359715" lon="10.39826"><ele>31.0</ele><time>2026-05-04T13:54:00.391Z</time></trkpt><trkpt lat="44.8360619" lon="10.3983742"><ele>31.0</ele><time>2026-05-04T13:54:02.39Z</time></trkpt><trkpt lat="44.8361428" lon="10.3984895"><ele>31.0</ele><time>2026-05-04T13:54:04.39Z</time></trkpt><trkpt lat="44.8362298" lon="10.3986099"><ele>31.0</ele><time>2026-05-04T13:54:06.391Z</time></trkpt><trkpt lat="44.836319" lon="10.3987243"><ele>31.0</ele><time>2026-05-04T13:54:08.39Z</time></trkpt><trkpt lat="44.8364012" lon="10.3988378"><ele>31.4</ele><time>2026-05-04T13:54:10.391Z</time></trkpt><trkpt lat="44.836448" lon="10.3988993"><ele>31.8</ele><time>2026-05-04T13:54:11.39Z</time></trkpt><trkpt lat="44.8364947" lon="10.3989595"><ele>32.199999999999996</ele><time>2026-05-04T13:54:12.39Z</time></trkpt><trkpt lat="44.8365788" lon="10.3990795"><ele>32.6</ele><time>2026-05-04T13:54:14.39Z</time></trkpt><trkpt lat="44.8366631" lon="10.3991978"><ele>33.0</ele><time>2026-05-04T13:54:16.391Z</time></trkpt><trkpt lat="44.8367529" lon="10.3993119"><ele>32.8</ele><time>2026-05-04T13:54:18.39Z</time></trkpt><trkpt lat="44.8368302" lon="10.3994325"><ele>32.599999999999994</ele><time>2026-05-04T13:54:20.391Z</time></trkpt><trkpt lat="44.8369147" lon="10.3995421"><ele>32.400000000000006</ele><time>2026-05-04T13:54:22.391Z</time></trkpt><trkpt lat="44.836992" lon="10.3996493"><ele>32.2</ele><time>2026-05-04T13:54:24.391Z</time></trkpt><trkpt lat="44.8370649" lon="10.3997619"><ele>32.0</ele><time>2026-05-04T13:54:26.39Z</time></trkpt><trkpt lat="44.8371438" lon="10.39986"><ele>32.4</ele><time>2026-05-04T13:54:28.39Z</time></trkpt><trkpt lat="44.8372201" lon="10.3999723"><ele>32.800000000000004</ele><time>2026-05-04T13:54:30.39Z</time></trkpt><trkpt lat="44.8372996" lon="10.4000762"><ele>33.2</ele><time>2026-05-04T13:54:32.39Z</time></trkpt><trkpt lat="44.8373872" lon="10.4001807"><ele>33.6</ele><time>2026-05-04T13:54:34.39Z</time></trkpt><trkpt lat="44.8374453" lon="10.4002306"><ele>34.0</ele><time>2026-05-04T13:54:35.39Z</time></trkpt><trkpt lat="44.8375147" lon="10.4003545"><ele>34.0</ele><time>2026-05-04T13:54:37.391Z</time></trkpt><trkpt lat="44.8375986" lon="10.4004729"><ele>34.0</ele><time>2026-05-04T13:54:39.391Z</time></trkpt><trkpt lat="44.8376466" lon="10.4005383"><ele>34.0</ele><time>2026-05-04T13:54:40.391Z</time></trkpt><trkpt lat="44.8377318" lon="10.4006656"><ele>34.0</ele><time>2026-05-04T13:54:42.391Z</time></trkpt><trkpt lat="44.8377793" lon="10.400726"><ele>34.0</ele><time>2026-05-04T13:54:43.391Z</time></trkpt><trkpt lat="44.8378305" lon="10.4007885"><ele>34.0</ele><time>2026-05-04T13:54:44.391Z</time></trkpt><trkpt lat="44.8379201" lon="10.4009083"><ele>33.99999999999999</ele><time>2026-05-04T13:54:46.39Z</time></trkpt><trkpt lat="44.8379663" lon="10.4009711"><ele>34.0</ele><time>2026-05-04T13:54:47.391Z</time></trkpt><trkpt lat="44.8380191" lon="10.4010331"><ele>34.0</ele><time>2026-05-04T13:54:48.39Z</time></trkpt><trkpt lat="44.8380724" lon="10.4010993"><ele>34.0</ele><time>2026-05-04T13:54:49.39Z</time></trkpt><trkpt lat="44.838126" lon="10.401157"><ele>34.0</ele><time>2026-05-04T13:54:50.391Z</time></trkpt><trkpt lat="44.8381788" lon="10.401221"><ele>33.99999999999999</ele><time>2026-05-04T13:54:51.391Z</time></trkpt><trkpt lat="44.8382218" lon="10.401287"><ele>34.0</ele><time>2026-05-04T13:54:52.39Z</time></trkpt><trkpt lat="44.8382684" lon="10.4013518"><ele>34.0</ele><time>2026-05-04T13:54:53.39Z</time></trkpt><trkpt lat="44.8383154" lon="10.4014155"><ele>34.0</ele><time>2026-05-04T13:54:54.391Z</time></trkpt><trkpt lat="44.8383607" lon="10.4014773"><ele>34.0</ele><time>2026-05-04T13:54:55.391Z</time></trkpt><trkpt lat="44.838441" lon="10.4016044"><ele>34.0</ele><time>2026-05-04T13:54:57.391Z</time></trkpt><trkpt lat="44.8384936" lon="10.4016701"><ele>34.0</ele><time>2026-05-04T13:54:58.391Z</time></trkpt><trkpt lat="44.8385395" lon="10.4017364"><ele>34.0</ele><time>2026-05-04T13:54:59.391Z</time></trkpt><trkpt lat="44.838587" lon="10.4018005"><ele>33.71428571428571</ele><time>2026-05-04T13:55:00.391Z</time></trkpt><trkpt lat="44.8386334" lon="10.4018637"><ele>33.42857142857143</ele><time>2026-05-04T13:55:01.39Z</time></trkpt><trkpt lat="44.8386852" lon="10.4019278"><ele>33.14285714285714</ele><time>2026-05-04T13:55:02.39Z</time></trkpt><trkpt lat="44.8387368" lon="10.4019895"><ele>32.857142857142854</ele><time>2026-05-04T13:55:03.389Z</time></trkpt><trkpt lat="44.8387893" lon="10.402051"><ele>32.57142857142857</ele><time>2026-05-04T13:55:04.39Z</time></trkpt><trkpt lat="44.8388363" lon="10.4021137"><ele>32.285714285714285</ele><time>2026-05-04T13:55:05.39Z</time></trkpt><trkpt lat="44.8388833" lon="10.4021781"><ele>32.0</ele><time>2026-05-04T13:55:06.391Z</time></trkpt><trkpt lat="44.8389387" lon="10.4022498"><ele>31.999999999999996</ele><time>2026-05-04T13:55:07.39Z</time></trkpt><trkpt lat="44.8389848" lon="10.4023119"><ele>32.0</ele><time>2026-05-04T13:55:08.39Z</time></trkpt><trkpt lat="44.8390323" lon="10.4023774"><ele>32.0</ele><time>2026-05-04T13:55:09.391Z</time></trkpt><trkpt lat="44.8390851" lon="10.4024303"><ele>32.0</ele><time>2026-05-04T13:55:10.39Z</time></trkpt><trkpt lat="44.8391318" lon="10.402499"><ele>31.999999999999996</ele><time>2026-05-04T13:55:11.391Z</time></trkpt><trkpt lat="44.8391762" lon="10.4025628"><ele>32.0</ele><time>2026-05-04T13:55:12.39Z</time></trkpt><trkpt lat="44.839272" lon="10.4026847"><ele>31.200000000000003</ele><time>2026-05-04T13:55:14.391Z</time></trkpt><trkpt lat="44.8393164" lon="10.4027482"><ele>30.400000000000002</ele><time>2026-05-04T13:55:15.391Z</time></trkpt><trkpt lat="44.8393644" lon="10.4028099"><ele>29.599999999999998</ele><time>2026-05-04T13:55:16.391Z</time></trkpt><trkpt lat="44.8394412" lon="10.4029301"><ele>28.799999999999997</ele><time>2026-05-04T13:55:18.39Z</time></trkpt><trkpt lat="44.8395233" lon="10.4030495"><ele>28.0</ele><time>2026-05-04T13:55:20.39Z</time></trkpt><trkpt lat="44.839605" lon="10.4031618"><ele>28.0</ele><time>2026-05-04T13:55:22.39Z</time></trkpt><trkpt lat="44.839689" lon="10.4032765"><ele>28.0</ele><time>2026-05-04T13:55:24.39Z</time></trkpt><trkpt lat="44.8397356" lon="10.403338"><ele>28.0</ele><time>2026-05-04T13:55:25.39Z</time></trkpt><trkpt lat="44.8397823" lon="10.4034014"><ele>28.0</ele><time>2026-05-04T13:55:26.39Z</time></trkpt><trkpt lat="44.8398337" lon="10.4034633"><ele>28.0</ele><time>2026-05-04T13:55:27.39Z</time></trkpt><trkpt lat="44.8398805" lon="10.4035242"><ele>28.0</ele><time>2026-05-04T13:55:28.391Z</time></trkpt><trkpt lat="44.8399249" lon="10.4035908"><ele>28.0</ele><time>2026-05-04T13:55:29.39Z</time></trkpt><trkpt lat="44.8399762" lon="10.4036462"><ele>28.0</ele><time>2026-05-04T13:55:30.39Z</time></trkpt><trkpt lat="44.8400643" lon="10.4037696"><ele>27.999999999999996</ele><time>2026-05-04T13:55:32.391Z</time></trkpt><trkpt lat="44.8401084" lon="10.4038374"><ele>27.999999999999996</ele><time>2026-05-04T13:55:33.391Z</time></trkpt><trkpt lat="44.8401942" lon="10.4039613"><ele>28.0</ele><time>2026-05-04T13:55:35.39Z</time></trkpt><trkpt lat="44.8402768" lon="10.4040803"><ele>28.0</ele><time>2026-05-04T13:55:37.39Z</time></trkpt><trkpt lat="44.8403631" lon="10.4042039"><ele>28.599999999999998</ele><time>2026-05-04T13:55:39.391Z</time></trkpt><trkpt lat="44.8404474" lon="10.4043274"><ele>29.199999999999996</ele><time>2026-05-04T13:55:41.391Z</time></trkpt><trkpt lat="44.8404894" lon="10.4043951"><ele>29.8</ele><time>2026-05-04T13:55:42.391Z</time></trkpt><trkpt lat="44.840532" lon="10.4044626"><ele>30.4</ele><time>2026-05-04T13:55:43.391Z</time></trkpt><trkpt lat="44.8406272" lon="10.4045822"><ele>31.0</ele><time>2026-05-04T13:55:45.39Z</time></trkpt><trkpt lat="44.8407185" lon="10.4047098"><ele>31.166666666666668</ele><time>2026-05-04T13:55:47.39Z</time></trkpt><trkpt lat="44.8408067" lon="10.4048319"><ele>31.333333333333336</ele><time>2026-05-04T13:55:49.39Z</time></trkpt><trkpt lat="44.8408505" lon="10.4048959"><ele>31.5</ele><time>2026-05-04T13:55:50.391Z</time></trkpt><trkpt lat="44.8408963" lon="10.404957"><ele>31.666666666666664</ele><time>2026-05-04T13:55:51.391Z</time></trkpt><trkpt lat="44.8409907" lon="10.4050824"><ele>31.833333333333332</ele><time>2026-05-04T13:55:53.391Z</time></trkpt><trkpt lat="44.8410378" lon="10.4051446"><ele>32.0</ele><time>2026-05-04T13:55:54.39Z</time></trkpt><trkpt lat="44.8410878" lon="10.4052119"><ele>32.0</ele><time>2026-05-04T13:55:55.39Z</time></trkpt><trkpt lat="44.8411595" lon="10.4053214"><ele>31.999999999999996</ele><time>2026-05-04T13:55:57.391Z</time></trkpt><trkpt lat="44.8412084" lon="10.4053807"><ele>32.0</ele><time>2026-05-04T13:55:58.39Z</time></trkpt><trkpt lat="44.8412516" lon="10.4054475"><ele>32.0</ele><time>2026-05-04T13:55:59.391Z</time></trkpt><trkpt lat="44.8413013" lon="10.4055112"><ele>31.999999999999996</ele><time>2026-05-04T13:56:00.391Z</time></trkpt><trkpt lat="44.8413526" lon="10.4055758"><ele>32.0</ele><time>2026-05-04T13:56:01.39Z</time></trkpt><trkpt lat="44.8414027" lon="10.405637"><ele>32.0</ele><time>2026-05-04T13:56:02.391Z</time></trkpt><trkpt lat="44.8415002" lon="10.4057628"><ele>31.999999999999996</ele><time>2026-05-04T13:56:04.391Z</time></trkpt><trkpt lat="44.8415513" lon="10.4058326"><ele>32.0</ele><time>2026-05-04T13:56:05.391Z</time></trkpt><trkpt lat="44.8416479" lon="10.4059474"><ele>32.0</ele><time>2026-05-04T13:56:07.39Z</time></trkpt><trkpt lat="44.8416933" lon="10.4060118"><ele>32.0</ele><time>2026-05-04T13:56:08.39Z</time></trkpt><trkpt lat="44.8417487" lon="10.4060618"><ele>31.999999999999996</ele><time>2026-05-04T13:56:09.391Z</time></trkpt><trkpt lat="44.8417968" lon="10.4061232"><ele>32.0</ele><time>2026-05-04T13:56:10.39Z</time></trkpt><trkpt lat="44.8418444" lon="10.4061928"><ele>32.0</ele><time>2026-05-04T13:56:11.391Z</time></trkpt><trkpt lat="44.8418922" lon="10.4062546"><ele>31.999999999999996</ele><time>2026-05-04T13:56:12.391Z</time></trkpt><trkpt lat="44.8419474" lon="10.4063272"><ele>32.0</ele><time>2026-05-04T13:56:13.391Z</time></trkpt><trkpt lat="44.8420007" lon="10.4063908"><ele>32.0</ele><time>2026-05-04T13:56:14.39Z</time></trkpt><trkpt lat="44.8420539" lon="10.4064487"><ele>31.999999999999996</ele><time>2026-05-04T13:56:15.39Z</time></trkpt><trkpt lat="44.8421012" lon="10.4065195"><ele>32.0</ele><time>2026-05-04T13:56:16.391Z</time></trkpt><trkpt lat="44.842147" lon="10.4065845"><ele>32.0</ele><time>2026-05-04T13:56:17.391Z</time></trkpt><trkpt lat="44.8422244" lon="10.4067147"><ele>32.0</ele><time>2026-05-04T13:56:19.39Z</time></trkpt><trkpt lat="44.8422709" lon="10.4067818"><ele>31.999999999999996</ele><time>2026-05-04T13:56:20.391Z</time></trkpt><trkpt lat="44.84232" lon="10.4068497"><ele>32.0</ele><time>2026-05-04T13:56:21.39Z</time></trkpt><trkpt lat="44.8423671" lon="10.4069184"><ele>32.0</ele><time>2026-05-04T13:56:22.39Z</time></trkpt><trkpt lat="44.842413" lon="10.4069802"><ele>31.999999999999996</ele><time>2026-05-04T13:56:23.391Z</time></trkpt><trkpt lat="44.8424589" lon="10.4070463"><ele>32.0</ele><time>2026-05-04T13:56:24.39Z</time></trkpt><trkpt lat="44.8425069" lon="10.4071122"><ele>32.0</ele><time>2026-05-04T13:56:25.39Z</time></trkpt><trkpt lat="44.842595" lon="10.407238"><ele>32.0</ele><time>2026-05-04T13:56:27.39Z</time></trkpt><trkpt lat="44.8426444" lon="10.4072987"><ele>32.0</ele><time>2026-05-04T13:56:28.39Z</time></trkpt><trkpt lat="44.8427314" lon="10.4074224"><ele>32.0</ele><time>2026-05-04T13:56:30.39Z</time></trkpt><trkpt lat="44.8428224" lon="10.4075494"><ele>32.0</ele><time>2026-05-04T13:56:32.391Z</time></trkpt><trkpt lat="44.8428712" lon="10.4076165"><ele>32.0</ele><time>2026-05-04T13:56:33.391Z</time></trkpt><trkpt lat="44.8429147" lon="10.4076839"><ele>31.999999999999996</ele><time>2026-05-04T13:56:34.391Z</time></trkpt><trkpt lat="44.8429603" lon="10.4077462"><ele>32.0</ele><time>2026-05-04T13:56:35.391Z</time></trkpt><trkpt lat="44.8430054" lon="10.4078147"><ele>32.0</ele><time>2026-05-04T13:56:36.39Z</time></trkpt><trkpt lat="44.8430981" lon="10.4079303"><ele>32.0</ele><time>2026-05-04T13:56:38.391Z</time></trkpt><trkpt lat="44.8431502" lon="10.4079975"><ele>31.999999999999996</ele><time>2026-05-04T13:56:39.39Z</time></trkpt><trkpt lat="44.8431945" lon="10.4080631"><ele>32.0</ele><time>2026-05-04T13:56:40.39Z</time></trkpt><trkpt lat="44.8432904" lon="10.4081789"><ele>32.0</ele><time>2026-05-04T13:56:42.391Z</time></trkpt><trkpt lat="44.8433411" lon="10.4082476"><ele>32.0</ele><time>2026-05-04T13:56:43.39Z</time></trkpt><trkpt lat="44.8434262" lon="10.408365"><ele>32.0</ele><time>2026-05-04T13:56:45.39Z</time></trkpt><trkpt lat="44.8434703" lon="10.4084345"><ele>32.0</ele><time>2026-05-04T13:56:46.391Z</time></trkpt><trkpt lat="44.8435558" lon="10.4085516"><ele>32.0</ele><time>2026-05-04T13:56:48.39Z</time></trkpt><trkpt lat="44.8436377" lon="10.4086556"><ele>32.166666666666664</ele><time>2026-05-04T13:56:50.39Z</time></trkpt><trkpt lat="44.8436871" lon="10.4087118"><ele>32.33333333333333</ele><time>2026-05-04T13:56:51.39Z</time></trkpt><trkpt lat="44.8437395" lon="10.4087787"><ele>32.5</ele><time>2026-05-04T13:56:52.39Z</time></trkpt><trkpt lat="44.8437997" lon="10.4088384"><ele>32.666666666666664</ele><time>2026-05-04T13:56:53.39Z</time></trkpt><trkpt lat="44.8438835" lon="10.4089639"><ele>32.833333333333336</ele><time>2026-05-04T13:56:55.391Z</time></trkpt><trkpt lat="44.8439579" lon="10.409085"><ele>33.0</ele><time>2026-05-04T13:56:57.39Z</time></trkpt><trkpt lat="44.8440079" lon="10.4091498"><ele>33.0</ele><time>2026-05-04T13:56:58.39Z</time></trkpt><trkpt lat="44.8440519" lon="10.4092157"><ele>33.0</ele><time>2026-05-04T13:56:59.391Z</time></trkpt><trkpt lat="44.8440985" lon="10.4092774"><ele>33.0</ele><time>2026-05-04T13:57:00.39Z</time></trkpt><trkpt lat="44.8441795" lon="10.409397"><ele>33.0</ele><time>2026-05-04T13:57:02.391Z</time></trkpt><trkpt lat="44.8442258" lon="10.4094635"><ele>33.0</ele><time>2026-05-04T13:57:03.391Z</time></trkpt><trkpt lat="44.8442761" lon="10.409524"><ele>33.0</ele><time>2026-05-04T13:57:04.39Z</time></trkpt><trkpt lat="44.844323" lon="10.409592"><ele>33.0</ele><time>2026-05-04T13:57:05.39Z</time></trkpt><trkpt lat="44.844414" lon="10.4097109"><ele>33.0</ele><time>2026-05-04T13:57:07.39Z</time></trkpt><trkpt lat="44.8444573" lon="10.4097755"><ele>33.0</ele><time>2026-05-04T13:57:08.39Z</time></trkpt><trkpt lat="44.8445031" lon="10.4098398"><ele>33.0</ele><time>2026-05-04T13:57:09.391Z</time></trkpt><trkpt lat="44.8445536" lon="10.4098995"><ele>33.0</ele><time>2026-05-04T13:57:10.39Z</time></trkpt><trkpt lat="44.8446371" lon="10.4100119"><ele>33.0</ele><time>2026-05-04T13:57:12.39Z</time></trkpt><trkpt lat="44.8447181" lon="10.4101091"><ele>33.0</ele><time>2026-05-04T13:57:14.39Z</time></trkpt><trkpt lat="44.8447951" lon="10.4101933"><ele>33.0</ele><time>2026-05-04T13:57:16.39Z</time></trkpt><trkpt lat="44.8448663" lon="10.4102654"><ele>33.0</ele><time>2026-05-04T13:57:18.391Z</time></trkpt><trkpt lat="44.8449547" lon="10.4103308"><ele>33.0</ele><time>2026-05-04T13:57:20.39Z</time></trkpt><trkpt lat="44.8450149" lon="10.4103894"><ele>33.0</ele><time>2026-05-04T13:57:22.391Z</time></trkpt><trkpt lat="44.8449962" lon="10.4104852"><ele>33.0</ele><time>2026-05-04T13:57:39.391Z</time></trkpt><trkpt lat="44.8449052" lon="10.4104623"><ele>33.0</ele><time>2026-05-04T13:57:42.391Z</time></trkpt><trkpt lat="44.8448436" lon="10.410491"><ele>32.4</ele><time>2026-05-04T13:57:44.39Z</time></trkpt><trkpt lat="44.8448173" lon="10.4105907"><ele>31.799999999999997</ele><time>2026-05-04T13:57:46.39Z</time></trkpt><trkpt lat="44.844817" lon="10.410716"><ele>31.2</ele><time>2026-05-04T13:57:48.39Z</time></trkpt><trkpt lat="44.8448217" lon="10.4108593"><ele>30.6</ele><time>2026-05-04T13:57:50.391Z</time></trkpt><trkpt lat="44.844822" lon="10.4109864"><ele>30.0</ele><time>2026-05-04T13:57:52.39Z</time></trkpt><trkpt lat="44.8448177" lon="10.4111226"><ele>30.0</ele><time>2026-05-04T13:57:54.39Z</time></trkpt><trkpt lat="44.8448306" lon="10.4112965"><ele>30.0</ele><time>2026-05-04T13:57:56.391Z</time></trkpt><trkpt lat="44.844833" lon="10.4114667"><ele>30.0</ele><time>2026-05-04T13:57:58.39Z</time></trkpt><trkpt lat="44.8448251" lon="10.4116315"><ele>30.0</ele><time>2026-05-04T13:58:00.391Z</time></trkpt><trkpt lat="44.8448213" lon="10.4117209"><ele>30.0</ele><time>2026-05-04T13:58:01.391Z</time></trkpt><trkpt lat="44.8448241" lon="10.4118187"><ele>30.0</ele><time>2026-05-04T13:58:02.391Z</time></trkpt><trkpt lat="44.8448225" lon="10.411993"><ele>30.0</ele><time>2026-05-04T13:58:04.391Z</time></trkpt><trkpt lat="44.8448116" lon="10.4121684"><ele>30.0</ele><time>2026-05-04T13:58:06.391Z</time></trkpt><trkpt lat="44.8448052" lon="10.4123431"><ele>30.0</ele><time>2026-05-04T13:58:08.39Z</time></trkpt><trkpt lat="44.8447962" lon="10.4125056"><ele>30.0</ele><time>2026-05-04T13:58:10.391Z</time></trkpt><trkpt lat="44.84479" lon="10.4125996"><ele>30.0</ele><time>2026-05-04T13:58:11.39Z</time></trkpt><trkpt lat="44.8447787" lon="10.4127717"><ele>30.0</ele><time>2026-05-04T13:58:13.39Z</time></trkpt><trkpt lat="44.8447764" lon="10.4128709"><ele>30.0</ele><time>2026-05-04T13:58:14.391Z</time></trkpt><trkpt lat="44.8447824" lon="10.412964"><ele>30.0</ele><time>2026-05-04T13:58:15.39Z</time></trkpt><trkpt lat="44.8447767" lon="10.4131313"><ele>30.0</ele><time>2026-05-04T13:58:17.391Z</time></trkpt><trkpt lat="44.8447696" lon="10.413297"><ele>29.833333333333332</ele><time>2026-05-04T13:58:19.391Z</time></trkpt><trkpt lat="44.8447692" lon="10.413387"><ele>29.666666666666664</ele><time>2026-05-04T13:58:20.391Z</time></trkpt><trkpt lat="44.8447738" lon="10.4135589"><ele>29.5</ele><time>2026-05-04T13:58:22.39Z</time></trkpt><trkpt lat="44.8447707" lon="10.4136476"><ele>29.333333333333332</ele><time>2026-05-04T13:58:23.39Z</time></trkpt><trkpt lat="44.8447555" lon="10.4138183"><ele>29.166666666666664</ele><time>2026-05-04T13:58:25.391Z</time></trkpt><trkpt lat="44.8447545" lon="10.4139104"><ele>29.0</ele><time>2026-05-04T13:58:26.391Z</time></trkpt><trkpt lat="44.8447488" lon="10.4140831"><ele>29.0</ele><time>2026-05-04T13:58:28.391Z</time></trkpt><trkpt lat="44.8447457" lon="10.4141758"><ele>29.0</ele><time>2026-05-04T13:58:29.39Z</time></trkpt><trkpt lat="44.84473" lon="10.414347"><ele>29.0</ele><time>2026-05-04T13:58:31.391Z</time></trkpt><trkpt lat="44.8447271" lon="10.4145263"><ele>29.0</ele><time>2026-05-04T13:58:33.39Z</time></trkpt><trkpt lat="44.8447244" lon="10.4146867"><ele>29.0</ele><time>2026-05-04T13:58:35.391Z</time></trkpt><trkpt lat="44.8447232" lon="10.4148518"><ele>28.999999999999996</ele><time>2026-05-04T13:58:37.39Z</time></trkpt><trkpt lat="44.8447254" lon="10.4149439"><ele>29.0</ele><time>2026-05-04T13:58:38.39Z</time></trkpt><trkpt lat="44.8447264" lon="10.4150335"><ele>29.0</ele><time>2026-05-04T13:58:39.39Z</time></trkpt><trkpt lat="44.8447283" lon="10.4152045"><ele>29.0</ele><time>2026-05-04T13:58:41.39Z</time></trkpt><trkpt lat="44.8447259" lon="10.4152981"><ele>28.999999999999996</ele><time>2026-05-04T13:58:42.391Z</time></trkpt><trkpt lat="44.844719" lon="10.4154713"><ele>29.0</ele><time>2026-05-04T13:58:44.39Z</time></trkpt><trkpt lat="44.8447187" lon="10.415562"><ele>29.25</ele><time>2026-05-04T13:58:45.391Z</time></trkpt><trkpt lat="44.8447236" lon="10.4157252"><ele>29.5</ele><time>2026-05-04T13:58:47.391Z</time></trkpt><trkpt lat="44.8447308" lon="10.4158914"><ele>29.75</ele><time>2026-05-04T13:58:49.391Z</time></trkpt><trkpt lat="44.8447538" lon="10.4160601"><ele>30.0</ele><time>2026-05-04T13:58:51.391Z</time></trkpt><trkpt lat="44.8447838" lon="10.4162253"><ele>30.0</ele><time>2026-05-04T13:58:53.391Z</time></trkpt><trkpt lat="44.8448104" lon="10.4163138"><ele>30.0</ele><time>2026-05-04T13:58:54.391Z</time></trkpt><trkpt lat="44.8448429" lon="10.4163996"><ele>30.0</ele><time>2026-05-04T13:58:55.39Z</time></trkpt><trkpt lat="44.844876" lon="10.4165735"><ele>30.0</ele><time>2026-05-04T13:58:57.39Z</time></trkpt><trkpt lat="44.8448954" lon="10.4166614"><ele>30.0</ele><time>2026-05-04T13:58:58.39Z</time></trkpt><trkpt lat="44.8449203" lon="10.4167449"><ele>30.0</ele><time>2026-05-04T13:58:59.391Z</time></trkpt><trkpt lat="44.844954" lon="10.4169146"><ele>30.166666666666668</ele><time>2026-05-04T13:59:01.39Z</time></trkpt><trkpt lat="44.8449801" lon="10.4169985"><ele>30.333333333333336</ele><time>2026-05-04T13:59:02.39Z</time></trkpt><trkpt lat="44.8450027" lon="10.4170836"><ele>30.5</ele><time>2026-05-04T13:59:03.39Z</time></trkpt><trkpt lat="44.8450224" lon="10.4171735"><ele>30.666666666666668</ele><time>2026-05-04T13:59:04.39Z</time></trkpt><trkpt lat="44.8450635" lon="10.4173381"><ele>30.833333333333336</ele><time>2026-05-04T13:59:06.391Z</time></trkpt><trkpt lat="44.8451093" lon="10.4174996"><ele>31.0</ele><time>2026-05-04T13:59:08.391Z</time></trkpt><trkpt lat="44.84513" lon="10.4175904"><ele>31.200000000000003</ele><time>2026-05-04T13:59:09.39Z</time></trkpt><trkpt lat="44.8451724" lon="10.4177577"><ele>31.400000000000002</ele><time>2026-05-04T13:59:11.39Z</time></trkpt><trkpt lat="44.8451904" lon="10.4178453"><ele>31.6</ele><time>2026-05-04T13:59:12.39Z</time></trkpt><trkpt lat="44.8452317" lon="10.4180052"><ele>31.8</ele><time>2026-05-04T13:59:14.39Z</time></trkpt><trkpt lat="44.8452815" lon="10.4181739"><ele>32.0</ele><time>2026-05-04T13:59:16.391Z</time></trkpt><trkpt lat="44.8453023" lon="10.418263"><ele>31.999999999999996</ele><time>2026-05-04T13:59:17.391Z</time></trkpt><trkpt lat="44.8453205" lon="10.4183568"><ele>32.0</ele><time>2026-05-04T13:59:18.391Z</time></trkpt><trkpt lat="44.8453547" lon="10.4185155"><ele>32.0</ele><time>2026-05-04T13:59:20.39Z</time></trkpt><trkpt lat="44.8453829" lon="10.4186034"><ele>32.0</ele><time>2026-05-04T13:59:21.39Z</time></trkpt><trkpt lat="44.8454081" lon="10.4186898"><ele>31.999999999999996</ele><time>2026-05-04T13:59:22.39Z</time></trkpt><trkpt lat="44.845436" lon="10.4187729"><ele>32.0</ele><time>2026-05-04T13:59:23.39Z</time></trkpt><trkpt lat="44.8454681" lon="10.4188611"><ele>31.666666666666664</ele><time>2026-05-04T13:59:24.391Z</time></trkpt><trkpt lat="44.8455054" lon="10.4190307"><ele>31.333333333333332</ele><time>2026-05-04T13:59:26.39Z</time></trkpt><trkpt lat="44.8455223" lon="10.419119"><ele>31.0</ele><time>2026-05-04T13:59:27.391Z</time></trkpt><trkpt lat="44.8455447" lon="10.419203"><ele>30.666666666666664</ele><time>2026-05-04T13:59:28.39Z</time></trkpt><trkpt lat="44.8455616" lon="10.4192895"><ele>30.333333333333332</ele><time>2026-05-04T13:59:29.39Z</time></trkpt><trkpt lat="44.8456001" lon="10.4194546"><ele>30.0</ele><time>2026-05-04T13:59:31.391Z</time></trkpt><trkpt lat="44.845635" lon="10.4196124"><ele>30.142857142857146</ele><time>2026-05-04T13:59:33.391Z</time></trkpt><trkpt lat="44.8456534" lon="10.4196985"><ele>30.285714285714285</ele><time>2026-05-04T13:59:34.391Z</time></trkpt><trkpt lat="44.8456779" lon="10.4197869"><ele>30.42857142857143</ele><time>2026-05-04T13:59:35.39Z</time></trkpt><trkpt lat="44.845727" lon="10.4199457"><ele>30.571428571428573</ele><time>2026-05-04T13:59:37.39Z</time></trkpt><trkpt lat="44.8457493" lon="10.4200314"><ele>30.714285714285715</ele><time>2026-05-04T13:59:38.39Z</time></trkpt><trkpt lat="44.8457691" lon="10.4201189"><ele>30.857142857142858</ele><time>2026-05-04T13:59:39.39Z</time></trkpt><trkpt lat="44.8457797" lon="10.4202065"><ele>31.0</ele><time>2026-05-04T13:59:40.39Z</time></trkpt><trkpt lat="44.8457932" lon="10.4203719"><ele>31.0</ele><time>2026-05-04T13:59:42.391Z</time></trkpt><trkpt lat="44.8457959" lon="10.4205462"><ele>31.0</ele><time>2026-05-04T13:59:44.39Z</time></trkpt><trkpt lat="44.845786" lon="10.4207193"><ele>31.0</ele><time>2026-05-04T13:59:46.39Z</time></trkpt><trkpt lat="44.8457586" lon="10.420884"><ele>31.0</ele><time>2026-05-04T13:59:48.39Z</time></trkpt><trkpt lat="44.8457492" lon="10.4209764"><ele>31.0</ele><time>2026-05-04T13:59:49.391Z</time></trkpt><trkpt lat="44.8457283" lon="10.4210685"><ele>31.0</ele><time>2026-05-04T13:59:50.39Z</time></trkpt><trkpt lat="44.845706" lon="10.4211558"><ele>31.000000000000004</ele><time>2026-05-04T13:59:51.39Z</time></trkpt><trkpt lat="44.8456946" lon="10.4212489"><ele>31.0</ele><time>2026-05-04T13:59:52.39Z</time></trkpt><trkpt lat="44.8456702" lon="10.4213421"><ele>31.0</ele><time>2026-05-04T13:59:53.391Z</time></trkpt><trkpt lat="44.8456483" lon="10.4214338"><ele>31.000000000000004</ele><time>2026-05-04T13:59:54.391Z</time></trkpt><trkpt lat="44.8456299" lon="10.4215234"><ele>31.0</ele><time>2026-05-04T13:59:55.391Z</time></trkpt><trkpt lat="44.8456101" lon="10.4216137"><ele>31.0</ele><time>2026-05-04T13:59:56.39Z</time></trkpt><trkpt lat="44.8455886" lon="10.4217066"><ele>31.000000000000004</ele><time>2026-05-04T13:59:57.391Z</time></trkpt><trkpt lat="44.8455709" lon="10.4217938"><ele>31.0</ele><time>2026-05-04T13:59:58.391Z</time></trkpt><trkpt lat="44.8455339" lon="10.4219686"><ele>31.0</ele><time>2026-05-04T14:00:00.39Z</time></trkpt><trkpt lat="44.845514" lon="10.4220529"><ele>31.0</ele><time>2026-05-04T14:00:01.391Z</time></trkpt><trkpt lat="44.8454953" lon="10.4221383"><ele>31.000000000000004</ele><time>2026-05-04T14:00:02.391Z</time></trkpt><trkpt lat="44.8454787" lon="10.4222263"><ele>31.0</ele><time>2026-05-04T14:00:03.391Z</time></trkpt><trkpt lat="44.8454604" lon="10.4223169"><ele>31.0</ele><time>2026-05-04T14:00:04.39Z</time></trkpt><trkpt lat="44.8454457" lon="10.4224107"><ele>31.000000000000004</ele><time>2026-05-04T14:00:05.391Z</time></trkpt><trkpt lat="44.8454289" lon="10.4224967"><ele>31.0</ele><time>2026-05-04T14:00:06.391Z</time></trkpt><trkpt lat="44.8454112" lon="10.4225887"><ele>31.0</ele><time>2026-05-04T14:00:07.391Z</time></trkpt><trkpt lat="44.8453899" lon="10.4226784"><ele>31.000000000000004</ele><time>2026-05-04T14:00:08.39Z</time></trkpt><trkpt lat="44.8453785" lon="10.4227745"><ele>31.0</ele><time>2026-05-04T14:00:09.39Z</time></trkpt><trkpt lat="44.8453563" lon="10.4228616"><ele>31.0</ele><time>2026-05-04T14:00:10.39Z</time></trkpt><trkpt lat="44.8453383" lon="10.422952"><ele>30.75</ele><time>2026-05-04T14:00:11.391Z</time></trkpt><trkpt lat="44.8452934" lon="10.4231237"><ele>30.5</ele><time>2026-05-04T14:00:13.39Z</time></trkpt><trkpt lat="44.8452521" lon="10.4232868"><ele>30.25</ele><time>2026-05-04T14:00:15.39Z</time></trkpt><trkpt lat="44.8452191" lon="10.4234665"><ele>30.0</ele><time>2026-05-04T14:00:17.39Z</time></trkpt><trkpt lat="44.8452083" lon="10.4235617"><ele>30.0</ele><time>2026-05-04T14:00:18.391Z</time></trkpt><trkpt lat="44.8451889" lon="10.4236489"><ele>30.0</ele><time>2026-05-04T14:00:19.391Z</time></trkpt><trkpt lat="44.8451755" lon="10.4237458"><ele>30.0</ele><time>2026-05-04T14:00:20.391Z</time></trkpt><trkpt lat="44.8451549" lon="10.4238327"><ele>30.0</ele><time>2026-05-04T14:00:21.39Z</time></trkpt><trkpt lat="44.8451257" lon="10.4240041"><ele>30.0</ele><time>2026-05-04T14:00:23.39Z</time></trkpt><trkpt lat="44.8451052" lon="10.424096"><ele>30.0</ele><time>2026-05-04T14:00:24.391Z</time></trkpt><trkpt lat="44.8450878" lon="10.4241844"><ele>29.833333333333332</ele><time>2026-05-04T14:00:25.391Z</time></trkpt><trkpt lat="44.8450582" lon="10.4243531"><ele>29.666666666666664</ele><time>2026-05-04T14:00:27.39Z</time></trkpt><trkpt lat="44.8450363" lon="10.4244373"><ele>29.5</ele><time>2026-05-04T14:00:28.391Z</time></trkpt><trkpt lat="44.8449989" lon="10.42461"><ele>29.333333333333332</ele><time>2026-05-04T14:00:30.39Z</time></trkpt><trkpt lat="44.8449808" lon="10.4246953"><ele>29.166666666666664</ele><time>2026-05-04T14:00:31.391Z</time></trkpt><trkpt lat="44.8449595" lon="10.4247847"><ele>29.0</ele><time>2026-05-04T14:00:32.391Z</time></trkpt><trkpt lat="44.8449342" lon="10.4249488"><ele>29.0</ele><time>2026-05-04T14:00:34.391Z</time></trkpt><trkpt lat="44.8448991" lon="10.4251233"><ele>29.0</ele><time>2026-05-04T14:00:36.39Z</time></trkpt><trkpt lat="44.8448578" lon="10.4252885"><ele>29.0</ele><time>2026-05-04T14:00:38.39Z</time></trkpt><trkpt lat="44.8448393" lon="10.4253783"><ele>29.0</ele><time>2026-05-04T14:00:39.39Z</time></trkpt><trkpt lat="44.8448222" lon="10.4254677"><ele>29.0</ele><time>2026-05-04T14:00:40.39Z</time></trkpt><trkpt lat="44.8448096" lon="10.4255597"><ele>29.333333333333332</ele><time>2026-05-04T14:00:41.391Z</time></trkpt><trkpt lat="44.8447917" lon="10.4256455"><ele>29.666666666666664</ele><time>2026-05-04T14:00:42.39Z</time></trkpt><trkpt lat="44.8447625" lon="10.4257956"><ele>30.0</ele><time>2026-05-04T14:00:44.39Z</time></trkpt><trkpt lat="44.8447355" lon="10.4258908"><ele>30.333333333333336</ele><time>2026-05-04T14:00:45.391Z</time></trkpt><trkpt lat="44.844713" lon="10.4259756"><ele>30.666666666666668</ele><time>2026-05-04T14:00:46.39Z</time></trkpt><trkpt lat="44.84468" lon="10.426149"><ele>31.0</ele><time>2026-05-04T14:00:48.39Z</time></trkpt><trkpt lat="44.8446447" lon="10.4263193"><ele>31.28571428571429</ele><time>2026-05-04T14:00:50.391Z</time></trkpt><trkpt lat="44.844635" lon="10.4264085"><ele>31.571428571428577</ele><time>2026-05-04T14:00:51.391Z</time></trkpt><trkpt lat="44.8446249" lon="10.4264964"><ele>31.857142857142858</ele><time>2026-05-04T14:00:52.391Z</time></trkpt><trkpt lat="44.8446123" lon="10.4265875"><ele>32.142857142857146</ele><time>2026-05-04T14:00:53.391Z</time></trkpt><trkpt lat="44.8446031" lon="10.4266828"><ele>32.42857142857143</ele><time>2026-05-04T14:00:54.391Z</time></trkpt><trkpt lat="44.8446042" lon="10.4267784"><ele>32.714285714285715</ele><time>2026-05-04T14:00:55.391Z</time></trkpt><trkpt lat="44.8445983" lon="10.4268693"><ele>33.0</ele><time>2026-05-04T14:00:56.39Z</time></trkpt><trkpt lat="44.8445901" lon="10.4269588"><ele>33.0</ele><time>2026-05-04T14:00:57.39Z</time></trkpt><trkpt lat="44.8445805" lon="10.427055"><ele>33.0</ele><time>2026-05-04T14:00:58.39Z</time></trkpt><trkpt lat="44.8445775" lon="10.4271454"><ele>33.0</ele><time>2026-05-04T14:00:59.39Z</time></trkpt><trkpt lat="44.8445715" lon="10.4272449"><ele>33.0</ele><time>2026-05-04T14:01:00.391Z</time></trkpt><trkpt lat="44.8445669" lon="10.427338"><ele>33.0</ele><time>2026-05-04T14:01:01.39Z</time></trkpt><trkpt lat="44.8445648" lon="10.4274437"><ele>33.0</ele><time>2026-05-04T14:01:02.39Z</time></trkpt><trkpt lat="44.8445715" lon="10.4275419"><ele>33.0</ele><time>2026-05-04T14:01:03.391Z</time></trkpt><trkpt lat="44.8445614" lon="10.4276314"><ele>32.5</ele><time>2026-05-04T14:01:04.39Z</time></trkpt><trkpt lat="44.844557" lon="10.4277231"><ele>32.0</ele><time>2026-05-04T14:01:05.39Z</time></trkpt><trkpt lat="44.8445538" lon="10.4278207"><ele>31.5</ele><time>2026-05-04T14:01:06.391Z</time></trkpt><trkpt lat="44.8445409" lon="10.4279986"><ele>31.0</ele><time>2026-05-04T14:01:08.39Z</time></trkpt><trkpt lat="44.8445324" lon="10.4280928"><ele>30.5</ele><time>2026-05-04T14:01:09.391Z</time></trkpt><trkpt lat="44.8445295" lon="10.4281827"><ele>30.0</ele><time>2026-05-04T14:01:10.39Z</time></trkpt><trkpt lat="44.8445238" lon="10.4282723"><ele>29.8</ele><time>2026-05-04T14:01:11.39Z</time></trkpt><trkpt lat="44.8445193" lon="10.4283685"><ele>29.6</ele><time>2026-05-04T14:01:12.39Z</time></trkpt><trkpt lat="44.8445137" lon="10.4284633"><ele>29.4</ele><time>2026-05-04T14:01:13.391Z</time></trkpt><trkpt lat="44.8445134" lon="10.4286366"><ele>29.2</ele><time>2026-05-04T14:01:15.39Z</time></trkpt><trkpt lat="44.8445094" lon="10.4287965"><ele>29.0</ele><time>2026-05-04T14:01:17.39Z</time></trkpt><trkpt lat="44.8445021" lon="10.4289504"><ele>29.0</ele><time>2026-05-04T14:01:19.391Z</time></trkpt><trkpt lat="44.8445072" lon="10.4291118"><ele>29.0</ele><time>2026-05-04T14:01:21.391Z</time></trkpt><trkpt lat="44.8445179" lon="10.4292739"><ele>29.0</ele><time>2026-05-04T14:01:23.39Z</time></trkpt><trkpt lat="44.844493" lon="10.4294418"><ele>29.0</ele><time>2026-05-04T14:01:25.391Z</time></trkpt><trkpt lat="44.8444629" lon="10.4296012"><ele>29.166666666666664</ele><time>2026-05-04T14:01:27.391Z</time></trkpt><trkpt lat="44.8444574" lon="10.4296907"><ele>29.333333333333332</ele><time>2026-05-04T14:01:28.39Z</time></trkpt><trkpt lat="44.8444574" lon="10.4297877"><ele>29.5</ele><time>2026-05-04T14:01:29.39Z</time></trkpt><trkpt lat="44.8444374" lon="10.4298832"><ele>29.666666666666664</ele><time>2026-05-04T14:01:30.39Z</time></trkpt><trkpt lat="44.8444254" lon="10.429973"><ele>29.833333333333332</ele><time>2026-05-04T14:01:31.391Z</time></trkpt><trkpt lat="44.8444119" lon="10.4301525"><ele>30.0</ele><time>2026-05-04T14:01:33.39Z</time></trkpt><trkpt lat="44.8444119" lon="10.4303168"><ele>30.0</ele><time>2026-05-04T14:01:35.39Z</time></trkpt><trkpt lat="44.8443989" lon="10.4304671"><ele>30.0</ele><time>2026-05-04T14:01:37.39Z</time></trkpt><trkpt lat="44.8443997" lon="10.4306047"><ele>30.0</ele><time>2026-05-04T14:01:39.391Z</time></trkpt><trkpt lat="44.8443906" lon="10.4307329"><ele>30.0</ele><time>2026-05-04T14:01:41.391Z</time></trkpt><trkpt lat="44.8443937" lon="10.4308463"><ele>30.0</ele><time>2026-05-04T14:01:43.39Z</time></trkpt><trkpt lat="44.844408" lon="10.4309551"><ele>30.0</ele><time>2026-05-04T14:01:45.39Z</time></trkpt><trkpt lat="44.8444311" lon="10.4310451"><ele>30.0</ele><time>2026-05-04T14:01:47.391Z</time></trkpt><trkpt lat="44.8444772" lon="10.4311196"><ele>30.0</ele><time>2026-05-04T14:01:49.39Z</time></trkpt><trkpt lat="44.8445278" lon="10.4311846"><ele>30.0</ele><time>2026-05-04T14:01:51.391Z</time></trkpt><trkpt lat="44.8445822" lon="10.4312401"><ele>30.0</ele><time>2026-05-04T14:01:53.39Z</time></trkpt><trkpt lat="44.8446375" lon="10.4313206"><ele>30.0</ele><time>2026-05-04T14:01:56.391Z</time></trkpt><trkpt lat="44.8446132" lon="10.4314442"><ele>30.0</ele><time>2026-05-04T14:01:59.39Z</time></trkpt><trkpt lat="44.8445442" lon="10.4315289"><ele>29.8</ele><time>2026-05-04T14:02:01.391Z</time></trkpt><trkpt lat="44.8444534" lon="10.431568"><ele>29.6</ele><time>2026-05-04T14:02:03.391Z</time></trkpt><trkpt lat="44.8443404" lon="10.4315662"><ele>29.4</ele><time>2026-05-04T14:02:05.391Z</time></trkpt><trkpt lat="44.8442465" lon="10.4315496"><ele>29.2</ele><time>2026-05-04T14:02:07.39Z</time></trkpt><trkpt lat="44.8441651" lon="10.4316258"><ele>29.0</ele><time>2026-05-04T14:02:09.391Z</time></trkpt><trkpt lat="44.8441481" lon="10.4317327"><ele>29.4</ele><time>2026-05-04T14:02:11.39Z</time></trkpt><trkpt lat="44.8440885" lon="10.4317717"><ele>29.799999999999997</ele><time>2026-05-04T14:02:13.39Z</time></trkpt><trkpt lat="44.844053" lon="10.4318924"><ele>30.200000000000003</ele><time>2026-05-04T14:02:16.39Z</time></trkpt><trkpt lat="44.8440289" lon="10.4320303"><ele>30.6</ele><time>2026-05-04T14:02:18.39Z</time></trkpt><trkpt lat="44.8439897" lon="10.4321569"><ele>31.0</ele><time>2026-05-04T14:02:20.39Z</time></trkpt><trkpt lat="44.8439599" lon="10.4323136"><ele>31.0</ele><time>2026-05-04T14:02:22.391Z</time></trkpt><trkpt lat="44.8439296" lon="10.4324753"><ele>31.0</ele><time>2026-05-04T14:02:24.39Z</time></trkpt><trkpt lat="44.8438974" lon="10.4326369"><ele>31.0</ele><time>2026-05-04T14:02:26.391Z</time></trkpt><trkpt lat="44.8438713" lon="10.4327839"><ele>31.0</ele><time>2026-05-04T14:02:28.391Z</time></trkpt><trkpt lat="44.843857" lon="10.4328738"><ele>31.0</ele><time>2026-05-04T14:02:29.39Z</time></trkpt><trkpt lat="44.8438401" lon="10.433027"><ele>31.0</ele><time>2026-05-04T14:02:31.39Z</time></trkpt><trkpt lat="44.8438131" lon="10.4331801"><ele>31.0</ele><time>2026-05-04T14:02:33.39Z</time></trkpt><trkpt lat="44.8437712" lon="10.4333376"><ele>31.0</ele><time>2026-05-04T14:02:35.39Z</time></trkpt><trkpt lat="44.8437407" lon="10.4334829"><ele>31.0</ele><time>2026-05-04T14:02:37.391Z</time></trkpt><trkpt lat="44.8437125" lon="10.4336144"><ele>31.0</ele><time>2026-05-04T14:02:39.39Z</time></trkpt><trkpt lat="44.8436954" lon="10.4337532"><ele>31.4</ele><time>2026-05-04T14:02:41.391Z</time></trkpt><trkpt lat="44.8436913" lon="10.4338821"><ele>31.8</ele><time>2026-05-04T14:02:43.39Z</time></trkpt><trkpt lat="44.8437271" lon="10.4340024"><ele>32.199999999999996</ele><time>2026-05-04T14:02:45.39Z</time></trkpt><trkpt lat="44.8437999" lon="10.4340989"><ele>32.6</ele><time>2026-05-04T14:02:47.39Z</time></trkpt><trkpt lat="44.8438996" lon="10.4341516"><ele>33.0</ele><time>2026-05-04T14:02:49.39Z</time></trkpt><trkpt lat="44.8440104" lon="10.434201"><ele>33.0</ele><time>2026-05-04T14:02:51.39Z</time></trkpt><trkpt lat="44.8441217" lon="10.4342549"><ele>33.0</ele><time>2026-05-04T14:02:53.39Z</time></trkpt><trkpt lat="44.8442348" lon="10.4343029"><ele>33.0</ele><time>2026-05-04T14:02:55.391Z</time></trkpt><trkpt lat="44.8443474" lon="10.43435"><ele>33.0</ele><time>2026-05-04T14:02:57.39Z</time></trkpt><trkpt lat="44.8444589" lon="10.4343945"><ele>32.6</ele><time>2026-05-04T14:02:59.391Z</time></trkpt><trkpt lat="44.8445735" lon="10.4344402"><ele>32.199999999999996</ele><time>2026-05-04T14:03:01.39Z</time></trkpt><trkpt lat="44.8446866" lon="10.4344849"><ele>31.8</ele><time>2026-05-04T14:03:03.39Z</time></trkpt><trkpt lat="44.8447489" lon="10.4345088"><ele>31.4</ele><time>2026-05-04T14:03:04.39Z</time></trkpt><trkpt lat="44.8448629" lon="10.434552"><ele>31.0</ele><time>2026-05-04T14:03:06.391Z</time></trkpt><trkpt lat="44.8449798" lon="10.434595"><ele>31.0</ele><time>2026-05-04T14:03:08.39Z</time></trkpt><trkpt lat="44.845095" lon="10.4346259"><ele>31.0</ele><time>2026-05-04T14:03:10.39Z</time></trkpt><trkpt lat="44.8451944" lon="10.4346741"><ele>31.0</ele><time>2026-05-04T14:03:12.39Z</time></trkpt><trkpt lat="44.8453033" lon="10.4347211"><ele>31.0</ele><time>2026-05-04T14:03:14.391Z</time></trkpt><trkpt lat="44.8454166" lon="10.4347674"><ele>31.0</ele><time>2026-05-04T14:03:16.39Z</time></trkpt><trkpt lat="44.8455297" lon="10.434801"><ele>31.0</ele><time>2026-05-04T14:03:18.391Z</time></trkpt><trkpt lat="44.8456426" lon="10.4348294"><ele>31.0</ele><time>2026-05-04T14:03:20.391Z</time></trkpt><trkpt lat="44.8457426" lon="10.4348905"><ele>31.0</ele><time>2026-05-04T14:03:22.39Z</time></trkpt><trkpt lat="44.8457578" lon="10.435031"><ele>31.0</ele><time>2026-05-04T14:03:24.39Z</time></trkpt><trkpt lat="44.8457289" lon="10.4351734"><ele>31.0</ele><time>2026-05-04T14:03:26.391Z</time></trkpt><trkpt lat="44.845711" lon="10.435325"><ele>31.0</ele><time>2026-05-04T14:03:28.39Z</time></trkpt><trkpt lat="44.8456892" lon="10.4354772"><ele>31.0</ele><time>2026-05-04T14:03:30.39Z</time></trkpt><trkpt lat="44.8456665" lon="10.4356377"><ele>31.0</ele><time>2026-05-04T14:03:32.39Z</time></trkpt><trkpt lat="44.8456313" lon="10.4357998"><ele>30.8</ele><time>2026-05-04T14:03:34.39Z</time></trkpt><trkpt lat="44.8456138" lon="10.4359594"><ele>30.6</ele><time>2026-05-04T14:03:36.39Z</time></trkpt><trkpt lat="44.8456011" lon="10.4360465"><ele>30.4</ele><time>2026-05-04T14:03:37.391Z</time></trkpt><trkpt lat="44.845578" lon="10.4362109"><ele>30.2</ele><time>2026-05-04T14:03:39.391Z</time></trkpt><trkpt lat="44.8455624" lon="10.4362985"><ele>30.0</ele><time>2026-05-04T14:03:40.39Z</time></trkpt><trkpt lat="44.8455373" lon="10.4364623"><ele>30.4</ele><time>2026-05-04T14:03:42.391Z</time></trkpt><trkpt lat="44.8455154" lon="10.4366258"><ele>30.8</ele><time>2026-05-04T14:03:44.391Z</time></trkpt><trkpt lat="44.8455007" lon="10.4367163"><ele>31.200000000000003</ele><time>2026-05-04T14:03:45.39Z</time></trkpt><trkpt lat="44.8454677" lon="10.4368778"><ele>31.6</ele><time>2026-05-04T14:03:47.39Z</time></trkpt><trkpt lat="44.8454545" lon="10.4369674"><ele>32.0</ele><time>2026-05-04T14:03:48.39Z</time></trkpt><trkpt lat="44.8454195" lon="10.4371237"><ele>32.0</ele><time>2026-05-04T14:03:50.391Z</time></trkpt><trkpt lat="44.8454058" lon="10.437212"><ele>32.0</ele><time>2026-05-04T14:03:51.39Z</time></trkpt><trkpt lat="44.8453684" lon="10.4373657"><ele>32.0</ele><time>2026-05-04T14:03:53.39Z</time></trkpt><trkpt lat="44.84536" lon="10.437526"><ele>32.0</ele><time>2026-05-04T14:03:55.39Z</time></trkpt><trkpt lat="44.8454144" lon="10.4376553"><ele>32.0</ele><time>2026-05-04T14:03:57.39Z</time></trkpt><trkpt lat="44.8455266" lon="10.4376885"><ele>32.0</ele><time>2026-05-04T14:03:59.39Z</time></trkpt><trkpt lat="44.8456203" lon="10.4377241"><ele>32.0</ele><time>2026-05-04T14:04:01.391Z</time></trkpt><trkpt lat="44.8457163" lon="10.4377714"><ele>32.0</ele><time>2026-05-04T14:04:03.391Z</time></trkpt><trkpt lat="44.8458161" lon="10.4378101"><ele>32.0</ele><time>2026-05-04T14:04:05.39Z</time></trkpt><trkpt lat="44.8459168" lon="10.4378458"><ele>32.0</ele><time>2026-05-04T14:04:07.39Z</time></trkpt><trkpt lat="44.8460317" lon="10.4378778"><ele>32.0</ele><time>2026-05-04T14:04:09.39Z</time></trkpt><trkpt lat="44.8461483" lon="10.4379161"><ele>32.0</ele><time>2026-05-04T14:04:11.391Z</time></trkpt><trkpt lat="44.8462614" lon="10.4379616"><ele>32.0</ele><time>2026-05-04T14:04:13.391Z</time></trkpt><trkpt lat="44.8463761" lon="10.438"><ele>32.0</ele><time>2026-05-04T14:04:15.391Z</time></trkpt><trkpt lat="44.8464902" lon="10.4380455"><ele>32.0</ele><time>2026-05-04T14:04:17.39Z</time></trkpt><trkpt lat="44.8466" lon="10.4380918"><ele>32.0</ele><time>2026-05-04T14:04:19.391Z</time></trkpt><trkpt lat="44.8467061" lon="10.4381395"><ele>32.0</ele><time>2026-05-04T14:04:21.39Z</time></trkpt><trkpt lat="44.8467676" lon="10.4381714"><ele>32.0</ele><time>2026-05-04T14:04:22.39Z</time></trkpt><trkpt lat="44.8468782" lon="10.4382338"><ele>32.0</ele><time>2026-05-04T14:04:24.391Z</time></trkpt><trkpt lat="44.8469774" lon="10.4383139"><ele>32.0</ele><time>2026-05-04T14:04:26.39Z</time></trkpt><trkpt lat="44.8470714" lon="10.4383993"><ele>32.0</ele><time>2026-05-04T14:04:28.391Z</time></trkpt><trkpt lat="44.8471058" lon="10.4385395"><ele>32.0</ele><time>2026-05-04T14:04:30.391Z</time></trkpt><trkpt lat="44.8470797" lon="10.4386835"><ele>32.0</ele><time>2026-05-04T14:04:32.391Z</time></trkpt><trkpt lat="44.8470432" lon="10.4388117"><ele>32.0</ele><time>2026-05-04T14:04:34.391Z</time></trkpt><trkpt lat="44.847023" lon="10.4389497"><ele>32.0</ele><time>2026-05-04T14:04:36.39Z</time></trkpt><trkpt lat="44.8470798" lon="10.4390469"><ele>32.0</ele><time>2026-05-04T14:04:38.39Z</time></trkpt><trkpt lat="44.8471798" lon="10.4390794"><ele>32.0</ele><time>2026-05-04T14:04:40.39Z</time></trkpt><trkpt lat="44.8472837" lon="10.4391014"><ele>32.0</ele><time>2026-05-04T14:04:42.39Z</time></trkpt><trkpt lat="44.8473669" lon="10.4391499"><ele>32.0</ele><time>2026-05-04T14:04:44.39Z</time></trkpt><trkpt lat="44.8474917" lon="10.4391834"><ele>32.0</ele><time>2026-05-04T14:04:46.39Z</time></trkpt><trkpt lat="44.8475552" lon="10.4392078"><ele>32.0</ele><time>2026-05-04T14:04:47.39Z</time></trkpt><trkpt lat="44.8476687" lon="10.43923"><ele>32.0</ele><time>2026-05-04T14:04:49.391Z</time></trkpt><trkpt lat="44.8477771" lon="10.4392622"><ele>32.0</ele><time>2026-05-04T14:04:51.391Z</time></trkpt><trkpt lat="44.847866" lon="10.4392889"><ele>32.0</ele><time>2026-05-04T14:04:53.39Z</time></trkpt><trkpt lat="44.8479445" lon="10.4393325"><ele>32.0</ele><time>2026-05-04T14:04:55.39Z</time></trkpt><trkpt lat="44.8479487" lon="10.4394396"><ele>32.0</ele><time>2026-05-04T14:04:57.39Z</time></trkpt><trkpt lat="44.8479317" lon="10.4395602"><ele>32.0</ele><time>2026-05-04T14:04:59.39Z</time></trkpt><trkpt lat="44.8478957" lon="10.4397079"><ele>32.0</ele><time>2026-05-04T14:05:01.391Z</time></trkpt><trkpt lat="44.8478683" lon="10.4398613"><ele>32.0</ele><time>2026-05-04T14:05:03.391Z</time></trkpt><trkpt lat="44.8478315" lon="10.4400191"><ele>32.0</ele><time>2026-05-04T14:05:05.391Z</time></trkpt><trkpt lat="44.8478009" lon="10.4401798"><ele>32.0</ele><time>2026-05-04T14:05:07.39Z</time></trkpt><trkpt lat="44.8477863" lon="10.4402682"><ele>32.0</ele><time>2026-05-04T14:05:08.391Z</time></trkpt><trkpt lat="44.8477558" lon="10.4404382"><ele>32.0</ele><time>2026-05-04T14:05:10.391Z</time></trkpt><trkpt lat="44.8477156" lon="10.4405958"><ele>32.0</ele><time>2026-05-04T14:05:12.391Z</time></trkpt><trkpt lat="44.8476987" lon="10.440683"><ele>32.0</ele><time>2026-05-04T14:05:13.39Z</time></trkpt><trkpt lat="44.8476749" lon="10.440768"><ele>32.0</ele><time>2026-05-04T14:05:14.391Z</time></trkpt><trkpt lat="44.8476396" lon="10.440918"><ele>32.0</ele><time>2026-05-04T14:05:16.39Z</time></trkpt><trkpt lat="44.8476061" lon="10.4410779"><ele>32.0</ele><time>2026-05-04T14:05:18.391Z</time></trkpt><trkpt lat="44.8475707" lon="10.4412433"><ele>32.0</ele><time>2026-05-04T14:05:20.391Z</time></trkpt><trkpt lat="44.8475389" lon="10.4414126"><ele>32.25</ele><time>2026-05-04T14:05:22.39Z</time></trkpt><trkpt lat="44.8475098" lon="10.441575"><ele>32.5</ele><time>2026-05-04T14:05:24.391Z</time></trkpt><trkpt lat="44.8474929" lon="10.4417528"><ele>32.75</ele><time>2026-05-04T14:05:26.391Z</time></trkpt><trkpt lat="44.8474512" lon="10.4419059"><ele>33.0</ele><time>2026-05-04T14:05:28.39Z</time></trkpt><trkpt lat="44.8474217" lon="10.4420702"><ele>33.0</ele><time>2026-05-04T14:05:30.391Z</time></trkpt><trkpt lat="44.8473947" lon="10.4422303"><ele>33.0</ele><time>2026-05-04T14:05:32.391Z</time></trkpt><trkpt lat="44.8473673" lon="10.442388"><ele>33.0</ele><time>2026-05-04T14:05:34.391Z</time></trkpt><trkpt lat="44.8473383" lon="10.4425459"><ele>33.0</ele><time>2026-05-04T14:05:36.39Z</time></trkpt><trkpt lat="44.8473064" lon="10.4427018"><ele>33.0</ele><time>2026-05-04T14:05:38.39Z</time></trkpt><trkpt lat="44.8472782" lon="10.4428665"><ele>33.0</ele><time>2026-05-04T14:05:40.391Z</time></trkpt><trkpt lat="44.8472318" lon="10.4430383"><ele>33.0</ele><time>2026-05-04T14:05:42.391Z</time></trkpt><trkpt lat="44.8471952" lon="10.4432167"><ele>33.0</ele><time>2026-05-04T14:05:44.391Z</time></trkpt><trkpt lat="44.8471824" lon="10.4433062"><ele>33.0</ele><time>2026-05-04T14:05:45.39Z</time></trkpt><trkpt lat="44.8471646" lon="10.4433926"><ele>33.0</ele><time>2026-05-04T14:05:46.39Z</time></trkpt><trkpt lat="44.8471385" lon="10.4435703"><ele>33.0</ele><time>2026-05-04T14:05:48.39Z</time></trkpt><trkpt lat="44.8471182" lon="10.4436581"><ele>33.0</ele><time>2026-05-04T14:05:49.39Z</time></trkpt><trkpt lat="44.8470906" lon="10.4438278"><ele>33.0</ele><time>2026-05-04T14:05:51.39Z</time></trkpt><trkpt lat="44.8470793" lon="10.4439197"><ele>33.0</ele><time>2026-05-04T14:05:52.391Z</time></trkpt><trkpt lat="44.8470739" lon="10.4441096"><ele>33.4</ele><time>2026-05-04T14:05:54.39Z</time></trkpt><trkpt lat="44.847054" lon="10.4441991"><ele>33.8</ele><time>2026-05-04T14:05:55.39Z</time></trkpt><trkpt lat="44.847026" lon="10.4443701"><ele>34.2</ele><time>2026-05-04T14:05:57.39Z</time></trkpt><trkpt lat="44.847002" lon="10.4444556"><ele>34.6</ele><time>2026-05-04T14:05:58.391Z</time></trkpt><trkpt lat="44.8469744" lon="10.4446078"><ele>35.0</ele><time>2026-05-04T14:06:00.391Z</time></trkpt><trkpt lat="44.846943" lon="10.4447605"><ele>35.0</ele><time>2026-05-04T14:06:02.391Z</time></trkpt><trkpt lat="44.8469312" lon="10.4448723"><ele>35.0</ele><time>2026-05-04T14:06:04.391Z</time></trkpt><trkpt lat="44.8469043" lon="10.44496"><ele>35.0</ele><time>2026-05-04T14:06:07.39Z</time></trkpt><trkpt lat="44.846888" lon="10.4450835"><ele>35.0</ele><time>2026-05-04T14:06:11.391Z</time></trkpt><trkpt lat="44.8468888" lon="10.4451756"><ele>35.0</ele><time>2026-05-04T14:06:13.39Z</time></trkpt><trkpt lat="44.846871" lon="10.4452975"><ele>35.0</ele><time>2026-05-04T14:06:15.39Z</time></trkpt><trkpt lat="44.8468472" lon="10.4454459"><ele>34.8</ele><time>2026-05-04T14:06:17.39Z</time></trkpt><trkpt lat="44.8468108" lon="10.4455957"><ele>34.6</ele><time>2026-05-04T14:06:19.39Z</time></trkpt><trkpt lat="44.8467771" lon="10.445754"><ele>34.4</ele><time>2026-05-04T14:06:21.391Z</time></trkpt><trkpt lat="44.8467608" lon="10.4458399"><ele>34.2</ele><time>2026-05-04T14:06:22.391Z</time></trkpt><trkpt lat="44.8467316" lon="10.4460129"><ele>34.0</ele><time>2026-05-04T14:06:24.39Z</time></trkpt><trkpt lat="44.8467234" lon="10.4461017"><ele>34.0</ele><time>2026-05-04T14:06:25.39Z</time></trkpt><trkpt lat="44.8466922" lon="10.4462698"><ele>34.0</ele><time>2026-05-04T14:06:27.39Z</time></trkpt><trkpt lat="44.8466737" lon="10.4464372"><ele>34.0</ele><time>2026-05-04T14:06:29.39Z</time></trkpt><trkpt lat="44.846632" lon="10.4466154"><ele>34.0</ele><time>2026-05-04T14:06:31.39Z</time></trkpt><trkpt lat="44.8466044" lon="10.4467769"><ele>34.0</ele><time>2026-05-04T14:06:33.391Z</time></trkpt><trkpt lat="44.8465726" lon="10.4469447"><ele>34.0</ele><time>2026-05-04T14:06:35.391Z</time></trkpt><trkpt lat="44.8465512" lon="10.4470301"><ele>34.0</ele><time>2026-05-04T14:06:36.391Z</time></trkpt><trkpt lat="44.8465336" lon="10.4471876"><ele>34.0</ele><time>2026-05-04T14:06:38.391Z</time></trkpt><trkpt lat="44.8465165" lon="10.4472764"><ele>34.0</ele><time>2026-05-04T14:06:39.391Z</time></trkpt><trkpt lat="44.8464839" lon="10.4474396"><ele>34.333333333333336</ele><time>2026-05-04T14:06:41.39Z</time></trkpt><trkpt lat="44.8464651" lon="10.4476008"><ele>34.66666666666667</ele><time>2026-05-04T14:06:43.39Z</time></trkpt><trkpt lat="44.8464613" lon="10.447692"><ele>35.0</ele><time>2026-05-04T14:06:44.39Z</time></trkpt><trkpt lat="44.8464479" lon="10.4477854"><ele>35.333333333333336</ele><time>2026-05-04T14:06:45.39Z</time></trkpt><trkpt lat="44.8464717" lon="10.4478728"><ele>35.666666666666664</ele><time>2026-05-04T14:06:46.391Z</time></trkpt><trkpt lat="44.8464662" lon="10.4480287"><ele>36.0</ele><time>2026-05-04T14:06:48.39Z</time></trkpt><trkpt lat="44.8464206" lon="10.4481575"><ele>36.0</ele><time>2026-05-04T14:06:50.391Z</time></trkpt><trkpt lat="44.8463667" lon="10.4482297"><ele>36.0</ele><time>2026-05-04T14:06:52.39Z</time></trkpt><trkpt lat="44.8462835" lon="10.4483052"><ele>36.0</ele><time>2026-05-04T14:06:56.391Z</time></trkpt><trkpt lat="44.8462279" lon="10.4483619"><ele>36.0</ele><time>2026-05-04T14:06:58.391Z</time></trkpt><trkpt lat="44.8461652" lon="10.4484454"><ele>36.0</ele><time>2026-05-04T14:07:00.39Z</time></trkpt><trkpt lat="44.8460926" lon="10.4485127"><ele>36.0</ele><time>2026-05-04T14:07:02.391Z</time></trkpt><trkpt lat="44.8460311" lon="10.44862"><ele>36.0</ele><time>2026-05-04T14:07:04.39Z</time></trkpt><trkpt lat="44.8459936" lon="10.448734"><ele>36.0</ele><time>2026-05-04T14:07:06.391Z</time></trkpt><trkpt lat="44.8459716" lon="10.4488736"><ele>36.0</ele><time>2026-05-04T14:07:08.39Z</time></trkpt><trkpt lat="44.8459421" lon="10.4490146"><ele>36.0</ele><time>2026-05-04T14:07:10.391Z</time></trkpt><trkpt lat="44.8459261" lon="10.4491538"><ele>36.0</ele><time>2026-05-04T14:07:12.39Z</time></trkpt><trkpt lat="44.8458959" lon="10.4493014"><ele>35.8</ele><time>2026-05-04T14:07:14.39Z</time></trkpt><trkpt lat="44.8458817" lon="10.4494408"><ele>35.6</ele><time>2026-05-04T14:07:16.391Z</time></trkpt><trkpt lat="44.8458566" lon="10.4495744"><ele>35.4</ele><time>2026-05-04T14:07:18.391Z</time></trkpt><trkpt lat="44.8458206" lon="10.4497015"><ele>35.2</ele><time>2026-05-04T14:07:20.39Z</time></trkpt><trkpt lat="44.8458166" lon="10.4498135"><ele>35.0</ele><time>2026-05-04T14:07:22.391Z</time></trkpt><trkpt lat="44.8457982" lon="10.4499487"><ele>35.4</ele><time>2026-05-04T14:07:24.39Z</time></trkpt><trkpt lat="44.8458029" lon="10.4500469"><ele>35.8</ele><time>2026-05-04T14:07:26.39Z</time></trkpt><trkpt lat="44.8457846" lon="10.4501877"><ele>36.2</ele><time>2026-05-04T14:07:28.391Z</time></trkpt><trkpt lat="44.8457574" lon="10.4503359"><ele>36.6</ele><time>2026-05-04T14:07:30.39Z</time></trkpt><trkpt lat="44.8457266" lon="10.4504855"><ele>37.0</ele><time>2026-05-04T14:07:32.391Z</time></trkpt><trkpt lat="44.8457162" lon="10.4505742"><ele>37.0</ele><time>2026-05-04T14:07:33.391Z</time></trkpt><trkpt lat="44.8456822" lon="10.450729"><ele>37.0</ele><time>2026-05-04T14:07:35.39Z</time></trkpt><trkpt lat="44.8456425" lon="10.4508798"><ele>37.0</ele><time>2026-05-04T14:07:37.391Z</time></trkpt><trkpt lat="44.8456145" lon="10.4510459"><ele>37.0</ele><time>2026-05-04T14:07:39.391Z</time></trkpt><trkpt lat="44.8455905" lon="10.4511998"><ele>36.75</ele><time>2026-05-04T14:07:41.39Z</time></trkpt><trkpt lat="44.8455644" lon="10.4513591"><ele>36.5</ele><time>2026-05-04T14:07:43.391Z</time></trkpt><trkpt lat="44.8455103" lon="10.4514999"><ele>36.25</ele><time>2026-05-04T14:07:45.39Z</time></trkpt><trkpt lat="44.8454487" lon="10.4516205"><ele>36.0</ele><time>2026-05-04T14:07:47.391Z</time></trkpt><trkpt lat="44.8453683" lon="10.4517416"><ele>36.0</ele><time>2026-05-04T14:07:49.391Z</time></trkpt><trkpt lat="44.8452729" lon="10.4518293"><ele>36.0</ele><time>2026-05-04T14:07:51.39Z</time></trkpt><trkpt lat="44.845166" lon="10.451893"><ele>36.0</ele><time>2026-05-04T14:07:53.39Z</time></trkpt><trkpt lat="44.8450514" lon="10.4519422"><ele>36.0</ele><time>2026-05-04T14:07:55.391Z</time></trkpt><trkpt lat="44.8449408" lon="10.4519743"><ele>35.8</ele><time>2026-05-04T14:07:57.391Z</time></trkpt><trkpt lat="44.8448342" lon="10.4520066"><ele>35.6</ele><time>2026-05-04T14:07:59.391Z</time></trkpt><trkpt lat="44.8447258" lon="10.4520481"><ele>35.4</ele><time>2026-05-04T14:08:01.39Z</time></trkpt><trkpt lat="44.8446196" lon="10.4520701"><ele>35.2</ele><time>2026-05-04T14:08:03.391Z</time></trkpt><trkpt lat="44.8445128" lon="10.452136"><ele>35.0</ele><time>2026-05-04T14:08:05.391Z</time></trkpt><trkpt lat="44.8444197" lon="10.4521951"><ele>35.0</ele><time>2026-05-04T14:08:07.391Z</time></trkpt><trkpt lat="44.8443313" lon="10.452248"><ele>35.0</ele><time>2026-05-04T14:08:09.391Z</time></trkpt><trkpt lat="44.8442357" lon="10.4522933"><ele>35.0</ele><time>2026-05-04T14:08:11.391Z</time></trkpt><trkpt lat="44.8441402" lon="10.4523462"><ele>35.0</ele><time>2026-05-04T14:08:13.391Z</time></trkpt><trkpt lat="44.8440401" lon="10.452368"><ele>35.0</ele><time>2026-05-04T14:08:15.39Z</time></trkpt><trkpt lat="44.8439568" lon="10.4523928"><ele>35.166666666666664</ele><time>2026-05-04T14:08:17.39Z</time></trkpt><trkpt lat="44.8438769" lon="10.4524405"><ele>35.33333333333333</ele><time>2026-05-04T14:08:20.391Z</time></trkpt><trkpt lat="44.8438224" lon="10.4525187"><ele>35.5</ele><time>2026-05-04T14:08:24.39Z</time></trkpt><trkpt lat="44.8438279" lon="10.4526506"><ele>35.666666666666664</ele><time>2026-05-04T14:08:27.391Z</time></trkpt><trkpt lat="44.8438387" lon="10.4527692"><ele>35.833333333333336</ele><time>2026-05-04T14:08:29.39Z</time></trkpt><trkpt lat="44.8438441" lon="10.4528936"><ele>36.0</ele><time>2026-05-04T14:08:31.391Z</time></trkpt><trkpt lat="44.8438539" lon="10.4530195"><ele>35.5</ele><time>2026-05-04T14:08:33.391Z</time></trkpt><trkpt lat="44.8438756" lon="10.4531422"><ele>35.0</ele><time>2026-05-04T14:08:35.391Z</time></trkpt><trkpt lat="44.8438979" lon="10.4532595"><ele>34.5</ele><time>2026-05-04T14:08:37.39Z</time></trkpt><trkpt lat="44.8439082" lon="10.4533615"><ele>34.0</ele><time>2026-05-04T14:08:39.39Z</time></trkpt><trkpt lat="44.8439203" lon="10.4534906"><ele>33.5</ele><time>2026-05-04T14:08:41.39Z</time></trkpt><trkpt lat="44.8439323" lon="10.4536165"><ele>33.0</ele><time>2026-05-04T14:08:43.39Z</time></trkpt><trkpt lat="44.8439504" lon="10.4537534"><ele>32.8</ele><time>2026-05-04T14:08:45.39Z</time></trkpt><trkpt lat="44.8439553" lon="10.4538991"><ele>32.599999999999994</ele><time>2026-05-04T14:08:47.391Z</time></trkpt><trkpt lat="44.8439713" lon="10.4540373"><ele>32.400000000000006</ele><time>2026-05-04T14:08:49.391Z</time></trkpt><trkpt lat="44.843988" lon="10.4541721"><ele>32.2</ele><time>2026-05-04T14:08:51.39Z</time></trkpt><trkpt lat="44.8440018" lon="10.454295"><ele>32.0</ele><time>2026-05-04T14:08:53.391Z</time></trkpt><trkpt lat="44.8440178" lon="10.4543894"><ele>32.0</ele><time>2026-05-04T14:08:55.39Z</time></trkpt><trkpt lat="44.844072" lon="10.4544656"><ele>31.999999999999996</ele><time>2026-05-04T14:08:58.39Z</time></trkpt><trkpt lat="44.8441447" lon="10.4544467"><ele>32.0</ele><time>2026-05-04T14:09:01.391Z</time></trkpt><trkpt lat="44.8442094" lon="10.4544208"><ele>32.0</ele><time>2026-05-04T14:09:03.39Z</time></trkpt><trkpt lat="44.844277" lon="10.4544123"><ele>31.999999999999996</ele><time>2026-05-04T14:09:05.391Z</time></trkpt><trkpt lat="44.8443449" lon="10.4544076"><ele>32.0</ele><time>2026-05-04T14:09:07.39Z</time></trkpt><trkpt lat="44.8444244" lon="10.4544175"><ele>32.0</ele><time>2026-05-04T14:09:09.39Z</time></trkpt><trkpt lat="44.8445068" lon="10.4544556"><ele>32.4</ele><time>2026-05-04T14:09:11.391Z</time></trkpt><trkpt lat="44.8445978" lon="10.4545053"><ele>32.800000000000004</ele><time>2026-05-04T14:09:13.391Z</time></trkpt><trkpt lat="44.8446905" lon="10.4545593"><ele>33.2</ele><time>2026-05-04T14:09:15.391Z</time></trkpt><trkpt lat="44.8447803" lon="10.4546313"><ele>33.6</ele><time>2026-05-04T14:09:17.391Z</time></trkpt><trkpt lat="44.8448764" lon="10.4546978"><ele>34.0</ele><time>2026-05-04T14:09:19.39Z</time></trkpt><trkpt lat="44.8449683" lon="10.4547708"><ele>34.0</ele><time>2026-05-04T14:09:21.391Z</time></trkpt><trkpt lat="44.8450699" lon="10.454794"><ele>34.0</ele><time>2026-05-04T14:09:23.39Z</time></trkpt><trkpt lat="44.8451702" lon="10.4547588"><ele>34.0</ele><time>2026-05-04T14:09:25.39Z</time></trkpt><trkpt lat="44.8452737" lon="10.4547195"><ele>34.0</ele><time>2026-05-04T14:09:27.391Z</time></trkpt><trkpt lat="44.8453798" lon="10.454672"><ele>34.0</ele><time>2026-05-04T14:09:29.391Z</time></trkpt><trkpt lat="44.8454874" lon="10.4546484"><ele>34.2</ele><time>2026-05-04T14:09:31.39Z</time></trkpt><trkpt lat="44.8455901" lon="10.4546251"><ele>34.4</ele><time>2026-05-04T14:09:33.391Z</time></trkpt><trkpt lat="44.8456877" lon="10.4546448"><ele>34.6</ele><time>2026-05-04T14:09:35.39Z</time></trkpt><trkpt lat="44.8457814" lon="10.4546948"><ele>34.8</ele><time>2026-05-04T14:09:37.391Z</time></trkpt><trkpt lat="44.8458818" lon="10.4547496"><ele>35.0</ele><time>2026-05-04T14:09:39.39Z</time></trkpt><trkpt lat="44.8459863" lon="10.4548258"><ele>34.5</ele><time>2026-05-04T14:09:41.39Z</time></trkpt><trkpt lat="44.8460979" lon="10.4548781"><ele>34.0</ele><time>2026-05-04T14:09:43.39Z</time></trkpt><trkpt lat="44.8462021" lon="10.4549505"><ele>33.5</ele><time>2026-05-04T14:09:45.39Z</time></trkpt><trkpt lat="44.8463017" lon="10.4550031"><ele>33.0</ele><time>2026-05-04T14:09:47.391Z</time></trkpt><trkpt lat="44.8464059" lon="10.4550708"><ele>33.0</ele><time>2026-05-04T14:09:49.391Z</time></trkpt><trkpt lat="44.8465177" lon="10.4551371"><ele>33.0</ele><time>2026-05-04T14:09:51.39Z</time></trkpt><trkpt lat="44.8466326" lon="10.4551991"><ele>33.0</ele><time>2026-05-04T14:09:53.39Z</time></trkpt><trkpt lat="44.846695" lon="10.4552248"><ele>33.0</ele><time>2026-05-04T14:09:54.39Z</time></trkpt><trkpt lat="44.8468038" lon="10.4552962"><ele>33.0</ele><time>2026-05-04T14:09:56.39Z</time></trkpt><trkpt lat="44.8469145" lon="10.4553669"><ele>33.0</ele><time>2026-05-04T14:09:58.39Z</time></trkpt><trkpt lat="44.8470188" lon="10.455433"><ele>33.0</ele><time>2026-05-04T14:10:00.39Z</time></trkpt><trkpt lat="44.8471229" lon="10.455492"><ele>33.0</ele><time>2026-05-04T14:10:02.39Z</time></trkpt><trkpt lat="44.8472271" lon="10.4555832"><ele>33.0</ele><time>2026-05-04T14:10:04.39Z</time></trkpt><trkpt lat="44.8473213" lon="10.4556877"><ele>33.166666666666664</ele><time>2026-05-04T14:10:06.39Z</time></trkpt><trkpt lat="44.84737" lon="10.4557563"><ele>33.333333333333336</ele><time>2026-05-04T14:10:07.391Z</time></trkpt><trkpt lat="44.847409" lon="10.4558279"><ele>33.5</ele><time>2026-05-04T14:10:08.39Z</time></trkpt><trkpt lat="44.8474819" lon="10.4559703"><ele>33.66666666666667</ele><time>2026-05-04T14:10:10.39Z</time></trkpt><trkpt lat="44.8475217" lon="10.4560408"><ele>33.833333333333336</ele><time>2026-05-04T14:10:11.39Z</time></trkpt><trkpt lat="44.8475517" lon="10.4561195"><ele>34.0</ele><time>2026-05-04T14:10:12.391Z</time></trkpt><trkpt lat="44.8475967" lon="10.4561957"><ele>33.5</ele><time>2026-05-04T14:10:13.391Z</time></trkpt><trkpt lat="44.8476671" lon="10.4563361"><ele>33.0</ele><time>2026-05-04T14:10:15.39Z</time></trkpt><trkpt lat="44.8476993" lon="10.4564181"><ele>32.5</ele><time>2026-05-04T14:10:16.39Z</time></trkpt><trkpt lat="44.8477366" lon="10.4565022"><ele>32.0</ele><time>2026-05-04T14:10:17.391Z</time></trkpt><trkpt lat="44.8477755" lon="10.4565721"><ele>31.500000000000004</ele><time>2026-05-04T14:10:18.391Z</time></trkpt><trkpt lat="44.8478178" lon="10.4566482"><ele>31.0</ele><time>2026-05-04T14:10:19.39Z</time></trkpt><trkpt lat="44.8478632" lon="10.4567286"><ele>31.000000000000004</ele><time>2026-05-04T14:10:20.391Z</time></trkpt><trkpt lat="44.8478993" lon="10.4568115"><ele>31.0</ele><time>2026-05-04T14:10:21.39Z</time></trkpt><trkpt lat="44.8479727" lon="10.4569503"><ele>31.0</ele><time>2026-05-04T14:10:23.391Z</time></trkpt><trkpt lat="44.8480092" lon="10.4570281"><ele>31.0</ele><time>2026-05-04T14:10:24.39Z</time></trkpt><trkpt lat="44.8480504" lon="10.4571012"><ele>31.000000000000004</ele><time>2026-05-04T14:10:25.391Z</time></trkpt><trkpt lat="44.8480765" lon="10.4571864"><ele>31.0</ele><time>2026-05-04T14:10:26.391Z</time></trkpt><trkpt lat="44.8481195" lon="10.457266"><ele>31.000000000000004</ele><time>2026-05-04T14:10:27.391Z</time></trkpt><trkpt lat="44.8481453" lon="10.4573561"><ele>31.0</ele><time>2026-05-04T14:10:28.39Z</time></trkpt><trkpt lat="44.848184" lon="10.4574352"><ele>31.0</ele><time>2026-05-04T14:10:29.391Z</time></trkpt><trkpt lat="44.8481749" lon="10.4576103"><ele>31.0</ele><time>2026-05-04T14:10:31.39Z</time></trkpt><trkpt lat="44.8481412" lon="10.4576927"><ele>31.000000000000004</ele><time>2026-05-04T14:10:32.391Z</time></trkpt><trkpt lat="44.8481135" lon="10.4577744"><ele>31.0</ele><time>2026-05-04T14:10:33.391Z</time></trkpt><trkpt lat="44.8480783" lon="10.4578599"><ele>31.0</ele><time>2026-05-04T14:10:34.391Z</time></trkpt><trkpt lat="44.8480498" lon="10.4579604"><ele>31.000000000000004</ele><time>2026-05-04T14:10:35.391Z</time></trkpt><trkpt lat="44.8480086" lon="10.4580383"><ele>31.0</ele><time>2026-05-04T14:10:36.39Z</time></trkpt><trkpt lat="44.8479962" lon="10.4581345"><ele>31.0</ele><time>2026-05-04T14:10:37.39Z</time></trkpt><trkpt lat="44.8479878" lon="10.4582246"><ele>31.000000000000004</ele><time>2026-05-04T14:10:38.391Z</time></trkpt><trkpt lat="44.8479804" lon="10.4583221"><ele>31.0</ele><time>2026-05-04T14:10:39.39Z</time></trkpt><trkpt lat="44.8479973" lon="10.4584176"><ele>31.0</ele><time>2026-05-04T14:10:40.39Z</time></trkpt><trkpt lat="44.8480249" lon="10.4585098"><ele>31.0</ele><time>2026-05-04T14:10:41.391Z</time></trkpt><trkpt lat="44.8480525" lon="10.4585986"><ele>31.000000000000004</ele><time>2026-05-04T14:10:42.39Z</time></trkpt><trkpt lat="44.8480753" lon="10.4586971"><ele>31.0</ele><time>2026-05-04T14:10:43.39Z</time></trkpt><trkpt lat="44.8481092" lon="10.4587898"><ele>31.0</ele><time>2026-05-04T14:10:44.391Z</time></trkpt><trkpt lat="44.8481296" lon="10.4588842"><ele>31.000000000000004</ele><time>2026-05-04T14:10:45.391Z</time></trkpt><trkpt lat="44.8481591" lon="10.4589805"><ele>31.0</ele><time>2026-05-04T14:10:46.39Z</time></trkpt><trkpt lat="44.8481799" lon="10.459069"><ele>31.0</ele><time>2026-05-04T14:10:47.391Z</time></trkpt><trkpt lat="44.8482084" lon="10.4591653"><ele>31.000000000000004</ele><time>2026-05-04T14:10:48.39Z</time></trkpt><trkpt lat="44.8482333" lon="10.4592582"><ele>31.0</ele><time>2026-05-04T14:10:49.391Z</time></trkpt><trkpt lat="44.8482447" lon="10.4593597"><ele>31.0</ele><time>2026-05-04T14:10:50.391Z</time></trkpt><trkpt lat="44.8482802" lon="10.4594547"><ele>31.0</ele><time>2026-05-04T14:10:51.39Z</time></trkpt><trkpt lat="44.8483172" lon="10.4595336"><ele>31.000000000000004</ele><time>2026-05-04T14:10:52.391Z</time></trkpt><trkpt lat="44.8483648" lon="10.4595969"><ele>31.0</ele><time>2026-05-04T14:10:53.39Z</time></trkpt><trkpt lat="44.8484613" lon="10.4596829"><ele>31.000000000000004</ele><time>2026-05-04T14:10:55.39Z</time></trkpt><trkpt lat="44.8485555" lon="10.4597745"><ele>31.0</ele><time>2026-05-04T14:10:57.391Z</time></trkpt><trkpt lat="44.8486381" lon="10.4598455"><ele>31.0</ele><time>2026-05-04T14:10:59.391Z</time></trkpt><trkpt lat="44.8487133" lon="10.4599007"><ele>31.0</ele><time>2026-05-04T14:11:01.39Z</time></trkpt><trkpt lat="44.8487837" lon="10.4599687"><ele>31.000000000000004</ele><time>2026-05-04T14:11:03.391Z</time></trkpt><trkpt lat="44.8488394" lon="10.4600216"><ele>31.0</ele><time>2026-05-04T14:11:05.391Z</time></trkpt><trkpt lat="44.8489033" lon="10.4600353"><ele>31.0</ele><time>2026-05-04T14:12:18.391Z</time></trkpt><trkpt lat="44.848947" lon="10.4601369"><ele>31.0</ele><time>2026-05-04T14:12:31.39Z</time></trkpt><trkpt lat="44.849024" lon="10.4601797"><ele>31.0</ele><time>2026-05-04T14:12:33.39Z</time></trkpt><trkpt lat="44.8491095" lon="10.460242"><ele>31.0</ele><time>2026-05-04T14:12:35.39Z</time></trkpt><trkpt lat="44.8491979" lon="10.4603271"><ele>31.0</ele><time>2026-05-04T14:12:37.39Z</time></trkpt><trkpt lat="44.8492989" lon="10.4604237"><ele>31.25</ele><time>2026-05-04T14:12:39.391Z</time></trkpt><trkpt lat="44.8494003" lon="10.460512"><ele>31.5</ele><time>2026-05-04T14:12:41.391Z</time></trkpt><trkpt lat="44.8495085" lon="10.4605971"><ele>31.75</ele><time>2026-05-04T14:12:43.391Z</time></trkpt><trkpt lat="44.8496242" lon="10.4606828"><ele>32.0</ele><time>2026-05-04T14:12:45.391Z</time></trkpt><trkpt lat="44.8497347" lon="10.4607705"><ele>31.999999999999996</ele><time>2026-05-04T14:12:47.391Z</time></trkpt><trkpt lat="44.8497917" lon="10.4608145"><ele>32.0</ele><time>2026-05-04T14:12:48.39Z</time></trkpt><trkpt lat="44.8498487" lon="10.4608566"><ele>32.0</ele><time>2026-05-04T14:12:49.391Z</time></trkpt><trkpt lat="44.8499126" lon="10.4608892"><ele>32.0</ele><time>2026-05-04T14:12:50.39Z</time></trkpt><trkpt lat="44.8499748" lon="10.4609047"><ele>31.999999999999996</ele><time>2026-05-04T14:12:51.39Z</time></trkpt><trkpt lat="44.8501078" lon="10.4609258"><ele>32.0</ele><time>2026-05-04T14:12:53.39Z</time></trkpt><trkpt lat="44.8501807" lon="10.4609261"><ele>32.0</ele><time>2026-05-04T14:12:54.391Z</time></trkpt><trkpt lat="44.8502484" lon="10.4609332"><ele>32.0</ele><time>2026-05-04T14:12:55.391Z</time></trkpt><trkpt lat="44.8503623" lon="10.4608862"><ele>32.0</ele><time>2026-05-04T14:12:57.391Z</time></trkpt><trkpt lat="44.8504822" lon="10.4608481"><ele>32.0</ele><time>2026-05-04T14:12:59.39Z</time></trkpt><trkpt lat="44.8505576" lon="10.4608115"><ele>32.0</ele><time>2026-05-04T14:13:00.39Z</time></trkpt><trkpt lat="44.8506213" lon="10.4607926"><ele>32.0</ele><time>2026-05-04T14:13:01.391Z</time></trkpt><trkpt lat="44.8507402" lon="10.4607671"><ele>32.0</ele><time>2026-05-04T14:13:03.39Z</time></trkpt><trkpt lat="44.8508062" lon="10.4607726"><ele>32.0</ele><time>2026-05-04T14:13:04.391Z</time></trkpt><trkpt lat="44.8509343" lon="10.4607738"><ele>32.0</ele><time>2026-05-04T14:13:06.39Z</time></trkpt><trkpt lat="44.8510493" lon="10.4608298"><ele>32.0</ele><time>2026-05-04T14:13:08.39Z</time></trkpt><trkpt lat="44.8511326" lon="10.4608898"><ele>32.166666666666664</ele><time>2026-05-04T14:13:10.39Z</time></trkpt><trkpt lat="44.8511894" lon="10.4609403"><ele>32.33333333333333</ele><time>2026-05-04T14:13:20.391Z</time></trkpt><trkpt lat="44.8512631" lon="10.4610151"><ele>32.5</ele><time>2026-05-04T14:13:23.391Z</time></trkpt><trkpt lat="44.8513225" lon="10.4611017"><ele>32.666666666666664</ele><time>2026-05-04T14:13:25.39Z</time></trkpt><trkpt lat="44.8513808" lon="10.4612168"><ele>32.833333333333336</ele><time>2026-05-04T14:13:27.39Z</time></trkpt><trkpt lat="44.8514297" lon="10.4613384"><ele>33.0</ele><time>2026-05-04T14:13:29.391Z</time></trkpt><trkpt lat="44.8514996" lon="10.4614643"><ele>33.0</ele><time>2026-05-04T14:13:31.391Z</time></trkpt><trkpt lat="44.8515566" lon="10.4616068"><ele>33.0</ele><time>2026-05-04T14:13:33.391Z</time></trkpt><trkpt lat="44.8516235" lon="10.4617332"><ele>33.0</ele><time>2026-05-04T14:13:35.391Z</time></trkpt><trkpt lat="44.8516821" lon="10.4618687"><ele>33.0</ele><time>2026-05-04T14:13:37.39Z</time></trkpt><trkpt lat="44.8517462" lon="10.4619968"><ele>32.833333333333336</ele><time>2026-05-04T14:13:39.391Z</time></trkpt><trkpt lat="44.8518013" lon="10.4621111"><ele>32.666666666666664</ele><time>2026-05-04T14:13:41.39Z</time></trkpt><trkpt lat="44.8518558" lon="10.462201"><ele>32.5</ele><time>2026-05-04T14:13:43.391Z</time></trkpt><trkpt lat="44.8519056" lon="10.4622754"><ele>32.33333333333333</ele><time>2026-05-04T14:13:45.39Z</time></trkpt><trkpt lat="44.8519517" lon="10.4623615"><ele>32.166666666666664</ele><time>2026-05-04T14:13:47.391Z</time></trkpt><trkpt lat="44.8519795" lon="10.4624883"><ele>32.0</ele><time>2026-05-04T14:13:49.391Z</time></trkpt><trkpt lat="44.8519986" lon="10.4626426"><ele>32.0</ele><time>2026-05-04T14:13:51.39Z</time></trkpt><trkpt lat="44.8520264" lon="10.462804"><ele>32.0</ele><time>2026-05-04T14:13:53.39Z</time></trkpt><trkpt lat="44.8520482" lon="10.4629619"><ele>32.0</ele><time>2026-05-04T14:13:55.391Z</time></trkpt><trkpt lat="44.8520484" lon="10.4630543"><ele>32.0</ele><time>2026-05-04T14:13:56.391Z</time></trkpt><trkpt lat="44.8520543" lon="10.4632282"><ele>32.0</ele><time>2026-05-04T14:13:58.39Z</time></trkpt><trkpt lat="44.8520829" lon="10.4633936"><ele>31.999999999999996</ele><time>2026-05-04T14:14:00.391Z</time></trkpt><trkpt lat="44.8521049" lon="10.4635623"><ele>32.0</ele><time>2026-05-04T14:14:02.391Z</time></trkpt><trkpt lat="44.8521223" lon="10.4636536"><ele>32.0</ele><time>2026-05-04T14:14:03.391Z</time></trkpt><trkpt lat="44.8521406" lon="10.4637425"><ele>32.0</ele><time>2026-05-04T14:14:04.391Z</time></trkpt><trkpt lat="44.8521677" lon="10.4638281"><ele>31.999999999999996</ele><time>2026-05-04T14:14:05.39Z</time></trkpt><trkpt lat="44.8522037" lon="10.4639159"><ele>32.0</ele><time>2026-05-04T14:14:06.39Z</time></trkpt><trkpt lat="44.8522434" lon="10.4639977"><ele>31.857142857142854</ele><time>2026-05-04T14:14:07.391Z</time></trkpt><trkpt lat="44.852278" lon="10.4640827"><ele>31.71428571428571</ele><time>2026-05-04T14:14:08.39Z</time></trkpt><trkpt lat="44.8523183" lon="10.4641638"><ele>31.57142857142857</ele><time>2026-05-04T14:14:09.391Z</time></trkpt><trkpt lat="44.8523636" lon="10.4642469"><ele>31.42857142857143</ele><time>2026-05-04T14:14:10.391Z</time></trkpt><trkpt lat="44.852399" lon="10.4643243"><ele>31.28571428571429</ele><time>2026-05-04T14:14:11.39Z</time></trkpt><trkpt lat="44.8524481" lon="10.4643969"><ele>31.142857142857146</ele><time>2026-05-04T14:14:12.391Z</time></trkpt><trkpt lat="44.8524933" lon="10.4644723"><ele>31.0</ele><time>2026-05-04T14:14:13.39Z</time></trkpt><trkpt lat="44.8525435" lon="10.4645433"><ele>31.000000000000004</ele><time>2026-05-04T14:14:14.391Z</time></trkpt><trkpt lat="44.8525961" lon="10.4646066"><ele>31.0</ele><time>2026-05-04T14:14:15.39Z</time></trkpt><trkpt lat="44.8526464" lon="10.4646761"><ele>31.0</ele><time>2026-05-04T14:14:16.391Z</time></trkpt><trkpt lat="44.8526939" lon="10.4647445"><ele>31.0</ele><time>2026-05-04T14:14:17.391Z</time></trkpt><trkpt lat="44.8527943" lon="10.4648599"><ele>31.000000000000004</ele><time>2026-05-04T14:14:19.391Z</time></trkpt><trkpt lat="44.8528528" lon="10.4649192"><ele>31.0</ele><time>2026-05-04T14:14:20.391Z</time></trkpt><trkpt lat="44.8528979" lon="10.4649954"><ele>31.0</ele><time>2026-05-04T14:14:21.39Z</time></trkpt><trkpt lat="44.8529402" lon="10.4650624"><ele>31.0</ele><time>2026-05-04T14:14:22.391Z</time></trkpt><trkpt lat="44.8530013" lon="10.4652068"><ele>31.0</ele><time>2026-05-04T14:14:24.39Z</time></trkpt><trkpt lat="44.8530789" lon="10.4653013"><ele>31.0</ele><time>2026-05-04T14:14:26.39Z</time></trkpt><trkpt lat="44.8531753" lon="10.4653027"><ele>31.0</ele><time>2026-05-04T14:14:28.39Z</time></trkpt><trkpt lat="44.8532904" lon="10.4652762"><ele>31.0</ele><time>2026-05-04T14:14:30.391Z</time></trkpt><trkpt lat="44.8533569" lon="10.4652739"><ele>31.000000000000004</ele><time>2026-05-04T14:14:31.39Z</time></trkpt><trkpt lat="44.8534148" lon="10.465309"><ele>31.0</ele><time>2026-05-04T14:14:32.39Z</time></trkpt><trkpt lat="44.8534841" lon="10.4653477"><ele>31.0</ele><time>2026-05-04T14:14:33.39Z</time></trkpt><trkpt lat="44.8535445" lon="10.4653889"><ele>31.000000000000004</ele><time>2026-05-04T14:14:34.39Z</time></trkpt><trkpt lat="44.8535999" lon="10.4654373"><ele>31.0</ele><time>2026-05-04T14:14:35.391Z</time></trkpt><trkpt lat="44.8536495" lon="10.4654932"><ele>31.0</ele><time>2026-05-04T14:14:36.39Z</time></trkpt><trkpt lat="44.8537136" lon="10.4655419"><ele>31.0</ele><time>2026-05-04T14:14:37.391Z</time></trkpt><trkpt lat="44.8537771" lon="10.4655836"><ele>31.000000000000004</ele><time>2026-05-04T14:14:38.391Z</time></trkpt><trkpt lat="44.8538426" lon="10.465632"><ele>31.0</ele><time>2026-05-04T14:14:39.39Z</time></trkpt><trkpt lat="44.8539034" lon="10.4656743"><ele>31.0</ele><time>2026-05-04T14:14:40.39Z</time></trkpt><trkpt lat="44.8539691" lon="10.4657153"><ele>31.000000000000004</ele><time>2026-05-04T14:14:41.391Z</time></trkpt><trkpt lat="44.8540316" lon="10.4657554"><ele>31.0</ele><time>2026-05-04T14:14:42.391Z</time></trkpt><trkpt lat="44.8540948" lon="10.4657928"><ele>31.0</ele><time>2026-05-04T14:14:43.391Z</time></trkpt><trkpt lat="44.8541593" lon="10.4658348"><ele>31.000000000000004</ele><time>2026-05-04T14:14:44.391Z</time></trkpt><trkpt lat="44.8542334" lon="10.465867"><ele>31.0</ele><time>2026-05-04T14:14:45.39Z</time></trkpt><trkpt lat="44.8542962" lon="10.465902"><ele>31.0</ele><time>2026-05-04T14:14:46.39Z</time></trkpt><trkpt lat="44.854412" lon="10.4659784"><ele>31.0</ele><time>2026-05-04T14:14:48.39Z</time></trkpt><trkpt lat="44.8544676" lon="10.4660226"><ele>31.000000000000004</ele><time>2026-05-04T14:14:49.391Z</time></trkpt><trkpt lat="44.8545402" lon="10.4660347"><ele>31.0</ele><time>2026-05-04T14:14:50.39Z</time></trkpt><trkpt lat="44.8546049" lon="10.4660673"><ele>31.166666666666668</ele><time>2026-05-04T14:14:51.39Z</time></trkpt><trkpt lat="44.8546714" lon="10.4660931"><ele>31.333333333333336</ele><time>2026-05-04T14:14:52.39Z</time></trkpt><trkpt lat="44.8547423" lon="10.4661222"><ele>31.5</ele><time>2026-05-04T14:14:53.39Z</time></trkpt><trkpt lat="44.8548085" lon="10.4661377"><ele>31.666666666666664</ele><time>2026-05-04T14:14:54.39Z</time></trkpt><trkpt lat="44.8549351" lon="10.4661466"><ele>31.833333333333332</ele><time>2026-05-04T14:14:56.39Z</time></trkpt><trkpt lat="44.8550057" lon="10.4661373"><ele>32.0</ele><time>2026-05-04T14:14:57.39Z</time></trkpt><trkpt lat="44.8550732" lon="10.4661313"><ele>31.999999999999996</ele><time>2026-05-04T14:14:58.391Z</time></trkpt><trkpt lat="44.8551417" lon="10.466111"><ele>32.0</ele><time>2026-05-04T14:14:59.391Z</time></trkpt><trkpt lat="44.8552082" lon="10.4660821"><ele>32.0</ele><time>2026-05-04T14:15:00.391Z</time></trkpt><trkpt lat="44.8552693" lon="10.4660413"><ele>32.0</ele><time>2026-05-04T14:15:01.39Z</time></trkpt><trkpt lat="44.8553345" lon="10.4660002"><ele>31.999999999999996</ele><time>2026-05-04T14:15:02.39Z</time></trkpt><trkpt lat="44.8554015" lon="10.4659585"><ele>32.0</ele><time>2026-05-04T14:15:03.39Z</time></trkpt><trkpt lat="44.8555092" lon="10.4658678"><ele>32.0</ele><time>2026-05-04T14:15:05.39Z</time></trkpt><trkpt lat="44.8555638" lon="10.4658099"><ele>31.999999999999996</ele><time>2026-05-04T14:15:06.391Z</time></trkpt><trkpt lat="44.8556199" lon="10.4657589"><ele>32.0</ele><time>2026-05-04T14:15:07.391Z</time></trkpt><trkpt lat="44.8556785" lon="10.4656973"><ele>32.0</ele><time>2026-05-04T14:15:08.391Z</time></trkpt><trkpt lat="44.8557368" lon="10.4656341"><ele>31.999999999999996</ele><time>2026-05-04T14:15:09.391Z</time></trkpt><trkpt lat="44.8557946" lon="10.4655754"><ele>32.0</ele><time>2026-05-04T14:15:10.391Z</time></trkpt><trkpt lat="44.8558512" lon="10.4655169"><ele>32.0</ele><time>2026-05-04T14:15:11.391Z</time></trkpt><trkpt lat="44.8559181" lon="10.4654686"><ele>32.0</ele><time>2026-05-04T14:15:12.39Z</time></trkpt><trkpt lat="44.8559773" lon="10.4654068"><ele>31.999999999999996</ele><time>2026-05-04T14:15:13.391Z</time></trkpt><trkpt lat="44.8560295" lon="10.465349"><ele>32.0</ele><time>2026-05-04T14:15:14.391Z</time></trkpt><trkpt lat="44.8560875" lon="10.4652826"><ele>32.0</ele><time>2026-05-04T14:15:15.391Z</time></trkpt><trkpt lat="44.8561427" lon="10.4652225"><ele>31.999999999999996</ele><time>2026-05-04T14:15:16.391Z</time></trkpt><trkpt lat="44.8562036" lon="10.4651715"><ele>32.0</ele><time>2026-05-04T14:15:17.39Z</time></trkpt><trkpt lat="44.8562662" lon="10.4651189"><ele>32.0</ele><time>2026-05-04T14:15:18.39Z</time></trkpt><trkpt lat="44.8563247" lon="10.4650613"><ele>32.0</ele><time>2026-05-04T14:15:19.391Z</time></trkpt><trkpt lat="44.8563809" lon="10.4650081"><ele>31.999999999999996</ele><time>2026-05-04T14:15:20.391Z</time></trkpt><trkpt lat="44.8564315" lon="10.4649449"><ele>32.0</ele><time>2026-05-04T14:15:21.391Z</time></trkpt><trkpt lat="44.8564793" lon="10.4648632"><ele>32.0</ele><time>2026-05-04T14:15:22.39Z</time></trkpt><trkpt lat="44.8565229" lon="10.4647882"><ele>31.999999999999996</ele><time>2026-05-04T14:15:23.39Z</time></trkpt><trkpt lat="44.8565642" lon="10.4647091"><ele>32.0</ele><time>2026-05-04T14:15:24.39Z</time></trkpt><trkpt lat="44.8566146" lon="10.4646446"><ele>32.0</ele><time>2026-05-04T14:15:25.39Z</time></trkpt><trkpt lat="44.8566641" lon="10.4645692"><ele>31.833333333333332</ele><time>2026-05-04T14:15:26.39Z</time></trkpt><trkpt lat="44.8567168" lon="10.4644898"><ele>31.666666666666664</ele><time>2026-05-04T14:15:27.39Z</time></trkpt><trkpt lat="44.8567701" lon="10.4644136"><ele>31.5</ele><time>2026-05-04T14:15:28.391Z</time></trkpt><trkpt lat="44.8568223" lon="10.4643439"><ele>31.333333333333336</ele><time>2026-05-04T14:15:29.391Z</time></trkpt><trkpt lat="44.856864" lon="10.4642635"><ele>31.166666666666668</ele><time>2026-05-04T14:15:30.39Z</time></trkpt><trkpt lat="44.8569626" lon="10.464141"><ele>31.0</ele><time>2026-05-04T14:15:32.391Z</time></trkpt><trkpt lat="44.8570104" lon="10.4640708"><ele>31.000000000000004</ele><time>2026-05-04T14:15:33.39Z</time></trkpt><trkpt lat="44.8570501" lon="10.4639869"><ele>31.0</ele><time>2026-05-04T14:15:34.391Z</time></trkpt><trkpt lat="44.8571066" lon="10.4639333"><ele>31.0</ele><time>2026-05-04T14:15:35.39Z</time></trkpt><trkpt lat="44.8571681" lon="10.4639029"><ele>31.0</ele><time>2026-05-04T14:15:36.391Z</time></trkpt><trkpt lat="44.8572831" lon="10.4639017"><ele>31.000000000000004</ele><time>2026-05-04T14:15:38.391Z</time></trkpt><trkpt lat="44.8573521" lon="10.4639285"><ele>31.0</ele><time>2026-05-04T14:15:39.391Z</time></trkpt><trkpt lat="44.8574552" lon="10.4640218"><ele>31.000000000000004</ele><time>2026-05-04T14:15:41.391Z</time></trkpt><trkpt lat="44.8575067" lon="10.4641661"><ele>31.0</ele><time>2026-05-04T14:15:43.391Z</time></trkpt><trkpt lat="44.8575229" lon="10.4642542"><ele>31.0</ele><time>2026-05-04T14:15:44.391Z</time></trkpt><trkpt lat="44.8575474" lon="10.4643433"><ele>31.0</ele><time>2026-05-04T14:15:45.39Z</time></trkpt><trkpt lat="44.857574" lon="10.4644295"><ele>31.000000000000004</ele><time>2026-05-04T14:15:46.391Z</time></trkpt><trkpt lat="44.8575877" lon="10.464532"><ele>31.0</ele><time>2026-05-04T14:15:47.39Z</time></trkpt><trkpt lat="44.857608" lon="10.4646343"><ele>30.857142857142858</ele><time>2026-05-04T14:15:48.39Z</time></trkpt><trkpt lat="44.8576325" lon="10.4647324"><ele>30.714285714285715</ele><time>2026-05-04T14:15:49.391Z</time></trkpt><trkpt lat="44.8576629" lon="10.4648224"><ele>30.571428571428573</ele><time>2026-05-04T14:15:50.391Z</time></trkpt><trkpt lat="44.8576923" lon="10.4649196"><ele>30.42857142857143</ele><time>2026-05-04T14:15:51.391Z</time></trkpt><trkpt lat="44.8577165" lon="10.4650155"><ele>30.285714285714285</ele><time>2026-05-04T14:15:52.39Z</time></trkpt><trkpt lat="44.8577283" lon="10.4651125"><ele>30.142857142857146</ele><time>2026-05-04T14:15:53.39Z</time></trkpt><trkpt lat="44.8577576" lon="10.465206"><ele>30.0</ele><time>2026-05-04T14:15:54.39Z</time></trkpt><trkpt lat="44.857776" lon="10.4653001"><ele>30.0</ele><time>2026-05-04T14:15:55.391Z</time></trkpt><trkpt lat="44.8577986" lon="10.4653909"><ele>30.0</ele><time>2026-05-04T14:15:56.39Z</time></trkpt><trkpt lat="44.8578225" lon="10.4654853"><ele>30.0</ele><time>2026-05-04T14:15:57.39Z</time></trkpt><trkpt lat="44.8578498" lon="10.4655745"><ele>30.0</ele><time>2026-05-04T14:15:58.39Z</time></trkpt><trkpt lat="44.8578731" lon="10.4656723"><ele>30.0</ele><time>2026-05-04T14:15:59.391Z</time></trkpt><trkpt lat="44.857899" lon="10.4657643"><ele>30.0</ele><time>2026-05-04T14:16:00.39Z</time></trkpt><trkpt lat="44.857924" lon="10.4658644"><ele>30.0</ele><time>2026-05-04T14:16:01.391Z</time></trkpt><trkpt lat="44.8579448" lon="10.4659603"><ele>30.0</ele><time>2026-05-04T14:16:02.39Z</time></trkpt><trkpt lat="44.8579677" lon="10.4660574"><ele>30.0</ele><time>2026-05-04T14:16:03.391Z</time></trkpt><trkpt lat="44.8579905" lon="10.4661514"><ele>30.0</ele><time>2026-05-04T14:16:04.391Z</time></trkpt><trkpt lat="44.8580148" lon="10.4662435"><ele>30.0</ele><time>2026-05-04T14:16:05.39Z</time></trkpt><trkpt lat="44.8580352" lon="10.4663387"><ele>30.0</ele><time>2026-05-04T14:16:06.39Z</time></trkpt><trkpt lat="44.8580582" lon="10.4664309"><ele>30.0</ele><time>2026-05-04T14:16:07.391Z</time></trkpt><trkpt lat="44.8580845" lon="10.4665213"><ele>30.0</ele><time>2026-05-04T14:16:08.39Z</time></trkpt><trkpt lat="44.8581017" lon="10.4666138"><ele>30.0</ele><time>2026-05-04T14:16:09.39Z</time></trkpt><trkpt lat="44.8581254" lon="10.4667027"><ele>30.0</ele><time>2026-05-04T14:16:10.39Z</time></trkpt><trkpt lat="44.8581428" lon="10.4667942"><ele>30.0</ele><time>2026-05-04T14:16:11.391Z</time></trkpt><trkpt lat="44.8581532" lon="10.4668899"><ele>30.0</ele><time>2026-05-04T14:16:12.391Z</time></trkpt><trkpt lat="44.8581558" lon="10.4669989"><ele>30.0</ele><time>2026-05-04T14:16:13.391Z</time></trkpt><trkpt lat="44.8581563" lon="10.4670956"><ele>30.0</ele><time>2026-05-04T14:16:14.391Z</time></trkpt><trkpt lat="44.8581653" lon="10.467193"><ele>30.0</ele><time>2026-05-04T14:16:15.39Z</time></trkpt><trkpt lat="44.8581674" lon="10.4672902"><ele>30.0</ele><time>2026-05-04T14:16:16.39Z</time></trkpt><trkpt lat="44.8581686" lon="10.4673938"><ele>30.0</ele><time>2026-05-04T14:16:17.391Z</time></trkpt><trkpt lat="44.8581708" lon="10.4674936"><ele>30.0</ele><time>2026-05-04T14:16:18.391Z</time></trkpt><trkpt lat="44.8581661" lon="10.4675878"><ele>30.0</ele><time>2026-05-04T14:16:19.391Z</time></trkpt><trkpt lat="44.8581635" lon="10.4676934"><ele>30.0</ele><time>2026-05-04T14:16:20.391Z</time></trkpt><trkpt lat="44.8581711" lon="10.4677909"><ele>30.0</ele><time>2026-05-04T14:16:21.391Z</time></trkpt><trkpt lat="44.8581661" lon="10.4679669"><ele>30.0</ele><time>2026-05-04T14:16:23.391Z</time></trkpt><trkpt lat="44.8581684" lon="10.4680613"><ele>30.0</ele><time>2026-05-04T14:16:24.391Z</time></trkpt><trkpt lat="44.8581623" lon="10.4681598"><ele>30.0</ele><time>2026-05-04T14:16:25.391Z</time></trkpt><trkpt lat="44.8581534" lon="10.4682581"><ele>30.0</ele><time>2026-05-04T14:16:26.391Z</time></trkpt><trkpt lat="44.8581442" lon="10.4683561"><ele>30.0</ele><time>2026-05-04T14:16:27.39Z</time></trkpt><trkpt lat="44.8581261" lon="10.4684449"><ele>30.0</ele><time>2026-05-04T14:16:28.39Z</time></trkpt><trkpt lat="44.8581111" lon="10.4685426"><ele>30.0</ele><time>2026-05-04T14:16:29.391Z</time></trkpt><trkpt lat="44.8580894" lon="10.4686348"><ele>30.25</ele><time>2026-05-04T14:16:30.39Z</time></trkpt><trkpt lat="44.8580466" lon="10.468798"><ele>30.5</ele><time>2026-05-04T14:16:32.391Z</time></trkpt><trkpt lat="44.8580043" lon="10.4689558"><ele>30.75</ele><time>2026-05-04T14:16:34.391Z</time></trkpt><trkpt lat="44.857955" lon="10.4691047"><ele>31.0</ele><time>2026-05-04T14:16:36.391Z</time></trkpt><trkpt lat="44.857906" lon="10.469256"><ele>31.0</ele><time>2026-05-04T14:16:38.39Z</time></trkpt><trkpt lat="44.8578729" lon="10.4694162"><ele>31.000000000000004</ele><time>2026-05-04T14:16:40.391Z</time></trkpt><trkpt lat="44.8578663" lon="10.4695053"><ele>31.0</ele><time>2026-05-04T14:16:41.391Z</time></trkpt><trkpt lat="44.8578605" lon="10.4695982"><ele>31.0</ele><time>2026-05-04T14:16:42.39Z</time></trkpt><trkpt lat="44.8578579" lon="10.4696922"><ele>31.000000000000004</ele><time>2026-05-04T14:16:43.391Z</time></trkpt><trkpt lat="44.8578528" lon="10.4697823"><ele>31.0</ele><time>2026-05-04T14:16:44.39Z</time></trkpt><trkpt lat="44.8578463" lon="10.4698806"><ele>31.0</ele><time>2026-05-04T14:16:45.39Z</time></trkpt><trkpt lat="44.8578441" lon="10.4699856"><ele>31.0</ele><time>2026-05-04T14:16:46.39Z</time></trkpt><trkpt lat="44.8578416" lon="10.4700892"><ele>31.000000000000004</ele><time>2026-05-04T14:16:47.391Z</time></trkpt><trkpt lat="44.8578435" lon="10.4701998"><ele>31.0</ele><time>2026-05-04T14:16:48.39Z</time></trkpt><trkpt lat="44.8578376" lon="10.4702983"><ele>31.0</ele><time>2026-05-04T14:16:49.391Z</time></trkpt><trkpt lat="44.8578354" lon="10.4703929"><ele>31.000000000000004</ele><time>2026-05-04T14:16:50.391Z</time></trkpt><trkpt lat="44.8578392" lon="10.4704885"><ele>31.0</ele><time>2026-05-04T14:16:51.39Z</time></trkpt><trkpt lat="44.8578402" lon="10.4705869"><ele>31.0</ele><time>2026-05-04T14:16:52.39Z</time></trkpt><trkpt lat="44.8578487" lon="10.4706896"><ele>30.857142857142858</ele><time>2026-05-04T14:16:53.391Z</time></trkpt><trkpt lat="44.8578687" lon="10.4707819"><ele>30.714285714285715</ele><time>2026-05-04T14:16:54.39Z</time></trkpt><trkpt lat="44.8578845" lon="10.4708754"><ele>30.571428571428573</ele><time>2026-05-04T14:16:55.39Z</time></trkpt><trkpt lat="44.8579099" lon="10.4709697"><ele>30.42857142857143</ele><time>2026-05-04T14:16:56.391Z</time></trkpt><trkpt lat="44.8579358" lon="10.4710591"><ele>30.285714285714285</ele><time>2026-05-04T14:16:57.391Z</time></trkpt><trkpt lat="44.857972" lon="10.4711438"><ele>30.142857142857146</ele><time>2026-05-04T14:16:58.39Z</time></trkpt><trkpt lat="44.8580012" lon="10.4712279"><ele>30.0</ele><time>2026-05-04T14:16:59.391Z</time></trkpt><trkpt lat="44.8580438" lon="10.4713038"><ele>29.857142857142858</ele><time>2026-05-04T14:17:00.391Z</time></trkpt><trkpt lat="44.8580908" lon="10.471379"><ele>29.714285714285715</ele><time>2026-05-04T14:17:01.39Z</time></trkpt><trkpt lat="44.8581391" lon="10.4714455"><ele>29.571428571428573</ele><time>2026-05-04T14:17:02.391Z</time></trkpt><trkpt lat="44.8581995" lon="10.4715198"><ele>29.42857142857143</ele><time>2026-05-04T14:17:03.39Z</time></trkpt><trkpt lat="44.8582526" lon="10.4715726"><ele>29.285714285714285</ele><time>2026-05-04T14:17:04.391Z</time></trkpt><trkpt lat="44.8583177" lon="10.4716084"><ele>29.142857142857146</ele><time>2026-05-04T14:17:05.391Z</time></trkpt><trkpt lat="44.8583876" lon="10.4716312"><ele>29.000000000000004</ele><time>2026-05-04T14:17:06.391Z</time></trkpt><trkpt lat="44.8584546" lon="10.4716457"><ele>28.833333333333332</ele><time>2026-05-04T14:17:07.391Z</time></trkpt><trkpt lat="44.8585384" lon="10.4716488"><ele>28.666666666666664</ele><time>2026-05-04T14:17:08.39Z</time></trkpt><trkpt lat="44.8586062" lon="10.4716371"><ele>28.5</ele><time>2026-05-04T14:17:09.39Z</time></trkpt><trkpt lat="44.8586798" lon="10.4716196"><ele>28.333333333333336</ele><time>2026-05-04T14:17:10.391Z</time></trkpt><trkpt lat="44.8587527" lon="10.4716035"><ele>28.166666666666668</ele><time>2026-05-04T14:17:11.39Z</time></trkpt><trkpt lat="44.8588359" lon="10.4715834"><ele>28.0</ele><time>2026-05-04T14:17:12.39Z</time></trkpt><trkpt lat="44.8589051" lon="10.4715692"><ele>28.0</ele><time>2026-05-04T14:17:13.39Z</time></trkpt><trkpt lat="44.8589765" lon="10.471533"><ele>28.0</ele><time>2026-05-04T14:17:14.391Z</time></trkpt><trkpt lat="44.8590375" lon="10.4714769"><ele>28.0</ele><time>2026-05-04T14:17:15.39Z</time></trkpt><trkpt lat="44.8590918" lon="10.4714234"><ele>28.0</ele><time>2026-05-04T14:17:16.39Z</time></trkpt><trkpt lat="44.8591324" lon="10.471354"><ele>28.0</ele><time>2026-05-04T14:17:17.391Z</time></trkpt><trkpt lat="44.8591734" lon="10.4712863"><ele>28.0</ele><time>2026-05-04T14:17:18.39Z</time></trkpt><trkpt lat="44.8592099" lon="10.4712101"><ele>28.0</ele><time>2026-05-04T14:17:19.391Z</time></trkpt><trkpt lat="44.8592343" lon="10.4711248"><ele>28.142857142857142</ele><time>2026-05-04T14:17:20.391Z</time></trkpt><trkpt lat="44.85927" lon="10.4710326"><ele>28.285714285714285</ele><time>2026-05-04T14:17:21.39Z</time></trkpt><trkpt lat="44.8593077" lon="10.4709396"><ele>28.42857142857143</ele><time>2026-05-04T14:17:22.39Z</time></trkpt><trkpt lat="44.8593427" lon="10.4708488"><ele>28.571428571428573</ele><time>2026-05-04T14:17:23.391Z</time></trkpt><trkpt lat="44.8593829" lon="10.4707637"><ele>28.714285714285715</ele><time>2026-05-04T14:17:24.391Z</time></trkpt><trkpt lat="44.8594187" lon="10.4706808"><ele>28.85714285714286</ele><time>2026-05-04T14:17:25.391Z</time></trkpt><trkpt lat="44.8594475" lon="10.4705896"><ele>29.000000000000004</ele><time>2026-05-04T14:17:26.39Z</time></trkpt><trkpt lat="44.8594796" lon="10.4705027"><ele>29.142857142857146</ele><time>2026-05-04T14:17:27.391Z</time></trkpt><trkpt lat="44.8595245" lon="10.4704272"><ele>29.285714285714285</ele><time>2026-05-04T14:17:28.39Z</time></trkpt><trkpt lat="44.8595629" lon="10.4703515"><ele>29.42857142857143</ele><time>2026-05-04T14:17:29.39Z</time></trkpt><trkpt lat="44.8596022" lon="10.4702678"><ele>29.571428571428573</ele><time>2026-05-04T14:17:30.391Z</time></trkpt><trkpt lat="44.8596422" lon="10.4701919"><ele>29.714285714285715</ele><time>2026-05-04T14:17:31.39Z</time></trkpt><trkpt lat="44.8596809" lon="10.4701182"><ele>29.857142857142858</ele><time>2026-05-04T14:17:32.391Z</time></trkpt><trkpt lat="44.8597197" lon="10.4700377"><ele>30.0</ele><time>2026-05-04T14:17:33.39Z</time></trkpt><trkpt lat="44.8597659" lon="10.4699655"><ele>30.0</ele><time>2026-05-04T14:17:34.391Z</time></trkpt><trkpt lat="44.8598188" lon="10.469906"><ele>30.0</ele><time>2026-05-04T14:17:35.391Z</time></trkpt><trkpt lat="44.8598658" lon="10.4698424"><ele>30.0</ele><time>2026-05-04T14:17:36.39Z</time></trkpt><trkpt lat="44.859922" lon="10.4697797"><ele>30.0</ele><time>2026-05-04T14:17:37.39Z</time></trkpt><trkpt lat="44.8599741" lon="10.4697266"><ele>30.0</ele><time>2026-05-04T14:17:38.391Z</time></trkpt><trkpt lat="44.8600322" lon="10.4696677"><ele>30.0</ele><time>2026-05-04T14:17:39.39Z</time></trkpt><trkpt lat="44.8600953" lon="10.4696086"><ele>30.0</ele><time>2026-05-04T14:17:40.39Z</time></trkpt><trkpt lat="44.8601423" lon="10.4695397"><ele>30.42857142857143</ele><time>2026-05-04T14:17:41.39Z</time></trkpt><trkpt lat="44.8601933" lon="10.4694682"><ele>30.857142857142854</ele><time>2026-05-04T14:17:42.39Z</time></trkpt><trkpt lat="44.8602406" lon="10.4694024"><ele>31.285714285714285</ele><time>2026-05-04T14:17:43.391Z</time></trkpt><trkpt lat="44.8602844" lon="10.4693321"><ele>31.714285714285715</ele><time>2026-05-04T14:17:44.391Z</time></trkpt><trkpt lat="44.8603379" lon="10.4692715"><ele>32.142857142857146</ele><time>2026-05-04T14:17:45.391Z</time></trkpt><trkpt lat="44.8604014" lon="10.4692246"><ele>32.57142857142857</ele><time>2026-05-04T14:17:46.39Z</time></trkpt><trkpt lat="44.8604606" lon="10.4691892"><ele>33.0</ele><time>2026-05-04T14:17:47.391Z</time></trkpt><trkpt lat="44.8605206" lon="10.469148"><ele>33.0</ele><time>2026-05-04T14:17:48.39Z</time></trkpt><trkpt lat="44.8605932" lon="10.4691048"><ele>33.0</ele><time>2026-05-04T14:17:49.391Z</time></trkpt><trkpt lat="44.8606578" lon="10.469067"><ele>33.0</ele><time>2026-05-04T14:17:50.391Z</time></trkpt><trkpt lat="44.8607217" lon="10.4690218"><ele>33.0</ele><time>2026-05-04T14:17:51.39Z</time></trkpt><trkpt lat="44.8607984" lon="10.4689689"><ele>33.0</ele><time>2026-05-04T14:17:52.39Z</time></trkpt><trkpt lat="44.8608581" lon="10.4689291"><ele>33.0</ele><time>2026-05-04T14:17:53.39Z</time></trkpt><trkpt lat="44.8609431" lon="10.468844"><ele>32.6</ele><time>2026-05-04T14:17:55.39Z</time></trkpt><trkpt lat="44.8610399" lon="10.4687857"><ele>32.199999999999996</ele><time>2026-05-04T14:17:57.39Z</time></trkpt><trkpt lat="44.861097" lon="10.4687471"><ele>31.8</ele><time>2026-05-04T14:17:58.391Z</time></trkpt><trkpt lat="44.8611629" lon="10.4687203"><ele>31.4</ele><time>2026-05-04T14:17:59.391Z</time></trkpt><trkpt lat="44.8612693" lon="10.4686462"><ele>31.0</ele><time>2026-05-04T14:18:01.391Z</time></trkpt><trkpt lat="44.8613843" lon="10.4685607"><ele>31.0</ele><time>2026-05-04T14:18:03.39Z</time></trkpt><trkpt lat="44.8614519" lon="10.4685246"><ele>31.0</ele><time>2026-05-04T14:18:04.391Z</time></trkpt><trkpt lat="44.8615711" lon="10.4684632"><ele>31.0</ele><time>2026-05-04T14:18:06.39Z</time></trkpt><trkpt lat="44.8616951" lon="10.4684167"><ele>31.0</ele><time>2026-05-04T14:18:08.391Z</time></trkpt><trkpt lat="44.8617588" lon="10.468388"><ele>31.0</ele><time>2026-05-04T14:18:09.39Z</time></trkpt><trkpt lat="44.8618334" lon="10.4683625"><ele>31.166666666666668</ele><time>2026-05-04T14:18:10.39Z</time></trkpt><trkpt lat="44.8619279" lon="10.4683172"><ele>31.333333333333336</ele><time>2026-05-04T14:18:12.391Z</time></trkpt><trkpt lat="44.8619896" lon="10.4682869"><ele>31.5</ele><time>2026-05-04T14:18:13.391Z</time></trkpt><trkpt lat="44.8620629" lon="10.4682587"><ele>31.666666666666664</ele><time>2026-05-04T14:18:14.39Z</time></trkpt><trkpt lat="44.8621258" lon="10.4682191"><ele>31.833333333333332</ele><time>2026-05-04T14:18:15.39Z</time></trkpt><trkpt lat="44.8622016" lon="10.4681845"><ele>32.0</ele><time>2026-05-04T14:18:16.39Z</time></trkpt><trkpt lat="44.8622719" lon="10.4681519"><ele>31.999999999999996</ele><time>2026-05-04T14:18:17.391Z</time></trkpt><trkpt lat="44.8623336" lon="10.4681285"><ele>32.0</ele><time>2026-05-04T14:18:18.39Z</time></trkpt><trkpt lat="44.8624053" lon="10.4681367"><ele>32.0</ele><time>2026-05-04T14:18:19.39Z</time></trkpt><trkpt lat="44.8625259" lon="10.4680756"><ele>32.0</ele><time>2026-05-04T14:18:21.391Z</time></trkpt><trkpt lat="44.8625818" lon="10.4680285"><ele>31.999999999999996</ele><time>2026-05-04T14:18:22.39Z</time></trkpt><trkpt lat="44.8626769" lon="10.4679515"><ele>32.0</ele><time>2026-05-04T14:18:24.391Z</time></trkpt><trkpt lat="44.8627857" lon="10.4678763"><ele>31.5</ele><time>2026-05-04T14:18:26.39Z</time></trkpt><trkpt lat="44.8628786" lon="10.4677899"><ele>31.0</ele><time>2026-05-04T14:18:28.391Z</time></trkpt><trkpt lat="44.8629673" lon="10.4676818"><ele>30.5</ele><time>2026-05-04T14:18:30.39Z</time></trkpt><trkpt lat="44.8630609" lon="10.4675728"><ele>30.0</ele><time>2026-05-04T14:18:32.391Z</time></trkpt><trkpt lat="44.863156" lon="10.4674415"><ele>30.0</ele><time>2026-05-04T14:18:34.39Z</time></trkpt><trkpt lat="44.8632003" lon="10.4673737"><ele>30.0</ele><time>2026-05-04T14:18:35.39Z</time></trkpt><trkpt lat="44.8632429" lon="10.467305"><ele>30.0</ele><time>2026-05-04T14:18:36.39Z</time></trkpt><trkpt lat="44.8633193" lon="10.4671718"><ele>30.0</ele><time>2026-05-04T14:18:38.391Z</time></trkpt><trkpt lat="44.8633783" lon="10.4670303"><ele>30.0</ele><time>2026-05-04T14:18:40.39Z</time></trkpt><trkpt lat="44.8634147" lon="10.4669454"><ele>30.0</ele><time>2026-05-04T14:18:41.39Z</time></trkpt><trkpt lat="44.8634405" lon="10.466862"><ele>30.0</ele><time>2026-05-04T14:18:42.391Z</time></trkpt><trkpt lat="44.8634743" lon="10.4667845"><ele>30.0</ele><time>2026-05-04T14:18:43.39Z</time></trkpt><trkpt lat="44.8635461" lon="10.4666458"><ele>30.0</ele><time>2026-05-04T14:18:45.391Z</time></trkpt><trkpt lat="44.86358" lon="10.4665685"><ele>30.0</ele><time>2026-05-04T14:18:46.391Z</time></trkpt><trkpt lat="44.8636112" lon="10.4664867"><ele>30.0</ele><time>2026-05-04T14:18:47.39Z</time></trkpt><trkpt lat="44.8636418" lon="10.4664074"><ele>30.0</ele><time>2026-05-04T14:18:48.39Z</time></trkpt><trkpt lat="44.8637071" lon="10.466254"><ele>29.833333333333332</ele><time>2026-05-04T14:18:50.391Z</time></trkpt><trkpt lat="44.8637336" lon="10.4661657"><ele>29.666666666666664</ele><time>2026-05-04T14:18:51.391Z</time></trkpt><trkpt lat="44.8637991" lon="10.4660173"><ele>29.5</ele><time>2026-05-04T14:18:53.39Z</time></trkpt><trkpt lat="44.8638373" lon="10.4659465"><ele>29.333333333333332</ele><time>2026-05-04T14:18:54.39Z</time></trkpt><trkpt lat="44.8638747" lon="10.4658748"><ele>29.166666666666664</ele><time>2026-05-04T14:18:55.391Z</time></trkpt><trkpt lat="44.8639105" lon="10.4657958"><ele>29.0</ele><time>2026-05-04T14:18:56.391Z</time></trkpt><trkpt lat="44.8639994" lon="10.4656778"><ele>28.999999999999996</ele><time>2026-05-04T14:18:58.391Z</time></trkpt><trkpt lat="44.8640622" lon="10.4656641"><ele>29.0</ele><time>2026-05-04T14:18:59.39Z</time></trkpt><trkpt lat="44.8641741" lon="10.4657074"><ele>29.0</ele><time>2026-05-04T14:19:01.39Z</time></trkpt><trkpt lat="44.8642848" lon="10.4657925"><ele>29.0</ele><time>2026-05-04T14:19:03.391Z</time></trkpt><trkpt lat="44.8643425" lon="10.4658427"><ele>28.999999999999996</ele><time>2026-05-04T14:19:04.39Z</time></trkpt><trkpt lat="44.8643999" lon="10.4658919"><ele>29.0</ele><time>2026-05-04T14:19:05.39Z</time></trkpt><trkpt lat="44.8644589" lon="10.465942"><ele>29.142857142857146</ele><time>2026-05-04T14:19:06.39Z</time></trkpt><trkpt lat="44.8645157" lon="10.4659944"><ele>29.285714285714285</ele><time>2026-05-04T14:19:07.391Z</time></trkpt><trkpt lat="44.8645771" lon="10.4660442"><ele>29.42857142857143</ele><time>2026-05-04T14:19:08.391Z</time></trkpt><trkpt lat="44.8646332" lon="10.4660976"><ele>29.571428571428573</ele><time>2026-05-04T14:19:09.39Z</time></trkpt><trkpt lat="44.8646908" lon="10.4661595"><ele>29.714285714285715</ele><time>2026-05-04T14:19:10.39Z</time></trkpt><trkpt lat="44.8647396" lon="10.4662278"><ele>29.857142857142858</ele><time>2026-05-04T14:19:11.391Z</time></trkpt><trkpt lat="44.8647886" lon="10.4663066"><ele>30.0</ele><time>2026-05-04T14:19:12.39Z</time></trkpt><trkpt lat="44.8648286" lon="10.4663876"><ele>30.142857142857146</ele><time>2026-05-04T14:19:13.39Z</time></trkpt><trkpt lat="44.8648627" lon="10.4664735"><ele>30.285714285714285</ele><time>2026-05-04T14:19:14.39Z</time></trkpt><trkpt lat="44.8649036" lon="10.4665469"><ele>30.42857142857143</ele><time>2026-05-04T14:19:15.391Z</time></trkpt><trkpt lat="44.8649478" lon="10.4666187"><ele>30.571428571428573</ele><time>2026-05-04T14:19:16.391Z</time></trkpt><trkpt lat="44.8649886" lon="10.4666951"><ele>30.714285714285715</ele><time>2026-05-04T14:19:17.391Z</time></trkpt><trkpt lat="44.8650331" lon="10.4667729"><ele>30.857142857142858</ele><time>2026-05-04T14:19:18.39Z</time></trkpt><trkpt lat="44.8650711" lon="10.466849"><ele>31.0</ele><time>2026-05-04T14:19:19.39Z</time></trkpt><trkpt lat="44.8651159" lon="10.4669231"><ele>31.000000000000004</ele><time>2026-05-04T14:19:20.39Z</time></trkpt><trkpt lat="44.8651603" lon="10.4669987"><ele>31.0</ele><time>2026-05-04T14:19:21.391Z</time></trkpt><trkpt lat="44.8652071" lon="10.467073"><ele>31.0</ele><time>2026-05-04T14:19:22.391Z</time></trkpt><trkpt lat="44.8652538" lon="10.4671369"><ele>31.0</ele><time>2026-05-04T14:19:23.391Z</time></trkpt><trkpt lat="44.865297" lon="10.4672097"><ele>31.000000000000004</ele><time>2026-05-04T14:19:24.391Z</time></trkpt><trkpt lat="44.8653766" lon="10.4673382"><ele>31.0</ele><time>2026-05-04T14:19:26.391Z</time></trkpt><trkpt lat="44.8654583" lon="10.4674745"><ele>31.000000000000004</ele><time>2026-05-04T14:19:28.391Z</time></trkpt><trkpt lat="44.865534" lon="10.4676161"><ele>31.0</ele><time>2026-05-04T14:19:30.39Z</time></trkpt><trkpt lat="44.8655731" lon="10.4676937"><ele>31.0</ele><time>2026-05-04T14:19:31.39Z</time></trkpt><trkpt lat="44.8656246" lon="10.4677699"><ele>31.0</ele><time>2026-05-04T14:19:32.391Z</time></trkpt><trkpt lat="44.865666" lon="10.4678508"><ele>31.000000000000004</ele><time>2026-05-04T14:19:33.391Z</time></trkpt><trkpt lat="44.8657085" lon="10.467936"><ele>31.0</ele><time>2026-05-04T14:19:34.391Z</time></trkpt><trkpt lat="44.8657524" lon="10.468014"><ele>31.0</ele><time>2026-05-04T14:19:35.391Z</time></trkpt><trkpt lat="44.8657956" lon="10.4680944"><ele>31.000000000000004</ele><time>2026-05-04T14:19:36.391Z</time></trkpt><trkpt lat="44.8658554" lon="10.4681759"><ele>31.0</ele><time>2026-05-04T14:19:37.391Z</time></trkpt><trkpt lat="44.8659014" lon="10.4682495"><ele>31.0</ele><time>2026-05-04T14:19:38.391Z</time></trkpt><trkpt lat="44.8659496" lon="10.4683277"><ele>31.000000000000004</ele><time>2026-05-04T14:19:39.39Z</time></trkpt><trkpt lat="44.8659914" lon="10.4684045"><ele>31.0</ele><time>2026-05-04T14:19:40.39Z</time></trkpt><trkpt lat="44.8660393" lon="10.4684769"><ele>31.0</ele><time>2026-05-04T14:19:41.391Z</time></trkpt><trkpt lat="44.8660851" lon="10.4685538"><ele>30.833333333333336</ele><time>2026-05-04T14:19:42.391Z</time></trkpt><trkpt lat="44.8661351" lon="10.468622"><ele>30.666666666666668</ele><time>2026-05-04T14:19:43.391Z</time></trkpt><trkpt lat="44.8662225" lon="10.4687641"><ele>30.5</ele><time>2026-05-04T14:19:45.39Z</time></trkpt><trkpt lat="44.866277" lon="10.4688333"><ele>30.333333333333336</ele><time>2026-05-04T14:19:46.391Z</time></trkpt><trkpt lat="44.8663348" lon="10.4688845"><ele>30.166666666666668</ele><time>2026-05-04T14:19:47.39Z</time></trkpt><trkpt lat="44.8663849" lon="10.4689441"><ele>30.0</ele><time>2026-05-04T14:19:48.39Z</time></trkpt><trkpt lat="44.8664425" lon="10.4690101"><ele>30.0</ele><time>2026-05-04T14:19:49.39Z</time></trkpt><trkpt lat="44.8665012" lon="10.4690715"><ele>30.0</ele><time>2026-05-04T14:19:50.391Z</time></trkpt><trkpt lat="44.8665611" lon="10.4691251"><ele>30.0</ele><time>2026-05-04T14:19:51.391Z</time></trkpt><trkpt lat="44.8666253" lon="10.469162"><ele>30.0</ele><time>2026-05-04T14:19:52.39Z</time></trkpt><trkpt lat="44.8666871" lon="10.4692058"><ele>30.0</ele><time>2026-05-04T14:19:53.39Z</time></trkpt><trkpt lat="44.8668112" lon="10.4692569"><ele>30.0</ele><time>2026-05-04T14:19:55.39Z</time></trkpt><trkpt lat="44.8668773" lon="10.4692824"><ele>30.0</ele><time>2026-05-04T14:19:56.39Z</time></trkpt><trkpt lat="44.8669517" lon="10.4693"><ele>30.0</ele><time>2026-05-04T14:19:57.391Z</time></trkpt><trkpt lat="44.8670215" lon="10.4693009"><ele>30.0</ele><time>2026-05-04T14:19:58.391Z</time></trkpt><trkpt lat="44.8670891" lon="10.4692921"><ele>30.0</ele><time>2026-05-04T14:19:59.39Z</time></trkpt><trkpt lat="44.8671663" lon="10.4692919"><ele>30.0</ele><time>2026-05-04T14:20:00.39Z</time></trkpt><trkpt lat="44.8672365" lon="10.4692764"><ele>30.0</ele><time>2026-05-04T14:20:01.39Z</time></trkpt><trkpt lat="44.8673079" lon="10.4692601"><ele>30.0</ele><time>2026-05-04T14:20:02.391Z</time></trkpt><trkpt lat="44.8673801" lon="10.4692456"><ele>30.0</ele><time>2026-05-04T14:20:03.39Z</time></trkpt><trkpt lat="44.8674456" lon="10.4692227"><ele>30.0</ele><time>2026-05-04T14:20:04.391Z</time></trkpt><trkpt lat="44.8675105" lon="10.469192"><ele>30.0</ele><time>2026-05-04T14:20:05.39Z</time></trkpt><trkpt lat="44.8675718" lon="10.4691521"><ele>30.0</ele><time>2026-05-04T14:20:06.391Z</time></trkpt><trkpt lat="44.8676345" lon="10.4691142"><ele>30.0</ele><time>2026-05-04T14:20:07.391Z</time></trkpt><trkpt lat="44.8676951" lon="10.4690614"><ele>30.0</ele><time>2026-05-04T14:20:08.391Z</time></trkpt><trkpt lat="44.867765" lon="10.4690115"><ele>30.0</ele><time>2026-05-04T14:20:09.391Z</time></trkpt><trkpt lat="44.8678193" lon="10.4689565"><ele>30.0</ele><time>2026-05-04T14:20:10.39Z</time></trkpt><trkpt lat="44.8678776" lon="10.4688876"><ele>30.0</ele><time>2026-05-04T14:20:11.39Z</time></trkpt><trkpt lat="44.8679204" lon="10.4688212"><ele>30.0</ele><time>2026-05-04T14:20:12.391Z</time></trkpt><trkpt lat="44.8679612" lon="10.4687524"><ele>30.0</ele><time>2026-05-04T14:20:13.39Z</time></trkpt><trkpt lat="44.867995" lon="10.4686755"><ele>30.0</ele><time>2026-05-04T14:20:14.39Z</time></trkpt><trkpt lat="44.8680255" lon="10.4685893"><ele>30.0</ele><time>2026-05-04T14:20:15.39Z</time></trkpt><trkpt lat="44.8680521" lon="10.4685042"><ele>30.0</ele><time>2026-05-04T14:20:16.391Z</time></trkpt><trkpt lat="44.8680845" lon="10.4683152"><ele>29.857142857142858</ele><time>2026-05-04T14:20:18.39Z</time></trkpt><trkpt lat="44.868097" lon="10.4682212"><ele>29.714285714285715</ele><time>2026-05-04T14:20:19.39Z</time></trkpt><trkpt lat="44.8681014" lon="10.4681276"><ele>29.571428571428573</ele><time>2026-05-04T14:20:20.391Z</time></trkpt><trkpt lat="44.8680895" lon="10.4680316"><ele>29.42857142857143</ele><time>2026-05-04T14:20:21.39Z</time></trkpt><trkpt lat="44.8680816" lon="10.4679359"><ele>29.285714285714285</ele><time>2026-05-04T14:20:22.39Z</time></trkpt><trkpt lat="44.868079" lon="10.4678379"><ele>29.142857142857146</ele><time>2026-05-04T14:20:23.39Z</time></trkpt><trkpt lat="44.8680736" lon="10.4677455"><ele>29.000000000000004</ele><time>2026-05-04T14:20:24.391Z</time></trkpt><trkpt lat="44.8680638" lon="10.4676547"><ele>29.000000000000004</ele><time>2026-05-04T14:20:25.39Z</time></trkpt><trkpt lat="44.8680468" lon="10.4675606"><ele>29.0</ele><time>2026-05-04T14:20:26.391Z</time></trkpt><trkpt lat="44.8680406" lon="10.4674669"><ele>29.000000000000004</ele><time>2026-05-04T14:20:27.39Z</time></trkpt><trkpt lat="44.8680274" lon="10.4673689"><ele>29.000000000000004</ele><time>2026-05-04T14:20:28.391Z</time></trkpt><trkpt lat="44.8680182" lon="10.4672753"><ele>29.0</ele><time>2026-05-04T14:20:29.39Z</time></trkpt><trkpt lat="44.8680115" lon="10.4671783"><ele>29.000000000000004</ele><time>2026-05-04T14:20:30.391Z</time></trkpt><trkpt lat="44.8680072" lon="10.4670832"><ele>29.000000000000004</ele><time>2026-05-04T14:20:31.39Z</time></trkpt><trkpt lat="44.8680078" lon="10.4669911"><ele>29.333333333333332</ele><time>2026-05-04T14:20:32.39Z</time></trkpt><trkpt lat="44.8680035" lon="10.4668945"><ele>29.666666666666664</ele><time>2026-05-04T14:20:33.39Z</time></trkpt><trkpt lat="44.8680082" lon="10.4668036"><ele>30.0</ele><time>2026-05-04T14:20:34.391Z</time></trkpt><trkpt lat="44.8680159" lon="10.4666283"><ele>30.333333333333336</ele><time>2026-05-04T14:20:36.39Z</time></trkpt><trkpt lat="44.8680289" lon="10.4665342"><ele>30.666666666666668</ele><time>2026-05-04T14:20:37.39Z</time></trkpt><trkpt lat="44.8680346" lon="10.4664419"><ele>31.0</ele><time>2026-05-04T14:20:38.39Z</time></trkpt><trkpt lat="44.8680512" lon="10.4663491"><ele>31.166666666666668</ele><time>2026-05-04T14:20:39.391Z</time></trkpt><trkpt lat="44.8681043" lon="10.4661823"><ele>31.333333333333336</ele><time>2026-05-04T14:20:41.391Z</time></trkpt><trkpt lat="44.8681375" lon="10.4660999"><ele>31.5</ele><time>2026-05-04T14:20:42.39Z</time></trkpt><trkpt lat="44.8681834" lon="10.4660272"><ele>31.666666666666664</ele><time>2026-05-04T14:20:43.391Z</time></trkpt><trkpt lat="44.8682309" lon="10.4659646"><ele>31.833333333333332</ele><time>2026-05-04T14:20:44.391Z</time></trkpt><trkpt lat="44.8682877" lon="10.4659063"><ele>32.0</ele><time>2026-05-04T14:20:45.39Z</time></trkpt><trkpt lat="44.868343" lon="10.4658625"><ele>32.0</ele><time>2026-05-04T14:20:46.39Z</time></trkpt><trkpt lat="44.8684027" lon="10.4658076"><ele>31.999999999999996</ele><time>2026-05-04T14:20:47.391Z</time></trkpt><trkpt lat="44.8684586" lon="10.4657476"><ele>32.0</ele><time>2026-05-04T14:20:48.391Z</time></trkpt><trkpt lat="44.8685224" lon="10.465709"><ele>32.0</ele><time>2026-05-04T14:20:49.391Z</time></trkpt><trkpt lat="44.8685822" lon="10.4656745"><ele>31.999999999999996</ele><time>2026-05-04T14:20:50.39Z</time></trkpt><trkpt lat="44.8686403" lon="10.4656303"><ele>32.0</ele><time>2026-05-04T14:20:51.39Z</time></trkpt><trkpt lat="44.8687099" lon="10.465597"><ele>32.0</ele><time>2026-05-04T14:20:52.391Z</time></trkpt><trkpt lat="44.8687794" lon="10.4655879"><ele>31.499999999999996</ele><time>2026-05-04T14:20:53.39Z</time></trkpt><trkpt lat="44.8688423" lon="10.465578"><ele>31.0</ele><time>2026-05-04T14:20:54.391Z</time></trkpt><trkpt lat="44.8689112" lon="10.4655731"><ele>30.5</ele><time>2026-05-04T14:20:55.391Z</time></trkpt><trkpt lat="44.8689764" lon="10.4655571"><ele>30.0</ele><time>2026-05-04T14:20:56.39Z</time></trkpt><trkpt lat="44.8690523" lon="10.4655575"><ele>29.499999999999996</ele><time>2026-05-04T14:20:57.391Z</time></trkpt><trkpt lat="44.8691206" lon="10.4655634"><ele>29.0</ele><time>2026-05-04T14:20:58.391Z</time></trkpt><trkpt lat="44.8692527" lon="10.4655672"><ele>28.85714285714286</ele><time>2026-05-04T14:21:00.391Z</time></trkpt><trkpt lat="44.8693234" lon="10.4655863"><ele>28.714285714285715</ele><time>2026-05-04T14:21:01.39Z</time></trkpt><trkpt lat="44.8693875" lon="10.4656105"><ele>28.571428571428573</ele><time>2026-05-04T14:21:02.391Z</time></trkpt><trkpt lat="44.8694489" lon="10.4656448"><ele>28.42857142857143</ele><time>2026-05-04T14:21:03.39Z</time></trkpt><trkpt lat="44.869504" lon="10.4656998"><ele>28.285714285714285</ele><time>2026-05-04T14:21:04.391Z</time></trkpt><trkpt lat="44.8695564" lon="10.4657656"><ele>28.142857142857142</ele><time>2026-05-04T14:21:05.39Z</time></trkpt><trkpt lat="44.8696021" lon="10.4658326"><ele>28.0</ele><time>2026-05-04T14:21:06.39Z</time></trkpt><trkpt lat="44.8696455" lon="10.4659079"><ele>28.000000000000004</ele><time>2026-05-04T14:21:07.39Z</time></trkpt><trkpt lat="44.8696918" lon="10.4659765"><ele>28.0</ele><time>2026-05-04T14:21:08.39Z</time></trkpt><trkpt lat="44.8697391" lon="10.4660499"><ele>28.0</ele><time>2026-05-04T14:21:09.391Z</time></trkpt><trkpt lat="44.869781" lon="10.4661268"><ele>28.0</ele><time>2026-05-04T14:21:10.391Z</time></trkpt><trkpt lat="44.8698198" lon="10.4662048"><ele>28.000000000000004</ele><time>2026-05-04T14:21:11.39Z</time></trkpt><trkpt lat="44.8698896" lon="10.466362"><ele>28.0</ele><time>2026-05-04T14:21:13.39Z</time></trkpt><trkpt lat="44.8699255" lon="10.466441"><ele>28.142857142857142</ele><time>2026-05-04T14:21:14.39Z</time></trkpt><trkpt lat="44.8699594" lon="10.4665194"><ele>28.285714285714285</ele><time>2026-05-04T14:21:15.391Z</time></trkpt><trkpt lat="44.8699855" lon="10.4666142"><ele>28.42857142857143</ele><time>2026-05-04T14:21:16.39Z</time></trkpt><trkpt lat="44.8700194" lon="10.4666952"><ele>28.571428571428573</ele><time>2026-05-04T14:21:17.391Z</time></trkpt><trkpt lat="44.8700406" lon="10.4667908"><ele>28.714285714285715</ele><time>2026-05-04T14:21:18.391Z</time></trkpt><trkpt lat="44.8700649" lon="10.4668799"><ele>28.85714285714286</ele><time>2026-05-04T14:21:19.39Z</time></trkpt><trkpt lat="44.8700949" lon="10.4669596"><ele>29.000000000000004</ele><time>2026-05-04T14:21:20.39Z</time></trkpt><trkpt lat="44.8701278" lon="10.4670465"><ele>29.000000000000004</ele><time>2026-05-04T14:21:21.391Z</time></trkpt><trkpt lat="44.8701628" lon="10.4671211"><ele>29.0</ele><time>2026-05-04T14:21:22.391Z</time></trkpt><trkpt lat="44.8701924" lon="10.4672062"><ele>29.000000000000004</ele><time>2026-05-04T14:21:23.391Z</time></trkpt><trkpt lat="44.870216" lon="10.4672949"><ele>29.000000000000004</ele><time>2026-05-04T14:21:24.391Z</time></trkpt><trkpt lat="44.870229" lon="10.4673858"><ele>29.0</ele><time>2026-05-04T14:21:25.391Z</time></trkpt><trkpt lat="44.8702471" lon="10.4674793"><ele>29.000000000000004</ele><time>2026-05-04T14:21:26.391Z</time></trkpt><trkpt lat="44.8702596" lon="10.4675726"><ele>29.000000000000004</ele><time>2026-05-04T14:21:27.39Z</time></trkpt><trkpt lat="44.8702748" lon="10.4676696"><ele>29.0</ele><time>2026-05-04T14:21:28.391Z</time></trkpt><trkpt lat="44.8702921" lon="10.4678379"><ele>29.0</ele><time>2026-05-04T14:21:30.39Z</time></trkpt><trkpt lat="44.8703142" lon="10.467998"><ele>29.0</ele><time>2026-05-04T14:21:32.39Z</time></trkpt><trkpt lat="44.8703066" lon="10.4681433"><ele>29.0</ele><time>2026-05-04T14:21:34.391Z</time></trkpt><trkpt lat="44.8703185" lon="10.4682675"><ele>29.0</ele><time>2026-05-04T14:21:36.39Z</time></trkpt><trkpt lat="44.8703249" lon="10.4684116"><ele>28.799999999999997</ele><time>2026-05-04T14:21:38.39Z</time></trkpt><trkpt lat="44.8703434" lon="10.4685834"><ele>28.599999999999998</ele><time>2026-05-04T14:21:40.39Z</time></trkpt><trkpt lat="44.8703657" lon="10.4687549"><ele>28.4</ele><time>2026-05-04T14:21:42.391Z</time></trkpt><trkpt lat="44.8703856" lon="10.4689308"><ele>28.2</ele><time>2026-05-04T14:21:44.391Z</time></trkpt><trkpt lat="44.8704013" lon="10.4690184"><ele>28.0</ele><time>2026-05-04T14:21:45.391Z</time></trkpt><trkpt lat="44.8704206" lon="10.4691115"><ele>28.000000000000004</ele><time>2026-05-04T14:21:46.39Z</time></trkpt><trkpt lat="44.8704447" lon="10.4691945"><ele>28.0</ele><time>2026-05-04T14:21:47.391Z</time></trkpt><trkpt lat="44.8704611" lon="10.4692855"><ele>28.0</ele><time>2026-05-04T14:21:48.39Z</time></trkpt><trkpt lat="44.8704779" lon="10.4693785"><ele>28.0</ele><time>2026-05-04T14:21:49.391Z</time></trkpt><trkpt lat="44.8705176" lon="10.4695556"><ele>28.000000000000004</ele><time>2026-05-04T14:21:51.391Z</time></trkpt><trkpt lat="44.8705362" lon="10.4696455"><ele>28.0</ele><time>2026-05-04T14:21:52.391Z</time></trkpt><trkpt lat="44.8705593" lon="10.4697351"><ele>27.857142857142858</ele><time>2026-05-04T14:21:53.391Z</time></trkpt><trkpt lat="44.8705831" lon="10.4698247"><ele>27.714285714285715</ele><time>2026-05-04T14:21:54.391Z</time></trkpt><trkpt lat="44.8706096" lon="10.4699101"><ele>27.57142857142857</ele><time>2026-05-04T14:21:55.391Z</time></trkpt><trkpt lat="44.8706411" lon="10.4699955"><ele>27.42857142857143</ele><time>2026-05-04T14:21:56.39Z</time></trkpt><trkpt lat="44.8706718" lon="10.4700884"><ele>27.285714285714285</ele><time>2026-05-04T14:21:57.391Z</time></trkpt><trkpt lat="44.8706889" lon="10.4701754"><ele>27.142857142857142</ele><time>2026-05-04T14:21:58.391Z</time></trkpt><trkpt lat="44.8707182" lon="10.470264"><ele>27.0</ele><time>2026-05-04T14:21:59.39Z</time></trkpt><trkpt lat="44.8707499" lon="10.4703568"><ele>27.0</ele><time>2026-05-04T14:22:00.391Z</time></trkpt><trkpt lat="44.8707761" lon="10.4704477"><ele>27.0</ele><time>2026-05-04T14:22:01.39Z</time></trkpt><trkpt lat="44.8707938" lon="10.4705385"><ele>27.0</ele><time>2026-05-04T14:22:02.39Z</time></trkpt><trkpt lat="44.8708251" lon="10.4706285"><ele>27.0</ele><time>2026-05-04T14:22:03.39Z</time></trkpt><trkpt lat="44.8708609" lon="10.4707122"><ele>27.0</ele><time>2026-05-04T14:22:04.39Z</time></trkpt><trkpt lat="44.8709055" lon="10.4707776"><ele>27.0</ele><time>2026-05-04T14:22:05.39Z</time></trkpt><trkpt lat="44.8709463" lon="10.4708503"><ele>27.0</ele><time>2026-05-04T14:22:06.39Z</time></trkpt><trkpt lat="44.8710023" lon="10.4709074"><ele>27.166666666666668</ele><time>2026-05-04T14:22:07.391Z</time></trkpt><trkpt lat="44.8710598" lon="10.4709584"><ele>27.333333333333336</ele><time>2026-05-04T14:22:08.39Z</time></trkpt><trkpt lat="44.8711194" lon="10.4709956"><ele>27.5</ele><time>2026-05-04T14:22:09.391Z</time></trkpt><trkpt lat="44.8712365" lon="10.471036"><ele>27.666666666666668</ele><time>2026-05-04T14:22:11.391Z</time></trkpt><trkpt lat="44.8713615" lon="10.4710254"><ele>27.833333333333336</ele><time>2026-05-04T14:22:13.39Z</time></trkpt><trkpt lat="44.8714245" lon="10.4710045"><ele>28.0</ele><time>2026-05-04T14:22:14.39Z</time></trkpt><trkpt lat="44.8714862" lon="10.4709748"><ele>28.000000000000004</ele><time>2026-05-04T14:22:15.391Z</time></trkpt><trkpt lat="44.8715473" lon="10.470929"><ele>28.0</ele><time>2026-05-04T14:22:16.39Z</time></trkpt><trkpt lat="44.8716137" lon="10.4708801"><ele>28.0</ele><time>2026-05-04T14:22:17.391Z</time></trkpt><trkpt lat="44.87167" lon="10.4708307"><ele>28.0</ele><time>2026-05-04T14:22:18.391Z</time></trkpt><trkpt lat="44.8717268" lon="10.4707805"><ele>28.000000000000004</ele><time>2026-05-04T14:22:19.391Z</time></trkpt><trkpt lat="44.8718202" lon="10.470669"><ele>28.0</ele><time>2026-05-04T14:22:21.391Z</time></trkpt><trkpt lat="44.8718732" lon="10.4706004"><ele>28.0</ele><time>2026-05-04T14:22:22.39Z</time></trkpt><trkpt lat="44.8719719" lon="10.4704862"><ele>27.999999999999996</ele><time>2026-05-04T14:22:24.39Z</time></trkpt><trkpt lat="44.8720198" lon="10.4704264"><ele>27.999999999999996</ele><time>2026-05-04T14:22:25.391Z</time></trkpt><trkpt lat="44.8721236" lon="10.470315"><ele>28.0</ele><time>2026-05-04T14:22:27.39Z</time></trkpt><trkpt lat="44.872173" lon="10.4702591"><ele>28.0</ele><time>2026-05-04T14:22:28.39Z</time></trkpt><trkpt lat="44.8722274" lon="10.4701866"><ele>28.000000000000004</ele><time>2026-05-04T14:22:29.39Z</time></trkpt><trkpt lat="44.8722837" lon="10.4701292"><ele>28.0</ele><time>2026-05-04T14:22:30.39Z</time></trkpt><trkpt lat="44.8723404" lon="10.4700677"><ele>28.0</ele><time>2026-05-04T14:22:31.39Z</time></trkpt><trkpt lat="44.8723876" lon="10.4699868"><ele>28.0</ele><time>2026-05-04T14:22:32.391Z</time></trkpt><trkpt lat="44.872445" lon="10.4699265"><ele>28.000000000000004</ele><time>2026-05-04T14:22:33.39Z</time></trkpt><trkpt lat="44.8724858" lon="10.4698523"><ele>28.0</ele><time>2026-05-04T14:22:34.391Z</time></trkpt><trkpt lat="44.872564" lon="10.46972"><ele>28.000000000000004</ele><time>2026-05-04T14:22:36.391Z</time></trkpt><trkpt lat="44.8726121" lon="10.4696467"><ele>28.0</ele><time>2026-05-04T14:22:37.391Z</time></trkpt><trkpt lat="44.8726625" lon="10.4695731"><ele>28.0</ele><time>2026-05-04T14:22:38.391Z</time></trkpt><trkpt lat="44.8727487" lon="10.4694365"><ele>28.0</ele><time>2026-05-04T14:22:40.391Z</time></trkpt><trkpt lat="44.872801" lon="10.4693616"><ele>28.000000000000004</ele><time>2026-05-04T14:22:41.391Z</time></trkpt><trkpt lat="44.8728463" lon="10.4692914"><ele>28.0</ele><time>2026-05-04T14:22:42.39Z</time></trkpt><trkpt lat="44.8728921" lon="10.4692129"><ele>28.0</ele><time>2026-05-04T14:22:43.391Z</time></trkpt><trkpt lat="44.8729369" lon="10.4691347"><ele>28.0</ele><time>2026-05-04T14:22:44.391Z</time></trkpt><trkpt lat="44.8729883" lon="10.4690675"><ele>28.0</ele><time>2026-05-04T14:22:45.39Z</time></trkpt><trkpt lat="44.8730278" lon="10.4689861"><ele>28.0</ele><time>2026-05-04T14:22:46.39Z</time></trkpt><trkpt lat="44.8730736" lon="10.4689126"><ele>28.0</ele><time>2026-05-04T14:22:47.391Z</time></trkpt><trkpt lat="44.8731156" lon="10.4688294"><ele>28.0</ele><time>2026-05-04T14:22:48.391Z</time></trkpt><trkpt lat="44.8731633" lon="10.4687487"><ele>28.0</ele><time>2026-05-04T14:22:49.391Z</time></trkpt><trkpt lat="44.8732055" lon="10.4686752"><ele>28.000000000000004</ele><time>2026-05-04T14:22:50.391Z</time></trkpt><trkpt lat="44.8732446" lon="10.4685973"><ele>28.0</ele><time>2026-05-04T14:22:51.391Z</time></trkpt><trkpt lat="44.8732848" lon="10.4685178"><ele>28.0</ele><time>2026-05-04T14:22:52.391Z</time></trkpt><trkpt lat="44.873331" lon="10.4684363"><ele>28.0</ele><time>2026-05-04T14:22:53.391Z</time></trkpt><trkpt lat="44.873373" lon="10.4683533"><ele>28.000000000000004</ele><time>2026-05-04T14:22:54.391Z</time></trkpt><trkpt lat="44.8734566" lon="10.4682114"><ele>28.0</ele><time>2026-05-04T14:22:56.39Z</time></trkpt><trkpt lat="44.873544" lon="10.468062"><ele>28.0</ele><time>2026-05-04T14:22:58.39Z</time></trkpt><trkpt lat="44.8735881" lon="10.4679899"><ele>28.0</ele><time>2026-05-04T14:22:59.391Z</time></trkpt><trkpt lat="44.873628" lon="10.4679155"><ele>28.0</ele><time>2026-05-04T14:23:00.39Z</time></trkpt><trkpt lat="44.8736666" lon="10.4678384"><ele>28.0</ele><time>2026-05-04T14:23:01.39Z</time></trkpt><trkpt lat="44.8737035" lon="10.467758"><ele>28.0</ele><time>2026-05-04T14:23:02.39Z</time></trkpt><trkpt lat="44.8737407" lon="10.4676802"><ele>28.0</ele><time>2026-05-04T14:23:03.39Z</time></trkpt><trkpt lat="44.8737753" lon="10.4676005"><ele>28.0</ele><time>2026-05-04T14:23:04.39Z</time></trkpt><trkpt lat="44.8738127" lon="10.4675241"><ele>28.000000000000004</ele><time>2026-05-04T14:23:05.39Z</time></trkpt><trkpt lat="44.8738502" lon="10.4674487"><ele>28.0</ele><time>2026-05-04T14:23:06.391Z</time></trkpt><trkpt lat="44.8738895" lon="10.4673654"><ele>28.0</ele><time>2026-05-04T14:23:07.39Z</time></trkpt><trkpt lat="44.8739685" lon="10.4672329"><ele>28.0</ele><time>2026-05-04T14:23:09.391Z</time></trkpt><trkpt lat="44.8740098" lon="10.4671558"><ele>28.000000000000004</ele><time>2026-05-04T14:23:10.391Z</time></trkpt><trkpt lat="44.8740469" lon="10.4670837"><ele>28.0</ele><time>2026-05-04T14:23:11.391Z</time></trkpt><trkpt lat="44.874087" lon="10.4670043"><ele>28.000000000000004</ele><time>2026-05-04T14:23:12.391Z</time></trkpt><trkpt lat="44.8741854" lon="10.4668747"><ele>28.0</ele><time>2026-05-04T14:23:14.391Z</time></trkpt><trkpt lat="44.8742415" lon="10.4668093"><ele>28.0</ele><time>2026-05-04T14:23:15.39Z</time></trkpt><trkpt lat="44.8743044" lon="10.4667544"><ele>28.0</ele><time>2026-05-04T14:23:16.391Z</time></trkpt><trkpt lat="44.8743704" lon="10.4667124"><ele>28.000000000000004</ele><time>2026-05-04T14:23:17.391Z</time></trkpt><trkpt lat="44.8744343" lon="10.4666698"><ele>28.0</ele><time>2026-05-04T14:23:18.39Z</time></trkpt><trkpt lat="44.8745529" lon="10.4666002"><ele>28.166666666666668</ele><time>2026-05-04T14:23:20.39Z</time></trkpt><trkpt lat="44.8746094" lon="10.4665593"><ele>28.333333333333336</ele><time>2026-05-04T14:23:21.39Z</time></trkpt><trkpt lat="44.8747193" lon="10.4664974"><ele>28.5</ele><time>2026-05-04T14:23:23.39Z</time></trkpt><trkpt lat="44.8747888" lon="10.4664821"><ele>28.666666666666664</ele><time>2026-05-04T14:23:24.391Z</time></trkpt><trkpt lat="44.8749169" lon="10.4664788"><ele>28.833333333333332</ele><time>2026-05-04T14:23:26.39Z</time></trkpt><trkpt lat="44.8749842" lon="10.4665001"><ele>29.0</ele><time>2026-05-04T14:23:27.39Z</time></trkpt><trkpt lat="44.8751076" lon="10.4665238"><ele>28.999999999999996</ele><time>2026-05-04T14:23:29.391Z</time></trkpt><trkpt lat="44.8751724" lon="10.4665401"><ele>29.0</ele><time>2026-05-04T14:23:30.391Z</time></trkpt><trkpt lat="44.875244" lon="10.466571"><ele>29.0</ele><time>2026-05-04T14:23:31.391Z</time></trkpt><trkpt lat="44.8753015" lon="10.4666142"><ele>29.0</ele><time>2026-05-04T14:23:32.391Z</time></trkpt><trkpt lat="44.8753665" lon="10.4666422"><ele>28.999999999999996</ele><time>2026-05-04T14:23:33.39Z</time></trkpt><trkpt lat="44.875426" lon="10.4666875"><ele>29.0</ele><time>2026-05-04T14:23:34.391Z</time></trkpt><trkpt lat="44.8755272" lon="10.4668021"><ele>28.999999999999996</ele><time>2026-05-04T14:23:36.391Z</time></trkpt><trkpt lat="44.8755778" lon="10.4668642"><ele>29.0</ele><time>2026-05-04T14:23:37.391Z</time></trkpt><trkpt lat="44.8756266" lon="10.4669287"><ele>29.0</ele><time>2026-05-04T14:23:38.391Z</time></trkpt><trkpt lat="44.875673" lon="10.4670033"><ele>29.0</ele><time>2026-05-04T14:23:39.39Z</time></trkpt><trkpt lat="44.8757103" lon="10.4670807"><ele>28.999999999999996</ele><time>2026-05-04T14:23:40.39Z</time></trkpt><trkpt lat="44.8757491" lon="10.4671629"><ele>29.0</ele><time>2026-05-04T14:23:41.391Z</time></trkpt><trkpt lat="44.8758089" lon="10.467331"><ele>29.333333333333332</ele><time>2026-05-04T14:23:43.39Z</time></trkpt><trkpt lat="44.8758302" lon="10.4674146"><ele>29.666666666666664</ele><time>2026-05-04T14:23:44.391Z</time></trkpt><trkpt lat="44.8758723" lon="10.4675811"><ele>30.0</ele><time>2026-05-04T14:23:46.39Z</time></trkpt><trkpt lat="44.8758864" lon="10.4676694"><ele>30.333333333333336</ele><time>2026-05-04T14:23:47.391Z</time></trkpt><trkpt lat="44.8758991" lon="10.4677586"><ele>30.666666666666668</ele><time>2026-05-04T14:23:48.391Z</time></trkpt><trkpt lat="44.875918" lon="10.4679037"><ele>31.0</ele><time>2026-05-04T14:23:50.391Z</time></trkpt><trkpt lat="44.8759151" lon="10.4680599"><ele>31.0</ele><time>2026-05-04T14:23:52.391Z</time></trkpt><trkpt lat="44.8759074" lon="10.4682361"><ele>31.0</ele><time>2026-05-04T14:23:54.39Z</time></trkpt><trkpt lat="44.875891" lon="10.4683983"><ele>31.0</ele><time>2026-05-04T14:23:56.39Z</time></trkpt><trkpt lat="44.8758757" lon="10.4685612"><ele>31.0</ele><time>2026-05-04T14:23:58.391Z</time></trkpt><trkpt lat="44.8758396" lon="10.468714"><ele>30.666666666666668</ele><time>2026-05-04T14:24:00.391Z</time></trkpt><trkpt lat="44.875812" lon="10.4687971"><ele>30.333333333333336</ele><time>2026-05-04T14:24:01.391Z</time></trkpt><trkpt lat="44.8757817" lon="10.4688768"><ele>30.0</ele><time>2026-05-04T14:24:02.39Z</time></trkpt><trkpt lat="44.8757243" lon="10.4690087"><ele>29.666666666666664</ele><time>2026-05-04T14:24:04.39Z</time></trkpt><trkpt lat="44.8756863" lon="10.4690803"><ele>29.333333333333332</ele><time>2026-05-04T14:24:05.391Z</time></trkpt><trkpt lat="44.8756108" lon="10.4692249"><ele>29.0</ele><time>2026-05-04T14:24:07.391Z</time></trkpt><trkpt lat="44.8755509" lon="10.4693715"><ele>29.0</ele><time>2026-05-04T14:24:09.39Z</time></trkpt><trkpt lat="44.8755084" lon="10.469444"><ele>29.0</ele><time>2026-05-04T14:24:10.39Z</time></trkpt><trkpt lat="44.8754433" lon="10.4695919"><ele>29.0</ele><time>2026-05-04T14:24:12.391Z</time></trkpt><trkpt lat="44.875388" lon="10.469742"><ele>29.0</ele><time>2026-05-04T14:24:14.391Z</time></trkpt><trkpt lat="44.8753291" lon="10.4698856"><ele>29.0</ele><time>2026-05-04T14:24:16.39Z</time></trkpt><trkpt lat="44.8752723" lon="10.4700249"><ele>29.2</ele><time>2026-05-04T14:24:18.391Z</time></trkpt><trkpt lat="44.8752307" lon="10.4700947"><ele>29.4</ele><time>2026-05-04T14:24:19.391Z</time></trkpt><trkpt lat="44.8751573" lon="10.4702238"><ele>29.6</ele><time>2026-05-04T14:24:21.39Z</time></trkpt><trkpt lat="44.8751005" lon="10.4703709"><ele>29.8</ele><time>2026-05-04T14:24:23.39Z</time></trkpt><trkpt lat="44.8750294" lon="10.4705119"><ele>30.0</ele><time>2026-05-04T14:24:25.39Z</time></trkpt><trkpt lat="44.8749391" lon="10.4706339"><ele>30.0</ele><time>2026-05-04T14:24:27.39Z</time></trkpt><trkpt lat="44.8748918" lon="10.4706943"><ele>30.0</ele><time>2026-05-04T14:24:28.39Z</time></trkpt><trkpt lat="44.8748033" lon="10.4707995"><ele>30.0</ele><time>2026-05-04T14:24:30.391Z</time></trkpt><trkpt lat="44.8747087" lon="10.4708902"><ele>30.0</ele><time>2026-05-04T14:24:32.391Z</time></trkpt><trkpt lat="44.87462" lon="10.4709786"><ele>30.0</ele><time>2026-05-04T14:24:34.39Z</time></trkpt><trkpt lat="44.8745302" lon="10.4710855"><ele>30.0</ele><time>2026-05-04T14:24:36.39Z</time></trkpt><trkpt lat="44.8744397" lon="10.4711838"><ele>30.0</ele><time>2026-05-04T14:24:38.391Z</time></trkpt><trkpt lat="44.8743447" lon="10.4712795"><ele>30.0</ele><time>2026-05-04T14:24:40.391Z</time></trkpt><trkpt lat="44.8742916" lon="10.4713321"><ele>30.0</ele><time>2026-05-04T14:24:41.39Z</time></trkpt><trkpt lat="44.8741984" lon="10.4714465"><ele>30.0</ele><time>2026-05-04T14:24:43.39Z</time></trkpt><trkpt lat="44.8741086" lon="10.4715512"><ele>29.8</ele><time>2026-05-04T14:24:45.391Z</time></trkpt><trkpt lat="44.874035" lon="10.4716776"><ele>29.6</ele><time>2026-05-04T14:24:47.391Z</time></trkpt><trkpt lat="44.8739983" lon="10.4717523"><ele>29.4</ele><time>2026-05-04T14:24:48.39Z</time></trkpt><trkpt lat="44.8739551" lon="10.4719047"><ele>29.2</ele><time>2026-05-04T14:24:50.391Z</time></trkpt><trkpt lat="44.8739112" lon="10.4720622"><ele>29.0</ele><time>2026-05-04T14:24:52.391Z</time></trkpt><trkpt lat="44.8738943" lon="10.4721529"><ele>29.0</ele><time>2026-05-04T14:24:53.391Z</time></trkpt><trkpt lat="44.8738672" lon="10.472244"><ele>29.0</ele><time>2026-05-04T14:24:54.391Z</time></trkpt><trkpt lat="44.8738314" lon="10.4723873"><ele>29.0</ele><time>2026-05-04T14:24:56.391Z</time></trkpt><trkpt lat="44.8737925" lon="10.4725499"><ele>29.0</ele><time>2026-05-04T14:24:58.39Z</time></trkpt><trkpt lat="44.8737348" lon="10.4727053"><ele>29.0</ele><time>2026-05-04T14:25:00.39Z</time></trkpt><trkpt lat="44.873693" lon="10.4728695"><ele>29.25</ele><time>2026-05-04T14:25:02.391Z</time></trkpt><trkpt lat="44.8736542" lon="10.4730331"><ele>29.5</ele><time>2026-05-04T14:25:04.39Z</time></trkpt><trkpt lat="44.8736342" lon="10.4732142"><ele>29.75</ele><time>2026-05-04T14:25:06.39Z</time></trkpt><trkpt lat="44.8735947" lon="10.4733847"><ele>30.0</ele><time>2026-05-04T14:25:08.39Z</time></trkpt><trkpt lat="44.8735862" lon="10.4735484"><ele>30.0</ele><time>2026-05-04T14:25:10.391Z</time></trkpt><trkpt lat="44.8735902" lon="10.4736386"><ele>30.0</ele><time>2026-05-04T14:25:11.391Z</time></trkpt><trkpt lat="44.8736031" lon="10.4738154"><ele>30.0</ele><time>2026-05-04T14:25:13.39Z</time></trkpt><trkpt lat="44.8736151" lon="10.4739086"><ele>30.0</ele><time>2026-05-04T14:25:14.39Z</time></trkpt><trkpt lat="44.8736446" lon="10.4740777"><ele>30.0</ele><time>2026-05-04T14:25:16.39Z</time></trkpt><trkpt lat="44.8736585" lon="10.4741712"><ele>30.0</ele><time>2026-05-04T14:25:17.39Z</time></trkpt><trkpt lat="44.8737118" lon="10.4743307"><ele>29.8</ele><time>2026-05-04T14:25:19.39Z</time></trkpt><trkpt lat="44.8737725" lon="10.4744901"><ele>29.6</ele><time>2026-05-04T14:25:21.391Z</time></trkpt><trkpt lat="44.8738399" lon="10.4746431"><ele>29.4</ele><time>2026-05-04T14:25:23.39Z</time></trkpt><trkpt lat="44.8739234" lon="10.4747789"><ele>29.2</ele><time>2026-05-04T14:25:25.391Z</time></trkpt><trkpt lat="44.873964" lon="10.4748518"><ele>29.0</ele><time>2026-05-04T14:25:26.391Z</time></trkpt><trkpt lat="44.8740132" lon="10.4749152"><ele>28.666666666666664</ele><time>2026-05-04T14:25:27.39Z</time></trkpt><trkpt lat="44.8740604" lon="10.4749865"><ele>28.333333333333332</ele><time>2026-05-04T14:25:28.391Z</time></trkpt><trkpt lat="44.8741536" lon="10.4751223"><ele>28.0</ele><time>2026-05-04T14:25:30.391Z</time></trkpt><trkpt lat="44.8742035" lon="10.4751893"><ele>27.666666666666664</ele><time>2026-05-04T14:25:31.39Z</time></trkpt><trkpt lat="44.8742575" lon="10.4752479"><ele>27.333333333333332</ele><time>2026-05-04T14:25:32.39Z</time></trkpt><trkpt lat="44.8743089" lon="10.4753001"><ele>27.0</ele><time>2026-05-04T14:25:33.391Z</time></trkpt><trkpt lat="44.8743618" lon="10.4753597"><ele>26.833333333333332</ele><time>2026-05-04T14:25:34.391Z</time></trkpt><trkpt lat="44.8744595" lon="10.4754697"><ele>26.666666666666664</ele><time>2026-05-04T14:25:36.39Z</time></trkpt><trkpt lat="44.8745139" lon="10.4755226"><ele>26.5</ele><time>2026-05-04T14:25:37.39Z</time></trkpt><trkpt lat="44.8745701" lon="10.4755656"><ele>26.333333333333332</ele><time>2026-05-04T14:25:38.39Z</time></trkpt><trkpt lat="44.8746274" lon="10.4756158"><ele>26.166666666666664</ele><time>2026-05-04T14:25:39.39Z</time></trkpt><trkpt lat="44.8746862" lon="10.4756603"><ele>26.0</ele><time>2026-05-04T14:25:40.391Z</time></trkpt><trkpt lat="44.874812" lon="10.4757195"><ele>26.0</ele><time>2026-05-04T14:25:42.39Z</time></trkpt><trkpt lat="44.8749346" lon="10.4757572"><ele>26.0</ele><time>2026-05-04T14:25:44.39Z</time></trkpt><trkpt lat="44.8750631" lon="10.4757558"><ele>26.0</ele><time>2026-05-04T14:25:46.391Z</time></trkpt><trkpt lat="44.875128" lon="10.4757479"><ele>26.0</ele><time>2026-05-04T14:25:47.39Z</time></trkpt><trkpt lat="44.8751944" lon="10.4757372"><ele>26.0</ele><time>2026-05-04T14:25:48.391Z</time></trkpt><trkpt lat="44.8752544" lon="10.4757024"><ele>26.142857142857142</ele><time>2026-05-04T14:25:49.391Z</time></trkpt><trkpt lat="44.8753145" lon="10.4756731"><ele>26.28571428571429</ele><time>2026-05-04T14:25:50.39Z</time></trkpt><trkpt lat="44.8753668" lon="10.4756206"><ele>26.42857142857143</ele><time>2026-05-04T14:25:51.391Z</time></trkpt><trkpt lat="44.8754554" lon="10.4755021"><ele>26.57142857142857</ele><time>2026-05-04T14:25:53.39Z</time></trkpt><trkpt lat="44.8754968" lon="10.4754296"><ele>26.714285714285715</ele><time>2026-05-04T14:25:54.391Z</time></trkpt><trkpt lat="44.8755425" lon="10.4753597"><ele>26.857142857142858</ele><time>2026-05-04T14:25:55.39Z</time></trkpt><trkpt lat="44.8755757" lon="10.4752789"><ele>27.0</ele><time>2026-05-04T14:25:56.391Z</time></trkpt><trkpt lat="44.8756099" lon="10.4751984"><ele>27.166666666666668</ele><time>2026-05-04T14:25:57.391Z</time></trkpt><trkpt lat="44.8756401" lon="10.4751154"><ele>27.333333333333336</ele><time>2026-05-04T14:25:58.39Z</time></trkpt><trkpt lat="44.8756808" lon="10.4750406"><ele>27.5</ele><time>2026-05-04T14:25:59.391Z</time></trkpt><trkpt lat="44.8757577" lon="10.4748918"><ele>27.666666666666668</ele><time>2026-05-04T14:26:01.391Z</time></trkpt><trkpt lat="44.8757986" lon="10.4748189"><ele>27.833333333333336</ele><time>2026-05-04T14:26:02.391Z</time></trkpt><trkpt lat="44.8758352" lon="10.4747398"><ele>28.0</ele><time>2026-05-04T14:26:03.39Z</time></trkpt><trkpt lat="44.8759055" lon="10.4746083"><ele>27.833333333333336</ele><time>2026-05-04T14:26:05.391Z</time></trkpt><trkpt lat="44.8759424" lon="10.474531"><ele>27.666666666666668</ele><time>2026-05-04T14:26:06.391Z</time></trkpt><trkpt lat="44.8759839" lon="10.4744547"><ele>27.5</ele><time>2026-05-04T14:26:07.39Z</time></trkpt><trkpt lat="44.8760251" lon="10.4743791"><ele>27.333333333333336</ele><time>2026-05-04T14:26:08.39Z</time></trkpt><trkpt lat="44.8760564" lon="10.4742894"><ele>27.166666666666668</ele><time>2026-05-04T14:26:09.391Z</time></trkpt><trkpt lat="44.8761276" lon="10.4741453"><ele>27.0</ele><time>2026-05-04T14:26:11.39Z</time></trkpt><trkpt lat="44.876165" lon="10.4740625"><ele>27.0</ele><time>2026-05-04T14:26:12.391Z</time></trkpt><trkpt lat="44.8762062" lon="10.4739847"><ele>27.0</ele><time>2026-05-04T14:26:13.39Z</time></trkpt><trkpt lat="44.8762418" lon="10.4738992"><ele>27.0</ele><time>2026-05-04T14:26:14.39Z</time></trkpt><trkpt lat="44.8762781" lon="10.4738219"><ele>27.0</ele><time>2026-05-04T14:26:15.39Z</time></trkpt><trkpt lat="44.8763182" lon="10.4737437"><ele>27.0</ele><time>2026-05-04T14:26:16.39Z</time></trkpt><trkpt lat="44.8763617" lon="10.4736694"><ele>27.0</ele><time>2026-05-04T14:26:17.391Z</time></trkpt><trkpt lat="44.8764098" lon="10.473605"><ele>27.0</ele><time>2026-05-04T14:26:18.391Z</time></trkpt><trkpt lat="44.8764634" lon="10.4735528"><ele>27.0</ele><time>2026-05-04T14:26:19.39Z</time></trkpt><trkpt lat="44.8765139" lon="10.4734864"><ele>27.0</ele><time>2026-05-04T14:26:20.391Z</time></trkpt><trkpt lat="44.8765659" lon="10.4734242"><ele>27.0</ele><time>2026-05-04T14:26:21.391Z</time></trkpt><trkpt lat="44.8766187" lon="10.4733702"><ele>27.0</ele><time>2026-05-04T14:26:22.39Z</time></trkpt><trkpt lat="44.8766775" lon="10.4733119"><ele>27.0</ele><time>2026-05-04T14:26:23.39Z</time></trkpt><trkpt lat="44.8767256" lon="10.4732481"><ele>27.0</ele><time>2026-05-04T14:26:24.39Z</time></trkpt><trkpt lat="44.8768102" lon="10.4731352"><ele>27.0</ele><time>2026-05-04T14:26:26.39Z</time></trkpt><trkpt lat="44.8768955" lon="10.4730186"><ele>27.0</ele><time>2026-05-04T14:26:28.39Z</time></trkpt><trkpt lat="44.8769386" lon="10.4729473"><ele>27.0</ele><time>2026-05-04T14:26:29.391Z</time></trkpt><trkpt lat="44.8769845" lon="10.4728846"><ele>27.0</ele><time>2026-05-04T14:26:30.391Z</time></trkpt><trkpt lat="44.8770316" lon="10.47282"><ele>27.0</ele><time>2026-05-04T14:26:31.39Z</time></trkpt><trkpt lat="44.8770845" lon="10.4727578"><ele>27.0</ele><time>2026-05-04T14:26:32.39Z</time></trkpt><trkpt lat="44.8771371" lon="10.4726922"><ele>27.285714285714285</ele><time>2026-05-04T14:26:33.39Z</time></trkpt><trkpt lat="44.8771837" lon="10.4726315"><ele>27.57142857142857</ele><time>2026-05-04T14:26:34.39Z</time></trkpt><trkpt lat="44.8772236" lon="10.4725563"><ele>27.85714285714286</ele><time>2026-05-04T14:26:35.391Z</time></trkpt><trkpt lat="44.8772719" lon="10.4724957"><ele>28.142857142857146</ele><time>2026-05-04T14:26:36.391Z</time></trkpt><trkpt lat="44.8773243" lon="10.4724312"><ele>28.42857142857143</ele><time>2026-05-04T14:26:37.391Z</time></trkpt><trkpt lat="44.8773681" lon="10.4723599"><ele>28.71428571428572</ele><time>2026-05-04T14:26:38.39Z</time></trkpt><trkpt lat="44.8774123" lon="10.4722922"><ele>29.000000000000004</ele><time>2026-05-04T14:26:39.391Z</time></trkpt><trkpt lat="44.877498" lon="10.4721722"><ele>29.000000000000004</ele><time>2026-05-04T14:26:41.39Z</time></trkpt><trkpt lat="44.8775432" lon="10.4721092"><ele>29.0</ele><time>2026-05-04T14:26:42.391Z</time></trkpt><trkpt lat="44.877603" lon="10.4720544"><ele>29.000000000000004</ele><time>2026-05-04T14:26:43.391Z</time></trkpt><trkpt lat="44.8776585" lon="10.472"><ele>29.000000000000004</ele><time>2026-05-04T14:26:44.391Z</time></trkpt><trkpt lat="44.8777089" lon="10.4719413"><ele>29.0</ele><time>2026-05-04T14:26:45.39Z</time></trkpt><trkpt lat="44.8777627" lon="10.4718792"><ele>29.000000000000004</ele><time>2026-05-04T14:26:46.39Z</time></trkpt><trkpt lat="44.8778165" lon="10.4718199"><ele>29.000000000000004</ele><time>2026-05-04T14:26:47.391Z</time></trkpt><trkpt lat="44.8778742" lon="10.4717679"><ele>28.666666666666664</ele><time>2026-05-04T14:26:48.39Z</time></trkpt><trkpt lat="44.8779297" lon="10.4717021"><ele>28.333333333333332</ele><time>2026-05-04T14:26:49.39Z</time></trkpt><trkpt lat="44.8779761" lon="10.4716406"><ele>28.0</ele><time>2026-05-04T14:26:50.391Z</time></trkpt><trkpt lat="44.8780307" lon="10.4715816"><ele>27.666666666666664</ele><time>2026-05-04T14:26:51.391Z</time></trkpt><trkpt lat="44.8780904" lon="10.4715196"><ele>27.333333333333332</ele><time>2026-05-04T14:26:52.39Z</time></trkpt><trkpt lat="44.8781956" lon="10.471437"><ele>27.0</ele><time>2026-05-04T14:26:54.39Z</time></trkpt><trkpt lat="44.878248" lon="10.4713832"><ele>27.0</ele><time>2026-05-04T14:26:55.39Z</time></trkpt><trkpt lat="44.8783542" lon="10.4712824"><ele>27.000000000000004</ele><time>2026-05-04T14:26:57.391Z</time></trkpt><trkpt lat="44.8784205" lon="10.4712475"><ele>27.000000000000004</ele><time>2026-05-04T14:26:58.391Z</time></trkpt><trkpt lat="44.87854" lon="10.4711794"><ele>27.0</ele><time>2026-05-04T14:27:00.391Z</time></trkpt><trkpt lat="44.8785998" lon="10.4711417"><ele>27.0</ele><time>2026-05-04T14:27:01.391Z</time></trkpt><trkpt lat="44.8786611" lon="10.4711065"><ele>27.142857142857142</ele><time>2026-05-04T14:27:02.39Z</time></trkpt><trkpt lat="44.8787219" lon="10.4710587"><ele>27.285714285714285</ele><time>2026-05-04T14:27:03.391Z</time></trkpt><trkpt lat="44.8787809" lon="10.4710222"><ele>27.42857142857143</ele><time>2026-05-04T14:27:04.39Z</time></trkpt><trkpt lat="44.8788461" lon="10.4709984"><ele>27.57142857142857</ele><time>2026-05-04T14:27:05.391Z</time></trkpt><trkpt lat="44.8789144" lon="10.4709738"><ele>27.714285714285715</ele><time>2026-05-04T14:27:06.39Z</time></trkpt><trkpt lat="44.8789787" lon="10.470933"><ele>27.857142857142858</ele><time>2026-05-04T14:27:07.391Z</time></trkpt><trkpt lat="44.8790456" lon="10.4708954"><ele>28.0</ele><time>2026-05-04T14:27:08.391Z</time></trkpt><trkpt lat="44.8791084" lon="10.4708588"><ele>28.000000000000004</ele><time>2026-05-04T14:27:09.391Z</time></trkpt><trkpt lat="44.8791672" lon="10.4708226"><ele>28.0</ele><time>2026-05-04T14:27:10.39Z</time></trkpt><trkpt lat="44.8792241" lon="10.4707777"><ele>28.0</ele><time>2026-05-04T14:27:11.391Z</time></trkpt><trkpt lat="44.8792844" lon="10.4707361"><ele>28.0</ele><time>2026-05-04T14:27:12.39Z</time></trkpt><trkpt lat="44.8793436" lon="10.47069"><ele>28.000000000000004</ele><time>2026-05-04T14:27:13.391Z</time></trkpt><trkpt lat="44.8794119" lon="10.4706491"><ele>28.0</ele><time>2026-05-04T14:27:14.391Z</time></trkpt><trkpt lat="44.8795153" lon="10.4705542"><ele>28.166666666666668</ele><time>2026-05-04T14:27:16.39Z</time></trkpt><trkpt lat="44.8796087" lon="10.4704598"><ele>28.333333333333336</ele><time>2026-05-04T14:27:18.39Z</time></trkpt><trkpt lat="44.8796618" lon="10.4704024"><ele>28.5</ele><time>2026-05-04T14:27:19.391Z</time></trkpt><trkpt lat="44.8797651" lon="10.4702964"><ele>28.666666666666664</ele><time>2026-05-04T14:27:21.39Z</time></trkpt><trkpt lat="44.8798157" lon="10.4702362"><ele>28.833333333333332</ele><time>2026-05-04T14:27:22.391Z</time></trkpt><trkpt lat="44.8798679" lon="10.4701787"><ele>29.0</ele><time>2026-05-04T14:27:23.39Z</time></trkpt><trkpt lat="44.8799206" lon="10.4701268"><ele>29.0</ele><time>2026-05-04T14:27:24.39Z</time></trkpt><trkpt lat="44.880016" lon="10.4700125"><ele>29.0</ele><time>2026-05-04T14:27:26.39Z</time></trkpt><trkpt lat="44.8800688" lon="10.4699571"><ele>29.0</ele><time>2026-05-04T14:27:27.39Z</time></trkpt><trkpt lat="44.8801596" lon="10.4698532"><ele>29.0</ele><time>2026-05-04T14:27:29.39Z</time></trkpt><trkpt lat="44.8802475" lon="10.4697392"><ele>29.0</ele><time>2026-05-04T14:27:31.39Z</time></trkpt><trkpt lat="44.8803318" lon="10.4696242"><ele>28.499999999999996</ele><time>2026-05-04T14:27:33.39Z</time></trkpt><trkpt lat="44.8804253" lon="10.4695075"><ele>28.0</ele><time>2026-05-04T14:27:35.391Z</time></trkpt><trkpt lat="44.8804697" lon="10.4694373"><ele>27.5</ele><time>2026-05-04T14:27:36.391Z</time></trkpt><trkpt lat="44.8805142" lon="10.4693703"><ele>27.0</ele><time>2026-05-04T14:27:37.391Z</time></trkpt><trkpt lat="44.8805539" lon="10.4692995"><ele>26.499999999999996</ele><time>2026-05-04T14:27:38.39Z</time></trkpt><trkpt lat="44.8806318" lon="10.469167"><ele>26.0</ele><time>2026-05-04T14:27:40.39Z</time></trkpt><trkpt lat="44.8806808" lon="10.4691054"><ele>26.0</ele><time>2026-05-04T14:27:41.39Z</time></trkpt><trkpt lat="44.8807188" lon="10.4690344"><ele>26.0</ele><time>2026-05-04T14:27:42.391Z</time></trkpt><trkpt lat="44.8807634" lon="10.4689662"><ele>26.0</ele><time>2026-05-04T14:27:43.391Z</time></trkpt><trkpt lat="44.8808078" lon="10.4688989"><ele>26.0</ele><time>2026-05-04T14:27:44.39Z</time></trkpt><trkpt lat="44.8808943" lon="10.4687746"><ele>26.0</ele><time>2026-05-04T14:27:46.39Z</time></trkpt><trkpt lat="44.8809443" lon="10.4687104"><ele>26.0</ele><time>2026-05-04T14:27:47.391Z</time></trkpt><trkpt lat="44.8809861" lon="10.4686412"><ele>26.0</ele><time>2026-05-04T14:27:48.391Z</time></trkpt><trkpt lat="44.8810663" lon="10.4684959"><ele>26.428571428571427</ele><time>2026-05-04T14:27:50.39Z</time></trkpt><trkpt lat="44.8811111" lon="10.4684327"><ele>26.85714285714286</ele><time>2026-05-04T14:27:51.39Z</time></trkpt><trkpt lat="44.8812074" lon="10.4683213"><ele>27.28571428571429</ele><time>2026-05-04T14:27:53.391Z</time></trkpt><trkpt lat="44.8812649" lon="10.4682796"><ele>27.714285714285715</ele><time>2026-05-04T14:27:54.391Z</time></trkpt><trkpt lat="44.8813256" lon="10.4682461"><ele>28.142857142857146</ele><time>2026-05-04T14:27:55.39Z</time></trkpt><trkpt lat="44.8813887" lon="10.4682273"><ele>28.571428571428577</ele><time>2026-05-04T14:27:56.39Z</time></trkpt><trkpt lat="44.8814509" lon="10.4682072"><ele>29.000000000000004</ele><time>2026-05-04T14:27:57.391Z</time></trkpt><trkpt lat="44.8815209" lon="10.468188"><ele>28.999999999999996</ele><time>2026-05-04T14:27:58.391Z</time></trkpt><trkpt lat="44.8816301" lon="10.4681703"><ele>29.0</ele><time>2026-05-04T14:28:00.39Z</time></trkpt><trkpt lat="44.8816908" lon="10.4681457"><ele>29.0</ele><time>2026-05-04T14:28:01.391Z</time></trkpt><trkpt lat="44.8818135" lon="10.4681195"><ele>29.0</ele><time>2026-05-04T14:28:03.39Z</time></trkpt><trkpt lat="44.88188" lon="10.4681102"><ele>28.999999999999996</ele><time>2026-05-04T14:28:04.391Z</time></trkpt><trkpt lat="44.881946" lon="10.4680881"><ele>29.0</ele><time>2026-05-04T14:28:05.39Z</time></trkpt><trkpt lat="44.8820127" lon="10.4680643"><ele>29.4</ele><time>2026-05-04T14:28:06.391Z</time></trkpt><trkpt lat="44.8821358" lon="10.4680352"><ele>29.799999999999997</ele><time>2026-05-04T14:28:08.391Z</time></trkpt><trkpt lat="44.8822063" lon="10.4680332"><ele>30.200000000000003</ele><time>2026-05-04T14:28:09.391Z</time></trkpt><trkpt lat="44.8822717" lon="10.4680576"><ele>30.6</ele><time>2026-05-04T14:28:10.391Z</time></trkpt><trkpt lat="44.8823794" lon="10.4681576"><ele>31.0</ele><time>2026-05-04T14:28:12.39Z</time></trkpt><trkpt lat="44.88245" lon="10.4682853"><ele>31.0</ele><time>2026-05-04T14:28:14.391Z</time></trkpt><trkpt lat="44.8825129" lon="10.4684413"><ele>31.0</ele><time>2026-05-04T14:28:16.391Z</time></trkpt><trkpt lat="44.8825493" lon="10.4685171"><ele>31.0</ele><time>2026-05-04T14:28:17.39Z</time></trkpt><trkpt lat="44.8826148" lon="10.4686646"><ele>31.0</ele><time>2026-05-04T14:28:19.391Z</time></trkpt><trkpt lat="44.8826569" lon="10.4688107"><ele>31.0</ele><time>2026-05-04T14:28:21.391Z</time></trkpt><trkpt lat="44.8827156" lon="10.4689481"><ele>30.28571428571429</ele><time>2026-05-04T14:28:23.391Z</time></trkpt><trkpt lat="44.8827891" lon="10.4690799"><ele>29.571428571428577</ele><time>2026-05-04T14:28:25.39Z</time></trkpt><trkpt lat="44.8828252" lon="10.4691586"><ele>28.857142857142858</ele><time>2026-05-04T14:28:26.39Z</time></trkpt><trkpt lat="44.882863" lon="10.4692297"><ele>28.142857142857146</ele><time>2026-05-04T14:28:27.391Z</time></trkpt><trkpt lat="44.8829075" lon="10.4693043"><ele>27.42857142857143</ele><time>2026-05-04T14:28:28.39Z</time></trkpt><trkpt lat="44.8829486" lon="10.4693719"><ele>26.714285714285715</ele><time>2026-05-04T14:28:29.39Z</time></trkpt><trkpt lat="44.8829914" lon="10.4694375"><ele>26.0</ele><time>2026-05-04T14:28:30.391Z</time></trkpt><trkpt lat="44.8830749" lon="10.4695727"><ele>25.75</ele><time>2026-05-04T14:28:32.391Z</time></trkpt><trkpt lat="44.8831601" lon="10.4696977"><ele>25.5</ele><time>2026-05-04T14:28:34.39Z</time></trkpt><trkpt lat="44.88325" lon="10.4698155"><ele>25.25</ele><time>2026-05-04T14:28:36.391Z</time></trkpt><trkpt lat="44.8833484" lon="10.4699268"><ele>25.0</ele><time>2026-05-04T14:28:38.39Z</time></trkpt><trkpt lat="44.8834424" lon="10.470039"><ele>25.000000000000004</ele><time>2026-05-04T14:28:40.39Z</time></trkpt><trkpt lat="44.8834953" lon="10.4700924"><ele>25.0</ele><time>2026-05-04T14:28:41.391Z</time></trkpt><trkpt lat="44.8835477" lon="10.4701515"><ele>25.0</ele><time>2026-05-04T14:28:42.391Z</time></trkpt><trkpt lat="44.8836031" lon="10.4702041"><ele>25.0</ele><time>2026-05-04T14:28:43.39Z</time></trkpt><trkpt lat="44.8836577" lon="10.4702494"><ele>25.000000000000004</ele><time>2026-05-04T14:28:44.391Z</time></trkpt><trkpt lat="44.8837146" lon="10.4702974"><ele>25.0</ele><time>2026-05-04T14:28:45.39Z</time></trkpt><trkpt lat="44.8838159" lon="10.4703962"><ele>25.666666666666668</ele><time>2026-05-04T14:28:47.391Z</time></trkpt><trkpt lat="44.8839227" lon="10.470492"><ele>26.333333333333336</ele><time>2026-05-04T14:28:49.39Z</time></trkpt><trkpt lat="44.8839791" lon="10.4705335"><ele>27.0</ele><time>2026-05-04T14:28:50.391Z</time></trkpt><trkpt lat="44.8840426" lon="10.4705686"><ele>27.666666666666664</ele><time>2026-05-04T14:28:51.39Z</time></trkpt><trkpt lat="44.8841046" lon="10.4706087"><ele>28.333333333333332</ele><time>2026-05-04T14:28:52.39Z</time></trkpt><trkpt lat="44.8841769" lon="10.4706419"><ele>29.0</ele><time>2026-05-04T14:28:53.39Z</time></trkpt><trkpt lat="44.8842416" lon="10.4706706"><ele>28.799999999999997</ele><time>2026-05-04T14:28:54.39Z</time></trkpt><trkpt lat="44.8843048" lon="10.4706902"><ele>28.599999999999998</ele><time>2026-05-04T14:28:55.39Z</time></trkpt><trkpt lat="44.8844174" lon="10.4707325"><ele>28.4</ele><time>2026-05-04T14:28:57.39Z</time></trkpt><trkpt lat="44.8845418" lon="10.4707817"><ele>28.2</ele><time>2026-05-04T14:28:59.391Z</time></trkpt><trkpt lat="44.8846066" lon="10.4707933"><ele>28.0</ele><time>2026-05-04T14:29:00.39Z</time></trkpt><trkpt lat="44.8847267" lon="10.4708046"><ele>28.0</ele><time>2026-05-04T14:29:02.391Z</time></trkpt><trkpt lat="44.8847903" lon="10.4708092"><ele>28.0</ele><time>2026-05-04T14:29:03.39Z</time></trkpt><trkpt lat="44.8849101" lon="10.4708124"><ele>28.0</ele><time>2026-05-04T14:29:05.391Z</time></trkpt><trkpt lat="44.8849763" lon="10.4708164"><ele>28.0</ele><time>2026-05-04T14:29:06.39Z</time></trkpt><trkpt lat="44.8850453" lon="10.4708257"><ele>28.0</ele><time>2026-05-04T14:29:07.391Z</time></trkpt><trkpt lat="44.8851088" lon="10.470822"><ele>28.0</ele><time>2026-05-04T14:29:08.391Z</time></trkpt><trkpt lat="44.8851737" lon="10.4708184"><ele>28.0</ele><time>2026-05-04T14:29:09.391Z</time></trkpt><trkpt lat="44.8852957" lon="10.4707987"><ele>28.142857142857142</ele><time>2026-05-04T14:29:11.39Z</time></trkpt><trkpt lat="44.8853569" lon="10.470777"><ele>28.285714285714285</ele><time>2026-05-04T14:29:12.39Z</time></trkpt><trkpt lat="44.8854733" lon="10.4707423"><ele>28.42857142857143</ele><time>2026-05-04T14:29:14.39Z</time></trkpt><trkpt lat="44.8855328" lon="10.4707132"><ele>28.571428571428573</ele><time>2026-05-04T14:29:15.39Z</time></trkpt><trkpt lat="44.8855941" lon="10.4706886"><ele>28.714285714285715</ele><time>2026-05-04T14:29:16.39Z</time></trkpt><trkpt lat="44.8856609" lon="10.4706521"><ele>28.85714285714286</ele><time>2026-05-04T14:29:17.391Z</time></trkpt><trkpt lat="44.8857225" lon="10.4706222"><ele>29.000000000000004</ele><time>2026-05-04T14:29:18.39Z</time></trkpt><trkpt lat="44.8858304" lon="10.4705413"><ele>28.999999999999996</ele><time>2026-05-04T14:29:20.391Z</time></trkpt><trkpt lat="44.8858879" lon="10.4704975"><ele>29.0</ele><time>2026-05-04T14:29:21.391Z</time></trkpt><trkpt lat="44.885986" lon="10.4704173"><ele>29.0</ele><time>2026-05-04T14:29:23.391Z</time></trkpt><trkpt lat="44.8860921" lon="10.4703247"><ele>29.0</ele><time>2026-05-04T14:29:25.391Z</time></trkpt><trkpt lat="44.8861528" lon="10.4702874"><ele>28.999999999999996</ele><time>2026-05-04T14:29:26.391Z</time></trkpt><trkpt lat="44.8862112" lon="10.4702309"><ele>29.0</ele><time>2026-05-04T14:29:27.391Z</time></trkpt><trkpt lat="44.8862658" lon="10.4701756"><ele>29.2</ele><time>2026-05-04T14:29:28.39Z</time></trkpt><trkpt lat="44.8863677" lon="10.4700503"><ele>29.4</ele><time>2026-05-04T14:29:30.391Z</time></trkpt><trkpt lat="44.8864119" lon="10.4699779"><ele>29.6</ele><time>2026-05-04T14:29:31.391Z</time></trkpt><trkpt lat="44.8864672" lon="10.4699184"><ele>29.8</ele><time>2026-05-04T14:29:32.39Z</time></trkpt><trkpt lat="44.8865131" lon="10.4698532"><ele>30.0</ele><time>2026-05-04T14:29:33.391Z</time></trkpt><trkpt lat="44.8866032" lon="10.4697348"><ele>30.0</ele><time>2026-05-04T14:29:35.39Z</time></trkpt><trkpt lat="44.8866515" lon="10.4696736"><ele>30.0</ele><time>2026-05-04T14:29:36.391Z</time></trkpt><trkpt lat="44.8867409" lon="10.4695536"><ele>30.0</ele><time>2026-05-04T14:29:38.391Z</time></trkpt><trkpt lat="44.8867854" lon="10.4694835"><ele>30.0</ele><time>2026-05-04T14:29:39.39Z</time></trkpt><trkpt lat="44.886874" lon="10.4693639"><ele>30.0</ele><time>2026-05-04T14:29:41.39Z</time></trkpt><trkpt lat="44.8869296" lon="10.4693091"><ele>30.0</ele><time>2026-05-04T14:29:42.39Z</time></trkpt><trkpt lat="44.8869786" lon="10.4692439"><ele>30.142857142857146</ele><time>2026-05-04T14:29:43.391Z</time></trkpt><trkpt lat="44.887022" lon="10.4691726"><ele>30.285714285714285</ele><time>2026-05-04T14:29:44.391Z</time></trkpt><trkpt lat="44.8870708" lon="10.4691062"><ele>30.42857142857143</ele><time>2026-05-04T14:29:45.391Z</time></trkpt><trkpt lat="44.8871146" lon="10.4690422"><ele>30.571428571428573</ele><time>2026-05-04T14:29:46.39Z</time></trkpt><trkpt lat="44.8871597" lon="10.4689723"><ele>30.714285714285715</ele><time>2026-05-04T14:29:47.391Z</time></trkpt><trkpt lat="44.8872478" lon="10.4688655"><ele>30.857142857142858</ele><time>2026-05-04T14:29:49.391Z</time></trkpt><trkpt lat="44.8872932" lon="10.4687989"><ele>31.0</ele><time>2026-05-04T14:29:50.391Z</time></trkpt><trkpt lat="44.8873849" lon="10.4686748"><ele>31.200000000000003</ele><time>2026-05-04T14:29:52.391Z</time></trkpt><trkpt lat="44.8874546" lon="10.4685348"><ele>31.400000000000002</ele><time>2026-05-04T14:29:54.39Z</time></trkpt><trkpt lat="44.8874891" lon="10.4684501"><ele>31.6</ele><time>2026-05-04T14:29:55.39Z</time></trkpt><trkpt lat="44.8875367" lon="10.4683057"><ele>31.8</ele><time>2026-05-04T14:29:57.391Z</time></trkpt><trkpt lat="44.8875616" lon="10.4682194"><ele>32.0</ele><time>2026-05-04T14:29:58.39Z</time></trkpt><trkpt lat="44.887595" lon="10.468057"><ele>32.0</ele><time>2026-05-04T14:30:00.391Z</time></trkpt><trkpt lat="44.8876077" lon="10.4679651"><ele>32.0</ele><time>2026-05-04T14:30:01.39Z</time></trkpt><trkpt lat="44.8876284" lon="10.4678067"><ele>32.0</ele><time>2026-05-04T14:30:03.39Z</time></trkpt><trkpt lat="44.8876217" lon="10.4677142"><ele>32.0</ele><time>2026-05-04T14:30:04.39Z</time></trkpt><trkpt lat="44.8876272" lon="10.4675596"><ele>32.0</ele><time>2026-05-04T14:30:06.39Z</time></trkpt><trkpt lat="44.8875924" lon="10.4672814"><ele>30.75</ele><time>2026-05-04T14:30:10.391Z</time></trkpt><trkpt lat="44.8875491" lon="10.4669419"><ele>29.5</ele><time>2026-05-04T14:30:15.39Z</time></trkpt><trkpt lat="44.8875254" lon="10.4668171"><ele>28.25</ele><time>2026-05-04T14:30:17.39Z</time></trkpt><trkpt lat="44.8875246" lon="10.4667094"><ele>27.0</ele><time>2026-05-04T14:30:19.391Z</time></trkpt><trkpt lat="44.8875004" lon="10.466519"><ele>27.0</ele><time>2026-05-04T14:30:23.391Z</time></trkpt><trkpt lat="44.8874835" lon="10.4663436"><ele>27.000000000000004</ele><time>2026-05-04T14:30:26.391Z</time></trkpt><trkpt lat="44.8874661" lon="10.4662232"><ele>27.000000000000004</ele><time>2026-05-04T14:30:28.39Z</time></trkpt><trkpt lat="44.8874524" lon="10.4660881"><ele>27.0</ele><time>2026-05-04T14:30:30.391Z</time></trkpt><trkpt lat="44.8874446" lon="10.465954"><ele>27.0</ele><time>2026-05-04T14:30:32.391Z</time></trkpt><trkpt lat="44.8874365" lon="10.465812"><ele>27.0</ele><time>2026-05-04T14:30:34.391Z</time></trkpt><trkpt lat="44.887418" lon="10.4656756"><ele>27.000000000000004</ele><time>2026-05-04T14:30:36.391Z</time></trkpt><trkpt lat="44.8873984" lon="10.4655391"><ele>27.000000000000004</ele><time>2026-05-04T14:30:38.39Z</time></trkpt><trkpt lat="44.8873826" lon="10.4654091"><ele>27.0</ele><time>2026-05-04T14:30:40.39Z</time></trkpt><trkpt lat="44.887367" lon="10.4652699"><ele>27.0</ele><time>2026-05-04T14:30:42.39Z</time></trkpt><trkpt lat="44.8873422" lon="10.4651302"><ele>27.400000000000002</ele><time>2026-05-04T14:30:44.39Z</time></trkpt><trkpt lat="44.8873174" lon="10.4649288"><ele>27.800000000000004</ele><time>2026-05-04T14:30:47.391Z</time></trkpt><trkpt lat="44.8873002" lon="10.46479"><ele>28.2</ele><time>2026-05-04T14:30:49.39Z</time></trkpt><trkpt lat="44.8872837" lon="10.4646625"><ele>28.6</ele><time>2026-05-04T14:30:51.391Z</time></trkpt><trkpt lat="44.8872577" lon="10.4645288"><ele>29.0</ele><time>2026-05-04T14:30:53.39Z</time></trkpt><trkpt lat="44.8872239" lon="10.4643812"><ele>30.0</ele><time>2026-05-04T14:30:55.391Z</time></trkpt><trkpt lat="44.8871979" lon="10.4642512"><ele>31.0</ele><time>2026-05-04T14:30:57.39Z</time></trkpt><trkpt lat="44.8871802" lon="10.4640926"><ele>32.0</ele><time>2026-05-04T14:30:59.391Z</time></trkpt><trkpt lat="44.8871502" lon="10.4639536"><ele>33.0</ele><time>2026-05-04T14:31:01.391Z</time></trkpt><trkpt lat="44.8871113" lon="10.4637906"><ele>34.0</ele><time>2026-05-04T14:31:03.391Z</time></trkpt><trkpt lat="44.8870785" lon="10.463637"><ele>34.2</ele><time>2026-05-04T14:31:05.391Z</time></trkpt><trkpt lat="44.8870553" lon="10.4635467"><ele>34.4</ele><time>2026-05-04T14:31:06.39Z</time></trkpt><trkpt lat="44.8870289" lon="10.4633919"><ele>34.6</ele><time>2026-05-04T14:31:08.391Z</time></trkpt><trkpt lat="44.8869966" lon="10.463232"><ele>34.8</ele><time>2026-05-04T14:31:10.39Z</time></trkpt><trkpt lat="44.8869791" lon="10.46307"><ele>35.0</ele><time>2026-05-04T14:31:12.391Z</time></trkpt><trkpt lat="44.8869486" lon="10.4629007"><ele>35.0</ele><time>2026-05-04T14:31:14.39Z</time></trkpt><trkpt lat="44.8869242" lon="10.4627316"><ele>35.0</ele><time>2026-05-04T14:31:16.39Z</time></trkpt><trkpt lat="44.886893" lon="10.4625765"><ele>35.0</ele><time>2026-05-04T14:31:18.391Z</time></trkpt><trkpt lat="44.8868594" lon="10.462485"><ele>35.0</ele><time>2026-05-04T14:31:19.39Z</time></trkpt><trkpt lat="44.8868308" lon="10.4624024"><ele>35.0</ele><time>2026-05-04T14:31:20.391Z</time></trkpt><trkpt lat="44.8867986" lon="10.4623211"><ele>35.0</ele><time>2026-05-04T14:31:21.391Z</time></trkpt><trkpt lat="44.8867543" lon="10.4621649"><ele>34.666666666666664</ele><time>2026-05-04T14:31:23.391Z</time></trkpt><trkpt lat="44.8867243" lon="10.4620768"><ele>34.33333333333333</ele><time>2026-05-04T14:31:24.391Z</time></trkpt><trkpt lat="44.8866777" lon="10.4619153"><ele>34.0</ele><time>2026-05-04T14:31:26.39Z</time></trkpt><trkpt lat="44.8866521" lon="10.4618314"><ele>33.666666666666664</ele><time>2026-05-04T14:31:27.39Z</time></trkpt><trkpt lat="44.886624" lon="10.4617478"><ele>33.333333333333336</ele><time>2026-05-04T14:31:28.39Z</time></trkpt><trkpt lat="44.8866023" lon="10.4616639"><ele>33.0</ele><time>2026-05-04T14:31:29.391Z</time></trkpt><trkpt lat="44.8865843" lon="10.461577"><ele>33.0</ele><time>2026-05-04T14:31:30.39Z</time></trkpt><trkpt lat="44.8865477" lon="10.4614119"><ele>33.0</ele><time>2026-05-04T14:31:32.39Z</time></trkpt><trkpt lat="44.8865446" lon="10.4613178"><ele>33.0</ele><time>2026-05-04T14:31:33.391Z</time></trkpt><trkpt lat="44.8865966" lon="10.4611541"><ele>33.0</ele><time>2026-05-04T14:31:35.391Z</time></trkpt><trkpt lat="44.8866703" lon="10.4610357"><ele>33.0</ele><time>2026-05-04T14:31:37.39Z</time></trkpt><trkpt lat="44.8867768" lon="10.4609596"><ele>34.199999999999996</ele><time>2026-05-04T14:31:39.391Z</time></trkpt><trkpt lat="44.8868651" lon="10.4608978"><ele>35.4</ele><time>2026-05-04T14:31:41.39Z</time></trkpt><trkpt lat="44.8869596" lon="10.4608451"><ele>36.599999999999994</ele><time>2026-05-04T14:31:43.39Z</time></trkpt><trkpt lat="44.8870471" lon="10.4608126"><ele>37.8</ele><time>2026-05-04T14:31:45.39Z</time></trkpt><trkpt lat="44.8871389" lon="10.4607776"><ele>39.0</ele><time>2026-05-04T14:31:47.391Z</time></trkpt><trkpt lat="44.8872337" lon="10.460755"><ele>39.0</ele><time>2026-05-04T14:31:49.391Z</time></trkpt><trkpt lat="44.887316" lon="10.4607398"><ele>39.0</ele><time>2026-05-04T14:31:51.391Z</time></trkpt><trkpt lat="44.8874111" lon="10.4607127"><ele>39.0</ele><time>2026-05-04T14:31:53.391Z</time></trkpt><trkpt lat="44.88751" lon="10.460703"><ele>39.0</ele><time>2026-05-04T14:31:55.39Z</time></trkpt><trkpt lat="44.8876147" lon="10.4607263"><ele>39.0</ele><time>2026-05-04T14:31:57.391Z</time></trkpt><trkpt lat="44.8877317" lon="10.4607344"><ele>37.6</ele><time>2026-05-04T14:31:59.39Z</time></trkpt><trkpt lat="44.8878481" lon="10.4607587"><ele>36.2</ele><time>2026-05-04T14:32:01.391Z</time></trkpt><trkpt lat="44.8879625" lon="10.4607912"><ele>34.800000000000004</ele><time>2026-05-04T14:32:03.391Z</time></trkpt><trkpt lat="44.8880574" lon="10.4608161"><ele>33.4</ele><time>2026-05-04T14:32:05.39Z</time></trkpt><trkpt lat="44.8881677" lon="10.4608573"><ele>32.0</ele><time>2026-05-04T14:32:07.391Z</time></trkpt><trkpt lat="44.8882916" lon="10.4608908"><ele>32.0</ele><time>2026-05-04T14:32:09.39Z</time></trkpt><trkpt lat="44.8883609" lon="10.4609186"><ele>32.0</ele><time>2026-05-04T14:32:10.39Z</time></trkpt><trkpt lat="44.8884265" lon="10.4609358"><ele>32.0</ele><time>2026-05-04T14:32:11.391Z</time></trkpt><trkpt lat="44.8885455" lon="10.4609775"><ele>32.0</ele><time>2026-05-04T14:32:13.39Z</time></trkpt><trkpt lat="44.8886625" lon="10.4610264"><ele>32.0</ele><time>2026-05-04T14:32:15.39Z</time></trkpt><trkpt lat="44.8887453" lon="10.4610845"><ele>31.8</ele><time>2026-05-04T14:32:17.391Z</time></trkpt><trkpt lat="44.8888463" lon="10.4611412"><ele>31.6</ele><time>2026-05-04T14:32:19.39Z</time></trkpt><trkpt lat="44.888936" lon="10.4612059"><ele>31.400000000000002</ele><time>2026-05-04T14:32:21.391Z</time></trkpt><trkpt lat="44.8889993" lon="10.4612345"><ele>31.200000000000003</ele><time>2026-05-04T14:32:22.39Z</time></trkpt><trkpt lat="44.8890584" lon="10.4612693"><ele>31.0</ele><time>2026-05-04T14:32:23.391Z</time></trkpt><trkpt lat="44.8891656" lon="10.4613344"><ele>30.4</ele><time>2026-05-04T14:32:25.391Z</time></trkpt><trkpt lat="44.8892699" lon="10.4613897"><ele>29.8</ele><time>2026-05-04T14:32:27.39Z</time></trkpt><trkpt lat="44.8893567" lon="10.4614465"><ele>29.199999999999996</ele><time>2026-05-04T14:32:29.39Z</time></trkpt><trkpt lat="44.8894574" lon="10.4615011"><ele>28.599999999999998</ele><time>2026-05-04T14:32:31.391Z</time></trkpt><trkpt lat="44.8895521" lon="10.4615419"><ele>28.0</ele><time>2026-05-04T14:32:33.39Z</time></trkpt><trkpt lat="44.8896327" lon="10.4615759"><ele>28.000000000000004</ele><time>2026-05-04T14:32:35.39Z</time></trkpt><trkpt lat="44.889701" lon="10.4615992"><ele>28.0</ele><time>2026-05-04T14:32:37.39Z</time></trkpt><trkpt lat="44.8897819" lon="10.4616423"><ele>28.0</ele><time>2026-05-04T14:32:39.39Z</time></trkpt><trkpt lat="44.8898512" lon="10.4616927"><ele>28.0</ele><time>2026-05-04T14:32:41.391Z</time></trkpt><trkpt lat="44.8899413" lon="10.461748"><ele>28.000000000000004</ele><time>2026-05-04T14:32:43.39Z</time></trkpt><trkpt lat="44.8900284" lon="10.4618158"><ele>28.0</ele><time>2026-05-04T14:32:45.39Z</time></trkpt><trkpt lat="44.8901145" lon="10.4618914"><ele>28.0</ele><time>2026-05-04T14:32:47.39Z</time></trkpt><trkpt lat="44.8902032" lon="10.4619564"><ele>27.999999999999996</ele><time>2026-05-04T14:32:49.391Z</time></trkpt><trkpt lat="44.8903068" lon="10.4620349"><ele>27.999999999999996</ele><time>2026-05-04T14:32:51.39Z</time></trkpt><trkpt lat="44.8904038" lon="10.4621173"><ele>28.0</ele><time>2026-05-04T14:32:53.391Z</time></trkpt><trkpt lat="44.8905056" lon="10.4621985"><ele>28.0</ele><time>2026-05-04T14:32:55.39Z</time></trkpt><trkpt lat="44.8905988" lon="10.4622988"><ele>28.0</ele><time>2026-05-04T14:32:57.39Z</time></trkpt><trkpt lat="44.8906994" lon="10.4623728"><ele>27.999999999999996</ele><time>2026-05-04T14:32:59.391Z</time></trkpt><trkpt lat="44.8907581" lon="10.4624234"><ele>27.999999999999996</ele><time>2026-05-04T14:33:00.391Z</time></trkpt><trkpt lat="44.8908659" lon="10.4625094"><ele>28.0</ele><time>2026-05-04T14:33:02.391Z</time></trkpt><trkpt lat="44.8909625" lon="10.4626125"><ele>28.0</ele><time>2026-05-04T14:33:04.391Z</time></trkpt><trkpt lat="44.8910742" lon="10.4626857"><ele>27.666666666666668</ele><time>2026-05-04T14:33:06.391Z</time></trkpt><trkpt lat="44.8911942" lon="10.4627566"><ele>27.333333333333336</ele><time>2026-05-04T14:33:08.39Z</time></trkpt><trkpt lat="44.8912492" lon="10.4628045"><ele>27.0</ele><time>2026-05-04T14:33:09.39Z</time></trkpt><trkpt lat="44.8913575" lon="10.4628755"><ele>26.666666666666664</ele><time>2026-05-04T14:33:11.391Z</time></trkpt><trkpt lat="44.8914166" lon="10.4629066"><ele>26.333333333333332</ele><time>2026-05-04T14:33:12.39Z</time></trkpt><trkpt lat="44.8914679" lon="10.4629623"><ele>26.0</ele><time>2026-05-04T14:33:13.39Z</time></trkpt><trkpt lat="44.8915844" lon="10.4630237"><ele>25.8</ele><time>2026-05-04T14:33:15.39Z</time></trkpt><trkpt lat="44.8916466" lon="10.4630599"><ele>25.6</ele><time>2026-05-04T14:33:16.39Z</time></trkpt><trkpt lat="44.8917586" lon="10.4631307"><ele>25.4</ele><time>2026-05-04T14:33:18.391Z</time></trkpt><trkpt lat="44.8918779" lon="10.4631893"><ele>25.2</ele><time>2026-05-04T14:33:20.389Z</time></trkpt><trkpt lat="44.8919476" lon="10.4632032"><ele>25.0</ele><time>2026-05-04T14:33:21.39Z</time></trkpt><trkpt lat="44.8920099" lon="10.463233"><ele>25.0</ele><time>2026-05-04T14:33:22.39Z</time></trkpt><trkpt lat="44.8921259" lon="10.4632869"><ele>25.0</ele><time>2026-05-04T14:33:24.39Z</time></trkpt><trkpt lat="44.8922453" lon="10.4633421"><ele>25.0</ele><time>2026-05-04T14:33:26.391Z</time></trkpt><trkpt lat="44.8923683" lon="10.4633878"><ele>25.0</ele><time>2026-05-04T14:33:28.391Z</time></trkpt><trkpt lat="44.8924298" lon="10.4634097"><ele>25.0</ele><time>2026-05-04T14:33:29.39Z</time></trkpt><trkpt lat="44.8925362" lon="10.4634771"><ele>25.0</ele><time>2026-05-04T14:33:31.391Z</time></trkpt><trkpt lat="44.8926361" lon="10.4635245"><ele>25.0</ele><time>2026-05-04T14:33:33.391Z</time></trkpt><trkpt lat="44.8927563" lon="10.4635639"><ele>25.0</ele><time>2026-05-04T14:33:35.39Z</time></trkpt><trkpt lat="44.8928671" lon="10.4636282"><ele>25.0</ele><time>2026-05-04T14:33:37.39Z</time></trkpt><trkpt lat="44.8929817" lon="10.4636656"><ele>25.0</ele><time>2026-05-04T14:33:39.39Z</time></trkpt><trkpt lat="44.8930464" lon="10.4636786"><ele>25.0</ele><time>2026-05-04T14:33:40.39Z</time></trkpt><trkpt lat="44.8931633" lon="10.4637466"><ele>25.0</ele><time>2026-05-04T14:33:42.39Z</time></trkpt><trkpt lat="44.8932836" lon="10.4637867"><ele>25.0</ele><time>2026-05-04T14:33:44.391Z</time></trkpt><trkpt lat="44.8933489" lon="10.4638029"><ele>25.0</ele><time>2026-05-04T14:33:45.39Z</time></trkpt><trkpt lat="44.8934617" lon="10.4638519"><ele>24.8</ele><time>2026-05-04T14:33:47.391Z</time></trkpt><trkpt lat="44.8935827" lon="10.4639033"><ele>24.6</ele><time>2026-05-04T14:33:49.391Z</time></trkpt><trkpt lat="44.8936469" lon="10.4639225"><ele>24.4</ele><time>2026-05-04T14:33:50.391Z</time></trkpt><trkpt lat="44.8937732" lon="10.4639763"><ele>24.2</ele><time>2026-05-04T14:33:52.39Z</time></trkpt><trkpt lat="44.8938875" lon="10.46402"><ele>24.0</ele><time>2026-05-04T14:33:54.391Z</time></trkpt><trkpt lat="44.8940041" lon="10.4640652"><ele>24.0</ele><time>2026-05-04T14:33:56.39Z</time></trkpt><trkpt lat="44.8941207" lon="10.4641001"><ele>24.0</ele><time>2026-05-04T14:33:58.391Z</time></trkpt><trkpt lat="44.8942398" lon="10.4641434"><ele>24.0</ele><time>2026-05-04T14:34:00.39Z</time></trkpt><trkpt lat="44.8943578" lon="10.4641936"><ele>24.0</ele><time>2026-05-04T14:34:02.39Z</time></trkpt><trkpt lat="44.8944207" lon="10.46422"><ele>24.0</ele><time>2026-05-04T14:34:03.391Z</time></trkpt><trkpt lat="44.8945354" lon="10.4642582"><ele>24.6</ele><time>2026-05-04T14:34:05.391Z</time></trkpt><trkpt lat="44.8946547" lon="10.4642908"><ele>25.2</ele><time>2026-05-04T14:34:07.391Z</time></trkpt><trkpt lat="44.8947659" lon="10.4643081"><ele>25.800000000000004</ele><time>2026-05-04T14:34:09.391Z</time></trkpt><trkpt lat="44.8948284" lon="10.4643449"><ele>26.400000000000002</ele><time>2026-05-04T14:34:10.391Z</time></trkpt><trkpt lat="44.8949578" lon="10.4643547"><ele>27.0</ele><time>2026-05-04T14:34:12.391Z</time></trkpt><trkpt lat="44.8950238" lon="10.4643525"><ele>27.25</ele><time>2026-05-04T14:34:13.391Z</time></trkpt><trkpt lat="44.8951419" lon="10.4643666"><ele>27.5</ele><time>2026-05-04T14:34:15.39Z</time></trkpt><trkpt lat="44.8952719" lon="10.4643789"><ele>27.75</ele><time>2026-05-04T14:34:17.39Z</time></trkpt><trkpt lat="44.8953837" lon="10.4643605"><ele>28.0</ele><time>2026-05-04T14:34:19.39Z</time></trkpt><trkpt lat="44.8955" lon="10.4643473"><ele>28.0</ele><time>2026-05-04T14:34:21.391Z</time></trkpt><trkpt lat="44.8956125" lon="10.4643229"><ele>27.999999999999996</ele><time>2026-05-04T14:34:23.391Z</time></trkpt><trkpt lat="44.8957378" lon="10.4642923"><ele>27.999999999999996</ele><time>2026-05-04T14:34:25.39Z</time></trkpt><trkpt lat="44.8957996" lon="10.4642733"><ele>28.0</ele><time>2026-05-04T14:34:26.391Z</time></trkpt><trkpt lat="44.8959064" lon="10.4642311"><ele>28.0</ele><time>2026-05-04T14:34:28.391Z</time></trkpt><trkpt lat="44.896006" lon="10.4642005"><ele>27.799999999999997</ele><time>2026-05-04T14:34:30.39Z</time></trkpt><trkpt lat="44.8961221" lon="10.4641675"><ele>27.599999999999998</ele><time>2026-05-04T14:34:32.391Z</time></trkpt><trkpt lat="44.8962456" lon="10.4641367"><ele>27.400000000000002</ele><time>2026-05-04T14:34:34.39Z</time></trkpt><trkpt lat="44.8963632" lon="10.4641127"><ele>27.200000000000003</ele><time>2026-05-04T14:34:36.39Z</time></trkpt><trkpt lat="44.8964245" lon="10.4640877"><ele>27.0</ele><time>2026-05-04T14:34:37.39Z</time></trkpt><trkpt lat="44.8964937" lon="10.4640883"><ele>27.0</ele><time>2026-05-04T14:34:38.391Z</time></trkpt><trkpt lat="44.8965578" lon="10.464076"><ele>27.000000000000004</ele><time>2026-05-04T14:34:39.391Z</time></trkpt><trkpt lat="44.896674" lon="10.4640535"><ele>27.000000000000004</ele><time>2026-05-04T14:34:41.391Z</time></trkpt><trkpt lat="44.8967957" lon="10.4640545"><ele>27.0</ele><time>2026-05-04T14:34:43.391Z</time></trkpt><trkpt lat="44.8969171" lon="10.4640745"><ele>27.0</ele><time>2026-05-04T14:34:45.391Z</time></trkpt><trkpt lat="44.8970338" lon="10.4641126"><ele>27.400000000000002</ele><time>2026-05-04T14:34:47.391Z</time></trkpt><trkpt lat="44.897131" lon="10.4641622"><ele>27.800000000000004</ele><time>2026-05-04T14:34:49.39Z</time></trkpt><trkpt lat="44.8972266" lon="10.4642369"><ele>28.2</ele><time>2026-05-04T14:34:51.391Z</time></trkpt><trkpt lat="44.8973163" lon="10.4643126"><ele>28.6</ele><time>2026-05-04T14:34:53.391Z</time></trkpt><trkpt lat="44.8974175" lon="10.4643861"><ele>29.0</ele><time>2026-05-04T14:34:55.39Z</time></trkpt><trkpt lat="44.8975118" lon="10.4644694"><ele>29.0</ele><time>2026-05-04T14:34:57.39Z</time></trkpt><trkpt lat="44.8975848" lon="10.4645813"><ele>29.0</ele><time>2026-05-04T14:34:59.39Z</time></trkpt><trkpt lat="44.8976845" lon="10.4646949"><ele>29.0</ele><time>2026-05-04T14:35:01.39Z</time></trkpt><trkpt lat="44.8977422" lon="10.4647644"><ele>29.0</ele><time>2026-05-04T14:35:02.39Z</time></trkpt><trkpt lat="44.8977974" lon="10.4648295"><ele>29.0</ele><time>2026-05-04T14:35:03.391Z</time></trkpt><trkpt lat="44.8978502" lon="10.4648931"><ele>28.71428571428572</ele><time>2026-05-04T14:35:04.39Z</time></trkpt><trkpt lat="44.8979013" lon="10.4649475"><ele>28.42857142857143</ele><time>2026-05-04T14:35:05.39Z</time></trkpt><trkpt lat="44.897955" lon="10.4650075"><ele>28.142857142857146</ele><time>2026-05-04T14:35:06.39Z</time></trkpt><trkpt lat="44.8980089" lon="10.4650755"><ele>27.85714285714286</ele><time>2026-05-04T14:35:07.391Z</time></trkpt><trkpt lat="44.89806" lon="10.4651423"><ele>27.57142857142857</ele><time>2026-05-04T14:35:08.391Z</time></trkpt><trkpt lat="44.8981111" lon="10.4652037"><ele>27.285714285714285</ele><time>2026-05-04T14:35:09.391Z</time></trkpt><trkpt lat="44.8981614" lon="10.4652635"><ele>27.0</ele><time>2026-05-04T14:35:10.391Z</time></trkpt><trkpt lat="44.8982112" lon="10.4653286"><ele>27.0</ele><time>2026-05-04T14:35:11.39Z</time></trkpt><trkpt lat="44.8982972" lon="10.465449"><ele>27.000000000000004</ele><time>2026-05-04T14:35:13.391Z</time></trkpt><trkpt lat="44.898367" lon="10.4655656"><ele>27.000000000000004</ele><time>2026-05-04T14:35:15.391Z</time></trkpt><trkpt lat="44.898407" lon="10.4656926"><ele>27.0</ele><time>2026-05-04T14:35:17.391Z</time></trkpt><trkpt lat="44.8984522" lon="10.4658312"><ele>27.0</ele><time>2026-05-04T14:35:19.391Z</time></trkpt><trkpt lat="44.8984993" lon="10.4659749"><ele>27.0</ele><time>2026-05-04T14:35:21.39Z</time></trkpt><trkpt lat="44.8985533" lon="10.4661185"><ele>27.000000000000004</ele><time>2026-05-04T14:35:23.39Z</time></trkpt><trkpt lat="44.8986023" lon="10.4662526"><ele>27.000000000000004</ele><time>2026-05-04T14:35:25.391Z</time></trkpt><trkpt lat="44.8986494" lon="10.4663684"><ele>27.0</ele><time>2026-05-04T14:35:27.391Z</time></trkpt><trkpt lat="44.898698" lon="10.466483"><ele>27.0</ele><time>2026-05-04T14:35:29.391Z</time></trkpt><trkpt lat="44.8987392" lon="10.4666012"><ele>27.0</ele><time>2026-05-04T14:35:31.39Z</time></trkpt><trkpt lat="44.8987862" lon="10.4667289"><ele>27.000000000000004</ele><time>2026-05-04T14:35:33.39Z</time></trkpt><trkpt lat="44.8988248" lon="10.4668615"><ele>27.000000000000004</ele><time>2026-05-04T14:35:35.39Z</time></trkpt><trkpt lat="44.8988723" lon="10.4669995"><ele>27.0</ele><time>2026-05-04T14:35:37.391Z</time></trkpt><trkpt lat="44.8989181" lon="10.4671343"><ele>27.0</ele><time>2026-05-04T14:35:39.391Z</time></trkpt><trkpt lat="44.8989473" lon="10.4672854"><ele>27.200000000000003</ele><time>2026-05-04T14:35:41.391Z</time></trkpt><trkpt lat="44.8989739" lon="10.4674271"><ele>27.400000000000002</ele><time>2026-05-04T14:35:43.391Z</time></trkpt><trkpt lat="44.8989929" lon="10.4675633"><ele>27.599999999999998</ele><time>2026-05-04T14:35:45.39Z</time></trkpt><trkpt lat="44.8990121" lon="10.4676987"><ele>27.799999999999997</ele><time>2026-05-04T14:35:47.39Z</time></trkpt><trkpt lat="44.8990371" lon="10.4678242"><ele>28.0</ele><time>2026-05-04T14:35:49.391Z</time></trkpt><trkpt lat="44.8990574" lon="10.4679452"><ele>27.666666666666668</ele><time>2026-05-04T14:35:51.391Z</time></trkpt><trkpt lat="44.8990687" lon="10.4680629"><ele>27.333333333333336</ele><time>2026-05-04T14:35:53.391Z</time></trkpt><trkpt lat="44.8990794" lon="10.468159"><ele>27.0</ele><time>2026-05-04T14:35:55.391Z</time></trkpt><trkpt lat="44.8990986" lon="10.468267"><ele>26.666666666666664</ele><time>2026-05-04T14:35:57.39Z</time></trkpt><trkpt lat="44.8991155" lon="10.4683661"><ele>26.333333333333332</ele><time>2026-05-04T14:35:59.391Z</time></trkpt><trkpt lat="44.8991356" lon="10.4684666"><ele>26.0</ele><time>2026-05-04T14:36:01.39Z</time></trkpt><trkpt lat="44.8991602" lon="10.4685812"><ele>25.999999999999996</ele><time>2026-05-04T14:36:03.391Z</time></trkpt><trkpt lat="44.8991701" lon="10.4686931"><ele>26.0</ele><time>2026-05-04T14:36:05.391Z</time></trkpt><trkpt lat="44.8992312" lon="10.4687354"><ele>26.0</ele><time>2026-05-04T14:36:09.391Z</time></trkpt><trkpt lat="44.8992311" lon="10.4686037"><ele>26.0</ele><time>2026-05-04T14:36:12.39Z</time></trkpt><trkpt lat="44.8992054" lon="10.4684898"><ele>25.999999999999996</ele><time>2026-05-04T14:36:14.391Z</time></trkpt><trkpt lat="44.8991864" lon="10.4683731"><ele>26.0</ele><time>2026-05-04T14:36:16.391Z</time></trkpt><trkpt lat="44.899175" lon="10.4682747"><ele>25.999999999999996</ele><time>2026-05-04T14:36:18.391Z</time></trkpt><trkpt lat="44.8992091" lon="10.4681979"><ele>26.0</ele><time>2026-05-04T14:36:20.391Z</time></trkpt><trkpt lat="44.8992813" lon="10.4681728"><ele>26.0</ele><time>2026-05-04T14:36:22.39Z</time></trkpt><trkpt lat="44.8993655" lon="10.4681433"><ele>26.0</ele><time>2026-05-04T14:36:24.391Z</time></trkpt><trkpt lat="44.8994418" lon="10.4681123"><ele>25.999999999999996</ele><time>2026-05-04T14:36:26.39Z</time></trkpt><trkpt lat="44.8995175" lon="10.4680824"><ele>26.0</ele><time>2026-05-04T14:36:28.39Z</time></trkpt><trkpt lat="44.8995935" lon="10.4680483"><ele>26.166666666666664</ele><time>2026-05-04T14:36:30.39Z</time></trkpt><trkpt lat="44.8996686" lon="10.4680181"><ele>26.333333333333332</ele><time>2026-05-04T14:36:32.391Z</time></trkpt><trkpt lat="44.8997341" lon="10.4679983"><ele>26.5</ele><time>2026-05-04T14:36:34.391Z</time></trkpt><trkpt lat="44.8998266" lon="10.4679772"><ele>26.666666666666664</ele><time>2026-05-04T14:36:37.391Z</time></trkpt><trkpt lat="44.899899" lon="10.467965"><ele>26.833333333333332</ele><time>2026-05-04T14:36:41.391Z</time></trkpt><trkpt lat="44.8999419" lon="10.4680823"><ele>27.0</ele><time>2026-05-04T14:36:44.391Z</time></trkpt><trkpt lat="44.8999314" lon="10.4681939"><ele>27.0</ele><time>2026-05-04T14:36:46.39Z</time></trkpt><trkpt lat="44.8999269" lon="10.4683091"><ele>27.0</ele><time>2026-05-04T14:36:49.39Z</time></trkpt><trkpt lat="44.8999433" lon="10.4684239"><ele>27.0</ele><time>2026-05-04T14:37:00.391Z</time></trkpt><trkpt lat="44.8999661" lon="10.4685263"><ele>27.0</ele><time>2026-05-04T14:37:02.391Z</time></trkpt><trkpt lat="44.8999996" lon="10.4686307"><ele>27.0</ele><time>2026-05-04T14:37:04.391Z</time></trkpt><trkpt lat="44.9000495" lon="10.4687363"><ele>27.0</ele><time>2026-05-04T14:37:06.391Z</time></trkpt><trkpt lat="44.9001167" lon="10.4688301"><ele>27.0</ele><time>2026-05-04T14:37:08.39Z</time></trkpt><trkpt lat="44.9001841" lon="10.4689187"><ele>27.000000000000004</ele><time>2026-05-04T14:37:10.391Z</time></trkpt><trkpt lat="44.9002544" lon="10.4690036"><ele>27.000000000000004</ele><time>2026-05-04T14:37:12.39Z</time></trkpt><trkpt lat="44.9003403" lon="10.4690825"><ele>27.0</ele><time>2026-05-04T14:37:14.391Z</time></trkpt><trkpt lat="44.9004202" lon="10.4691596"><ele>27.0</ele><time>2026-05-04T14:37:16.391Z</time></trkpt><trkpt lat="44.9004981" lon="10.4692354"><ele>27.0</ele><time>2026-05-04T14:37:18.391Z</time></trkpt><trkpt lat="44.9005759" lon="10.46931"><ele>27.000000000000004</ele><time>2026-05-04T14:37:20.391Z</time></trkpt><trkpt lat="44.9006628" lon="10.4693603"><ele>27.000000000000004</ele><time>2026-05-04T14:37:22.391Z</time></trkpt><trkpt lat="44.9007601" lon="10.4693802"><ele>27.0</ele><time>2026-05-04T14:37:24.39Z</time></trkpt><trkpt lat="44.9008569" lon="10.4693447"><ele>27.0</ele><time>2026-05-04T14:37:26.391Z</time></trkpt><trkpt lat="44.9009294" lon="10.4692544"><ele>26.400000000000002</ele><time>2026-05-04T14:37:28.391Z</time></trkpt><trkpt lat="44.9009916" lon="10.4691399"><ele>25.800000000000004</ele><time>2026-05-04T14:37:30.391Z</time></trkpt><trkpt lat="44.9010517" lon="10.4690266"><ele>25.2</ele><time>2026-05-04T14:37:32.391Z</time></trkpt><trkpt lat="44.9010931" lon="10.4688857"><ele>24.6</ele><time>2026-05-04T14:37:34.39Z</time></trkpt><trkpt lat="44.9011253" lon="10.4687567"><ele>24.0</ele><time>2026-05-04T14:37:36.391Z</time></trkpt><trkpt lat="44.9011497" lon="10.468619"><ele>23.833333333333332</ele><time>2026-05-04T14:37:38.391Z</time></trkpt><trkpt lat="44.9011719" lon="10.4684775"><ele>23.666666666666668</ele><time>2026-05-04T14:37:40.39Z</time></trkpt><trkpt lat="44.9011866" lon="10.4683498"><ele>23.5</ele><time>2026-05-04T14:37:42.39Z</time></trkpt><trkpt lat="44.9011866" lon="10.4682297"><ele>23.333333333333336</ele><time>2026-05-04T14:37:44.39Z</time></trkpt><trkpt lat="44.9011863" lon="10.4681298"><ele>23.166666666666668</ele><time>2026-05-04T14:37:46.391Z</time></trkpt><trkpt lat="44.9012669" lon="10.4681019"><ele>23.0</ele><time>2026-05-04T14:37:49.39Z</time></trkpt><trkpt lat="44.9013296" lon="10.4681162"><ele>23.0</ele><time>2026-05-04T14:37:51.391Z</time></trkpt><trkpt lat="44.9014011" lon="10.4681228"><ele>23.0</ele><time>2026-05-04T14:37:53.39Z</time></trkpt><trkpt lat="44.9014737" lon="10.4681301"><ele>23.0</ele><time>2026-05-04T14:37:55.391Z</time></trkpt><trkpt lat="44.901545" lon="10.468142"><ele>23.0</ele><time>2026-05-04T14:37:57.391Z</time></trkpt><trkpt lat="44.9016221" lon="10.4681538"><ele>23.0</ele><time>2026-05-04T14:37:59.391Z</time></trkpt><trkpt lat="44.9016976" lon="10.4681892"><ele>23.0</ele><time>2026-05-04T14:38:01.391Z</time></trkpt><trkpt lat="44.9017696" lon="10.468274"><ele>23.599999999999998</ele><time>2026-05-04T14:38:03.391Z</time></trkpt><trkpt lat="44.9018554" lon="10.4683285"><ele>24.2</ele><time>2026-05-04T14:38:05.39Z</time></trkpt><trkpt lat="44.9019389" lon="10.468382"><ele>24.8</ele><time>2026-05-04T14:38:07.391Z</time></trkpt><trkpt lat="44.9020309" lon="10.4684371"><ele>25.4</ele><time>2026-05-04T14:38:09.391Z</time></trkpt><trkpt lat="44.9021218" lon="10.4685011"><ele>26.0</ele><time>2026-05-04T14:38:11.391Z</time></trkpt><trkpt lat="44.9022164" lon="10.4685717"><ele>26.0</ele><time>2026-05-04T14:38:13.39Z</time></trkpt><trkpt lat="44.9023094" lon="10.4686397"><ele>26.0</ele><time>2026-05-04T14:38:15.391Z</time></trkpt><trkpt lat="44.9024077" lon="10.4687065"><ele>26.0</ele><time>2026-05-04T14:38:17.39Z</time></trkpt><trkpt lat="44.9024982" lon="10.4687727"><ele>26.0</ele><time>2026-05-04T14:38:19.39Z</time></trkpt><trkpt lat="44.9025942" lon="10.4688366"><ele>26.0</ele><time>2026-05-04T14:38:21.391Z</time></trkpt><trkpt lat="44.902679" lon="10.4689018"><ele>26.200000000000003</ele><time>2026-05-04T14:38:23.391Z</time></trkpt><trkpt lat="44.9027685" lon="10.4689773"><ele>26.400000000000002</ele><time>2026-05-04T14:38:25.39Z</time></trkpt><trkpt lat="44.9028625" lon="10.4690537"><ele>26.6</ele><time>2026-05-04T14:38:27.39Z</time></trkpt><trkpt lat="44.9029585" lon="10.4691302"><ele>26.8</ele><time>2026-05-04T14:38:29.391Z</time></trkpt><trkpt lat="44.9030257" lon="10.4692542"><ele>27.0</ele><time>2026-05-04T14:38:31.39Z</time></trkpt><trkpt lat="44.9030431" lon="10.4693996"><ele>27.25</ele><time>2026-05-04T14:38:33.39Z</time></trkpt><trkpt lat="44.9030255" lon="10.4696432"><ele>27.5</ele><time>2026-05-04T14:38:36.39Z</time></trkpt><trkpt lat="44.9029929" lon="10.4697958"><ele>27.75</ele><time>2026-05-04T14:38:38.391Z</time></trkpt><trkpt lat="44.9029778" lon="10.4699529"><ele>28.0</ele><time>2026-05-04T14:38:40.39Z</time></trkpt><trkpt lat="44.9029632" lon="10.4701157"><ele>28.000000000000004</ele><time>2026-05-04T14:38:42.39Z</time></trkpt><trkpt lat="44.9029645" lon="10.4702065"><ele>28.0</ele><time>2026-05-04T14:38:43.39Z</time></trkpt><trkpt lat="44.9029476" lon="10.4703675"><ele>28.0</ele><time>2026-05-04T14:38:45.39Z</time></trkpt><trkpt lat="44.902937" lon="10.4704571"><ele>28.0</ele><time>2026-05-04T14:38:46.39Z</time></trkpt><trkpt lat="44.9029409" lon="10.4705814"><ele>28.000000000000004</ele><time>2026-05-04T14:38:48.391Z</time></trkpt><trkpt lat="44.902949" lon="10.4704916"><ele>28.0</ele><time>2026-05-04T14:38:57.39Z</time></trkpt><trkpt lat="44.9029346" lon="10.4705879"><ele>27.666666666666668</ele><time>2026-05-04T14:40:49.39Z</time></trkpt><trkpt lat="44.9029407" lon="10.4706786"><ele>27.333333333333336</ele><time>2026-05-04T14:40:51.39Z</time></trkpt><trkpt lat="44.9029513" lon="10.470791"><ele>27.0</ele><time>2026-05-04T14:40:53.391Z</time></trkpt><trkpt lat="44.9029616" lon="10.4709082"><ele>26.666666666666664</ele><time>2026-05-04T14:40:55.39Z</time></trkpt><trkpt lat="44.90297" lon="10.4710533"><ele>26.333333333333332</ele><time>2026-05-04T14:40:57.391Z</time></trkpt><trkpt lat="44.9029839" lon="10.4711963"><ele>26.0</ele><time>2026-05-04T14:40:59.391Z</time></trkpt><trkpt lat="44.9030183" lon="10.4713393"><ele>26.0</ele><time>2026-05-04T14:41:01.39Z</time></trkpt><trkpt lat="44.903056" lon="10.4714984"><ele>26.0</ele><time>2026-05-04T14:41:03.391Z</time></trkpt><trkpt lat="44.9031007" lon="10.4716447"><ele>26.0</ele><time>2026-05-04T14:41:05.391Z</time></trkpt><trkpt lat="44.9031572" lon="10.4717909"><ele>26.0</ele><time>2026-05-04T14:41:07.39Z</time></trkpt><trkpt lat="44.9032164" lon="10.4719384"><ele>25.999999999999996</ele><time>2026-05-04T14:41:09.39Z</time></trkpt><trkpt lat="44.9032474" lon="10.4720178"><ele>26.0</ele><time>2026-05-04T14:41:10.39Z</time></trkpt><trkpt lat="44.9032864" lon="10.4720967"><ele>26.0</ele><time>2026-05-04T14:41:11.391Z</time></trkpt><trkpt lat="44.9033337" lon="10.4721628"><ele>26.0</ele><time>2026-05-04T14:41:12.391Z</time></trkpt><trkpt lat="44.9033783" lon="10.4722269"><ele>25.999999999999996</ele><time>2026-05-04T14:41:13.391Z</time></trkpt><trkpt lat="44.9034353" lon="10.4722868"><ele>26.0</ele><time>2026-05-04T14:41:14.391Z</time></trkpt><trkpt lat="44.9035227" lon="10.4723955"><ele>25.8</ele><time>2026-05-04T14:41:16.39Z</time></trkpt><trkpt lat="44.9036294" lon="10.472485"><ele>25.6</ele><time>2026-05-04T14:41:18.39Z</time></trkpt><trkpt lat="44.9036859" lon="10.4725292"><ele>25.4</ele><time>2026-05-04T14:41:19.39Z</time></trkpt><trkpt lat="44.9037415" lon="10.4725749"><ele>25.2</ele><time>2026-05-04T14:41:20.39Z</time></trkpt><trkpt lat="44.903852" lon="10.4726647"><ele>25.0</ele><time>2026-05-04T14:41:22.39Z</time></trkpt><trkpt lat="44.9039633" lon="10.4727511"><ele>25.0</ele><time>2026-05-04T14:41:24.39Z</time></trkpt><trkpt lat="44.9040667" lon="10.4728459"><ele>25.0</ele><time>2026-05-04T14:41:26.39Z</time></trkpt><trkpt lat="44.9041688" lon="10.4729438"><ele>25.0</ele><time>2026-05-04T14:41:28.391Z</time></trkpt><trkpt lat="44.9042738" lon="10.4730429"><ele>25.0</ele><time>2026-05-04T14:41:30.39Z</time></trkpt><trkpt lat="44.9043696" lon="10.4731542"><ele>25.4</ele><time>2026-05-04T14:41:32.391Z</time></trkpt><trkpt lat="44.9044681" lon="10.4732666"><ele>25.8</ele><time>2026-05-04T14:41:34.39Z</time></trkpt><trkpt lat="44.9045691" lon="10.4733809"><ele>26.200000000000003</ele><time>2026-05-04T14:41:36.39Z</time></trkpt><trkpt lat="44.9046179" lon="10.473444"><ele>26.6</ele><time>2026-05-04T14:41:37.39Z</time></trkpt><trkpt lat="44.9047048" lon="10.4735641"><ele>27.0</ele><time>2026-05-04T14:41:39.391Z</time></trkpt><trkpt lat="44.9047557" lon="10.4736287"><ele>27.0</ele><time>2026-05-04T14:41:40.39Z</time></trkpt><trkpt lat="44.904844" lon="10.4737511"><ele>27.0</ele><time>2026-05-04T14:41:42.391Z</time></trkpt><trkpt lat="44.9048914" lon="10.4738132"><ele>27.0</ele><time>2026-05-04T14:41:43.39Z</time></trkpt><trkpt lat="44.9049425" lon="10.4738744"><ele>27.0</ele><time>2026-05-04T14:41:44.39Z</time></trkpt><trkpt lat="44.9049868" lon="10.4739384"><ele>27.0</ele><time>2026-05-04T14:41:45.391Z</time></trkpt><trkpt lat="44.9050767" lon="10.4740578"><ele>27.0</ele><time>2026-05-04T14:41:47.391Z</time></trkpt><trkpt lat="44.9051581" lon="10.4741913"><ele>27.0</ele><time>2026-05-04T14:41:49.391Z</time></trkpt><trkpt lat="44.9052434" lon="10.4743251"><ele>27.000000000000004</ele><time>2026-05-04T14:41:51.39Z</time></trkpt><trkpt lat="44.9052831" lon="10.4743964"><ele>27.000000000000004</ele><time>2026-05-04T14:41:52.391Z</time></trkpt><trkpt lat="44.9053243" lon="10.4744672"><ele>27.0</ele><time>2026-05-04T14:41:53.39Z</time></trkpt><trkpt lat="44.9053865" lon="10.4746199"><ele>27.0</ele><time>2026-05-04T14:41:55.39Z</time></trkpt><trkpt lat="44.9054513" lon="10.4747729"><ele>27.0</ele><time>2026-05-04T14:41:57.391Z</time></trkpt><trkpt lat="44.9054923" lon="10.4748538"><ele>27.0</ele><time>2026-05-04T14:41:58.39Z</time></trkpt><trkpt lat="44.9055318" lon="10.4749367"><ele>27.0</ele><time>2026-05-04T14:41:59.39Z</time></trkpt><trkpt lat="44.9055692" lon="10.4750132"><ele>27.0</ele><time>2026-05-04T14:42:00.391Z</time></trkpt><trkpt lat="44.9056032" lon="10.4750883"><ele>27.0</ele><time>2026-05-04T14:42:01.39Z</time></trkpt><trkpt lat="44.905642" lon="10.4751617"><ele>27.0</ele><time>2026-05-04T14:42:02.391Z</time></trkpt><trkpt lat="44.9056867" lon="10.4752376"><ele>27.0</ele><time>2026-05-04T14:42:03.391Z</time></trkpt><trkpt lat="44.9057282" lon="10.4753154"><ele>27.0</ele><time>2026-05-04T14:42:04.39Z</time></trkpt><trkpt lat="44.9057623" lon="10.4753972"><ele>27.0</ele><time>2026-05-04T14:42:05.391Z</time></trkpt><trkpt lat="44.9057962" lon="10.4754779"><ele>27.0</ele><time>2026-05-04T14:42:06.39Z</time></trkpt><trkpt lat="44.9058313" lon="10.475557"><ele>27.0</ele><time>2026-05-04T14:42:07.391Z</time></trkpt><trkpt lat="44.9058672" lon="10.4756424"><ele>27.0</ele><time>2026-05-04T14:42:08.39Z</time></trkpt><trkpt lat="44.9058979" lon="10.475726"><ele>27.0</ele><time>2026-05-04T14:42:09.39Z</time></trkpt><trkpt lat="44.9059286" lon="10.4758082"><ele>27.0</ele><time>2026-05-04T14:42:10.391Z</time></trkpt><trkpt lat="44.9059618" lon="10.4758875"><ele>26.8</ele><time>2026-05-04T14:42:11.391Z</time></trkpt><trkpt lat="44.9059925" lon="10.4759696"><ele>26.6</ele><time>2026-05-04T14:42:12.39Z</time></trkpt><trkpt lat="44.9060199" lon="10.4760541"><ele>26.400000000000002</ele><time>2026-05-04T14:42:13.39Z</time></trkpt><trkpt lat="44.9060725" lon="10.4762125"><ele>26.200000000000003</ele><time>2026-05-04T14:42:15.391Z</time></trkpt><trkpt lat="44.9061021" lon="10.4762946"><ele>26.0</ele><time>2026-05-04T14:42:16.391Z</time></trkpt><trkpt lat="44.9061595" lon="10.4764581"><ele>25.71428571428571</ele><time>2026-05-04T14:42:18.39Z</time></trkpt><trkpt lat="44.9061851" lon="10.4765415"><ele>25.42857142857143</ele><time>2026-05-04T14:42:19.39Z</time></trkpt><trkpt lat="44.9062093" lon="10.4766253"><ele>25.142857142857142</ele><time>2026-05-04T14:42:20.391Z</time></trkpt><trkpt lat="44.9062382" lon="10.4767052"><ele>24.857142857142854</ele><time>2026-05-04T14:42:21.391Z</time></trkpt><trkpt lat="44.9062633" lon="10.4767897"><ele>24.57142857142857</ele><time>2026-05-04T14:42:22.39Z</time></trkpt><trkpt lat="44.9062862" lon="10.4768758"><ele>24.285714285714285</ele><time>2026-05-04T14:42:23.391Z</time></trkpt><trkpt lat="44.9063119" lon="10.4769646"><ele>24.0</ele><time>2026-05-04T14:42:24.39Z</time></trkpt><trkpt lat="44.9063296" lon="10.4770501"><ele>24.4</ele><time>2026-05-04T14:42:25.391Z</time></trkpt><trkpt lat="44.9063498" lon="10.4771375"><ele>24.799999999999997</ele><time>2026-05-04T14:42:26.39Z</time></trkpt><trkpt lat="44.9063667" lon="10.4772262"><ele>25.200000000000003</ele><time>2026-05-04T14:42:27.391Z</time></trkpt><trkpt lat="44.9064046" lon="10.4773917"><ele>25.6</ele><time>2026-05-04T14:42:29.391Z</time></trkpt><trkpt lat="44.906427" lon="10.4774792"><ele>26.0</ele><time>2026-05-04T14:42:30.39Z</time></trkpt><trkpt lat="44.9064623" lon="10.4776579"><ele>25.999999999999996</ele><time>2026-05-04T14:42:32.39Z</time></trkpt><trkpt lat="44.9065003" lon="10.4778313"><ele>26.0</ele><time>2026-05-04T14:42:34.391Z</time></trkpt><trkpt lat="44.9065181" lon="10.4779193"><ele>26.0</ele><time>2026-05-04T14:42:35.391Z</time></trkpt><trkpt lat="44.9065355" lon="10.4780074"><ele>26.0</ele><time>2026-05-04T14:42:36.391Z</time></trkpt><trkpt lat="44.9065544" lon="10.4780923"><ele>25.999999999999996</ele><time>2026-05-04T14:42:37.391Z</time></trkpt><trkpt lat="44.9065885" lon="10.4782633"><ele>26.0</ele><time>2026-05-04T14:42:39.39Z</time></trkpt><trkpt lat="44.9066106" lon="10.4783509"><ele>26.0</ele><time>2026-05-04T14:42:40.39Z</time></trkpt><trkpt lat="44.906655" lon="10.478525"><ele>26.0</ele><time>2026-05-04T14:42:42.39Z</time></trkpt><trkpt lat="44.906696" lon="10.4786882"><ele>26.0</ele><time>2026-05-04T14:42:44.39Z</time></trkpt><trkpt lat="44.9067291" lon="10.4788416"><ele>26.0</ele><time>2026-05-04T14:42:46.39Z</time></trkpt><trkpt lat="44.9067619" lon="10.4789892"><ele>26.0</ele><time>2026-05-04T14:42:48.391Z</time></trkpt><trkpt lat="44.9067786" lon="10.4791367"><ele>26.0</ele><time>2026-05-04T14:42:50.391Z</time></trkpt><trkpt lat="44.9068107" lon="10.4792675"><ele>26.0</ele><time>2026-05-04T14:42:52.391Z</time></trkpt><trkpt lat="44.9068512" lon="10.4793931"><ele>26.0</ele><time>2026-05-04T14:42:54.39Z</time></trkpt><trkpt lat="44.9069263" lon="10.4794866"><ele>26.0</ele><time>2026-05-04T14:42:56.39Z</time></trkpt><trkpt lat="44.9070204" lon="10.4795215"><ele>25.999999999999996</ele><time>2026-05-04T14:42:58.39Z</time></trkpt><trkpt lat="44.9071309" lon="10.4795327"><ele>26.0</ele><time>2026-05-04T14:43:00.391Z</time></trkpt><trkpt lat="44.9072063" lon="10.4795328"><ele>26.0</ele><time>2026-05-04T14:43:02.391Z</time></trkpt><trkpt lat="44.907288" lon="10.4795302"><ele>26.0</ele><time>2026-05-04T14:43:05.391Z</time></trkpt><trkpt lat="44.9073575" lon="10.4795176"><ele>25.999999999999996</ele><time>2026-05-04T14:43:07.391Z</time></trkpt><trkpt lat="44.9074631" lon="10.4795233"><ele>26.0</ele><time>2026-05-04T14:43:09.391Z</time></trkpt><trkpt lat="44.9075759" lon="10.4795224"><ele>26.0</ele><time>2026-05-04T14:43:11.391Z</time></trkpt><trkpt lat="44.9076925" lon="10.4795324"><ele>26.0</ele><time>2026-05-04T14:43:13.391Z</time></trkpt><trkpt lat="44.9077827" lon="10.4795635"><ele>26.0</ele><time>2026-05-04T14:43:15.391Z</time></trkpt><trkpt lat="44.907886" lon="10.4795874"><ele>26.0</ele><time>2026-05-04T14:43:17.39Z</time></trkpt><trkpt lat="44.9079939" lon="10.4796167"><ele>26.0</ele><time>2026-05-04T14:43:19.39Z</time></trkpt><trkpt lat="44.9081113" lon="10.4796156"><ele>26.0</ele><time>2026-05-04T14:43:21.391Z</time></trkpt><trkpt lat="44.908229" lon="10.4796008"><ele>26.0</ele><time>2026-05-04T14:43:23.39Z</time></trkpt><trkpt lat="44.9083397" lon="10.4796121"><ele>26.0</ele><time>2026-05-04T14:43:25.39Z</time></trkpt><trkpt lat="44.9084529" lon="10.4796054"><ele>26.0</ele><time>2026-05-04T14:43:27.391Z</time></trkpt><trkpt lat="44.9085679" lon="10.4796015"><ele>25.6</ele><time>2026-05-04T14:43:29.39Z</time></trkpt><trkpt lat="44.9086796" lon="10.4795915"><ele>25.200000000000003</ele><time>2026-05-04T14:43:31.39Z</time></trkpt><trkpt lat="44.908791" lon="10.4795934"><ele>24.799999999999997</ele><time>2026-05-04T14:43:33.391Z</time></trkpt><trkpt lat="44.9089025" lon="10.4795851"><ele>24.4</ele><time>2026-05-04T14:43:35.39Z</time></trkpt><trkpt lat="44.9089697" lon="10.4795873"><ele>24.0</ele><time>2026-05-04T14:43:36.39Z</time></trkpt><trkpt lat="44.9090338" lon="10.4795873"><ele>23.999999999999996</ele><time>2026-05-04T14:43:37.391Z</time></trkpt><trkpt lat="44.9090974" lon="10.4795832"><ele>24.0</ele><time>2026-05-04T14:43:38.391Z</time></trkpt><trkpt lat="44.9091611" lon="10.4795903"><ele>24.0</ele><time>2026-05-04T14:43:39.39Z</time></trkpt><trkpt lat="44.9092251" lon="10.4795957"><ele>24.0</ele><time>2026-05-04T14:43:40.39Z</time></trkpt><trkpt lat="44.9092911" lon="10.4795961"><ele>24.0</ele><time>2026-05-04T14:43:41.391Z</time></trkpt><trkpt lat="44.9093553" lon="10.4795922"><ele>23.999999999999996</ele><time>2026-05-04T14:43:42.39Z</time></trkpt><trkpt lat="44.9094823" lon="10.4795779"><ele>24.0</ele><time>2026-05-04T14:43:44.39Z</time></trkpt><trkpt lat="44.9096058" lon="10.4795705"><ele>23.833333333333332</ele><time>2026-05-04T14:43:46.391Z</time></trkpt><trkpt lat="44.9096741" lon="10.4795705"><ele>23.666666666666668</ele><time>2026-05-04T14:43:47.391Z</time></trkpt><trkpt lat="44.9097406" lon="10.479567"><ele>23.5</ele><time>2026-05-04T14:43:48.39Z</time></trkpt><trkpt lat="44.909855" lon="10.479549"><ele>23.333333333333336</ele><time>2026-05-04T14:43:50.391Z</time></trkpt><trkpt lat="44.9099225" lon="10.479539"><ele>23.166666666666668</ele><time>2026-05-04T14:43:51.39Z</time></trkpt><trkpt lat="44.9099943" lon="10.4795296"><ele>23.0</ele><time>2026-05-04T14:43:52.391Z</time></trkpt><trkpt lat="44.9101168" lon="10.4795041"><ele>22.799999999999997</ele><time>2026-05-04T14:43:54.39Z</time></trkpt><trkpt lat="44.9101819" lon="10.479492"><ele>22.6</ele><time>2026-05-04T14:43:55.39Z</time></trkpt><trkpt lat="44.9103088" lon="10.4794649"><ele>22.4</ele><time>2026-05-04T14:43:57.39Z</time></trkpt><trkpt lat="44.9103757" lon="10.4794534"><ele>22.200000000000003</ele><time>2026-05-04T14:43:58.391Z</time></trkpt><trkpt lat="44.9104987" lon="10.4794241"><ele>22.0</ele><time>2026-05-04T14:44:00.39Z</time></trkpt><trkpt lat="44.9105622" lon="10.4794105"><ele>22.0</ele><time>2026-05-04T14:44:01.39Z</time></trkpt><trkpt lat="44.9106818" lon="10.4793879"><ele>22.0</ele><time>2026-05-04T14:44:03.391Z</time></trkpt><trkpt lat="44.9107511" lon="10.4793773"><ele>22.0</ele><time>2026-05-04T14:44:04.39Z</time></trkpt><trkpt lat="44.9108206" lon="10.4793658"><ele>22.0</ele><time>2026-05-04T14:44:05.391Z</time></trkpt><trkpt lat="44.9108895" lon="10.4793514"><ele>22.0</ele><time>2026-05-04T14:44:06.39Z</time></trkpt><trkpt lat="44.9109612" lon="10.4793422"><ele>22.0</ele><time>2026-05-04T14:44:07.391Z</time></trkpt><trkpt lat="44.9110292" lon="10.47933"><ele>22.0</ele><time>2026-05-04T14:44:08.391Z</time></trkpt><trkpt lat="44.9110926" lon="10.4793162"><ele>22.0</ele><time>2026-05-04T14:44:09.391Z</time></trkpt><trkpt lat="44.9111574" lon="10.4793017"><ele>22.0</ele><time>2026-05-04T14:44:10.39Z</time></trkpt><trkpt lat="44.9112295" lon="10.4793075"><ele>22.0</ele><time>2026-05-04T14:44:11.39Z</time></trkpt><trkpt lat="44.9112947" lon="10.4792922"><ele>22.0</ele><time>2026-05-04T14:44:12.39Z</time></trkpt><trkpt lat="44.9113629" lon="10.4792748"><ele>22.0</ele><time>2026-05-04T14:44:13.39Z</time></trkpt><trkpt lat="44.9114925" lon="10.4792497"><ele>22.0</ele><time>2026-05-04T14:44:15.39Z</time></trkpt><trkpt lat="44.9115655" lon="10.4792354"><ele>22.0</ele><time>2026-05-04T14:44:16.391Z</time></trkpt><trkpt lat="44.9116839" lon="10.479206"><ele>22.0</ele><time>2026-05-04T14:44:18.391Z</time></trkpt><trkpt lat="44.9117523" lon="10.4791836"><ele>22.0</ele><time>2026-05-04T14:44:19.39Z</time></trkpt><trkpt lat="44.9118216" lon="10.4791721"><ele>22.0</ele><time>2026-05-04T14:44:20.391Z</time></trkpt><trkpt lat="44.9118921" lon="10.4791597"><ele>22.0</ele><time>2026-05-04T14:44:21.391Z</time></trkpt><trkpt lat="44.9119568" lon="10.4791416"><ele>22.333333333333332</ele><time>2026-05-04T14:44:22.39Z</time></trkpt><trkpt lat="44.9120234" lon="10.4791112"><ele>22.666666666666664</ele><time>2026-05-04T14:44:23.391Z</time></trkpt><trkpt lat="44.9120854" lon="10.4790772"><ele>23.0</ele><time>2026-05-04T14:44:24.39Z</time></trkpt><trkpt lat="44.912144" lon="10.4790388"><ele>23.333333333333332</ele><time>2026-05-04T14:44:25.39Z</time></trkpt><trkpt lat="44.9122007" lon="10.4790001"><ele>23.666666666666668</ele><time>2026-05-04T14:44:26.391Z</time></trkpt><trkpt lat="44.9122759" lon="10.4788589"><ele>24.0</ele><time>2026-05-04T14:44:28.391Z</time></trkpt><trkpt lat="44.912285" lon="10.4786916"><ele>23.999999999999996</ele><time>2026-05-04T14:44:30.391Z</time></trkpt><trkpt lat="44.9122708" lon="10.4785933"><ele>24.0</ele><time>2026-05-04T14:44:31.391Z</time></trkpt><trkpt lat="44.9122526" lon="10.4785015"><ele>24.0</ele><time>2026-05-04T14:44:32.391Z</time></trkpt><trkpt lat="44.9122329" lon="10.4784096"><ele>24.0</ele><time>2026-05-04T14:44:33.391Z</time></trkpt><trkpt lat="44.9122167" lon="10.4783152"><ele>24.0</ele><time>2026-05-04T14:44:34.391Z</time></trkpt><trkpt lat="44.9121962" lon="10.4782294"><ele>23.999999999999996</ele><time>2026-05-04T14:44:35.391Z</time></trkpt><trkpt lat="44.9121737" lon="10.4781332"><ele>24.0</ele><time>2026-05-04T14:44:36.39Z</time></trkpt><trkpt lat="44.9121551" lon="10.4780398"><ele>23.999999999999996</ele><time>2026-05-04T14:44:37.391Z</time></trkpt><trkpt lat="44.9121315" lon="10.4779524"><ele>24.0</ele><time>2026-05-04T14:44:38.39Z</time></trkpt><trkpt lat="44.9121134" lon="10.4778596"><ele>24.0</ele><time>2026-05-04T14:44:39.391Z</time></trkpt><trkpt lat="44.9120935" lon="10.477759"><ele>24.0</ele><time>2026-05-04T14:44:40.391Z</time></trkpt><trkpt lat="44.9120771" lon="10.4776661"><ele>24.0</ele><time>2026-05-04T14:44:41.39Z</time></trkpt><trkpt lat="44.9120579" lon="10.4775754"><ele>23.999999999999996</ele><time>2026-05-04T14:44:42.391Z</time></trkpt><trkpt lat="44.912041" lon="10.4774792"><ele>24.0</ele><time>2026-05-04T14:44:43.39Z</time></trkpt><trkpt lat="44.9120174" lon="10.4773887"><ele>24.0</ele><time>2026-05-04T14:44:44.39Z</time></trkpt><trkpt lat="44.9119963" lon="10.4773027"><ele>24.0</ele><time>2026-05-04T14:44:45.39Z</time></trkpt><trkpt lat="44.9119794" lon="10.4772158"><ele>24.0</ele><time>2026-05-04T14:44:46.391Z</time></trkpt><trkpt lat="44.9119552" lon="10.4771267"><ele>24.0</ele><time>2026-05-04T14:44:47.391Z</time></trkpt><trkpt lat="44.9119232" lon="10.4769555"><ele>24.0</ele><time>2026-05-04T14:44:49.391Z</time></trkpt><trkpt lat="44.9119054" lon="10.4768561"><ele>24.0</ele><time>2026-05-04T14:44:50.39Z</time></trkpt><trkpt lat="44.911884" lon="10.4767628"><ele>23.999999999999996</ele><time>2026-05-04T14:44:51.391Z</time></trkpt><trkpt lat="44.911864" lon="10.4766757"><ele>24.0</ele><time>2026-05-04T14:44:52.39Z</time></trkpt><trkpt lat="44.9118438" lon="10.4765911"><ele>24.0</ele><time>2026-05-04T14:44:53.391Z</time></trkpt><trkpt lat="44.9118216" lon="10.4765048"><ele>24.0</ele><time>2026-05-04T14:44:54.39Z</time></trkpt><trkpt lat="44.9118094" lon="10.4764163"><ele>24.0</ele><time>2026-05-04T14:44:55.39Z</time></trkpt><trkpt lat="44.9117864" lon="10.4763322"><ele>23.999999999999996</ele><time>2026-05-04T14:44:56.39Z</time></trkpt><trkpt lat="44.9117566" lon="10.4761624"><ele>24.0</ele><time>2026-05-04T14:44:58.39Z</time></trkpt><trkpt lat="44.9117499" lon="10.476071"><ele>24.0</ele><time>2026-05-04T14:44:59.39Z</time></trkpt><trkpt lat="44.9117349" lon="10.475979"><ele>24.0</ele><time>2026-05-04T14:45:00.391Z</time></trkpt><trkpt lat="44.9117286" lon="10.475888"><ele>24.0</ele><time>2026-05-04T14:45:01.391Z</time></trkpt><trkpt lat="44.9117244" lon="10.4757951"><ele>24.0</ele><time>2026-05-04T14:45:02.391Z</time></trkpt><trkpt lat="44.9117207" lon="10.4756151"><ele>24.0</ele><time>2026-05-04T14:45:04.39Z</time></trkpt><trkpt lat="44.9117316" lon="10.4755272"><ele>24.0</ele><time>2026-05-04T14:45:05.391Z</time></trkpt><trkpt lat="44.9117419" lon="10.4754364"><ele>23.999999999999996</ele><time>2026-05-04T14:45:06.391Z</time></trkpt><trkpt lat="44.9117475" lon="10.4753465"><ele>24.0</ele><time>2026-05-04T14:45:07.39Z</time></trkpt><trkpt lat="44.9117626" lon="10.4752581"><ele>24.0</ele><time>2026-05-04T14:45:08.39Z</time></trkpt><trkpt lat="44.911779" lon="10.4751689"><ele>24.0</ele><time>2026-05-04T14:45:09.391Z</time></trkpt><trkpt lat="44.9117949" lon="10.4750697"><ele>24.0</ele><time>2026-05-04T14:45:10.391Z</time></trkpt><trkpt lat="44.9118077" lon="10.4749789"><ele>23.999999999999996</ele><time>2026-05-04T14:45:11.39Z</time></trkpt><trkpt lat="44.9118272" lon="10.4748927"><ele>24.0</ele><time>2026-05-04T14:45:12.39Z</time></trkpt><trkpt lat="44.9118383" lon="10.4748033"><ele>24.0</ele><time>2026-05-04T14:45:13.39Z</time></trkpt><trkpt lat="44.9118549" lon="10.4747143"><ele>24.0</ele><time>2026-05-04T14:45:14.391Z</time></trkpt><trkpt lat="44.9118687" lon="10.4746268"><ele>24.0</ele><time>2026-05-04T14:45:15.391Z</time></trkpt><trkpt lat="44.9118733" lon="10.4745326"><ele>24.0</ele><time>2026-05-04T14:45:16.391Z</time></trkpt><trkpt lat="44.9118847" lon="10.4743516"><ele>24.0</ele><time>2026-05-04T14:45:18.39Z</time></trkpt><trkpt lat="44.9118963" lon="10.4742603"><ele>24.0</ele><time>2026-05-04T14:45:19.39Z</time></trkpt><trkpt lat="44.9119227" lon="10.4740854"><ele>24.0</ele><time>2026-05-04T14:45:21.39Z</time></trkpt><trkpt lat="44.911937" lon="10.4739965"><ele>24.0</ele><time>2026-05-04T14:45:22.391Z</time></trkpt><trkpt lat="44.9119494" lon="10.473819"><ele>24.0</ele><time>2026-05-04T14:45:24.391Z</time></trkpt><trkpt lat="44.9119701" lon="10.4737307"><ele>24.0</ele><time>2026-05-04T14:45:25.39Z</time></trkpt><trkpt lat="44.9119851" lon="10.4736344"><ele>24.0</ele><time>2026-05-04T14:45:26.391Z</time></trkpt><trkpt lat="44.911997" lon="10.4735455"><ele>24.0</ele><time>2026-05-04T14:45:27.39Z</time></trkpt><trkpt lat="44.9120233" lon="10.4733733"><ele>24.0</ele><time>2026-05-04T14:45:29.39Z</time></trkpt><trkpt lat="44.9120545" lon="10.4732136"><ele>24.0</ele><time>2026-05-04T14:45:31.391Z</time></trkpt><trkpt lat="44.9120827" lon="10.4730505"><ele>24.0</ele><time>2026-05-04T14:45:33.39Z</time></trkpt><trkpt lat="44.9121024" lon="10.4729125"><ele>24.0</ele><time>2026-05-04T14:45:35.391Z</time></trkpt><trkpt lat="44.9121354" lon="10.4727826"><ele>24.0</ele><time>2026-05-04T14:45:37.39Z</time></trkpt><trkpt lat="44.9121718" lon="10.4726497"><ele>24.0</ele><time>2026-05-04T14:45:39.391Z</time></trkpt><trkpt lat="44.9122232" lon="10.4725053"><ele>24.0</ele><time>2026-05-04T14:45:41.391Z</time></trkpt><trkpt lat="44.9122723" lon="10.4723638"><ele>24.0</ele><time>2026-05-04T14:45:43.391Z</time></trkpt><trkpt lat="44.9123296" lon="10.4722092"><ele>24.0</ele><time>2026-05-04T14:45:45.39Z</time></trkpt><trkpt lat="44.9123628" lon="10.4721267"><ele>24.0</ele><time>2026-05-04T14:45:46.39Z</time></trkpt><trkpt lat="44.9124004" lon="10.4720476"><ele>23.799999999999997</ele><time>2026-05-04T14:45:47.39Z</time></trkpt><trkpt lat="44.9124569" lon="10.4719069"><ele>23.599999999999998</ele><time>2026-05-04T14:45:49.391Z</time></trkpt><trkpt lat="44.9124932" lon="10.4718321"><ele>23.4</ele><time>2026-05-04T14:45:50.39Z</time></trkpt><trkpt lat="44.9125661" lon="10.4716828"><ele>23.2</ele><time>2026-05-04T14:45:52.391Z</time></trkpt><trkpt lat="44.9126272" lon="10.4715405"><ele>23.0</ele><time>2026-05-04T14:45:54.391Z</time></trkpt><trkpt lat="44.9126899" lon="10.4713884"><ele>23.599999999999998</ele><time>2026-05-04T14:45:56.391Z</time></trkpt><trkpt lat="44.9127577" lon="10.471241"><ele>24.2</ele><time>2026-05-04T14:45:58.39Z</time></trkpt><trkpt lat="44.912832" lon="10.4711182"><ele>24.8</ele><time>2026-05-04T14:46:00.391Z</time></trkpt><trkpt lat="44.9128651" lon="10.4710379"><ele>25.4</ele><time>2026-05-04T14:46:01.39Z</time></trkpt><trkpt lat="44.9129308" lon="10.4708864"><ele>26.0</ele><time>2026-05-04T14:46:03.39Z</time></trkpt><trkpt lat="44.9129949" lon="10.4707376"><ele>25.999999999999996</ele><time>2026-05-04T14:46:05.39Z</time></trkpt><trkpt lat="44.9130364" lon="10.4706573"><ele>26.0</ele><time>2026-05-04T14:46:06.39Z</time></trkpt><trkpt lat="44.9131042" lon="10.4705095"><ele>26.0</ele><time>2026-05-04T14:46:08.391Z</time></trkpt><trkpt lat="44.9131386" lon="10.4704326"><ele>26.0</ele><time>2026-05-04T14:46:09.39Z</time></trkpt><trkpt lat="44.9131756" lon="10.4703558"><ele>25.999999999999996</ele><time>2026-05-04T14:46:10.39Z</time></trkpt><trkpt lat="44.9132189" lon="10.4702812"><ele>26.0</ele><time>2026-05-04T14:46:11.391Z</time></trkpt><trkpt lat="44.9132561" lon="10.4702049"><ele>26.0</ele><time>2026-05-04T14:46:12.39Z</time></trkpt><trkpt lat="44.9133213" lon="10.4700482"><ele>26.0</ele><time>2026-05-04T14:46:14.391Z</time></trkpt><trkpt lat="44.913391" lon="10.4698988"><ele>26.0</ele><time>2026-05-04T14:46:16.39Z</time></trkpt><trkpt lat="44.9134267" lon="10.46982"><ele>26.0</ele><time>2026-05-04T14:46:17.39Z</time></trkpt><trkpt lat="44.9134615" lon="10.4697379"><ele>26.0</ele><time>2026-05-04T14:46:18.391Z</time></trkpt><trkpt lat="44.9135362" lon="10.4695888"><ele>25.666666666666664</ele><time>2026-05-04T14:46:20.39Z</time></trkpt><trkpt lat="44.9136107" lon="10.4694516"><ele>25.333333333333332</ele><time>2026-05-04T14:46:22.391Z</time></trkpt><trkpt lat="44.9136493" lon="10.4693754"><ele>25.0</ele><time>2026-05-04T14:46:23.391Z</time></trkpt><trkpt lat="44.9136846" lon="10.4693012"><ele>24.666666666666664</ele><time>2026-05-04T14:46:24.391Z</time></trkpt><trkpt lat="44.9137203" lon="10.4692198"><ele>24.333333333333332</ele><time>2026-05-04T14:46:25.391Z</time></trkpt><trkpt lat="44.9137892" lon="10.4690765"><ele>24.0</ele><time>2026-05-04T14:46:27.39Z</time></trkpt><trkpt lat="44.9138456" lon="10.4689149"><ele>24.0</ele><time>2026-05-04T14:46:29.391Z</time></trkpt><trkpt lat="44.9138702" lon="10.4688253"><ele>24.0</ele><time>2026-05-04T14:46:30.391Z</time></trkpt><trkpt lat="44.913882" lon="10.468726"><ele>24.0</ele><time>2026-05-04T14:46:31.391Z</time></trkpt><trkpt lat="44.9138814" lon="10.4685462"><ele>24.0</ele><time>2026-05-04T14:46:33.391Z</time></trkpt><trkpt lat="44.913876" lon="10.4684519"><ele>24.0</ele><time>2026-05-04T14:46:34.391Z</time></trkpt><trkpt lat="44.9138693" lon="10.4683581"><ele>24.0</ele><time>2026-05-04T14:46:35.391Z</time></trkpt><trkpt lat="44.913853" lon="10.4682645"><ele>24.0</ele><time>2026-05-04T14:46:36.39Z</time></trkpt><trkpt lat="44.9138319" lon="10.4680843"><ele>24.0</ele><time>2026-05-04T14:46:38.391Z</time></trkpt><trkpt lat="44.9138146" lon="10.4679935"><ele>24.0</ele><time>2026-05-04T14:46:39.39Z</time></trkpt><trkpt lat="44.9138051" lon="10.4679026"><ele>24.0</ele><time>2026-05-04T14:46:40.391Z</time></trkpt><trkpt lat="44.9137908" lon="10.4678051"><ele>24.0</ele><time>2026-05-04T14:46:41.39Z</time></trkpt><trkpt lat="44.9137773" lon="10.4677124"><ele>24.0</ele><time>2026-05-04T14:46:42.39Z</time></trkpt><trkpt lat="44.913765" lon="10.4676225"><ele>23.999999999999996</ele><time>2026-05-04T14:46:43.39Z</time></trkpt><trkpt lat="44.9137603" lon="10.4675211"><ele>24.0</ele><time>2026-05-04T14:46:44.391Z</time></trkpt><trkpt lat="44.913749" lon="10.4674194"><ele>24.0</ele><time>2026-05-04T14:46:45.39Z</time></trkpt><trkpt lat="44.9137381" lon="10.4673236"><ele>24.0</ele><time>2026-05-04T14:46:46.391Z</time></trkpt><trkpt lat="44.9137285" lon="10.4672251"><ele>24.0</ele><time>2026-05-04T14:46:47.39Z</time></trkpt><trkpt lat="44.9137151" lon="10.4671344"><ele>23.999999999999996</ele><time>2026-05-04T14:46:48.39Z</time></trkpt><trkpt lat="44.9137029" lon="10.4670373"><ele>24.0</ele><time>2026-05-04T14:46:49.391Z</time></trkpt><trkpt lat="44.9136881" lon="10.4669429"><ele>23.999999999999996</ele><time>2026-05-04T14:46:50.391Z</time></trkpt><trkpt lat="44.9136748" lon="10.4668529"><ele>24.0</ele><time>2026-05-04T14:46:51.391Z</time></trkpt><trkpt lat="44.9136543" lon="10.4667601"><ele>24.0</ele><time>2026-05-04T14:46:52.39Z</time></trkpt><trkpt lat="44.9136446" lon="10.4666621"><ele>24.0</ele><time>2026-05-04T14:46:53.39Z</time></trkpt><trkpt lat="44.9136326" lon="10.4665717"><ele>24.0</ele><time>2026-05-04T14:46:54.391Z</time></trkpt><trkpt lat="44.9136204" lon="10.466473"><ele>23.999999999999996</ele><time>2026-05-04T14:46:55.39Z</time></trkpt><trkpt lat="44.9136069" lon="10.4663802"><ele>24.0</ele><time>2026-05-04T14:46:56.39Z</time></trkpt><trkpt lat="44.9135967" lon="10.4662891"><ele>24.285714285714285</ele><time>2026-05-04T14:46:57.39Z</time></trkpt><trkpt lat="44.913586" lon="10.4661803"><ele>24.57142857142857</ele><time>2026-05-04T14:46:58.391Z</time></trkpt><trkpt lat="44.9135743" lon="10.4660889"><ele>24.857142857142854</ele><time>2026-05-04T14:46:59.39Z</time></trkpt><trkpt lat="44.9135628" lon="10.4659949"><ele>25.142857142857142</ele><time>2026-05-04T14:47:00.391Z</time></trkpt><trkpt lat="44.9135472" lon="10.4659002"><ele>25.42857142857143</ele><time>2026-05-04T14:47:01.39Z</time></trkpt><trkpt lat="44.9135336" lon="10.4658107"><ele>25.71428571428571</ele><time>2026-05-04T14:47:02.39Z</time></trkpt><trkpt lat="44.913515" lon="10.4657117"><ele>26.0</ele><time>2026-05-04T14:47:03.39Z</time></trkpt><trkpt lat="44.9135114" lon="10.4656128"><ele>26.0</ele><time>2026-05-04T14:47:04.391Z</time></trkpt><trkpt lat="44.913511" lon="10.46552"><ele>26.0</ele><time>2026-05-04T14:47:05.39Z</time></trkpt><trkpt lat="44.9135134" lon="10.4654228"><ele>26.0</ele><time>2026-05-04T14:47:06.391Z</time></trkpt><trkpt lat="44.9135269" lon="10.4653238"><ele>26.0</ele><time>2026-05-04T14:47:07.391Z</time></trkpt><trkpt lat="44.9135416" lon="10.4652281"><ele>26.0</ele><time>2026-05-04T14:47:08.391Z</time></trkpt><trkpt lat="44.9135639" lon="10.465143"><ele>26.0</ele><time>2026-05-04T14:47:09.39Z</time></trkpt><trkpt lat="44.9135971" lon="10.4650623"><ele>26.0</ele><time>2026-05-04T14:47:10.39Z</time></trkpt><trkpt lat="44.9136253" lon="10.4649755"><ele>26.0</ele><time>2026-05-04T14:47:11.39Z</time></trkpt><trkpt lat="44.9136571" lon="10.4648849"><ele>26.0</ele><time>2026-05-04T14:47:12.39Z</time></trkpt><trkpt lat="44.9136824" lon="10.4648"><ele>26.0</ele><time>2026-05-04T14:47:13.39Z</time></trkpt><trkpt lat="44.9137103" lon="10.4647143"><ele>26.0</ele><time>2026-05-04T14:47:14.39Z</time></trkpt><trkpt lat="44.913743" lon="10.464625"><ele>26.0</ele><time>2026-05-04T14:47:15.391Z</time></trkpt><trkpt lat="44.9137702" lon="10.4645365"><ele>26.0</ele><time>2026-05-04T14:47:16.391Z</time></trkpt><trkpt lat="44.9137943" lon="10.4644484"><ele>26.0</ele><time>2026-05-04T14:47:17.391Z</time></trkpt><trkpt lat="44.9138228" lon="10.4643673"><ele>26.285714285714285</ele><time>2026-05-04T14:47:18.39Z</time></trkpt><trkpt lat="44.913855" lon="10.4642893"><ele>26.571428571428573</ele><time>2026-05-04T14:47:19.391Z</time></trkpt><trkpt lat="44.9138835" lon="10.4642053"><ele>26.857142857142858</ele><time>2026-05-04T14:47:20.39Z</time></trkpt><trkpt lat="44.9139164" lon="10.4641217"><ele>27.142857142857142</ele><time>2026-05-04T14:47:21.391Z</time></trkpt><trkpt lat="44.9139415" lon="10.4640376"><ele>27.42857142857143</ele><time>2026-05-04T14:47:22.39Z</time></trkpt><trkpt lat="44.9139708" lon="10.4639543"><ele>27.714285714285715</ele><time>2026-05-04T14:47:23.391Z</time></trkpt><trkpt lat="44.914001" lon="10.4638655"><ele>28.0</ele><time>2026-05-04T14:47:24.39Z</time></trkpt><trkpt lat="44.914035" lon="10.4637823"><ele>27.857142857142858</ele><time>2026-05-04T14:47:25.39Z</time></trkpt><trkpt lat="44.9140643" lon="10.4636986"><ele>27.714285714285715</ele><time>2026-05-04T14:47:26.391Z</time></trkpt><trkpt lat="44.9140971" lon="10.4636146"><ele>27.57142857142857</ele><time>2026-05-04T14:47:27.391Z</time></trkpt><trkpt lat="44.9141283" lon="10.4635299"><ele>27.42857142857143</ele><time>2026-05-04T14:47:28.39Z</time></trkpt><trkpt lat="44.9141606" lon="10.463444"><ele>27.285714285714285</ele><time>2026-05-04T14:47:29.391Z</time></trkpt><trkpt lat="44.9142002" lon="10.463364"><ele>27.142857142857142</ele><time>2026-05-04T14:47:30.39Z</time></trkpt><trkpt lat="44.9142425" lon="10.4632927"><ele>27.0</ele><time>2026-05-04T14:47:31.391Z</time></trkpt><trkpt lat="44.9142795" lon="10.4632178"><ele>27.0</ele><time>2026-05-04T14:47:32.39Z</time></trkpt><trkpt lat="44.9143221" lon="10.4631456"><ele>27.0</ele><time>2026-05-04T14:47:33.391Z</time></trkpt><trkpt lat="44.9143642" lon="10.4630748"><ele>27.0</ele><time>2026-05-04T14:47:34.39Z</time></trkpt><trkpt lat="44.9143982" lon="10.4629985"><ele>27.0</ele><time>2026-05-04T14:47:35.391Z</time></trkpt><trkpt lat="44.9144782" lon="10.4628706"><ele>27.0</ele><time>2026-05-04T14:47:37.39Z</time></trkpt><trkpt lat="44.9145184" lon="10.4628014"><ele>27.0</ele><time>2026-05-04T14:47:38.39Z</time></trkpt><trkpt lat="44.9145638" lon="10.4627285"><ele>27.0</ele><time>2026-05-04T14:47:39.39Z</time></trkpt><trkpt lat="44.9146102" lon="10.4626589"><ele>26.857142857142858</ele><time>2026-05-04T14:47:40.39Z</time></trkpt><trkpt lat="44.9146544" lon="10.4625889"><ele>26.714285714285715</ele><time>2026-05-04T14:47:41.391Z</time></trkpt><trkpt lat="44.9146938" lon="10.4625183"><ele>26.57142857142857</ele><time>2026-05-04T14:47:42.391Z</time></trkpt><trkpt lat="44.9147412" lon="10.4624497"><ele>26.42857142857143</ele><time>2026-05-04T14:47:43.39Z</time></trkpt><trkpt lat="44.9147775" lon="10.4623763"><ele>26.28571428571429</ele><time>2026-05-04T14:47:44.391Z</time></trkpt><trkpt lat="44.9148213" lon="10.4623058"><ele>26.142857142857142</ele><time>2026-05-04T14:47:45.391Z</time></trkpt><trkpt lat="44.9148574" lon="10.4622282"><ele>26.0</ele><time>2026-05-04T14:47:46.39Z</time></trkpt><trkpt lat="44.9148975" lon="10.4621498"><ele>26.0</ele><time>2026-05-04T14:47:47.391Z</time></trkpt><trkpt lat="44.9149796" lon="10.4620089"><ele>26.0</ele><time>2026-05-04T14:47:49.39Z</time></trkpt><trkpt lat="44.9150457" lon="10.4618614"><ele>26.0</ele><time>2026-05-04T14:47:51.391Z</time></trkpt><trkpt lat="44.9150828" lon="10.4617891"><ele>26.0</ele><time>2026-05-04T14:47:52.391Z</time></trkpt><trkpt lat="44.9151185" lon="10.461715"><ele>26.0</ele><time>2026-05-04T14:47:53.391Z</time></trkpt><trkpt lat="44.9151815" lon="10.461566"><ele>25.833333333333332</ele><time>2026-05-04T14:47:55.391Z</time></trkpt><trkpt lat="44.9152115" lon="10.4614773"><ele>25.666666666666664</ele><time>2026-05-04T14:47:56.391Z</time></trkpt><trkpt lat="44.9152402" lon="10.4613937"><ele>25.5</ele><time>2026-05-04T14:47:57.391Z</time></trkpt><trkpt lat="44.9152928" lon="10.4612318"><ele>25.333333333333336</ele><time>2026-05-04T14:47:59.391Z</time></trkpt><trkpt lat="44.9153152" lon="10.4611477"><ele>25.166666666666668</ele><time>2026-05-04T14:48:00.39Z</time></trkpt><trkpt lat="44.9153341" lon="10.4610559"><ele>25.0</ele><time>2026-05-04T14:48:01.39Z</time></trkpt><trkpt lat="44.9153546" lon="10.460966"><ele>25.0</ele><time>2026-05-04T14:48:02.39Z</time></trkpt><trkpt lat="44.9153852" lon="10.4607999"><ele>25.0</ele><time>2026-05-04T14:48:04.39Z</time></trkpt><trkpt lat="44.9154088" lon="10.4607165"><ele>25.0</ele><time>2026-05-04T14:48:05.39Z</time></trkpt><trkpt lat="44.9154445" lon="10.4605525"><ele>25.0</ele><time>2026-05-04T14:48:07.391Z</time></trkpt><trkpt lat="44.9154872" lon="10.4604095"><ele>25.0</ele><time>2026-05-04T14:48:09.391Z</time></trkpt><trkpt lat="44.9155224" lon="10.4602458"><ele>25.500000000000004</ele><time>2026-05-04T14:48:11.391Z</time></trkpt><trkpt lat="44.9155686" lon="10.4600989"><ele>26.0</ele><time>2026-05-04T14:48:13.391Z</time></trkpt><trkpt lat="44.9156356" lon="10.4599596"><ele>26.5</ele><time>2026-05-04T14:48:15.391Z</time></trkpt><trkpt lat="44.9156729" lon="10.4598823"><ele>27.0</ele><time>2026-05-04T14:48:16.391Z</time></trkpt><trkpt lat="44.9157179" lon="10.4598132"><ele>27.500000000000004</ele><time>2026-05-04T14:48:17.391Z</time></trkpt><trkpt lat="44.9157559" lon="10.4597367"><ele>28.0</ele><time>2026-05-04T14:48:18.39Z</time></trkpt><trkpt lat="44.915832" lon="10.4595989"><ele>28.0</ele><time>2026-05-04T14:48:20.39Z</time></trkpt><trkpt lat="44.9159126" lon="10.4594743"><ele>28.0</ele><time>2026-05-04T14:48:22.39Z</time></trkpt><trkpt lat="44.9159933" lon="10.4593679"><ele>28.0</ele><time>2026-05-04T14:48:24.391Z</time></trkpt><trkpt lat="44.9160643" lon="10.4592447"><ele>28.0</ele><time>2026-05-04T14:48:26.391Z</time></trkpt><trkpt lat="44.9161423" lon="10.4591144"><ele>28.000000000000004</ele><time>2026-05-04T14:48:28.391Z</time></trkpt><trkpt lat="44.9162252" lon="10.4589821"><ele>28.0</ele><time>2026-05-04T14:48:30.391Z</time></trkpt><trkpt lat="44.9162647" lon="10.4589029"><ele>28.0</ele><time>2026-05-04T14:48:31.39Z</time></trkpt><trkpt lat="44.9163064" lon="10.4588343"><ele>28.0</ele><time>2026-05-04T14:48:32.391Z</time></trkpt><trkpt lat="44.9163463" lon="10.4587637"><ele>28.000000000000004</ele><time>2026-05-04T14:48:33.391Z</time></trkpt><trkpt lat="44.9164143" lon="10.4586152"><ele>28.0</ele><time>2026-05-04T14:48:35.391Z</time></trkpt><trkpt lat="44.9164376" lon="10.4584455"><ele>28.0</ele><time>2026-05-04T14:48:37.39Z</time></trkpt><trkpt lat="44.9163868" lon="10.4582802"><ele>27.999999999999996</ele><time>2026-05-04T14:48:39.391Z</time></trkpt><trkpt lat="44.9163518" lon="10.458198"><ele>27.999999999999996</ele><time>2026-05-04T14:48:40.391Z</time></trkpt><trkpt lat="44.9163194" lon="10.4581172"><ele>28.0</ele><time>2026-05-04T14:48:41.39Z</time></trkpt><trkpt lat="44.9162589" lon="10.4579863"><ele>28.0</ele><time>2026-05-04T14:48:43.39Z</time></trkpt><trkpt lat="44.9162102" lon="10.4578464"><ele>27.599999999999998</ele><time>2026-05-04T14:48:45.391Z</time></trkpt><trkpt lat="44.916172" lon="10.4577023"><ele>27.199999999999996</ele><time>2026-05-04T14:48:47.391Z</time></trkpt><trkpt lat="44.9161343" lon="10.4575655"><ele>26.8</ele><time>2026-05-04T14:48:49.391Z</time></trkpt><trkpt lat="44.9160968" lon="10.4574142"><ele>26.4</ele><time>2026-05-04T14:48:51.391Z</time></trkpt><trkpt lat="44.9160801" lon="10.4573205"><ele>26.0</ele><time>2026-05-04T14:48:52.39Z</time></trkpt><trkpt lat="44.9160469" lon="10.4571489"><ele>26.0</ele><time>2026-05-04T14:48:54.39Z</time></trkpt><trkpt lat="44.9160328" lon="10.4570615"><ele>26.0</ele><time>2026-05-04T14:48:55.39Z</time></trkpt><trkpt lat="44.9160218" lon="10.4569671"><ele>26.0</ele><time>2026-05-04T14:48:56.391Z</time></trkpt><trkpt lat="44.9160006" lon="10.4567857"><ele>26.0</ele><time>2026-05-04T14:48:58.39Z</time></trkpt><trkpt lat="44.9159891" lon="10.4566913"><ele>26.0</ele><time>2026-05-04T14:48:59.39Z</time></trkpt><trkpt lat="44.9159722" lon="10.4565166"><ele>26.0</ele><time>2026-05-04T14:49:01.39Z</time></trkpt><trkpt lat="44.9159622" lon="10.4564285"><ele>26.0</ele><time>2026-05-04T14:49:02.391Z</time></trkpt><trkpt lat="44.9159614" lon="10.4563386"><ele>26.0</ele><time>2026-05-04T14:49:03.39Z</time></trkpt><trkpt lat="44.915958" lon="10.4562429"><ele>26.0</ele><time>2026-05-04T14:49:04.39Z</time></trkpt><trkpt lat="44.9159399" lon="10.4560668"><ele>26.0</ele><time>2026-05-04T14:49:06.39Z</time></trkpt><trkpt lat="44.9159206" lon="10.4558863"><ele>25.857142857142858</ele><time>2026-05-04T14:49:08.391Z</time></trkpt><trkpt lat="44.9159162" lon="10.4557873"><ele>25.714285714285715</ele><time>2026-05-04T14:49:09.39Z</time></trkpt><trkpt lat="44.9159061" lon="10.4556882"><ele>25.571428571428573</ele><time>2026-05-04T14:49:10.391Z</time></trkpt><trkpt lat="44.9159045" lon="10.4555901"><ele>25.42857142857143</ele><time>2026-05-04T14:49:11.39Z</time></trkpt><trkpt lat="44.915895" lon="10.4555014"><ele>25.285714285714285</ele><time>2026-05-04T14:49:12.391Z</time></trkpt><trkpt lat="44.915891" lon="10.4554112"><ele>25.142857142857146</ele><time>2026-05-04T14:49:13.39Z</time></trkpt><trkpt lat="44.9159059" lon="10.4553211"><ele>25.0</ele><time>2026-05-04T14:49:14.391Z</time></trkpt><trkpt lat="44.9159695" lon="10.4551609"><ele>24.714285714285715</ele><time>2026-05-04T14:49:16.39Z</time></trkpt><trkpt lat="44.9160036" lon="10.4550787"><ele>24.42857142857143</ele><time>2026-05-04T14:49:17.39Z</time></trkpt><trkpt lat="44.9160363" lon="10.4549974"><ele>24.142857142857146</ele><time>2026-05-04T14:49:18.39Z</time></trkpt><trkpt lat="44.9160776" lon="10.4549206"><ele>23.857142857142858</ele><time>2026-05-04T14:49:19.391Z</time></trkpt><trkpt lat="44.9161226" lon="10.4548521"><ele>23.57142857142857</ele><time>2026-05-04T14:49:20.391Z</time></trkpt><trkpt lat="44.9161622" lon="10.4547803"><ele>23.28571428571429</ele><time>2026-05-04T14:49:21.391Z</time></trkpt><trkpt lat="44.9161969" lon="10.4547043"><ele>23.0</ele><time>2026-05-04T14:49:22.39Z</time></trkpt><trkpt lat="44.91624" lon="10.4546315"><ele>23.714285714285715</ele><time>2026-05-04T14:49:23.39Z</time></trkpt><trkpt lat="44.9162795" lon="10.4545553"><ele>24.428571428571427</ele><time>2026-05-04T14:49:24.39Z</time></trkpt><trkpt lat="44.9163243" lon="10.4544819"><ele>25.142857142857142</ele><time>2026-05-04T14:49:25.391Z</time></trkpt><trkpt lat="44.9163626" lon="10.4544027"><ele>25.857142857142858</ele><time>2026-05-04T14:49:26.39Z</time></trkpt><trkpt lat="44.9164049" lon="10.4543292"><ele>26.57142857142857</ele><time>2026-05-04T14:49:27.391Z</time></trkpt><trkpt lat="44.9164481" lon="10.4542574"><ele>27.285714285714285</ele><time>2026-05-04T14:49:28.391Z</time></trkpt><trkpt lat="44.9164856" lon="10.4541767"><ele>28.0</ele><time>2026-05-04T14:49:29.391Z</time></trkpt><trkpt lat="44.9165199" lon="10.454087"><ele>28.0</ele><time>2026-05-04T14:49:30.391Z</time></trkpt><trkpt lat="44.9165645" lon="10.4540148"><ele>28.0</ele><time>2026-05-04T14:49:31.391Z</time></trkpt><trkpt lat="44.9166057" lon="10.4539392"><ele>28.0</ele><time>2026-05-04T14:49:32.391Z</time></trkpt><trkpt lat="44.9166535" lon="10.4538641"><ele>28.0</ele><time>2026-05-04T14:49:33.391Z</time></trkpt><trkpt lat="44.9166966" lon="10.4537951"><ele>28.0</ele><time>2026-05-04T14:49:34.39Z</time></trkpt><trkpt lat="44.916737" lon="10.453718"><ele>28.0</ele><time>2026-05-04T14:49:35.39Z</time></trkpt><trkpt lat="44.9167836" lon="10.4536456"><ele>28.0</ele><time>2026-05-04T14:49:36.391Z</time></trkpt><trkpt lat="44.9168306" lon="10.4535747"><ele>27.857142857142858</ele><time>2026-05-04T14:49:37.391Z</time></trkpt><trkpt lat="44.9168794" lon="10.4535161"><ele>27.714285714285715</ele><time>2026-05-04T14:49:38.391Z</time></trkpt><trkpt lat="44.9169269" lon="10.4534477"><ele>27.57142857142857</ele><time>2026-05-04T14:49:39.391Z</time></trkpt><trkpt lat="44.9169781" lon="10.4533917"><ele>27.42857142857143</ele><time>2026-05-04T14:49:40.39Z</time></trkpt><trkpt lat="44.9170277" lon="10.453332"><ele>27.285714285714285</ele><time>2026-05-04T14:49:41.391Z</time></trkpt><trkpt lat="44.9170829" lon="10.4532761"><ele>27.142857142857142</ele><time>2026-05-04T14:49:42.391Z</time></trkpt><trkpt lat="44.9171379" lon="10.4532146"><ele>27.0</ele><time>2026-05-04T14:49:43.39Z</time></trkpt><trkpt lat="44.9171944" lon="10.4531632"><ele>27.0</ele><time>2026-05-04T14:49:44.39Z</time></trkpt><trkpt lat="44.9172482" lon="10.4531021"><ele>27.0</ele><time>2026-05-04T14:49:45.39Z</time></trkpt><trkpt lat="44.9172967" lon="10.4530447"><ele>27.0</ele><time>2026-05-04T14:49:46.391Z</time></trkpt><trkpt lat="44.9173462" lon="10.4529807"><ele>27.0</ele><time>2026-05-04T14:49:47.39Z</time></trkpt><trkpt lat="44.9173854" lon="10.4529047"><ele>27.0</ele><time>2026-05-04T14:49:48.39Z</time></trkpt><trkpt lat="44.9174226" lon="10.4528171"><ele>27.0</ele><time>2026-05-04T14:49:49.391Z</time></trkpt><trkpt lat="44.9174241" lon="10.4527204"><ele>27.0</ele><time>2026-05-04T14:49:50.39Z</time></trkpt><trkpt lat="44.9174154" lon="10.4525499"><ele>26.8</ele><time>2026-05-04T14:49:52.39Z</time></trkpt><trkpt lat="44.9174033" lon="10.4523981"><ele>26.6</ele><time>2026-05-04T14:49:54.391Z</time></trkpt><trkpt lat="44.9174005" lon="10.4522515"><ele>26.400000000000002</ele><time>2026-05-04T14:49:56.391Z</time></trkpt><trkpt lat="44.9173954" lon="10.4521093"><ele>26.200000000000003</ele><time>2026-05-04T14:49:58.39Z</time></trkpt><trkpt lat="44.9173772" lon="10.4519729"><ele>26.0</ele><time>2026-05-04T14:50:00.39Z</time></trkpt><trkpt lat="44.917374" lon="10.451815"><ele>26.0</ele><time>2026-05-04T14:50:02.39Z</time></trkpt><trkpt lat="44.9173733" lon="10.4516526"><ele>26.0</ele><time>2026-05-04T14:50:04.391Z</time></trkpt><trkpt lat="44.9173721" lon="10.4515627"><ele>26.0</ele><time>2026-05-04T14:50:05.391Z</time></trkpt><trkpt lat="44.9173954" lon="10.451391"><ele>26.0</ele><time>2026-05-04T14:50:07.39Z</time></trkpt><trkpt lat="44.9174097" lon="10.4512303"><ele>26.0</ele><time>2026-05-04T14:50:09.39Z</time></trkpt><trkpt lat="44.9174247" lon="10.4510602"><ele>25.6</ele><time>2026-05-04T14:50:11.39Z</time></trkpt><trkpt lat="44.9174537" lon="10.4509004"><ele>25.200000000000003</ele><time>2026-05-04T14:50:13.391Z</time></trkpt><trkpt lat="44.9174905" lon="10.4507416"><ele>24.799999999999997</ele><time>2026-05-04T14:50:15.39Z</time></trkpt><trkpt lat="44.9175364" lon="10.4505846"><ele>24.4</ele><time>2026-05-04T14:50:17.39Z</time></trkpt><trkpt lat="44.9175602" lon="10.4505016"><ele>24.0</ele><time>2026-05-04T14:50:18.391Z</time></trkpt><trkpt lat="44.9176154" lon="10.4503501"><ele>24.0</ele><time>2026-05-04T14:50:20.391Z</time></trkpt><trkpt lat="44.9176656" lon="10.4502011"><ele>24.0</ele><time>2026-05-04T14:50:22.39Z</time></trkpt><trkpt lat="44.9177316" lon="10.4500677"><ele>24.0</ele><time>2026-05-04T14:50:24.39Z</time></trkpt><trkpt lat="44.9178023" lon="10.4499282"><ele>24.0</ele><time>2026-05-04T14:50:26.391Z</time></trkpt><trkpt lat="44.9178821" lon="10.4498073"><ele>24.0</ele><time>2026-05-04T14:50:28.391Z</time></trkpt><trkpt lat="44.9179675" lon="10.4496861"><ele>24.0</ele><time>2026-05-04T14:50:30.39Z</time></trkpt><trkpt lat="44.9180116" lon="10.4496207"><ele>24.0</ele><time>2026-05-04T14:50:31.391Z</time></trkpt><trkpt lat="44.9180968" lon="10.4495006"><ele>24.0</ele><time>2026-05-04T14:50:33.391Z</time></trkpt><trkpt lat="44.9181457" lon="10.4494445"><ele>24.0</ele><time>2026-05-04T14:50:34.391Z</time></trkpt><trkpt lat="44.9182441" lon="10.4493322"><ele>23.799999999999997</ele><time>2026-05-04T14:50:36.39Z</time></trkpt><trkpt lat="44.918338" lon="10.449228"><ele>23.599999999999998</ele><time>2026-05-04T14:50:38.39Z</time></trkpt><trkpt lat="44.9183967" lon="10.4491809"><ele>23.4</ele><time>2026-05-04T14:50:39.391Z</time></trkpt><trkpt lat="44.9185039" lon="10.4491071"><ele>23.2</ele><time>2026-05-04T14:50:41.391Z</time></trkpt><trkpt lat="44.9186174" lon="10.4490473"><ele>23.0</ele><time>2026-05-04T14:50:43.39Z</time></trkpt><trkpt lat="44.9186758" lon="10.4490117"><ele>22.799999999999997</ele><time>2026-05-04T14:50:44.39Z</time></trkpt><trkpt lat="44.9187844" lon="10.4489545"><ele>22.6</ele><time>2026-05-04T14:50:46.39Z</time></trkpt><trkpt lat="44.918897" lon="10.4488886"><ele>22.4</ele><time>2026-05-04T14:50:48.391Z</time></trkpt><trkpt lat="44.9189583" lon="10.4488574"><ele>22.200000000000003</ele><time>2026-05-04T14:50:49.391Z</time></trkpt><trkpt lat="44.91907" lon="10.4487849"><ele>22.0</ele><time>2026-05-04T14:50:51.391Z</time></trkpt><trkpt lat="44.9191825" lon="10.4487174"><ele>22.6</ele><time>2026-05-04T14:50:53.39Z</time></trkpt><trkpt lat="44.9192927" lon="10.4486614"><ele>23.200000000000003</ele><time>2026-05-04T14:50:55.391Z</time></trkpt><trkpt lat="44.9194097" lon="10.4485952"><ele>23.8</ele><time>2026-05-04T14:50:57.39Z</time></trkpt><trkpt lat="44.9194697" lon="10.4485676"><ele>24.4</ele><time>2026-05-04T14:50:58.39Z</time></trkpt><trkpt lat="44.9195288" lon="10.4485368"><ele>25.0</ele><time>2026-05-04T14:50:59.39Z</time></trkpt><trkpt lat="44.9196441" lon="10.4484601"><ele>25.0</ele><time>2026-05-04T14:51:01.39Z</time></trkpt><trkpt lat="44.9197537" lon="10.4484055"><ele>25.0</ele><time>2026-05-04T14:51:03.391Z</time></trkpt><trkpt lat="44.9198643" lon="10.448342"><ele>25.0</ele><time>2026-05-04T14:51:05.39Z</time></trkpt><trkpt lat="44.9199817" lon="10.4482758"><ele>25.0</ele><time>2026-05-04T14:51:07.391Z</time></trkpt><trkpt lat="44.9200928" lon="10.4482066"><ele>24.8</ele><time>2026-05-04T14:51:09.391Z</time></trkpt><trkpt lat="44.9202136" lon="10.4481475"><ele>24.6</ele><time>2026-05-04T14:51:11.39Z</time></trkpt><trkpt lat="44.9202722" lon="10.4481134"><ele>24.4</ele><time>2026-05-04T14:51:12.39Z</time></trkpt><trkpt lat="44.9203673" lon="10.4480504"><ele>24.2</ele><time>2026-05-04T14:51:14.391Z</time></trkpt><trkpt lat="44.9205027" lon="10.4479793"><ele>24.0</ele><time>2026-05-04T14:51:17.39Z</time></trkpt><trkpt lat="44.9206009" lon="10.4479242"><ele>24.75</ele><time>2026-05-04T14:51:19.391Z</time></trkpt><trkpt lat="44.9207077" lon="10.4478729"><ele>25.5</ele><time>2026-05-04T14:51:21.39Z</time></trkpt><trkpt lat="44.920822" lon="10.4478271"><ele>26.25</ele><time>2026-05-04T14:51:23.391Z</time></trkpt><trkpt lat="44.92093" lon="10.4477827"><ele>27.0</ele><time>2026-05-04T14:51:25.391Z</time></trkpt><trkpt lat="44.9210392" lon="10.4477192"><ele>27.0</ele><time>2026-05-04T14:51:27.391Z</time></trkpt><trkpt lat="44.9210986" lon="10.4476868"><ele>27.000000000000004</ele><time>2026-05-04T14:51:28.391Z</time></trkpt><trkpt lat="44.9212057" lon="10.4476105"><ele>27.000000000000004</ele><time>2026-05-04T14:51:30.39Z</time></trkpt><trkpt lat="44.9213132" lon="10.4475518"><ele>27.0</ele><time>2026-05-04T14:51:32.391Z</time></trkpt><trkpt lat="44.9214207" lon="10.447479"><ele>27.0</ele><time>2026-05-04T14:51:34.39Z</time></trkpt><trkpt lat="44.9215002" lon="10.4474251"><ele>27.0</ele><time>2026-05-04T14:51:36.391Z</time></trkpt><trkpt lat="44.9215729" lon="10.4473746"><ele>27.000000000000004</ele><time>2026-05-04T14:51:41.39Z</time></trkpt><trkpt lat="44.9216455" lon="10.4473012"><ele>27.000000000000004</ele><time>2026-05-04T14:51:44.391Z</time></trkpt><trkpt lat="44.9217297" lon="10.4472412"><ele>27.0</ele><time>2026-05-04T14:51:46.39Z</time></trkpt><trkpt lat="44.9218143" lon="10.4471958"><ele>27.0</ele><time>2026-05-04T14:51:48.39Z</time></trkpt><trkpt lat="44.9219039" lon="10.4471503"><ele>26.6</ele><time>2026-05-04T14:51:50.39Z</time></trkpt><trkpt lat="44.921998" lon="10.4471043"><ele>26.200000000000003</ele><time>2026-05-04T14:51:52.391Z</time></trkpt><trkpt lat="44.9220963" lon="10.4470663"><ele>25.8</ele><time>2026-05-04T14:51:54.39Z</time></trkpt><trkpt lat="44.9221877" lon="10.4470417"><ele>25.4</ele><time>2026-05-04T14:51:56.391Z</time></trkpt><trkpt lat="44.9222877" lon="10.4469733"><ele>25.0</ele><time>2026-05-04T14:51:58.39Z</time></trkpt><trkpt lat="44.9223809" lon="10.4469324"><ele>25.0</ele><time>2026-05-04T14:52:00.39Z</time></trkpt><trkpt lat="44.922482" lon="10.4468706"><ele>25.0</ele><time>2026-05-04T14:52:02.391Z</time></trkpt><trkpt lat="44.9225792" lon="10.4467923"><ele>25.0</ele><time>2026-05-04T14:52:04.39Z</time></trkpt><trkpt lat="44.9226816" lon="10.4467186"><ele>25.0</ele><time>2026-05-04T14:52:06.391Z</time></trkpt><trkpt lat="44.9227764" lon="10.4466444"><ele>25.0</ele><time>2026-05-04T14:52:08.39Z</time></trkpt><trkpt lat="44.9228758" lon="10.4465699"><ele>24.75</ele><time>2026-05-04T14:52:10.391Z</time></trkpt><trkpt lat="44.9229733" lon="10.4464856"><ele>24.5</ele><time>2026-05-04T14:52:12.391Z</time></trkpt><trkpt lat="44.9230794" lon="10.4464181"><ele>24.25</ele><time>2026-05-04T14:52:14.391Z</time></trkpt><trkpt lat="44.9231841" lon="10.4463443"><ele>24.0</ele><time>2026-05-04T14:52:16.39Z</time></trkpt><trkpt lat="44.9233" lon="10.4463168"><ele>23.799999999999997</ele><time>2026-05-04T14:52:18.39Z</time></trkpt><trkpt lat="44.9234065" lon="10.4463391"><ele>23.599999999999998</ele><time>2026-05-04T14:52:20.391Z</time></trkpt><trkpt lat="44.9235161" lon="10.4463822"><ele>23.4</ele><time>2026-05-04T14:52:22.391Z</time></trkpt><trkpt lat="44.9236325" lon="10.4464148"><ele>23.2</ele><time>2026-05-04T14:52:24.39Z</time></trkpt><trkpt lat="44.9236985" lon="10.4464085"><ele>23.0</ele><time>2026-05-04T14:52:25.391Z</time></trkpt><trkpt lat="44.9238099" lon="10.4463337"><ele>23.333333333333336</ele><time>2026-05-04T14:52:27.391Z</time></trkpt><trkpt lat="44.9238582" lon="10.446275"><ele>23.666666666666668</ele><time>2026-05-04T14:52:28.39Z</time></trkpt><trkpt lat="44.9238946" lon="10.4461978"><ele>24.0</ele><time>2026-05-04T14:52:29.391Z</time></trkpt><trkpt lat="44.9239242" lon="10.4461184"><ele>24.333333333333336</ele><time>2026-05-04T14:52:30.391Z</time></trkpt><trkpt lat="44.9239441" lon="10.445946"><ele>24.666666666666668</ele><time>2026-05-04T14:52:32.39Z</time></trkpt><trkpt lat="44.9239281" lon="10.4458539"><ele>25.0</ele><time>2026-05-04T14:52:33.391Z</time></trkpt><trkpt lat="44.9238987" lon="10.4456888"><ele>25.000000000000004</ele><time>2026-05-04T14:52:35.39Z</time></trkpt><trkpt lat="44.9238641" lon="10.445607"><ele>25.0</ele><time>2026-05-04T14:52:36.391Z</time></trkpt><trkpt lat="44.9238345" lon="10.4455188"><ele>25.0</ele><time>2026-05-04T14:52:37.391Z</time></trkpt><trkpt lat="44.9238095" lon="10.4454227"><ele>25.0</ele><time>2026-05-04T14:52:38.391Z</time></trkpt><trkpt lat="44.9237834" lon="10.4453358"><ele>25.0</ele><time>2026-05-04T14:52:39.391Z</time></trkpt><trkpt lat="44.9237596" lon="10.4452473"><ele>25.000000000000004</ele><time>2026-05-04T14:52:40.391Z</time></trkpt><trkpt lat="44.9237459" lon="10.4451583"><ele>25.0</ele><time>2026-05-04T14:52:41.39Z</time></trkpt><trkpt lat="44.9237376" lon="10.4449869"><ele>25.333333333333336</ele><time>2026-05-04T14:52:43.39Z</time></trkpt><trkpt lat="44.923728" lon="10.4448089"><ele>25.666666666666668</ele><time>2026-05-04T14:52:45.391Z</time></trkpt><trkpt lat="44.9237298" lon="10.4447124"><ele>26.0</ele><time>2026-05-04T14:52:46.39Z</time></trkpt><trkpt lat="44.9237225" lon="10.4446102"><ele>26.333333333333336</ele><time>2026-05-04T14:52:47.39Z</time></trkpt><trkpt lat="44.9237246" lon="10.4445175"><ele>26.666666666666668</ele><time>2026-05-04T14:52:48.391Z</time></trkpt><trkpt lat="44.9237307" lon="10.4444259"><ele>27.0</ele><time>2026-05-04T14:52:49.391Z</time></trkpt><trkpt lat="44.9237325" lon="10.444336"><ele>27.166666666666668</ele><time>2026-05-04T14:52:50.39Z</time></trkpt><trkpt lat="44.9237398" lon="10.4441523"><ele>27.333333333333336</ele><time>2026-05-04T14:52:52.39Z</time></trkpt><trkpt lat="44.9237486" lon="10.4440591"><ele>27.5</ele><time>2026-05-04T14:52:53.391Z</time></trkpt><trkpt lat="44.9237518" lon="10.4439634"><ele>27.666666666666668</ele><time>2026-05-04T14:52:54.391Z</time></trkpt><trkpt lat="44.9237587" lon="10.4438656"><ele>27.833333333333336</ele><time>2026-05-04T14:52:55.391Z</time></trkpt><trkpt lat="44.9237701" lon="10.4437706"><ele>28.0</ele><time>2026-05-04T14:52:56.391Z</time></trkpt><trkpt lat="44.9237799" lon="10.4436793"><ele>28.142857142857142</ele><time>2026-05-04T14:52:57.391Z</time></trkpt><trkpt lat="44.9237901" lon="10.4435851"><ele>28.285714285714285</ele><time>2026-05-04T14:52:58.39Z</time></trkpt><trkpt lat="44.9238054" lon="10.4434924"><ele>28.42857142857143</ele><time>2026-05-04T14:52:59.39Z</time></trkpt><trkpt lat="44.9238213" lon="10.4434002"><ele>28.571428571428573</ele><time>2026-05-04T14:53:00.39Z</time></trkpt><trkpt lat="44.9238388" lon="10.4433055"><ele>28.714285714285715</ele><time>2026-05-04T14:53:01.391Z</time></trkpt><trkpt lat="44.9238549" lon="10.4432105"><ele>28.85714285714286</ele><time>2026-05-04T14:53:02.391Z</time></trkpt><trkpt lat="44.923875" lon="10.4431249"><ele>29.000000000000004</ele><time>2026-05-04T14:53:03.391Z</time></trkpt><trkpt lat="44.9238887" lon="10.443031"><ele>28.71428571428572</ele><time>2026-05-04T14:53:04.39Z</time></trkpt><trkpt lat="44.9239034" lon="10.4429407"><ele>28.42857142857143</ele><time>2026-05-04T14:53:05.39Z</time></trkpt><trkpt lat="44.9239177" lon="10.4428489"><ele>28.142857142857146</ele><time>2026-05-04T14:53:06.39Z</time></trkpt><trkpt lat="44.9239386" lon="10.4427594"><ele>27.85714285714286</ele><time>2026-05-04T14:53:07.391Z</time></trkpt><trkpt lat="44.9239638" lon="10.4426756"><ele>27.57142857142857</ele><time>2026-05-04T14:53:08.39Z</time></trkpt><trkpt lat="44.9240276" lon="10.4425295"><ele>27.285714285714285</ele><time>2026-05-04T14:53:10.391Z</time></trkpt><trkpt lat="44.9240778" lon="10.4424742"><ele>27.0</ele><time>2026-05-04T14:53:11.39Z</time></trkpt><trkpt lat="44.9241343" lon="10.4424349"><ele>26.400000000000002</ele><time>2026-05-04T14:53:12.391Z</time></trkpt><trkpt lat="44.9242405" lon="10.4423745"><ele>25.800000000000004</ele><time>2026-05-04T14:53:14.39Z</time></trkpt><trkpt lat="44.9243508" lon="10.4423298"><ele>25.2</ele><time>2026-05-04T14:53:16.391Z</time></trkpt><trkpt lat="44.9244552" lon="10.4422754"><ele>24.6</ele><time>2026-05-04T14:53:18.391Z</time></trkpt><trkpt lat="44.9245422" lon="10.4422063"><ele>24.0</ele><time>2026-05-04T14:53:20.391Z</time></trkpt><trkpt lat="44.9246135" lon="10.4421296"><ele>23.6</ele><time>2026-05-04T14:53:22.39Z</time></trkpt><trkpt lat="44.9246663" lon="10.4420128"><ele>23.2</ele><time>2026-05-04T14:53:24.39Z</time></trkpt><trkpt lat="44.9246945" lon="10.4418846"><ele>22.8</ele><time>2026-05-04T14:53:26.39Z</time></trkpt><trkpt lat="44.9247017" lon="10.4417137"><ele>22.400000000000002</ele><time>2026-05-04T14:53:28.391Z</time></trkpt><trkpt lat="44.9247052" lon="10.4415544"><ele>22.0</ele><time>2026-05-04T14:53:30.39Z</time></trkpt><trkpt lat="44.9247113" lon="10.4413966"><ele>22.0</ele><time>2026-05-04T14:53:32.39Z</time></trkpt><trkpt lat="44.9247181" lon="10.4412257"><ele>22.0</ele><time>2026-05-04T14:53:34.391Z</time></trkpt><trkpt lat="44.9247185" lon="10.4410612"><ele>22.0</ele><time>2026-05-04T14:53:36.391Z</time></trkpt><trkpt lat="44.9247114" lon="10.4408861"><ele>22.0</ele><time>2026-05-04T14:53:38.391Z</time></trkpt><trkpt lat="44.9247206" lon="10.4407173"><ele>22.0</ele><time>2026-05-04T14:53:40.39Z</time></trkpt><trkpt lat="44.9247361" lon="10.4405567"><ele>22.0</ele><time>2026-05-04T14:53:42.39Z</time></trkpt><trkpt lat="44.9247581" lon="10.4403999"><ele>22.0</ele><time>2026-05-04T14:53:44.39Z</time></trkpt><trkpt lat="44.9247856" lon="10.4402278"><ele>22.0</ele><time>2026-05-04T14:53:46.391Z</time></trkpt><trkpt lat="44.9248212" lon="10.4400732"><ele>22.400000000000002</ele><time>2026-05-04T14:53:48.39Z</time></trkpt><trkpt lat="44.9248413" lon="10.4399853"><ele>22.8</ele><time>2026-05-04T14:53:49.39Z</time></trkpt><trkpt lat="44.9248891" lon="10.4398262"><ele>23.2</ele><time>2026-05-04T14:53:51.391Z</time></trkpt><trkpt lat="44.924942" lon="10.4396717"><ele>23.6</ele><time>2026-05-04T14:53:53.39Z</time></trkpt><trkpt lat="44.9249929" lon="10.4395207"><ele>24.0</ele><time>2026-05-04T14:53:55.391Z</time></trkpt><trkpt lat="44.9250533" lon="10.4393692"><ele>24.0</ele><time>2026-05-04T14:53:57.391Z</time></trkpt><trkpt lat="44.9251135" lon="10.4392201"><ele>24.0</ele><time>2026-05-04T14:53:59.391Z</time></trkpt><trkpt lat="44.9251656" lon="10.4390655"><ele>24.0</ele><time>2026-05-04T14:54:01.391Z</time></trkpt><trkpt lat="44.9252028" lon="10.4389933"><ele>24.0</ele><time>2026-05-04T14:54:02.391Z</time></trkpt><trkpt lat="44.9252401" lon="10.4389171"><ele>24.0</ele><time>2026-05-04T14:54:03.391Z</time></trkpt><trkpt lat="44.9253195" lon="10.4387779"><ele>24.0</ele><time>2026-05-04T14:54:05.39Z</time></trkpt><trkpt lat="44.9254051" lon="10.4386512"><ele>24.0</ele><time>2026-05-04T14:54:07.391Z</time></trkpt><trkpt lat="44.9254934" lon="10.4385385"><ele>24.0</ele><time>2026-05-04T14:54:09.391Z</time></trkpt><trkpt lat="44.9255735" lon="10.4384226"><ele>24.0</ele><time>2026-05-04T14:54:11.39Z</time></trkpt><trkpt lat="44.9256581" lon="10.4382984"><ele>24.0</ele><time>2026-05-04T14:54:13.39Z</time></trkpt><trkpt lat="44.9257413" lon="10.4381763"><ele>24.0</ele><time>2026-05-04T14:54:15.39Z</time></trkpt><trkpt lat="44.9258373" lon="10.4380669"><ele>24.0</ele><time>2026-05-04T14:54:17.391Z</time></trkpt><trkpt lat="44.9258893" lon="10.4380112"><ele>24.0</ele><time>2026-05-04T14:54:18.391Z</time></trkpt><trkpt lat="44.9259834" lon="10.4378926"><ele>24.0</ele><time>2026-05-04T14:54:20.39Z</time></trkpt><trkpt lat="44.9260688" lon="10.437766"><ele>24.2</ele><time>2026-05-04T14:54:22.391Z</time></trkpt><trkpt lat="44.9261631" lon="10.4376531"><ele>24.4</ele><time>2026-05-04T14:54:24.391Z</time></trkpt><trkpt lat="44.926254" lon="10.4375333"><ele>24.6</ele><time>2026-05-04T14:54:26.39Z</time></trkpt><trkpt lat="44.926299" lon="10.4374705"><ele>24.8</ele><time>2026-05-04T14:54:27.39Z</time></trkpt><trkpt lat="44.9263821" lon="10.4373379"><ele>25.0</ele><time>2026-05-04T14:54:29.391Z</time></trkpt><trkpt lat="44.9264705" lon="10.437208"><ele>25.000000000000004</ele><time>2026-05-04T14:54:31.391Z</time></trkpt><trkpt lat="44.9265208" lon="10.4371492"><ele>25.0</ele><time>2026-05-04T14:54:32.391Z</time></trkpt><trkpt lat="44.9265694" lon="10.4370907"><ele>25.0</ele><time>2026-05-04T14:54:33.39Z</time></trkpt><trkpt lat="44.926661" lon="10.4369716"><ele>25.0</ele><time>2026-05-04T14:54:35.39Z</time></trkpt><trkpt lat="44.9267045" lon="10.4369027"><ele>25.000000000000004</ele><time>2026-05-04T14:54:36.39Z</time></trkpt><trkpt lat="44.9267478" lon="10.4368366"><ele>25.0</ele><time>2026-05-04T14:54:37.39Z</time></trkpt><trkpt lat="44.9268311" lon="10.4367106"><ele>24.6</ele><time>2026-05-04T14:54:39.391Z</time></trkpt><trkpt lat="44.9268766" lon="10.4366482"><ele>24.2</ele><time>2026-05-04T14:54:40.391Z</time></trkpt><trkpt lat="44.9269191" lon="10.4365804"><ele>23.799999999999997</ele><time>2026-05-04T14:54:41.391Z</time></trkpt><trkpt lat="44.927006" lon="10.4364595"><ele>23.4</ele><time>2026-05-04T14:54:43.39Z</time></trkpt><trkpt lat="44.9270784" lon="10.4363326"><ele>23.0</ele><time>2026-05-04T14:54:45.391Z</time></trkpt><trkpt lat="44.9271522" lon="10.4361967"><ele>23.0</ele><time>2026-05-04T14:54:47.39Z</time></trkpt><trkpt lat="44.9272297" lon="10.4360644"><ele>23.0</ele><time>2026-05-04T14:54:49.391Z</time></trkpt><trkpt lat="44.9273064" lon="10.435925"><ele>23.0</ele><time>2026-05-04T14:54:51.391Z</time></trkpt><trkpt lat="44.9273781" lon="10.4357845"><ele>23.0</ele><time>2026-05-04T14:54:53.39Z</time></trkpt><trkpt lat="44.9274485" lon="10.435645"><ele>23.0</ele><time>2026-05-04T14:54:55.39Z</time></trkpt><trkpt lat="44.9275181" lon="10.4354933"><ele>23.0</ele><time>2026-05-04T14:54:57.39Z</time></trkpt><trkpt lat="44.9275811" lon="10.4353379"><ele>23.0</ele><time>2026-05-04T14:54:59.391Z</time></trkpt><trkpt lat="44.9276171" lon="10.4352572"><ele>23.0</ele><time>2026-05-04T14:55:00.391Z</time></trkpt><trkpt lat="44.9276536" lon="10.4351847"><ele>23.0</ele><time>2026-05-04T14:55:01.391Z</time></trkpt><trkpt lat="44.9276864" lon="10.4351033"><ele>23.0</ele><time>2026-05-04T14:55:02.39Z</time></trkpt><trkpt lat="44.9277474" lon="10.4349553"><ele>23.0</ele><time>2026-05-04T14:55:04.39Z</time></trkpt><trkpt lat="44.9278068" lon="10.434803"><ele>23.0</ele><time>2026-05-04T14:55:06.391Z</time></trkpt><trkpt lat="44.9278394" lon="10.4347252"><ele>23.0</ele><time>2026-05-04T14:55:07.391Z</time></trkpt><trkpt lat="44.927904" lon="10.4345748"><ele>23.0</ele><time>2026-05-04T14:55:09.39Z</time></trkpt><trkpt lat="44.9279736" lon="10.4344268"><ele>23.0</ele><time>2026-05-04T14:55:11.391Z</time></trkpt><trkpt lat="44.9280406" lon="10.4342836"><ele>23.0</ele><time>2026-05-04T14:55:13.39Z</time></trkpt><trkpt lat="44.9281235" lon="10.434161"><ele>23.0</ele><time>2026-05-04T14:55:15.391Z</time></trkpt><trkpt lat="44.9282195" lon="10.4340606"><ele>23.0</ele><time>2026-05-04T14:55:17.391Z</time></trkpt><trkpt lat="44.9283185" lon="10.4339715"><ele>23.5</ele><time>2026-05-04T14:55:19.39Z</time></trkpt><trkpt lat="44.928414" lon="10.4338946"><ele>24.0</ele><time>2026-05-04T14:55:21.391Z</time></trkpt><trkpt lat="44.9285113" lon="10.43381"><ele>24.5</ele><time>2026-05-04T14:55:23.391Z</time></trkpt><trkpt lat="44.9286127" lon="10.4337398"><ele>25.0</ele><time>2026-05-04T14:55:25.39Z</time></trkpt><trkpt lat="44.9287165" lon="10.4336737"><ele>25.0</ele><time>2026-05-04T14:55:27.391Z</time></trkpt><trkpt lat="44.9288053" lon="10.4336225"><ele>25.0</ele><time>2026-05-04T14:55:29.391Z</time></trkpt><trkpt lat="44.9289159" lon="10.4335832"><ele>25.0</ele><time>2026-05-04T14:55:31.39Z</time></trkpt><trkpt lat="44.9290294" lon="10.4335496"><ele>25.0</ele><time>2026-05-04T14:55:33.391Z</time></trkpt><trkpt lat="44.9291349" lon="10.4335067"><ele>25.0</ele><time>2026-05-04T14:55:35.39Z</time></trkpt><trkpt lat="44.9292417" lon="10.4334784"><ele>24.8</ele><time>2026-05-04T14:55:37.39Z</time></trkpt><trkpt lat="44.9293556" lon="10.43345"><ele>24.6</ele><time>2026-05-04T14:55:39.39Z</time></trkpt><trkpt lat="44.92947" lon="10.4334298"><ele>24.4</ele><time>2026-05-04T14:55:41.39Z</time></trkpt><trkpt lat="44.9295728" lon="10.4334237"><ele>24.2</ele><time>2026-05-04T14:55:43.39Z</time></trkpt><trkpt lat="44.9296805" lon="10.433415"><ele>24.0</ele><time>2026-05-04T14:55:45.391Z</time></trkpt><trkpt lat="44.9297466" lon="10.4333986"><ele>24.0</ele><time>2026-05-04T14:55:46.391Z</time></trkpt><trkpt lat="44.9298602" lon="10.433377"><ele>24.0</ele><time>2026-05-04T14:55:48.39Z</time></trkpt><trkpt lat="44.9299861" lon="10.4333722"><ele>24.0</ele><time>2026-05-04T14:55:50.391Z</time></trkpt><trkpt lat="44.9301024" lon="10.4333485"><ele>24.0</ele><time>2026-05-04T14:55:52.391Z</time></trkpt><trkpt lat="44.9302236" lon="10.433291"><ele>24.0</ele><time>2026-05-04T14:55:54.391Z</time></trkpt><trkpt lat="44.9303172" lon="10.4331759"><ele>24.0</ele><time>2026-05-04T14:55:56.39Z</time></trkpt><trkpt lat="44.9304015" lon="10.4330462"><ele>24.0</ele><time>2026-05-04T14:55:58.39Z</time></trkpt><trkpt lat="44.9304435" lon="10.4329771"><ele>24.0</ele><time>2026-05-04T14:55:59.39Z</time></trkpt><trkpt lat="44.93052" lon="10.432849"><ele>24.0</ele><time>2026-05-04T14:56:01.391Z</time></trkpt><trkpt lat="44.9305668" lon="10.4327845"><ele>24.0</ele><time>2026-05-04T14:56:02.39Z</time></trkpt><trkpt lat="44.9306528" lon="10.4326653"><ele>24.0</ele><time>2026-05-04T14:56:04.391Z</time></trkpt><trkpt lat="44.9307363" lon="10.432544"><ele>24.0</ele><time>2026-05-04T14:56:06.391Z</time></trkpt><trkpt lat="44.9308219" lon="10.4324291"><ele>24.0</ele><time>2026-05-04T14:56:08.391Z</time></trkpt><trkpt lat="44.9309102" lon="10.4323158"><ele>24.0</ele><time>2026-05-04T14:56:10.391Z</time></trkpt><trkpt lat="44.9309968" lon="10.4322004"><ele>24.0</ele><time>2026-05-04T14:56:12.39Z</time></trkpt><trkpt lat="44.931083" lon="10.4320836"><ele>24.0</ele><time>2026-05-04T14:56:14.39Z</time></trkpt><trkpt lat="44.9311321" lon="10.4320268"><ele>24.0</ele><time>2026-05-04T14:56:15.39Z</time></trkpt><trkpt lat="44.9311884" lon="10.431974"><ele>24.0</ele><time>2026-05-04T14:56:16.39Z</time></trkpt><trkpt lat="44.9312402" lon="10.4319186"><ele>24.0</ele><time>2026-05-04T14:56:17.391Z</time></trkpt><trkpt lat="44.93129" lon="10.4318574"><ele>24.166666666666668</ele><time>2026-05-04T14:56:18.39Z</time></trkpt><trkpt lat="44.93134" lon="10.4318017"><ele>24.333333333333336</ele><time>2026-05-04T14:56:19.391Z</time></trkpt><trkpt lat="44.9314273" lon="10.4316967"><ele>24.5</ele><time>2026-05-04T14:56:21.39Z</time></trkpt><trkpt lat="44.9314808" lon="10.4316492"><ele>24.666666666666668</ele><time>2026-05-04T14:56:22.39Z</time></trkpt><trkpt lat="44.9315828" lon="10.4315589"><ele>24.833333333333336</ele><time>2026-05-04T14:56:24.39Z</time></trkpt><trkpt lat="44.9316435" lon="10.4315233"><ele>25.0</ele><time>2026-05-04T14:56:25.39Z</time></trkpt><trkpt lat="44.9316961" lon="10.4314735"><ele>24.8</ele><time>2026-05-04T14:56:26.391Z</time></trkpt><trkpt lat="44.9317942" lon="10.4313787"><ele>24.6</ele><time>2026-05-04T14:56:28.391Z</time></trkpt><trkpt lat="44.9318416" lon="10.4313165"><ele>24.4</ele><time>2026-05-04T14:56:29.39Z</time></trkpt><trkpt lat="44.9319" lon="10.4311594"><ele>24.2</ele><time>2026-05-04T14:56:31.39Z</time></trkpt><trkpt lat="44.9319163" lon="10.4309907"><ele>24.0</ele><time>2026-05-04T14:56:33.39Z</time></trkpt><trkpt lat="44.931921" lon="10.4308991"><ele>24.0</ele><time>2026-05-04T14:56:34.39Z</time></trkpt><trkpt lat="44.9319237" lon="10.4308082"><ele>24.0</ele><time>2026-05-04T14:56:35.39Z</time></trkpt><trkpt lat="44.9319201" lon="10.4306302"><ele>24.0</ele><time>2026-05-04T14:56:37.39Z</time></trkpt><trkpt lat="44.9319286" lon="10.4304529"><ele>24.0</ele><time>2026-05-04T14:56:39.391Z</time></trkpt><trkpt lat="44.9319271" lon="10.4302751"><ele>24.0</ele><time>2026-05-04T14:56:41.391Z</time></trkpt><trkpt lat="44.9319311" lon="10.4300974"><ele>24.0</ele><time>2026-05-04T14:56:43.39Z</time></trkpt><trkpt lat="44.93193" lon="10.430005"><ele>24.0</ele><time>2026-05-04T14:56:44.391Z</time></trkpt><trkpt lat="44.9319336" lon="10.4299132"><ele>24.0</ele><time>2026-05-04T14:56:45.391Z</time></trkpt><trkpt lat="44.9319436" lon="10.4297382"><ele>24.0</ele><time>2026-05-04T14:56:47.391Z</time></trkpt><trkpt lat="44.9319523" lon="10.4295601"><ele>24.0</ele><time>2026-05-04T14:56:49.39Z</time></trkpt><trkpt lat="44.9319707" lon="10.4293914"><ele>24.5</ele><time>2026-05-04T14:56:51.391Z</time></trkpt><trkpt lat="44.9319863" lon="10.4292207"><ele>25.0</ele><time>2026-05-04T14:56:53.391Z</time></trkpt><trkpt lat="44.9320066" lon="10.4290444"><ele>25.5</ele><time>2026-05-04T14:56:55.391Z</time></trkpt><trkpt lat="44.9320309" lon="10.4288704"><ele>26.0</ele><time>2026-05-04T14:56:57.39Z</time></trkpt><trkpt lat="44.9320643" lon="10.4287106"><ele>26.0</ele><time>2026-05-04T14:56:59.391Z</time></trkpt><trkpt lat="44.9321026" lon="10.428556"><ele>26.0</ele><time>2026-05-04T14:57:01.391Z</time></trkpt><trkpt lat="44.9321596" lon="10.4284066"><ele>26.0</ele><time>2026-05-04T14:57:03.39Z</time></trkpt><trkpt lat="44.9322328" lon="10.4282795"><ele>26.0</ele><time>2026-05-04T14:57:05.391Z</time></trkpt><trkpt lat="44.932306" lon="10.4281481"><ele>26.0</ele><time>2026-05-04T14:57:07.39Z</time></trkpt><trkpt lat="44.9323851" lon="10.4280278"><ele>26.0</ele><time>2026-05-04T14:57:09.39Z</time></trkpt><trkpt lat="44.9324487" lon="10.4279038"><ele>26.0</ele><time>2026-05-04T14:57:11.391Z</time></trkpt><trkpt lat="44.9325119" lon="10.4277819"><ele>26.0</ele><time>2026-05-04T14:57:13.391Z</time></trkpt><trkpt lat="44.9325754" lon="10.4276523"><ele>26.0</ele><time>2026-05-04T14:57:15.39Z</time></trkpt><trkpt lat="44.932645" lon="10.4275258"><ele>25.6</ele><time>2026-05-04T14:57:17.391Z</time></trkpt><trkpt lat="44.9327136" lon="10.4274041"><ele>25.200000000000003</ele><time>2026-05-04T14:57:19.39Z</time></trkpt><trkpt lat="44.9327775" lon="10.427284"><ele>24.799999999999997</ele><time>2026-05-04T14:57:21.39Z</time></trkpt><trkpt lat="44.9328464" lon="10.4271703"><ele>24.4</ele><time>2026-05-04T14:57:23.391Z</time></trkpt><trkpt lat="44.9329101" lon="10.4270449"><ele>24.0</ele><time>2026-05-04T14:57:25.391Z</time></trkpt><trkpt lat="44.9329924" lon="10.4269379"><ele>24.0</ele><time>2026-05-04T14:57:27.39Z</time></trkpt><trkpt lat="44.9330607" lon="10.4268509"><ele>24.0</ele><time>2026-05-04T14:57:29.391Z</time></trkpt><trkpt lat="44.9331352" lon="10.4267778"><ele>24.0</ele><time>2026-05-04T14:57:31.39Z</time></trkpt><trkpt lat="44.9332051" lon="10.4267109"><ele>24.0</ele><time>2026-05-04T14:57:33.39Z</time></trkpt><trkpt lat="44.9332821" lon="10.4266546"><ele>24.0</ele><time>2026-05-04T14:57:35.39Z</time></trkpt><trkpt lat="44.9333782" lon="10.4266102"><ele>24.333333333333332</ele><time>2026-05-04T14:57:37.391Z</time></trkpt><trkpt lat="44.9334494" lon="10.4265669"><ele>24.666666666666664</ele><time>2026-05-04T14:57:39.39Z</time></trkpt><trkpt lat="44.9335238" lon="10.4265238"><ele>25.0</ele><time>2026-05-04T14:57:41.391Z</time></trkpt><trkpt lat="44.9336042" lon="10.426481"><ele>25.333333333333332</ele><time>2026-05-04T14:57:43.39Z</time></trkpt><trkpt lat="44.9336821" lon="10.4264682"><ele>25.666666666666664</ele><time>2026-05-04T14:57:45.39Z</time></trkpt><trkpt lat="44.9337721" lon="10.426455"><ele>26.0</ele><time>2026-05-04T14:57:47.391Z</time></trkpt><trkpt lat="44.9338624" lon="10.426443"><ele>26.0</ele><time>2026-05-04T14:57:49.391Z</time></trkpt><trkpt lat="44.9339692" lon="10.4264329"><ele>26.0</ele><time>2026-05-04T14:57:51.391Z</time></trkpt><trkpt lat="44.9340668" lon="10.4264201"><ele>26.0</ele><time>2026-05-04T14:57:53.39Z</time></trkpt><trkpt lat="44.9341576" lon="10.4263977"><ele>26.0</ele><time>2026-05-04T14:57:55.39Z</time></trkpt><trkpt lat="44.9342486" lon="10.4263855"><ele>26.0</ele><time>2026-05-04T14:57:57.391Z</time></trkpt><trkpt lat="44.9343355" lon="10.4263742"><ele>25.833333333333332</ele><time>2026-05-04T14:57:59.391Z</time></trkpt><trkpt lat="44.9344154" lon="10.4263519"><ele>25.666666666666664</ele><time>2026-05-04T14:58:01.39Z</time></trkpt><trkpt lat="44.9345024" lon="10.4263342"><ele>25.5</ele><time>2026-05-04T14:58:03.39Z</time></trkpt><trkpt lat="44.934579" lon="10.4263068"><ele>25.333333333333336</ele><time>2026-05-04T14:58:05.391Z</time></trkpt><trkpt lat="44.9346326" lon="10.4262186"><ele>25.166666666666668</ele><time>2026-05-04T14:58:07.39Z</time></trkpt><trkpt lat="44.9346533" lon="10.426098"><ele>25.0</ele><time>2026-05-04T14:58:09.391Z</time></trkpt><trkpt lat="44.9346744" lon="10.425978"><ele>25.000000000000004</ele><time>2026-05-04T14:58:11.39Z</time></trkpt><trkpt lat="44.9346902" lon="10.4258665"><ele>25.0</ele><time>2026-05-04T14:58:13.39Z</time></trkpt><trkpt lat="44.9347079" lon="10.4257529"><ele>25.0</ele><time>2026-05-04T14:58:15.39Z</time></trkpt><trkpt lat="44.9347309" lon="10.4256361"><ele>25.0</ele><time>2026-05-04T14:58:17.39Z</time></trkpt><trkpt lat="44.9347496" lon="10.4254817"><ele>25.000000000000004</ele><time>2026-05-04T14:58:19.391Z</time></trkpt><trkpt lat="44.9347803" lon="10.4253736"><ele>25.0</ele><time>2026-05-04T14:58:21.39Z</time></trkpt><trkpt lat="44.9348203" lon="10.4252528"><ele>25.4</ele><time>2026-05-04T14:58:23.391Z</time></trkpt><trkpt lat="44.9348372" lon="10.4251095"><ele>25.8</ele><time>2026-05-04T14:58:25.391Z</time></trkpt><trkpt lat="44.9348722" lon="10.4249821"><ele>26.200000000000003</ele><time>2026-05-04T14:58:27.39Z</time></trkpt><trkpt lat="44.9349044" lon="10.4248384"><ele>26.6</ele><time>2026-05-04T14:58:29.39Z</time></trkpt><trkpt lat="44.9349243" lon="10.4246888"><ele>27.0</ele><time>2026-05-04T14:58:31.39Z</time></trkpt><trkpt lat="44.9349338" lon="10.4245747"><ele>27.0</ele><time>2026-05-04T14:58:33.391Z</time></trkpt><trkpt lat="44.9349595" lon="10.4244354"><ele>27.000000000000004</ele><time>2026-05-04T14:58:35.39Z</time></trkpt><trkpt lat="44.9349816" lon="10.4242904"><ele>27.000000000000004</ele><time>2026-05-04T14:58:37.39Z</time></trkpt><trkpt lat="44.9350127" lon="10.4241499"><ele>27.0</ele><time>2026-05-04T14:58:39.391Z</time></trkpt><trkpt lat="44.9350331" lon="10.4240019"><ele>27.0</ele><time>2026-05-04T14:58:41.391Z</time></trkpt><trkpt lat="44.9350617" lon="10.4238521"><ele>26.400000000000002</ele><time>2026-05-04T14:58:43.39Z</time></trkpt><trkpt lat="44.9350913" lon="10.4236959"><ele>25.800000000000004</ele><time>2026-05-04T14:58:45.391Z</time></trkpt><trkpt lat="44.9351266" lon="10.4235496"><ele>25.2</ele><time>2026-05-04T14:58:47.391Z</time></trkpt><trkpt lat="44.9351659" lon="10.4234062"><ele>24.6</ele><time>2026-05-04T14:58:49.39Z</time></trkpt><trkpt lat="44.9352131" lon="10.4232721"><ele>24.0</ele><time>2026-05-04T14:58:51.39Z</time></trkpt><trkpt lat="44.9352568" lon="10.4231316"><ele>24.0</ele><time>2026-05-04T14:58:53.391Z</time></trkpt><trkpt lat="44.9353049" lon="10.4229916"><ele>24.0</ele><time>2026-05-04T14:58:55.39Z</time></trkpt><trkpt lat="44.9353447" lon="10.4228481"><ele>24.0</ele><time>2026-05-04T14:58:57.391Z</time></trkpt><trkpt lat="44.9353847" lon="10.4227099"><ele>24.0</ele><time>2026-05-04T14:58:59.39Z</time></trkpt><trkpt lat="44.9354403" lon="10.4225751"><ele>24.0</ele><time>2026-05-04T14:59:01.391Z</time></trkpt><trkpt lat="44.9354755" lon="10.4224303"><ele>23.799999999999997</ele><time>2026-05-04T14:59:03.39Z</time></trkpt><trkpt lat="44.9355304" lon="10.4223059"><ele>23.599999999999998</ele><time>2026-05-04T14:59:05.39Z</time></trkpt><trkpt lat="44.9355755" lon="10.4221697"><ele>23.4</ele><time>2026-05-04T14:59:07.39Z</time></trkpt><trkpt lat="44.9356118" lon="10.4220273"><ele>23.2</ele><time>2026-05-04T14:59:09.39Z</time></trkpt><trkpt lat="44.9356519" lon="10.4218875"><ele>23.0</ele><time>2026-05-04T14:59:11.39Z</time></trkpt><trkpt lat="44.9356875" lon="10.421742"><ele>23.0</ele><time>2026-05-04T14:59:13.391Z</time></trkpt><trkpt lat="44.9357271" lon="10.4215932"><ele>23.0</ele><time>2026-05-04T14:59:15.39Z</time></trkpt><trkpt lat="44.9357666" lon="10.4214483"><ele>23.0</ele><time>2026-05-04T14:59:17.391Z</time></trkpt><trkpt lat="44.935804" lon="10.4213028"><ele>23.0</ele><time>2026-05-04T14:59:19.39Z</time></trkpt><trkpt lat="44.9358395" lon="10.4211623"><ele>23.0</ele><time>2026-05-04T14:59:21.391Z</time></trkpt><trkpt lat="44.9358811" lon="10.4210248"><ele>23.0</ele><time>2026-05-04T14:59:23.391Z</time></trkpt><trkpt lat="44.9359215" lon="10.4208852"><ele>23.0</ele><time>2026-05-04T14:59:25.391Z</time></trkpt><trkpt lat="44.9359523" lon="10.420764"><ele>23.0</ele><time>2026-05-04T14:59:27.391Z</time></trkpt><trkpt lat="44.9359811" lon="10.4206516"><ele>23.0</ele><time>2026-05-04T14:59:29.391Z</time></trkpt><trkpt lat="44.9360162" lon="10.4205339"><ele>23.0</ele><time>2026-05-04T14:59:31.39Z</time></trkpt><trkpt lat="44.9360607" lon="10.4204148"><ele>23.4</ele><time>2026-05-04T14:59:33.391Z</time></trkpt><trkpt lat="44.936103" lon="10.4202935"><ele>23.799999999999997</ele><time>2026-05-04T14:59:35.39Z</time></trkpt><trkpt lat="44.9361647" lon="10.4201876"><ele>24.2</ele><time>2026-05-04T14:59:37.39Z</time></trkpt><trkpt lat="44.9362281" lon="10.4200638"><ele>24.6</ele><time>2026-05-04T14:59:39.391Z</time></trkpt><trkpt lat="44.9362876" lon="10.4199335"><ele>25.0</ele><time>2026-05-04T14:59:41.391Z</time></trkpt><trkpt lat="44.9363458" lon="10.4198067"><ele>25.0</ele><time>2026-05-04T14:59:43.391Z</time></trkpt><trkpt lat="44.9364058" lon="10.4196767"><ele>25.0</ele><time>2026-05-04T14:59:45.39Z</time></trkpt><trkpt lat="44.936469" lon="10.4195405"><ele>25.0</ele><time>2026-05-04T14:59:47.391Z</time></trkpt><trkpt lat="44.9365362" lon="10.4194076"><ele>25.0</ele><time>2026-05-04T14:59:49.39Z</time></trkpt><trkpt lat="44.9365904" lon="10.4192689"><ele>24.8</ele><time>2026-05-04T14:59:51.391Z</time></trkpt><trkpt lat="44.9366533" lon="10.4191363"><ele>24.6</ele><time>2026-05-04T14:59:53.39Z</time></trkpt><trkpt lat="44.9367075" lon="10.4189965"><ele>24.4</ele><time>2026-05-04T14:59:55.39Z</time></trkpt><trkpt lat="44.9367583" lon="10.4188644"><ele>24.2</ele><time>2026-05-04T14:59:57.391Z</time></trkpt><trkpt lat="44.9368095" lon="10.4187435"><ele>24.0</ele><time>2026-05-04T14:59:59.39Z</time></trkpt><trkpt lat="44.936853" lon="10.4186168"><ele>24.0</ele><time>2026-05-04T15:00:01.39Z</time></trkpt><trkpt lat="44.9368994" lon="10.4184825"><ele>24.0</ele><time>2026-05-04T15:00:03.39Z</time></trkpt><trkpt lat="44.9369511" lon="10.4183438"><ele>24.0</ele><time>2026-05-04T15:00:05.39Z</time></trkpt><trkpt lat="44.9369998" lon="10.4182165"><ele>24.0</ele><time>2026-05-04T15:00:07.391Z</time></trkpt><trkpt lat="44.93705" lon="10.4180836"><ele>24.0</ele><time>2026-05-04T15:00:09.391Z</time></trkpt><trkpt lat="44.9371022" lon="10.4179544"><ele>24.6</ele><time>2026-05-04T15:00:11.391Z</time></trkpt><trkpt lat="44.9371502" lon="10.4178297"><ele>25.2</ele><time>2026-05-04T15:00:13.39Z</time></trkpt><trkpt lat="44.9371998" lon="10.4177015"><ele>25.800000000000004</ele><time>2026-05-04T15:00:15.39Z</time></trkpt><trkpt lat="44.9372358" lon="10.4175667"><ele>26.400000000000002</ele><time>2026-05-04T15:00:17.391Z</time></trkpt><trkpt lat="44.9372906" lon="10.4174352"><ele>27.0</ele><time>2026-05-04T15:00:19.391Z</time></trkpt><trkpt lat="44.9373396" lon="10.4173039"><ele>27.0</ele><time>2026-05-04T15:00:21.391Z</time></trkpt><trkpt lat="44.937384" lon="10.4171724"><ele>27.000000000000004</ele><time>2026-05-04T15:00:23.391Z</time></trkpt><trkpt lat="44.9374302" lon="10.4170219"><ele>27.000000000000004</ele><time>2026-05-04T15:00:25.39Z</time></trkpt><trkpt lat="44.9374662" lon="10.4168763"><ele>27.0</ele><time>2026-05-04T15:00:27.39Z</time></trkpt><trkpt lat="44.9375073" lon="10.4167199"><ele>27.0</ele><time>2026-05-04T15:00:29.39Z</time></trkpt><trkpt lat="44.9375282" lon="10.4165617"><ele>26.8</ele><time>2026-05-04T15:00:31.39Z</time></trkpt><trkpt lat="44.937546" lon="10.4164042"><ele>26.6</ele><time>2026-05-04T15:00:33.39Z</time></trkpt><trkpt lat="44.9375634" lon="10.4162411"><ele>26.400000000000002</ele><time>2026-05-04T15:00:35.39Z</time></trkpt><trkpt lat="44.937565" lon="10.416073"><ele>26.200000000000003</ele><time>2026-05-04T15:00:37.391Z</time></trkpt><trkpt lat="44.9375827" lon="10.4159342"><ele>26.0</ele><time>2026-05-04T15:00:39.391Z</time></trkpt><trkpt lat="44.937591" lon="10.4157636"><ele>26.0</ele><time>2026-05-04T15:00:41.39Z</time></trkpt><trkpt lat="44.9375924" lon="10.4155923"><ele>26.0</ele><time>2026-05-04T15:00:43.391Z</time></trkpt><trkpt lat="44.9375981" lon="10.4154336"><ele>26.0</ele><time>2026-05-04T15:00:45.39Z</time></trkpt><trkpt lat="44.9375928" lon="10.4152929"><ele>26.0</ele><time>2026-05-04T15:00:47.39Z</time></trkpt><trkpt lat="44.9376016" lon="10.4151448"><ele>26.0</ele><time>2026-05-04T15:00:49.39Z</time></trkpt><trkpt lat="44.9376206" lon="10.4149842"><ele>26.0</ele><time>2026-05-04T15:00:51.391Z</time></trkpt><trkpt lat="44.9376317" lon="10.4148202"><ele>26.0</ele><time>2026-05-04T15:00:53.391Z</time></trkpt><trkpt lat="44.9376363" lon="10.4146607"><ele>26.0</ele><time>2026-05-04T15:00:55.391Z</time></trkpt><trkpt lat="44.9376354" lon="10.4144945"><ele>26.0</ele><time>2026-05-04T15:00:57.39Z</time></trkpt><trkpt lat="44.9376188" lon="10.4143236"><ele>26.5</ele><time>2026-05-04T15:00:59.391Z</time></trkpt><trkpt lat="44.9376054" lon="10.4141711"><ele>27.0</ele><time>2026-05-04T15:01:01.391Z</time></trkpt><trkpt lat="44.9375789" lon="10.4140077"><ele>27.5</ele><time>2026-05-04T15:01:03.39Z</time></trkpt><trkpt lat="44.9375533" lon="10.413856"><ele>28.0</ele><time>2026-05-04T15:01:05.39Z</time></trkpt><trkpt lat="44.9375272" lon="10.4136904"><ele>27.0</ele><time>2026-05-04T15:01:07.39Z</time></trkpt><trkpt lat="44.9375028" lon="10.4135241"><ele>26.0</ele><time>2026-05-04T15:01:09.391Z</time></trkpt><trkpt lat="44.9374759" lon="10.4133702"><ele>25.0</ele><time>2026-05-04T15:01:11.391Z</time></trkpt><trkpt lat="44.9374562" lon="10.4132198"><ele>24.0</ele><time>2026-05-04T15:01:13.39Z</time></trkpt><trkpt lat="44.9374342" lon="10.4130584"><ele>24.0</ele><time>2026-05-04T15:01:15.391Z</time></trkpt><trkpt lat="44.9374186" lon="10.4128967"><ele>24.0</ele><time>2026-05-04T15:01:17.391Z</time></trkpt><trkpt lat="44.9373966" lon="10.4127416"><ele>24.0</ele><time>2026-05-04T15:01:19.391Z</time></trkpt><trkpt lat="44.9373784" lon="10.4125768"><ele>24.0</ele><time>2026-05-04T15:01:21.39Z</time></trkpt><trkpt lat="44.9373646" lon="10.4124011"><ele>24.0</ele><time>2026-05-04T15:01:23.391Z</time></trkpt><trkpt lat="44.9373452" lon="10.4122455"><ele>24.0</ele><time>2026-05-04T15:01:25.39Z</time></trkpt><trkpt lat="44.9373233" lon="10.4120919"><ele>24.0</ele><time>2026-05-04T15:01:27.39Z</time></trkpt><trkpt lat="44.9372972" lon="10.4119404"><ele>24.0</ele><time>2026-05-04T15:01:29.391Z</time></trkpt><trkpt lat="44.9372726" lon="10.4117938"><ele>24.0</ele><time>2026-05-04T15:01:31.391Z</time></trkpt><trkpt lat="44.93725" lon="10.4116286"><ele>24.25</ele><time>2026-05-04T15:01:33.39Z</time></trkpt><trkpt lat="44.937224" lon="10.411476"><ele>24.5</ele><time>2026-05-04T15:01:35.39Z</time></trkpt><trkpt lat="44.9371986" lon="10.4113242"><ele>24.75</ele><time>2026-05-04T15:01:37.391Z</time></trkpt><trkpt lat="44.9371623" lon="10.411163"><ele>25.0</ele><time>2026-05-04T15:01:39.391Z</time></trkpt><trkpt lat="44.9371304" lon="10.4110123"><ele>25.0</ele><time>2026-05-04T15:01:41.391Z</time></trkpt><trkpt lat="44.937095" lon="10.4108592"><ele>25.0</ele><time>2026-05-04T15:01:43.39Z</time></trkpt><trkpt lat="44.937044" lon="10.4107152"><ele>25.0</ele><time>2026-05-04T15:01:45.39Z</time></trkpt><trkpt lat="44.9369793" lon="10.4105889"><ele>25.0</ele><time>2026-05-04T15:01:47.391Z</time></trkpt><trkpt lat="44.9369042" lon="10.4104654"><ele>25.0</ele><time>2026-05-04T15:01:49.39Z</time></trkpt><trkpt lat="44.9368207" lon="10.4103462"><ele>25.0</ele><time>2026-05-04T15:01:51.391Z</time></trkpt><trkpt lat="44.936739" lon="10.4102382"><ele>25.0</ele><time>2026-05-04T15:01:53.391Z</time></trkpt><trkpt lat="44.9366567" lon="10.4101345"><ele>25.0</ele><time>2026-05-04T15:01:55.391Z</time></trkpt><trkpt lat="44.9365602" lon="10.4100471"><ele>25.0</ele><time>2026-05-04T15:01:57.391Z</time></trkpt><trkpt lat="44.9364611" lon="10.4099675"><ele>25.0</ele><time>2026-05-04T15:01:59.391Z</time></trkpt><trkpt lat="44.9363662" lon="10.4099011"><ele>25.0</ele><time>2026-05-04T15:02:01.391Z</time></trkpt><trkpt lat="44.9362707" lon="10.409837"><ele>25.0</ele><time>2026-05-04T15:02:03.391Z</time></trkpt><trkpt lat="44.9361712" lon="10.4097608"><ele>25.0</ele><time>2026-05-04T15:02:05.39Z</time></trkpt><trkpt lat="44.9360757" lon="10.4096816"><ele>25.2</ele><time>2026-05-04T15:02:07.391Z</time></trkpt><trkpt lat="44.9360034" lon="10.4095758"><ele>25.4</ele><time>2026-05-04T15:02:09.39Z</time></trkpt><trkpt lat="44.9359354" lon="10.4094657"><ele>25.6</ele><time>2026-05-04T15:02:11.39Z</time></trkpt><trkpt lat="44.9358642" lon="10.4093421"><ele>25.8</ele><time>2026-05-04T15:02:13.391Z</time></trkpt><trkpt lat="44.9358036" lon="10.4092138"><ele>26.0</ele><time>2026-05-04T15:02:15.391Z</time></trkpt><trkpt lat="44.935749" lon="10.4090787"><ele>25.6</ele><time>2026-05-04T15:02:17.39Z</time></trkpt><trkpt lat="44.9357031" lon="10.4089354"><ele>25.200000000000003</ele><time>2026-05-04T15:02:19.39Z</time></trkpt><trkpt lat="44.9356632" lon="10.4087867"><ele>24.799999999999997</ele><time>2026-05-04T15:02:21.39Z</time></trkpt><trkpt lat="44.9356282" lon="10.4086401"><ele>24.4</ele><time>2026-05-04T15:02:23.391Z</time></trkpt><trkpt lat="44.9356146" lon="10.4084805"><ele>24.0</ele><time>2026-05-04T15:02:25.391Z</time></trkpt><trkpt lat="44.9356022" lon="10.408328"><ele>24.0</ele><time>2026-05-04T15:02:27.391Z</time></trkpt><trkpt lat="44.9356007" lon="10.4081688"><ele>24.0</ele><time>2026-05-04T15:02:29.39Z</time></trkpt><trkpt lat="44.9356091" lon="10.4080033"><ele>24.0</ele><time>2026-05-04T15:02:31.391Z</time></trkpt><trkpt lat="44.9356257" lon="10.4078556"><ele>24.0</ele><time>2026-05-04T15:02:33.39Z</time></trkpt><trkpt lat="44.9356563" lon="10.4077062"><ele>24.0</ele><time>2026-05-04T15:02:35.391Z</time></trkpt><trkpt lat="44.9356739" lon="10.4075754"><ele>24.0</ele><time>2026-05-04T15:02:37.391Z</time></trkpt><trkpt lat="44.9356976" lon="10.4074174"><ele>24.0</ele><time>2026-05-04T15:02:39.39Z</time></trkpt><trkpt lat="44.9357127" lon="10.4072591"><ele>24.0</ele><time>2026-05-04T15:02:41.39Z</time></trkpt><trkpt lat="44.9357324" lon="10.4070989"><ele>24.0</ele><time>2026-05-04T15:02:43.391Z</time></trkpt><trkpt lat="44.9357604" lon="10.406935"><ele>24.0</ele><time>2026-05-04T15:02:45.391Z</time></trkpt><trkpt lat="44.9357946" lon="10.4067774"><ele>24.0</ele><time>2026-05-04T15:02:47.39Z</time></trkpt><trkpt lat="44.9358421" lon="10.4066446"><ele>24.0</ele><time>2026-05-04T15:02:49.391Z</time></trkpt><trkpt lat="44.9358831" lon="10.4064928"><ele>24.0</ele><time>2026-05-04T15:02:51.39Z</time></trkpt><trkpt lat="44.9359368" lon="10.4063459"><ele>24.25</ele><time>2026-05-04T15:02:53.39Z</time></trkpt><trkpt lat="44.9359868" lon="10.4061949"><ele>24.5</ele><time>2026-05-04T15:02:55.391Z</time></trkpt><trkpt lat="44.9360304" lon="10.4060483"><ele>24.75</ele><time>2026-05-04T15:02:57.39Z</time></trkpt><trkpt lat="44.9360797" lon="10.4059086"><ele>25.0</ele><time>2026-05-04T15:02:59.391Z</time></trkpt><trkpt lat="44.9361238" lon="10.4057639"><ele>25.0</ele><time>2026-05-04T15:03:01.39Z</time></trkpt><trkpt lat="44.9361685" lon="10.4056204"><ele>25.0</ele><time>2026-05-04T15:03:03.391Z</time></trkpt><trkpt lat="44.936211" lon="10.4054736"><ele>25.0</ele><time>2026-05-04T15:03:05.391Z</time></trkpt><trkpt lat="44.9362534" lon="10.4053266"><ele>25.0</ele><time>2026-05-04T15:03:07.39Z</time></trkpt><trkpt lat="44.9362981" lon="10.4051778"><ele>25.0</ele><time>2026-05-04T15:03:09.39Z</time></trkpt><trkpt lat="44.9363491" lon="10.4050434"><ele>25.0</ele><time>2026-05-04T15:03:11.391Z</time></trkpt><trkpt lat="44.9363833" lon="10.4048845"><ele>25.0</ele><time>2026-05-04T15:03:13.39Z</time></trkpt><trkpt lat="44.9364269" lon="10.4047331"><ele>25.0</ele><time>2026-05-04T15:03:15.391Z</time></trkpt><trkpt lat="44.9364656" lon="10.4045694"><ele>25.0</ele><time>2026-05-04T15:03:17.39Z</time></trkpt><trkpt lat="44.9364906" lon="10.4044051"><ele>25.0</ele><time>2026-05-04T15:03:19.39Z</time></trkpt><trkpt lat="44.9365257" lon="10.4042614"><ele>25.0</ele><time>2026-05-04T15:03:21.39Z</time></trkpt><trkpt lat="44.936556" lon="10.404113"><ele>25.0</ele><time>2026-05-04T15:03:23.391Z</time></trkpt><trkpt lat="44.9365846" lon="10.4039672"><ele>25.0</ele><time>2026-05-04T15:03:25.391Z</time></trkpt><trkpt lat="44.9366174" lon="10.40383"><ele>25.2</ele><time>2026-05-04T15:03:27.39Z</time></trkpt><trkpt lat="44.936651" lon="10.4036955"><ele>25.4</ele><time>2026-05-04T15:03:29.391Z</time></trkpt><trkpt lat="44.93669" lon="10.4035585"><ele>25.6</ele><time>2026-05-04T15:03:31.391Z</time></trkpt><trkpt lat="44.9367338" lon="10.4034139"><ele>25.8</ele><time>2026-05-04T15:03:33.391Z</time></trkpt><trkpt lat="44.9367651" lon="10.4032622"><ele>26.0</ele><time>2026-05-04T15:03:35.391Z</time></trkpt><trkpt lat="44.9367977" lon="10.4031214"><ele>26.0</ele><time>2026-05-04T15:03:37.391Z</time></trkpt><trkpt lat="44.9368206" lon="10.402966"><ele>26.0</ele><time>2026-05-04T15:03:39.391Z</time></trkpt><trkpt lat="44.9368396" lon="10.4028089"><ele>26.0</ele><time>2026-05-04T15:03:41.391Z</time></trkpt><trkpt lat="44.9368612" lon="10.4026601"><ele>26.0</ele><time>2026-05-04T15:03:43.39Z</time></trkpt><trkpt lat="44.9368581" lon="10.4024898"><ele>26.0</ele><time>2026-05-04T15:03:45.39Z</time></trkpt><trkpt lat="44.9368847" lon="10.402335"><ele>26.0</ele><time>2026-05-04T15:03:47.391Z</time></trkpt><trkpt lat="44.9369144" lon="10.4021908"><ele>26.0</ele><time>2026-05-04T15:03:49.391Z</time></trkpt><trkpt lat="44.9369562" lon="10.4020536"><ele>26.0</ele><time>2026-05-04T15:03:51.391Z</time></trkpt><trkpt lat="44.936991" lon="10.4019074"><ele>26.0</ele><time>2026-05-04T15:03:53.39Z</time></trkpt><trkpt lat="44.9370174" lon="10.4017493"><ele>25.75</ele><time>2026-05-04T15:03:55.391Z</time></trkpt><trkpt lat="44.9370301" lon="10.4015811"><ele>25.5</ele><time>2026-05-04T15:03:57.39Z</time></trkpt><trkpt lat="44.9370188" lon="10.4014089"><ele>25.25</ele><time>2026-05-04T15:03:59.391Z</time></trkpt><trkpt lat="44.9370084" lon="10.4012455"><ele>25.0</ele><time>2026-05-04T15:04:01.39Z</time></trkpt><trkpt lat="44.9369809" lon="10.4010725"><ele>25.0</ele><time>2026-05-04T15:04:03.391Z</time></trkpt><trkpt lat="44.9369584" lon="10.4009031"><ele>25.0</ele><time>2026-05-04T15:04:05.391Z</time></trkpt><trkpt lat="44.9369424" lon="10.4007463"><ele>25.0</ele><time>2026-05-04T15:04:07.391Z</time></trkpt><trkpt lat="44.9369157" lon="10.400583"><ele>25.0</ele><time>2026-05-04T15:04:09.391Z</time></trkpt><trkpt lat="44.936884" lon="10.400429"><ele>25.5</ele><time>2026-05-04T15:04:11.39Z</time></trkpt><trkpt lat="44.9368381" lon="10.4002802"><ele>26.0</ele><time>2026-05-04T15:04:13.39Z</time></trkpt><trkpt lat="44.9367934" lon="10.400131"><ele>26.5</ele><time>2026-05-04T15:04:15.391Z</time></trkpt><trkpt lat="44.9367367" lon="10.3999832"><ele>27.0</ele><time>2026-05-04T15:04:17.39Z</time></trkpt><trkpt lat="44.9366786" lon="10.3998469"><ele>27.0</ele><time>2026-05-04T15:04:19.39Z</time></trkpt><trkpt lat="44.9366503" lon="10.3997661"><ele>27.000000000000004</ele><time>2026-05-04T15:04:20.39Z</time></trkpt><trkpt lat="44.9365893" lon="10.3996269"><ele>27.000000000000004</ele><time>2026-05-04T15:04:22.39Z</time></trkpt><trkpt lat="44.936562" lon="10.3995422"><ele>27.0</ele><time>2026-05-04T15:04:23.391Z</time></trkpt><trkpt lat="44.9365229" lon="10.3993902"><ele>27.0</ele><time>2026-05-04T15:04:25.391Z</time></trkpt><trkpt lat="44.9364747" lon="10.3992372"><ele>27.0</ele><time>2026-05-04T15:04:27.39Z</time></trkpt><trkpt lat="44.9364413" lon="10.399097"><ele>27.0</ele><time>2026-05-04T15:04:29.391Z</time></trkpt><trkpt lat="44.936394" lon="10.3989449"><ele>27.0</ele><time>2026-05-04T15:04:31.39Z</time></trkpt><trkpt lat="44.9363469" lon="10.3987879"><ele>27.0</ele><time>2026-05-04T15:04:33.391Z</time></trkpt><trkpt lat="44.9362994" lon="10.3986333"><ele>27.0</ele><time>2026-05-04T15:04:35.39Z</time></trkpt><trkpt lat="44.9362642" lon="10.3984812"><ele>27.0</ele><time>2026-05-04T15:04:37.39Z</time></trkpt><trkpt lat="44.9362315" lon="10.3983268"><ele>27.0</ele><time>2026-05-04T15:04:39.391Z</time></trkpt><trkpt lat="44.9361953" lon="10.3981742"><ele>27.0</ele><time>2026-05-04T15:04:41.39Z</time></trkpt><trkpt lat="44.9361488" lon="10.398026"><ele>27.0</ele><time>2026-05-04T15:04:43.39Z</time></trkpt><trkpt lat="44.9360864" lon="10.3978996"><ele>27.000000000000004</ele><time>2026-05-04T15:04:45.39Z</time></trkpt><trkpt lat="44.936015" lon="10.397809"><ele>27.000000000000004</ele><time>2026-05-04T15:04:47.39Z</time></trkpt><trkpt lat="44.935934" lon="10.3977144"><ele>27.0</ele><time>2026-05-04T15:04:49.39Z</time></trkpt><trkpt lat="44.9358399" lon="10.3976192"><ele>27.0</ele><time>2026-05-04T15:04:51.391Z</time></trkpt><trkpt lat="44.9357596" lon="10.3975243"><ele>27.0</ele><time>2026-05-04T15:04:53.391Z</time></trkpt><trkpt lat="44.9356683" lon="10.3974343"><ele>27.000000000000004</ele><time>2026-05-04T15:04:55.39Z</time></trkpt><trkpt lat="44.9355794" lon="10.397362"><ele>27.000000000000004</ele><time>2026-05-04T15:04:57.39Z</time></trkpt><trkpt lat="44.9354866" lon="10.3972885"><ele>27.0</ele><time>2026-05-04T15:04:59.39Z</time></trkpt><trkpt lat="44.9354048" lon="10.3971888"><ele>27.0</ele><time>2026-05-04T15:05:01.39Z</time></trkpt><trkpt lat="44.9353441" lon="10.3970744"><ele>26.6</ele><time>2026-05-04T15:05:03.39Z</time></trkpt><trkpt lat="44.9352914" lon="10.3969516"><ele>26.200000000000003</ele><time>2026-05-04T15:05:05.39Z</time></trkpt><trkpt lat="44.9352602" lon="10.3968131"><ele>25.8</ele><time>2026-05-04T15:05:07.391Z</time></trkpt><trkpt lat="44.9352444" lon="10.3966694"><ele>25.4</ele><time>2026-05-04T15:05:09.391Z</time></trkpt><trkpt lat="44.9352265" lon="10.3965276"><ele>25.0</ele><time>2026-05-04T15:05:11.39Z</time></trkpt><trkpt lat="44.9352051" lon="10.3963785"><ele>24.6</ele><time>2026-05-04T15:05:13.39Z</time></trkpt><trkpt lat="44.9351829" lon="10.3962203"><ele>24.2</ele><time>2026-05-04T15:05:15.39Z</time></trkpt><trkpt lat="44.9351699" lon="10.3960689"><ele>23.799999999999997</ele><time>2026-05-04T15:05:17.39Z</time></trkpt><trkpt lat="44.9351535" lon="10.3959205"><ele>23.4</ele><time>2026-05-04T15:05:19.39Z</time></trkpt><trkpt lat="44.9351298" lon="10.395781"><ele>23.0</ele><time>2026-05-04T15:05:21.391Z</time></trkpt><trkpt lat="44.9351011" lon="10.3956213"><ele>23.2</ele><time>2026-05-04T15:05:23.39Z</time></trkpt><trkpt lat="44.9350829" lon="10.3954555"><ele>23.4</ele><time>2026-05-04T15:05:25.391Z</time></trkpt><trkpt lat="44.9350613" lon="10.3953039"><ele>23.599999999999998</ele><time>2026-05-04T15:05:27.391Z</time></trkpt><trkpt lat="44.9350457" lon="10.3951534"><ele>23.799999999999997</ele><time>2026-05-04T15:05:29.391Z</time></trkpt><trkpt lat="44.9350465" lon="10.3950014"><ele>24.0</ele><time>2026-05-04T15:05:31.391Z</time></trkpt><trkpt lat="44.9350709" lon="10.3948566"><ele>24.0</ele><time>2026-05-04T15:05:33.39Z</time></trkpt><trkpt lat="44.935099" lon="10.3947067"><ele>24.0</ele><time>2026-05-04T15:05:35.391Z</time></trkpt><trkpt lat="44.9351445" lon="10.3945625"><ele>24.0</ele><time>2026-05-04T15:05:37.39Z</time></trkpt><trkpt lat="44.9351672" lon="10.3944076"><ele>24.0</ele><time>2026-05-04T15:05:39.39Z</time></trkpt><trkpt lat="44.9351725" lon="10.3942448"><ele>24.0</ele><time>2026-05-04T15:05:41.391Z</time></trkpt><trkpt lat="44.9351658" lon="10.3940831"><ele>23.6</ele><time>2026-05-04T15:05:43.39Z</time></trkpt><trkpt lat="44.9351636" lon="10.3939352"><ele>23.2</ele><time>2026-05-04T15:05:45.39Z</time></trkpt><trkpt lat="44.9351414" lon="10.3937771"><ele>22.8</ele><time>2026-05-04T15:05:47.39Z</time></trkpt><trkpt lat="44.9351224" lon="10.3936176"><ele>22.400000000000002</ele><time>2026-05-04T15:05:49.391Z</time></trkpt><trkpt lat="44.9351227" lon="10.3934573"><ele>22.0</ele><time>2026-05-04T15:05:51.39Z</time></trkpt><trkpt lat="44.9351049" lon="10.393296"><ele>22.0</ele><time>2026-05-04T15:05:53.39Z</time></trkpt><trkpt lat="44.9350726" lon="10.3931353"><ele>22.0</ele><time>2026-05-04T15:05:55.39Z</time></trkpt><trkpt lat="44.9350332" lon="10.392985"><ele>22.0</ele><time>2026-05-04T15:05:57.391Z</time></trkpt><trkpt lat="44.9349803" lon="10.3928484"><ele>22.0</ele><time>2026-05-04T15:05:59.391Z</time></trkpt><trkpt lat="44.9349169" lon="10.3927183"><ele>23.25</ele><time>2026-05-04T15:06:01.39Z</time></trkpt><trkpt lat="44.9348266" lon="10.3926021"><ele>24.5</ele><time>2026-05-04T15:06:03.391Z</time></trkpt><trkpt lat="44.9347296" lon="10.3925081"><ele>25.75</ele><time>2026-05-04T15:06:05.39Z</time></trkpt><trkpt lat="44.934622" lon="10.3924258"><ele>27.0</ele><time>2026-05-04T15:06:07.39Z</time></trkpt><trkpt lat="44.9345178" lon="10.3923602"><ele>27.0</ele><time>2026-05-04T15:06:09.391Z</time></trkpt><trkpt lat="44.934401" lon="10.3923257"><ele>27.000000000000004</ele><time>2026-05-04T15:06:11.391Z</time></trkpt><trkpt lat="44.934333" lon="10.3923258"><ele>27.000000000000004</ele><time>2026-05-04T15:06:12.391Z</time></trkpt><trkpt lat="44.9342134" lon="10.3923203"><ele>27.0</ele><time>2026-05-04T15:06:14.39Z</time></trkpt><trkpt lat="44.9341492" lon="10.3923151"><ele>27.0</ele><time>2026-05-04T15:06:15.391Z</time></trkpt><trkpt lat="44.934031" lon="10.3923133"><ele>26.6</ele><time>2026-05-04T15:06:17.391Z</time></trkpt><trkpt lat="44.9339202" lon="10.3923152"><ele>26.200000000000003</ele><time>2026-05-04T15:06:19.39Z</time></trkpt><trkpt lat="44.9338143" lon="10.392333"><ele>25.8</ele><time>2026-05-04T15:06:21.39Z</time></trkpt><trkpt lat="44.9337284" lon="10.3923213"><ele>25.4</ele><time>2026-05-04T15:06:23.391Z</time></trkpt><trkpt lat="44.9336357" lon="10.3923175"><ele>25.0</ele><time>2026-05-04T15:06:25.391Z</time></trkpt><trkpt lat="44.9335506" lon="10.3923173"><ele>25.0</ele><time>2026-05-04T15:06:27.391Z</time></trkpt><trkpt lat="44.9334364" lon="10.3923142"><ele>25.0</ele><time>2026-05-04T15:06:29.391Z</time></trkpt><trkpt lat="44.9333306" lon="10.3923097"><ele>25.0</ele><time>2026-05-04T15:06:31.391Z</time></trkpt><trkpt lat="44.9332165" lon="10.3922922"><ele>25.0</ele><time>2026-05-04T15:06:33.391Z</time></trkpt><trkpt lat="44.9331011" lon="10.3922682"><ele>24.75</ele><time>2026-05-04T15:06:35.39Z</time></trkpt><trkpt lat="44.9329918" lon="10.3922195"><ele>24.5</ele><time>2026-05-04T15:06:37.39Z</time></trkpt><trkpt lat="44.9328828" lon="10.3921783"><ele>24.25</ele><time>2026-05-04T15:06:39.391Z</time></trkpt><trkpt lat="44.9327763" lon="10.3921272"><ele>24.0</ele><time>2026-05-04T15:06:41.391Z</time></trkpt><trkpt lat="44.9326708" lon="10.3920758"><ele>24.0</ele><time>2026-05-04T15:06:43.391Z</time></trkpt><trkpt lat="44.9325645" lon="10.3920152"><ele>24.0</ele><time>2026-05-04T15:06:45.391Z</time></trkpt><trkpt lat="44.9324655" lon="10.3919432"><ele>24.0</ele><time>2026-05-04T15:06:47.39Z</time></trkpt><trkpt lat="44.9323719" lon="10.3918519"><ele>24.0</ele><time>2026-05-04T15:06:49.391Z</time></trkpt><trkpt lat="44.9322955" lon="10.3917558"><ele>24.0</ele><time>2026-05-04T15:06:51.391Z</time></trkpt><trkpt lat="44.9321981" lon="10.3916622"><ele>24.0</ele><time>2026-05-04T15:06:53.39Z</time></trkpt><trkpt lat="44.9320989" lon="10.3915686"><ele>24.0</ele><time>2026-05-04T15:06:55.39Z</time></trkpt><trkpt lat="44.932007" lon="10.3914923"><ele>24.0</ele><time>2026-05-04T15:06:57.391Z</time></trkpt><trkpt lat="44.9319146" lon="10.3913966"><ele>24.0</ele><time>2026-05-04T15:06:59.39Z</time></trkpt><trkpt lat="44.9318239" lon="10.3913019"><ele>24.0</ele><time>2026-05-04T15:07:01.39Z</time></trkpt><trkpt lat="44.9317375" lon="10.391207"><ele>24.0</ele><time>2026-05-04T15:07:03.391Z</time></trkpt><trkpt lat="44.9316542" lon="10.3911061"><ele>24.0</ele><time>2026-05-04T15:07:05.391Z</time></trkpt><trkpt lat="44.9315682" lon="10.3910109"><ele>24.0</ele><time>2026-05-04T15:07:07.39Z</time></trkpt><trkpt lat="44.9314875" lon="10.3909043"><ele>24.0</ele><time>2026-05-04T15:07:09.391Z</time></trkpt><trkpt lat="44.9314044" lon="10.3907935"><ele>24.6</ele><time>2026-05-04T15:07:11.391Z</time></trkpt><trkpt lat="44.9313198" lon="10.3906977"><ele>25.2</ele><time>2026-05-04T15:07:13.39Z</time></trkpt><trkpt lat="44.9312348" lon="10.3906019"><ele>25.800000000000004</ele><time>2026-05-04T15:07:15.391Z</time></trkpt><trkpt lat="44.9311409" lon="10.3905238"><ele>26.400000000000002</ele><time>2026-05-04T15:07:17.391Z</time></trkpt><trkpt lat="44.9310565" lon="10.3904361"><ele>27.0</ele><time>2026-05-04T15:07:19.39Z</time></trkpt><trkpt lat="44.9309735" lon="10.3903476"><ele>27.0</ele><time>2026-05-04T15:07:21.391Z</time></trkpt><trkpt lat="44.9308953" lon="10.3902592"><ele>27.000000000000004</ele><time>2026-05-04T15:07:23.391Z</time></trkpt><trkpt lat="44.9308093" lon="10.3901615"><ele>27.000000000000004</ele><time>2026-05-04T15:07:25.391Z</time></trkpt><trkpt lat="44.9307384" lon="10.3900474"><ele>27.0</ele><time>2026-05-04T15:07:27.39Z</time></trkpt><trkpt lat="44.9306965" lon="10.3899064"><ele>27.0</ele><time>2026-05-04T15:07:29.39Z</time></trkpt><trkpt lat="44.9306744" lon="10.3897731"><ele>26.8</ele><time>2026-05-04T15:07:31.391Z</time></trkpt><trkpt lat="44.9306559" lon="10.389625"><ele>26.6</ele><time>2026-05-04T15:07:33.391Z</time></trkpt><trkpt lat="44.9306585" lon="10.3894678"><ele>26.400000000000002</ele><time>2026-05-04T15:07:35.391Z</time></trkpt><trkpt lat="44.9306659" lon="10.3893226"><ele>26.200000000000003</ele><time>2026-05-04T15:07:37.391Z</time></trkpt><trkpt lat="44.9307004" lon="10.3891919"><ele>26.0</ele><time>2026-05-04T15:07:39.39Z</time></trkpt><trkpt lat="44.9307387" lon="10.3890637"><ele>26.0</ele><time>2026-05-04T15:07:41.39Z</time></trkpt><trkpt lat="44.9307722" lon="10.3889178"><ele>26.0</ele><time>2026-05-04T15:07:43.39Z</time></trkpt><trkpt lat="44.9308104" lon="10.3887903"><ele>26.0</ele><time>2026-05-04T15:07:45.39Z</time></trkpt><trkpt lat="44.9308478" lon="10.3886471"><ele>26.0</ele><time>2026-05-04T15:07:47.391Z</time></trkpt><trkpt lat="44.9308868" lon="10.3885075"><ele>26.0</ele><time>2026-05-04T15:07:49.391Z</time></trkpt><trkpt lat="44.9309165" lon="10.3883735"><ele>26.200000000000003</ele><time>2026-05-04T15:07:51.39Z</time></trkpt><trkpt lat="44.9309558" lon="10.3882374"><ele>26.400000000000002</ele><time>2026-05-04T15:07:53.391Z</time></trkpt><trkpt lat="44.9309866" lon="10.3880953"><ele>26.6</ele><time>2026-05-04T15:07:55.39Z</time></trkpt><trkpt lat="44.9310198" lon="10.3879568"><ele>26.8</ele><time>2026-05-04T15:07:57.391Z</time></trkpt><trkpt lat="44.9310502" lon="10.387805"><ele>27.0</ele><time>2026-05-04T15:07:59.391Z</time></trkpt><trkpt lat="44.9310623" lon="10.3876663"><ele>27.0</ele><time>2026-05-04T15:08:01.391Z</time></trkpt><trkpt lat="44.9310777" lon="10.3875252"><ele>27.000000000000004</ele><time>2026-05-04T15:08:03.391Z</time></trkpt><trkpt lat="44.9310928" lon="10.3873723"><ele>27.000000000000004</ele><time>2026-05-04T15:08:05.391Z</time></trkpt><trkpt lat="44.9311022" lon="10.3872175"><ele>27.0</ele><time>2026-05-04T15:08:07.39Z</time></trkpt><trkpt lat="44.9311261" lon="10.3870808"><ele>27.0</ele><time>2026-05-04T15:08:09.39Z</time></trkpt><trkpt lat="44.9311349" lon="10.3869221"><ele>27.0</ele><time>2026-05-04T15:08:11.391Z</time></trkpt><trkpt lat="44.9311409" lon="10.3867745"><ele>27.000000000000004</ele><time>2026-05-04T15:08:13.39Z</time></trkpt><trkpt lat="44.9311333" lon="10.3866233"><ele>27.000000000000004</ele><time>2026-05-04T15:08:15.39Z</time></trkpt><trkpt lat="44.9311236" lon="10.3864646"><ele>27.0</ele><time>2026-05-04T15:08:17.391Z</time></trkpt><trkpt lat="44.9311058" lon="10.3863102"><ele>27.0</ele><time>2026-05-04T15:08:19.391Z</time></trkpt><trkpt lat="44.9310728" lon="10.3861688"><ele>27.0</ele><time>2026-05-04T15:08:21.391Z</time></trkpt><trkpt lat="44.9310238" lon="10.3860305"><ele>27.000000000000004</ele><time>2026-05-04T15:08:23.39Z</time></trkpt><trkpt lat="44.9309553" lon="10.3859029"><ele>27.000000000000004</ele><time>2026-05-04T15:08:25.39Z</time></trkpt><trkpt lat="44.930869" lon="10.3858023"><ele>27.0</ele><time>2026-05-04T15:08:27.391Z</time></trkpt><trkpt lat="44.9307871" lon="10.385706"><ele>27.0</ele><time>2026-05-04T15:08:29.391Z</time></trkpt><trkpt lat="44.9306897" lon="10.3856175"><ele>26.8</ele><time>2026-05-04T15:08:31.39Z</time></trkpt><trkpt lat="44.9305998" lon="10.3855256"><ele>26.6</ele><time>2026-05-04T15:08:33.391Z</time></trkpt><trkpt lat="44.9305112" lon="10.385433"><ele>26.400000000000002</ele><time>2026-05-04T15:08:35.39Z</time></trkpt><trkpt lat="44.9304141" lon="10.3853519"><ele>26.200000000000003</ele><time>2026-05-04T15:08:37.39Z</time></trkpt><trkpt lat="44.9303168" lon="10.3852685"><ele>26.0</ele><time>2026-05-04T15:08:39.391Z</time></trkpt><trkpt lat="44.930222" lon="10.3851963"><ele>25.6</ele><time>2026-05-04T15:08:41.391Z</time></trkpt><trkpt lat="44.9301325" lon="10.3851062"><ele>25.200000000000003</ele><time>2026-05-04T15:08:43.391Z</time></trkpt><trkpt lat="44.9300441" lon="10.3850063"><ele>24.799999999999997</ele><time>2026-05-04T15:08:45.39Z</time></trkpt><trkpt lat="44.9299528" lon="10.3849156"><ele>24.4</ele><time>2026-05-04T15:08:47.39Z</time></trkpt><trkpt lat="44.9298569" lon="10.3848308"><ele>24.0</ele><time>2026-05-04T15:08:49.39Z</time></trkpt><trkpt lat="44.9297695" lon="10.3847482"><ele>24.2</ele><time>2026-05-04T15:08:51.391Z</time></trkpt><trkpt lat="44.9296897" lon="10.3846555"><ele>24.4</ele><time>2026-05-04T15:08:53.391Z</time></trkpt><trkpt lat="44.9296068" lon="10.3845526"><ele>24.6</ele><time>2026-05-04T15:08:55.39Z</time></trkpt><trkpt lat="44.9295338" lon="10.3844432"><ele>24.8</ele><time>2026-05-04T15:08:57.391Z</time></trkpt><trkpt lat="44.9294873" lon="10.3843046"><ele>25.0</ele><time>2026-05-04T15:08:59.391Z</time></trkpt><trkpt lat="44.9294615" lon="10.3841815"><ele>25.000000000000004</ele><time>2026-05-04T15:09:01.39Z</time></trkpt><trkpt lat="44.9294281" lon="10.3840597"><ele>25.0</ele><time>2026-05-04T15:09:03.391Z</time></trkpt><trkpt lat="44.9294089" lon="10.3839442"><ele>25.0</ele><time>2026-05-04T15:09:05.391Z</time></trkpt><trkpt lat="44.9293955" lon="10.3838194"><ele>25.0</ele><time>2026-05-04T15:09:07.391Z</time></trkpt><trkpt lat="44.9293936" lon="10.3837171"><ele>25.000000000000004</ele><time>2026-05-04T15:09:09.39Z</time></trkpt><trkpt lat="44.9293997" lon="10.3836068"><ele>25.0</ele><time>2026-05-04T15:09:11.39Z</time></trkpt><trkpt lat="44.9294148" lon="10.3834752"><ele>25.166666666666668</ele><time>2026-05-04T15:09:14.391Z</time></trkpt><trkpt lat="44.929439" lon="10.3833436"><ele>25.333333333333336</ele><time>2026-05-04T15:09:17.391Z</time></trkpt><trkpt lat="44.9294592" lon="10.3832339"><ele>25.5</ele><time>2026-05-04T15:09:19.391Z</time></trkpt><trkpt lat="44.9294805" lon="10.3831189"><ele>25.666666666666664</ele><time>2026-05-04T15:09:21.39Z</time></trkpt><trkpt lat="44.9295033" lon="10.3830047"><ele>25.833333333333332</ele><time>2026-05-04T15:09:23.39Z</time></trkpt><trkpt lat="44.92952" lon="10.3828942"><ele>26.0</ele><time>2026-05-04T15:09:25.39Z</time></trkpt><trkpt lat="44.9295513" lon="10.3827734"><ele>26.166666666666664</ele><time>2026-05-04T15:09:27.391Z</time></trkpt><trkpt lat="44.9295866" lon="10.3826509"><ele>26.333333333333332</ele><time>2026-05-04T15:09:29.39Z</time></trkpt><trkpt lat="44.9296167" lon="10.3825326"><ele>26.5</ele><time>2026-05-04T15:09:31.39Z</time></trkpt><trkpt lat="44.9296388" lon="10.382418"><ele>26.666666666666664</ele><time>2026-05-04T15:09:33.39Z</time></trkpt><trkpt lat="44.9296608" lon="10.3822984"><ele>26.833333333333332</ele><time>2026-05-04T15:09:35.39Z</time></trkpt><trkpt lat="44.929677" lon="10.3821835"><ele>27.0</ele><time>2026-05-04T15:09:37.391Z</time></trkpt><trkpt lat="44.9296911" lon="10.3820671"><ele>27.0</ele><time>2026-05-04T15:09:39.39Z</time></trkpt><trkpt lat="44.9297108" lon="10.3819443"><ele>27.0</ele><time>2026-05-04T15:09:41.391Z</time></trkpt><trkpt lat="44.929717" lon="10.3818137"><ele>27.0</ele><time>2026-05-04T15:09:43.391Z</time></trkpt><trkpt lat="44.9297137" lon="10.381697"><ele>27.0</ele><time>2026-05-04T15:09:45.391Z</time></trkpt><trkpt lat="44.9297065" lon="10.3815775"><ele>27.0</ele><time>2026-05-04T15:09:47.39Z</time></trkpt><trkpt lat="44.9297" lon="10.3814522"><ele>27.0</ele><time>2026-05-04T15:09:49.391Z</time></trkpt><trkpt lat="44.9296912" lon="10.3813019"><ele>27.333333333333332</ele><time>2026-05-04T15:09:51.39Z</time></trkpt><trkpt lat="44.9296858" lon="10.381213"><ele>27.666666666666664</ele><time>2026-05-04T15:09:52.39Z</time></trkpt><trkpt lat="44.9296697" lon="10.3811108"><ele>28.0</ele><time>2026-05-04T15:09:53.391Z</time></trkpt><trkpt lat="44.9296631" lon="10.3810029"><ele>28.333333333333332</ele><time>2026-05-04T15:09:54.391Z</time></trkpt><trkpt lat="44.9296543" lon="10.3808921"><ele>28.666666666666664</ele><time>2026-05-04T15:09:55.391Z</time></trkpt><trkpt lat="44.9296532" lon="10.3807926"><ele>29.0</ele><time>2026-05-04T15:09:56.39Z</time></trkpt><trkpt lat="44.9296423" lon="10.3806321"><ele>28.999999999999996</ele><time>2026-05-04T15:09:58.39Z</time></trkpt><trkpt lat="44.9296475" lon="10.3805276"><ele>29.0</ele><time>2026-05-04T15:10:00.39Z</time></trkpt><trkpt lat="44.9296964" lon="10.3804506"><ele>29.0</ele><time>2026-05-04T15:10:02.39Z</time></trkpt><trkpt lat="44.9297535" lon="10.3803635"><ele>29.0</ele><time>2026-05-04T15:10:04.39Z</time></trkpt><trkpt lat="44.9298098" lon="10.380269"><ele>28.999999999999996</ele><time>2026-05-04T15:10:06.391Z</time></trkpt><trkpt lat="44.9298732" lon="10.3801676"><ele>29.0</ele><time>2026-05-04T15:10:08.391Z</time></trkpt><trkpt lat="44.9299404" lon="10.3800749"><ele>29.0</ele><time>2026-05-04T15:10:10.39Z</time></trkpt><trkpt lat="44.9300183" lon="10.3799708"><ele>29.0</ele><time>2026-05-04T15:10:12.391Z</time></trkpt><trkpt lat="44.930094" lon="10.3798626"><ele>29.0</ele><time>2026-05-04T15:10:14.39Z</time></trkpt><trkpt lat="44.930158" lon="10.3797518"><ele>29.0</ele><time>2026-05-04T15:10:16.391Z</time></trkpt><trkpt lat="44.9302315" lon="10.3796463"><ele>29.0</ele><time>2026-05-04T15:10:18.391Z</time></trkpt><trkpt lat="44.9303073" lon="10.3795362"><ele>29.799999999999997</ele><time>2026-05-04T15:10:20.391Z</time></trkpt><trkpt lat="44.9303862" lon="10.379452"><ele>30.599999999999998</ele><time>2026-05-04T15:10:22.391Z</time></trkpt><trkpt lat="44.9304633" lon="10.3793529"><ele>31.4</ele><time>2026-05-04T15:10:24.39Z</time></trkpt><trkpt lat="44.9305245" lon="10.3792488"><ele>32.199999999999996</ele><time>2026-05-04T15:10:26.39Z</time></trkpt><trkpt lat="44.9306057" lon="10.3791516"><ele>33.0</ele><time>2026-05-04T15:10:28.39Z</time></trkpt><trkpt lat="44.9306751" lon="10.3790501"><ele>33.0</ele><time>2026-05-04T15:10:30.391Z</time></trkpt><trkpt lat="44.930755" lon="10.3789587"><ele>33.0</ele><time>2026-05-04T15:10:32.39Z</time></trkpt><trkpt lat="44.9308248" lon="10.3788668"><ele>33.0</ele><time>2026-05-04T15:10:34.39Z</time></trkpt><trkpt lat="44.9309157" lon="10.3787852"><ele>33.0</ele><time>2026-05-04T15:10:36.391Z</time></trkpt><trkpt lat="44.9310121" lon="10.3787095"><ele>33.0</ele><time>2026-05-04T15:10:38.391Z</time></trkpt><trkpt lat="44.9310732" lon="10.3786232"><ele>32.666666666666664</ele><time>2026-05-04T15:10:40.39Z</time></trkpt><trkpt lat="44.9311724" lon="10.3785722"><ele>32.333333333333336</ele><time>2026-05-04T15:10:42.391Z</time></trkpt><trkpt lat="44.9312452" lon="10.3784848"><ele>32.0</ele><time>2026-05-04T15:10:44.39Z</time></trkpt><trkpt lat="44.9313147" lon="10.3784145"><ele>31.666666666666668</ele><time>2026-05-04T15:10:46.391Z</time></trkpt><trkpt lat="44.931378" lon="10.3783306"><ele>31.333333333333336</ele><time>2026-05-04T15:10:48.39Z</time></trkpt><trkpt lat="44.9314234" lon="10.378253"><ele>31.0</ele><time>2026-05-04T15:10:50.391Z</time></trkpt><trkpt lat="44.9314642" lon="10.3781818"><ele>31.0</ele><time>2026-05-04T15:10:52.391Z</time></trkpt><trkpt lat="44.9315233" lon="10.3781117"><ele>31.000000000000004</ele><time>2026-05-04T15:10:54.39Z</time></trkpt><trkpt lat="44.931571" lon="10.3780447"><ele>31.0</ele><time>2026-05-04T15:10:56.391Z</time></trkpt><trkpt lat="44.9316187" lon="10.3779594"><ele>31.0</ele><time>2026-05-04T15:10:58.391Z</time></trkpt><trkpt lat="44.9316705" lon="10.3778929"><ele>31.000000000000004</ele><time>2026-05-04T15:11:00.391Z</time></trkpt><trkpt lat="44.9317202" lon="10.3778254"><ele>31.0</ele><time>2026-05-04T15:11:02.391Z</time></trkpt><trkpt lat="44.9317595" lon="10.3777526"><ele>31.0</ele><time>2026-05-04T15:11:04.391Z</time></trkpt><trkpt lat="44.9317951" lon="10.3776465"><ele>30.833333333333336</ele><time>2026-05-04T15:11:07.39Z</time></trkpt><trkpt lat="44.931787" lon="10.3775579"><ele>30.666666666666668</ele><time>2026-05-04T15:11:10.391Z</time></trkpt><trkpt lat="44.9317127" lon="10.3775117"><ele>30.5</ele><time>2026-05-04T15:11:13.39Z</time></trkpt><trkpt lat="44.9316488" lon="10.3774493"><ele>30.333333333333336</ele><time>2026-05-04T15:11:16.391Z</time></trkpt><trkpt lat="44.9315878" lon="10.3773688"><ele>30.166666666666668</ele><time>2026-05-04T15:11:19.39Z</time></trkpt><trkpt lat="44.931532" lon="10.3772643"><ele>30.0</ele><time>2026-05-04T15:11:22.39Z</time></trkpt><trkpt lat="44.931491" lon="10.3771852"><ele>29.857142857142858</ele><time>2026-05-04T15:11:24.39Z</time></trkpt><trkpt lat="44.9314447" lon="10.377122"><ele>29.714285714285715</ele><time>2026-05-04T15:11:26.391Z</time></trkpt><trkpt lat="44.9313908" lon="10.3770513"><ele>29.571428571428573</ele><time>2026-05-04T15:11:28.39Z</time></trkpt><trkpt lat="44.9313405" lon="10.3769627"><ele>29.42857142857143</ele><time>2026-05-04T15:11:30.391Z</time></trkpt><trkpt lat="44.9312941" lon="10.3768833"><ele>29.285714285714285</ele><time>2026-05-04T15:11:32.39Z</time></trkpt><trkpt lat="44.9312498" lon="10.3768141"><ele>29.142857142857146</ele><time>2026-05-04T15:11:34.391Z</time></trkpt><trkpt lat="44.9312039" lon="10.3767363"><ele>29.000000000000004</ele><time>2026-05-04T15:11:36.39Z</time></trkpt><trkpt lat="44.9311637" lon="10.3766548"><ele>28.999999999999996</ele><time>2026-05-04T15:11:38.39Z</time></trkpt><trkpt lat="44.9311192" lon="10.3765603"><ele>29.0</ele><time>2026-05-04T15:11:40.391Z</time></trkpt><trkpt lat="44.9310766" lon="10.3764656"><ele>29.0</ele><time>2026-05-04T15:11:42.39Z</time></trkpt><trkpt lat="44.9310296" lon="10.3763652"><ele>29.0</ele><time>2026-05-04T15:11:44.39Z</time></trkpt><trkpt lat="44.9309896" lon="10.3762598"><ele>28.999999999999996</ele><time>2026-05-04T15:11:46.39Z</time></trkpt><trkpt lat="44.9309516" lon="10.3761506"><ele>29.0</ele><time>2026-05-04T15:11:48.391Z</time></trkpt><trkpt lat="44.9309164" lon="10.3760355"><ele>29.333333333333332</ele><time>2026-05-04T15:11:50.391Z</time></trkpt><trkpt lat="44.9308923" lon="10.3759213"><ele>29.666666666666664</ele><time>2026-05-04T15:11:52.391Z</time></trkpt><trkpt lat="44.9308723" lon="10.37581"><ele>30.0</ele><time>2026-05-04T15:11:54.391Z</time></trkpt><trkpt lat="44.9308525" lon="10.3757073"><ele>30.333333333333336</ele><time>2026-05-04T15:11:56.391Z</time></trkpt><trkpt lat="44.9308343" lon="10.375608"><ele>30.666666666666668</ele><time>2026-05-04T15:11:58.391Z</time></trkpt><trkpt lat="44.930817" lon="10.3755163"><ele>31.0</ele><time>2026-05-04T15:12:00.391Z</time></trkpt><trkpt lat="44.9307978" lon="10.3753984"><ele>31.142857142857146</ele><time>2026-05-04T15:12:03.391Z</time></trkpt><trkpt lat="44.9307844" lon="10.3752847"><ele>31.28571428571429</ele><time>2026-05-04T15:12:06.391Z</time></trkpt><trkpt lat="44.9307173" lon="10.3752252"><ele>31.42857142857143</ele><time>2026-05-04T15:12:10.391Z</time></trkpt><trkpt lat="44.9306478" lon="10.3752309"><ele>31.57142857142857</ele><time>2026-05-04T15:12:13.391Z</time></trkpt><trkpt lat="44.9305774" lon="10.37523"><ele>31.71428571428571</ele><time>2026-05-04T15:12:16.39Z</time></trkpt><trkpt lat="44.9305143" lon="10.3752233"><ele>31.857142857142854</ele><time>2026-05-04T15:12:18.391Z</time></trkpt><trkpt lat="44.9304474" lon="10.3752275"><ele>32.0</ele><time>2026-05-04T15:12:21.391Z</time></trkpt><trkpt lat="44.9304057" lon="10.3753085"><ele>32.0</ele><time>2026-05-04T15:12:26.391Z</time></trkpt><trkpt lat="44.9303893" lon="10.3754059"><ele>31.999999999999996</ele><time>2026-05-04T15:12:29.39Z</time></trkpt><trkpt lat="44.9303844" lon="10.3754999"><ele>32.0</ele><time>2026-05-04T15:12:31.39Z</time></trkpt><trkpt lat="44.9303759" lon="10.3756002"><ele>32.0</ele><time>2026-05-04T15:12:33.391Z</time></trkpt><trkpt lat="44.9303255" lon="10.3756829"><ele>31.999999999999996</ele><time>2026-05-04T15:12:36.391Z</time></trkpt><trkpt lat="44.9302602" lon="10.3756771"><ele>32.0</ele><time>2026-05-04T15:12:38.39Z</time></trkpt><trkpt lat="44.9301917" lon="10.3756726"><ele>32.0</ele><time>2026-05-04T15:12:40.391Z</time></trkpt><trkpt lat="44.930118" lon="10.3756688"><ele>32.666666666666664</ele><time>2026-05-04T15:12:42.391Z</time></trkpt><trkpt lat="44.9300447" lon="10.3756743"><ele>33.33333333333333</ele><time>2026-05-04T15:12:44.39Z</time></trkpt><trkpt lat="44.9299817" lon="10.3757178"><ele>34.0</ele><time>2026-05-04T15:12:46.391Z</time></trkpt><trkpt lat="44.9299244" lon="10.3757693"><ele>34.666666666666664</ele><time>2026-05-04T15:12:48.391Z</time></trkpt><trkpt lat="44.9298373" lon="10.3758101"><ele>35.333333333333336</ele><time>2026-05-04T15:12:51.39Z</time></trkpt><trkpt lat="44.9297656" lon="10.3758021"><ele>36.0</ele><time>2026-05-04T15:12:54.39Z</time></trkpt><trkpt lat="44.9296899" lon="10.3757862"><ele>36.0</ele><time>2026-05-04T15:12:58.39Z</time></trkpt><trkpt lat="44.9296224" lon="10.3757466"><ele>36.0</ele><time>2026-05-04T15:13:03.391Z</time></trkpt><trkpt lat="44.9296894" lon="10.3758165"><ele>36.0</ele><time>2026-05-04T15:13:19.39Z</time></trkpt><trkpt lat="44.9297149" lon="10.3759378"><ele>36.0</ele><time>2026-05-04T15:13:22.39Z</time></trkpt><trkpt lat="44.929758" lon="10.3760372"><ele>36.0</ele><time>2026-05-04T15:13:25.391Z</time></trkpt><trkpt lat="44.9298067" lon="10.3761091"><ele>36.0</ele><time>2026-05-04T15:13:28.39Z</time></trkpt></trkseg><trkseg><trkpt lat="44.9304688" lon="10.3753064"><ele>31.999999999999996</ele><time>2026-05-04T15:32:37.384Z</time></trkpt><trkpt lat="44.9304655" lon="10.3752161"><ele>32.0</ele><time>2026-05-04T15:32:42.385Z</time></trkpt><trkpt lat="44.9305442" lon="10.3752037"><ele>32.0</ele><time>2026-05-04T15:32:47.384Z</time></trkpt><trkpt lat="44.9306146" lon="10.3752249"><ele>32.0</ele><time>2026-05-04T15:32:51.384Z</time></trkpt><trkpt lat="44.9307008" lon="10.3752374"><ele>31.999999999999996</ele><time>2026-05-04T15:32:55.384Z</time></trkpt><trkpt lat="44.9307682" lon="10.375251"><ele>32.0</ele><time>2026-05-04T15:32:58.385Z</time></trkpt><trkpt lat="44.9308036" lon="10.3753606"><ele>32.0</ele><time>2026-05-04T15:33:02.384Z</time></trkpt><trkpt lat="44.9308109" lon="10.3754647"><ele>31.999999999999996</ele><time>2026-05-04T15:33:05.385Z</time></trkpt><trkpt lat="44.9308237" lon="10.3755893"><ele>32.0</ele><time>2026-05-04T15:33:08.385Z</time></trkpt><trkpt lat="44.9308344" lon="10.3756818"><ele>32.0</ele><time>2026-05-04T15:33:10.384Z</time></trkpt><trkpt lat="44.9308477" lon="10.3757781"><ele>31.999999999999996</ele><time>2026-05-04T15:33:12.384Z</time></trkpt><trkpt lat="44.9308661" lon="10.3758803"><ele>32.0</ele><time>2026-05-04T15:33:14.384Z</time></trkpt><trkpt lat="44.9308882" lon="10.3759793"><ele>32.0</ele><time>2026-05-04T15:33:16.385Z</time></trkpt><trkpt lat="44.9309097" lon="10.376076"><ele>31.857142857142854</ele><time>2026-05-04T15:33:18.384Z</time></trkpt><trkpt lat="44.930931" lon="10.376172"><ele>31.71428571428571</ele><time>2026-05-04T15:33:20.385Z</time></trkpt><trkpt lat="44.9309605" lon="10.3762683"><ele>31.57142857142857</ele><time>2026-05-04T15:33:22.384Z</time></trkpt><trkpt lat="44.9309963" lon="10.3763566"><ele>31.42857142857143</ele><time>2026-05-04T15:33:24.384Z</time></trkpt><trkpt lat="44.9310348" lon="10.3764437"><ele>31.28571428571429</ele><time>2026-05-04T15:33:26.384Z</time></trkpt><trkpt lat="44.9310768" lon="10.3765336"><ele>31.142857142857146</ele><time>2026-05-04T15:33:28.384Z</time></trkpt><trkpt lat="44.9311228" lon="10.3766203"><ele>31.0</ele><time>2026-05-04T15:33:30.385Z</time></trkpt><trkpt lat="44.9311689" lon="10.3767078"><ele>30.833333333333336</ele><time>2026-05-04T15:33:32.384Z</time></trkpt><trkpt lat="44.9312194" lon="10.3767942"><ele>30.666666666666668</ele><time>2026-05-04T15:33:34.385Z</time></trkpt><trkpt lat="44.9312667" lon="10.3768814"><ele>30.5</ele><time>2026-05-04T15:33:36.385Z</time></trkpt><trkpt lat="44.9313174" lon="10.3769723"><ele>30.333333333333336</ele><time>2026-05-04T15:33:38.385Z</time></trkpt><trkpt lat="44.9313724" lon="10.3770626"><ele>30.166666666666668</ele><time>2026-05-04T15:33:40.384Z</time></trkpt><trkpt lat="44.9314279" lon="10.3771485"><ele>30.0</ele><time>2026-05-04T15:33:42.384Z</time></trkpt><trkpt lat="44.931482" lon="10.3772353"><ele>30.0</ele><time>2026-05-04T15:33:44.385Z</time></trkpt><trkpt lat="44.9315463" lon="10.3773191"><ele>30.0</ele><time>2026-05-04T15:33:46.384Z</time></trkpt><trkpt lat="44.9316128" lon="10.3773947"><ele>30.0</ele><time>2026-05-04T15:33:48.385Z</time></trkpt><trkpt lat="44.9316733" lon="10.3774732"><ele>30.0</ele><time>2026-05-04T15:33:50.385Z</time></trkpt><trkpt lat="44.9317306" lon="10.3775273"><ele>30.0</ele><time>2026-05-04T15:33:52.384Z</time></trkpt><trkpt lat="44.9317758" lon="10.3776136"><ele>30.0</ele><time>2026-05-04T15:33:55.385Z</time></trkpt><trkpt lat="44.9317247" lon="10.3776677"><ele>30.0</ele><time>2026-05-04T15:33:58.384Z</time></trkpt><trkpt lat="44.9316472" lon="10.3777434"><ele>30.0</ele><time>2026-05-04T15:34:01.384Z</time></trkpt><trkpt lat="44.9315863" lon="10.3778033"><ele>30.0</ele><time>2026-05-04T15:34:03.384Z</time></trkpt><trkpt lat="44.9315306" lon="10.3778757"><ele>30.0</ele><time>2026-05-04T15:34:05.384Z</time></trkpt><trkpt lat="44.931484" lon="10.3779534"><ele>30.0</ele><time>2026-05-04T15:34:07.384Z</time></trkpt><trkpt lat="44.9314464" lon="10.3780435"><ele>30.0</ele><time>2026-05-04T15:34:09.384Z</time></trkpt><trkpt lat="44.9314031" lon="10.3781283"><ele>30.166666666666668</ele><time>2026-05-04T15:34:11.385Z</time></trkpt><trkpt lat="44.9313426" lon="10.3782168"><ele>30.333333333333336</ele><time>2026-05-04T15:34:13.384Z</time></trkpt><trkpt lat="44.9312874" lon="10.3782609"><ele>30.5</ele><time>2026-05-04T15:34:14.384Z</time></trkpt><trkpt lat="44.9312054" lon="10.378354"><ele>30.666666666666668</ele><time>2026-05-04T15:34:16.385Z</time></trkpt><trkpt lat="44.9311196" lon="10.3784529"><ele>30.833333333333336</ele><time>2026-05-04T15:34:18.384Z</time></trkpt><trkpt lat="44.9310685" lon="10.3785076"><ele>31.0</ele><time>2026-05-04T15:34:19.385Z</time></trkpt><trkpt lat="44.9310169" lon="10.3785667"><ele>31.000000000000004</ele><time>2026-05-04T15:34:20.385Z</time></trkpt><trkpt lat="44.9309536" lon="10.3786235"><ele>31.0</ele><time>2026-05-04T15:34:21.385Z</time></trkpt><trkpt lat="44.9309055" lon="10.3786861"><ele>31.0</ele><time>2026-05-04T15:34:22.384Z</time></trkpt><trkpt lat="44.9308601" lon="10.3787518"><ele>31.0</ele><time>2026-05-04T15:34:23.385Z</time></trkpt><trkpt lat="44.9307624" lon="10.3788595"><ele>31.000000000000004</ele><time>2026-05-04T15:34:25.384Z</time></trkpt><trkpt lat="44.930672" lon="10.3789713"><ele>31.0</ele><time>2026-05-04T15:34:27.384Z</time></trkpt><trkpt lat="44.9305857" lon="10.3790918"><ele>31.4</ele><time>2026-05-04T15:34:29.384Z</time></trkpt><trkpt lat="44.9305031" lon="10.3792205"><ele>31.8</ele><time>2026-05-04T15:34:31.385Z</time></trkpt><trkpt lat="44.9304645" lon="10.3792914"><ele>32.199999999999996</ele><time>2026-05-04T15:34:32.385Z</time></trkpt><trkpt lat="44.9303769" lon="10.3794189"><ele>32.6</ele><time>2026-05-04T15:34:34.384Z</time></trkpt><trkpt lat="44.9302949" lon="10.3795274"><ele>33.0</ele><time>2026-05-04T15:34:36.385Z</time></trkpt><trkpt lat="44.9302106" lon="10.3796335"><ele>32.5</ele><time>2026-05-04T15:34:38.385Z</time></trkpt><trkpt lat="44.930132" lon="10.379759"><ele>32.0</ele><time>2026-05-04T15:34:40.385Z</time></trkpt><trkpt lat="44.9300639" lon="10.3798744"><ele>31.5</ele><time>2026-05-04T15:34:42.385Z</time></trkpt><trkpt lat="44.929968" lon="10.3799708"><ele>31.0</ele><time>2026-05-04T15:34:44.385Z</time></trkpt><trkpt lat="44.9298865" lon="10.3800844"><ele>30.6</ele><time>2026-05-04T15:34:46.384Z</time></trkpt><trkpt lat="44.9298169" lon="10.3801692"><ele>30.200000000000003</ele><time>2026-05-04T15:34:48.384Z</time></trkpt><trkpt lat="44.9297759" lon="10.3802708"><ele>29.799999999999997</ele><time>2026-05-04T15:34:50.385Z</time></trkpt><trkpt lat="44.9297068" lon="10.3803799"><ele>29.4</ele><time>2026-05-04T15:34:52.384Z</time></trkpt><trkpt lat="44.9296433" lon="10.3804778"><ele>29.0</ele><time>2026-05-04T15:34:54.385Z</time></trkpt><trkpt lat="44.9295968" lon="10.3806001"><ele>28.999999999999996</ele><time>2026-05-04T15:34:56.385Z</time></trkpt><trkpt lat="44.9295849" lon="10.3807001"><ele>29.0</ele><time>2026-05-04T15:34:58.384Z</time></trkpt><trkpt lat="44.9296133" lon="10.3808024"><ele>29.0</ele><time>2026-05-04T15:35:00.384Z</time></trkpt><trkpt lat="44.9296254" lon="10.3809378"><ele>29.0</ele><time>2026-05-04T15:35:02.384Z</time></trkpt><trkpt lat="44.9296385" lon="10.3810645"><ele>28.999999999999996</ele><time>2026-05-04T15:35:04.384Z</time></trkpt><trkpt lat="44.9296494" lon="10.3811798"><ele>29.0</ele><time>2026-05-04T15:35:06.384Z</time></trkpt><trkpt lat="44.9296504" lon="10.3812841"><ele>28.666666666666664</ele><time>2026-05-04T15:35:08.384Z</time></trkpt><trkpt lat="44.9296698" lon="10.3813869"><ele>28.333333333333332</ele><time>2026-05-04T15:35:10.384Z</time></trkpt><trkpt lat="44.9296721" lon="10.3814905"><ele>28.0</ele><time>2026-05-04T15:35:12.384Z</time></trkpt><trkpt lat="44.9296804" lon="10.3816"><ele>27.666666666666664</ele><time>2026-05-04T15:35:14.384Z</time></trkpt><trkpt lat="44.9296862" lon="10.3817281"><ele>27.333333333333332</ele><time>2026-05-04T15:35:16.384Z</time></trkpt><trkpt lat="44.929688" lon="10.3818307"><ele>27.0</ele><time>2026-05-04T15:35:18.384Z</time></trkpt><trkpt lat="44.9296853" lon="10.3819569"><ele>27.0</ele><time>2026-05-04T15:35:20.384Z</time></trkpt><trkpt lat="44.9296754" lon="10.382092"><ele>27.000000000000004</ele><time>2026-05-04T15:35:22.384Z</time></trkpt><trkpt lat="44.9296606" lon="10.3822383"><ele>27.000000000000004</ele><time>2026-05-04T15:35:24.384Z</time></trkpt><trkpt lat="44.9296386" lon="10.3823935"><ele>27.0</ele><time>2026-05-04T15:35:26.385Z</time></trkpt><trkpt lat="44.929597" lon="10.3825545"><ele>27.0</ele><time>2026-05-04T15:35:28.384Z</time></trkpt><trkpt lat="44.9295518" lon="10.3826975"><ele>27.0</ele><time>2026-05-04T15:35:30.384Z</time></trkpt><trkpt lat="44.9295043" lon="10.3828434"><ele>27.0</ele><time>2026-05-04T15:35:32.384Z</time></trkpt><trkpt lat="44.9294611" lon="10.3829862"><ele>27.0</ele><time>2026-05-04T15:35:34.384Z</time></trkpt><trkpt lat="44.929419" lon="10.3831437"><ele>27.0</ele><time>2026-05-04T15:35:36.385Z</time></trkpt><trkpt lat="44.9293954" lon="10.3833007"><ele>26.8</ele><time>2026-05-04T15:35:38.384Z</time></trkpt><trkpt lat="44.9293783" lon="10.3834338"><ele>26.6</ele><time>2026-05-04T15:35:40.385Z</time></trkpt><trkpt lat="44.9293666" lon="10.3835806"><ele>26.400000000000002</ele><time>2026-05-04T15:35:42.385Z</time></trkpt><trkpt lat="44.9293615" lon="10.3837346"><ele>26.200000000000003</ele><time>2026-05-04T15:35:44.385Z</time></trkpt><trkpt lat="44.9293693" lon="10.3838921"><ele>26.0</ele><time>2026-05-04T15:35:46.384Z</time></trkpt><trkpt lat="44.9293777" lon="10.384049"><ele>25.8</ele><time>2026-05-04T15:35:48.385Z</time></trkpt><trkpt lat="44.9294172" lon="10.3841995"><ele>25.6</ele><time>2026-05-04T15:35:50.384Z</time></trkpt><trkpt lat="44.9294653" lon="10.3843502"><ele>25.4</ele><time>2026-05-04T15:35:52.384Z</time></trkpt><trkpt lat="44.929505" lon="10.38449"><ele>25.2</ele><time>2026-05-04T15:35:54.385Z</time></trkpt><trkpt lat="44.9295724" lon="10.3846167"><ele>25.0</ele><time>2026-05-04T15:35:56.385Z</time></trkpt><trkpt lat="44.9296587" lon="10.3847234"><ele>24.75</ele><time>2026-05-04T15:35:58.385Z</time></trkpt><trkpt lat="44.9297551" lon="10.3848197"><ele>24.5</ele><time>2026-05-04T15:36:00.385Z</time></trkpt><trkpt lat="44.929854" lon="10.3849092"><ele>24.25</ele><time>2026-05-04T15:36:02.384Z</time></trkpt><trkpt lat="44.9299533" lon="10.3849976"><ele>24.0</ele><time>2026-05-04T15:36:04.385Z</time></trkpt><trkpt lat="44.9300375" lon="10.3850956"><ele>24.0</ele><time>2026-05-04T15:36:06.385Z</time></trkpt><trkpt lat="44.9301364" lon="10.3851768"><ele>24.0</ele><time>2026-05-04T15:36:08.384Z</time></trkpt><trkpt lat="44.9302244" lon="10.3852712"><ele>24.0</ele><time>2026-05-04T15:36:10.384Z</time></trkpt><trkpt lat="44.9303184" lon="10.385366"><ele>24.0</ele><time>2026-05-04T15:36:12.385Z</time></trkpt><trkpt lat="44.9304128" lon="10.3854537"><ele>24.4</ele><time>2026-05-04T15:36:14.384Z</time></trkpt><trkpt lat="44.9305208" lon="10.3855425"><ele>24.799999999999997</ele><time>2026-05-04T15:36:16.384Z</time></trkpt><trkpt lat="44.9306056" lon="10.3856347"><ele>25.200000000000003</ele><time>2026-05-04T15:36:18.385Z</time></trkpt><trkpt lat="44.9307091" lon="10.3857365"><ele>25.6</ele><time>2026-05-04T15:36:20.384Z</time></trkpt><trkpt lat="44.9307662" lon="10.3857929"><ele>26.0</ele><time>2026-05-04T15:36:21.385Z</time></trkpt><trkpt lat="44.930819" lon="10.3858445"><ele>26.200000000000003</ele><time>2026-05-04T15:36:22.384Z</time></trkpt><trkpt lat="44.9309017" lon="10.385961"><ele>26.400000000000002</ele><time>2026-05-04T15:36:24.385Z</time></trkpt><trkpt lat="44.9309736" lon="10.3861084"><ele>26.6</ele><time>2026-05-04T15:36:26.385Z</time></trkpt><trkpt lat="44.9310049" lon="10.3861906"><ele>26.8</ele><time>2026-05-04T15:36:27.385Z</time></trkpt><trkpt lat="44.9310304" lon="10.3862795"><ele>27.0</ele><time>2026-05-04T15:36:28.385Z</time></trkpt><trkpt lat="44.9310589" lon="10.3864354"><ele>27.0</ele><time>2026-05-04T15:36:30.384Z</time></trkpt><trkpt lat="44.9310689" lon="10.3865998"><ele>27.0</ele><time>2026-05-04T15:36:32.384Z</time></trkpt><trkpt lat="44.9310782" lon="10.386693"><ele>27.0</ele><time>2026-05-04T15:36:33.385Z</time></trkpt><trkpt lat="44.9310797" lon="10.3867893"><ele>27.0</ele><time>2026-05-04T15:36:34.385Z</time></trkpt><trkpt lat="44.931077" lon="10.3868802"><ele>27.0</ele><time>2026-05-04T15:36:35.384Z</time></trkpt><trkpt lat="44.9310745" lon="10.3870554"><ele>27.0</ele><time>2026-05-04T15:36:37.385Z</time></trkpt><trkpt lat="44.9310658" lon="10.38723"><ele>27.0</ele><time>2026-05-04T15:36:39.385Z</time></trkpt><trkpt lat="44.9310526" lon="10.3874036"><ele>27.0</ele><time>2026-05-04T15:36:41.384Z</time></trkpt><trkpt lat="44.9310453" lon="10.3875777"><ele>27.0</ele><time>2026-05-04T15:36:43.384Z</time></trkpt><trkpt lat="44.9310264" lon="10.3877418"><ele>27.0</ele><time>2026-05-04T15:36:45.384Z</time></trkpt><trkpt lat="44.9309847" lon="10.3878843"><ele>27.200000000000003</ele><time>2026-05-04T15:36:47.384Z</time></trkpt><trkpt lat="44.9309577" lon="10.3880475"><ele>27.400000000000002</ele><time>2026-05-04T15:36:49.384Z</time></trkpt><trkpt lat="44.9309137" lon="10.388212"><ele>27.599999999999998</ele><time>2026-05-04T15:36:51.385Z</time></trkpt><trkpt lat="44.9308906" lon="10.3882991"><ele>27.799999999999997</ele><time>2026-05-04T15:36:52.385Z</time></trkpt><trkpt lat="44.930864" lon="10.3883888"><ele>28.0</ele><time>2026-05-04T15:36:53.385Z</time></trkpt><trkpt lat="44.9308204" lon="10.388562"><ele>28.2</ele><time>2026-05-04T15:36:55.384Z</time></trkpt><trkpt lat="44.9307992" lon="10.3886473"><ele>28.4</ele><time>2026-05-04T15:36:56.384Z</time></trkpt><trkpt lat="44.9307794" lon="10.3887366"><ele>28.599999999999998</ele><time>2026-05-04T15:36:57.385Z</time></trkpt><trkpt lat="44.9307462" lon="10.3889084"><ele>28.799999999999997</ele><time>2026-05-04T15:36:59.384Z</time></trkpt><trkpt lat="44.9307011" lon="10.3890712"><ele>29.0</ele><time>2026-05-04T15:37:01.384Z</time></trkpt><trkpt lat="44.9306637" lon="10.3892302"><ele>28.25</ele><time>2026-05-04T15:37:03.385Z</time></trkpt><trkpt lat="44.9306318" lon="10.3894012"><ele>27.5</ele><time>2026-05-04T15:37:05.385Z</time></trkpt><trkpt lat="44.9306215" lon="10.3895729"><ele>26.75</ele><time>2026-05-04T15:37:07.385Z</time></trkpt><trkpt lat="44.9306241" lon="10.3897438"><ele>26.0</ele><time>2026-05-04T15:37:09.384Z</time></trkpt><trkpt lat="44.9306334" lon="10.3899053"><ele>25.999999999999996</ele><time>2026-05-04T15:37:11.384Z</time></trkpt><trkpt lat="44.9306505" lon="10.3899934"><ele>26.0</ele><time>2026-05-04T15:37:12.384Z</time></trkpt><trkpt lat="44.9306857" lon="10.3900792"><ele>26.0</ele><time>2026-05-04T15:37:13.385Z</time></trkpt><trkpt lat="44.93072" lon="10.3901564"><ele>26.0</ele><time>2026-05-04T15:37:14.384Z</time></trkpt><trkpt lat="44.9307665" lon="10.3902272"><ele>25.999999999999996</ele><time>2026-05-04T15:37:15.385Z</time></trkpt><trkpt lat="44.9308492" lon="10.3903513"><ele>26.0</ele><time>2026-05-04T15:37:17.384Z</time></trkpt><trkpt lat="44.930904" lon="10.3904073"><ele>26.200000000000003</ele><time>2026-05-04T15:37:18.385Z</time></trkpt><trkpt lat="44.9310177" lon="10.3905056"><ele>26.400000000000002</ele><time>2026-05-04T15:37:20.384Z</time></trkpt><trkpt lat="44.9310683" lon="10.3905605"><ele>26.6</ele><time>2026-05-04T15:37:21.384Z</time></trkpt><trkpt lat="44.931169" lon="10.3906679"><ele>26.8</ele><time>2026-05-04T15:37:23.384Z</time></trkpt><trkpt lat="44.9312251" lon="10.3907215"><ele>27.0</ele><time>2026-05-04T15:37:24.385Z</time></trkpt><trkpt lat="44.9312716" lon="10.3907829"><ele>27.200000000000003</ele><time>2026-05-04T15:37:25.384Z</time></trkpt><trkpt lat="44.9313721" lon="10.3909082"><ele>27.400000000000002</ele><time>2026-05-04T15:37:27.385Z</time></trkpt><trkpt lat="44.9314194" lon="10.3909719"><ele>27.599999999999998</ele><time>2026-05-04T15:37:28.384Z</time></trkpt><trkpt lat="44.931473" lon="10.3910396"><ele>27.799999999999997</ele><time>2026-05-04T15:37:29.384Z</time></trkpt><trkpt lat="44.9315218" lon="10.3911045"><ele>28.0</ele><time>2026-05-04T15:37:30.385Z</time></trkpt><trkpt lat="44.9316231" lon="10.3912192"><ele>28.0</ele><time>2026-05-04T15:37:32.384Z</time></trkpt><trkpt lat="44.9316754" lon="10.3912707"><ele>28.0</ele><time>2026-05-04T15:37:33.385Z</time></trkpt><trkpt lat="44.9317313" lon="10.3913272"><ele>28.0</ele><time>2026-05-04T15:37:34.385Z</time></trkpt><trkpt lat="44.9317865" lon="10.3913913"><ele>28.0</ele><time>2026-05-04T15:37:35.384Z</time></trkpt><trkpt lat="44.9318439" lon="10.3914455"><ele>28.0</ele><time>2026-05-04T15:37:36.385Z</time></trkpt><trkpt lat="44.9318998" lon="10.3914954"><ele>28.0</ele><time>2026-05-04T15:37:37.384Z</time></trkpt><trkpt lat="44.9319635" lon="10.3915427"><ele>28.0</ele><time>2026-05-04T15:37:38.385Z</time></trkpt><trkpt lat="44.9320141" lon="10.3915966"><ele>27.714285714285715</ele><time>2026-05-04T15:37:39.384Z</time></trkpt><trkpt lat="44.932069" lon="10.3916455"><ele>27.42857142857143</ele><time>2026-05-04T15:37:40.385Z</time></trkpt><trkpt lat="44.9321223" lon="10.3917076"><ele>27.142857142857142</ele><time>2026-05-04T15:37:41.385Z</time></trkpt><trkpt lat="44.9321742" lon="10.3917682"><ele>26.857142857142858</ele><time>2026-05-04T15:37:42.384Z</time></trkpt><trkpt lat="44.93223" lon="10.3918257"><ele>26.571428571428573</ele><time>2026-05-04T15:37:43.385Z</time></trkpt><trkpt lat="44.932285" lon="10.3918786"><ele>26.285714285714285</ele><time>2026-05-04T15:37:44.384Z</time></trkpt><trkpt lat="44.9323418" lon="10.3919239"><ele>26.0</ele><time>2026-05-04T15:37:45.384Z</time></trkpt><trkpt lat="44.9323996" lon="10.39197"><ele>26.0</ele><time>2026-05-04T15:37:46.384Z</time></trkpt><trkpt lat="44.9324565" lon="10.3920184"><ele>26.0</ele><time>2026-05-04T15:37:47.385Z</time></trkpt><trkpt lat="44.9325724" lon="10.392102"><ele>26.0</ele><time>2026-05-04T15:37:49.385Z</time></trkpt><trkpt lat="44.9326302" lon="10.3921374"><ele>26.0</ele><time>2026-05-04T15:37:50.385Z</time></trkpt><trkpt lat="44.9326898" lon="10.3921732"><ele>26.0</ele><time>2026-05-04T15:37:51.384Z</time></trkpt><trkpt lat="44.9328125" lon="10.3922294"><ele>25.6</ele><time>2026-05-04T15:37:53.384Z</time></trkpt><trkpt lat="44.9328764" lon="10.3922549"><ele>25.200000000000003</ele><time>2026-05-04T15:37:54.384Z</time></trkpt><trkpt lat="44.9329946" lon="10.3923091"><ele>24.799999999999997</ele><time>2026-05-04T15:37:56.384Z</time></trkpt><trkpt lat="44.9331034" lon="10.392353"><ele>24.4</ele><time>2026-05-04T15:37:58.384Z</time></trkpt><trkpt lat="44.9332286" lon="10.3923877"><ele>24.0</ele><time>2026-05-04T15:38:00.384Z</time></trkpt><trkpt lat="44.9333405" lon="10.3924265"><ele>24.166666666666668</ele><time>2026-05-04T15:38:02.384Z</time></trkpt><trkpt lat="44.9334052" lon="10.3924358"><ele>24.333333333333336</ele><time>2026-05-04T15:38:03.384Z</time></trkpt><trkpt lat="44.9335281" lon="10.3924476"><ele>24.5</ele><time>2026-05-04T15:38:05.384Z</time></trkpt><trkpt lat="44.9335923" lon="10.3924501"><ele>24.666666666666668</ele><time>2026-05-04T15:38:06.384Z</time></trkpt><trkpt lat="44.9337101" lon="10.3924398"><ele>24.833333333333336</ele><time>2026-05-04T15:38:08.385Z</time></trkpt><trkpt lat="44.9337775" lon="10.3924371"><ele>25.0</ele><time>2026-05-04T15:38:09.384Z</time></trkpt><trkpt lat="44.9339071" lon="10.3924146"><ele>25.000000000000004</ele><time>2026-05-04T15:38:11.385Z</time></trkpt><trkpt lat="44.9340312" lon="10.39241"><ele>25.0</ele><time>2026-05-04T15:38:13.384Z</time></trkpt><trkpt lat="44.9340949" lon="10.3924099"><ele>25.0</ele><time>2026-05-04T15:38:14.385Z</time></trkpt><trkpt lat="44.934163" lon="10.392401"><ele>25.0</ele><time>2026-05-04T15:38:15.385Z</time></trkpt><trkpt lat="44.9342268" lon="10.3924037"><ele>25.000000000000004</ele><time>2026-05-04T15:38:16.384Z</time></trkpt><trkpt lat="44.9343461" lon="10.3924107"><ele>25.0</ele><time>2026-05-04T15:38:18.384Z</time></trkpt><trkpt lat="44.9344127" lon="10.392425"><ele>25.28571428571429</ele><time>2026-05-04T15:38:19.384Z</time></trkpt><trkpt lat="44.9344774" lon="10.3924429"><ele>25.571428571428573</ele><time>2026-05-04T15:38:20.384Z</time></trkpt><trkpt lat="44.934589" lon="10.3924969"><ele>25.857142857142858</ele><time>2026-05-04T15:38:22.385Z</time></trkpt><trkpt lat="44.9346486" lon="10.392535"><ele>26.142857142857146</ele><time>2026-05-04T15:38:23.385Z</time></trkpt><trkpt lat="44.9347042" lon="10.3925814"><ele>26.428571428571427</ele><time>2026-05-04T15:38:24.384Z</time></trkpt><trkpt lat="44.9347586" lon="10.3926295"><ele>26.714285714285715</ele><time>2026-05-04T15:38:25.385Z</time></trkpt><trkpt lat="44.9348108" lon="10.3926846"><ele>27.0</ele><time>2026-05-04T15:38:26.384Z</time></trkpt><trkpt lat="44.934854" lon="10.3927529"><ele>27.0</ele><time>2026-05-04T15:38:27.385Z</time></trkpt><trkpt lat="44.9349216" lon="10.3928648"><ele>27.000000000000004</ele><time>2026-05-04T15:38:29.385Z</time></trkpt><trkpt lat="44.9349886" lon="10.393008"><ele>27.000000000000004</ele><time>2026-05-04T15:38:31.385Z</time></trkpt><trkpt lat="44.935033" lon="10.3931651"><ele>27.0</ele><time>2026-05-04T15:38:33.385Z</time></trkpt><trkpt lat="44.9350501" lon="10.3932525"><ele>27.0</ele><time>2026-05-04T15:38:34.384Z</time></trkpt><trkpt lat="44.9350635" lon="10.3933431"><ele>26.0</ele><time>2026-05-04T15:38:35.385Z</time></trkpt><trkpt lat="44.9350866" lon="10.3935193"><ele>25.000000000000004</ele><time>2026-05-04T15:38:37.385Z</time></trkpt><trkpt lat="44.9350982" lon="10.3936971"><ele>24.0</ele><time>2026-05-04T15:38:39.384Z</time></trkpt><trkpt lat="44.9351213" lon="10.3938659"><ele>23.0</ele><time>2026-05-04T15:38:41.384Z</time></trkpt><trkpt lat="44.9351285" lon="10.3939576"><ele>22.0</ele><time>2026-05-04T15:38:42.384Z</time></trkpt><trkpt lat="44.9351385" lon="10.3940484"><ele>22.0</ele><time>2026-05-04T15:38:43.385Z</time></trkpt><trkpt lat="44.9351469" lon="10.3942268"><ele>22.0</ele><time>2026-05-04T15:38:45.384Z</time></trkpt><trkpt lat="44.9351494" lon="10.3943193"><ele>22.0</ele><time>2026-05-04T15:38:46.384Z</time></trkpt><trkpt lat="44.9351228" lon="10.3944885"><ele>22.0</ele><time>2026-05-04T15:38:48.384Z</time></trkpt><trkpt lat="44.9350835" lon="10.3946505"><ele>22.0</ele><time>2026-05-04T15:38:50.384Z</time></trkpt><trkpt lat="44.935068" lon="10.3947372"><ele>22.142857142857142</ele><time>2026-05-04T15:38:51.385Z</time></trkpt><trkpt lat="44.9350511" lon="10.3948239"><ele>22.285714285714285</ele><time>2026-05-04T15:38:52.384Z</time></trkpt><trkpt lat="44.9350369" lon="10.3949166"><ele>22.42857142857143</ele><time>2026-05-04T15:38:53.384Z</time></trkpt><trkpt lat="44.9350281" lon="10.3950073"><ele>22.57142857142857</ele><time>2026-05-04T15:38:54.385Z</time></trkpt><trkpt lat="44.9350246" lon="10.3951814"><ele>22.71428571428571</ele><time>2026-05-04T15:38:56.384Z</time></trkpt><trkpt lat="44.9350282" lon="10.3952723"><ele>22.857142857142858</ele><time>2026-05-04T15:38:57.385Z</time></trkpt><trkpt lat="44.9350414" lon="10.3953627"><ele>23.0</ele><time>2026-05-04T15:38:58.385Z</time></trkpt><trkpt lat="44.9350638" lon="10.3955377"><ele>23.0</ele><time>2026-05-04T15:39:00.385Z</time></trkpt><trkpt lat="44.9350882" lon="10.3957106"><ele>23.0</ele><time>2026-05-04T15:39:02.385Z</time></trkpt><trkpt lat="44.9351041" lon="10.3957999"><ele>23.0</ele><time>2026-05-04T15:39:03.385Z</time></trkpt><trkpt lat="44.9351143" lon="10.3958895"><ele>23.0</ele><time>2026-05-04T15:39:04.385Z</time></trkpt><trkpt lat="44.9351228" lon="10.3959845"><ele>23.0</ele><time>2026-05-04T15:39:05.384Z</time></trkpt><trkpt lat="44.9351272" lon="10.3960758"><ele>23.0</ele><time>2026-05-04T15:39:06.384Z</time></trkpt><trkpt lat="44.9351307" lon="10.3961663"><ele>23.0</ele><time>2026-05-04T15:39:07.384Z</time></trkpt><trkpt lat="44.9351458" lon="10.396336"><ele>23.0</ele><time>2026-05-04T15:39:09.385Z</time></trkpt><trkpt lat="44.9351704" lon="10.3965096"><ele>23.0</ele><time>2026-05-04T15:39:11.384Z</time></trkpt><trkpt lat="44.9351912" lon="10.396684"><ele>23.0</ele><time>2026-05-04T15:39:13.384Z</time></trkpt><trkpt lat="44.9352203" lon="10.3968468"><ele>23.333333333333336</ele><time>2026-05-04T15:39:15.384Z</time></trkpt><trkpt lat="44.9352552" lon="10.3970072"><ele>23.666666666666668</ele><time>2026-05-04T15:39:17.384Z</time></trkpt><trkpt lat="44.9353174" lon="10.3971612"><ele>24.0</ele><time>2026-05-04T15:39:19.384Z</time></trkpt><trkpt lat="44.9353591" lon="10.3972385"><ele>24.333333333333336</ele><time>2026-05-04T15:39:20.384Z</time></trkpt><trkpt lat="44.9353982" lon="10.3973141"><ele>24.666666666666668</ele><time>2026-05-04T15:39:21.385Z</time></trkpt><trkpt lat="44.935446" lon="10.3973816"><ele>25.0</ele><time>2026-05-04T15:39:22.385Z</time></trkpt><trkpt lat="44.9355424" lon="10.3974877"><ele>25.4</ele><time>2026-05-04T15:39:24.385Z</time></trkpt><trkpt lat="44.935649" lon="10.3975646"><ele>25.8</ele><time>2026-05-04T15:39:26.384Z</time></trkpt><trkpt lat="44.9357499" lon="10.3976573"><ele>26.200000000000003</ele><time>2026-05-04T15:39:28.384Z</time></trkpt><trkpt lat="44.93585" lon="10.39775"><ele>26.6</ele><time>2026-05-04T15:39:30.385Z</time></trkpt><trkpt lat="44.9359039" lon="10.397807"><ele>27.0</ele><time>2026-05-04T15:39:31.384Z</time></trkpt><trkpt lat="44.9360021" lon="10.3979173"><ele>27.0</ele><time>2026-05-04T15:39:33.385Z</time></trkpt><trkpt lat="44.9360494" lon="10.3979867"><ele>27.0</ele><time>2026-05-04T15:39:34.385Z</time></trkpt><trkpt lat="44.9360945" lon="10.3980732"><ele>27.0</ele><time>2026-05-04T15:39:35.384Z</time></trkpt><trkpt lat="44.9361199" lon="10.3981634"><ele>27.0</ele><time>2026-05-04T15:39:36.385Z</time></trkpt><trkpt lat="44.9361467" lon="10.3982527"><ele>27.0</ele><time>2026-05-04T15:39:37.384Z</time></trkpt><trkpt lat="44.9361815" lon="10.3983483"><ele>27.0</ele><time>2026-05-04T15:39:38.385Z</time></trkpt><trkpt lat="44.9362237" lon="10.3985173"><ele>27.0</ele><time>2026-05-04T15:39:40.385Z</time></trkpt><trkpt lat="44.9362403" lon="10.398608"><ele>27.0</ele><time>2026-05-04T15:39:41.385Z</time></trkpt><trkpt lat="44.936261" lon="10.398695"><ele>27.0</ele><time>2026-05-04T15:39:42.385Z</time></trkpt><trkpt lat="44.9362879" lon="10.3987848"><ele>27.0</ele><time>2026-05-04T15:39:43.385Z</time></trkpt><trkpt lat="44.9363142" lon="10.3988724"><ele>27.0</ele><time>2026-05-04T15:39:44.385Z</time></trkpt><trkpt lat="44.9363384" lon="10.3989593"><ele>27.0</ele><time>2026-05-04T15:39:45.385Z</time></trkpt><trkpt lat="44.9363626" lon="10.3990471"><ele>27.0</ele><time>2026-05-04T15:39:46.384Z</time></trkpt><trkpt lat="44.9363875" lon="10.3991367"><ele>27.0</ele><time>2026-05-04T15:39:47.384Z</time></trkpt><trkpt lat="44.9364402" lon="10.3993052"><ele>27.0</ele><time>2026-05-04T15:39:49.385Z</time></trkpt><trkpt lat="44.9364827" lon="10.3994657"><ele>27.0</ele><time>2026-05-04T15:39:51.384Z</time></trkpt><trkpt lat="44.9365298" lon="10.3996377"><ele>27.0</ele><time>2026-05-04T15:39:53.384Z</time></trkpt><trkpt lat="44.9365814" lon="10.3997902"><ele>27.0</ele><time>2026-05-04T15:39:55.385Z</time></trkpt><trkpt lat="44.9366144" lon="10.3998693"><ele>27.0</ele><time>2026-05-04T15:39:56.384Z</time></trkpt><trkpt lat="44.9366454" lon="10.3999504"><ele>27.0</ele><time>2026-05-04T15:39:57.385Z</time></trkpt><trkpt lat="44.936671" lon="10.4000328"><ele>27.0</ele><time>2026-05-04T15:39:58.385Z</time></trkpt><trkpt lat="44.9367056" lon="10.4001087"><ele>27.0</ele><time>2026-05-04T15:39:59.385Z</time></trkpt><trkpt lat="44.9367405" lon="10.4001835"><ele>27.0</ele><time>2026-05-04T15:40:00.384Z</time></trkpt><trkpt lat="44.9367738" lon="10.4002638"><ele>27.0</ele><time>2026-05-04T15:40:01.384Z</time></trkpt><trkpt lat="44.9368265" lon="10.4004186"><ele>26.666666666666668</ele><time>2026-05-04T15:40:03.385Z</time></trkpt><trkpt lat="44.9368475" lon="10.4005092"><ele>26.333333333333336</ele><time>2026-05-04T15:40:04.385Z</time></trkpt><trkpt lat="44.9368655" lon="10.4005969"><ele>26.0</ele><time>2026-05-04T15:40:05.385Z</time></trkpt><trkpt lat="44.9368825" lon="10.4006849"><ele>25.666666666666668</ele><time>2026-05-04T15:40:06.384Z</time></trkpt><trkpt lat="44.9368962" lon="10.4007722"><ele>25.333333333333336</ele><time>2026-05-04T15:40:07.384Z</time></trkpt><trkpt lat="44.9369143" lon="10.4009506"><ele>25.0</ele><time>2026-05-04T15:40:09.385Z</time></trkpt><trkpt lat="44.9369272" lon="10.4010446"><ele>25.000000000000004</ele><time>2026-05-04T15:40:10.385Z</time></trkpt><trkpt lat="44.9369362" lon="10.4011416"><ele>25.0</ele><time>2026-05-04T15:40:11.385Z</time></trkpt><trkpt lat="44.9369473" lon="10.4012323"><ele>25.0</ele><time>2026-05-04T15:40:12.384Z</time></trkpt><trkpt lat="44.9369583" lon="10.4013221"><ele>25.0</ele><time>2026-05-04T15:40:13.384Z</time></trkpt><trkpt lat="44.9369673" lon="10.4014139"><ele>25.000000000000004</ele><time>2026-05-04T15:40:14.384Z</time></trkpt><trkpt lat="44.9369734" lon="10.401504"><ele>25.0</ele><time>2026-05-04T15:40:15.385Z</time></trkpt><trkpt lat="44.9369685" lon="10.4016809"><ele>25.000000000000004</ele><time>2026-05-04T15:40:17.385Z</time></trkpt><trkpt lat="44.9369407" lon="10.4018495"><ele>25.0</ele><time>2026-05-04T15:40:19.385Z</time></trkpt><trkpt lat="44.9369252" lon="10.4019357"><ele>25.0</ele><time>2026-05-04T15:40:20.384Z</time></trkpt><trkpt lat="44.9369128" lon="10.4020292"><ele>25.0</ele><time>2026-05-04T15:40:21.384Z</time></trkpt><trkpt lat="44.9368845" lon="10.4022057"><ele>25.000000000000004</ele><time>2026-05-04T15:40:23.385Z</time></trkpt><trkpt lat="44.9368704" lon="10.4022962"><ele>25.0</ele><time>2026-05-04T15:40:24.385Z</time></trkpt><trkpt lat="44.9368538" lon="10.402387"><ele>25.166666666666668</ele><time>2026-05-04T15:40:25.384Z</time></trkpt><trkpt lat="44.9368338" lon="10.402478"><ele>25.333333333333336</ele><time>2026-05-04T15:40:26.384Z</time></trkpt><trkpt lat="44.9368072" lon="10.402651"><ele>25.5</ele><time>2026-05-04T15:40:28.384Z</time></trkpt><trkpt lat="44.9367948" lon="10.4027426"><ele>25.666666666666664</ele><time>2026-05-04T15:40:29.384Z</time></trkpt><trkpt lat="44.9367851" lon="10.4028344"><ele>25.833333333333332</ele><time>2026-05-04T15:40:30.385Z</time></trkpt><trkpt lat="44.9367773" lon="10.4029234"><ele>26.0</ele><time>2026-05-04T15:40:31.384Z</time></trkpt><trkpt lat="44.9367627" lon="10.4030129"><ele>25.999999999999996</ele><time>2026-05-04T15:40:32.385Z</time></trkpt><trkpt lat="44.9367386" lon="10.4030998"><ele>26.0</ele><time>2026-05-04T15:40:33.385Z</time></trkpt><trkpt lat="44.9367267" lon="10.4031973"><ele>26.0</ele><time>2026-05-04T15:40:34.385Z</time></trkpt><trkpt lat="44.9367057" lon="10.4032812"><ele>26.0</ele><time>2026-05-04T15:40:35.384Z</time></trkpt><trkpt lat="44.9366852" lon="10.4033708"><ele>25.999999999999996</ele><time>2026-05-04T15:40:36.385Z</time></trkpt><trkpt lat="44.9366591" lon="10.403545"><ele>26.0</ele><time>2026-05-04T15:40:38.384Z</time></trkpt><trkpt lat="44.9366397" lon="10.4036369"><ele>26.0</ele><time>2026-05-04T15:40:39.384Z</time></trkpt><trkpt lat="44.9366199" lon="10.4037264"><ele>26.0</ele><time>2026-05-04T15:40:40.384Z</time></trkpt><trkpt lat="44.9365873" lon="10.4038904"><ele>26.0</ele><time>2026-05-04T15:40:42.384Z</time></trkpt><trkpt lat="44.936552" lon="10.4040543"><ele>26.0</ele><time>2026-05-04T15:40:44.385Z</time></trkpt><trkpt lat="44.9365174" lon="10.4042288"><ele>26.0</ele><time>2026-05-04T15:40:46.385Z</time></trkpt><trkpt lat="44.9364943" lon="10.4043221"><ele>25.833333333333332</ele><time>2026-05-04T15:40:47.385Z</time></trkpt><trkpt lat="44.9364715" lon="10.4044153"><ele>25.666666666666664</ele><time>2026-05-04T15:40:48.384Z</time></trkpt><trkpt lat="44.9364526" lon="10.4045072"><ele>25.5</ele><time>2026-05-04T15:40:49.384Z</time></trkpt><trkpt lat="44.9364353" lon="10.4045948"><ele>25.333333333333336</ele><time>2026-05-04T15:40:50.384Z</time></trkpt><trkpt lat="44.9364088" lon="10.4046809"><ele>25.166666666666668</ele><time>2026-05-04T15:40:51.384Z</time></trkpt><trkpt lat="44.9363639" lon="10.4048413"><ele>25.0</ele><time>2026-05-04T15:40:53.385Z</time></trkpt><trkpt lat="44.9363156" lon="10.4050119"><ele>25.0</ele><time>2026-05-04T15:40:55.384Z</time></trkpt><trkpt lat="44.9362626" lon="10.4051754"><ele>25.0</ele><time>2026-05-04T15:40:57.384Z</time></trkpt><trkpt lat="44.9362143" lon="10.4053441"><ele>25.0</ele><time>2026-05-04T15:40:59.384Z</time></trkpt><trkpt lat="44.936186" lon="10.4054299"><ele>25.0</ele><time>2026-05-04T15:41:00.384Z</time></trkpt><trkpt lat="44.9361343" lon="10.4055964"><ele>25.000000000000004</ele><time>2026-05-04T15:41:02.385Z</time></trkpt><trkpt lat="44.9361091" lon="10.4056831"><ele>25.0</ele><time>2026-05-04T15:41:03.385Z</time></trkpt><trkpt lat="44.9360614" lon="10.405849"><ele>25.0</ele><time>2026-05-04T15:41:05.385Z</time></trkpt><trkpt lat="44.9360313" lon="10.405934"><ele>25.0</ele><time>2026-05-04T15:41:06.385Z</time></trkpt><trkpt lat="44.9360084" lon="10.4060187"><ele>25.000000000000004</ele><time>2026-05-04T15:41:07.384Z</time></trkpt><trkpt lat="44.93598" lon="10.4061036"><ele>25.0</ele><time>2026-05-04T15:41:08.385Z</time></trkpt><trkpt lat="44.9359464" lon="10.4061832"><ele>25.000000000000004</ele><time>2026-05-04T15:41:09.384Z</time></trkpt><trkpt lat="44.935913" lon="10.406271"><ele>25.0</ele><time>2026-05-04T15:41:10.385Z</time></trkpt><trkpt lat="44.9358872" lon="10.4063577"><ele>25.0</ele><time>2026-05-04T15:41:11.385Z</time></trkpt><trkpt lat="44.9358658" lon="10.4064416"><ele>25.0</ele><time>2026-05-04T15:41:12.384Z</time></trkpt><trkpt lat="44.93582" lon="10.4066046"><ele>25.000000000000004</ele><time>2026-05-04T15:41:14.384Z</time></trkpt><trkpt lat="44.9357961" lon="10.4066945"><ele>25.0</ele><time>2026-05-04T15:41:15.385Z</time></trkpt><trkpt lat="44.9357712" lon="10.4067765"><ele>24.8</ele><time>2026-05-04T15:41:16.384Z</time></trkpt><trkpt lat="44.9357501" lon="10.406863"><ele>24.6</ele><time>2026-05-04T15:41:17.384Z</time></trkpt><trkpt lat="44.9357432" lon="10.406955"><ele>24.4</ele><time>2026-05-04T15:41:18.384Z</time></trkpt><trkpt lat="44.9357296" lon="10.4070483"><ele>24.2</ele><time>2026-05-04T15:41:19.384Z</time></trkpt><trkpt lat="44.9357087" lon="10.4072237"><ele>24.0</ele><time>2026-05-04T15:41:21.384Z</time></trkpt><trkpt lat="44.9356896" lon="10.4074031"><ele>24.0</ele><time>2026-05-04T15:41:23.385Z</time></trkpt><trkpt lat="44.9356639" lon="10.4075722"><ele>24.0</ele><time>2026-05-04T15:41:25.385Z</time></trkpt><trkpt lat="44.9356269" lon="10.4077413"><ele>24.0</ele><time>2026-05-04T15:41:27.385Z</time></trkpt><trkpt lat="44.935618" lon="10.4078295"><ele>24.0</ele><time>2026-05-04T15:41:28.385Z</time></trkpt><trkpt lat="44.9355912" lon="10.4080075"><ele>24.0</ele><time>2026-05-04T15:41:30.384Z</time></trkpt><trkpt lat="44.9355889" lon="10.4080995"><ele>24.0</ele><time>2026-05-04T15:41:31.385Z</time></trkpt><trkpt lat="44.9355824" lon="10.4082775"><ele>24.0</ele><time>2026-05-04T15:41:33.385Z</time></trkpt><trkpt lat="44.9355749" lon="10.4083688"><ele>24.0</ele><time>2026-05-04T15:41:34.384Z</time></trkpt><trkpt lat="44.9355752" lon="10.4084604"><ele>24.0</ele><time>2026-05-04T15:41:35.385Z</time></trkpt><trkpt lat="44.9355914" lon="10.4086368"><ele>24.0</ele><time>2026-05-04T15:41:37.384Z</time></trkpt><trkpt lat="44.9356105" lon="10.4088113"><ele>24.0</ele><time>2026-05-04T15:41:39.385Z</time></trkpt><trkpt lat="44.935624" lon="10.4088985"><ele>24.0</ele><time>2026-05-04T15:41:40.385Z</time></trkpt><trkpt lat="44.9356748" lon="10.4090531"><ele>24.0</ele><time>2026-05-04T15:41:42.385Z</time></trkpt><trkpt lat="44.9357318" lon="10.409196"><ele>24.0</ele><time>2026-05-04T15:41:44.385Z</time></trkpt><trkpt lat="44.9357986" lon="10.409337"><ele>24.0</ele><time>2026-05-04T15:41:46.384Z</time></trkpt><trkpt lat="44.9358718" lon="10.4094801"><ele>24.2</ele><time>2026-05-04T15:41:48.385Z</time></trkpt><trkpt lat="44.9359414" lon="10.4096041"><ele>24.4</ele><time>2026-05-04T15:41:50.385Z</time></trkpt><trkpt lat="44.9360365" lon="10.4097233"><ele>24.6</ele><time>2026-05-04T15:41:52.384Z</time></trkpt><trkpt lat="44.9361348" lon="10.4098243"><ele>24.8</ele><time>2026-05-04T15:41:54.384Z</time></trkpt><trkpt lat="44.9361887" lon="10.4098709"><ele>25.0</ele><time>2026-05-04T15:41:55.385Z</time></trkpt><trkpt lat="44.9362466" lon="10.4099065"><ele>25.000000000000004</ele><time>2026-05-04T15:41:56.385Z</time></trkpt><trkpt lat="44.9363045" lon="10.4099429"><ele>25.0</ele><time>2026-05-04T15:41:57.385Z</time></trkpt><trkpt lat="44.9364098" lon="10.4100184"><ele>25.0</ele><time>2026-05-04T15:41:59.384Z</time></trkpt><trkpt lat="44.9365232" lon="10.410098"><ele>25.0</ele><time>2026-05-04T15:42:01.385Z</time></trkpt><trkpt lat="44.9365837" lon="10.4101511"><ele>25.000000000000004</ele><time>2026-05-04T15:42:02.384Z</time></trkpt><trkpt lat="44.9366391" lon="10.4102048"><ele>25.0</ele><time>2026-05-04T15:42:03.384Z</time></trkpt><trkpt lat="44.9366946" lon="10.4102667"><ele>25.000000000000004</ele><time>2026-05-04T15:42:04.384Z</time></trkpt><trkpt lat="44.9367494" lon="10.4103293"><ele>25.0</ele><time>2026-05-04T15:42:05.385Z</time></trkpt><trkpt lat="44.9367962" lon="10.4104047"><ele>25.0</ele><time>2026-05-04T15:42:06.385Z</time></trkpt><trkpt lat="44.9368404" lon="10.4104718"><ele>25.0</ele><time>2026-05-04T15:42:07.384Z</time></trkpt><trkpt lat="44.9368889" lon="10.4105342"><ele>25.000000000000004</ele><time>2026-05-04T15:42:08.385Z</time></trkpt><trkpt lat="44.9369314" lon="10.4106069"><ele>25.0</ele><time>2026-05-04T15:42:09.385Z</time></trkpt><trkpt lat="44.9370001" lon="10.4107519"><ele>25.0</ele><time>2026-05-04T15:42:11.384Z</time></trkpt><trkpt lat="44.9370341" lon="10.410828"><ele>25.0</ele><time>2026-05-04T15:42:12.385Z</time></trkpt><trkpt lat="44.937076" lon="10.4109806"><ele>25.0</ele><time>2026-05-04T15:42:14.385Z</time></trkpt><trkpt lat="44.937093" lon="10.4111313"><ele>25.0</ele><time>2026-05-04T15:42:16.385Z</time></trkpt><trkpt lat="44.9371197" lon="10.4112652"><ele>25.0</ele><time>2026-05-04T15:42:18.384Z</time></trkpt><trkpt lat="44.9371325" lon="10.4114009"><ele>25.0</ele><time>2026-05-04T15:42:20.384Z</time></trkpt><trkpt lat="44.9371625" lon="10.4115389"><ele>25.0</ele><time>2026-05-04T15:42:22.384Z</time></trkpt><trkpt lat="44.9371889" lon="10.4116792"><ele>25.0</ele><time>2026-05-04T15:42:24.384Z</time></trkpt><trkpt lat="44.9372236" lon="10.4118373"><ele>25.0</ele><time>2026-05-04T15:42:26.384Z</time></trkpt><trkpt lat="44.9372526" lon="10.4119939"><ele>25.0</ele><time>2026-05-04T15:42:28.384Z</time></trkpt><trkpt lat="44.9372808" lon="10.41214"><ele>24.8</ele><time>2026-05-04T15:42:30.385Z</time></trkpt><trkpt lat="44.9373012" lon="10.4123041"><ele>24.6</ele><time>2026-05-04T15:42:32.385Z</time></trkpt><trkpt lat="44.9373186" lon="10.4124729"><ele>24.4</ele><time>2026-05-04T15:42:34.384Z</time></trkpt><trkpt lat="44.9373275" lon="10.4125622"><ele>24.2</ele><time>2026-05-04T15:42:35.385Z</time></trkpt><trkpt lat="44.9373474" lon="10.4127245"><ele>24.0</ele><time>2026-05-04T15:42:37.384Z</time></trkpt><trkpt lat="44.937366" lon="10.4128906"><ele>24.0</ele><time>2026-05-04T15:42:39.384Z</time></trkpt><trkpt lat="44.937384" lon="10.4130645"><ele>24.0</ele><time>2026-05-04T15:42:41.385Z</time></trkpt><trkpt lat="44.9373999" lon="10.4132316"><ele>24.0</ele><time>2026-05-04T15:42:43.385Z</time></trkpt><trkpt lat="44.9374206" lon="10.4134031"><ele>24.0</ele><time>2026-05-04T15:42:45.385Z</time></trkpt><trkpt lat="44.9374332" lon="10.4135754"><ele>24.0</ele><time>2026-05-04T15:42:47.384Z</time></trkpt><trkpt lat="44.9374531" lon="10.4136639"><ele>24.0</ele><time>2026-05-04T15:42:48.384Z</time></trkpt><trkpt lat="44.9374827" lon="10.4138398"><ele>24.0</ele><time>2026-05-04T15:42:50.384Z</time></trkpt><trkpt lat="44.9375164" lon="10.4140098"><ele>24.0</ele><time>2026-05-04T15:42:52.385Z</time></trkpt><trkpt lat="44.9375446" lon="10.4141687"><ele>24.0</ele><time>2026-05-04T15:42:54.384Z</time></trkpt><trkpt lat="44.937557" lon="10.4142562"><ele>24.333333333333332</ele><time>2026-05-04T15:42:55.385Z</time></trkpt><trkpt lat="44.9375716" lon="10.4144273"><ele>24.666666666666664</ele><time>2026-05-04T15:42:57.385Z</time></trkpt><trkpt lat="44.9375728" lon="10.414517"><ele>25.0</ele><time>2026-05-04T15:42:58.385Z</time></trkpt><trkpt lat="44.937571" lon="10.4146064"><ele>25.333333333333332</ele><time>2026-05-04T15:42:59.385Z</time></trkpt><trkpt lat="44.9375699" lon="10.4146961"><ele>25.666666666666664</ele><time>2026-05-04T15:43:00.385Z</time></trkpt><trkpt lat="44.9375651" lon="10.4148727"><ele>26.0</ele><time>2026-05-04T15:43:02.385Z</time></trkpt><trkpt lat="44.9375595" lon="10.4149672"><ele>26.0</ele><time>2026-05-04T15:43:03.385Z</time></trkpt><trkpt lat="44.9375538" lon="10.4150564"><ele>26.0</ele><time>2026-05-04T15:43:04.384Z</time></trkpt><trkpt lat="44.9375452" lon="10.4152151"><ele>26.0</ele><time>2026-05-04T15:43:06.385Z</time></trkpt><trkpt lat="44.937536" lon="10.415374"><ele>26.0</ele><time>2026-05-04T15:43:08.385Z</time></trkpt><trkpt lat="44.9375335" lon="10.4155374"><ele>26.0</ele><time>2026-05-04T15:43:10.385Z</time></trkpt><trkpt lat="44.9375344" lon="10.4157057"><ele>26.0</ele><time>2026-05-04T15:43:12.384Z</time></trkpt><trkpt lat="44.9375334" lon="10.4158592"><ele>26.0</ele><time>2026-05-04T15:43:14.384Z</time></trkpt><trkpt lat="44.9375244" lon="10.4160194"><ele>26.0</ele><time>2026-05-04T15:43:16.384Z</time></trkpt><trkpt lat="44.9375179" lon="10.4161791"><ele>26.0</ele><time>2026-05-04T15:43:18.385Z</time></trkpt><trkpt lat="44.9375122" lon="10.4163496"><ele>25.8</ele><time>2026-05-04T15:43:20.385Z</time></trkpt><trkpt lat="44.9374918" lon="10.416517"><ele>25.6</ele><time>2026-05-04T15:43:22.384Z</time></trkpt><trkpt lat="44.9374729" lon="10.4166785"><ele>25.4</ele><time>2026-05-04T15:43:24.385Z</time></trkpt><trkpt lat="44.9374387" lon="10.4168403"><ele>25.2</ele><time>2026-05-04T15:43:26.384Z</time></trkpt><trkpt lat="44.9374162" lon="10.4169234"><ele>25.0</ele><time>2026-05-04T15:43:27.384Z</time></trkpt><trkpt lat="44.9373646" lon="10.41708"><ele>25.4</ele><time>2026-05-04T15:43:29.384Z</time></trkpt><trkpt lat="44.9373225" lon="10.417225"><ele>25.8</ele><time>2026-05-04T15:43:31.384Z</time></trkpt><trkpt lat="44.9372924" lon="10.417358"><ele>26.200000000000003</ele><time>2026-05-04T15:43:33.384Z</time></trkpt><trkpt lat="44.9372425" lon="10.4174747"><ele>26.6</ele><time>2026-05-04T15:43:35.384Z</time></trkpt><trkpt lat="44.937199" lon="10.4175948"><ele>27.0</ele><time>2026-05-04T15:43:37.384Z</time></trkpt><trkpt lat="44.9371565" lon="10.417721"><ele>27.0</ele><time>2026-05-04T15:43:39.384Z</time></trkpt><trkpt lat="44.9371056" lon="10.417846"><ele>27.000000000000004</ele><time>2026-05-04T15:43:41.384Z</time></trkpt><trkpt lat="44.9370453" lon="10.4179831"><ele>27.000000000000004</ele><time>2026-05-04T15:43:43.385Z</time></trkpt><trkpt lat="44.9369918" lon="10.4181281"><ele>27.0</ele><time>2026-05-04T15:43:45.385Z</time></trkpt><trkpt lat="44.9369351" lon="10.4182723"><ele>27.0</ele><time>2026-05-04T15:43:47.385Z</time></trkpt><trkpt lat="44.9368827" lon="10.418432"><ele>27.0</ele><time>2026-05-04T15:43:49.384Z</time></trkpt><trkpt lat="44.9368267" lon="10.4185749"><ele>27.000000000000004</ele><time>2026-05-04T15:43:51.384Z</time></trkpt><trkpt lat="44.9367896" lon="10.4186468"><ele>27.000000000000004</ele><time>2026-05-04T15:43:52.385Z</time></trkpt><trkpt lat="44.9367379" lon="10.4188025"><ele>27.0</ele><time>2026-05-04T15:43:54.384Z</time></trkpt><trkpt lat="44.9366817" lon="10.4189674"><ele>27.0</ele><time>2026-05-04T15:43:56.384Z</time></trkpt><trkpt lat="44.9366454" lon="10.4190459"><ele>27.0</ele><time>2026-05-04T15:43:57.384Z</time></trkpt><trkpt lat="44.9365805" lon="10.4192048"><ele>27.000000000000004</ele><time>2026-05-04T15:43:59.385Z</time></trkpt><trkpt lat="44.9365507" lon="10.4192872"><ele>27.000000000000004</ele><time>2026-05-04T15:44:00.384Z</time></trkpt><trkpt lat="44.9365209" lon="10.4193719"><ele>27.0</ele><time>2026-05-04T15:44:01.385Z</time></trkpt><trkpt lat="44.9364892" lon="10.4194572"><ele>27.0</ele><time>2026-05-04T15:44:02.384Z</time></trkpt><trkpt lat="44.9364328" lon="10.4196208"><ele>26.714285714285715</ele><time>2026-05-04T15:44:04.384Z</time></trkpt><trkpt lat="44.9363901" lon="10.4197029"><ele>26.428571428571427</ele><time>2026-05-04T15:44:05.385Z</time></trkpt><trkpt lat="44.9363549" lon="10.4197795"><ele>26.142857142857146</ele><time>2026-05-04T15:44:06.384Z</time></trkpt><trkpt lat="44.9363223" lon="10.4198579"><ele>25.857142857142858</ele><time>2026-05-04T15:44:07.385Z</time></trkpt><trkpt lat="44.9362775" lon="10.4199318"><ele>25.571428571428573</ele><time>2026-05-04T15:44:08.385Z</time></trkpt><trkpt lat="44.9362376" lon="10.4200064"><ele>25.28571428571429</ele><time>2026-05-04T15:44:09.385Z</time></trkpt><trkpt lat="44.9362062" lon="10.4200839"><ele>25.0</ele><time>2026-05-04T15:44:10.385Z</time></trkpt><trkpt lat="44.9361684" lon="10.4201619"><ele>25.0</ele><time>2026-05-04T15:44:11.384Z</time></trkpt><trkpt lat="44.936133" lon="10.4202417"><ele>25.0</ele><time>2026-05-04T15:44:12.384Z</time></trkpt><trkpt lat="44.9360957" lon="10.4203135"><ele>25.0</ele><time>2026-05-04T15:44:13.385Z</time></trkpt><trkpt lat="44.936044" lon="10.4204641"><ele>25.0</ele><time>2026-05-04T15:44:15.384Z</time></trkpt><trkpt lat="44.9360037" lon="10.420632"><ele>25.0</ele><time>2026-05-04T15:44:17.384Z</time></trkpt><trkpt lat="44.9359609" lon="10.4207894"><ele>25.166666666666668</ele><time>2026-05-04T15:44:19.385Z</time></trkpt><trkpt lat="44.9359387" lon="10.4208732"><ele>25.333333333333336</ele><time>2026-05-04T15:44:20.385Z</time></trkpt><trkpt lat="44.9358958" lon="10.4210319"><ele>25.5</ele><time>2026-05-04T15:44:22.384Z</time></trkpt><trkpt lat="44.9358724" lon="10.421119"><ele>25.666666666666664</ele><time>2026-05-04T15:44:23.385Z</time></trkpt><trkpt lat="44.9358454" lon="10.4212064"><ele>25.833333333333332</ele><time>2026-05-04T15:44:24.384Z</time></trkpt><trkpt lat="44.9357991" lon="10.4213597"><ele>26.0</ele><time>2026-05-04T15:44:26.385Z</time></trkpt><trkpt lat="44.9357659" lon="10.4214479"><ele>25.4</ele><time>2026-05-04T15:44:27.384Z</time></trkpt><trkpt lat="44.9357223" lon="10.4215957"><ele>24.8</ele><time>2026-05-04T15:44:29.385Z</time></trkpt><trkpt lat="44.9356671" lon="10.4217577"><ele>24.2</ele><time>2026-05-04T15:44:31.385Z</time></trkpt><trkpt lat="44.9356423" lon="10.4218467"><ele>23.599999999999998</ele><time>2026-05-04T15:44:32.385Z</time></trkpt><trkpt lat="44.9356168" lon="10.4219394"><ele>23.0</ele><time>2026-05-04T15:44:33.384Z</time></trkpt><trkpt lat="44.9355732" lon="10.4220986"><ele>23.0</ele><time>2026-05-04T15:44:35.385Z</time></trkpt><trkpt lat="44.9355571" lon="10.4221942"><ele>23.0</ele><time>2026-05-04T15:44:36.385Z</time></trkpt><trkpt lat="44.935536" lon="10.4222804"><ele>23.0</ele><time>2026-05-04T15:44:37.384Z</time></trkpt><trkpt lat="44.935487" lon="10.4224388"><ele>23.0</ele><time>2026-05-04T15:44:39.384Z</time></trkpt><trkpt lat="44.9354624" lon="10.422525"><ele>23.0</ele><time>2026-05-04T15:44:40.385Z</time></trkpt><trkpt lat="44.9354345" lon="10.4226089"><ele>23.0</ele><time>2026-05-04T15:44:41.385Z</time></trkpt><trkpt lat="44.9354093" lon="10.4226962"><ele>23.0</ele><time>2026-05-04T15:44:42.385Z</time></trkpt><trkpt lat="44.9353762" lon="10.4227821"><ele>23.0</ele><time>2026-05-04T15:44:43.385Z</time></trkpt><trkpt lat="44.9353515" lon="10.422864"><ele>23.0</ele><time>2026-05-04T15:44:44.384Z</time></trkpt><trkpt lat="44.93533" lon="10.4229563"><ele>23.0</ele><time>2026-05-04T15:44:45.384Z</time></trkpt><trkpt lat="44.9352821" lon="10.4231245"><ele>23.0</ele><time>2026-05-04T15:44:47.384Z</time></trkpt><trkpt lat="44.9352225" lon="10.4232783"><ele>23.166666666666668</ele><time>2026-05-04T15:44:49.385Z</time></trkpt><trkpt lat="44.9351774" lon="10.4234347"><ele>23.333333333333336</ele><time>2026-05-04T15:44:51.385Z</time></trkpt><trkpt lat="44.9351512" lon="10.4235187"><ele>23.5</ele><time>2026-05-04T15:44:52.385Z</time></trkpt><trkpt lat="44.9351267" lon="10.4236071"><ele>23.666666666666668</ele><time>2026-05-04T15:44:53.384Z</time></trkpt><trkpt lat="44.9351017" lon="10.42369"><ele>23.833333333333332</ele><time>2026-05-04T15:44:54.384Z</time></trkpt><trkpt lat="44.9350439" lon="10.423852"><ele>24.0</ele><time>2026-05-04T15:44:56.385Z</time></trkpt><trkpt lat="44.9350331" lon="10.4239422"><ele>24.428571428571427</ele><time>2026-05-04T15:44:57.384Z</time></trkpt><trkpt lat="44.9350158" lon="10.42404"><ele>24.857142857142858</ele><time>2026-05-04T15:44:58.384Z</time></trkpt><trkpt lat="44.9350028" lon="10.4241305"><ele>25.285714285714285</ele><time>2026-05-04T15:44:59.385Z</time></trkpt><trkpt lat="44.9349933" lon="10.424222"><ele>25.714285714285715</ele><time>2026-05-04T15:45:00.384Z</time></trkpt><trkpt lat="44.9349785" lon="10.4243141"><ele>26.142857142857142</ele><time>2026-05-04T15:45:01.385Z</time></trkpt><trkpt lat="44.9349594" lon="10.4244037"><ele>26.57142857142857</ele><time>2026-05-04T15:45:02.384Z</time></trkpt><trkpt lat="44.9349253" lon="10.4244805"><ele>27.0</ele><time>2026-05-04T15:45:03.385Z</time></trkpt><trkpt lat="44.9349041" lon="10.4245652"><ele>27.0</ele><time>2026-05-04T15:45:04.385Z</time></trkpt><trkpt lat="44.9348929" lon="10.4246529"><ele>27.0</ele><time>2026-05-04T15:45:05.385Z</time></trkpt><trkpt lat="44.9348835" lon="10.4247481"><ele>27.0</ele><time>2026-05-04T15:45:06.385Z</time></trkpt><trkpt lat="44.9348668" lon="10.4248363"><ele>27.0</ele><time>2026-05-04T15:45:07.384Z</time></trkpt><trkpt lat="44.9348542" lon="10.4249275"><ele>27.0</ele><time>2026-05-04T15:45:08.385Z</time></trkpt><trkpt lat="44.9348241" lon="10.4250971"><ele>27.0</ele><time>2026-05-04T15:45:10.384Z</time></trkpt><trkpt lat="44.9348044" lon="10.4251817"><ele>27.0</ele><time>2026-05-04T15:45:11.385Z</time></trkpt><trkpt lat="44.9347751" lon="10.4253465"><ele>26.6</ele><time>2026-05-04T15:45:13.385Z</time></trkpt><trkpt lat="44.9347573" lon="10.4254898"><ele>26.200000000000003</ele><time>2026-05-04T15:45:15.384Z</time></trkpt><trkpt lat="44.9347234" lon="10.4256279"><ele>25.8</ele><time>2026-05-04T15:45:17.384Z</time></trkpt><trkpt lat="44.9346996" lon="10.4257751"><ele>25.4</ele><time>2026-05-04T15:45:19.384Z</time></trkpt><trkpt lat="44.9346763" lon="10.4259244"><ele>25.0</ele><time>2026-05-04T15:45:21.385Z</time></trkpt><trkpt lat="44.9346526" lon="10.4260822"><ele>25.0</ele><time>2026-05-04T15:45:23.384Z</time></trkpt><trkpt lat="44.9346219" lon="10.4262144"><ele>25.0</ele><time>2026-05-04T15:45:25.384Z</time></trkpt><trkpt lat="44.934551" lon="10.4262939"><ele>25.0</ele><time>2026-05-04T15:45:27.384Z</time></trkpt><trkpt lat="44.9344571" lon="10.426316"><ele>25.0</ele><time>2026-05-04T15:45:29.385Z</time></trkpt><trkpt lat="44.9343544" lon="10.4263342"><ele>25.0</ele><time>2026-05-04T15:45:31.385Z</time></trkpt><trkpt lat="44.9342408" lon="10.4263418"><ele>25.2</ele><time>2026-05-04T15:45:33.385Z</time></trkpt><trkpt lat="44.9341313" lon="10.4263627"><ele>25.4</ele><time>2026-05-04T15:45:35.384Z</time></trkpt><trkpt lat="44.9340109" lon="10.4263848"><ele>25.6</ele><time>2026-05-04T15:45:37.384Z</time></trkpt><trkpt lat="44.9339485" lon="10.4263995"><ele>25.8</ele><time>2026-05-04T15:45:38.385Z</time></trkpt><trkpt lat="44.9338832" lon="10.426406"><ele>26.0</ele><time>2026-05-04T15:45:39.385Z</time></trkpt><trkpt lat="44.9337622" lon="10.4264282"><ele>26.0</ele><time>2026-05-04T15:45:41.384Z</time></trkpt><trkpt lat="44.9336469" lon="10.4264595"><ele>26.0</ele><time>2026-05-04T15:45:43.384Z</time></trkpt><trkpt lat="44.9335852" lon="10.4264836"><ele>26.0</ele><time>2026-05-04T15:45:44.384Z</time></trkpt><trkpt lat="44.9335179" lon="10.4265101"><ele>26.0</ele><time>2026-05-04T15:45:45.385Z</time></trkpt><trkpt lat="44.9334036" lon="10.4265638"><ele>26.0</ele><time>2026-05-04T15:45:47.385Z</time></trkpt><trkpt lat="44.9332908" lon="10.4266118"><ele>25.6</ele><time>2026-05-04T15:45:49.384Z</time></trkpt><trkpt lat="44.9331988" lon="10.426684"><ele>25.200000000000003</ele><time>2026-05-04T15:45:51.384Z</time></trkpt><trkpt lat="44.9331067" lon="10.4267721"><ele>24.799999999999997</ele><time>2026-05-04T15:45:53.385Z</time></trkpt><trkpt lat="44.9330143" lon="10.4268699"><ele>24.4</ele><time>2026-05-04T15:45:55.384Z</time></trkpt><trkpt lat="44.9329354" lon="10.426991"><ele>24.0</ele><time>2026-05-04T15:45:57.384Z</time></trkpt><trkpt lat="44.9328573" lon="10.4271233"><ele>23.75</ele><time>2026-05-04T15:45:59.385Z</time></trkpt><trkpt lat="44.9327858" lon="10.4272516"><ele>23.5</ele><time>2026-05-04T15:46:01.385Z</time></trkpt><trkpt lat="44.9327151" lon="10.4273755"><ele>23.25</ele><time>2026-05-04T15:46:03.385Z</time></trkpt><trkpt lat="44.9326489" lon="10.4275137"><ele>23.0</ele><time>2026-05-04T15:46:05.385Z</time></trkpt><trkpt lat="44.9325769" lon="10.4276418"><ele>23.4</ele><time>2026-05-04T15:46:07.384Z</time></trkpt><trkpt lat="44.9324984" lon="10.4277697"><ele>23.799999999999997</ele><time>2026-05-04T15:46:09.384Z</time></trkpt><trkpt lat="44.9324316" lon="10.4278959"><ele>24.2</ele><time>2026-05-04T15:46:11.384Z</time></trkpt><trkpt lat="44.932393" lon="10.4279667"><ele>24.6</ele><time>2026-05-04T15:46:12.385Z</time></trkpt><trkpt lat="44.9323236" lon="10.4281072"><ele>25.0</ele><time>2026-05-04T15:46:14.384Z</time></trkpt><trkpt lat="44.9322489" lon="10.4282339"><ele>25.2</ele><time>2026-05-04T15:46:16.384Z</time></trkpt><trkpt lat="44.9321785" lon="10.4283684"><ele>25.4</ele><time>2026-05-04T15:46:18.384Z</time></trkpt><trkpt lat="44.9321423" lon="10.4284417"><ele>25.6</ele><time>2026-05-04T15:46:19.385Z</time></trkpt><trkpt lat="44.9320872" lon="10.4285807"><ele>25.8</ele><time>2026-05-04T15:46:21.384Z</time></trkpt><trkpt lat="44.9320463" lon="10.4287424"><ele>26.0</ele><time>2026-05-04T15:46:23.385Z</time></trkpt><trkpt lat="44.9320198" lon="10.4288915"><ele>26.25</ele><time>2026-05-04T15:46:25.385Z</time></trkpt><trkpt lat="44.9319969" lon="10.4290507"><ele>26.5</ele><time>2026-05-04T15:46:27.384Z</time></trkpt><trkpt lat="44.9319871" lon="10.4292191"><ele>26.75</ele><time>2026-05-04T15:46:29.385Z</time></trkpt><trkpt lat="44.9319722" lon="10.4293806"><ele>27.0</ele><time>2026-05-04T15:46:31.385Z</time></trkpt><trkpt lat="44.9319621" lon="10.4295442"><ele>26.5</ele><time>2026-05-04T15:46:33.384Z</time></trkpt><trkpt lat="44.9319405" lon="10.4297025"><ele>26.0</ele><time>2026-05-04T15:46:35.385Z</time></trkpt><trkpt lat="44.9319273" lon="10.4298369"><ele>25.5</ele><time>2026-05-04T15:46:37.385Z</time></trkpt><trkpt lat="44.9319263" lon="10.4299574"><ele>25.0</ele><time>2026-05-04T15:46:39.384Z</time></trkpt><trkpt lat="44.9319158" lon="10.4300506"><ele>24.5</ele><time>2026-05-04T15:46:42.384Z</time></trkpt><trkpt lat="44.9319121" lon="10.4301694"><ele>24.0</ele><time>2026-05-04T15:48:19.383Z</time></trkpt><trkpt lat="44.9319165" lon="10.4302738"><ele>24.0</ele><time>2026-05-04T15:48:21.384Z</time></trkpt><trkpt lat="44.9319195" lon="10.4303876"><ele>24.0</ele><time>2026-05-04T15:48:23.383Z</time></trkpt><trkpt lat="44.9319144" lon="10.4305253"><ele>24.0</ele><time>2026-05-04T15:48:25.383Z</time></trkpt><trkpt lat="44.9319056" lon="10.4306631"><ele>24.0</ele><time>2026-05-04T15:48:27.384Z</time></trkpt><trkpt lat="44.9318971" lon="10.4308101"><ele>24.0</ele><time>2026-05-04T15:48:29.384Z</time></trkpt><trkpt lat="44.9318899" lon="10.4310428"><ele>24.0</ele><time>2026-05-04T15:48:32.384Z</time></trkpt><trkpt lat="44.9318688" lon="10.4311902"><ele>24.0</ele><time>2026-05-04T15:48:34.383Z</time></trkpt><trkpt lat="44.9317993" lon="10.4313133"><ele>24.0</ele><time>2026-05-04T15:48:36.384Z</time></trkpt><trkpt lat="44.9317077" lon="10.4314064"><ele>24.0</ele><time>2026-05-04T15:48:38.384Z</time></trkpt><trkpt lat="44.9316127" lon="10.4314874"><ele>24.0</ele><time>2026-05-04T15:48:40.383Z</time></trkpt><trkpt lat="44.931519" lon="10.4315797"><ele>24.2</ele><time>2026-05-04T15:48:42.384Z</time></trkpt><trkpt lat="44.9314187" lon="10.4316711"><ele>24.4</ele><time>2026-05-04T15:48:44.383Z</time></trkpt><trkpt lat="44.9313299" lon="10.4317709"><ele>24.6</ele><time>2026-05-04T15:48:46.384Z</time></trkpt><trkpt lat="44.9312809" lon="10.4318268"><ele>24.8</ele><time>2026-05-04T15:48:47.384Z</time></trkpt><trkpt lat="44.9311806" lon="10.4319259"><ele>25.0</ele><time>2026-05-04T15:48:49.384Z</time></trkpt><trkpt lat="44.9310866" lon="10.4320314"><ele>25.0</ele><time>2026-05-04T15:48:51.383Z</time></trkpt><trkpt lat="44.9310331" lon="10.4320839"><ele>25.0</ele><time>2026-05-04T15:48:52.384Z</time></trkpt><trkpt lat="44.9309457" lon="10.4321968"><ele>25.0</ele><time>2026-05-04T15:48:54.383Z</time></trkpt><trkpt lat="44.9308632" lon="10.4322991"><ele>25.0</ele><time>2026-05-04T15:48:56.383Z</time></trkpt><trkpt lat="44.9307864" lon="10.432423"><ele>25.0</ele><time>2026-05-04T15:48:58.383Z</time></trkpt><trkpt lat="44.9307035" lon="10.4325483"><ele>24.833333333333336</ele><time>2026-05-04T15:49:00.384Z</time></trkpt><trkpt lat="44.9306604" lon="10.4326154"><ele>24.666666666666668</ele><time>2026-05-04T15:49:01.383Z</time></trkpt><trkpt lat="44.9306131" lon="10.4326768"><ele>24.5</ele><time>2026-05-04T15:49:02.383Z</time></trkpt><trkpt lat="44.9305711" lon="10.4327458"><ele>24.333333333333336</ele><time>2026-05-04T15:49:03.384Z</time></trkpt><trkpt lat="44.9304884" lon="10.4328749"><ele>24.166666666666668</ele><time>2026-05-04T15:49:05.384Z</time></trkpt><trkpt lat="44.9304099" lon="10.4329911"><ele>24.0</ele><time>2026-05-04T15:49:07.384Z</time></trkpt><trkpt lat="44.9303693" lon="10.4330603"><ele>24.0</ele><time>2026-05-04T15:49:08.383Z</time></trkpt><trkpt lat="44.9302758" lon="10.4331757"><ele>24.0</ele><time>2026-05-04T15:49:10.383Z</time></trkpt><trkpt lat="44.9301754" lon="10.4332599"><ele>24.0</ele><time>2026-05-04T15:49:12.384Z</time></trkpt><trkpt lat="44.9300601" lon="10.4332931"><ele>24.0</ele><time>2026-05-04T15:49:14.383Z</time></trkpt><trkpt lat="44.9299929" lon="10.4333046"><ele>24.0</ele><time>2026-05-04T15:49:15.384Z</time></trkpt><trkpt lat="44.9299275" lon="10.4333101"><ele>24.0</ele><time>2026-05-04T15:49:16.383Z</time></trkpt><trkpt lat="44.9298645" lon="10.4333188"><ele>24.0</ele><time>2026-05-04T15:49:17.383Z</time></trkpt><trkpt lat="44.9298001" lon="10.433323"><ele>24.0</ele><time>2026-05-04T15:49:18.383Z</time></trkpt><trkpt lat="44.9296841" lon="10.4333415"><ele>24.0</ele><time>2026-05-04T15:49:20.384Z</time></trkpt><trkpt lat="44.9295687" lon="10.433367"><ele>24.0</ele><time>2026-05-04T15:49:22.383Z</time></trkpt><trkpt lat="44.9295047" lon="10.433376"><ele>24.0</ele><time>2026-05-04T15:49:23.383Z</time></trkpt><trkpt lat="44.9293802" lon="10.4334043"><ele>24.0</ele><time>2026-05-04T15:49:25.384Z</time></trkpt><trkpt lat="44.929256" lon="10.4334361"><ele>24.0</ele><time>2026-05-04T15:49:27.383Z</time></trkpt><trkpt lat="44.9291335" lon="10.4334728"><ele>24.0</ele><time>2026-05-04T15:49:29.384Z</time></trkpt><trkpt lat="44.9290163" lon="10.4335019"><ele>24.0</ele><time>2026-05-04T15:49:31.384Z</time></trkpt><trkpt lat="44.928956" lon="10.4335291"><ele>24.0</ele><time>2026-05-04T15:49:32.384Z</time></trkpt><trkpt lat="44.9288923" lon="10.4335568"><ele>24.2</ele><time>2026-05-04T15:49:33.383Z</time></trkpt><trkpt lat="44.928781" lon="10.43362"><ele>24.4</ele><time>2026-05-04T15:49:35.384Z</time></trkpt><trkpt lat="44.9286684" lon="10.4336833"><ele>24.6</ele><time>2026-05-04T15:49:37.384Z</time></trkpt><trkpt lat="44.9286104" lon="10.4337241"><ele>24.8</ele><time>2026-05-04T15:49:38.383Z</time></trkpt><trkpt lat="44.9285048" lon="10.4337974"><ele>25.0</ele><time>2026-05-04T15:49:40.383Z</time></trkpt><trkpt lat="44.9284082" lon="10.4338853"><ele>24.6</ele><time>2026-05-04T15:49:42.383Z</time></trkpt><trkpt lat="44.9283087" lon="10.4339861"><ele>24.2</ele><time>2026-05-04T15:49:44.383Z</time></trkpt><trkpt lat="44.9282502" lon="10.4340373"><ele>23.799999999999997</ele><time>2026-05-04T15:49:45.383Z</time></trkpt><trkpt lat="44.9281992" lon="10.4340966"><ele>23.4</ele><time>2026-05-04T15:49:46.383Z</time></trkpt><trkpt lat="44.9281142" lon="10.4342195"><ele>23.0</ele><time>2026-05-04T15:49:48.384Z</time></trkpt><trkpt lat="44.9280306" lon="10.4343441"><ele>23.0</ele><time>2026-05-04T15:49:50.383Z</time></trkpt><trkpt lat="44.9279949" lon="10.4344191"><ele>23.0</ele><time>2026-05-04T15:49:51.383Z</time></trkpt><trkpt lat="44.9279583" lon="10.4344955"><ele>23.0</ele><time>2026-05-04T15:49:52.383Z</time></trkpt><trkpt lat="44.9278883" lon="10.4346452"><ele>23.0</ele><time>2026-05-04T15:49:54.383Z</time></trkpt><trkpt lat="44.9278231" lon="10.4347935"><ele>23.0</ele><time>2026-05-04T15:49:56.384Z</time></trkpt><trkpt lat="44.9277497" lon="10.4349451"><ele>23.0</ele><time>2026-05-04T15:49:58.384Z</time></trkpt><trkpt lat="44.9276843" lon="10.4350862"><ele>23.0</ele><time>2026-05-04T15:50:00.383Z</time></trkpt><trkpt lat="44.9276193" lon="10.4352347"><ele>23.0</ele><time>2026-05-04T15:50:02.383Z</time></trkpt><trkpt lat="44.9275493" lon="10.4353793"><ele>23.0</ele><time>2026-05-04T15:50:04.384Z</time></trkpt><trkpt lat="44.9275143" lon="10.4354563"><ele>23.0</ele><time>2026-05-04T15:50:05.383Z</time></trkpt><trkpt lat="44.9274445" lon="10.4355885"><ele>23.0</ele><time>2026-05-04T15:50:07.384Z</time></trkpt><trkpt lat="44.9273817" lon="10.4357308"><ele>23.0</ele><time>2026-05-04T15:50:09.383Z</time></trkpt><trkpt lat="44.9273395" lon="10.4358014"><ele>23.0</ele><time>2026-05-04T15:50:10.384Z</time></trkpt><trkpt lat="44.9272719" lon="10.435937"><ele>23.0</ele><time>2026-05-04T15:50:12.383Z</time></trkpt><trkpt lat="44.9271881" lon="10.4360693"><ele>23.0</ele><time>2026-05-04T15:50:14.383Z</time></trkpt><trkpt lat="44.9271077" lon="10.4362066"><ele>23.0</ele><time>2026-05-04T15:50:16.383Z</time></trkpt><trkpt lat="44.9270651" lon="10.4362721"><ele>23.0</ele><time>2026-05-04T15:50:17.383Z</time></trkpt><trkpt lat="44.9270199" lon="10.4363355"><ele>23.0</ele><time>2026-05-04T15:50:18.384Z</time></trkpt><trkpt lat="44.9269697" lon="10.4363946"><ele>23.0</ele><time>2026-05-04T15:50:19.384Z</time></trkpt><trkpt lat="44.9268913" lon="10.4365397"><ele>23.0</ele><time>2026-05-04T15:50:21.383Z</time></trkpt><trkpt lat="44.9268453" lon="10.4366113"><ele>23.0</ele><time>2026-05-04T15:50:22.383Z</time></trkpt><trkpt lat="44.9267703" lon="10.4367436"><ele>23.0</ele><time>2026-05-04T15:50:24.384Z</time></trkpt><trkpt lat="44.9266856" lon="10.4368704"><ele>23.0</ele><time>2026-05-04T15:50:26.383Z</time></trkpt><trkpt lat="44.9266031" lon="10.4370032"><ele>23.0</ele><time>2026-05-04T15:50:28.383Z</time></trkpt><trkpt lat="44.926554" lon="10.4370638"><ele>23.0</ele><time>2026-05-04T15:50:29.384Z</time></trkpt><trkpt lat="44.9265088" lon="10.4371324"><ele>23.0</ele><time>2026-05-04T15:50:30.383Z</time></trkpt><trkpt lat="44.9264138" lon="10.4372448"><ele>23.333333333333336</ele><time>2026-05-04T15:50:32.383Z</time></trkpt><trkpt lat="44.9263662" lon="10.4373131"><ele>23.666666666666668</ele><time>2026-05-04T15:50:33.383Z</time></trkpt><trkpt lat="44.9263189" lon="10.4373728"><ele>24.0</ele><time>2026-05-04T15:50:34.383Z</time></trkpt><trkpt lat="44.9262626" lon="10.4374358"><ele>24.333333333333336</ele><time>2026-05-04T15:50:35.384Z</time></trkpt><trkpt lat="44.9261767" lon="10.4375544"><ele>24.666666666666668</ele><time>2026-05-04T15:50:37.384Z</time></trkpt><trkpt lat="44.9260962" lon="10.4376779"><ele>25.0</ele><time>2026-05-04T15:50:39.383Z</time></trkpt><trkpt lat="44.9260073" lon="10.437798"><ele>25.000000000000004</ele><time>2026-05-04T15:50:41.384Z</time></trkpt><trkpt lat="44.9259609" lon="10.4378671"><ele>25.0</ele><time>2026-05-04T15:50:42.384Z</time></trkpt><trkpt lat="44.9259141" lon="10.4379268"><ele>25.0</ele><time>2026-05-04T15:50:43.383Z</time></trkpt><trkpt lat="44.9258684" lon="10.4379903"><ele>25.0</ele><time>2026-05-04T15:50:44.383Z</time></trkpt><trkpt lat="44.9257779" lon="10.4381049"><ele>25.000000000000004</ele><time>2026-05-04T15:50:46.383Z</time></trkpt><trkpt lat="44.9256881" lon="10.4382304"><ele>25.0</ele><time>2026-05-04T15:50:48.383Z</time></trkpt><trkpt lat="44.9256001" lon="10.4383398"><ele>25.0</ele><time>2026-05-04T15:50:50.383Z</time></trkpt><trkpt lat="44.9255504" lon="10.4384024"><ele>25.0</ele><time>2026-05-04T15:50:51.383Z</time></trkpt><trkpt lat="44.9254611" lon="10.4385198"><ele>25.0</ele><time>2026-05-04T15:50:53.383Z</time></trkpt><trkpt lat="44.925374" lon="10.4386428"><ele>25.0</ele><time>2026-05-04T15:50:55.384Z</time></trkpt><trkpt lat="44.9252896" lon="10.4387727"><ele>25.0</ele><time>2026-05-04T15:50:57.383Z</time></trkpt><trkpt lat="44.9252117" lon="10.4389126"><ele>25.0</ele><time>2026-05-04T15:50:59.383Z</time></trkpt><trkpt lat="44.9251431" lon="10.4390575"><ele>25.0</ele><time>2026-05-04T15:51:01.384Z</time></trkpt><trkpt lat="44.9251117" lon="10.4391381"><ele>25.0</ele><time>2026-05-04T15:51:02.383Z</time></trkpt><trkpt lat="44.9250565" lon="10.4392847"><ele>25.0</ele><time>2026-05-04T15:51:04.384Z</time></trkpt><trkpt lat="44.9249989" lon="10.4394404"><ele>25.0</ele><time>2026-05-04T15:51:06.383Z</time></trkpt><trkpt lat="44.9249401" lon="10.4395905"><ele>24.8</ele><time>2026-05-04T15:51:08.384Z</time></trkpt><trkpt lat="44.9248936" lon="10.4397557"><ele>24.6</ele><time>2026-05-04T15:51:10.384Z</time></trkpt><trkpt lat="44.9248701" lon="10.4398412"><ele>24.4</ele><time>2026-05-04T15:51:11.384Z</time></trkpt><trkpt lat="44.9248248" lon="10.439999"><ele>24.2</ele><time>2026-05-04T15:51:13.383Z</time></trkpt><trkpt lat="44.9248019" lon="10.4400828"><ele>24.0</ele><time>2026-05-04T15:51:14.383Z</time></trkpt><trkpt lat="44.9247729" lon="10.440232"><ele>24.0</ele><time>2026-05-04T15:51:16.383Z</time></trkpt><trkpt lat="44.92474" lon="10.4404008"><ele>24.0</ele><time>2026-05-04T15:51:18.383Z</time></trkpt><trkpt lat="44.9247124" lon="10.4405709"><ele>24.0</ele><time>2026-05-04T15:51:20.383Z</time></trkpt><trkpt lat="44.9247044" lon="10.4407472"><ele>24.0</ele><time>2026-05-04T15:51:22.383Z</time></trkpt><trkpt lat="44.9247073" lon="10.4409322"><ele>23.6</ele><time>2026-05-04T15:51:24.383Z</time></trkpt><trkpt lat="44.9246963" lon="10.4411053"><ele>23.2</ele><time>2026-05-04T15:51:26.383Z</time></trkpt><trkpt lat="44.9246864" lon="10.4412828"><ele>22.8</ele><time>2026-05-04T15:51:28.383Z</time></trkpt><trkpt lat="44.9246863" lon="10.4414662"><ele>22.400000000000002</ele><time>2026-05-04T15:51:30.384Z</time></trkpt><trkpt lat="44.9246834" lon="10.4415607"><ele>22.0</ele><time>2026-05-04T15:51:31.384Z</time></trkpt><trkpt lat="44.9246807" lon="10.4417343"><ele>22.0</ele><time>2026-05-04T15:51:33.384Z</time></trkpt><trkpt lat="44.9246554" lon="10.4419009"><ele>22.0</ele><time>2026-05-04T15:51:35.383Z</time></trkpt><trkpt lat="44.9245939" lon="10.4420421"><ele>22.0</ele><time>2026-05-04T15:51:37.384Z</time></trkpt><trkpt lat="44.9245148" lon="10.4421576"><ele>22.0</ele><time>2026-05-04T15:51:39.384Z</time></trkpt><trkpt lat="44.9244179" lon="10.4422494"><ele>22.400000000000002</ele><time>2026-05-04T15:51:41.384Z</time></trkpt><trkpt lat="44.9243173" lon="10.4423127"><ele>22.8</ele><time>2026-05-04T15:51:43.383Z</time></trkpt><trkpt lat="44.9242063" lon="10.4423694"><ele>23.2</ele><time>2026-05-04T15:51:45.384Z</time></trkpt><trkpt lat="44.9241479" lon="10.442413"><ele>23.6</ele><time>2026-05-04T15:51:46.384Z</time></trkpt><trkpt lat="44.9240489" lon="10.442515"><ele>24.0</ele><time>2026-05-04T15:51:48.383Z</time></trkpt><trkpt lat="44.9239647" lon="10.4426417"><ele>24.5</ele><time>2026-05-04T15:51:50.384Z</time></trkpt><trkpt lat="44.9239076" lon="10.4427995"><ele>25.0</ele><time>2026-05-04T15:51:52.383Z</time></trkpt><trkpt lat="44.9238889" lon="10.4428871"><ele>25.5</ele><time>2026-05-04T15:51:53.383Z</time></trkpt><trkpt lat="44.9238735" lon="10.4429795"><ele>26.0</ele><time>2026-05-04T15:51:54.384Z</time></trkpt><trkpt lat="44.9238612" lon="10.4430702"><ele>26.5</ele><time>2026-05-04T15:51:55.383Z</time></trkpt><trkpt lat="44.9238483" lon="10.4431638"><ele>27.0</ele><time>2026-05-04T15:51:56.383Z</time></trkpt><trkpt lat="44.923822" lon="10.4433187"><ele>27.25</ele><time>2026-05-04T15:51:58.383Z</time></trkpt><trkpt lat="44.923794" lon="10.4434932"><ele>27.5</ele><time>2026-05-04T15:52:00.384Z</time></trkpt><trkpt lat="44.9237807" lon="10.4436736"><ele>27.75</ele><time>2026-05-04T15:52:02.384Z</time></trkpt><trkpt lat="44.9237765" lon="10.4437685"><ele>28.0</ele><time>2026-05-04T15:52:03.384Z</time></trkpt><trkpt lat="44.9237645" lon="10.4439472"><ele>28.000000000000004</ele><time>2026-05-04T15:52:05.384Z</time></trkpt><trkpt lat="44.9237516" lon="10.4441234"><ele>28.0</ele><time>2026-05-04T15:52:07.383Z</time></trkpt><trkpt lat="44.9237438" lon="10.4442176"><ele>28.0</ele><time>2026-05-04T15:52:08.383Z</time></trkpt><trkpt lat="44.9237497" lon="10.4443063"><ele>28.0</ele><time>2026-05-04T15:52:09.384Z</time></trkpt><trkpt lat="44.9237462" lon="10.4443993"><ele>28.000000000000004</ele><time>2026-05-04T15:52:10.383Z</time></trkpt><trkpt lat="44.9237389" lon="10.4445528"><ele>28.0</ele><time>2026-05-04T15:52:12.384Z</time></trkpt><trkpt lat="44.923741" lon="10.4447177"><ele>27.799999999999997</ele><time>2026-05-04T15:52:14.384Z</time></trkpt><trkpt lat="44.9237454" lon="10.444892"><ele>27.599999999999998</ele><time>2026-05-04T15:52:16.384Z</time></trkpt><trkpt lat="44.9237487" lon="10.4449813"><ele>27.400000000000002</ele><time>2026-05-04T15:52:17.383Z</time></trkpt><trkpt lat="44.9237592" lon="10.4450696"><ele>27.200000000000003</ele><time>2026-05-04T15:52:18.384Z</time></trkpt><trkpt lat="44.9237759" lon="10.4452417"><ele>27.0</ele><time>2026-05-04T15:52:20.384Z</time></trkpt><trkpt lat="44.9238148" lon="10.445392"><ele>26.6</ele><time>2026-05-04T15:52:22.384Z</time></trkpt><trkpt lat="44.9238624" lon="10.4455535"><ele>26.200000000000003</ele><time>2026-05-04T15:52:24.383Z</time></trkpt><trkpt lat="44.9238873" lon="10.4456375"><ele>25.8</ele><time>2026-05-04T15:52:25.383Z</time></trkpt><trkpt lat="44.9239315" lon="10.4457882"><ele>25.4</ele><time>2026-05-04T15:52:27.383Z</time></trkpt><trkpt lat="44.9239556" lon="10.4459554"><ele>25.0</ele><time>2026-05-04T15:52:29.384Z</time></trkpt><trkpt lat="44.9239297" lon="10.4461119"><ele>25.0</ele><time>2026-05-04T15:52:31.384Z</time></trkpt><trkpt lat="44.9238554" lon="10.4462547"><ele>25.0</ele><time>2026-05-04T15:52:33.383Z</time></trkpt><trkpt lat="44.9238094" lon="10.446319"><ele>25.0</ele><time>2026-05-04T15:52:34.383Z</time></trkpt><trkpt lat="44.9236874" lon="10.44636"><ele>25.0</ele><time>2026-05-04T15:52:36.384Z</time></trkpt><trkpt lat="44.9235785" lon="10.4463217"><ele>25.0</ele><time>2026-05-04T15:52:38.383Z</time></trkpt><trkpt lat="44.9234595" lon="10.4462786"><ele>25.0</ele><time>2026-05-04T15:52:40.383Z</time></trkpt><trkpt lat="44.9233356" lon="10.4462604"><ele>25.0</ele><time>2026-05-04T15:52:42.383Z</time></trkpt><trkpt lat="44.9232195" lon="10.4462907"><ele>25.0</ele><time>2026-05-04T15:52:44.383Z</time></trkpt><trkpt lat="44.9231605" lon="10.4463223"><ele>25.0</ele><time>2026-05-04T15:52:45.383Z</time></trkpt><trkpt lat="44.9230637" lon="10.4463939"><ele>25.0</ele><time>2026-05-04T15:52:47.383Z</time></trkpt><trkpt lat="44.9229567" lon="10.4464705"><ele>25.0</ele><time>2026-05-04T15:52:49.384Z</time></trkpt><trkpt lat="44.9228556" lon="10.4465597"><ele>25.0</ele><time>2026-05-04T15:52:51.384Z</time></trkpt><trkpt lat="44.9227532" lon="10.4466495"><ele>25.0</ele><time>2026-05-04T15:52:53.383Z</time></trkpt><trkpt lat="44.9226547" lon="10.4467252"><ele>25.0</ele><time>2026-05-04T15:52:55.384Z</time></trkpt><trkpt lat="44.9225594" lon="10.4468065"><ele>25.0</ele><time>2026-05-04T15:52:57.383Z</time></trkpt><trkpt lat="44.9224482" lon="10.4468871"><ele>25.0</ele><time>2026-05-04T15:52:59.383Z</time></trkpt><trkpt lat="44.9223844" lon="10.4469156"><ele>25.0</ele><time>2026-05-04T15:53:00.383Z</time></trkpt><trkpt lat="44.9222681" lon="10.4469709"><ele>25.0</ele><time>2026-05-04T15:53:02.383Z</time></trkpt><trkpt lat="44.9222052" lon="10.4470009"><ele>25.0</ele><time>2026-05-04T15:53:03.383Z</time></trkpt><trkpt lat="44.9220923" lon="10.447052"><ele>25.0</ele><time>2026-05-04T15:53:05.383Z</time></trkpt><trkpt lat="44.9219818" lon="10.4470884"><ele>25.0</ele><time>2026-05-04T15:53:07.384Z</time></trkpt><trkpt lat="44.9218711" lon="10.4471392"><ele>25.0</ele><time>2026-05-04T15:53:09.383Z</time></trkpt><trkpt lat="44.9217618" lon="10.4471984"><ele>25.0</ele><time>2026-05-04T15:53:11.384Z</time></trkpt><trkpt lat="44.9216598" lon="10.4472682"><ele>25.5</ele><time>2026-05-04T15:53:13.383Z</time></trkpt><trkpt lat="44.9215603" lon="10.447346"><ele>26.0</ele><time>2026-05-04T15:53:15.384Z</time></trkpt><trkpt lat="44.921458" lon="10.4474121"><ele>26.5</ele><time>2026-05-04T15:53:17.383Z</time></trkpt><trkpt lat="44.9213506" lon="10.4474725"><ele>27.0</ele><time>2026-05-04T15:53:19.383Z</time></trkpt><trkpt lat="44.9212487" lon="10.4475389"><ele>27.0</ele><time>2026-05-04T15:53:21.383Z</time></trkpt><trkpt lat="44.921137" lon="10.4475975"><ele>27.0</ele><time>2026-05-04T15:53:23.384Z</time></trkpt><trkpt lat="44.9210334" lon="10.4476615"><ele>27.0</ele><time>2026-05-04T15:53:25.384Z</time></trkpt><trkpt lat="44.9209326" lon="10.4477254"><ele>27.0</ele><time>2026-05-04T15:53:27.383Z</time></trkpt><trkpt lat="44.9208349" lon="10.4477865"><ele>27.0</ele><time>2026-05-04T15:53:29.384Z</time></trkpt><trkpt lat="44.9207247" lon="10.447839"><ele>27.000000000000004</ele><time>2026-05-04T15:53:31.383Z</time></trkpt><trkpt lat="44.9206098" lon="10.4478945"><ele>27.000000000000004</ele><time>2026-05-04T15:53:33.383Z</time></trkpt><trkpt lat="44.9205491" lon="10.4479274"><ele>27.0</ele><time>2026-05-04T15:53:34.383Z</time></trkpt><trkpt lat="44.9204341" lon="10.4479801"><ele>27.0</ele><time>2026-05-04T15:53:36.383Z</time></trkpt><trkpt lat="44.9203268" lon="10.4480534"><ele>26.6</ele><time>2026-05-04T15:53:38.383Z</time></trkpt><trkpt lat="44.9202152" lon="10.4481206"><ele>26.200000000000003</ele><time>2026-05-04T15:53:40.383Z</time></trkpt><trkpt lat="44.9201533" lon="10.448145"><ele>25.8</ele><time>2026-05-04T15:53:41.383Z</time></trkpt><trkpt lat="44.9200385" lon="10.4482065"><ele>25.4</ele><time>2026-05-04T15:53:43.383Z</time></trkpt><trkpt lat="44.919924" lon="10.4482741"><ele>25.0</ele><time>2026-05-04T15:53:45.383Z</time></trkpt><trkpt lat="44.9198098" lon="10.4483314"><ele>25.0</ele><time>2026-05-04T15:53:47.384Z</time></trkpt><trkpt lat="44.9197012" lon="10.4483943"><ele>25.0</ele><time>2026-05-04T15:53:49.384Z</time></trkpt><trkpt lat="44.9196386" lon="10.4484278"><ele>25.0</ele><time>2026-05-04T15:53:50.383Z</time></trkpt><trkpt lat="44.9195408" lon="10.4484895"><ele>25.0</ele><time>2026-05-04T15:53:52.383Z</time></trkpt><trkpt lat="44.919427" lon="10.4485488"><ele>25.0</ele><time>2026-05-04T15:53:54.384Z</time></trkpt><trkpt lat="44.9193668" lon="10.4485766"><ele>25.0</ele><time>2026-05-04T15:53:55.383Z</time></trkpt><trkpt lat="44.9192499" lon="10.4486257"><ele>25.0</ele><time>2026-05-04T15:53:57.383Z</time></trkpt><trkpt lat="44.919188" lon="10.4486567"><ele>25.0</ele><time>2026-05-04T15:53:58.384Z</time></trkpt><trkpt lat="44.9190732" lon="10.448719"><ele>25.0</ele><time>2026-05-04T15:54:00.383Z</time></trkpt><trkpt lat="44.9189603" lon="10.44879"><ele>25.0</ele><time>2026-05-04T15:54:02.383Z</time></trkpt><trkpt lat="44.9188623" lon="10.4488589"><ele>25.0</ele><time>2026-05-04T15:54:04.383Z</time></trkpt><trkpt lat="44.9187447" lon="10.4489274"><ele>25.0</ele><time>2026-05-04T15:54:06.384Z</time></trkpt><trkpt lat="44.9186305" lon="10.4489898"><ele>25.0</ele><time>2026-05-04T15:54:08.383Z</time></trkpt><trkpt lat="44.91857" lon="10.4490242"><ele>25.0</ele><time>2026-05-04T15:54:09.383Z</time></trkpt><trkpt lat="44.9185106" lon="10.4490556"><ele>25.0</ele><time>2026-05-04T15:54:10.383Z</time></trkpt><trkpt lat="44.9183996" lon="10.449128"><ele>24.6</ele><time>2026-05-04T15:54:12.383Z</time></trkpt><trkpt lat="44.918341" lon="10.4491622"><ele>24.2</ele><time>2026-05-04T15:54:13.384Z</time></trkpt><trkpt lat="44.9182408" lon="10.4492597"><ele>23.799999999999997</ele><time>2026-05-04T15:54:15.383Z</time></trkpt><trkpt lat="44.9181894" lon="10.4493136"><ele>23.4</ele><time>2026-05-04T15:54:16.383Z</time></trkpt><trkpt lat="44.9180982" lon="10.4494332"><ele>23.0</ele><time>2026-05-04T15:54:18.383Z</time></trkpt><trkpt lat="44.9180083" lon="10.4495427"><ele>23.0</ele><time>2026-05-04T15:54:20.384Z</time></trkpt><trkpt lat="44.9179588" lon="10.4496026"><ele>23.0</ele><time>2026-05-04T15:54:21.384Z</time></trkpt><trkpt lat="44.9178827" lon="10.4497303"><ele>23.0</ele><time>2026-05-04T15:54:23.384Z</time></trkpt><trkpt lat="44.9178099" lon="10.4498588"><ele>23.0</ele><time>2026-05-04T15:54:25.384Z</time></trkpt><trkpt lat="44.917773" lon="10.4499322"><ele>23.0</ele><time>2026-05-04T15:54:26.384Z</time></trkpt><trkpt lat="44.9177106" lon="10.4500739"><ele>23.25</ele><time>2026-05-04T15:54:28.383Z</time></trkpt><trkpt lat="44.9176405" lon="10.4502115"><ele>23.5</ele><time>2026-05-04T15:54:30.384Z</time></trkpt><trkpt lat="44.9175746" lon="10.4503628"><ele>23.75</ele><time>2026-05-04T15:54:32.383Z</time></trkpt><trkpt lat="44.9175283" lon="10.4505287"><ele>24.0</ele><time>2026-05-04T15:54:34.383Z</time></trkpt><trkpt lat="44.9174852" lon="10.4506828"><ele>24.0</ele><time>2026-05-04T15:54:36.384Z</time></trkpt><trkpt lat="44.9174432" lon="10.4508433"><ele>24.0</ele><time>2026-05-04T15:54:38.384Z</time></trkpt><trkpt lat="44.9174317" lon="10.4510174"><ele>24.0</ele><time>2026-05-04T15:54:40.383Z</time></trkpt><trkpt lat="44.9174043" lon="10.4511935"><ele>24.0</ele><time>2026-05-04T15:54:42.384Z</time></trkpt><trkpt lat="44.9173805" lon="10.4513721"><ele>24.4</ele><time>2026-05-04T15:54:44.383Z</time></trkpt><trkpt lat="44.9173622" lon="10.4515377"><ele>24.799999999999997</ele><time>2026-05-04T15:54:46.383Z</time></trkpt><trkpt lat="44.9173611" lon="10.4516936"><ele>25.200000000000003</ele><time>2026-05-04T15:54:48.384Z</time></trkpt><trkpt lat="44.9173605" lon="10.4518303"><ele>25.6</ele><time>2026-05-04T15:54:50.384Z</time></trkpt><trkpt lat="44.9173661" lon="10.4519779"><ele>26.0</ele><time>2026-05-04T15:54:52.383Z</time></trkpt><trkpt lat="44.9173765" lon="10.4521197"><ele>26.0</ele><time>2026-05-04T15:54:54.383Z</time></trkpt><trkpt lat="44.9173877" lon="10.452271"><ele>26.0</ele><time>2026-05-04T15:54:56.384Z</time></trkpt><trkpt lat="44.9173898" lon="10.4524301"><ele>26.0</ele><time>2026-05-04T15:54:58.384Z</time></trkpt><trkpt lat="44.9174152" lon="10.4525879"><ele>26.0</ele><time>2026-05-04T15:55:00.383Z</time></trkpt><trkpt lat="44.9174097" lon="10.4527566"><ele>26.0</ele><time>2026-05-04T15:55:02.383Z</time></trkpt><trkpt lat="44.9173567" lon="10.4529042"><ele>26.0</ele><time>2026-05-04T15:55:04.384Z</time></trkpt><trkpt lat="44.917271" lon="10.4530298"><ele>26.0</ele><time>2026-05-04T15:55:06.384Z</time></trkpt><trkpt lat="44.9172283" lon="10.4530964"><ele>26.0</ele><time>2026-05-04T15:55:07.383Z</time></trkpt><trkpt lat="44.917129" lon="10.4532074"><ele>26.0</ele><time>2026-05-04T15:55:09.384Z</time></trkpt><trkpt lat="44.9170337" lon="10.4533189"><ele>26.200000000000003</ele><time>2026-05-04T15:55:11.383Z</time></trkpt><trkpt lat="44.9169805" lon="10.4533713"><ele>26.400000000000002</ele><time>2026-05-04T15:55:12.383Z</time></trkpt><trkpt lat="44.9168792" lon="10.4534679"><ele>26.6</ele><time>2026-05-04T15:55:14.383Z</time></trkpt><trkpt lat="44.9167866" lon="10.4535793"><ele>26.8</ele><time>2026-05-04T15:55:16.384Z</time></trkpt><trkpt lat="44.9167457" lon="10.4536499"><ele>27.0</ele><time>2026-05-04T15:55:17.384Z</time></trkpt><trkpt lat="44.9166613" lon="10.4537729"><ele>27.25</ele><time>2026-05-04T15:55:19.384Z</time></trkpt><trkpt lat="44.9165839" lon="10.4539149"><ele>27.5</ele><time>2026-05-04T15:55:21.384Z</time></trkpt><trkpt lat="44.9165113" lon="10.4540601"><ele>27.75</ele><time>2026-05-04T15:55:23.384Z</time></trkpt><trkpt lat="44.9164364" lon="10.4542006"><ele>28.0</ele><time>2026-05-04T15:55:25.384Z</time></trkpt><trkpt lat="44.9163591" lon="10.4543375"><ele>28.0</ele><time>2026-05-04T15:55:27.383Z</time></trkpt><trkpt lat="44.9163209" lon="10.4544147"><ele>27.999999999999996</ele><time>2026-05-04T15:55:28.384Z</time></trkpt><trkpt lat="44.9162007" lon="10.4546231"><ele>27.999999999999996</ele><time>2026-05-04T15:55:31.384Z</time></trkpt><trkpt lat="44.9161618" lon="10.4546931"><ele>28.0</ele><time>2026-05-04T15:55:32.383Z</time></trkpt><trkpt lat="44.9161273" lon="10.4547676"><ele>28.0</ele><time>2026-05-04T15:55:33.384Z</time></trkpt><trkpt lat="44.9160836" lon="10.4548419"><ele>27.500000000000004</ele><time>2026-05-04T15:55:34.384Z</time></trkpt><trkpt lat="44.9160413" lon="10.4549164"><ele>27.0</ele><time>2026-05-04T15:55:35.384Z</time></trkpt><trkpt lat="44.9160036" lon="10.4549918"><ele>26.5</ele><time>2026-05-04T15:55:36.383Z</time></trkpt><trkpt lat="44.9159277" lon="10.4551324"><ele>26.0</ele><time>2026-05-04T15:55:38.384Z</time></trkpt><trkpt lat="44.9159015" lon="10.4552186"><ele>25.500000000000004</ele><time>2026-05-04T15:55:39.383Z</time></trkpt><trkpt lat="44.9158726" lon="10.4553022"><ele>25.0</ele><time>2026-05-04T15:55:40.384Z</time></trkpt><trkpt lat="44.9158515" lon="10.4554742"><ele>25.0</ele><time>2026-05-04T15:55:42.383Z</time></trkpt><trkpt lat="44.9158633" lon="10.455645"><ele>25.0</ele><time>2026-05-04T15:55:44.384Z</time></trkpt><trkpt lat="44.9158666" lon="10.4557371"><ele>25.0</ele><time>2026-05-04T15:55:45.383Z</time></trkpt><trkpt lat="44.9158861" lon="10.4559143"><ele>25.0</ele><time>2026-05-04T15:55:47.383Z</time></trkpt><trkpt lat="44.9158945" lon="10.4560059"><ele>25.0</ele><time>2026-05-04T15:55:48.384Z</time></trkpt><trkpt lat="44.9159125" lon="10.4561795"><ele>25.2</ele><time>2026-05-04T15:55:50.383Z</time></trkpt><trkpt lat="44.915938" lon="10.4563541"><ele>25.4</ele><time>2026-05-04T15:55:52.384Z</time></trkpt><trkpt lat="44.9159585" lon="10.4565262"><ele>25.6</ele><time>2026-05-04T15:55:54.383Z</time></trkpt><trkpt lat="44.915967" lon="10.4566145"><ele>25.8</ele><time>2026-05-04T15:55:55.383Z</time></trkpt><trkpt lat="44.9159821" lon="10.4567843"><ele>26.0</ele><time>2026-05-04T15:55:57.383Z</time></trkpt><trkpt lat="44.9160039" lon="10.4569409"><ele>25.999999999999996</ele><time>2026-05-04T15:55:59.384Z</time></trkpt><trkpt lat="44.9160284" lon="10.4571074"><ele>26.0</ele><time>2026-05-04T15:56:01.384Z</time></trkpt><trkpt lat="44.9160364" lon="10.4571979"><ele>26.0</ele><time>2026-05-04T15:56:02.384Z</time></trkpt><trkpt lat="44.9160538" lon="10.4572861"><ele>26.0</ele><time>2026-05-04T15:56:03.384Z</time></trkpt><trkpt lat="44.91609" lon="10.4574522"><ele>25.999999999999996</ele><time>2026-05-04T15:56:05.383Z</time></trkpt><trkpt lat="44.9161083" lon="10.4575396"><ele>26.0</ele><time>2026-05-04T15:56:06.383Z</time></trkpt><trkpt lat="44.9161509" lon="10.4577056"><ele>26.0</ele><time>2026-05-04T15:56:08.383Z</time></trkpt><trkpt lat="44.9162021" lon="10.4578684"><ele>26.0</ele><time>2026-05-04T15:56:10.384Z</time></trkpt><trkpt lat="44.9162615" lon="10.4580243"><ele>26.0</ele><time>2026-05-04T15:56:12.384Z</time></trkpt><trkpt lat="44.9163226" lon="10.4581714"><ele>26.0</ele><time>2026-05-04T15:56:14.383Z</time></trkpt><trkpt lat="44.9163806" lon="10.4583169"><ele>26.5</ele><time>2026-05-04T15:56:16.384Z</time></trkpt><trkpt lat="44.9164107" lon="10.4584672"><ele>27.0</ele><time>2026-05-04T15:56:18.384Z</time></trkpt><trkpt lat="44.9163723" lon="10.458608"><ele>27.5</ele><time>2026-05-04T15:56:20.383Z</time></trkpt><trkpt lat="44.9163025" lon="10.4587341"><ele>28.0</ele><time>2026-05-04T15:56:22.383Z</time></trkpt><trkpt lat="44.916225" lon="10.4588681"><ele>28.0</ele><time>2026-05-04T15:56:24.384Z</time></trkpt><trkpt lat="44.9161523" lon="10.4590004"><ele>27.999999999999996</ele><time>2026-05-04T15:56:26.383Z</time></trkpt><trkpt lat="44.9160705" lon="10.4591246"><ele>27.999999999999996</ele><time>2026-05-04T15:56:28.384Z</time></trkpt><trkpt lat="44.916024" lon="10.4591927"><ele>28.0</ele><time>2026-05-04T15:56:29.384Z</time></trkpt><trkpt lat="44.9159517" lon="10.4593192"><ele>28.0</ele><time>2026-05-04T15:56:31.384Z</time></trkpt><trkpt lat="44.9158826" lon="10.4594452"><ele>28.0</ele><time>2026-05-04T15:56:33.383Z</time></trkpt><trkpt lat="44.9158048" lon="10.4595719"><ele>28.0</ele><time>2026-05-04T15:56:35.384Z</time></trkpt><trkpt lat="44.9157226" lon="10.4597021"><ele>28.0</ele><time>2026-05-04T15:56:37.384Z</time></trkpt><trkpt lat="44.915648" lon="10.4598384"><ele>28.0</ele><time>2026-05-04T15:56:39.384Z</time></trkpt><trkpt lat="44.9155743" lon="10.4599723"><ele>28.0</ele><time>2026-05-04T15:56:41.384Z</time></trkpt><trkpt lat="44.9155155" lon="10.4601194"><ele>28.0</ele><time>2026-05-04T15:56:43.383Z</time></trkpt><trkpt lat="44.91546" lon="10.4602712"><ele>28.0</ele><time>2026-05-04T15:56:45.383Z</time></trkpt><trkpt lat="44.9154266" lon="10.4604384"><ele>28.0</ele><time>2026-05-04T15:56:47.384Z</time></trkpt><trkpt lat="44.915388" lon="10.4606015"><ele>27.25</ele><time>2026-05-04T15:56:49.383Z</time></trkpt><trkpt lat="44.9153665" lon="10.4606906"><ele>26.5</ele><time>2026-05-04T15:56:50.383Z</time></trkpt><trkpt lat="44.9153312" lon="10.4608592"><ele>25.75</ele><time>2026-05-04T15:56:52.383Z</time></trkpt><trkpt lat="44.9152566" lon="10.4611919"><ele>25.0</ele><time>2026-05-04T15:56:56.383Z</time></trkpt><trkpt lat="44.9152369" lon="10.4612782"><ele>25.2</ele><time>2026-05-04T15:56:57.384Z</time></trkpt><trkpt lat="44.9152144" lon="10.4613651"><ele>25.4</ele><time>2026-05-04T15:56:58.383Z</time></trkpt><trkpt lat="44.9151623" lon="10.4615127"><ele>25.6</ele><time>2026-05-04T15:57:00.383Z</time></trkpt><trkpt lat="44.915103" lon="10.4616513"><ele>25.8</ele><time>2026-05-04T15:57:02.384Z</time></trkpt><trkpt lat="44.9150646" lon="10.4617302"><ele>26.0</ele><time>2026-05-04T15:57:03.384Z</time></trkpt><trkpt lat="44.9150007" lon="10.4618729"><ele>26.0</ele><time>2026-05-04T15:57:05.383Z</time></trkpt><trkpt lat="44.9149284" lon="10.4620127"><ele>26.0</ele><time>2026-05-04T15:57:07.383Z</time></trkpt><trkpt lat="44.9148556" lon="10.4621489"><ele>26.0</ele><time>2026-05-04T15:57:09.384Z</time></trkpt><trkpt lat="44.9148181" lon="10.4622219"><ele>26.0</ele><time>2026-05-04T15:57:10.383Z</time></trkpt><trkpt lat="44.9147446" lon="10.4623644"><ele>26.0</ele><time>2026-05-04T15:57:12.383Z</time></trkpt><trkpt lat="44.9146982" lon="10.4624287"><ele>26.0</ele><time>2026-05-04T15:57:13.384Z</time></trkpt><trkpt lat="44.9146133" lon="10.4625574"><ele>26.0</ele><time>2026-05-04T15:57:15.383Z</time></trkpt><trkpt lat="44.9145381" lon="10.4627007"><ele>26.0</ele><time>2026-05-04T15:57:17.383Z</time></trkpt><trkpt lat="44.91446" lon="10.4628309"><ele>26.0</ele><time>2026-05-04T15:57:19.384Z</time></trkpt><trkpt lat="44.914375" lon="10.4629597"><ele>26.142857142857142</ele><time>2026-05-04T15:57:21.383Z</time></trkpt><trkpt lat="44.9143347" lon="10.4630282"><ele>26.28571428571429</ele><time>2026-05-04T15:57:22.383Z</time></trkpt><trkpt lat="44.9142936" lon="10.4630989"><ele>26.42857142857143</ele><time>2026-05-04T15:57:23.383Z</time></trkpt><trkpt lat="44.9142521" lon="10.4631694"><ele>26.57142857142857</ele><time>2026-05-04T15:57:24.384Z</time></trkpt><trkpt lat="44.9142064" lon="10.4632346"><ele>26.714285714285715</ele><time>2026-05-04T15:57:25.384Z</time></trkpt><trkpt lat="44.9141623" lon="10.4633059"><ele>26.857142857142858</ele><time>2026-05-04T15:57:26.384Z</time></trkpt><trkpt lat="44.9141199" lon="10.4633775"><ele>27.0</ele><time>2026-05-04T15:57:27.383Z</time></trkpt><trkpt lat="44.9140831" lon="10.4634574"><ele>27.0</ele><time>2026-05-04T15:57:28.383Z</time></trkpt><trkpt lat="44.9140539" lon="10.4635379"><ele>27.0</ele><time>2026-05-04T15:57:29.384Z</time></trkpt><trkpt lat="44.913994" lon="10.4636954"><ele>27.0</ele><time>2026-05-04T15:57:31.384Z</time></trkpt><trkpt lat="44.9139668" lon="10.4637767"><ele>27.0</ele><time>2026-05-04T15:57:32.384Z</time></trkpt><trkpt lat="44.9139401" lon="10.4638626"><ele>27.0</ele><time>2026-05-04T15:57:33.384Z</time></trkpt><trkpt lat="44.9139078" lon="10.4639399"><ele>27.0</ele><time>2026-05-04T15:57:34.384Z</time></trkpt><trkpt lat="44.9138781" lon="10.4640255"><ele>27.166666666666668</ele><time>2026-05-04T15:57:35.384Z</time></trkpt><trkpt lat="44.9138487" lon="10.4641065"><ele>27.333333333333336</ele><time>2026-05-04T15:57:36.383Z</time></trkpt><trkpt lat="44.913823" lon="10.46419"><ele>27.5</ele><time>2026-05-04T15:57:37.384Z</time></trkpt><trkpt lat="44.913776" lon="10.4643367"><ele>27.666666666666668</ele><time>2026-05-04T15:57:39.383Z</time></trkpt><trkpt lat="44.9137491" lon="10.4644235"><ele>27.833333333333336</ele><time>2026-05-04T15:57:40.383Z</time></trkpt><trkpt lat="44.9137075" lon="10.4645736"><ele>28.0</ele><time>2026-05-04T15:57:42.383Z</time></trkpt><trkpt lat="44.9136817" lon="10.4646607"><ele>27.666666666666668</ele><time>2026-05-04T15:57:43.383Z</time></trkpt><trkpt lat="44.9136274" lon="10.4647966"><ele>27.333333333333336</ele><time>2026-05-04T15:57:45.383Z</time></trkpt><trkpt lat="44.9135942" lon="10.4648749"><ele>27.0</ele><time>2026-05-04T15:57:46.384Z</time></trkpt><trkpt lat="44.9135428" lon="10.4650317"><ele>26.666666666666664</ele><time>2026-05-04T15:57:48.383Z</time></trkpt><trkpt lat="44.913516" lon="10.4651133"><ele>26.333333333333332</ele><time>2026-05-04T15:57:49.384Z</time></trkpt><trkpt lat="44.9134929" lon="10.4652028"><ele>26.0</ele><time>2026-05-04T15:57:50.384Z</time></trkpt><trkpt lat="44.9134678" lon="10.4653792"><ele>26.0</ele><time>2026-05-04T15:57:52.383Z</time></trkpt><trkpt lat="44.9134682" lon="10.4654766"><ele>26.0</ele><time>2026-05-04T15:57:53.383Z</time></trkpt><trkpt lat="44.9134719" lon="10.4655679"><ele>26.0</ele><time>2026-05-04T15:57:54.384Z</time></trkpt><trkpt lat="44.913492" lon="10.4657439"><ele>26.0</ele><time>2026-05-04T15:57:56.384Z</time></trkpt><trkpt lat="44.9135138" lon="10.4659135"><ele>26.0</ele><time>2026-05-04T15:57:58.383Z</time></trkpt><trkpt lat="44.9135305" lon="10.4660863"><ele>25.999999999999996</ele><time>2026-05-04T15:58:00.384Z</time></trkpt><trkpt lat="44.9135449" lon="10.4661731"><ele>26.0</ele><time>2026-05-04T15:58:01.384Z</time></trkpt><trkpt lat="44.9135534" lon="10.4662622"><ele>26.0</ele><time>2026-05-04T15:58:02.383Z</time></trkpt><trkpt lat="44.9135649" lon="10.4663498"><ele>26.0</ele><time>2026-05-04T15:58:03.384Z</time></trkpt><trkpt lat="44.9135888" lon="10.4665206"><ele>25.999999999999996</ele><time>2026-05-04T15:58:05.383Z</time></trkpt><trkpt lat="44.9136144" lon="10.4666915"><ele>26.0</ele><time>2026-05-04T15:58:07.384Z</time></trkpt><trkpt lat="44.9136274" lon="10.4667814"><ele>25.833333333333332</ele><time>2026-05-04T15:58:08.384Z</time></trkpt><trkpt lat="44.9136348" lon="10.46687"><ele>25.666666666666664</ele><time>2026-05-04T15:58:09.383Z</time></trkpt><trkpt lat="44.9136464" lon="10.4669601"><ele>25.5</ele><time>2026-05-04T15:58:10.384Z</time></trkpt><trkpt lat="44.9136613" lon="10.4670476"><ele>25.333333333333336</ele><time>2026-05-04T15:58:11.383Z</time></trkpt><trkpt lat="44.9136842" lon="10.4672205"><ele>25.166666666666668</ele><time>2026-05-04T15:58:13.384Z</time></trkpt><trkpt lat="44.9137085" lon="10.4673913"><ele>25.0</ele><time>2026-05-04T15:58:15.384Z</time></trkpt><trkpt lat="44.9137208" lon="10.4674794"><ele>25.000000000000004</ele><time>2026-05-04T15:58:16.384Z</time></trkpt><trkpt lat="44.9137319" lon="10.4675676"><ele>25.0</ele><time>2026-05-04T15:58:17.384Z</time></trkpt><trkpt lat="44.9137579" lon="10.4677351"><ele>25.0</ele><time>2026-05-04T15:58:19.384Z</time></trkpt><trkpt lat="44.9137725" lon="10.4678245"><ele>25.0</ele><time>2026-05-04T15:58:20.383Z</time></trkpt><trkpt lat="44.9137837" lon="10.4679125"><ele>25.000000000000004</ele><time>2026-05-04T15:58:21.384Z</time></trkpt><trkpt lat="44.9138075" lon="10.4680773"><ele>25.0</ele><time>2026-05-04T15:58:23.383Z</time></trkpt><trkpt lat="44.9138266" lon="10.4682506"><ele>24.8</ele><time>2026-05-04T15:58:25.384Z</time></trkpt><trkpt lat="44.9138454" lon="10.4683384"><ele>24.6</ele><time>2026-05-04T15:58:26.383Z</time></trkpt><trkpt lat="44.91386" lon="10.4685068"><ele>24.4</ele><time>2026-05-04T15:58:28.384Z</time></trkpt><trkpt lat="44.913857" lon="10.4686768"><ele>24.2</ele><time>2026-05-04T15:58:30.384Z</time></trkpt><trkpt lat="44.9138306" lon="10.4688447"><ele>24.0</ele><time>2026-05-04T15:58:32.384Z</time></trkpt><trkpt lat="44.9137784" lon="10.4689947"><ele>24.0</ele><time>2026-05-04T15:58:34.383Z</time></trkpt><trkpt lat="44.9137149" lon="10.4691438"><ele>24.0</ele><time>2026-05-04T15:58:36.384Z</time></trkpt><trkpt lat="44.9136426" lon="10.4692914"><ele>24.0</ele><time>2026-05-04T15:58:38.383Z</time></trkpt><trkpt lat="44.9135792" lon="10.469424"><ele>24.0</ele><time>2026-05-04T15:58:40.384Z</time></trkpt><trkpt lat="44.9135045" lon="10.4695656"><ele>24.25</ele><time>2026-05-04T15:58:42.383Z</time></trkpt><trkpt lat="44.9134323" lon="10.4697091"><ele>24.5</ele><time>2026-05-04T15:58:44.384Z</time></trkpt><trkpt lat="44.9133668" lon="10.469844"><ele>24.75</ele><time>2026-05-04T15:58:46.383Z</time></trkpt><trkpt lat="44.9132972" lon="10.4699839"><ele>25.0</ele><time>2026-05-04T15:58:48.383Z</time></trkpt><trkpt lat="44.9132367" lon="10.4701167"><ele>25.2</ele><time>2026-05-04T15:58:50.383Z</time></trkpt><trkpt lat="44.9132029" lon="10.4701945"><ele>25.4</ele><time>2026-05-04T15:58:51.383Z</time></trkpt><trkpt lat="44.9131395" lon="10.4703483"><ele>25.6</ele><time>2026-05-04T15:58:53.384Z</time></trkpt><trkpt lat="44.913107" lon="10.4704275"><ele>25.8</ele><time>2026-05-04T15:58:54.384Z</time></trkpt><trkpt lat="44.9130358" lon="10.4705704"><ele>26.0</ele><time>2026-05-04T15:58:56.383Z</time></trkpt><trkpt lat="44.9129706" lon="10.4707168"><ele>26.0</ele><time>2026-05-04T15:58:58.383Z</time></trkpt><trkpt lat="44.912905" lon="10.4708567"><ele>26.0</ele><time>2026-05-04T15:59:00.384Z</time></trkpt><trkpt lat="44.9128435" lon="10.4709863"><ele>26.0</ele><time>2026-05-04T15:59:02.383Z</time></trkpt><trkpt lat="44.9127746" lon="10.4711132"><ele>26.0</ele><time>2026-05-04T15:59:04.383Z</time></trkpt><trkpt lat="44.9127368" lon="10.4711849"><ele>26.0</ele><time>2026-05-04T15:59:05.384Z</time></trkpt><trkpt lat="44.9126809" lon="10.4713305"><ele>25.75</ele><time>2026-05-04T15:59:07.383Z</time></trkpt><trkpt lat="44.912616" lon="10.4714683"><ele>25.5</ele><time>2026-05-04T15:59:09.384Z</time></trkpt><trkpt lat="44.9125498" lon="10.4716034"><ele>25.25</ele><time>2026-05-04T15:59:11.384Z</time></trkpt><trkpt lat="44.9124913" lon="10.4717388"><ele>25.0</ele><time>2026-05-04T15:59:13.384Z</time></trkpt><trkpt lat="44.9124192" lon="10.4718769"><ele>24.8</ele><time>2026-05-04T15:59:15.383Z</time></trkpt><trkpt lat="44.912359" lon="10.4720188"><ele>24.6</ele><time>2026-05-04T15:59:17.384Z</time></trkpt><trkpt lat="44.9123068" lon="10.4721755"><ele>24.4</ele><time>2026-05-04T15:59:19.384Z</time></trkpt><trkpt lat="44.9122762" lon="10.4722536"><ele>24.2</ele><time>2026-05-04T15:59:20.384Z</time></trkpt><trkpt lat="44.9122239" lon="10.47241"><ele>24.0</ele><time>2026-05-04T15:59:22.384Z</time></trkpt><trkpt lat="44.9121803" lon="10.4725679"><ele>24.0</ele><time>2026-05-04T15:59:24.384Z</time></trkpt><trkpt lat="44.9121341" lon="10.4727239"><ele>24.0</ele><time>2026-05-04T15:59:26.383Z</time></trkpt><trkpt lat="44.9121081" lon="10.4728099"><ele>24.0</ele><time>2026-05-04T15:59:27.384Z</time></trkpt><trkpt lat="44.9120734" lon="10.4729763"><ele>24.0</ele><time>2026-05-04T15:59:29.383Z</time></trkpt><trkpt lat="44.9120533" lon="10.473067"><ele>24.0</ele><time>2026-05-04T15:59:30.384Z</time></trkpt><trkpt lat="44.9120233" lon="10.4732319"><ele>24.0</ele><time>2026-05-04T15:59:32.383Z</time></trkpt><trkpt lat="44.9119946" lon="10.4734017"><ele>24.0</ele><time>2026-05-04T15:59:34.384Z</time></trkpt><trkpt lat="44.9119691" lon="10.4735691"><ele>24.0</ele><time>2026-05-04T15:59:36.383Z</time></trkpt><trkpt lat="44.9119555" lon="10.4736574"><ele>24.0</ele><time>2026-05-04T15:59:37.384Z</time></trkpt><trkpt lat="44.9119361" lon="10.4738334"><ele>24.0</ele><time>2026-05-04T15:59:39.384Z</time></trkpt><trkpt lat="44.9119221" lon="10.4739234"><ele>24.0</ele><time>2026-05-04T15:59:40.383Z</time></trkpt><trkpt lat="44.9119061" lon="10.4740136"><ele>24.0</ele><time>2026-05-04T15:59:41.384Z</time></trkpt><trkpt lat="44.9118985" lon="10.4741044"><ele>24.0</ele><time>2026-05-04T15:59:42.384Z</time></trkpt><trkpt lat="44.9118768" lon="10.4742767"><ele>24.0</ele><time>2026-05-04T15:59:44.384Z</time></trkpt><trkpt lat="44.9118646" lon="10.4743661"><ele>24.0</ele><time>2026-05-04T15:59:45.384Z</time></trkpt><trkpt lat="44.9118373" lon="10.4745391"><ele>24.0</ele><time>2026-05-04T15:59:47.384Z</time></trkpt><trkpt lat="44.9118218" lon="10.4746275"><ele>24.0</ele><time>2026-05-04T15:59:48.384Z</time></trkpt><trkpt lat="44.9118108" lon="10.4747192"><ele>24.0</ele><time>2026-05-04T15:59:49.384Z</time></trkpt><trkpt lat="44.9117824" lon="10.4748868"><ele>24.0</ele><time>2026-05-04T15:59:51.384Z</time></trkpt><trkpt lat="44.911756" lon="10.4750578"><ele>24.0</ele><time>2026-05-04T15:59:53.384Z</time></trkpt><trkpt lat="44.911748" lon="10.475147"><ele>24.0</ele><time>2026-05-04T15:59:54.384Z</time></trkpt><trkpt lat="44.9117195" lon="10.4753098"><ele>24.4</ele><time>2026-05-04T15:59:56.384Z</time></trkpt><trkpt lat="44.9116948" lon="10.4754818"><ele>24.799999999999997</ele><time>2026-05-04T15:59:58.383Z</time></trkpt><trkpt lat="44.9116872" lon="10.475571"><ele>25.200000000000003</ele><time>2026-05-04T15:59:59.383Z</time></trkpt><trkpt lat="44.911679" lon="10.4757427"><ele>25.6</ele><time>2026-05-04T16:00:01.384Z</time></trkpt><trkpt lat="44.9116968" lon="10.4759158"><ele>26.0</ele><time>2026-05-04T16:00:03.383Z</time></trkpt><trkpt lat="44.9117182" lon="10.4760885"><ele>26.0</ele><time>2026-05-04T16:00:05.384Z</time></trkpt><trkpt lat="44.911737" lon="10.4761815"><ele>26.0</ele><time>2026-05-04T16:00:06.384Z</time></trkpt><trkpt lat="44.9117639" lon="10.4763413"><ele>26.0</ele><time>2026-05-04T16:00:08.384Z</time></trkpt><trkpt lat="44.9117986" lon="10.4765079"><ele>26.0</ele><time>2026-05-04T16:00:10.383Z</time></trkpt><trkpt lat="44.9118199" lon="10.4765992"><ele>26.0</ele><time>2026-05-04T16:00:11.384Z</time></trkpt><trkpt lat="44.9118649" lon="10.4767654"><ele>25.8</ele><time>2026-05-04T16:00:13.383Z</time></trkpt><trkpt lat="44.9118957" lon="10.4769407"><ele>25.6</ele><time>2026-05-04T16:00:15.384Z</time></trkpt><trkpt lat="44.9119337" lon="10.4771096"><ele>25.4</ele><time>2026-05-04T16:00:17.384Z</time></trkpt><trkpt lat="44.9119586" lon="10.4772683"><ele>25.2</ele><time>2026-05-04T16:00:19.384Z</time></trkpt><trkpt lat="44.9119754" lon="10.477356"><ele>25.0</ele><time>2026-05-04T16:00:20.384Z</time></trkpt><trkpt lat="44.9119959" lon="10.4774421"><ele>24.75</ele><time>2026-05-04T16:00:21.383Z</time></trkpt><trkpt lat="44.912028" lon="10.4776036"><ele>24.5</ele><time>2026-05-04T16:00:23.383Z</time></trkpt><trkpt lat="44.9120636" lon="10.4777694"><ele>24.25</ele><time>2026-05-04T16:00:25.384Z</time></trkpt><trkpt lat="44.9120954" lon="10.4779268"><ele>24.0</ele><time>2026-05-04T16:00:27.384Z</time></trkpt><trkpt lat="44.9121277" lon="10.4781"><ele>24.0</ele><time>2026-05-04T16:00:29.384Z</time></trkpt><trkpt lat="44.9121606" lon="10.4782664"><ele>24.0</ele><time>2026-05-04T16:00:31.384Z</time></trkpt><trkpt lat="44.9121937" lon="10.4784363"><ele>24.0</ele><time>2026-05-04T16:00:33.384Z</time></trkpt><trkpt lat="44.9122161" lon="10.4785196"><ele>24.0</ele><time>2026-05-04T16:00:34.384Z</time></trkpt><trkpt lat="44.9122576" lon="10.4786889"><ele>24.0</ele><time>2026-05-04T16:00:36.384Z</time></trkpt><trkpt lat="44.9122671" lon="10.478777"><ele>24.2</ele><time>2026-05-04T16:00:37.384Z</time></trkpt><trkpt lat="44.9122261" lon="10.4789314"><ele>24.4</ele><time>2026-05-04T16:00:39.384Z</time></trkpt><trkpt lat="44.9121259" lon="10.479037"><ele>24.6</ele><time>2026-05-04T16:00:41.384Z</time></trkpt><trkpt lat="44.9120597" lon="10.4790644"><ele>24.8</ele><time>2026-05-04T16:00:42.383Z</time></trkpt><trkpt lat="44.9119385" lon="10.4791119"><ele>25.0</ele><time>2026-05-04T16:00:44.384Z</time></trkpt><trkpt lat="44.9118168" lon="10.4791501"><ele>24.4</ele><time>2026-05-04T16:00:46.384Z</time></trkpt><trkpt lat="44.9116932" lon="10.4791754"><ele>23.8</ele><time>2026-05-04T16:00:48.383Z</time></trkpt><trkpt lat="44.9116294" lon="10.4791856"><ele>23.200000000000003</ele><time>2026-05-04T16:00:49.383Z</time></trkpt><trkpt lat="44.911565" lon="10.4792021"><ele>22.6</ele><time>2026-05-04T16:00:50.384Z</time></trkpt><trkpt lat="44.9114909" lon="10.4792027"><ele>22.0</ele><time>2026-05-04T16:00:51.383Z</time></trkpt><trkpt lat="44.9113697" lon="10.4792247"><ele>22.0</ele><time>2026-05-04T16:00:53.384Z</time></trkpt><trkpt lat="44.9113062" lon="10.4792372"><ele>22.0</ele><time>2026-05-04T16:00:54.384Z</time></trkpt><trkpt lat="44.9112433" lon="10.4792518"><ele>22.0</ele><time>2026-05-04T16:00:55.383Z</time></trkpt><trkpt lat="44.9111786" lon="10.4792664"><ele>22.0</ele><time>2026-05-04T16:00:56.383Z</time></trkpt><trkpt lat="44.911058" lon="10.4792919"><ele>22.0</ele><time>2026-05-04T16:00:58.384Z</time></trkpt><trkpt lat="44.9109946" lon="10.4793111"><ele>22.0</ele><time>2026-05-04T16:00:59.383Z</time></trkpt><trkpt lat="44.9109286" lon="10.4793163"><ele>22.0</ele><time>2026-05-04T16:01:00.384Z</time></trkpt><trkpt lat="44.9108643" lon="10.4793322"><ele>22.0</ele><time>2026-05-04T16:01:01.383Z</time></trkpt><trkpt lat="44.9108005" lon="10.4793345"><ele>22.0</ele><time>2026-05-04T16:01:02.384Z</time></trkpt><trkpt lat="44.9107338" lon="10.4793497"><ele>22.0</ele><time>2026-05-04T16:01:03.384Z</time></trkpt><trkpt lat="44.91067" lon="10.4793646"><ele>22.0</ele><time>2026-05-04T16:01:04.384Z</time></trkpt><trkpt lat="44.9106039" lon="10.479376"><ele>22.0</ele><time>2026-05-04T16:01:05.384Z</time></trkpt><trkpt lat="44.9105404" lon="10.4793887"><ele>22.0</ele><time>2026-05-04T16:01:06.384Z</time></trkpt><trkpt lat="44.9104297" lon="10.4794061"><ele>22.0</ele><time>2026-05-04T16:01:08.383Z</time></trkpt><trkpt lat="44.9103261" lon="10.4794202"><ele>22.0</ele><time>2026-05-04T16:01:10.383Z</time></trkpt><trkpt lat="44.9102113" lon="10.4794438"><ele>22.0</ele><time>2026-05-04T16:01:12.383Z</time></trkpt><trkpt lat="44.9100969" lon="10.4794612"><ele>22.0</ele><time>2026-05-04T16:01:14.383Z</time></trkpt><trkpt lat="44.9099823" lon="10.479486"><ele>22.0</ele><time>2026-05-04T16:01:16.383Z</time></trkpt><trkpt lat="44.9098636" lon="10.4794943"><ele>22.200000000000003</ele><time>2026-05-04T16:01:18.384Z</time></trkpt><trkpt lat="44.9098005" lon="10.4795027"><ele>22.4</ele><time>2026-05-04T16:01:19.384Z</time></trkpt><trkpt lat="44.90968" lon="10.4795065"><ele>22.6</ele><time>2026-05-04T16:01:21.384Z</time></trkpt><trkpt lat="44.9095616" lon="10.4794967"><ele>22.799999999999997</ele><time>2026-05-04T16:01:23.384Z</time></trkpt><trkpt lat="44.9094988" lon="10.4795042"><ele>23.0</ele><time>2026-05-04T16:01:24.384Z</time></trkpt><trkpt lat="44.9093818" lon="10.4795093"><ele>23.0</ele><time>2026-05-04T16:01:26.384Z</time></trkpt><trkpt lat="44.9093054" lon="10.4795011"><ele>23.0</ele><time>2026-05-04T16:01:27.384Z</time></trkpt><trkpt lat="44.9092416" lon="10.479506"><ele>23.0</ele><time>2026-05-04T16:01:28.383Z</time></trkpt><trkpt lat="44.9091225" lon="10.479519"><ele>23.0</ele><time>2026-05-04T16:01:30.384Z</time></trkpt><trkpt lat="44.9090033" lon="10.4795302"><ele>23.0</ele><time>2026-05-04T16:01:32.384Z</time></trkpt><trkpt lat="44.9088841" lon="10.4795351"><ele>23.25</ele><time>2026-05-04T16:01:34.383Z</time></trkpt><trkpt lat="44.9087566" lon="10.4795407"><ele>23.5</ele><time>2026-05-04T16:01:36.383Z</time></trkpt><trkpt lat="44.9086384" lon="10.4795459"><ele>23.75</ele><time>2026-05-04T16:01:38.383Z</time></trkpt><trkpt lat="44.9085163" lon="10.4795525"><ele>24.0</ele><time>2026-05-04T16:01:40.384Z</time></trkpt><trkpt lat="44.9083956" lon="10.4795505"><ele>24.4</ele><time>2026-05-04T16:01:42.384Z</time></trkpt><trkpt lat="44.9082883" lon="10.4795605"><ele>24.799999999999997</ele><time>2026-05-04T16:01:44.383Z</time></trkpt><trkpt lat="44.9081845" lon="10.4795552"><ele>25.200000000000003</ele><time>2026-05-04T16:01:46.384Z</time></trkpt><trkpt lat="44.9080899" lon="10.4795402"><ele>25.6</ele><time>2026-05-04T16:01:48.383Z</time></trkpt><trkpt lat="44.908" lon="10.4795153"><ele>26.0</ele><time>2026-05-04T16:01:50.384Z</time></trkpt><trkpt lat="44.9079113" lon="10.4795077"><ele>25.999999999999996</ele><time>2026-05-04T16:01:52.384Z</time></trkpt><trkpt lat="44.907831" lon="10.4794818"><ele>26.0</ele><time>2026-05-04T16:01:54.383Z</time></trkpt><trkpt lat="44.9077545" lon="10.4794728"><ele>26.0</ele><time>2026-05-04T16:01:56.384Z</time></trkpt><trkpt lat="44.9076771" lon="10.479467"><ele>26.0</ele><time>2026-05-04T16:01:58.384Z</time></trkpt><trkpt lat="44.9075815" lon="10.4794391"><ele>25.999999999999996</ele><time>2026-05-04T16:02:00.384Z</time></trkpt><trkpt lat="44.9074855" lon="10.4794342"><ele>26.0</ele><time>2026-05-04T16:02:02.384Z</time></trkpt><trkpt lat="44.9074047" lon="10.4794284"><ele>25.999999999999996</ele><time>2026-05-04T16:02:04.383Z</time></trkpt><trkpt lat="44.9073178" lon="10.4794308"><ele>26.0</ele><time>2026-05-04T16:02:07.383Z</time></trkpt><trkpt lat="44.9072582" lon="10.479461"><ele>26.0</ele><time>2026-05-04T16:02:09.383Z</time></trkpt><trkpt lat="44.9071807" lon="10.4794697"><ele>26.0</ele><time>2026-05-04T16:02:11.383Z</time></trkpt><trkpt lat="44.9070876" lon="10.4794593"><ele>25.999999999999996</ele><time>2026-05-04T16:02:13.384Z</time></trkpt><trkpt lat="44.9070006" lon="10.4794554"><ele>26.0</ele><time>2026-05-04T16:02:15.384Z</time></trkpt><trkpt lat="44.9069211" lon="10.4794362"><ele>26.0</ele><time>2026-05-04T16:02:17.383Z</time></trkpt><trkpt lat="44.9068565" lon="10.4793666"><ele>26.0</ele><time>2026-05-04T16:02:19.384Z</time></trkpt><trkpt lat="44.9068343" lon="10.4792217"><ele>26.0</ele><time>2026-05-04T16:02:21.384Z</time></trkpt><trkpt lat="44.9067933" lon="10.4790889"><ele>26.0</ele><time>2026-05-04T16:02:23.383Z</time></trkpt><trkpt lat="44.9067634" lon="10.4789418"><ele>26.0</ele><time>2026-05-04T16:02:25.384Z</time></trkpt><trkpt lat="44.9067174" lon="10.478778"><ele>26.25</ele><time>2026-05-04T16:02:27.383Z</time></trkpt><trkpt lat="44.9066902" lon="10.4786297"><ele>26.5</ele><time>2026-05-04T16:02:29.384Z</time></trkpt><trkpt lat="44.9066519" lon="10.4784816"><ele>26.75</ele><time>2026-05-04T16:02:31.384Z</time></trkpt><trkpt lat="44.9066216" lon="10.4783279"><ele>27.0</ele><time>2026-05-04T16:02:33.384Z</time></trkpt><trkpt lat="44.9065879" lon="10.4781666"><ele>27.0</ele><time>2026-05-04T16:02:35.383Z</time></trkpt><trkpt lat="44.9065531" lon="10.4780074"><ele>27.000000000000004</ele><time>2026-05-04T16:02:37.384Z</time></trkpt><trkpt lat="44.9065263" lon="10.4778444"><ele>27.000000000000004</ele><time>2026-05-04T16:02:39.384Z</time></trkpt><trkpt lat="44.9065059" lon="10.4777553"><ele>27.0</ele><time>2026-05-04T16:02:40.384Z</time></trkpt><trkpt lat="44.9064674" lon="10.4775883"><ele>27.0</ele><time>2026-05-04T16:02:42.383Z</time></trkpt><trkpt lat="44.90643" lon="10.477427"><ele>26.8</ele><time>2026-05-04T16:02:44.384Z</time></trkpt><trkpt lat="44.9063995" lon="10.4772489"><ele>26.6</ele><time>2026-05-04T16:02:46.384Z</time></trkpt><trkpt lat="44.9063735" lon="10.4771621"><ele>26.400000000000002</ele><time>2026-05-04T16:02:47.383Z</time></trkpt><trkpt lat="44.9063351" lon="10.4769974"><ele>26.200000000000003</ele><time>2026-05-04T16:02:49.384Z</time></trkpt><trkpt lat="44.9063228" lon="10.476902"><ele>26.0</ele><time>2026-05-04T16:02:50.384Z</time></trkpt><trkpt lat="44.9062901" lon="10.476741"><ele>26.0</ele><time>2026-05-04T16:02:52.383Z</time></trkpt><trkpt lat="44.9062408" lon="10.4765905"><ele>26.0</ele><time>2026-05-04T16:02:54.384Z</time></trkpt><trkpt lat="44.9061872" lon="10.4764295"><ele>26.0</ele><time>2026-05-04T16:02:56.383Z</time></trkpt><trkpt lat="44.9061623" lon="10.4763428"><ele>26.0</ele><time>2026-05-04T16:02:57.383Z</time></trkpt><trkpt lat="44.9061284" lon="10.4762545"><ele>26.0</ele><time>2026-05-04T16:02:58.384Z</time></trkpt><trkpt lat="44.9060765" lon="10.4760975"><ele>25.999999999999996</ele><time>2026-05-04T16:03:00.384Z</time></trkpt><trkpt lat="44.9060228" lon="10.4759452"><ele>26.0</ele><time>2026-05-04T16:03:02.384Z</time></trkpt><trkpt lat="44.9060107" lon="10.4758545"><ele>26.0</ele><time>2026-05-04T16:03:03.383Z</time></trkpt><trkpt lat="44.9059791" lon="10.475777"><ele>26.0</ele><time>2026-05-04T16:03:04.383Z</time></trkpt><trkpt lat="44.9059091" lon="10.4756224"><ele>25.999999999999996</ele><time>2026-05-04T16:03:06.384Z</time></trkpt><trkpt lat="44.90588" lon="10.4755349"><ele>26.0</ele><time>2026-05-04T16:03:07.384Z</time></trkpt><trkpt lat="44.9058254" lon="10.4753924"><ele>26.166666666666664</ele><time>2026-05-04T16:03:09.383Z</time></trkpt><trkpt lat="44.9057906" lon="10.4753172"><ele>26.333333333333332</ele><time>2026-05-04T16:03:10.384Z</time></trkpt><trkpt lat="44.9057567" lon="10.4752372"><ele>26.5</ele><time>2026-05-04T16:03:11.383Z</time></trkpt><trkpt lat="44.9057199" lon="10.4751644"><ele>26.666666666666664</ele><time>2026-05-04T16:03:12.383Z</time></trkpt><trkpt lat="44.9056842" lon="10.4750864"><ele>26.833333333333332</ele><time>2026-05-04T16:03:13.383Z</time></trkpt><trkpt lat="44.9056456" lon="10.4750146"><ele>27.0</ele><time>2026-05-04T16:03:14.383Z</time></trkpt><trkpt lat="44.9055791" lon="10.4748562"><ele>27.0</ele><time>2026-05-04T16:03:16.383Z</time></trkpt><trkpt lat="44.9055488" lon="10.4747781"><ele>27.000000000000004</ele><time>2026-05-04T16:03:17.384Z</time></trkpt><trkpt lat="44.9054757" lon="10.4746416"><ele>27.000000000000004</ele><time>2026-05-04T16:03:19.384Z</time></trkpt><trkpt lat="44.9054329" lon="10.4745706"><ele>27.0</ele><time>2026-05-04T16:03:20.383Z</time></trkpt><trkpt lat="44.9053589" lon="10.4744329"><ele>27.0</ele><time>2026-05-04T16:03:22.383Z</time></trkpt><trkpt lat="44.9052814" lon="10.4742959"><ele>27.0</ele><time>2026-05-04T16:03:24.384Z</time></trkpt><trkpt lat="44.9052413" lon="10.4742259"><ele>27.0</ele><time>2026-05-04T16:03:25.383Z</time></trkpt><trkpt lat="44.905158" lon="10.4740885"><ele>27.0</ele><time>2026-05-04T16:03:27.383Z</time></trkpt><trkpt lat="44.905068" lon="10.4739664"><ele>27.0</ele><time>2026-05-04T16:03:29.383Z</time></trkpt><trkpt lat="44.9050215" lon="10.473906"><ele>27.0</ele><time>2026-05-04T16:03:30.383Z</time></trkpt><trkpt lat="44.9049745" lon="10.4738452"><ele>27.0</ele><time>2026-05-04T16:03:31.383Z</time></trkpt><trkpt lat="44.9048903" lon="10.4737426"><ele>27.0</ele><time>2026-05-04T16:03:33.383Z</time></trkpt><trkpt lat="44.9048086" lon="10.4736141"><ele>27.0</ele><time>2026-05-04T16:03:35.383Z</time></trkpt><trkpt lat="44.9047593" lon="10.4735575"><ele>27.0</ele><time>2026-05-04T16:03:36.383Z</time></trkpt><trkpt lat="44.9047148" lon="10.4734929"><ele>27.0</ele><time>2026-05-04T16:03:37.384Z</time></trkpt><trkpt lat="44.9046643" lon="10.4734348"><ele>27.0</ele><time>2026-05-04T16:03:38.384Z</time></trkpt><trkpt lat="44.904575" lon="10.4733158"><ele>27.0</ele><time>2026-05-04T16:03:40.383Z</time></trkpt><trkpt lat="44.9044781" lon="10.4732046"><ele>27.0</ele><time>2026-05-04T16:03:42.383Z</time></trkpt><trkpt lat="44.9043864" lon="10.4730869"><ele>27.000000000000004</ele><time>2026-05-04T16:03:44.383Z</time></trkpt><trkpt lat="44.9042894" lon="10.4729773"><ele>27.000000000000004</ele><time>2026-05-04T16:03:46.384Z</time></trkpt><trkpt lat="44.9041918" lon="10.4728748"><ele>27.0</ele><time>2026-05-04T16:03:48.383Z</time></trkpt><trkpt lat="44.9041359" lon="10.4728267"><ele>27.0</ele><time>2026-05-04T16:03:49.384Z</time></trkpt><trkpt lat="44.9040317" lon="10.4727374"><ele>26.6</ele><time>2026-05-04T16:03:51.384Z</time></trkpt><trkpt lat="44.9039738" lon="10.4726914"><ele>26.200000000000003</ele><time>2026-05-04T16:03:52.384Z</time></trkpt><trkpt lat="44.9038698" lon="10.4726108"><ele>25.8</ele><time>2026-05-04T16:03:54.383Z</time></trkpt><trkpt lat="44.9037626" lon="10.4725287"><ele>25.4</ele><time>2026-05-04T16:03:56.384Z</time></trkpt><trkpt lat="44.9036544" lon="10.4724525"><ele>25.0</ele><time>2026-05-04T16:03:58.384Z</time></trkpt><trkpt lat="44.9035999" lon="10.4724012"><ele>25.0</ele><time>2026-05-04T16:03:59.384Z</time></trkpt><trkpt lat="44.9034969" lon="10.4722977"><ele>25.0</ele><time>2026-05-04T16:04:01.384Z</time></trkpt><trkpt lat="44.9033961" lon="10.4721884"><ele>25.0</ele><time>2026-05-04T16:04:03.383Z</time></trkpt><trkpt lat="44.9033073" lon="10.472061"><ele>25.0</ele><time>2026-05-04T16:04:05.383Z</time></trkpt><trkpt lat="44.9032322" lon="10.4719218"><ele>25.25</ele><time>2026-05-04T16:04:07.383Z</time></trkpt><trkpt lat="44.9031832" lon="10.4717675"><ele>25.5</ele><time>2026-05-04T16:04:09.383Z</time></trkpt><trkpt lat="44.9031373" lon="10.4716251"><ele>25.75</ele><time>2026-05-04T16:04:11.384Z</time></trkpt><trkpt lat="44.9030848" lon="10.4714746"><ele>26.0</ele><time>2026-05-04T16:04:13.383Z</time></trkpt><trkpt lat="44.9030423" lon="10.4713173"><ele>26.0</ele><time>2026-05-04T16:04:15.383Z</time></trkpt><trkpt lat="44.9030235" lon="10.4712281"><ele>26.0</ele><time>2026-05-04T16:04:16.384Z</time></trkpt><trkpt lat="44.9029857" lon="10.4710622"><ele>26.0</ele><time>2026-05-04T16:04:18.384Z</time></trkpt><trkpt lat="44.9029705" lon="10.4708933"><ele>26.0</ele><time>2026-05-04T16:04:20.384Z</time></trkpt><trkpt lat="44.9029641" lon="10.4707173"><ele>26.0</ele><time>2026-05-04T16:04:22.383Z</time></trkpt><trkpt lat="44.9029573" lon="10.4705516"><ele>26.5</ele><time>2026-05-04T16:04:24.383Z</time></trkpt><trkpt lat="44.9029678" lon="10.4703898"><ele>27.0</ele><time>2026-05-04T16:04:26.384Z</time></trkpt><trkpt lat="44.9029817" lon="10.4702217"><ele>27.5</ele><time>2026-05-04T16:04:28.383Z</time></trkpt><trkpt lat="44.9030009" lon="10.4700667"><ele>28.0</ele><time>2026-05-04T16:04:30.384Z</time></trkpt><trkpt lat="44.9030138" lon="10.4699045"><ele>28.0</ele><time>2026-05-04T16:04:32.383Z</time></trkpt><trkpt lat="44.9030384" lon="10.4697441"><ele>28.0</ele><time>2026-05-04T16:04:34.384Z</time></trkpt><trkpt lat="44.9030634" lon="10.4695795"><ele>28.0</ele><time>2026-05-04T16:04:36.383Z</time></trkpt><trkpt lat="44.9030607" lon="10.4693973"><ele>28.0</ele><time>2026-05-04T16:04:38.384Z</time></trkpt><trkpt lat="44.9030447" lon="10.4692377"><ele>27.799999999999997</ele><time>2026-05-04T16:04:40.383Z</time></trkpt><trkpt lat="44.9029771" lon="10.469103"><ele>27.599999999999998</ele><time>2026-05-04T16:04:42.384Z</time></trkpt><trkpt lat="44.9028838" lon="10.4690248"><ele>27.400000000000002</ele><time>2026-05-04T16:04:44.383Z</time></trkpt><trkpt lat="44.9028234" lon="10.4689724"><ele>27.200000000000003</ele><time>2026-05-04T16:04:45.384Z</time></trkpt><trkpt lat="44.9027245" lon="10.4688806"><ele>27.0</ele><time>2026-05-04T16:04:47.383Z</time></trkpt><trkpt lat="44.9026662" lon="10.4688411"><ele>26.8</ele><time>2026-05-04T16:04:48.384Z</time></trkpt><trkpt lat="44.9025633" lon="10.4687657"><ele>26.6</ele><time>2026-05-04T16:04:50.383Z</time></trkpt><trkpt lat="44.9025062" lon="10.4687272"><ele>26.400000000000002</ele><time>2026-05-04T16:04:51.383Z</time></trkpt><trkpt lat="44.9024075" lon="10.4686499"><ele>26.200000000000003</ele><time>2026-05-04T16:04:53.383Z</time></trkpt><trkpt lat="44.9023476" lon="10.4686122"><ele>26.0</ele><time>2026-05-04T16:04:54.384Z</time></trkpt><trkpt lat="44.9022446" lon="10.468531"><ele>26.0</ele><time>2026-05-04T16:04:56.384Z</time></trkpt><trkpt lat="44.9021415" lon="10.4684553"><ele>26.0</ele><time>2026-05-04T16:04:58.384Z</time></trkpt><trkpt lat="44.9020475" lon="10.4683891"><ele>26.0</ele><time>2026-05-04T16:05:00.384Z</time></trkpt><trkpt lat="44.9019639" lon="10.4683277"><ele>26.0</ele><time>2026-05-04T16:05:02.383Z</time></trkpt><trkpt lat="44.901883" lon="10.4682676"><ele>26.0</ele><time>2026-05-04T16:05:04.384Z</time></trkpt><trkpt lat="44.9018089" lon="10.4682217"><ele>25.499999999999996</ele><time>2026-05-04T16:05:06.384Z</time></trkpt><trkpt lat="44.901729" lon="10.4681634"><ele>25.0</ele><time>2026-05-04T16:05:08.384Z</time></trkpt><trkpt lat="44.9016624" lon="10.468121"><ele>24.5</ele><time>2026-05-04T16:05:10.383Z</time></trkpt><trkpt lat="44.9015795" lon="10.4681044"><ele>24.0</ele><time>2026-05-04T16:05:12.384Z</time></trkpt><trkpt lat="44.9014938" lon="10.4681038"><ele>23.5</ele><time>2026-05-04T16:05:14.383Z</time></trkpt><trkpt lat="44.9014257" lon="10.4681143"><ele>23.0</ele><time>2026-05-04T16:05:16.384Z</time></trkpt><trkpt lat="44.9013389" lon="10.4681054"><ele>23.0</ele><time>2026-05-04T16:05:19.383Z</time></trkpt><trkpt lat="44.9012554" lon="10.4680976"><ele>23.0</ele><time>2026-05-04T16:05:22.383Z</time></trkpt><trkpt lat="44.9011603" lon="10.4682743"><ele>23.0</ele><time>2026-05-04T16:07:15.383Z</time></trkpt><trkpt lat="44.9011575" lon="10.4684596"><ele>23.0</ele><time>2026-05-04T16:07:19.383Z</time></trkpt><trkpt lat="44.9011387" lon="10.4685693"><ele>23.0</ele><time>2026-05-04T16:07:21.384Z</time></trkpt><trkpt lat="44.9011124" lon="10.4686853"><ele>23.0</ele><time>2026-05-04T16:07:23.384Z</time></trkpt><trkpt lat="44.9010776" lon="10.4688046"><ele>23.0</ele><time>2026-05-04T16:07:25.384Z</time></trkpt><trkpt lat="44.9010334" lon="10.4689179"><ele>23.0</ele><time>2026-05-04T16:07:27.383Z</time></trkpt><trkpt lat="44.9009841" lon="10.4690351"><ele>23.0</ele><time>2026-05-04T16:07:29.384Z</time></trkpt><trkpt lat="44.9009253" lon="10.4691414"><ele>23.799999999999997</ele><time>2026-05-04T16:07:31.384Z</time></trkpt><trkpt lat="44.9008571" lon="10.4692383"><ele>24.6</ele><time>2026-05-04T16:07:33.384Z</time></trkpt><trkpt lat="44.900772" lon="10.4692952"><ele>25.400000000000002</ele><time>2026-05-04T16:07:35.384Z</time></trkpt><trkpt lat="44.9006862" lon="10.4692978"><ele>26.200000000000003</ele><time>2026-05-04T16:07:37.384Z</time></trkpt><trkpt lat="44.9005923" lon="10.4692714"><ele>27.0</ele><time>2026-05-04T16:07:39.383Z</time></trkpt><trkpt lat="44.9005083" lon="10.4692064"><ele>27.0</ele><time>2026-05-04T16:07:41.384Z</time></trkpt><trkpt lat="44.9004208" lon="10.4691278"><ele>27.000000000000004</ele><time>2026-05-04T16:07:43.384Z</time></trkpt><trkpt lat="44.9003386" lon="10.4690446"><ele>27.000000000000004</ele><time>2026-05-04T16:07:45.383Z</time></trkpt><trkpt lat="44.9002564" lon="10.4689811"><ele>27.0</ele><time>2026-05-04T16:07:47.383Z</time></trkpt><trkpt lat="44.9001787" lon="10.468897"><ele>27.0</ele><time>2026-05-04T16:07:49.384Z</time></trkpt><trkpt lat="44.9001125" lon="10.4688022"><ele>27.0</ele><time>2026-05-04T16:07:51.383Z</time></trkpt><trkpt lat="44.9000552" lon="10.4686865"><ele>27.000000000000004</ele><time>2026-05-04T16:07:53.384Z</time></trkpt><trkpt lat="44.9000062" lon="10.4685714"><ele>27.000000000000004</ele><time>2026-05-04T16:07:55.384Z</time></trkpt><trkpt lat="44.8999684" lon="10.4684407"><ele>27.0</ele><time>2026-05-04T16:07:57.383Z</time></trkpt><trkpt lat="44.8999444" lon="10.4683257"><ele>27.0</ele><time>2026-05-04T16:07:59.384Z</time></trkpt><trkpt lat="44.8999375" lon="10.4682251"><ele>27.0</ele><time>2026-05-04T16:08:01.384Z</time></trkpt><trkpt lat="44.8999413" lon="10.4681049"><ele>27.0</ele><time>2026-05-04T16:08:04.384Z</time></trkpt><trkpt lat="44.8999416" lon="10.4679906"><ele>27.0</ele><time>2026-05-04T16:08:07.384Z</time></trkpt><trkpt lat="44.8998838" lon="10.4679453"><ele>27.0</ele><time>2026-05-04T16:08:11.383Z</time></trkpt><trkpt lat="44.8997975" lon="10.4679739"><ele>27.0</ele><time>2026-05-04T16:08:14.384Z</time></trkpt><trkpt lat="44.899735" lon="10.4680029"><ele>27.0</ele><time>2026-05-04T16:08:16.384Z</time></trkpt><trkpt lat="44.8996692" lon="10.4680351"><ele>27.0</ele><time>2026-05-04T16:08:18.384Z</time></trkpt><trkpt lat="44.8996024" lon="10.468075"><ele>27.0</ele><time>2026-05-04T16:08:20.383Z</time></trkpt><trkpt lat="44.8995343" lon="10.4681113"><ele>27.0</ele><time>2026-05-04T16:08:22.384Z</time></trkpt><trkpt lat="44.8994683" lon="10.4681426"><ele>27.0</ele><time>2026-05-04T16:08:24.384Z</time></trkpt><trkpt lat="44.8993986" lon="10.4681737"><ele>27.0</ele><time>2026-05-04T16:08:26.383Z</time></trkpt><trkpt lat="44.899331" lon="10.4682033"><ele>27.0</ele><time>2026-05-04T16:08:28.383Z</time></trkpt><trkpt lat="44.899265" lon="10.4682285"><ele>27.0</ele><time>2026-05-04T16:08:30.384Z</time></trkpt><trkpt lat="44.8991856" lon="10.4682779"><ele>26.833333333333332</ele><time>2026-05-04T16:08:33.383Z</time></trkpt><trkpt lat="44.8991938" lon="10.4683796"><ele>26.666666666666664</ele><time>2026-05-04T16:08:35.383Z</time></trkpt><trkpt lat="44.8992161" lon="10.4684993"><ele>26.5</ele><time>2026-05-04T16:08:37.384Z</time></trkpt><trkpt lat="44.8992424" lon="10.4686031"><ele>26.333333333333332</ele><time>2026-05-04T16:08:39.384Z</time></trkpt><trkpt lat="44.8992024" lon="10.4686857"><ele>26.166666666666664</ele><time>2026-05-04T16:08:42.384Z</time></trkpt><trkpt lat="44.8991389" lon="10.4686298"><ele>26.0</ele><time>2026-05-04T16:08:45.384Z</time></trkpt><trkpt lat="44.8990903" lon="10.4685129"><ele>26.0</ele><time>2026-05-04T16:08:48.383Z</time></trkpt><trkpt lat="44.8990705" lon="10.468423"><ele>26.0</ele><time>2026-05-04T16:08:50.384Z</time></trkpt><trkpt lat="44.899071" lon="10.4683286"><ele>26.0</ele><time>2026-05-04T16:08:52.383Z</time></trkpt><trkpt lat="44.8990702" lon="10.4682358"><ele>26.0</ele><time>2026-05-04T16:08:54.383Z</time></trkpt><trkpt lat="44.8990667" lon="10.4681379"><ele>26.0</ele><time>2026-05-04T16:08:56.383Z</time></trkpt><trkpt lat="44.8990567" lon="10.4680331"><ele>26.0</ele><time>2026-05-04T16:08:58.384Z</time></trkpt><trkpt lat="44.8990481" lon="10.4679148"><ele>26.0</ele><time>2026-05-04T16:09:00.384Z</time></trkpt><trkpt lat="44.8990333" lon="10.4677932"><ele>26.4</ele><time>2026-05-04T16:09:02.384Z</time></trkpt><trkpt lat="44.8990129" lon="10.4676595"><ele>26.8</ele><time>2026-05-04T16:09:04.383Z</time></trkpt><trkpt lat="44.8989947" lon="10.4675207"><ele>27.199999999999996</ele><time>2026-05-04T16:09:06.384Z</time></trkpt><trkpt lat="44.8989711" lon="10.4673929"><ele>27.599999999999998</ele><time>2026-05-04T16:09:08.384Z</time></trkpt><trkpt lat="44.8989455" lon="10.4672614"><ele>28.0</ele><time>2026-05-04T16:09:10.384Z</time></trkpt><trkpt lat="44.8989207" lon="10.4671261"><ele>27.799999999999997</ele><time>2026-05-04T16:09:12.383Z</time></trkpt><trkpt lat="44.8988809" lon="10.4670018"><ele>27.599999999999998</ele><time>2026-05-04T16:09:14.384Z</time></trkpt><trkpt lat="44.8988479" lon="10.4668688"><ele>27.400000000000002</ele><time>2026-05-04T16:09:16.384Z</time></trkpt><trkpt lat="44.898804" lon="10.4667403"><ele>27.200000000000003</ele><time>2026-05-04T16:09:18.383Z</time></trkpt><trkpt lat="44.8987613" lon="10.4666143"><ele>27.0</ele><time>2026-05-04T16:09:20.383Z</time></trkpt><trkpt lat="44.8987066" lon="10.4664891"><ele>27.0</ele><time>2026-05-04T16:09:22.383Z</time></trkpt><trkpt lat="44.8986272" lon="10.4663093"><ele>27.0</ele><time>2026-05-04T16:09:25.383Z</time></trkpt><trkpt lat="44.8985588" lon="10.4661782"><ele>27.0</ele><time>2026-05-04T16:09:27.383Z</time></trkpt><trkpt lat="44.8985058" lon="10.4660469"><ele>27.0</ele><time>2026-05-04T16:09:29.384Z</time></trkpt><trkpt lat="44.8984625" lon="10.4659046"><ele>27.0</ele><time>2026-05-04T16:09:31.384Z</time></trkpt><trkpt lat="44.8984244" lon="10.4657704"><ele>27.000000000000004</ele><time>2026-05-04T16:09:33.383Z</time></trkpt><trkpt lat="44.8983847" lon="10.4656239"><ele>27.000000000000004</ele><time>2026-05-04T16:09:35.384Z</time></trkpt><trkpt lat="44.8983257" lon="10.465494"><ele>27.0</ele><time>2026-05-04T16:09:37.383Z</time></trkpt><trkpt lat="44.8982486" lon="10.4653688"><ele>27.0</ele><time>2026-05-04T16:09:39.384Z</time></trkpt><trkpt lat="44.8981932" lon="10.4652864"><ele>27.0</ele><time>2026-05-04T16:09:40.384Z</time></trkpt><trkpt lat="44.8981409" lon="10.4652169"><ele>27.0</ele><time>2026-05-04T16:09:41.384Z</time></trkpt><trkpt lat="44.8980901" lon="10.4651524"><ele>27.0</ele><time>2026-05-04T16:09:42.384Z</time></trkpt><trkpt lat="44.8980448" lon="10.4650885"><ele>27.0</ele><time>2026-05-04T16:09:43.384Z</time></trkpt><trkpt lat="44.8979886" lon="10.4650285"><ele>27.0</ele><time>2026-05-04T16:09:44.383Z</time></trkpt><trkpt lat="44.8979363" lon="10.4649693"><ele>27.0</ele><time>2026-05-04T16:09:45.383Z</time></trkpt><trkpt lat="44.8978352" lon="10.4648628"><ele>27.0</ele><time>2026-05-04T16:09:47.383Z</time></trkpt><trkpt lat="44.8977859" lon="10.4647996"><ele>27.0</ele><time>2026-05-04T16:09:48.384Z</time></trkpt><trkpt lat="44.8977373" lon="10.4647362"><ele>27.0</ele><time>2026-05-04T16:09:49.383Z</time></trkpt><trkpt lat="44.8976847" lon="10.4646852"><ele>27.0</ele><time>2026-05-04T16:09:50.384Z</time></trkpt><trkpt lat="44.8976047" lon="10.464583"><ele>27.0</ele><time>2026-05-04T16:09:52.383Z</time></trkpt><trkpt lat="44.8975557" lon="10.4644931"><ele>27.0</ele><time>2026-05-04T16:09:54.383Z</time></trkpt><trkpt lat="44.8974707" lon="10.4644127"><ele>27.400000000000002</ele><time>2026-05-04T16:09:56.384Z</time></trkpt><trkpt lat="44.8973828" lon="10.4643436"><ele>27.800000000000004</ele><time>2026-05-04T16:09:58.383Z</time></trkpt><trkpt lat="44.8972838" lon="10.4642866"><ele>28.2</ele><time>2026-05-04T16:10:00.383Z</time></trkpt><trkpt lat="44.8971999" lon="10.4641913"><ele>28.6</ele><time>2026-05-04T16:10:02.384Z</time></trkpt><trkpt lat="44.8971098" lon="10.4641091"><ele>29.0</ele><time>2026-05-04T16:10:04.383Z</time></trkpt><trkpt lat="44.8970142" lon="10.4640451"><ele>29.0</ele><time>2026-05-04T16:10:06.383Z</time></trkpt><trkpt lat="44.8969018" lon="10.4640038"><ele>29.0</ele><time>2026-05-04T16:10:08.383Z</time></trkpt><trkpt lat="44.8967814" lon="10.4639955"><ele>29.0</ele><time>2026-05-04T16:10:10.383Z</time></trkpt><trkpt lat="44.8966729" lon="10.4639815"><ele>29.0</ele><time>2026-05-04T16:10:12.384Z</time></trkpt><trkpt lat="44.8966097" lon="10.4639939"><ele>29.0</ele><time>2026-05-04T16:10:13.383Z</time></trkpt><trkpt lat="44.8964979" lon="10.4640067"><ele>28.6</ele><time>2026-05-04T16:10:15.384Z</time></trkpt><trkpt lat="44.8963882" lon="10.4640151"><ele>28.2</ele><time>2026-05-04T16:10:17.383Z</time></trkpt><trkpt lat="44.8962794" lon="10.4640419"><ele>27.800000000000004</ele><time>2026-05-04T16:10:19.383Z</time></trkpt><trkpt lat="44.8961653" lon="10.4640639"><ele>27.400000000000002</ele><time>2026-05-04T16:10:21.384Z</time></trkpt><trkpt lat="44.8961014" lon="10.4640841"><ele>27.0</ele><time>2026-05-04T16:10:22.383Z</time></trkpt><trkpt lat="44.8959901" lon="10.4641261"><ele>27.25</ele><time>2026-05-04T16:10:24.383Z</time></trkpt><trkpt lat="44.8958711" lon="10.4641522"><ele>27.5</ele><time>2026-05-04T16:10:26.383Z</time></trkpt><trkpt lat="44.8957771" lon="10.4642134"><ele>27.75</ele><time>2026-05-04T16:10:28.383Z</time></trkpt><trkpt lat="44.8956607" lon="10.4642445"><ele>28.0</ele><time>2026-05-04T16:10:30.384Z</time></trkpt><trkpt lat="44.8955466" lon="10.4642679"><ele>28.0</ele><time>2026-05-04T16:10:32.384Z</time></trkpt><trkpt lat="44.8954344" lon="10.4642878"><ele>27.999999999999996</ele><time>2026-05-04T16:10:34.383Z</time></trkpt><trkpt lat="44.8953686" lon="10.4642928"><ele>27.999999999999996</ele><time>2026-05-04T16:10:35.383Z</time></trkpt><trkpt lat="44.8952614" lon="10.4642898"><ele>28.0</ele><time>2026-05-04T16:10:37.384Z</time></trkpt><trkpt lat="44.8951544" lon="10.4642947"><ele>28.0</ele><time>2026-05-04T16:10:39.383Z</time></trkpt><trkpt lat="44.8950436" lon="10.4642932"><ele>27.799999999999997</ele><time>2026-05-04T16:10:41.384Z</time></trkpt><trkpt lat="44.8949287" lon="10.4642781"><ele>27.599999999999998</ele><time>2026-05-04T16:10:43.383Z</time></trkpt><trkpt lat="44.8948646" lon="10.4642816"><ele>27.400000000000002</ele><time>2026-05-04T16:10:44.384Z</time></trkpt><trkpt lat="44.8947533" lon="10.4642668"><ele>27.200000000000003</ele><time>2026-05-04T16:10:46.384Z</time></trkpt><trkpt lat="44.8946388" lon="10.4642339"><ele>27.0</ele><time>2026-05-04T16:10:48.383Z</time></trkpt><trkpt lat="44.8945202" lon="10.4642013"><ele>27.0</ele><time>2026-05-04T16:10:50.383Z</time></trkpt><trkpt lat="44.8944076" lon="10.4641763"><ele>27.000000000000004</ele><time>2026-05-04T16:10:52.383Z</time></trkpt><trkpt lat="44.8943441" lon="10.4641606"><ele>27.000000000000004</ele><time>2026-05-04T16:10:53.384Z</time></trkpt><trkpt lat="44.8942256" lon="10.4641142"><ele>27.0</ele><time>2026-05-04T16:10:55.383Z</time></trkpt><trkpt lat="44.8941091" lon="10.4640699"><ele>27.0</ele><time>2026-05-04T16:10:57.383Z</time></trkpt><trkpt lat="44.8939909" lon="10.4640249"><ele>26.400000000000002</ele><time>2026-05-04T16:10:59.384Z</time></trkpt><trkpt lat="44.8938732" lon="10.4639772"><ele>25.800000000000004</ele><time>2026-05-04T16:11:01.383Z</time></trkpt><trkpt lat="44.8937689" lon="10.4639443"><ele>25.2</ele><time>2026-05-04T16:11:03.383Z</time></trkpt><trkpt lat="44.8937022" lon="10.4639312"><ele>24.6</ele><time>2026-05-04T16:11:04.383Z</time></trkpt><trkpt lat="44.8935855" lon="10.4638929"><ele>24.0</ele><time>2026-05-04T16:11:06.384Z</time></trkpt><trkpt lat="44.8934671" lon="10.4638601"><ele>24.166666666666668</ele><time>2026-05-04T16:11:08.384Z</time></trkpt><trkpt lat="44.8934084" lon="10.463826"><ele>24.333333333333336</ele><time>2026-05-04T16:11:09.383Z</time></trkpt><trkpt lat="44.8933044" lon="10.4637734"><ele>24.5</ele><time>2026-05-04T16:11:11.384Z</time></trkpt><trkpt lat="44.8932368" lon="10.4637539"><ele>24.666666666666668</ele><time>2026-05-04T16:11:12.383Z</time></trkpt><trkpt lat="44.8931306" lon="10.4637058"><ele>24.833333333333336</ele><time>2026-05-04T16:11:14.384Z</time></trkpt><trkpt lat="44.8930681" lon="10.4636844"><ele>25.0</ele><time>2026-05-04T16:11:15.384Z</time></trkpt><trkpt lat="44.8929566" lon="10.4636344"><ele>25.0</ele><time>2026-05-04T16:11:17.384Z</time></trkpt><trkpt lat="44.892836" lon="10.4635889"><ele>25.0</ele><time>2026-05-04T16:11:19.384Z</time></trkpt><trkpt lat="44.8927247" lon="10.4635248"><ele>25.0</ele><time>2026-05-04T16:11:21.383Z</time></trkpt><trkpt lat="44.8926076" lon="10.4634577"><ele>25.0</ele><time>2026-05-04T16:11:23.384Z</time></trkpt><trkpt lat="44.8924867" lon="10.4634093"><ele>25.0</ele><time>2026-05-04T16:11:25.384Z</time></trkpt><trkpt lat="44.892371" lon="10.4633555"><ele>25.0</ele><time>2026-05-04T16:11:27.384Z</time></trkpt><trkpt lat="44.8922429" lon="10.4633215"><ele>25.0</ele><time>2026-05-04T16:11:29.384Z</time></trkpt><trkpt lat="44.8921311" lon="10.46327"><ele>25.0</ele><time>2026-05-04T16:11:31.384Z</time></trkpt><trkpt lat="44.8920624" lon="10.4632604"><ele>25.0</ele><time>2026-05-04T16:11:32.384Z</time></trkpt><trkpt lat="44.8920018" lon="10.4632351"><ele>25.0</ele><time>2026-05-04T16:11:33.384Z</time></trkpt><trkpt lat="44.8918818" lon="10.4631979"><ele>25.0</ele><time>2026-05-04T16:11:35.383Z</time></trkpt><trkpt lat="44.8918166" lon="10.4631766"><ele>25.0</ele><time>2026-05-04T16:11:36.384Z</time></trkpt><trkpt lat="44.8917131" lon="10.4631329"><ele>25.0</ele><time>2026-05-04T16:11:38.384Z</time></trkpt><trkpt lat="44.8916151" lon="10.4630503"><ele>25.0</ele><time>2026-05-04T16:11:40.383Z</time></trkpt><trkpt lat="44.891507" lon="10.4629795"><ele>25.25</ele><time>2026-05-04T16:11:42.384Z</time></trkpt><trkpt lat="44.8914091" lon="10.4629039"><ele>25.5</ele><time>2026-05-04T16:11:44.384Z</time></trkpt><trkpt lat="44.8913021" lon="10.4628203"><ele>25.75</ele><time>2026-05-04T16:11:46.383Z</time></trkpt><trkpt lat="44.8911888" lon="10.4627458"><ele>26.0</ele><time>2026-05-04T16:11:48.383Z</time></trkpt><trkpt lat="44.8910811" lon="10.4626774"><ele>26.0</ele><time>2026-05-04T16:11:50.384Z</time></trkpt><trkpt lat="44.8909746" lon="10.4625938"><ele>26.0</ele><time>2026-05-04T16:11:52.384Z</time></trkpt><trkpt lat="44.8908662" lon="10.4625204"><ele>26.0</ele><time>2026-05-04T16:11:54.383Z</time></trkpt><trkpt lat="44.8907585" lon="10.4624331"><ele>26.0</ele><time>2026-05-04T16:11:56.384Z</time></trkpt><trkpt lat="44.8906484" lon="10.4623461"><ele>26.0</ele><time>2026-05-04T16:11:58.383Z</time></trkpt><trkpt lat="44.8905422" lon="10.462256"><ele>26.0</ele><time>2026-05-04T16:12:00.383Z</time></trkpt><trkpt lat="44.8904872" lon="10.4622123"><ele>26.0</ele><time>2026-05-04T16:12:01.383Z</time></trkpt><trkpt lat="44.8904346" lon="10.4621591"><ele>26.0</ele><time>2026-05-04T16:12:02.383Z</time></trkpt><trkpt lat="44.8903426" lon="10.4620677"><ele>26.0</ele><time>2026-05-04T16:12:04.384Z</time></trkpt><trkpt lat="44.8902301" lon="10.4619892"><ele>26.0</ele><time>2026-05-04T16:12:06.383Z</time></trkpt><trkpt lat="44.890132" lon="10.4619126"><ele>26.0</ele><time>2026-05-04T16:12:08.384Z</time></trkpt><trkpt lat="44.8900302" lon="10.4618305"><ele>26.0</ele><time>2026-05-04T16:12:10.383Z</time></trkpt><trkpt lat="44.8899814" lon="10.4617732"><ele>26.0</ele><time>2026-05-04T16:12:11.384Z</time></trkpt><trkpt lat="44.8898736" lon="10.4616927"><ele>26.0</ele><time>2026-05-04T16:12:13.383Z</time></trkpt><trkpt lat="44.8898177" lon="10.4616475"><ele>26.4</ele><time>2026-05-04T16:12:14.383Z</time></trkpt><trkpt lat="44.8896973" lon="10.4615847"><ele>26.8</ele><time>2026-05-04T16:12:16.384Z</time></trkpt><trkpt lat="44.8896336" lon="10.4615557"><ele>27.199999999999996</ele><time>2026-05-04T16:12:17.384Z</time></trkpt><trkpt lat="44.8895188" lon="10.4614818"><ele>27.599999999999998</ele><time>2026-05-04T16:12:19.383Z</time></trkpt><trkpt lat="44.8894064" lon="10.4614201"><ele>28.0</ele><time>2026-05-04T16:12:21.384Z</time></trkpt><trkpt lat="44.8893449" lon="10.4613934"><ele>28.000000000000004</ele><time>2026-05-04T16:12:22.384Z</time></trkpt><trkpt lat="44.8892758" lon="10.4613732"><ele>28.0</ele><time>2026-05-04T16:12:23.383Z</time></trkpt><trkpt lat="44.8892148" lon="10.4613418"><ele>28.0</ele><time>2026-05-04T16:12:24.384Z</time></trkpt><trkpt lat="44.8890969" lon="10.4612825"><ele>28.0</ele><time>2026-05-04T16:12:26.383Z</time></trkpt><trkpt lat="44.8890341" lon="10.4612579"><ele>28.000000000000004</ele><time>2026-05-04T16:12:27.383Z</time></trkpt><trkpt lat="44.888969" lon="10.4612329"><ele>28.0</ele><time>2026-05-04T16:12:28.384Z</time></trkpt><trkpt lat="44.8889084" lon="10.4612007"><ele>27.333333333333336</ele><time>2026-05-04T16:12:29.384Z</time></trkpt><trkpt lat="44.888845" lon="10.4611664"><ele>26.666666666666668</ele><time>2026-05-04T16:12:30.383Z</time></trkpt><trkpt lat="44.8887355" lon="10.4611001"><ele>26.0</ele><time>2026-05-04T16:12:32.384Z</time></trkpt><trkpt lat="44.8886221" lon="10.4610384"><ele>25.333333333333336</ele><time>2026-05-04T16:12:34.384Z</time></trkpt><trkpt lat="44.888555" lon="10.4610139"><ele>24.666666666666668</ele><time>2026-05-04T16:12:35.384Z</time></trkpt><trkpt lat="44.8884944" lon="10.4609879"><ele>24.0</ele><time>2026-05-04T16:12:36.384Z</time></trkpt><trkpt lat="44.8883998" lon="10.4609324"><ele>25.6</ele><time>2026-05-04T16:12:38.383Z</time></trkpt><trkpt lat="44.8883375" lon="10.4609193"><ele>27.2</ele><time>2026-05-04T16:12:39.383Z</time></trkpt><trkpt lat="44.8882676" lon="10.4609013"><ele>28.800000000000004</ele><time>2026-05-04T16:12:40.384Z</time></trkpt><trkpt lat="44.888158" lon="10.4608641"><ele>30.400000000000002</ele><time>2026-05-04T16:12:42.383Z</time></trkpt><trkpt lat="44.8880438" lon="10.4608252"><ele>32.0</ele><time>2026-05-04T16:12:44.383Z</time></trkpt><trkpt lat="44.8879307" lon="10.460792"><ele>32.0</ele><time>2026-05-04T16:12:46.384Z</time></trkpt><trkpt lat="44.8878662" lon="10.4607889"><ele>32.0</ele><time>2026-05-04T16:12:47.384Z</time></trkpt><trkpt lat="44.8877587" lon="10.4607577"><ele>32.0</ele><time>2026-05-04T16:12:49.384Z</time></trkpt><trkpt lat="44.8876367" lon="10.4607273"><ele>32.0</ele><time>2026-05-04T16:12:51.384Z</time></trkpt><trkpt lat="44.8875144" lon="10.4607177"><ele>32.0</ele><time>2026-05-04T16:12:53.383Z</time></trkpt><trkpt lat="44.8874479" lon="10.4607187"><ele>33.4</ele><time>2026-05-04T16:12:54.383Z</time></trkpt><trkpt lat="44.8873847" lon="10.4607208"><ele>34.800000000000004</ele><time>2026-05-04T16:12:55.383Z</time></trkpt><trkpt lat="44.8872673" lon="10.4607536"><ele>36.2</ele><time>2026-05-04T16:12:57.383Z</time></trkpt><trkpt lat="44.8871487" lon="10.4607693"><ele>37.6</ele><time>2026-05-04T16:12:59.384Z</time></trkpt><trkpt lat="44.8870395" lon="10.4607898"><ele>39.0</ele><time>2026-05-04T16:13:01.383Z</time></trkpt><trkpt lat="44.8869202" lon="10.4608452"><ele>39.0</ele><time>2026-05-04T16:13:03.384Z</time></trkpt><trkpt lat="44.8868621" lon="10.4608895"><ele>39.0</ele><time>2026-05-04T16:13:04.384Z</time></trkpt><trkpt lat="44.8868072" lon="10.460933"><ele>39.0</ele><time>2026-05-04T16:13:05.383Z</time></trkpt><trkpt lat="44.8867064" lon="10.4610022"><ele>39.0</ele><time>2026-05-04T16:13:07.383Z</time></trkpt><trkpt lat="44.8866078" lon="10.4611033"><ele>39.0</ele><time>2026-05-04T16:13:09.384Z</time></trkpt><trkpt lat="44.8865381" lon="10.4612483"><ele>37.8</ele><time>2026-05-04T16:13:11.383Z</time></trkpt><trkpt lat="44.8865273" lon="10.4614085"><ele>36.599999999999994</ele><time>2026-05-04T16:13:13.384Z</time></trkpt><trkpt lat="44.8865356" lon="10.4615006"><ele>35.4</ele><time>2026-05-04T16:13:14.384Z</time></trkpt><trkpt lat="44.886569" lon="10.4616595"><ele>34.199999999999996</ele><time>2026-05-04T16:13:16.384Z</time></trkpt><trkpt lat="44.8866118" lon="10.4618405"><ele>33.0</ele><time>2026-05-04T16:13:18.384Z</time></trkpt><trkpt lat="44.8866683" lon="10.4620016"><ele>33.333333333333336</ele><time>2026-05-04T16:13:20.383Z</time></trkpt><trkpt lat="44.8867164" lon="10.4621448"><ele>33.666666666666664</ele><time>2026-05-04T16:13:22.383Z</time></trkpt><trkpt lat="44.88676" lon="10.4623061"><ele>34.0</ele><time>2026-05-04T16:13:24.384Z</time></trkpt><trkpt lat="44.8867827" lon="10.4623906"><ele>34.33333333333333</ele><time>2026-05-04T16:13:25.384Z</time></trkpt><trkpt lat="44.8868044" lon="10.4624748"><ele>34.666666666666664</ele><time>2026-05-04T16:13:26.383Z</time></trkpt><trkpt lat="44.8868284" lon="10.4625616"><ele>35.0</ele><time>2026-05-04T16:13:27.384Z</time></trkpt><trkpt lat="44.886877" lon="10.4627232"><ele>35.0</ele><time>2026-05-04T16:13:29.383Z</time></trkpt><trkpt lat="44.8869091" lon="10.4628921"><ele>35.0</ele><time>2026-05-04T16:13:31.384Z</time></trkpt><trkpt lat="44.8869388" lon="10.4629726"><ele>35.0</ele><time>2026-05-04T16:13:32.383Z</time></trkpt><trkpt lat="44.8869788" lon="10.4631398"><ele>35.0</ele><time>2026-05-04T16:13:34.384Z</time></trkpt><trkpt lat="44.8870172" lon="10.4633119"><ele>35.0</ele><time>2026-05-04T16:13:36.383Z</time></trkpt><trkpt lat="44.8870367" lon="10.4633983"><ele>34.8</ele><time>2026-05-04T16:13:37.383Z</time></trkpt><trkpt lat="44.8870567" lon="10.4634899"><ele>34.6</ele><time>2026-05-04T16:13:38.383Z</time></trkpt><trkpt lat="44.8870952" lon="10.4636643"><ele>34.4</ele><time>2026-05-04T16:13:40.384Z</time></trkpt><trkpt lat="44.8871129" lon="10.4637519"><ele>34.2</ele><time>2026-05-04T16:13:41.384Z</time></trkpt><trkpt lat="44.8871265" lon="10.4638395"><ele>34.0</ele><time>2026-05-04T16:13:42.384Z</time></trkpt><trkpt lat="44.887162" lon="10.4640081"><ele>34.0</ele><time>2026-05-04T16:13:44.384Z</time></trkpt><trkpt lat="44.8871717" lon="10.4640999"><ele>34.0</ele><time>2026-05-04T16:13:45.384Z</time></trkpt><trkpt lat="44.8871955" lon="10.4642764"><ele>34.0</ele><time>2026-05-04T16:13:47.383Z</time></trkpt><trkpt lat="44.8872299" lon="10.4644417"><ele>34.0</ele><time>2026-05-04T16:13:49.384Z</time></trkpt><trkpt lat="44.8872445" lon="10.4645315"><ele>34.0</ele><time>2026-05-04T16:13:50.383Z</time></trkpt><trkpt lat="44.8872572" lon="10.4646197"><ele>34.0</ele><time>2026-05-04T16:13:51.383Z</time></trkpt><trkpt lat="44.8872878" lon="10.4647893"><ele>33.16666666666667</ele><time>2026-05-04T16:13:53.383Z</time></trkpt><trkpt lat="44.8873047" lon="10.4648854"><ele>32.333333333333336</ele><time>2026-05-04T16:13:54.383Z</time></trkpt><trkpt lat="44.8873214" lon="10.4649751"><ele>31.5</ele><time>2026-05-04T16:13:55.383Z</time></trkpt><trkpt lat="44.8873464" lon="10.4651483"><ele>30.666666666666664</ele><time>2026-05-04T16:13:57.383Z</time></trkpt><trkpt lat="44.8873557" lon="10.4652397"><ele>29.833333333333332</ele><time>2026-05-04T16:13:58.383Z</time></trkpt><trkpt lat="44.8873662" lon="10.4654068"><ele>29.0</ele><time>2026-05-04T16:14:00.384Z</time></trkpt><trkpt lat="44.8873793" lon="10.4654946"><ele>28.6</ele><time>2026-05-04T16:14:01.384Z</time></trkpt><trkpt lat="44.8874049" lon="10.4656626"><ele>28.2</ele><time>2026-05-04T16:14:03.383Z</time></trkpt><trkpt lat="44.8874106" lon="10.4658351"><ele>27.800000000000004</ele><time>2026-05-04T16:14:05.384Z</time></trkpt><trkpt lat="44.8874221" lon="10.4660065"><ele>27.400000000000002</ele><time>2026-05-04T16:14:07.384Z</time></trkpt><trkpt lat="44.8874265" lon="10.4661022"><ele>27.0</ele><time>2026-05-04T16:14:08.384Z</time></trkpt><trkpt lat="44.8874484" lon="10.4662854"><ele>27.0</ele><time>2026-05-04T16:14:10.384Z</time></trkpt><trkpt lat="44.88746" lon="10.4663801"><ele>27.0</ele><time>2026-05-04T16:14:11.384Z</time></trkpt><trkpt lat="44.8874646" lon="10.4664749"><ele>27.0</ele><time>2026-05-04T16:14:12.384Z</time></trkpt><trkpt lat="44.8874773" lon="10.4666441"><ele>27.0</ele><time>2026-05-04T16:14:14.383Z</time></trkpt><trkpt lat="44.8874875" lon="10.4667332"><ele>27.0</ele><time>2026-05-04T16:14:15.384Z</time></trkpt><trkpt lat="44.8875006" lon="10.4669108"><ele>27.0</ele><time>2026-05-04T16:14:17.383Z</time></trkpt><trkpt lat="44.8875112" lon="10.4670012"><ele>27.0</ele><time>2026-05-04T16:14:18.384Z</time></trkpt><trkpt lat="44.8875235" lon="10.4670915"><ele>27.0</ele><time>2026-05-04T16:14:19.384Z</time></trkpt><trkpt lat="44.8875378" lon="10.4671788"><ele>27.0</ele><time>2026-05-04T16:14:20.383Z</time></trkpt><trkpt lat="44.8875654" lon="10.4673418"><ele>27.0</ele><time>2026-05-04T16:14:22.384Z</time></trkpt><trkpt lat="44.8875728" lon="10.4674352"><ele>27.0</ele><time>2026-05-04T16:14:23.383Z</time></trkpt><trkpt lat="44.8875794" lon="10.4675291"><ele>27.0</ele><time>2026-05-04T16:14:24.384Z</time></trkpt><trkpt lat="44.887587" lon="10.4677077"><ele>27.0</ele><time>2026-05-04T16:14:26.384Z</time></trkpt><trkpt lat="44.8875949" lon="10.4677968"><ele>27.000000000000004</ele><time>2026-05-04T16:14:27.384Z</time></trkpt><trkpt lat="44.8875947" lon="10.467886"><ele>27.000000000000004</ele><time>2026-05-04T16:14:28.383Z</time></trkpt><trkpt lat="44.8875858" lon="10.4680584"><ele>27.0</ele><time>2026-05-04T16:14:30.384Z</time></trkpt><trkpt lat="44.8875577" lon="10.4682065"><ele>27.0</ele><time>2026-05-04T16:14:32.384Z</time></trkpt><trkpt lat="44.8875144" lon="10.4683707"><ele>27.0</ele><time>2026-05-04T16:14:34.383Z</time></trkpt><trkpt lat="44.8874786" lon="10.4684447"><ele>27.0</ele><time>2026-05-04T16:14:35.383Z</time></trkpt><trkpt lat="44.8874217" lon="10.4685879"><ele>27.0</ele><time>2026-05-04T16:14:37.383Z</time></trkpt><trkpt lat="44.8873432" lon="10.468703"><ele>27.0</ele><time>2026-05-04T16:14:39.383Z</time></trkpt><trkpt lat="44.8872995" lon="10.4687703"><ele>27.0</ele><time>2026-05-04T16:14:40.384Z</time></trkpt><trkpt lat="44.8872479" lon="10.4688242"><ele>27.0</ele><time>2026-05-04T16:14:41.383Z</time></trkpt><trkpt lat="44.887159" lon="10.4689302"><ele>27.57142857142857</ele><time>2026-05-04T16:14:43.384Z</time></trkpt><trkpt lat="44.8871118" lon="10.4689957"><ele>28.142857142857142</ele><time>2026-05-04T16:14:44.383Z</time></trkpt><trkpt lat="44.8870636" lon="10.4690545"><ele>28.714285714285715</ele><time>2026-05-04T16:14:45.383Z</time></trkpt><trkpt lat="44.8869787" lon="10.4691691"><ele>29.285714285714285</ele><time>2026-05-04T16:14:47.384Z</time></trkpt><trkpt lat="44.886931" lon="10.469232"><ele>29.85714285714286</ele><time>2026-05-04T16:14:48.384Z</time></trkpt><trkpt lat="44.8868825" lon="10.4692939"><ele>30.42857142857143</ele><time>2026-05-04T16:14:49.384Z</time></trkpt><trkpt lat="44.8868322" lon="10.4693574"><ele>31.0</ele><time>2026-05-04T16:14:50.384Z</time></trkpt><trkpt lat="44.8867832" lon="10.4694179"><ele>30.8</ele><time>2026-05-04T16:14:51.383Z</time></trkpt><trkpt lat="44.8867313" lon="10.4694871"><ele>30.6</ele><time>2026-05-04T16:14:52.383Z</time></trkpt><trkpt lat="44.8866454" lon="10.4696128"><ele>30.4</ele><time>2026-05-04T16:14:54.384Z</time></trkpt><trkpt lat="44.886547" lon="10.4697355"><ele>30.2</ele><time>2026-05-04T16:14:56.384Z</time></trkpt><trkpt lat="44.8864982" lon="10.4698028"><ele>30.0</ele><time>2026-05-04T16:14:57.383Z</time></trkpt><trkpt lat="44.8864034" lon="10.4699181"><ele>30.0</ele><time>2026-05-04T16:14:59.383Z</time></trkpt><trkpt lat="44.886313" lon="10.4700098"><ele>30.0</ele><time>2026-05-04T16:15:01.384Z</time></trkpt><trkpt lat="44.8862571" lon="10.4700757"><ele>30.0</ele><time>2026-05-04T16:15:02.384Z</time></trkpt><trkpt lat="44.8862021" lon="10.4701352"><ele>30.0</ele><time>2026-05-04T16:15:03.383Z</time></trkpt><trkpt lat="44.8861457" lon="10.4701991"><ele>30.0</ele><time>2026-05-04T16:15:04.383Z</time></trkpt><trkpt lat="44.8860904" lon="10.4702616"><ele>30.0</ele><time>2026-05-04T16:15:05.384Z</time></trkpt><trkpt lat="44.8860319" lon="10.4703124"><ele>30.0</ele><time>2026-05-04T16:15:06.383Z</time></trkpt><trkpt lat="44.8859769" lon="10.470361"><ele>30.0</ele><time>2026-05-04T16:15:07.383Z</time></trkpt><trkpt lat="44.8859176" lon="10.4704011"><ele>30.0</ele><time>2026-05-04T16:15:08.384Z</time></trkpt><trkpt lat="44.8858595" lon="10.4704472"><ele>30.0</ele><time>2026-05-04T16:15:09.383Z</time></trkpt><trkpt lat="44.8858021" lon="10.470491"><ele>30.0</ele><time>2026-05-04T16:15:10.383Z</time></trkpt><trkpt lat="44.8857436" lon="10.4705319"><ele>30.0</ele><time>2026-05-04T16:15:11.384Z</time></trkpt><trkpt lat="44.8856276" lon="10.4706054"><ele>29.833333333333332</ele><time>2026-05-04T16:15:13.383Z</time></trkpt><trkpt lat="44.8855668" lon="10.4706393"><ele>29.666666666666664</ele><time>2026-05-04T16:15:14.383Z</time></trkpt><trkpt lat="44.8855069" lon="10.4706682"><ele>29.5</ele><time>2026-05-04T16:15:15.384Z</time></trkpt><trkpt lat="44.8854447" lon="10.4706857"><ele>29.333333333333332</ele><time>2026-05-04T16:15:16.384Z</time></trkpt><trkpt lat="44.8853778" lon="10.4707048"><ele>29.166666666666664</ele><time>2026-05-04T16:15:17.383Z</time></trkpt><trkpt lat="44.8853133" lon="10.4707186"><ele>29.0</ele><time>2026-05-04T16:15:18.383Z</time></trkpt><trkpt lat="44.8851845" lon="10.4707384"><ele>28.75</ele><time>2026-05-04T16:15:20.384Z</time></trkpt><trkpt lat="44.8850703" lon="10.470749"><ele>28.5</ele><time>2026-05-04T16:15:22.383Z</time></trkpt><trkpt lat="44.8849447" lon="10.4707635"><ele>28.25</ele><time>2026-05-04T16:15:24.383Z</time></trkpt><trkpt lat="44.8848197" lon="10.4707608"><ele>28.0</ele><time>2026-05-04T16:15:26.384Z</time></trkpt><trkpt lat="44.8846947" lon="10.4707689"><ele>28.0</ele><time>2026-05-04T16:15:28.384Z</time></trkpt><trkpt lat="44.8845718" lon="10.4707344"><ele>27.999999999999996</ele><time>2026-05-04T16:15:30.384Z</time></trkpt><trkpt lat="44.8845091" lon="10.4707206"><ele>27.999999999999996</ele><time>2026-05-04T16:15:31.383Z</time></trkpt><trkpt lat="44.8844111" lon="10.4706872"><ele>28.0</ele><time>2026-05-04T16:15:33.383Z</time></trkpt><trkpt lat="44.8843458" lon="10.4706646"><ele>28.0</ele><time>2026-05-04T16:15:34.383Z</time></trkpt><trkpt lat="44.8842311" lon="10.4706057"><ele>28.2</ele><time>2026-05-04T16:15:36.383Z</time></trkpt><trkpt lat="44.8841194" lon="10.470533"><ele>28.4</ele><time>2026-05-04T16:15:38.384Z</time></trkpt><trkpt lat="44.88406" lon="10.4704967"><ele>28.599999999999998</ele><time>2026-05-04T16:15:39.383Z</time></trkpt><trkpt lat="44.8839539" lon="10.4704257"><ele>28.799999999999997</ele><time>2026-05-04T16:15:41.383Z</time></trkpt><trkpt lat="44.8838437" lon="10.4703548"><ele>29.0</ele><time>2026-05-04T16:15:43.384Z</time></trkpt><trkpt lat="44.8837475" lon="10.4702768"><ele>28.75</ele><time>2026-05-04T16:15:45.383Z</time></trkpt><trkpt lat="44.8836433" lon="10.470193"><ele>28.5</ele><time>2026-05-04T16:15:47.384Z</time></trkpt><trkpt lat="44.8835499" lon="10.470097"><ele>28.25</ele><time>2026-05-04T16:15:49.384Z</time></trkpt><trkpt lat="44.8834562" lon="10.4700048"><ele>28.0</ele><time>2026-05-04T16:15:51.384Z</time></trkpt><trkpt lat="44.8833597" lon="10.469897"><ele>28.0</ele><time>2026-05-04T16:15:53.384Z</time></trkpt><trkpt lat="44.8832687" lon="10.4697847"><ele>28.0</ele><time>2026-05-04T16:15:55.383Z</time></trkpt><trkpt lat="44.8831789" lon="10.4696734"><ele>28.0</ele><time>2026-05-04T16:15:57.384Z</time></trkpt><trkpt lat="44.8830879" lon="10.4695545"><ele>28.0</ele><time>2026-05-04T16:15:59.383Z</time></trkpt><trkpt lat="44.8830087" lon="10.4694314"><ele>27.5</ele><time>2026-05-04T16:16:01.384Z</time></trkpt><trkpt lat="44.8829381" lon="10.4693096"><ele>27.0</ele><time>2026-05-04T16:16:03.383Z</time></trkpt><trkpt lat="44.8828932" lon="10.4692417"><ele>26.5</ele><time>2026-05-04T16:16:04.383Z</time></trkpt><trkpt lat="44.8828218" lon="10.4691045"><ele>26.0</ele><time>2026-05-04T16:16:06.383Z</time></trkpt><trkpt lat="44.8827126" lon="10.4688968"><ele>26.0</ele><time>2026-05-04T16:16:09.384Z</time></trkpt><trkpt lat="44.8826747" lon="10.4688215"><ele>26.0</ele><time>2026-05-04T16:16:10.383Z</time></trkpt><trkpt lat="44.882611" lon="10.4686738"><ele>26.0</ele><time>2026-05-04T16:16:12.383Z</time></trkpt><trkpt lat="44.8825429" lon="10.4685392"><ele>26.0</ele><time>2026-05-04T16:16:14.384Z</time></trkpt><trkpt lat="44.8824892" lon="10.4683918"><ele>26.0</ele><time>2026-05-04T16:16:16.384Z</time></trkpt><trkpt lat="44.8824254" lon="10.4682498"><ele>27.0</ele><time>2026-05-04T16:16:18.383Z</time></trkpt><trkpt lat="44.8823469" lon="10.4681213"><ele>28.0</ele><time>2026-05-04T16:16:20.384Z</time></trkpt><trkpt lat="44.8822566" lon="10.468015"><ele>29.0</ele><time>2026-05-04T16:16:22.383Z</time></trkpt><trkpt lat="44.8821926" lon="10.4680272"><ele>30.0</ele><time>2026-05-04T16:16:23.384Z</time></trkpt><trkpt lat="44.8820773" lon="10.4680429"><ele>31.0</ele><time>2026-05-04T16:16:25.383Z</time></trkpt><trkpt lat="44.8820132" lon="10.4680483"><ele>31.0</ele><time>2026-05-04T16:16:26.384Z</time></trkpt><trkpt lat="44.8819492" lon="10.4680691"><ele>31.0</ele><time>2026-05-04T16:16:27.383Z</time></trkpt><trkpt lat="44.8818849" lon="10.4680866"><ele>31.0</ele><time>2026-05-04T16:16:28.384Z</time></trkpt><trkpt lat="44.8817716" lon="10.4681161"><ele>31.0</ele><time>2026-05-04T16:16:30.384Z</time></trkpt><trkpt lat="44.8816565" lon="10.4681478"><ele>31.0</ele><time>2026-05-04T16:16:32.384Z</time></trkpt><trkpt lat="44.881545" lon="10.4681665"><ele>30.6</ele><time>2026-05-04T16:16:34.383Z</time></trkpt><trkpt lat="44.8814278" lon="10.4681871"><ele>30.200000000000003</ele><time>2026-05-04T16:16:36.384Z</time></trkpt><trkpt lat="44.8813632" lon="10.4681975"><ele>29.799999999999997</ele><time>2026-05-04T16:16:37.384Z</time></trkpt><trkpt lat="44.881254" lon="10.4682548"><ele>29.4</ele><time>2026-05-04T16:16:39.383Z</time></trkpt><trkpt lat="44.8811544" lon="10.4683564"><ele>29.0</ele><time>2026-05-04T16:16:41.383Z</time></trkpt><trkpt lat="44.8810701" lon="10.468477"><ele>29.0</ele><time>2026-05-04T16:16:43.383Z</time></trkpt><trkpt lat="44.8809811" lon="10.4685837"><ele>29.0</ele><time>2026-05-04T16:16:45.384Z</time></trkpt><trkpt lat="44.880897" lon="10.4687048"><ele>29.0</ele><time>2026-05-04T16:16:47.383Z</time></trkpt><trkpt lat="44.8808471" lon="10.4687681"><ele>29.0</ele><time>2026-05-04T16:16:48.383Z</time></trkpt><trkpt lat="44.8808076" lon="10.4688436"><ele>29.0</ele><time>2026-05-04T16:16:49.383Z</time></trkpt><trkpt lat="44.8807132" lon="10.4689671"><ele>28.25</ele><time>2026-05-04T16:16:51.383Z</time></trkpt><trkpt lat="44.8806252" lon="10.4690938"><ele>27.5</ele><time>2026-05-04T16:16:53.383Z</time></trkpt><trkpt lat="44.8805414" lon="10.4692166"><ele>26.75</ele><time>2026-05-04T16:16:55.383Z</time></trkpt><trkpt lat="44.8804696" lon="10.4693403"><ele>26.0</ele><time>2026-05-04T16:16:57.383Z</time></trkpt><trkpt lat="44.8803908" lon="10.4694524"><ele>25.999999999999996</ele><time>2026-05-04T16:16:59.384Z</time></trkpt><trkpt lat="44.8803426" lon="10.4695147"><ele>26.0</ele><time>2026-05-04T16:17:00.383Z</time></trkpt><trkpt lat="44.8802949" lon="10.4695768"><ele>26.0</ele><time>2026-05-04T16:17:01.384Z</time></trkpt><trkpt lat="44.8802139" lon="10.4696987"><ele>26.0</ele><time>2026-05-04T16:17:03.384Z</time></trkpt><trkpt lat="44.880118" lon="10.4698147"><ele>25.999999999999996</ele><time>2026-05-04T16:17:05.384Z</time></trkpt><trkpt lat="44.8800747" lon="10.469881"><ele>26.0</ele><time>2026-05-04T16:17:06.384Z</time></trkpt><trkpt lat="44.879987" lon="10.4699877"><ele>26.428571428571427</ele><time>2026-05-04T16:17:08.383Z</time></trkpt><trkpt lat="44.8799374" lon="10.4700442"><ele>26.85714285714286</ele><time>2026-05-04T16:17:09.383Z</time></trkpt><trkpt lat="44.8798871" lon="10.4700986"><ele>27.28571428571429</ele><time>2026-05-04T16:17:10.384Z</time></trkpt><trkpt lat="44.8797908" lon="10.4702071"><ele>27.714285714285715</ele><time>2026-05-04T16:17:12.384Z</time></trkpt><trkpt lat="44.8797365" lon="10.4702633"><ele>28.142857142857146</ele><time>2026-05-04T16:17:13.384Z</time></trkpt><trkpt lat="44.8796861" lon="10.4703204"><ele>28.571428571428577</ele><time>2026-05-04T16:17:14.383Z</time></trkpt><trkpt lat="44.8796355" lon="10.4703735"><ele>29.000000000000004</ele><time>2026-05-04T16:17:15.383Z</time></trkpt><trkpt lat="44.8795373" lon="10.4704666"><ele>29.2</ele><time>2026-05-04T16:17:17.384Z</time></trkpt><trkpt lat="44.8794348" lon="10.470558"><ele>29.4</ele><time>2026-05-04T16:17:19.384Z</time></trkpt><trkpt lat="44.8793821" lon="10.4706073"><ele>29.6</ele><time>2026-05-04T16:17:20.384Z</time></trkpt><trkpt lat="44.8793236" lon="10.4706523"><ele>29.8</ele><time>2026-05-04T16:17:21.384Z</time></trkpt><trkpt lat="44.8792209" lon="10.4707231"><ele>30.0</ele><time>2026-05-04T16:17:23.383Z</time></trkpt><trkpt lat="44.8791125" lon="10.4708004"><ele>29.6</ele><time>2026-05-04T16:17:25.383Z</time></trkpt><trkpt lat="44.8789958" lon="10.4708731"><ele>29.2</ele><time>2026-05-04T16:17:27.384Z</time></trkpt><trkpt lat="44.8788868" lon="10.4709205"><ele>28.799999999999997</ele><time>2026-05-04T16:17:29.383Z</time></trkpt><trkpt lat="44.878783" lon="10.4709917"><ele>28.4</ele><time>2026-05-04T16:17:31.384Z</time></trkpt><trkpt lat="44.8787258" lon="10.4710329"><ele>28.0</ele><time>2026-05-04T16:17:32.383Z</time></trkpt><trkpt lat="44.8786637" lon="10.4710615"><ele>28.0</ele><time>2026-05-04T16:17:33.384Z</time></trkpt><trkpt lat="44.8785417" lon="10.4711057"><ele>28.0</ele><time>2026-05-04T16:17:35.383Z</time></trkpt><trkpt lat="44.8784254" lon="10.4711614"><ele>28.0</ele><time>2026-05-04T16:17:37.384Z</time></trkpt><trkpt lat="44.878324" lon="10.4712596"><ele>28.0</ele><time>2026-05-04T16:17:39.383Z</time></trkpt><trkpt lat="44.8782132" lon="10.4713411"><ele>27.833333333333336</ele><time>2026-05-04T16:17:41.383Z</time></trkpt><trkpt lat="44.8781561" lon="10.4713836"><ele>27.666666666666668</ele><time>2026-05-04T16:17:42.383Z</time></trkpt><trkpt lat="44.8781011" lon="10.4714358"><ele>27.5</ele><time>2026-05-04T16:17:43.384Z</time></trkpt><trkpt lat="44.8779919" lon="10.4715332"><ele>27.333333333333336</ele><time>2026-05-04T16:17:45.383Z</time></trkpt><trkpt lat="44.8778986" lon="10.4716414"><ele>27.166666666666668</ele><time>2026-05-04T16:17:47.384Z</time></trkpt><trkpt lat="44.8778474" lon="10.4716999"><ele>27.0</ele><time>2026-05-04T16:17:48.383Z</time></trkpt><trkpt lat="44.8777544" lon="10.4718041"><ele>27.0</ele><time>2026-05-04T16:17:50.383Z</time></trkpt><trkpt lat="44.8776523" lon="10.4719075"><ele>27.0</ele><time>2026-05-04T16:17:52.383Z</time></trkpt><trkpt lat="44.8776019" lon="10.471969"><ele>27.0</ele><time>2026-05-04T16:17:53.383Z</time></trkpt><trkpt lat="44.8775534" lon="10.4720288"><ele>27.0</ele><time>2026-05-04T16:17:54.383Z</time></trkpt><trkpt lat="44.8775047" lon="10.4720885"><ele>27.0</ele><time>2026-05-04T16:17:55.384Z</time></trkpt><trkpt lat="44.8774557" lon="10.4721482"><ele>27.0</ele><time>2026-05-04T16:17:56.384Z</time></trkpt><trkpt lat="44.8773697" lon="10.4722675"><ele>27.285714285714285</ele><time>2026-05-04T16:17:58.383Z</time></trkpt><trkpt lat="44.8773193" lon="10.4723297"><ele>27.57142857142857</ele><time>2026-05-04T16:17:59.383Z</time></trkpt><trkpt lat="44.8772732" lon="10.4723987"><ele>27.85714285714286</ele><time>2026-05-04T16:18:00.384Z</time></trkpt><trkpt lat="44.8772252" lon="10.4724644"><ele>28.142857142857146</ele><time>2026-05-04T16:18:01.383Z</time></trkpt><trkpt lat="44.8771766" lon="10.4725296"><ele>28.42857142857143</ele><time>2026-05-04T16:18:02.383Z</time></trkpt><trkpt lat="44.8771336" lon="10.4725946"><ele>28.71428571428572</ele><time>2026-05-04T16:18:03.384Z</time></trkpt><trkpt lat="44.8770876" lon="10.4726588"><ele>29.000000000000004</ele><time>2026-05-04T16:18:04.384Z</time></trkpt><trkpt lat="44.8770363" lon="10.4727121"><ele>28.999999999999996</ele><time>2026-05-04T16:18:05.384Z</time></trkpt><trkpt lat="44.8769477" lon="10.4728275"><ele>29.0</ele><time>2026-05-04T16:18:07.384Z</time></trkpt><trkpt lat="44.8768638" lon="10.4729379"><ele>29.0</ele><time>2026-05-04T16:18:09.384Z</time></trkpt><trkpt lat="44.8768152" lon="10.4729962"><ele>29.0</ele><time>2026-05-04T16:18:10.384Z</time></trkpt><trkpt lat="44.8767685" lon="10.4730576"><ele>28.999999999999996</ele><time>2026-05-04T16:18:11.383Z</time></trkpt><trkpt lat="44.8767228" lon="10.4731231"><ele>29.0</ele><time>2026-05-04T16:18:12.383Z</time></trkpt><trkpt lat="44.8766717" lon="10.4731871"><ele>28.5</ele><time>2026-05-04T16:18:13.383Z</time></trkpt><trkpt lat="44.876585" lon="10.4733006"><ele>28.0</ele><time>2026-05-04T16:18:15.384Z</time></trkpt><trkpt lat="44.8764951" lon="10.4734155"><ele>27.5</ele><time>2026-05-04T16:18:17.383Z</time></trkpt><trkpt lat="44.8763955" lon="10.4735214"><ele>27.0</ele><time>2026-05-04T16:18:19.384Z</time></trkpt><trkpt lat="44.8763061" lon="10.4736341"><ele>27.0</ele><time>2026-05-04T16:18:21.384Z</time></trkpt><trkpt lat="44.8762366" lon="10.4737773"><ele>27.0</ele><time>2026-05-04T16:18:23.383Z</time></trkpt><trkpt lat="44.8761767" lon="10.4739155"><ele>27.0</ele><time>2026-05-04T16:18:25.383Z</time></trkpt><trkpt lat="44.8761384" lon="10.4739914"><ele>27.0</ele><time>2026-05-04T16:18:26.383Z</time></trkpt><trkpt lat="44.8761005" lon="10.4740659"><ele>27.0</ele><time>2026-05-04T16:18:27.384Z</time></trkpt><trkpt lat="44.8760568" lon="10.4741352"><ele>27.0</ele><time>2026-05-04T16:18:28.383Z</time></trkpt><trkpt lat="44.8759963" lon="10.4742828"><ele>27.166666666666668</ele><time>2026-05-04T16:18:30.383Z</time></trkpt><trkpt lat="44.875925" lon="10.4744174"><ele>27.333333333333336</ele><time>2026-05-04T16:18:32.383Z</time></trkpt><trkpt lat="44.875893" lon="10.4745006"><ele>27.5</ele><time>2026-05-04T16:18:33.384Z</time></trkpt><trkpt lat="44.8758614" lon="10.4745846"><ele>27.666666666666668</ele><time>2026-05-04T16:18:34.384Z</time></trkpt><trkpt lat="44.8757966" lon="10.4747365"><ele>27.833333333333336</ele><time>2026-05-04T16:18:36.383Z</time></trkpt><trkpt lat="44.8757639" lon="10.4748204"><ele>28.0</ele><time>2026-05-04T16:18:37.383Z</time></trkpt><trkpt lat="44.875733" lon="10.4749011"><ele>28.0</ele><time>2026-05-04T16:18:38.383Z</time></trkpt><trkpt lat="44.8756724" lon="10.4750379"><ele>27.999999999999996</ele><time>2026-05-04T16:18:40.384Z</time></trkpt><trkpt lat="44.8756118" lon="10.4751743"><ele>27.999999999999996</ele><time>2026-05-04T16:18:42.383Z</time></trkpt><trkpt lat="44.8755385" lon="10.4753125"><ele>28.0</ele><time>2026-05-04T16:18:44.383Z</time></trkpt><trkpt lat="44.8754924" lon="10.4753771"><ele>28.0</ele><time>2026-05-04T16:18:45.383Z</time></trkpt><trkpt lat="44.8754024" lon="10.4754922"><ele>27.833333333333336</ele><time>2026-05-04T16:18:47.383Z</time></trkpt><trkpt lat="44.8753507" lon="10.4755466"><ele>27.666666666666668</ele><time>2026-05-04T16:18:48.384Z</time></trkpt><trkpt lat="44.8753011" lon="10.4756048"><ele>27.5</ele><time>2026-05-04T16:18:49.384Z</time></trkpt><trkpt lat="44.8751933" lon="10.4756852"><ele>27.333333333333336</ele><time>2026-05-04T16:18:51.383Z</time></trkpt><trkpt lat="44.8750815" lon="10.4757169"><ele>27.166666666666668</ele><time>2026-05-04T16:18:53.384Z</time></trkpt><trkpt lat="44.8750179" lon="10.4757197"><ele>27.0</ele><time>2026-05-04T16:18:54.384Z</time></trkpt><trkpt lat="44.8749026" lon="10.4756927"><ele>26.75</ele><time>2026-05-04T16:18:56.383Z</time></trkpt><trkpt lat="44.8747889" lon="10.4756529"><ele>26.5</ele><time>2026-05-04T16:18:58.384Z</time></trkpt><trkpt lat="44.8746819" lon="10.4755943"><ele>26.25</ele><time>2026-05-04T16:19:00.384Z</time></trkpt><trkpt lat="44.8745836" lon="10.4755264"><ele>26.0</ele><time>2026-05-04T16:19:02.384Z</time></trkpt><trkpt lat="44.8744881" lon="10.475452"><ele>26.200000000000003</ele><time>2026-05-04T16:19:04.384Z</time></trkpt><trkpt lat="44.8743965" lon="10.4753614"><ele>26.400000000000002</ele><time>2026-05-04T16:19:06.383Z</time></trkpt><trkpt lat="44.8743439" lon="10.4753098"><ele>26.6</ele><time>2026-05-04T16:19:07.383Z</time></trkpt><trkpt lat="44.8742502" lon="10.4752083"><ele>26.8</ele><time>2026-05-04T16:19:09.384Z</time></trkpt><trkpt lat="44.87415" lon="10.4750994"><ele>27.0</ele><time>2026-05-04T16:19:11.383Z</time></trkpt><trkpt lat="44.8741015" lon="10.4750419"><ele>27.0</ele><time>2026-05-04T16:19:12.383Z</time></trkpt><trkpt lat="44.8740149" lon="10.4749232"><ele>27.0</ele><time>2026-05-04T16:19:14.384Z</time></trkpt><trkpt lat="44.8739381" lon="10.474791"><ele>27.0</ele><time>2026-05-04T16:19:16.384Z</time></trkpt><trkpt lat="44.873866" lon="10.4746584"><ele>27.0</ele><time>2026-05-04T16:19:18.383Z</time></trkpt><trkpt lat="44.8737961" lon="10.4745185"><ele>27.333333333333332</ele><time>2026-05-04T16:19:20.383Z</time></trkpt><trkpt lat="44.8737402" lon="10.474369"><ele>27.666666666666664</ele><time>2026-05-04T16:19:22.384Z</time></trkpt><trkpt lat="44.8737082" lon="10.4742879"><ele>28.0</ele><time>2026-05-04T16:19:23.384Z</time></trkpt><trkpt lat="44.8736808" lon="10.4742033"><ele>28.333333333333332</ele><time>2026-05-04T16:19:24.384Z</time></trkpt><trkpt lat="44.8736444" lon="10.4740422"><ele>28.666666666666664</ele><time>2026-05-04T16:19:26.383Z</time></trkpt><trkpt lat="44.8736217" lon="10.4739585"><ele>29.0</ele><time>2026-05-04T16:19:27.383Z</time></trkpt><trkpt lat="44.8735879" lon="10.4737975"><ele>29.2</ele><time>2026-05-04T16:19:29.383Z</time></trkpt><trkpt lat="44.8735764" lon="10.4736326"><ele>29.4</ele><time>2026-05-04T16:19:31.384Z</time></trkpt><trkpt lat="44.8735682" lon="10.4735439"><ele>29.6</ele><time>2026-05-04T16:19:32.384Z</time></trkpt><trkpt lat="44.8735703" lon="10.4733694"><ele>29.8</ele><time>2026-05-04T16:19:34.384Z</time></trkpt><trkpt lat="44.8735919" lon="10.4732042"><ele>30.0</ele><time>2026-05-04T16:19:36.383Z</time></trkpt><trkpt lat="44.8736309" lon="10.4730466"><ele>29.75</ele><time>2026-05-04T16:19:38.384Z</time></trkpt><trkpt lat="44.8736656" lon="10.4728893"><ele>29.5</ele><time>2026-05-04T16:19:40.384Z</time></trkpt><trkpt lat="44.8737028" lon="10.4727334"><ele>29.25</ele><time>2026-05-04T16:19:42.384Z</time></trkpt><trkpt lat="44.8737483" lon="10.472589"><ele>29.0</ele><time>2026-05-04T16:19:44.384Z</time></trkpt><trkpt lat="44.8737855" lon="10.4724457"><ele>29.0</ele><time>2026-05-04T16:19:46.384Z</time></trkpt><trkpt lat="44.8738234" lon="10.4722923"><ele>29.0</ele><time>2026-05-04T16:19:48.383Z</time></trkpt><trkpt lat="44.8738648" lon="10.4721438"><ele>29.0</ele><time>2026-05-04T16:19:50.384Z</time></trkpt><trkpt lat="44.8739002" lon="10.4719977"><ele>29.0</ele><time>2026-05-04T16:19:52.384Z</time></trkpt><trkpt lat="44.8739469" lon="10.47185"><ele>29.0</ele><time>2026-05-04T16:19:54.383Z</time></trkpt><trkpt lat="44.8739992" lon="10.4717112"><ele>29.0</ele><time>2026-05-04T16:19:56.383Z</time></trkpt><trkpt lat="44.8740624" lon="10.4715764"><ele>29.0</ele><time>2026-05-04T16:19:58.383Z</time></trkpt><trkpt lat="44.8741386" lon="10.4714691"><ele>29.0</ele><time>2026-05-04T16:20:00.383Z</time></trkpt><trkpt lat="44.8741883" lon="10.471414"><ele>29.0</ele><time>2026-05-04T16:20:01.384Z</time></trkpt><trkpt lat="44.8742824" lon="10.4713128"><ele>29.25</ele><time>2026-05-04T16:20:03.384Z</time></trkpt><trkpt lat="44.8743789" lon="10.4712148"><ele>29.5</ele><time>2026-05-04T16:20:05.383Z</time></trkpt><trkpt lat="44.8744709" lon="10.4711145"><ele>29.75</ele><time>2026-05-04T16:20:07.384Z</time></trkpt><trkpt lat="44.8745665" lon="10.4710208"><ele>30.0</ele><time>2026-05-04T16:20:09.384Z</time></trkpt><trkpt lat="44.8746612" lon="10.4709353"><ele>30.0</ele><time>2026-05-04T16:20:11.384Z</time></trkpt><trkpt lat="44.874738" lon="10.470848"><ele>30.0</ele><time>2026-05-04T16:20:13.383Z</time></trkpt><trkpt lat="44.8748247" lon="10.4707714"><ele>30.0</ele><time>2026-05-04T16:20:15.384Z</time></trkpt><trkpt lat="44.8749083" lon="10.4706915"><ele>30.0</ele><time>2026-05-04T16:20:17.383Z</time></trkpt><trkpt lat="44.8749732" lon="10.470609"><ele>30.0</ele><time>2026-05-04T16:20:19.384Z</time></trkpt><trkpt lat="44.8750336" lon="10.4705181"><ele>30.0</ele><time>2026-05-04T16:20:21.383Z</time></trkpt><trkpt lat="44.8750933" lon="10.470415"><ele>30.0</ele><time>2026-05-04T16:20:23.384Z</time></trkpt><trkpt lat="44.875141" lon="10.4703027"><ele>30.0</ele><time>2026-05-04T16:20:25.384Z</time></trkpt><trkpt lat="44.8752" lon="10.4701968"><ele>30.0</ele><time>2026-05-04T16:20:27.383Z</time></trkpt><trkpt lat="44.8752466" lon="10.4700902"><ele>30.0</ele><time>2026-05-04T16:20:29.383Z</time></trkpt><trkpt lat="44.8752932" lon="10.4699778"><ele>30.0</ele><time>2026-05-04T16:20:31.383Z</time></trkpt><trkpt lat="44.8753491" lon="10.4698613"><ele>30.0</ele><time>2026-05-04T16:20:33.383Z</time></trkpt><trkpt lat="44.875397" lon="10.4697522"><ele>30.0</ele><time>2026-05-04T16:20:35.384Z</time></trkpt><trkpt lat="44.8754581" lon="10.4696247"><ele>30.0</ele><time>2026-05-04T16:20:37.383Z</time></trkpt><trkpt lat="44.875511" lon="10.4694969"><ele>30.0</ele><time>2026-05-04T16:20:39.383Z</time></trkpt><trkpt lat="44.8755644" lon="10.4693717"><ele>29.8</ele><time>2026-05-04T16:20:41.383Z</time></trkpt><trkpt lat="44.8756182" lon="10.4692451"><ele>29.6</ele><time>2026-05-04T16:20:43.383Z</time></trkpt><trkpt lat="44.875681" lon="10.4691192"><ele>29.4</ele><time>2026-05-04T16:20:45.384Z</time></trkpt><trkpt lat="44.8757352" lon="10.4689872"><ele>29.2</ele><time>2026-05-04T16:20:47.383Z</time></trkpt><trkpt lat="44.8757976" lon="10.4688608"><ele>29.0</ele><time>2026-05-04T16:20:49.384Z</time></trkpt><trkpt lat="44.8758378" lon="10.4687271"><ele>29.4</ele><time>2026-05-04T16:20:51.383Z</time></trkpt><trkpt lat="44.8758658" lon="10.468589"><ele>29.799999999999997</ele><time>2026-05-04T16:20:53.384Z</time></trkpt><trkpt lat="44.8758921" lon="10.4684403"><ele>30.200000000000003</ele><time>2026-05-04T16:20:55.383Z</time></trkpt><trkpt lat="44.875902" lon="10.4682903"><ele>30.6</ele><time>2026-05-04T16:20:57.384Z</time></trkpt><trkpt lat="44.8759134" lon="10.4681409"><ele>31.0</ele><time>2026-05-04T16:20:59.383Z</time></trkpt><trkpt lat="44.8759114" lon="10.4679856"><ele>31.0</ele><time>2026-05-04T16:21:01.384Z</time></trkpt><trkpt lat="44.8759029" lon="10.4678196"><ele>31.0</ele><time>2026-05-04T16:21:03.383Z</time></trkpt><trkpt lat="44.8758865" lon="10.4676587"><ele>31.0</ele><time>2026-05-04T16:21:05.384Z</time></trkpt><trkpt lat="44.8758575" lon="10.4675013"><ele>31.0</ele><time>2026-05-04T16:21:07.383Z</time></trkpt><trkpt lat="44.8758143" lon="10.4673468"><ele>31.0</ele><time>2026-05-04T16:21:09.383Z</time></trkpt><trkpt lat="44.8757765" lon="10.4672054"><ele>31.0</ele><time>2026-05-04T16:21:11.384Z</time></trkpt><trkpt lat="44.8757351" lon="10.4670707"><ele>31.0</ele><time>2026-05-04T16:21:13.383Z</time></trkpt><trkpt lat="44.8756905" lon="10.4669631"><ele>31.0</ele><time>2026-05-04T16:21:15.384Z</time></trkpt><trkpt lat="44.8756252" lon="10.4668654"><ele>31.0</ele><time>2026-05-04T16:21:17.383Z</time></trkpt><trkpt lat="44.8755463" lon="10.4667649"><ele>30.6</ele><time>2026-05-04T16:21:19.384Z</time></trkpt><trkpt lat="44.875463" lon="10.466685"><ele>30.200000000000003</ele><time>2026-05-04T16:21:21.384Z</time></trkpt><trkpt lat="44.8753606" lon="10.4666119"><ele>29.799999999999997</ele><time>2026-05-04T16:21:23.383Z</time></trkpt><trkpt lat="44.8752988" lon="10.4665797"><ele>29.4</ele><time>2026-05-04T16:21:24.384Z</time></trkpt><trkpt lat="44.8751882" lon="10.4665251"><ele>29.0</ele><time>2026-05-04T16:21:26.384Z</time></trkpt><trkpt lat="44.8750729" lon="10.46649"><ele>29.0</ele><time>2026-05-04T16:21:28.383Z</time></trkpt><trkpt lat="44.8749557" lon="10.466451"><ele>29.0</ele><time>2026-05-04T16:21:30.383Z</time></trkpt><trkpt lat="44.8748421" lon="10.4664358"><ele>29.0</ele><time>2026-05-04T16:21:32.383Z</time></trkpt><trkpt lat="44.8747347" lon="10.4664592"><ele>29.0</ele><time>2026-05-04T16:21:34.384Z</time></trkpt><trkpt lat="44.8746299" lon="10.4665124"><ele>29.0</ele><time>2026-05-04T16:21:36.384Z</time></trkpt><trkpt lat="44.8745211" lon="10.4665932"><ele>29.0</ele><time>2026-05-04T16:21:38.383Z</time></trkpt><trkpt lat="44.8744127" lon="10.4666733"><ele>29.0</ele><time>2026-05-04T16:21:40.383Z</time></trkpt><trkpt lat="44.8743544" lon="10.466715"><ele>29.0</ele><time>2026-05-04T16:21:41.383Z</time></trkpt><trkpt lat="44.8742468" lon="10.4667945"><ele>29.0</ele><time>2026-05-04T16:21:43.383Z</time></trkpt><trkpt lat="44.8741544" lon="10.4668957"><ele>28.799999999999997</ele><time>2026-05-04T16:21:45.384Z</time></trkpt><trkpt lat="44.874078" lon="10.4670117"><ele>28.599999999999998</ele><time>2026-05-04T16:21:47.384Z</time></trkpt><trkpt lat="44.874036" lon="10.4670796"><ele>28.4</ele><time>2026-05-04T16:21:48.384Z</time></trkpt><trkpt lat="44.8739592" lon="10.4672129"><ele>28.2</ele><time>2026-05-04T16:21:50.384Z</time></trkpt><trkpt lat="44.8738923" lon="10.4673521"><ele>28.0</ele><time>2026-05-04T16:21:52.383Z</time></trkpt><trkpt lat="44.8738307" lon="10.467461"><ele>28.0</ele><time>2026-05-04T16:21:54.383Z</time></trkpt><trkpt lat="44.8737606" lon="10.4675907"><ele>28.0</ele><time>2026-05-04T16:21:56.383Z</time></trkpt><trkpt lat="44.8736956" lon="10.467717"><ele>28.0</ele><time>2026-05-04T16:21:58.384Z</time></trkpt><trkpt lat="44.8736248" lon="10.4678529"><ele>28.0</ele><time>2026-05-04T16:22:00.383Z</time></trkpt><trkpt lat="44.8735511" lon="10.4679871"><ele>28.0</ele><time>2026-05-04T16:22:02.383Z</time></trkpt><trkpt lat="44.8734683" lon="10.4681153"><ele>27.999999999999996</ele><time>2026-05-04T16:22:04.384Z</time></trkpt><trkpt lat="44.8734026" lon="10.4682454"><ele>27.999999999999996</ele><time>2026-05-04T16:22:06.383Z</time></trkpt><trkpt lat="44.8733363" lon="10.4683647"><ele>28.0</ele><time>2026-05-04T16:22:08.383Z</time></trkpt><trkpt lat="44.8732759" lon="10.4684699"><ele>28.0</ele><time>2026-05-04T16:22:10.383Z</time></trkpt><trkpt lat="44.8732248" lon="10.4685784"><ele>28.0</ele><time>2026-05-04T16:22:12.383Z</time></trkpt><trkpt lat="44.8731645" lon="10.4686615"><ele>27.999999999999996</ele><time>2026-05-04T16:22:14.383Z</time></trkpt><trkpt lat="44.8731186" lon="10.4687457"><ele>27.999999999999996</ele><time>2026-05-04T16:22:16.383Z</time></trkpt><trkpt lat="44.8730583" lon="10.468842"><ele>28.0</ele><time>2026-05-04T16:22:18.383Z</time></trkpt><trkpt lat="44.8730045" lon="10.4689202"><ele>28.0</ele><time>2026-05-04T16:22:20.383Z</time></trkpt><trkpt lat="44.8729271" lon="10.4690593"><ele>28.0</ele><time>2026-05-04T16:22:24.384Z</time></trkpt><trkpt lat="44.8728759" lon="10.4691462"><ele>27.999999999999996</ele><time>2026-05-04T16:22:26.384Z</time></trkpt><trkpt lat="44.8728062" lon="10.4692463"><ele>27.999999999999996</ele><time>2026-05-04T16:22:28.383Z</time></trkpt><trkpt lat="44.8727501" lon="10.4693437"><ele>28.0</ele><time>2026-05-04T16:22:30.383Z</time></trkpt><trkpt lat="44.8726905" lon="10.4694532"><ele>28.0</ele><time>2026-05-04T16:22:32.384Z</time></trkpt><trkpt lat="44.8726212" lon="10.4695617"><ele>28.0</ele><time>2026-05-04T16:22:34.384Z</time></trkpt><trkpt lat="44.8725508" lon="10.4696603"><ele>27.999999999999996</ele><time>2026-05-04T16:22:36.383Z</time></trkpt><trkpt lat="44.8724828" lon="10.4697838"><ele>27.999999999999996</ele><time>2026-05-04T16:22:38.384Z</time></trkpt><trkpt lat="44.8724027" lon="10.4698823"><ele>28.0</ele><time>2026-05-04T16:22:40.384Z</time></trkpt><trkpt lat="44.8723592" lon="10.4699499"><ele>28.0</ele><time>2026-05-04T16:22:41.384Z</time></trkpt><trkpt lat="44.8722659" lon="10.4700662"><ele>28.0</ele><time>2026-05-04T16:22:43.384Z</time></trkpt><trkpt lat="44.8721744" lon="10.4701754"><ele>27.999999999999996</ele><time>2026-05-04T16:22:45.383Z</time></trkpt><trkpt lat="44.8720912" lon="10.4702799"><ele>27.999999999999996</ele><time>2026-05-04T16:22:47.383Z</time></trkpt><trkpt lat="44.8720077" lon="10.4703627"><ele>28.0</ele><time>2026-05-04T16:22:49.383Z</time></trkpt><trkpt lat="44.8719228" lon="10.4704656"><ele>28.0</ele><time>2026-05-04T16:22:51.384Z</time></trkpt><trkpt lat="44.8718351" lon="10.470572"><ele>28.0</ele><time>2026-05-04T16:22:53.383Z</time></trkpt><trkpt lat="44.8717426" lon="10.4706766"><ele>28.0</ele><time>2026-05-04T16:22:55.384Z</time></trkpt><trkpt lat="44.8716565" lon="10.4707779"><ele>28.0</ele><time>2026-05-04T16:22:57.383Z</time></trkpt><trkpt lat="44.8715579" lon="10.4708612"><ele>28.0</ele><time>2026-05-04T16:22:59.384Z</time></trkpt><trkpt lat="44.8714595" lon="10.470937"><ele>28.0</ele><time>2026-05-04T16:23:01.384Z</time></trkpt><trkpt lat="44.8713617" lon="10.4709922"><ele>27.999999999999996</ele><time>2026-05-04T16:23:03.383Z</time></trkpt><trkpt lat="44.8712455" lon="10.4710004"><ele>27.999999999999996</ele><time>2026-05-04T16:23:05.384Z</time></trkpt><trkpt lat="44.8711404" lon="10.4709731"><ele>28.0</ele><time>2026-05-04T16:23:07.383Z</time></trkpt><trkpt lat="44.8710372" lon="10.47093"><ele>28.0</ele><time>2026-05-04T16:23:09.383Z</time></trkpt><trkpt lat="44.870958" lon="10.4708337"><ele>27.799999999999997</ele><time>2026-05-04T16:23:11.384Z</time></trkpt><trkpt lat="44.8708749" lon="10.4707244"><ele>27.599999999999998</ele><time>2026-05-04T16:23:13.383Z</time></trkpt><trkpt lat="44.8708385" lon="10.4706492"><ele>27.400000000000002</ele><time>2026-05-04T16:23:14.383Z</time></trkpt><trkpt lat="44.8707803" lon="10.4705063"><ele>27.200000000000003</ele><time>2026-05-04T16:23:16.384Z</time></trkpt><trkpt lat="44.8707291" lon="10.4703751"><ele>27.0</ele><time>2026-05-04T16:23:18.383Z</time></trkpt><trkpt lat="44.8706915" lon="10.4702412"><ele>27.0</ele><time>2026-05-04T16:23:20.383Z</time></trkpt><trkpt lat="44.870647" lon="10.4700959"><ele>27.000000000000004</ele><time>2026-05-04T16:23:22.384Z</time></trkpt><trkpt lat="44.8706135" lon="10.4699359"><ele>27.000000000000004</ele><time>2026-05-04T16:23:24.383Z</time></trkpt><trkpt lat="44.8705834" lon="10.4698036"><ele>27.0</ele><time>2026-05-04T16:23:26.384Z</time></trkpt><trkpt lat="44.8705474" lon="10.4696516"><ele>27.0</ele><time>2026-05-04T16:23:28.384Z</time></trkpt><trkpt lat="44.8705122" lon="10.4695095"><ele>27.200000000000003</ele><time>2026-05-04T16:23:30.384Z</time></trkpt><trkpt lat="44.8704893" lon="10.4693559"><ele>27.400000000000002</ele><time>2026-05-04T16:23:32.383Z</time></trkpt><trkpt lat="44.8704698" lon="10.4692712"><ele>27.599999999999998</ele><time>2026-05-04T16:23:33.383Z</time></trkpt><trkpt lat="44.8704455" lon="10.4691184"><ele>27.799999999999997</ele><time>2026-05-04T16:23:35.384Z</time></trkpt><trkpt lat="44.8704138" lon="10.4689616"><ele>28.0</ele><time>2026-05-04T16:23:37.383Z</time></trkpt><trkpt lat="44.8703724" lon="10.4688075"><ele>27.75</ele><time>2026-05-04T16:23:39.383Z</time></trkpt><trkpt lat="44.870345" lon="10.4686618"><ele>27.5</ele><time>2026-05-04T16:23:41.384Z</time></trkpt><trkpt lat="44.8703251" lon="10.4684988"><ele>27.25</ele><time>2026-05-04T16:23:43.383Z</time></trkpt><trkpt lat="44.8703017" lon="10.4683463"><ele>27.0</ele><time>2026-05-04T16:23:45.383Z</time></trkpt><trkpt lat="44.8702791" lon="10.4681775"><ele>27.0</ele><time>2026-05-04T16:23:47.384Z</time></trkpt><trkpt lat="44.8702558" lon="10.4680141"><ele>27.0</ele><time>2026-05-04T16:23:49.384Z</time></trkpt><trkpt lat="44.8702369" lon="10.4678395"><ele>27.0</ele><time>2026-05-04T16:23:51.383Z</time></trkpt><trkpt lat="44.8702085" lon="10.4676858"><ele>27.0</ele><time>2026-05-04T16:23:53.383Z</time></trkpt><trkpt lat="44.8701894" lon="10.4675199"><ele>27.400000000000002</ele><time>2026-05-04T16:23:55.384Z</time></trkpt><trkpt lat="44.8701697" lon="10.4673533"><ele>27.800000000000004</ele><time>2026-05-04T16:23:57.384Z</time></trkpt><trkpt lat="44.8701257" lon="10.4671905"><ele>28.2</ele><time>2026-05-04T16:23:59.383Z</time></trkpt><trkpt lat="44.8700848" lon="10.4670506"><ele>28.6</ele><time>2026-05-04T16:24:01.383Z</time></trkpt><trkpt lat="44.8700562" lon="10.4669685"><ele>29.0</ele><time>2026-05-04T16:24:02.384Z</time></trkpt><trkpt lat="44.8700078" lon="10.466811"><ele>29.0</ele><time>2026-05-04T16:24:04.384Z</time></trkpt><trkpt lat="44.8699586" lon="10.4666628"><ele>29.0</ele><time>2026-05-04T16:24:06.383Z</time></trkpt><trkpt lat="44.8698965" lon="10.4665254"><ele>29.0</ele><time>2026-05-04T16:24:08.383Z</time></trkpt><trkpt lat="44.869848" lon="10.4663799"><ele>29.0</ele><time>2026-05-04T16:24:10.383Z</time></trkpt><trkpt lat="44.8698062" lon="10.4663032"><ele>29.0</ele><time>2026-05-04T16:24:11.383Z</time></trkpt><trkpt lat="44.8697305" lon="10.4661812"><ele>28.799999999999997</ele><time>2026-05-04T16:24:13.383Z</time></trkpt><trkpt lat="44.8696763" lon="10.4660524"><ele>28.599999999999998</ele><time>2026-05-04T16:24:15.383Z</time></trkpt><trkpt lat="44.8696195" lon="10.4659326"><ele>28.4</ele><time>2026-05-04T16:24:17.383Z</time></trkpt><trkpt lat="44.8695501" lon="10.4658186"><ele>28.2</ele><time>2026-05-04T16:24:19.384Z</time></trkpt><trkpt lat="44.8694691" lon="10.4657091"><ele>28.0</ele><time>2026-05-04T16:24:21.383Z</time></trkpt><trkpt lat="44.8693622" lon="10.4656118"><ele>28.25</ele><time>2026-05-04T16:24:23.383Z</time></trkpt><trkpt lat="44.8692549" lon="10.4655584"><ele>28.5</ele><time>2026-05-04T16:24:25.383Z</time></trkpt><trkpt lat="44.8691417" lon="10.4655451"><ele>28.75</ele><time>2026-05-04T16:24:27.384Z</time></trkpt><trkpt lat="44.8690297" lon="10.4655482"><ele>29.0</ele><time>2026-05-04T16:24:29.383Z</time></trkpt><trkpt lat="44.868912" lon="10.4655522"><ele>29.0</ele><time>2026-05-04T16:24:31.383Z</time></trkpt><trkpt lat="44.8688068" lon="10.4655526"><ele>29.0</ele><time>2026-05-04T16:24:33.384Z</time></trkpt><trkpt lat="44.8687061" lon="10.4655818"><ele>29.0</ele><time>2026-05-04T16:24:35.384Z</time></trkpt><trkpt lat="44.8686108" lon="10.4656222"><ele>29.0</ele><time>2026-05-04T16:24:37.383Z</time></trkpt><trkpt lat="44.868502" lon="10.4656795"><ele>29.0</ele><time>2026-05-04T16:24:39.384Z</time></trkpt><trkpt lat="44.8684375" lon="10.4657168"><ele>29.75</ele><time>2026-05-04T16:24:40.383Z</time></trkpt><trkpt lat="44.8683282" lon="10.4657946"><ele>30.5</ele><time>2026-05-04T16:24:42.383Z</time></trkpt><trkpt lat="44.8682333" lon="10.4658987"><ele>31.25</ele><time>2026-05-04T16:24:44.383Z</time></trkpt><trkpt lat="44.8681408" lon="10.466013"><ele>32.0</ele><time>2026-05-04T16:24:46.384Z</time></trkpt><trkpt lat="44.8680733" lon="10.4661284"><ele>32.0</ele><time>2026-05-04T16:24:48.383Z</time></trkpt><trkpt lat="44.8680072" lon="10.4662704"><ele>32.0</ele><time>2026-05-04T16:24:50.384Z</time></trkpt><trkpt lat="44.8679729" lon="10.4664329"><ele>32.0</ele><time>2026-05-04T16:24:52.384Z</time></trkpt><trkpt lat="44.8679642" lon="10.4666016"><ele>32.0</ele><time>2026-05-04T16:24:54.383Z</time></trkpt><trkpt lat="44.867962" lon="10.4667719"><ele>31.8</ele><time>2026-05-04T16:24:56.384Z</time></trkpt><trkpt lat="44.8679558" lon="10.4669323"><ele>31.6</ele><time>2026-05-04T16:24:58.383Z</time></trkpt><trkpt lat="44.8679542" lon="10.467102"><ele>31.400000000000002</ele><time>2026-05-04T16:25:00.384Z</time></trkpt><trkpt lat="44.8679679" lon="10.4671895"><ele>31.200000000000003</ele><time>2026-05-04T16:25:01.384Z</time></trkpt><trkpt lat="44.8679889" lon="10.4673481"><ele>31.0</ele><time>2026-05-04T16:25:03.383Z</time></trkpt><trkpt lat="44.8680136" lon="10.4675114"><ele>30.6</ele><time>2026-05-04T16:25:05.384Z</time></trkpt><trkpt lat="44.8680286" lon="10.4675977"><ele>30.200000000000003</ele><time>2026-05-04T16:25:06.383Z</time></trkpt><trkpt lat="44.8680429" lon="10.4677554"><ele>29.799999999999997</ele><time>2026-05-04T16:25:08.383Z</time></trkpt><trkpt lat="44.8680617" lon="10.4679152"><ele>29.4</ele><time>2026-05-04T16:25:10.384Z</time></trkpt><trkpt lat="44.8680621" lon="10.4680716"><ele>29.0</ele><time>2026-05-04T16:25:12.384Z</time></trkpt><trkpt lat="44.8680541" lon="10.4681714"><ele>29.0</ele><time>2026-05-04T16:25:13.384Z</time></trkpt><trkpt lat="44.8680566" lon="10.4683342"><ele>29.0</ele><time>2026-05-04T16:25:15.384Z</time></trkpt><trkpt lat="44.8680395" lon="10.4684859"><ele>29.0</ele><time>2026-05-04T16:25:17.383Z</time></trkpt><trkpt lat="44.8679806" lon="10.4686218"><ele>29.0</ele><time>2026-05-04T16:25:19.383Z</time></trkpt><trkpt lat="44.8679256" lon="10.4687445"><ele>29.0</ele><time>2026-05-04T16:25:21.383Z</time></trkpt><trkpt lat="44.8678414" lon="10.4688496"><ele>29.2</ele><time>2026-05-04T16:25:23.383Z</time></trkpt><trkpt lat="44.8677512" lon="10.4689609"><ele>29.4</ele><time>2026-05-04T16:25:25.383Z</time></trkpt><trkpt lat="44.8676957" lon="10.4690073"><ele>29.6</ele><time>2026-05-04T16:25:26.384Z</time></trkpt><trkpt lat="44.8675758" lon="10.4690795"><ele>29.8</ele><time>2026-05-04T16:25:28.383Z</time></trkpt><trkpt lat="44.8674672" lon="10.4691385"><ele>30.0</ele><time>2026-05-04T16:25:30.383Z</time></trkpt><trkpt lat="44.8673432" lon="10.4691619"><ele>30.0</ele><time>2026-05-04T16:25:32.384Z</time></trkpt><trkpt lat="44.8672236" lon="10.4691805"><ele>30.0</ele><time>2026-05-04T16:25:34.384Z</time></trkpt><trkpt lat="44.8671125" lon="10.469201"><ele>30.0</ele><time>2026-05-04T16:25:36.383Z</time></trkpt><trkpt lat="44.8670011" lon="10.4692152"><ele>30.0</ele><time>2026-05-04T16:25:38.383Z</time></trkpt><trkpt lat="44.8668858" lon="10.4692"><ele>30.0</ele><time>2026-05-04T16:25:40.383Z</time></trkpt><trkpt lat="44.8667754" lon="10.4691662"><ele>30.0</ele><time>2026-05-04T16:25:42.384Z</time></trkpt><trkpt lat="44.8666616" lon="10.4691217"><ele>30.0</ele><time>2026-05-04T16:25:44.383Z</time></trkpt><trkpt lat="44.866563" lon="10.4690548"><ele>30.0</ele><time>2026-05-04T16:25:46.383Z</time></trkpt><trkpt lat="44.8664649" lon="10.4689849"><ele>30.0</ele><time>2026-05-04T16:25:48.383Z</time></trkpt><trkpt lat="44.8663772" lon="10.4688761"><ele>30.0</ele><time>2026-05-04T16:25:50.384Z</time></trkpt><trkpt lat="44.8662823" lon="10.4687836"><ele>30.0</ele><time>2026-05-04T16:25:52.384Z</time></trkpt><trkpt lat="44.86619" lon="10.4686806"><ele>30.0</ele><time>2026-05-04T16:25:54.384Z</time></trkpt><trkpt lat="44.8661032" lon="10.4685779"><ele>30.25</ele><time>2026-05-04T16:25:56.383Z</time></trkpt><trkpt lat="44.8660322" lon="10.4684452"><ele>30.5</ele><time>2026-05-04T16:25:58.383Z</time></trkpt><trkpt lat="44.865948" lon="10.4683258"><ele>30.75</ele><time>2026-05-04T16:26:00.383Z</time></trkpt><trkpt lat="44.8658656" lon="10.46822"><ele>31.0</ele><time>2026-05-04T16:26:02.383Z</time></trkpt><trkpt lat="44.8657979" lon="10.468085"><ele>31.0</ele><time>2026-05-04T16:26:04.383Z</time></trkpt><trkpt lat="44.8657229" lon="10.4679576"><ele>31.0</ele><time>2026-05-04T16:26:06.383Z</time></trkpt><trkpt lat="44.8656508" lon="10.467834"><ele>31.0</ele><time>2026-05-04T16:26:08.383Z</time></trkpt><trkpt lat="44.8655726" lon="10.4677014"><ele>31.0</ele><time>2026-05-04T16:26:10.383Z</time></trkpt><trkpt lat="44.8655006" lon="10.4675716"><ele>31.0</ele><time>2026-05-04T16:26:12.383Z</time></trkpt><trkpt lat="44.8654436" lon="10.4674421"><ele>31.0</ele><time>2026-05-04T16:26:14.383Z</time></trkpt><trkpt lat="44.865373" lon="10.4673206"><ele>31.0</ele><time>2026-05-04T16:26:16.383Z</time></trkpt><trkpt lat="44.8652977" lon="10.467189"><ele>31.0</ele><time>2026-05-04T16:26:18.384Z</time></trkpt><trkpt lat="44.8652265" lon="10.4670547"><ele>31.0</ele><time>2026-05-04T16:26:20.383Z</time></trkpt><trkpt lat="44.8651541" lon="10.4669141"><ele>31.0</ele><time>2026-05-04T16:26:22.383Z</time></trkpt><trkpt lat="44.8650775" lon="10.466786"><ele>31.0</ele><time>2026-05-04T16:26:24.383Z</time></trkpt><trkpt lat="44.8650248" lon="10.4666683"><ele>31.0</ele><time>2026-05-04T16:26:26.383Z</time></trkpt><trkpt lat="44.8649581" lon="10.4665632"><ele>31.0</ele><time>2026-05-04T16:26:28.384Z</time></trkpt><trkpt lat="44.8648815" lon="10.466439"><ele>31.0</ele><time>2026-05-04T16:26:30.384Z</time></trkpt><trkpt lat="44.8648085" lon="10.4663212"><ele>31.0</ele><time>2026-05-04T16:26:32.383Z</time></trkpt><trkpt lat="44.864739" lon="10.4662039"><ele>31.0</ele><time>2026-05-04T16:26:34.384Z</time></trkpt><trkpt lat="44.8646476" lon="10.4660904"><ele>31.0</ele><time>2026-05-04T16:26:36.383Z</time></trkpt><trkpt lat="44.8645491" lon="10.4660029"><ele>30.8</ele><time>2026-05-04T16:26:38.383Z</time></trkpt><trkpt lat="44.8644947" lon="10.4659565"><ele>30.6</ele><time>2026-05-04T16:26:39.384Z</time></trkpt><trkpt lat="44.8643914" lon="10.4658721"><ele>30.4</ele><time>2026-05-04T16:26:41.383Z</time></trkpt><trkpt lat="44.8643016" lon="10.4657888"><ele>30.2</ele><time>2026-05-04T16:26:43.383Z</time></trkpt><trkpt lat="44.8642059" lon="10.4657038"><ele>30.0</ele><time>2026-05-04T16:26:45.384Z</time></trkpt><trkpt lat="44.8641186" lon="10.4656285"><ele>29.8</ele><time>2026-05-04T16:26:47.384Z</time></trkpt><trkpt lat="44.8640022" lon="10.4656176"><ele>29.6</ele><time>2026-05-04T16:26:49.383Z</time></trkpt><trkpt lat="44.8639245" lon="10.4657085"><ele>29.4</ele><time>2026-05-04T16:26:51.383Z</time></trkpt><trkpt lat="44.8638656" lon="10.465839"><ele>29.2</ele><time>2026-05-04T16:26:53.383Z</time></trkpt><trkpt lat="44.8638043" lon="10.4659694"><ele>29.0</ele><time>2026-05-04T16:26:55.384Z</time></trkpt><trkpt lat="44.8637397" lon="10.4661107"><ele>29.0</ele><time>2026-05-04T16:26:57.383Z</time></trkpt><trkpt lat="44.863681" lon="10.4662423"><ele>29.0</ele><time>2026-05-04T16:26:59.383Z</time></trkpt><trkpt lat="44.8636348" lon="10.4663738"><ele>29.0</ele><time>2026-05-04T16:27:01.384Z</time></trkpt><trkpt lat="44.8635816" lon="10.4665044"><ele>29.0</ele><time>2026-05-04T16:27:03.384Z</time></trkpt><trkpt lat="44.8635409" lon="10.4665788"><ele>29.0</ele><time>2026-05-04T16:27:04.383Z</time></trkpt><trkpt lat="44.8634889" lon="10.4667182"><ele>28.799999999999997</ele><time>2026-05-04T16:27:06.384Z</time></trkpt><trkpt lat="44.8634323" lon="10.4668485"><ele>28.599999999999998</ele><time>2026-05-04T16:27:08.383Z</time></trkpt><trkpt lat="44.8633965" lon="10.4669373"><ele>28.4</ele><time>2026-05-04T16:27:09.384Z</time></trkpt><trkpt lat="44.8633349" lon="10.4670775"><ele>28.2</ele><time>2026-05-04T16:27:11.383Z</time></trkpt><trkpt lat="44.8632671" lon="10.4671991"><ele>28.0</ele><time>2026-05-04T16:27:13.383Z</time></trkpt><trkpt lat="44.8631899" lon="10.4673206"><ele>28.4</ele><time>2026-05-04T16:27:15.383Z</time></trkpt><trkpt lat="44.8631041" lon="10.4674325"><ele>28.799999999999997</ele><time>2026-05-04T16:27:17.384Z</time></trkpt><trkpt lat="44.8630612" lon="10.4674984"><ele>29.2</ele><time>2026-05-04T16:27:18.383Z</time></trkpt><trkpt lat="44.8629763" lon="10.4676139"><ele>29.6</ele><time>2026-05-04T16:27:20.384Z</time></trkpt><trkpt lat="44.8628814" lon="10.4677207"><ele>30.0</ele><time>2026-05-04T16:27:22.384Z</time></trkpt><trkpt lat="44.8627874" lon="10.467806"><ele>30.0</ele><time>2026-05-04T16:27:24.384Z</time></trkpt><trkpt lat="44.8626853" lon="10.4678831"><ele>30.0</ele><time>2026-05-04T16:27:26.383Z</time></trkpt><trkpt lat="44.862585" lon="10.4679479"><ele>30.0</ele><time>2026-05-04T16:27:28.384Z</time></trkpt><trkpt lat="44.8624947" lon="10.4679746"><ele>30.0</ele><time>2026-05-04T16:27:30.383Z</time></trkpt><trkpt lat="44.8623908" lon="10.4680346"><ele>30.0</ele><time>2026-05-04T16:27:32.383Z</time></trkpt><trkpt lat="44.8622799" lon="10.4680932"><ele>30.5</ele><time>2026-05-04T16:27:34.383Z</time></trkpt><trkpt lat="44.8621763" lon="10.4681731"><ele>31.0</ele><time>2026-05-04T16:27:36.384Z</time></trkpt><trkpt lat="44.8620622" lon="10.4682297"><ele>31.5</ele><time>2026-05-04T16:27:38.384Z</time></trkpt><trkpt lat="44.8619555" lon="10.4682689"><ele>32.0</ele><time>2026-05-04T16:27:40.384Z</time></trkpt><trkpt lat="44.8618378" lon="10.4682985"><ele>31.8</ele><time>2026-05-04T16:27:42.384Z</time></trkpt><trkpt lat="44.8617119" lon="10.4683289"><ele>31.6</ele><time>2026-05-04T16:27:44.384Z</time></trkpt><trkpt lat="44.8615984" lon="10.4683705"><ele>31.400000000000002</ele><time>2026-05-04T16:27:46.383Z</time></trkpt><trkpt lat="44.8615378" lon="10.4683971"><ele>31.200000000000003</ele><time>2026-05-04T16:27:47.383Z</time></trkpt><trkpt lat="44.8614358" lon="10.4684731"><ele>31.0</ele><time>2026-05-04T16:27:49.383Z</time></trkpt><trkpt lat="44.8613338" lon="10.4685266"><ele>31.0</ele><time>2026-05-04T16:27:51.383Z</time></trkpt><trkpt lat="44.8612338" lon="10.468596"><ele>31.0</ele><time>2026-05-04T16:27:53.384Z</time></trkpt><trkpt lat="44.8611334" lon="10.4686486"><ele>31.0</ele><time>2026-05-04T16:27:55.384Z</time></trkpt><trkpt lat="44.8610346" lon="10.4687319"><ele>31.0</ele><time>2026-05-04T16:27:57.383Z</time></trkpt><trkpt lat="44.8609275" lon="10.46881"><ele>31.5</ele><time>2026-05-04T16:27:59.383Z</time></trkpt><trkpt lat="44.8608134" lon="10.4688826"><ele>32.0</ele><time>2026-05-04T16:28:01.384Z</time></trkpt><trkpt lat="44.8607174" lon="10.4689613"><ele>32.5</ele><time>2026-05-04T16:28:03.383Z</time></trkpt><trkpt lat="44.8605988" lon="10.4690253"><ele>33.0</ele><time>2026-05-04T16:28:05.384Z</time></trkpt><trkpt lat="44.8605016" lon="10.4690837"><ele>33.0</ele><time>2026-05-04T16:28:07.384Z</time></trkpt><trkpt lat="44.8604378" lon="10.4691161"><ele>33.0</ele><time>2026-05-04T16:28:08.383Z</time></trkpt><trkpt lat="44.8603376" lon="10.4691551"><ele>33.0</ele><time>2026-05-04T16:28:10.383Z</time></trkpt><trkpt lat="44.8602481" lon="10.4692625"><ele>33.0</ele><time>2026-05-04T16:28:12.383Z</time></trkpt><trkpt lat="44.8601676" lon="10.4693802"><ele>33.0</ele><time>2026-05-04T16:28:14.383Z</time></trkpt><trkpt lat="44.8600711" lon="10.4694845"><ele>32.4</ele><time>2026-05-04T16:28:16.383Z</time></trkpt><trkpt lat="44.8599809" lon="10.4695566"><ele>31.799999999999997</ele><time>2026-05-04T16:28:18.383Z</time></trkpt><trkpt lat="44.859885" lon="10.4696649"><ele>31.2</ele><time>2026-05-04T16:28:20.383Z</time></trkpt><trkpt lat="44.8598366" lon="10.4697228"><ele>30.6</ele><time>2026-05-04T16:28:21.383Z</time></trkpt><trkpt lat="44.8597834" lon="10.4697713"><ele>30.0</ele><time>2026-05-04T16:28:22.384Z</time></trkpt><trkpt lat="44.8597087" lon="10.4698852"><ele>30.0</ele><time>2026-05-04T16:28:24.384Z</time></trkpt><trkpt lat="44.8596293" lon="10.4700072"><ele>30.0</ele><time>2026-05-04T16:28:26.384Z</time></trkpt><trkpt lat="44.8595608" lon="10.4701335"><ele>30.0</ele><time>2026-05-04T16:28:28.384Z</time></trkpt><trkpt lat="44.8595064" lon="10.4702768"><ele>30.0</ele><time>2026-05-04T16:28:30.384Z</time></trkpt><trkpt lat="44.8594796" lon="10.470361"><ele>30.0</ele><time>2026-05-04T16:28:31.383Z</time></trkpt><trkpt lat="44.8594352" lon="10.4704996"><ele>30.0</ele><time>2026-05-04T16:28:33.383Z</time></trkpt><trkpt lat="44.8593689" lon="10.470632"><ele>30.0</ele><time>2026-05-04T16:28:35.383Z</time></trkpt><trkpt lat="44.8593187" lon="10.4707626"><ele>30.0</ele><time>2026-05-04T16:28:37.384Z</time></trkpt><trkpt lat="44.8592831" lon="10.4708465"><ele>30.0</ele><time>2026-05-04T16:28:38.383Z</time></trkpt><trkpt lat="44.859269" lon="10.4709335"><ele>30.0</ele><time>2026-05-04T16:28:39.383Z</time></trkpt><trkpt lat="44.8592263" lon="10.4710809"><ele>29.8</ele><time>2026-05-04T16:28:41.383Z</time></trkpt><trkpt lat="44.8592017" lon="10.4711654"><ele>29.6</ele><time>2026-05-04T16:28:42.384Z</time></trkpt><trkpt lat="44.8591382" lon="10.4712929"><ele>29.4</ele><time>2026-05-04T16:28:44.384Z</time></trkpt><trkpt lat="44.859064" lon="10.4714072"><ele>29.2</ele><time>2026-05-04T16:28:46.383Z</time></trkpt><trkpt lat="44.858965" lon="10.4714944"><ele>29.0</ele><time>2026-05-04T16:28:48.384Z</time></trkpt><trkpt lat="44.8588519" lon="10.4715476"><ele>29.0</ele><time>2026-05-04T16:28:50.383Z</time></trkpt><trkpt lat="44.8587508" lon="10.4715619"><ele>29.0</ele><time>2026-05-04T16:28:52.383Z</time></trkpt><trkpt lat="44.858635" lon="10.4715902"><ele>29.0</ele><time>2026-05-04T16:28:54.384Z</time></trkpt><trkpt lat="44.8585335" lon="10.4716145"><ele>29.0</ele><time>2026-05-04T16:28:56.384Z</time></trkpt><trkpt lat="44.8584189" lon="10.4715999"><ele>29.0</ele><time>2026-05-04T16:28:58.383Z</time></trkpt><trkpt lat="44.8583107" lon="10.4715524"><ele>29.0</ele><time>2026-05-04T16:29:00.384Z</time></trkpt><trkpt lat="44.8582102" lon="10.4714684"><ele>29.0</ele><time>2026-05-04T16:29:02.384Z</time></trkpt><trkpt lat="44.8581287" lon="10.4713593"><ele>29.0</ele><time>2026-05-04T16:29:04.384Z</time></trkpt><trkpt lat="44.8580576" lon="10.4712297"><ele>29.0</ele><time>2026-05-04T16:29:06.383Z</time></trkpt><trkpt lat="44.8579983" lon="10.471094"><ele>29.2</ele><time>2026-05-04T16:29:08.384Z</time></trkpt><trkpt lat="44.8579421" lon="10.4709628"><ele>29.4</ele><time>2026-05-04T16:29:10.383Z</time></trkpt><trkpt lat="44.8579011" lon="10.4708159"><ele>29.6</ele><time>2026-05-04T16:29:12.383Z</time></trkpt><trkpt lat="44.8578685" lon="10.470662"><ele>29.8</ele><time>2026-05-04T16:29:14.383Z</time></trkpt><trkpt lat="44.8578505" lon="10.4705048"><ele>30.0</ele><time>2026-05-04T16:29:16.383Z</time></trkpt><trkpt lat="44.8578478" lon="10.470338"><ele>30.2</ele><time>2026-05-04T16:29:18.384Z</time></trkpt><trkpt lat="44.8578404" lon="10.4701768"><ele>30.4</ele><time>2026-05-04T16:29:20.384Z</time></trkpt><trkpt lat="44.8578362" lon="10.4700855"><ele>30.6</ele><time>2026-05-04T16:29:21.383Z</time></trkpt><trkpt lat="44.8578328" lon="10.4699305"><ele>30.8</ele><time>2026-05-04T16:29:23.384Z</time></trkpt><trkpt lat="44.8578237" lon="10.4697581"><ele>31.0</ele><time>2026-05-04T16:29:25.383Z</time></trkpt><trkpt lat="44.8578292" lon="10.4695916"><ele>31.0</ele><time>2026-05-04T16:29:27.383Z</time></trkpt><trkpt lat="44.8578496" lon="10.4694248"><ele>31.0</ele><time>2026-05-04T16:29:29.384Z</time></trkpt><trkpt lat="44.8578792" lon="10.4692707"><ele>31.0</ele><time>2026-05-04T16:29:31.383Z</time></trkpt><trkpt lat="44.8579338" lon="10.4691273"><ele>31.0</ele><time>2026-05-04T16:29:33.383Z</time></trkpt><trkpt lat="44.8579719" lon="10.4689889"><ele>31.0</ele><time>2026-05-04T16:29:35.384Z</time></trkpt><trkpt lat="44.8580196" lon="10.4688418"><ele>31.0</ele><time>2026-05-04T16:29:37.383Z</time></trkpt><trkpt lat="44.8580572" lon="10.4687064"><ele>31.0</ele><time>2026-05-04T16:29:39.383Z</time></trkpt><trkpt lat="44.8580918" lon="10.4685642"><ele>31.0</ele><time>2026-05-04T16:29:41.384Z</time></trkpt><trkpt lat="44.8581443" lon="10.4684185"><ele>31.0</ele><time>2026-05-04T16:29:43.383Z</time></trkpt><trkpt lat="44.8581649" lon="10.4682762"><ele>31.0</ele><time>2026-05-04T16:29:45.383Z</time></trkpt><trkpt lat="44.858172" lon="10.4681131"><ele>31.0</ele><time>2026-05-04T16:29:47.384Z</time></trkpt><trkpt lat="44.8581656" lon="10.4679499"><ele>31.0</ele><time>2026-05-04T16:29:49.384Z</time></trkpt><trkpt lat="44.8581729" lon="10.4677911"><ele>31.0</ele><time>2026-05-04T16:29:51.384Z</time></trkpt><trkpt lat="44.8581683" lon="10.467629"><ele>31.0</ele><time>2026-05-04T16:29:53.384Z</time></trkpt><trkpt lat="44.8581666" lon="10.4674779"><ele>31.0</ele><time>2026-05-04T16:29:55.383Z</time></trkpt><trkpt lat="44.8581671" lon="10.4673182"><ele>31.0</ele><time>2026-05-04T16:29:57.384Z</time></trkpt><trkpt lat="44.8581599" lon="10.4671582"><ele>31.0</ele><time>2026-05-04T16:29:59.383Z</time></trkpt><trkpt lat="44.8581544" lon="10.4669998"><ele>31.0</ele><time>2026-05-04T16:30:01.384Z</time></trkpt><trkpt lat="44.8581375" lon="10.4668338"><ele>31.0</ele><time>2026-05-04T16:30:03.384Z</time></trkpt><trkpt lat="44.8581257" lon="10.4666865"><ele>31.0</ele><time>2026-05-04T16:30:05.384Z</time></trkpt><trkpt lat="44.8580896" lon="10.4665333"><ele>31.0</ele><time>2026-05-04T16:30:07.383Z</time></trkpt><trkpt lat="44.8580617" lon="10.4663888"><ele>31.0</ele><time>2026-05-04T16:30:09.383Z</time></trkpt><trkpt lat="44.8580258" lon="10.4662277"><ele>31.0</ele><time>2026-05-04T16:30:11.384Z</time></trkpt><trkpt lat="44.8579924" lon="10.4660787"><ele>31.0</ele><time>2026-05-04T16:30:13.384Z</time></trkpt><trkpt lat="44.8579465" lon="10.4659286"><ele>31.0</ele><time>2026-05-04T16:30:15.383Z</time></trkpt><trkpt lat="44.8579014" lon="10.4657767"><ele>31.0</ele><time>2026-05-04T16:30:17.383Z</time></trkpt><trkpt lat="44.8578591" lon="10.4656309"><ele>31.0</ele><time>2026-05-04T16:30:19.384Z</time></trkpt><trkpt lat="44.8578158" lon="10.4654816"><ele>30.8</ele><time>2026-05-04T16:30:21.383Z</time></trkpt><trkpt lat="44.8577952" lon="10.465397"><ele>30.6</ele><time>2026-05-04T16:30:22.384Z</time></trkpt><trkpt lat="44.8577659" lon="10.4652566"><ele>30.4</ele><time>2026-05-04T16:30:24.383Z</time></trkpt><trkpt lat="44.8577299" lon="10.4651053"><ele>30.2</ele><time>2026-05-04T16:30:26.384Z</time></trkpt><trkpt lat="44.8577023" lon="10.4649342"><ele>30.0</ele><time>2026-05-04T16:30:28.384Z</time></trkpt><trkpt lat="44.8576653" lon="10.4647826"><ele>30.0</ele><time>2026-05-04T16:30:30.384Z</time></trkpt><trkpt lat="44.8576212" lon="10.4646325"><ele>30.0</ele><time>2026-05-04T16:30:32.383Z</time></trkpt><trkpt lat="44.8575834" lon="10.4644851"><ele>30.0</ele><time>2026-05-04T16:30:34.384Z</time></trkpt><trkpt lat="44.8575304" lon="10.4643495"><ele>30.0</ele><time>2026-05-04T16:30:36.384Z</time></trkpt><trkpt lat="44.8574982" lon="10.4641932"><ele>30.2</ele><time>2026-05-04T16:30:38.383Z</time></trkpt><trkpt lat="44.8574546" lon="10.4640509"><ele>30.4</ele><time>2026-05-04T16:30:40.383Z</time></trkpt><trkpt lat="44.8573889" lon="10.4639345"><ele>30.6</ele><time>2026-05-04T16:30:42.383Z</time></trkpt><trkpt lat="44.8572792" lon="10.4638812"><ele>30.8</ele><time>2026-05-04T16:30:44.384Z</time></trkpt><trkpt lat="44.8571837" lon="10.4638771"><ele>31.0</ele><time>2026-05-04T16:30:46.384Z</time></trkpt><trkpt lat="44.8570851" lon="10.463958"><ele>31.0</ele><time>2026-05-04T16:30:48.384Z</time></trkpt><trkpt lat="44.8570094" lon="10.4640644"><ele>31.0</ele><time>2026-05-04T16:30:50.384Z</time></trkpt><trkpt lat="44.85694" lon="10.46417"><ele>31.0</ele><time>2026-05-04T16:30:52.383Z</time></trkpt><trkpt lat="44.8568644" lon="10.4642624"><ele>31.0</ele><time>2026-05-04T16:30:54.384Z</time></trkpt><trkpt lat="44.8568261" lon="10.4643548"><ele>31.0</ele><time>2026-05-04T16:30:56.384Z</time></trkpt><trkpt lat="44.8567674" lon="10.464455"><ele>30.833333333333336</ele><time>2026-05-04T16:30:58.383Z</time></trkpt><trkpt lat="44.8567185" lon="10.4645392"><ele>30.666666666666668</ele><time>2026-05-04T16:31:00.383Z</time></trkpt><trkpt lat="44.8566661" lon="10.4646223"><ele>30.5</ele><time>2026-05-04T16:31:02.384Z</time></trkpt><trkpt lat="44.8566107" lon="10.4646984"><ele>30.333333333333336</ele><time>2026-05-04T16:31:04.383Z</time></trkpt><trkpt lat="44.8565527" lon="10.4647812"><ele>30.166666666666668</ele><time>2026-05-04T16:31:06.384Z</time></trkpt><trkpt lat="44.8564969" lon="10.4648639"><ele>30.0</ele><time>2026-05-04T16:31:08.383Z</time></trkpt><trkpt lat="44.8564332" lon="10.4649456"><ele>30.4</ele><time>2026-05-04T16:31:10.384Z</time></trkpt><trkpt lat="44.8563581" lon="10.4650151"><ele>30.8</ele><time>2026-05-04T16:31:12.384Z</time></trkpt><trkpt lat="44.8562843" lon="10.465082"><ele>31.200000000000003</ele><time>2026-05-04T16:31:14.383Z</time></trkpt><trkpt lat="44.8562022" lon="10.4651613"><ele>31.6</ele><time>2026-05-04T16:31:16.383Z</time></trkpt><trkpt lat="44.856127" lon="10.4652448"><ele>32.0</ele><time>2026-05-04T16:31:18.384Z</time></trkpt><trkpt lat="44.8560503" lon="10.4653365"><ele>32.0</ele><time>2026-05-04T16:31:20.383Z</time></trkpt><trkpt lat="44.855961" lon="10.4654217"><ele>32.0</ele><time>2026-05-04T16:31:22.383Z</time></trkpt><trkpt lat="44.8558627" lon="10.4655086"><ele>32.0</ele><time>2026-05-04T16:31:24.383Z</time></trkpt><trkpt lat="44.8557762" lon="10.4656026"><ele>32.0</ele><time>2026-05-04T16:31:26.383Z</time></trkpt><trkpt lat="44.855685" lon="10.4656886"><ele>32.0</ele><time>2026-05-04T16:31:28.383Z</time></trkpt><trkpt lat="44.8556009" lon="10.465787"><ele>32.0</ele><time>2026-05-04T16:31:30.384Z</time></trkpt><trkpt lat="44.8555212" lon="10.4658887"><ele>32.0</ele><time>2026-05-04T16:31:32.384Z</time></trkpt><trkpt lat="44.8554311" lon="10.4659601"><ele>32.0</ele><time>2026-05-04T16:31:34.383Z</time></trkpt><trkpt lat="44.8553361" lon="10.4660161"><ele>32.0</ele><time>2026-05-04T16:31:36.383Z</time></trkpt><trkpt lat="44.8552314" lon="10.4660779"><ele>32.0</ele><time>2026-05-04T16:31:38.383Z</time></trkpt><trkpt lat="44.8551276" lon="10.4661243"><ele>32.0</ele><time>2026-05-04T16:31:40.383Z</time></trkpt><trkpt lat="44.8550647" lon="10.4661337"><ele>32.0</ele><time>2026-05-04T16:31:41.383Z</time></trkpt><trkpt lat="44.8549462" lon="10.4661356"><ele>32.0</ele><time>2026-05-04T16:31:43.384Z</time></trkpt><trkpt lat="44.8548377" lon="10.466139"><ele>32.0</ele><time>2026-05-04T16:31:45.384Z</time></trkpt><trkpt lat="44.8547157" lon="10.4661008"><ele>32.0</ele><time>2026-05-04T16:31:47.384Z</time></trkpt><trkpt lat="44.8546076" lon="10.4660537"><ele>32.0</ele><time>2026-05-04T16:31:49.384Z</time></trkpt><trkpt lat="44.8544971" lon="10.4660238"><ele>32.0</ele><time>2026-05-04T16:31:51.383Z</time></trkpt><trkpt lat="44.8543954" lon="10.4659826"><ele>32.0</ele><time>2026-05-04T16:31:53.383Z</time></trkpt><trkpt lat="44.8542889" lon="10.4659298"><ele>32.0</ele><time>2026-05-04T16:31:55.384Z</time></trkpt><trkpt lat="44.854175" lon="10.465887"><ele>32.0</ele><time>2026-05-04T16:31:57.384Z</time></trkpt><trkpt lat="44.8540709" lon="10.4658329"><ele>31.8</ele><time>2026-05-04T16:31:59.383Z</time></trkpt><trkpt lat="44.853987" lon="10.465765"><ele>31.6</ele><time>2026-05-04T16:32:01.384Z</time></trkpt><trkpt lat="44.8538933" lon="10.46569"><ele>31.400000000000002</ele><time>2026-05-04T16:32:03.384Z</time></trkpt><trkpt lat="44.8537901" lon="10.4656065"><ele>31.200000000000003</ele><time>2026-05-04T16:32:05.383Z</time></trkpt><trkpt lat="44.85373" lon="10.4655797"><ele>31.0</ele><time>2026-05-04T16:32:06.383Z</time></trkpt><trkpt lat="44.8536505" lon="10.4654888"><ele>31.0</ele><time>2026-05-04T16:32:08.384Z</time></trkpt><trkpt lat="44.8535583" lon="10.4654144"><ele>31.0</ele><time>2026-05-04T16:32:10.384Z</time></trkpt><trkpt lat="44.8534549" lon="10.4653306"><ele>31.0</ele><time>2026-05-04T16:32:12.384Z</time></trkpt><trkpt lat="44.8533536" lon="10.4652714"><ele>31.0</ele><time>2026-05-04T16:32:14.384Z</time></trkpt><trkpt lat="44.8532501" lon="10.4652839"><ele>31.0</ele><time>2026-05-04T16:32:16.384Z</time></trkpt><trkpt lat="44.8531419" lon="10.465302"><ele>31.0</ele><time>2026-05-04T16:32:18.383Z</time></trkpt><trkpt lat="44.8530508" lon="10.4652549"><ele>31.0</ele><time>2026-05-04T16:32:20.383Z</time></trkpt><trkpt lat="44.8529943" lon="10.4651682"><ele>31.0</ele><time>2026-05-04T16:32:22.383Z</time></trkpt><trkpt lat="44.8529488" lon="10.465046"><ele>31.0</ele><time>2026-05-04T16:32:24.384Z</time></trkpt><trkpt lat="44.8528866" lon="10.4649159"><ele>31.0</ele><time>2026-05-04T16:32:26.384Z</time></trkpt><trkpt lat="44.8528127" lon="10.464818"><ele>31.0</ele><time>2026-05-04T16:32:28.383Z</time></trkpt><trkpt lat="44.8527158" lon="10.4647164"><ele>31.0</ele><time>2026-05-04T16:32:30.384Z</time></trkpt><trkpt lat="44.8526221" lon="10.4646216"><ele>31.0</ele><time>2026-05-04T16:32:32.384Z</time></trkpt><trkpt lat="44.8525402" lon="10.4644992"><ele>31.0</ele><time>2026-05-04T16:32:34.384Z</time></trkpt><trkpt lat="44.8524626" lon="10.4643889"><ele>31.0</ele><time>2026-05-04T16:32:36.384Z</time></trkpt><trkpt lat="44.852381" lon="10.4642616"><ele>31.0</ele><time>2026-05-04T16:32:38.383Z</time></trkpt><trkpt lat="44.852314" lon="10.4641243"><ele>31.0</ele><time>2026-05-04T16:32:40.384Z</time></trkpt><trkpt lat="44.8522413" lon="10.4640115"><ele>31.0</ele><time>2026-05-04T16:32:42.383Z</time></trkpt><trkpt lat="44.8521695" lon="10.4638879"><ele>31.200000000000003</ele><time>2026-05-04T16:32:44.383Z</time></trkpt><trkpt lat="44.852137" lon="10.4637741"><ele>31.400000000000002</ele><time>2026-05-04T16:32:46.383Z</time></trkpt><trkpt lat="44.8520973" lon="10.463618"><ele>31.6</ele><time>2026-05-04T16:32:48.383Z</time></trkpt><trkpt lat="44.8520782" lon="10.4634508"><ele>31.8</ele><time>2026-05-04T16:32:50.384Z</time></trkpt><trkpt lat="44.8520593" lon="10.4633002"><ele>32.0</ele><time>2026-05-04T16:32:52.384Z</time></trkpt><trkpt lat="44.8520514" lon="10.463144"><ele>32.0</ele><time>2026-05-04T16:32:54.384Z</time></trkpt><trkpt lat="44.8520288" lon="10.4629737"><ele>32.0</ele><time>2026-05-04T16:32:56.383Z</time></trkpt><trkpt lat="44.8520128" lon="10.4628045"><ele>32.0</ele><time>2026-05-04T16:32:58.383Z</time></trkpt><trkpt lat="44.8519893" lon="10.4626552"><ele>32.0</ele><time>2026-05-04T16:33:00.383Z</time></trkpt><trkpt lat="44.8519648" lon="10.4624935"><ele>32.0</ele><time>2026-05-04T16:33:02.384Z</time></trkpt><trkpt lat="44.8519199" lon="10.4623686"><ele>32.0</ele><time>2026-05-04T16:33:04.383Z</time></trkpt><trkpt lat="44.8518697" lon="10.4622277"><ele>32.0</ele><time>2026-05-04T16:33:06.384Z</time></trkpt><trkpt lat="44.851802" lon="10.4620923"><ele>32.0</ele><time>2026-05-04T16:33:08.384Z</time></trkpt><trkpt lat="44.8517236" lon="10.4619706"><ele>32.0</ele><time>2026-05-04T16:33:10.384Z</time></trkpt><trkpt lat="44.8517009" lon="10.4618869"><ele>32.25</ele><time>2026-05-04T16:33:11.384Z</time></trkpt><trkpt lat="44.8516264" lon="10.4617597"><ele>32.5</ele><time>2026-05-04T16:33:13.383Z</time></trkpt><trkpt lat="44.8515542" lon="10.4616383"><ele>32.75</ele><time>2026-05-04T16:33:15.384Z</time></trkpt><trkpt lat="44.8514828" lon="10.4615084"><ele>33.0</ele><time>2026-05-04T16:33:17.383Z</time></trkpt><trkpt lat="44.8514125" lon="10.4613832"><ele>33.199999999999996</ele><time>2026-05-04T16:33:19.384Z</time></trkpt><trkpt lat="44.8513349" lon="10.4612521"><ele>33.4</ele><time>2026-05-04T16:33:21.384Z</time></trkpt><trkpt lat="44.8512892" lon="10.4611379"><ele>33.599999999999994</ele><time>2026-05-04T16:33:23.384Z</time></trkpt><trkpt lat="44.8512525" lon="10.4610623"><ele>33.8</ele><time>2026-05-04T16:33:24.383Z</time></trkpt><trkpt lat="44.8511611" lon="10.4609821"><ele>34.0</ele><time>2026-05-04T16:33:26.384Z</time></trkpt><trkpt lat="44.8511155" lon="10.4609187"><ele>34.0</ele><time>2026-05-04T16:33:27.384Z</time></trkpt><trkpt lat="44.8510691" lon="10.460858"><ele>34.0</ele><time>2026-05-04T16:33:28.384Z</time></trkpt><trkpt lat="44.8509747" lon="10.4607673"><ele>34.0</ele><time>2026-05-04T16:33:30.384Z</time></trkpt><trkpt lat="44.850908" lon="10.4607704"><ele>34.0</ele><time>2026-05-04T16:33:31.384Z</time></trkpt><trkpt lat="44.8507982" lon="10.4607658"><ele>34.0</ele><time>2026-05-04T16:33:33.384Z</time></trkpt><trkpt lat="44.8506804" lon="10.4607826"><ele>33.5</ele><time>2026-05-04T16:33:35.384Z</time></trkpt><trkpt lat="44.8505702" lon="10.4608051"><ele>33.0</ele><time>2026-05-04T16:33:37.383Z</time></trkpt><trkpt lat="44.8504565" lon="10.4608493"><ele>32.5</ele><time>2026-05-04T16:33:39.384Z</time></trkpt><trkpt lat="44.8503421" lon="10.4608934"><ele>32.0</ele><time>2026-05-04T16:33:41.383Z</time></trkpt><trkpt lat="44.8502286" lon="10.4609191"><ele>32.0</ele><time>2026-05-04T16:33:43.383Z</time></trkpt><trkpt lat="44.8501216" lon="10.4609211"><ele>32.0</ele><time>2026-05-04T16:33:45.384Z</time></trkpt><trkpt lat="44.8500005" lon="10.4609042"><ele>32.0</ele><time>2026-05-04T16:33:47.383Z</time></trkpt><trkpt lat="44.8499075" lon="10.4608398"><ele>32.0</ele><time>2026-05-04T16:33:49.383Z</time></trkpt><trkpt lat="44.8498461" lon="10.4608018"><ele>32.0</ele><time>2026-05-04T16:33:50.384Z</time></trkpt><trkpt lat="44.8497485" lon="10.4607446"><ele>32.0</ele><time>2026-05-04T16:33:52.383Z</time></trkpt><trkpt lat="44.8496867" lon="10.460725"><ele>32.0</ele><time>2026-05-04T16:33:53.384Z</time></trkpt><trkpt lat="44.8495954" lon="10.4606473"><ele>32.0</ele><time>2026-05-04T16:33:55.383Z</time></trkpt><trkpt lat="44.8494905" lon="10.4605653"><ele>32.0</ele><time>2026-05-04T16:33:57.384Z</time></trkpt><trkpt lat="44.8493962" lon="10.4604843"><ele>32.0</ele><time>2026-05-04T16:33:59.383Z</time></trkpt><trkpt lat="44.8493017" lon="10.4604001"><ele>31.8</ele><time>2026-05-04T16:34:01.383Z</time></trkpt><trkpt lat="44.8492081" lon="10.46035"><ele>31.6</ele><time>2026-05-04T16:34:03.384Z</time></trkpt><trkpt lat="44.8491054" lon="10.4602775"><ele>31.400000000000002</ele><time>2026-05-04T16:34:05.384Z</time></trkpt><trkpt lat="44.8490481" lon="10.4602374"><ele>31.200000000000003</ele><time>2026-05-04T16:34:06.383Z</time></trkpt><trkpt lat="44.8489449" lon="10.4601603"><ele>31.0</ele><time>2026-05-04T16:34:08.383Z</time></trkpt><trkpt lat="44.8488479" lon="10.4600821"><ele>31.0</ele><time>2026-05-04T16:34:10.383Z</time></trkpt><trkpt lat="44.8487581" lon="10.4600059"><ele>31.0</ele><time>2026-05-04T16:34:12.383Z</time></trkpt><trkpt lat="44.848669" lon="10.4599308"><ele>31.0</ele><time>2026-05-04T16:34:14.383Z</time></trkpt><trkpt lat="44.8485862" lon="10.4598473"><ele>31.0</ele><time>2026-05-04T16:34:16.384Z</time></trkpt><trkpt lat="44.8484907" lon="10.459758"><ele>31.0</ele><time>2026-05-04T16:34:18.383Z</time></trkpt><trkpt lat="44.8483977" lon="10.4596798"><ele>31.200000000000003</ele><time>2026-05-04T16:34:20.383Z</time></trkpt><trkpt lat="44.8483067" lon="10.4595936"><ele>31.400000000000002</ele><time>2026-05-04T16:34:22.384Z</time></trkpt><trkpt lat="44.8482378" lon="10.4594728"><ele>31.6</ele><time>2026-05-04T16:34:24.384Z</time></trkpt><trkpt lat="44.848169" lon="10.4593485"><ele>31.8</ele><time>2026-05-04T16:34:26.384Z</time></trkpt><trkpt lat="44.8481236" lon="10.459213"><ele>32.0</ele><time>2026-05-04T16:34:28.383Z</time></trkpt><trkpt lat="44.8480695" lon="10.4590775"><ele>32.0</ele><time>2026-05-04T16:34:30.384Z</time></trkpt><trkpt lat="44.8480458" lon="10.4589152"><ele>32.0</ele><time>2026-05-04T16:34:32.384Z</time></trkpt><trkpt lat="44.8480075" lon="10.4587629"><ele>32.0</ele><time>2026-05-04T16:34:34.384Z</time></trkpt><trkpt lat="44.8479711" lon="10.4586311"><ele>32.0</ele><time>2026-05-04T16:34:36.383Z</time></trkpt><trkpt lat="44.8479285" lon="10.4584694"><ele>31.8</ele><time>2026-05-04T16:34:38.383Z</time></trkpt><trkpt lat="44.8479129" lon="10.4583041"><ele>31.6</ele><time>2026-05-04T16:34:40.383Z</time></trkpt><trkpt lat="44.8479268" lon="10.4581507"><ele>31.400000000000002</ele><time>2026-05-04T16:34:42.383Z</time></trkpt><trkpt lat="44.8479755" lon="10.4580099"><ele>31.200000000000003</ele><time>2026-05-04T16:34:44.384Z</time></trkpt><trkpt lat="44.8480239" lon="10.4578763"><ele>31.0</ele><time>2026-05-04T16:34:46.383Z</time></trkpt><trkpt lat="44.8480619" lon="10.4577218"><ele>31.0</ele><time>2026-05-04T16:34:48.383Z</time></trkpt><trkpt lat="44.8480995" lon="10.4575864"><ele>31.0</ele><time>2026-05-04T16:34:50.383Z</time></trkpt><trkpt lat="44.8481013" lon="10.457424"><ele>31.0</ele><time>2026-05-04T16:34:52.384Z</time></trkpt><trkpt lat="44.8480523" lon="10.4572741"><ele>31.0</ele><time>2026-05-04T16:34:54.384Z</time></trkpt><trkpt lat="44.8480011" lon="10.4571404"><ele>31.0</ele><time>2026-05-04T16:34:56.384Z</time></trkpt><trkpt lat="44.8479616" lon="10.4570616"><ele>31.0</ele><time>2026-05-04T16:34:57.384Z</time></trkpt><trkpt lat="44.8479116" lon="10.4569394"><ele>31.0</ele><time>2026-05-04T16:34:59.383Z</time></trkpt><trkpt lat="44.8478487" lon="10.4568142"><ele>31.0</ele><time>2026-05-04T16:35:01.384Z</time></trkpt><trkpt lat="44.8477866" lon="10.4566906"><ele>31.0</ele><time>2026-05-04T16:35:03.383Z</time></trkpt><trkpt lat="44.847716" lon="10.4565524"><ele>31.0</ele><time>2026-05-04T16:35:05.383Z</time></trkpt><trkpt lat="44.8476482" lon="10.4564191"><ele>31.6</ele><time>2026-05-04T16:35:07.384Z</time></trkpt><trkpt lat="44.8475765" lon="10.4562916"><ele>32.2</ele><time>2026-05-04T16:35:09.384Z</time></trkpt><trkpt lat="44.8475129" lon="10.4561677"><ele>32.8</ele><time>2026-05-04T16:35:11.384Z</time></trkpt><trkpt lat="44.8474637" lon="10.456035"><ele>33.4</ele><time>2026-05-04T16:35:13.383Z</time></trkpt><trkpt lat="44.8474214" lon="10.4559386"><ele>34.0</ele><time>2026-05-04T16:35:15.384Z</time></trkpt><trkpt lat="44.8473902" lon="10.4558306"><ele>34.0</ele><time>2026-05-04T16:35:17.383Z</time></trkpt><trkpt lat="44.8473433" lon="10.455737"><ele>34.0</ele><time>2026-05-04T16:35:19.383Z</time></trkpt><trkpt lat="44.8472662" lon="10.4556127"><ele>34.0</ele><time>2026-05-04T16:35:21.384Z</time></trkpt><trkpt lat="44.8471701" lon="10.455514"><ele>34.0</ele><time>2026-05-04T16:35:23.384Z</time></trkpt><trkpt lat="44.8470656" lon="10.4554358"><ele>34.0</ele><time>2026-05-04T16:35:25.384Z</time></trkpt><trkpt lat="44.8469608" lon="10.455379"><ele>33.8</ele><time>2026-05-04T16:35:27.384Z</time></trkpt><trkpt lat="44.8468743" lon="10.4553507"><ele>33.599999999999994</ele><time>2026-05-04T16:35:29.383Z</time></trkpt><trkpt lat="44.8467702" lon="10.4552908"><ele>33.4</ele><time>2026-05-04T16:35:31.383Z</time></trkpt><trkpt lat="44.8466658" lon="10.4552279"><ele>33.199999999999996</ele><time>2026-05-04T16:35:33.383Z</time></trkpt><trkpt lat="44.8466059" lon="10.4551609"><ele>33.0</ele><time>2026-05-04T16:35:35.383Z</time></trkpt><trkpt lat="44.8465048" lon="10.4551018"><ele>33.0</ele><time>2026-05-04T16:35:37.384Z</time></trkpt><trkpt lat="44.8463995" lon="10.4550412"><ele>33.0</ele><time>2026-05-04T16:35:39.384Z</time></trkpt><trkpt lat="44.8463071" lon="10.4549856"><ele>33.0</ele><time>2026-05-04T16:35:41.384Z</time></trkpt><trkpt lat="44.8462104" lon="10.4549264"><ele>33.0</ele><time>2026-05-04T16:35:43.383Z</time></trkpt><trkpt lat="44.8460962" lon="10.4548829"><ele>33.0</ele><time>2026-05-04T16:35:45.383Z</time></trkpt><trkpt lat="44.8460172" lon="10.4548046"><ele>33.4</ele><time>2026-05-04T16:35:47.383Z</time></trkpt><trkpt lat="44.8459608" lon="10.4547646"><ele>33.8</ele><time>2026-05-04T16:35:48.383Z</time></trkpt><trkpt lat="44.8458432" lon="10.4547103"><ele>34.2</ele><time>2026-05-04T16:35:50.384Z</time></trkpt><trkpt lat="44.8457414" lon="10.4546734"><ele>34.6</ele><time>2026-05-04T16:35:52.383Z</time></trkpt><trkpt lat="44.8456774" lon="10.454669"><ele>35.0</ele><time>2026-05-04T16:35:53.383Z</time></trkpt><trkpt lat="44.8455717" lon="10.4546602"><ele>35.0</ele><time>2026-05-04T16:35:55.384Z</time></trkpt><trkpt lat="44.8454554" lon="10.4546936"><ele>35.0</ele><time>2026-05-04T16:35:57.384Z</time></trkpt><trkpt lat="44.8453578" lon="10.4547219"><ele>35.0</ele><time>2026-05-04T16:35:59.384Z</time></trkpt><trkpt lat="44.8452724" lon="10.4547566"><ele>35.0</ele><time>2026-05-04T16:36:01.384Z</time></trkpt><trkpt lat="44.8451835" lon="10.4547935"><ele>35.0</ele><time>2026-05-04T16:36:03.383Z</time></trkpt><trkpt lat="44.8450769" lon="10.4548011"><ele>34.8</ele><time>2026-05-04T16:36:05.384Z</time></trkpt><trkpt lat="44.8449892" lon="10.454774"><ele>34.6</ele><time>2026-05-04T16:36:07.383Z</time></trkpt><trkpt lat="44.8448934" lon="10.4547139"><ele>34.4</ele><time>2026-05-04T16:36:09.383Z</time></trkpt><trkpt lat="44.8448059" lon="10.454646"><ele>34.2</ele><time>2026-05-04T16:36:11.384Z</time></trkpt><trkpt lat="44.8447246" lon="10.4545659"><ele>34.0</ele><time>2026-05-04T16:36:13.383Z</time></trkpt><trkpt lat="44.8446334" lon="10.4544988"><ele>34.0</ele><time>2026-05-04T16:36:15.383Z</time></trkpt><trkpt lat="44.8445318" lon="10.4544596"><ele>34.0</ele><time>2026-05-04T16:36:17.384Z</time></trkpt><trkpt lat="44.84442" lon="10.4544321"><ele>34.0</ele><time>2026-05-04T16:36:19.383Z</time></trkpt><trkpt lat="44.8443154" lon="10.4544218"><ele>34.0</ele><time>2026-05-04T16:36:21.384Z</time></trkpt><trkpt lat="44.8442282" lon="10.4544253"><ele>34.0</ele><time>2026-05-04T16:36:23.384Z</time></trkpt><trkpt lat="44.8441511" lon="10.4544377"><ele>34.16666666666667</ele><time>2026-05-04T16:36:25.383Z</time></trkpt><trkpt lat="44.8440879" lon="10.4545248"><ele>34.333333333333336</ele><time>2026-05-04T16:36:28.383Z</time></trkpt><trkpt lat="44.8440597" lon="10.4546295"><ele>34.5</ele><time>2026-05-04T16:36:32.383Z</time></trkpt><trkpt lat="44.8440309" lon="10.4545239"><ele>34.666666666666664</ele><time>2026-05-04T16:36:36.383Z</time></trkpt><trkpt lat="44.8440221" lon="10.4544002"><ele>34.83333333333333</ele><time>2026-05-04T16:36:39.383Z</time></trkpt><trkpt lat="44.8440136" lon="10.4542932"><ele>35.0</ele><time>2026-05-04T16:36:41.383Z</time></trkpt><trkpt lat="44.844002" lon="10.454188"><ele>34.666666666666664</ele><time>2026-05-04T16:36:43.384Z</time></trkpt><trkpt lat="44.8439895" lon="10.4540754"><ele>34.33333333333333</ele><time>2026-05-04T16:36:45.383Z</time></trkpt><trkpt lat="44.8439758" lon="10.4539597"><ele>34.0</ele><time>2026-05-04T16:36:47.383Z</time></trkpt><trkpt lat="44.8439621" lon="10.4538403"><ele>33.666666666666664</ele><time>2026-05-04T16:36:49.384Z</time></trkpt><trkpt lat="44.843948" lon="10.4537263"><ele>33.333333333333336</ele><time>2026-05-04T16:36:51.384Z</time></trkpt><trkpt lat="44.8439359" lon="10.4536137"><ele>33.0</ele><time>2026-05-04T16:36:53.384Z</time></trkpt><trkpt lat="44.8439251" lon="10.4534947"><ele>33.0</ele><time>2026-05-04T16:36:55.383Z</time></trkpt><trkpt lat="44.8439135" lon="10.4533804"><ele>33.0</ele><time>2026-05-04T16:36:57.383Z</time></trkpt><trkpt lat="44.8439069" lon="10.4532666"><ele>33.0</ele><time>2026-05-04T16:36:59.383Z</time></trkpt><trkpt lat="44.8438976" lon="10.4531284"><ele>33.0</ele><time>2026-05-04T16:37:01.384Z</time></trkpt><trkpt lat="44.8438698" lon="10.4529886"><ele>33.0</ele><time>2026-05-04T16:37:03.384Z</time></trkpt><trkpt lat="44.843863" lon="10.4528515"><ele>33.5</ele><time>2026-05-04T16:37:05.383Z</time></trkpt><trkpt lat="44.8438588" lon="10.4527149"><ele>34.0</ele><time>2026-05-04T16:37:07.383Z</time></trkpt><trkpt lat="44.843881" lon="10.4526033"><ele>34.5</ele><time>2026-05-04T16:37:09.383Z</time></trkpt><trkpt lat="44.8439028" lon="10.4525107"><ele>35.0</ele><time>2026-05-04T16:37:12.383Z</time></trkpt><trkpt lat="44.8439456" lon="10.4524427"><ele>35.5</ele><time>2026-05-04T16:37:16.383Z</time></trkpt><trkpt lat="44.8440278" lon="10.4524023"><ele>36.0</ele><time>2026-05-04T16:37:19.384Z</time></trkpt><trkpt lat="44.8440964" lon="10.4523772"><ele>36.00000000000001</ele><time>2026-05-04T16:37:21.384Z</time></trkpt><trkpt lat="44.8441579" lon="10.4523463"><ele>36.0</ele><time>2026-05-04T16:37:23.383Z</time></trkpt><trkpt lat="44.8442214" lon="10.4523097"><ele>36.0</ele><time>2026-05-04T16:37:25.383Z</time></trkpt><trkpt lat="44.8442918" lon="10.4522794"><ele>36.0</ele><time>2026-05-04T16:37:27.384Z</time></trkpt><trkpt lat="44.8443632" lon="10.4522541"><ele>36.0</ele><time>2026-05-04T16:37:29.384Z</time></trkpt><trkpt lat="44.8444331" lon="10.4522288"><ele>36.00000000000001</ele><time>2026-05-04T16:37:31.384Z</time></trkpt><trkpt lat="44.8445135" lon="10.4522031"><ele>36.0</ele><time>2026-05-04T16:37:33.384Z</time></trkpt><trkpt lat="44.844597" lon="10.4521751"><ele>35.8</ele><time>2026-05-04T16:37:35.384Z</time></trkpt><trkpt lat="44.8446786" lon="10.4521533"><ele>35.6</ele><time>2026-05-04T16:37:37.383Z</time></trkpt><trkpt lat="44.8447666" lon="10.4521131"><ele>35.4</ele><time>2026-05-04T16:37:39.383Z</time></trkpt><trkpt lat="44.8448566" lon="10.4520875"><ele>35.2</ele><time>2026-05-04T16:37:41.383Z</time></trkpt><trkpt lat="44.8449534" lon="10.4520492"><ele>35.0</ele><time>2026-05-04T16:37:43.383Z</time></trkpt><trkpt lat="44.8450538" lon="10.4520021"><ele>35.2</ele><time>2026-05-04T16:37:45.383Z</time></trkpt><trkpt lat="44.8451484" lon="10.4519627"><ele>35.4</ele><time>2026-05-04T16:37:47.383Z</time></trkpt><trkpt lat="44.8452509" lon="10.4519369"><ele>35.6</ele><time>2026-05-04T16:37:49.383Z</time></trkpt><trkpt lat="44.8453431" lon="10.4518892"><ele>35.8</ele><time>2026-05-04T16:37:51.384Z</time></trkpt><trkpt lat="44.8454376" lon="10.451861"><ele>36.0</ele><time>2026-05-04T16:37:53.384Z</time></trkpt><trkpt lat="44.8455384" lon="10.4518204"><ele>36.0</ele><time>2026-05-04T16:37:55.383Z</time></trkpt><trkpt lat="44.8456054" lon="10.4517409"><ele>36.0</ele><time>2026-05-04T16:37:57.384Z</time></trkpt><trkpt lat="44.8456152" lon="10.4516202"><ele>36.0</ele><time>2026-05-04T16:37:59.384Z</time></trkpt><trkpt lat="44.8455961" lon="10.4515101"><ele>36.0</ele><time>2026-05-04T16:38:01.383Z</time></trkpt><trkpt lat="44.8455895" lon="10.4513863"><ele>36.0</ele><time>2026-05-04T16:38:03.383Z</time></trkpt><trkpt lat="44.8455942" lon="10.4512626"><ele>36.0</ele><time>2026-05-04T16:38:05.383Z</time></trkpt><trkpt lat="44.8456201" lon="10.4511412"><ele>36.2</ele><time>2026-05-04T16:38:07.383Z</time></trkpt><trkpt lat="44.8456433" lon="10.4510198"><ele>36.400000000000006</ele><time>2026-05-04T16:38:09.383Z</time></trkpt><trkpt lat="44.8456799" lon="10.450886"><ele>36.6</ele><time>2026-05-04T16:38:11.384Z</time></trkpt><trkpt lat="44.8456941" lon="10.4507437"><ele>36.800000000000004</ele><time>2026-05-04T16:38:13.383Z</time></trkpt><trkpt lat="44.8457171" lon="10.4506083"><ele>37.0</ele><time>2026-05-04T16:38:15.384Z</time></trkpt><trkpt lat="44.8457401" lon="10.4504795"><ele>37.0</ele><time>2026-05-04T16:38:17.384Z</time></trkpt><trkpt lat="44.8457729" lon="10.450349"><ele>37.0</ele><time>2026-05-04T16:38:19.383Z</time></trkpt><trkpt lat="44.8457916" lon="10.4502128"><ele>37.0</ele><time>2026-05-04T16:38:21.383Z</time></trkpt><trkpt lat="44.8458261" lon="10.4500868"><ele>37.0</ele><time>2026-05-04T16:38:23.383Z</time></trkpt><trkpt lat="44.8458391" lon="10.4499397"><ele>37.0</ele><time>2026-05-04T16:38:25.384Z</time></trkpt><trkpt lat="44.8458556" lon="10.4497934"><ele>37.0</ele><time>2026-05-04T16:38:27.383Z</time></trkpt><trkpt lat="44.8458631" lon="10.4496574"><ele>37.0</ele><time>2026-05-04T16:38:29.383Z</time></trkpt><trkpt lat="44.8458861" lon="10.4495261"><ele>37.0</ele><time>2026-05-04T16:38:31.384Z</time></trkpt><trkpt lat="44.8459087" lon="10.4493926"><ele>37.0</ele><time>2026-05-04T16:38:33.383Z</time></trkpt><trkpt lat="44.8459247" lon="10.4492735"><ele>37.0</ele><time>2026-05-04T16:38:35.384Z</time></trkpt><trkpt lat="44.8459436" lon="10.4491291"><ele>36.833333333333336</ele><time>2026-05-04T16:38:37.383Z</time></trkpt><trkpt lat="44.8459801" lon="10.4489994"><ele>36.66666666666667</ele><time>2026-05-04T16:38:39.384Z</time></trkpt><trkpt lat="44.8460155" lon="10.4488742"><ele>36.5</ele><time>2026-05-04T16:38:41.383Z</time></trkpt><trkpt lat="44.8460147" lon="10.4487624"><ele>36.333333333333336</ele><time>2026-05-04T16:38:43.383Z</time></trkpt><trkpt lat="44.8460418" lon="10.4486343"><ele>36.166666666666664</ele><time>2026-05-04T16:38:45.383Z</time></trkpt><trkpt lat="44.8460999" lon="10.4485718"><ele>36.0</ele><time>2026-05-04T16:38:47.383Z</time></trkpt><trkpt lat="44.8461734" lon="10.4485555"><ele>36.0</ele><time>2026-05-04T16:38:49.383Z</time></trkpt><trkpt lat="44.8462599" lon="10.4485546"><ele>36.0</ele><time>2026-05-04T16:38:51.383Z</time></trkpt><trkpt lat="44.8463349" lon="10.4485087"><ele>36.0</ele><time>2026-05-04T16:38:53.383Z</time></trkpt><trkpt lat="44.8463751" lon="10.4483848"><ele>36.0</ele><time>2026-05-04T16:38:55.383Z</time></trkpt><trkpt lat="44.846391" lon="10.448249"><ele>36.0</ele><time>2026-05-04T16:38:57.384Z</time></trkpt><trkpt lat="44.8464168" lon="10.448115"><ele>36.0</ele><time>2026-05-04T16:38:59.383Z</time></trkpt><trkpt lat="44.8464393" lon="10.4479752"><ele>36.0</ele><time>2026-05-04T16:39:01.384Z</time></trkpt><trkpt lat="44.8464685" lon="10.4478311"><ele>36.0</ele><time>2026-05-04T16:39:03.383Z</time></trkpt><trkpt lat="44.8465149" lon="10.4477041"><ele>36.0</ele><time>2026-05-04T16:39:05.383Z</time></trkpt><trkpt lat="44.8465404" lon="10.4475522"><ele>36.0</ele><time>2026-05-04T16:39:07.384Z</time></trkpt><trkpt lat="44.8465574" lon="10.4474031"><ele>36.0</ele><time>2026-05-04T16:39:09.384Z</time></trkpt><trkpt lat="44.846585" lon="10.447252"><ele>36.0</ele><time>2026-05-04T16:39:11.384Z</time></trkpt><trkpt lat="44.8466051" lon="10.4471066"><ele>36.0</ele><time>2026-05-04T16:39:13.384Z</time></trkpt><trkpt lat="44.8466239" lon="10.4469682"><ele>36.0</ele><time>2026-05-04T16:39:15.383Z</time></trkpt><trkpt lat="44.846642" lon="10.4468311"><ele>36.0</ele><time>2026-05-04T16:39:17.383Z</time></trkpt><trkpt lat="44.8466614" lon="10.4466782"><ele>35.6</ele><time>2026-05-04T16:39:19.384Z</time></trkpt><trkpt lat="44.846685" lon="10.4465425"><ele>35.2</ele><time>2026-05-04T16:39:21.383Z</time></trkpt><trkpt lat="44.8466981" lon="10.4463996"><ele>34.8</ele><time>2026-05-04T16:39:23.383Z</time></trkpt><trkpt lat="44.8467117" lon="10.4462487"><ele>34.4</ele><time>2026-05-04T16:39:25.384Z</time></trkpt><trkpt lat="44.8467513" lon="10.4461039"><ele>34.0</ele><time>2026-05-04T16:39:27.383Z</time></trkpt><trkpt lat="44.8467892" lon="10.4459568"><ele>34.0</ele><time>2026-05-04T16:39:29.384Z</time></trkpt><trkpt lat="44.8468105" lon="10.4458008"><ele>34.0</ele><time>2026-05-04T16:39:31.383Z</time></trkpt><trkpt lat="44.8468358" lon="10.4456527"><ele>34.0</ele><time>2026-05-04T16:39:33.383Z</time></trkpt><trkpt lat="44.8468686" lon="10.4454961"><ele>34.0</ele><time>2026-05-04T16:39:35.383Z</time></trkpt><trkpt lat="44.8468921" lon="10.4453525"><ele>34.0</ele><time>2026-05-04T16:39:37.384Z</time></trkpt><trkpt lat="44.8469224" lon="10.4452729"><ele>34.2</ele><time>2026-05-04T16:39:38.384Z</time></trkpt><trkpt lat="44.846961" lon="10.4451504"><ele>34.4</ele><time>2026-05-04T16:39:40.384Z</time></trkpt><trkpt lat="44.8469857" lon="10.4450197"><ele>34.6</ele><time>2026-05-04T16:39:42.383Z</time></trkpt><trkpt lat="44.8469892" lon="10.444881"><ele>34.8</ele><time>2026-05-04T16:39:44.384Z</time></trkpt><trkpt lat="44.8470008" lon="10.4447413"><ele>35.0</ele><time>2026-05-04T16:39:46.383Z</time></trkpt><trkpt lat="44.8470277" lon="10.444599"><ele>35.0</ele><time>2026-05-04T16:39:48.384Z</time></trkpt><trkpt lat="44.8470455" lon="10.4444383"><ele>35.0</ele><time>2026-05-04T16:39:50.383Z</time></trkpt><trkpt lat="44.8470687" lon="10.4442861"><ele>35.0</ele><time>2026-05-04T16:39:52.384Z</time></trkpt><trkpt lat="44.8470988" lon="10.4441551"><ele>35.0</ele><time>2026-05-04T16:39:54.383Z</time></trkpt><trkpt lat="44.8471249" lon="10.4439918"><ele>35.0</ele><time>2026-05-04T16:39:56.384Z</time></trkpt><trkpt lat="44.8471456" lon="10.4438306"><ele>34.6</ele><time>2026-05-04T16:39:58.383Z</time></trkpt><trkpt lat="44.8471609" lon="10.4436863"><ele>34.2</ele><time>2026-05-04T16:40:00.384Z</time></trkpt><trkpt lat="44.8471918" lon="10.4435618"><ele>33.8</ele><time>2026-05-04T16:40:02.383Z</time></trkpt><trkpt lat="44.8472115" lon="10.4434023"><ele>33.4</ele><time>2026-05-04T16:40:04.383Z</time></trkpt><trkpt lat="44.8472399" lon="10.4432331"><ele>33.0</ele><time>2026-05-04T16:40:06.383Z</time></trkpt><trkpt lat="44.8472664" lon="10.443072"><ele>33.0</ele><time>2026-05-04T16:40:08.384Z</time></trkpt><trkpt lat="44.8472883" lon="10.4429025"><ele>33.0</ele><time>2026-05-04T16:40:10.384Z</time></trkpt><trkpt lat="44.8473055" lon="10.4427388"><ele>33.0</ele><time>2026-05-04T16:40:12.384Z</time></trkpt><trkpt lat="44.8473355" lon="10.4425761"><ele>33.0</ele><time>2026-05-04T16:40:14.384Z</time></trkpt><trkpt lat="44.8473561" lon="10.4424232"><ele>33.0</ele><time>2026-05-04T16:40:16.384Z</time></trkpt><trkpt lat="44.8473859" lon="10.4422622"><ele>33.0</ele><time>2026-05-04T16:40:18.384Z</time></trkpt><trkpt lat="44.8474145" lon="10.4421817"><ele>33.0</ele><time>2026-05-04T16:40:19.383Z</time></trkpt><trkpt lat="44.8474562" lon="10.4420255"><ele>33.0</ele><time>2026-05-04T16:40:21.384Z</time></trkpt><trkpt lat="44.8474927" lon="10.4418838"><ele>33.0</ele><time>2026-05-04T16:40:23.384Z</time></trkpt><trkpt lat="44.8475271" lon="10.4417251"><ele>33.0</ele><time>2026-05-04T16:40:25.383Z</time></trkpt><trkpt lat="44.8475582" lon="10.4415662"><ele>33.0</ele><time>2026-05-04T16:40:27.383Z</time></trkpt><trkpt lat="44.8475884" lon="10.4414148"><ele>33.0</ele><time>2026-05-04T16:40:29.384Z</time></trkpt><trkpt lat="44.8476154" lon="10.4412552"><ele>33.0</ele><time>2026-05-04T16:40:31.383Z</time></trkpt><trkpt lat="44.8476479" lon="10.4410956"><ele>32.75</ele><time>2026-05-04T16:40:33.383Z</time></trkpt><trkpt lat="44.8476788" lon="10.4409373"><ele>32.5</ele><time>2026-05-04T16:40:35.384Z</time></trkpt><trkpt lat="44.847707" lon="10.4407776"><ele>32.25</ele><time>2026-05-04T16:40:37.384Z</time></trkpt><trkpt lat="44.8477362" lon="10.4406317"><ele>32.0</ele><time>2026-05-04T16:40:39.384Z</time></trkpt><trkpt lat="44.8477742" lon="10.4404733"><ele>32.0</ele><time>2026-05-04T16:40:41.384Z</time></trkpt><trkpt lat="44.8478124" lon="10.440325"><ele>32.0</ele><time>2026-05-04T16:40:43.384Z</time></trkpt><trkpt lat="44.8478521" lon="10.4401793"><ele>32.0</ele><time>2026-05-04T16:40:45.383Z</time></trkpt><trkpt lat="44.8478865" lon="10.4400264"><ele>32.0</ele><time>2026-05-04T16:40:47.383Z</time></trkpt><trkpt lat="44.8479278" lon="10.4398817"><ele>32.0</ele><time>2026-05-04T16:40:49.384Z</time></trkpt><trkpt lat="44.847958" lon="10.4397397"><ele>31.999999999999996</ele><time>2026-05-04T16:40:51.383Z</time></trkpt><trkpt lat="44.8479794" lon="10.4396119"><ele>32.0</ele><time>2026-05-04T16:40:53.383Z</time></trkpt><trkpt lat="44.8479989" lon="10.4394883"><ele>32.0</ele><time>2026-05-04T16:40:55.384Z</time></trkpt><trkpt lat="44.848016" lon="10.4393839"><ele>32.0</ele><time>2026-05-04T16:40:57.383Z</time></trkpt><trkpt lat="44.8479865" lon="10.439287"><ele>31.999999999999996</ele><time>2026-05-04T16:41:00.383Z</time></trkpt><trkpt lat="44.8478952" lon="10.4392615"><ele>32.0</ele><time>2026-05-04T16:41:02.383Z</time></trkpt><trkpt lat="44.8477988" lon="10.4392278"><ele>32.0</ele><time>2026-05-04T16:41:04.384Z</time></trkpt><trkpt lat="44.8476991" lon="10.4392089"><ele>32.0</ele><time>2026-05-04T16:41:06.384Z</time></trkpt><trkpt lat="44.8475946" lon="10.4391614"><ele>32.0</ele><time>2026-05-04T16:41:08.384Z</time></trkpt><trkpt lat="44.8474923" lon="10.4391266"><ele>32.0</ele><time>2026-05-04T16:41:10.383Z</time></trkpt><trkpt lat="44.8474035" lon="10.4390868"><ele>32.0</ele><time>2026-05-04T16:41:12.384Z</time></trkpt><trkpt lat="44.8473278" lon="10.4390101"><ele>31.999999999999996</ele><time>2026-05-04T16:41:14.384Z</time></trkpt><trkpt lat="44.8472279" lon="10.4389627"><ele>32.0</ele><time>2026-05-04T16:41:16.384Z</time></trkpt><trkpt lat="44.847135" lon="10.4389202"><ele>32.0</ele><time>2026-05-04T16:41:18.383Z</time></trkpt><trkpt lat="44.8470733" lon="10.4388796"><ele>32.0</ele><time>2026-05-04T16:41:20.383Z</time></trkpt><trkpt lat="44.8470916" lon="10.4387819"><ele>31.999999999999996</ele><time>2026-05-04T16:41:22.383Z</time></trkpt><trkpt lat="44.8471193" lon="10.4386662"><ele>32.0</ele><time>2026-05-04T16:41:24.384Z</time></trkpt><trkpt lat="44.8471521" lon="10.4385342"><ele>31.8</ele><time>2026-05-04T16:41:26.384Z</time></trkpt><trkpt lat="44.8471553" lon="10.438398"><ele>31.6</ele><time>2026-05-04T16:41:28.384Z</time></trkpt><trkpt lat="44.8471031" lon="10.4382924"><ele>31.400000000000002</ele><time>2026-05-04T16:41:30.384Z</time></trkpt><trkpt lat="44.8470221" lon="10.4382251"><ele>31.200000000000003</ele><time>2026-05-04T16:41:32.384Z</time></trkpt><trkpt lat="44.8469297" lon="10.4381528"><ele>31.0</ele><time>2026-05-04T16:41:34.384Z</time></trkpt><trkpt lat="44.8468256" lon="10.4380892"><ele>31.0</ele><time>2026-05-04T16:41:36.383Z</time></trkpt><trkpt lat="44.8467648" lon="10.4380594"><ele>31.0</ele><time>2026-05-04T16:41:37.383Z</time></trkpt><trkpt lat="44.8466518" lon="10.4380205"><ele>31.0</ele><time>2026-05-04T16:41:39.384Z</time></trkpt><trkpt lat="44.8465842" lon="10.4379985"><ele>31.0</ele><time>2026-05-04T16:41:40.384Z</time></trkpt><trkpt lat="44.8465007" lon="10.4379304"><ele>31.0</ele><time>2026-05-04T16:41:42.384Z</time></trkpt><trkpt lat="44.846387" lon="10.4378893"><ele>31.0</ele><time>2026-05-04T16:41:44.383Z</time></trkpt><trkpt lat="44.8462808" lon="10.4378397"><ele>31.0</ele><time>2026-05-04T16:41:46.384Z</time></trkpt><trkpt lat="44.8461829" lon="10.4378007"><ele>31.0</ele><time>2026-05-04T16:41:48.383Z</time></trkpt><trkpt lat="44.8460677" lon="10.4377601"><ele>31.0</ele><time>2026-05-04T16:41:50.383Z</time></trkpt><trkpt lat="44.8460004" lon="10.437747"><ele>31.0</ele><time>2026-05-04T16:41:51.383Z</time></trkpt><trkpt lat="44.8458879" lon="10.4377063"><ele>31.200000000000003</ele><time>2026-05-04T16:41:53.384Z</time></trkpt><trkpt lat="44.8457824" lon="10.4376682"><ele>31.400000000000002</ele><time>2026-05-04T16:41:55.384Z</time></trkpt><trkpt lat="44.8456729" lon="10.4376276"><ele>31.6</ele><time>2026-05-04T16:41:57.384Z</time></trkpt><trkpt lat="44.8455872" lon="10.4375792"><ele>31.8</ele><time>2026-05-04T16:41:59.383Z</time></trkpt><trkpt lat="44.8454958" lon="10.437513"><ele>32.0</ele><time>2026-05-04T16:42:01.383Z</time></trkpt><trkpt lat="44.8454349" lon="10.4374423"><ele>32.0</ele><time>2026-05-04T16:42:03.384Z</time></trkpt><trkpt lat="44.8454376" lon="10.4373194"><ele>32.0</ele><time>2026-05-04T16:42:05.384Z</time></trkpt><trkpt lat="44.8454674" lon="10.4372037"><ele>32.0</ele><time>2026-05-04T16:42:07.384Z</time></trkpt><trkpt lat="44.8454851" lon="10.4370931"><ele>32.0</ele><time>2026-05-04T16:42:09.384Z</time></trkpt><trkpt lat="44.8455011" lon="10.43694"><ele>32.0</ele><time>2026-05-04T16:42:11.384Z</time></trkpt><trkpt lat="44.8455244" lon="10.4368004"><ele>32.0</ele><time>2026-05-04T16:42:13.383Z</time></trkpt><trkpt lat="44.8455481" lon="10.4366494"><ele>32.0</ele><time>2026-05-04T16:42:15.384Z</time></trkpt><trkpt lat="44.8455701" lon="10.4364993"><ele>32.0</ele><time>2026-05-04T16:42:17.384Z</time></trkpt><trkpt lat="44.8455948" lon="10.4363449"><ele>32.0</ele><time>2026-05-04T16:42:19.383Z</time></trkpt><trkpt lat="44.8456323" lon="10.4361971"><ele>32.0</ele><time>2026-05-04T16:42:21.383Z</time></trkpt><trkpt lat="44.8456502" lon="10.4360458"><ele>31.8</ele><time>2026-05-04T16:42:23.383Z</time></trkpt><trkpt lat="44.8456744" lon="10.4358943"><ele>31.6</ele><time>2026-05-04T16:42:25.384Z</time></trkpt><trkpt lat="44.8456959" lon="10.4357316"><ele>31.400000000000002</ele><time>2026-05-04T16:42:27.383Z</time></trkpt><trkpt lat="44.8457093" lon="10.4356431"><ele>31.200000000000003</ele><time>2026-05-04T16:42:28.383Z</time></trkpt><trkpt lat="44.845738" lon="10.4354772"><ele>31.0</ele><time>2026-05-04T16:42:30.384Z</time></trkpt><trkpt lat="44.8457605" lon="10.435309"><ele>31.0</ele><time>2026-05-04T16:42:32.383Z</time></trkpt><trkpt lat="44.845781" lon="10.4351559"><ele>31.0</ele><time>2026-05-04T16:42:34.383Z</time></trkpt><trkpt lat="44.8457852" lon="10.4350148"><ele>31.0</ele><time>2026-05-04T16:42:36.383Z</time></trkpt><trkpt lat="44.8457769" lon="10.4348815"><ele>31.0</ele><time>2026-05-04T16:42:38.383Z</time></trkpt><trkpt lat="44.8456958" lon="10.4348101"><ele>31.0</ele><time>2026-05-04T16:42:40.383Z</time></trkpt><trkpt lat="44.8456055" lon="10.4347699"><ele>31.0</ele><time>2026-05-04T16:42:42.384Z</time></trkpt><trkpt lat="44.8455048" lon="10.4347281"><ele>31.0</ele><time>2026-05-04T16:42:44.383Z</time></trkpt><trkpt lat="44.8454145" lon="10.4346828"><ele>31.0</ele><time>2026-05-04T16:42:46.383Z</time></trkpt><trkpt lat="44.8453085" lon="10.4346437"><ele>31.0</ele><time>2026-05-04T16:42:48.384Z</time></trkpt><trkpt lat="44.8452138" lon="10.434615"><ele>31.0</ele><time>2026-05-04T16:42:50.383Z</time></trkpt><trkpt lat="44.8451211" lon="10.4345606"><ele>31.0</ele><time>2026-05-04T16:42:52.383Z</time></trkpt><trkpt lat="44.8450137" lon="10.434519"><ele>31.0</ele><time>2026-05-04T16:42:54.383Z</time></trkpt><trkpt lat="44.8449025" lon="10.4344775"><ele>31.0</ele><time>2026-05-04T16:42:56.383Z</time></trkpt><trkpt lat="44.8448048" lon="10.4344308"><ele>31.0</ele><time>2026-05-04T16:42:58.383Z</time></trkpt><trkpt lat="44.8446881" lon="10.4343856"><ele>31.0</ele><time>2026-05-04T16:43:00.384Z</time></trkpt><trkpt lat="44.8445685" lon="10.4343514"><ele>31.0</ele><time>2026-05-04T16:43:02.383Z</time></trkpt><trkpt lat="44.8444617" lon="10.434321"><ele>31.0</ele><time>2026-05-04T16:43:04.384Z</time></trkpt><trkpt lat="44.844356" lon="10.4342676"><ele>31.0</ele><time>2026-05-04T16:43:06.383Z</time></trkpt><trkpt lat="44.8442445" lon="10.4342325"><ele>31.5</ele><time>2026-05-04T16:43:08.383Z</time></trkpt><trkpt lat="44.8441293" lon="10.4341847"><ele>32.0</ele><time>2026-05-04T16:43:10.383Z</time></trkpt><trkpt lat="44.8440207" lon="10.4341405"><ele>32.5</ele><time>2026-05-04T16:43:12.384Z</time></trkpt><trkpt lat="44.843915" lon="10.4341057"><ele>33.0</ele><time>2026-05-04T16:43:14.384Z</time></trkpt><trkpt lat="44.8438067" lon="10.434072"><ele>33.0</ele><time>2026-05-04T16:43:16.384Z</time></trkpt><trkpt lat="44.843716" lon="10.4339924"><ele>33.0</ele><time>2026-05-04T16:43:18.384Z</time></trkpt><trkpt lat="44.8436829" lon="10.4338521"><ele>33.0</ele><time>2026-05-04T16:43:20.384Z</time></trkpt><trkpt lat="44.8436945" lon="10.4336984"><ele>33.0</ele><time>2026-05-04T16:43:22.383Z</time></trkpt><trkpt lat="44.8437127" lon="10.4335521"><ele>33.0</ele><time>2026-05-04T16:43:24.384Z</time></trkpt><trkpt lat="44.843751" lon="10.43341"><ele>32.6</ele><time>2026-05-04T16:43:26.384Z</time></trkpt><trkpt lat="44.8437614" lon="10.4332673"><ele>32.199999999999996</ele><time>2026-05-04T16:43:28.384Z</time></trkpt><trkpt lat="44.8438046" lon="10.4331261"><ele>31.8</ele><time>2026-05-04T16:43:30.384Z</time></trkpt><trkpt lat="44.8438737" lon="10.4330242"><ele>31.4</ele><time>2026-05-04T16:43:32.383Z</time></trkpt><trkpt lat="44.8439174" lon="10.4329428"><ele>31.0</ele><time>2026-05-04T16:43:34.383Z</time></trkpt><trkpt lat="44.8439549" lon="10.4328008"><ele>31.0</ele><time>2026-05-04T16:43:36.383Z</time></trkpt><trkpt lat="44.8439904" lon="10.4326688"><ele>31.0</ele><time>2026-05-04T16:43:38.384Z</time></trkpt><trkpt lat="44.8440198" lon="10.4325673"><ele>31.0</ele><time>2026-05-04T16:43:40.383Z</time></trkpt><trkpt lat="44.8440313" lon="10.4324539"><ele>31.0</ele><time>2026-05-04T16:43:42.384Z</time></trkpt><trkpt lat="44.8440583" lon="10.4323183"><ele>31.0</ele><time>2026-05-04T16:43:44.383Z</time></trkpt><trkpt lat="44.844106" lon="10.4322004"><ele>31.0</ele><time>2026-05-04T16:43:46.384Z</time></trkpt><trkpt lat="44.8441216" lon="10.4320862"><ele>31.0</ele><time>2026-05-04T16:43:48.384Z</time></trkpt><trkpt lat="44.8441393" lon="10.4319536"><ele>31.0</ele><time>2026-05-04T16:43:50.384Z</time></trkpt><trkpt lat="44.8441669" lon="10.431819"><ele>31.0</ele><time>2026-05-04T16:43:52.383Z</time></trkpt><trkpt lat="44.8441785" lon="10.4316846"><ele>31.0</ele><time>2026-05-04T16:43:54.383Z</time></trkpt><trkpt lat="44.8442216" lon="10.4315941"><ele>30.6</ele><time>2026-05-04T16:43:56.383Z</time></trkpt><trkpt lat="44.8443101" lon="10.4315866"><ele>30.200000000000003</ele><time>2026-05-04T16:43:58.383Z</time></trkpt><trkpt lat="44.8444092" lon="10.4315853"><ele>29.799999999999997</ele><time>2026-05-04T16:44:00.383Z</time></trkpt><trkpt lat="44.8445072" lon="10.4315657"><ele>29.4</ele><time>2026-05-04T16:44:02.383Z</time></trkpt><trkpt lat="44.8445785" lon="10.431491"><ele>29.0</ele><time>2026-05-04T16:44:04.384Z</time></trkpt><trkpt lat="44.844619" lon="10.4313827"><ele>29.2</ele><time>2026-05-04T16:44:06.383Z</time></trkpt><trkpt lat="44.8446184" lon="10.4312805"><ele>29.4</ele><time>2026-05-04T16:44:08.384Z</time></trkpt><trkpt lat="44.8445474" lon="10.4312009"><ele>29.6</ele><time>2026-05-04T16:44:10.384Z</time></trkpt><trkpt lat="44.8444826" lon="10.4310982"><ele>29.8</ele><time>2026-05-04T16:44:12.383Z</time></trkpt><trkpt lat="44.8444285" lon="10.4309768"><ele>30.0</ele><time>2026-05-04T16:44:14.384Z</time></trkpt><trkpt lat="44.8443949" lon="10.4308404"><ele>30.0</ele><time>2026-05-04T16:44:16.383Z</time></trkpt><trkpt lat="44.8443979" lon="10.4306928"><ele>30.0</ele><time>2026-05-04T16:44:18.384Z</time></trkpt><trkpt lat="44.8444015" lon="10.4305574"><ele>30.0</ele><time>2026-05-04T16:44:20.383Z</time></trkpt><trkpt lat="44.8443985" lon="10.4304175"><ele>30.0</ele><time>2026-05-04T16:44:22.384Z</time></trkpt><trkpt lat="44.8444022" lon="10.430262"><ele>30.0</ele><time>2026-05-04T16:44:24.383Z</time></trkpt><trkpt lat="44.8444068" lon="10.4301037"><ele>30.0</ele><time>2026-05-04T16:44:26.384Z</time></trkpt><trkpt lat="44.8444194" lon="10.4299505"><ele>30.0</ele><time>2026-05-04T16:44:28.383Z</time></trkpt><trkpt lat="44.8444215" lon="10.429789"><ele>30.0</ele><time>2026-05-04T16:44:30.384Z</time></trkpt><trkpt lat="44.844444" lon="10.4296269"><ele>30.0</ele><time>2026-05-04T16:44:32.384Z</time></trkpt><trkpt lat="44.8444748" lon="10.4294726"><ele>29.8</ele><time>2026-05-04T16:44:34.384Z</time></trkpt><trkpt lat="44.8444922" lon="10.4293392"><ele>29.6</ele><time>2026-05-04T16:44:36.383Z</time></trkpt><trkpt lat="44.8444932" lon="10.4291885"><ele>29.4</ele><time>2026-05-04T16:44:38.384Z</time></trkpt><trkpt lat="44.8444795" lon="10.4290347"><ele>29.2</ele><time>2026-05-04T16:44:40.383Z</time></trkpt><trkpt lat="44.8444783" lon="10.4288722"><ele>29.0</ele><time>2026-05-04T16:44:42.384Z</time></trkpt><trkpt lat="44.8444879" lon="10.4287006"><ele>29.0</ele><time>2026-05-04T16:44:44.384Z</time></trkpt><trkpt lat="44.8444865" lon="10.4285387"><ele>29.0</ele><time>2026-05-04T16:44:46.383Z</time></trkpt><trkpt lat="44.844505" lon="10.4283695"><ele>29.0</ele><time>2026-05-04T16:44:48.383Z</time></trkpt><trkpt lat="44.8445142" lon="10.428207"><ele>29.0</ele><time>2026-05-04T16:44:50.384Z</time></trkpt><trkpt lat="44.8445186" lon="10.4281154"><ele>29.0</ele><time>2026-05-04T16:44:51.383Z</time></trkpt><trkpt lat="44.8445141" lon="10.4279634"><ele>29.25</ele><time>2026-05-04T16:44:53.383Z</time></trkpt><trkpt lat="44.8445231" lon="10.4277977"><ele>29.5</ele><time>2026-05-04T16:44:55.383Z</time></trkpt><trkpt lat="44.8445303" lon="10.4276359"><ele>29.75</ele><time>2026-05-04T16:44:57.384Z</time></trkpt><trkpt lat="44.8445355" lon="10.4274727"><ele>30.0</ele><time>2026-05-04T16:44:59.383Z</time></trkpt><trkpt lat="44.844535" lon="10.4273141"><ele>30.0</ele><time>2026-05-04T16:45:01.384Z</time></trkpt><trkpt lat="44.8445551" lon="10.4271522"><ele>30.0</ele><time>2026-05-04T16:45:03.384Z</time></trkpt><trkpt lat="44.8445653" lon="10.4269976"><ele>30.0</ele><time>2026-05-04T16:45:05.383Z</time></trkpt><trkpt lat="44.8445722" lon="10.426835"><ele>30.0</ele><time>2026-05-04T16:45:07.383Z</time></trkpt><trkpt lat="44.844584" lon="10.4266671"><ele>30.25</ele><time>2026-05-04T16:45:09.383Z</time></trkpt><trkpt lat="44.8446024" lon="10.4265073"><ele>30.5</ele><time>2026-05-04T16:45:11.383Z</time></trkpt><trkpt lat="44.8446391" lon="10.4263489"><ele>30.75</ele><time>2026-05-04T16:45:13.383Z</time></trkpt><trkpt lat="44.8446704" lon="10.4261951"><ele>31.0</ele><time>2026-05-04T16:45:15.383Z</time></trkpt><trkpt lat="44.8446937" lon="10.4260264"><ele>31.0</ele><time>2026-05-04T16:45:17.383Z</time></trkpt><trkpt lat="44.8447364" lon="10.4258791"><ele>31.0</ele><time>2026-05-04T16:45:19.383Z</time></trkpt><trkpt lat="44.8447682" lon="10.4257316"><ele>31.0</ele><time>2026-05-04T16:45:21.383Z</time></trkpt><trkpt lat="44.8448115" lon="10.4255727"><ele>31.0</ele><time>2026-05-04T16:45:23.384Z</time></trkpt><trkpt lat="44.8448484" lon="10.42541"><ele>30.5</ele><time>2026-05-04T16:45:25.383Z</time></trkpt><trkpt lat="44.8448863" lon="10.425252"><ele>30.0</ele><time>2026-05-04T16:45:27.383Z</time></trkpt><trkpt lat="44.8449128" lon="10.4250944"><ele>29.5</ele><time>2026-05-04T16:45:29.383Z</time></trkpt><trkpt lat="44.8449504" lon="10.4249337"><ele>29.0</ele><time>2026-05-04T16:45:31.383Z</time></trkpt><trkpt lat="44.8449823" lon="10.4247757"><ele>29.75</ele><time>2026-05-04T16:45:33.383Z</time></trkpt><trkpt lat="44.8450205" lon="10.4246152"><ele>30.5</ele><time>2026-05-04T16:45:35.383Z</time></trkpt><trkpt lat="44.8450579" lon="10.4244629"><ele>31.25</ele><time>2026-05-04T16:45:37.384Z</time></trkpt><trkpt lat="44.8450893" lon="10.4242945"><ele>32.0</ele><time>2026-05-04T16:45:39.384Z</time></trkpt><trkpt lat="44.8451171" lon="10.4241408"><ele>31.6</ele><time>2026-05-04T16:45:41.383Z</time></trkpt><trkpt lat="44.8451441" lon="10.4239859"><ele>31.200000000000003</ele><time>2026-05-04T16:45:43.383Z</time></trkpt><trkpt lat="44.845163" lon="10.4239"><ele>30.8</ele><time>2026-05-04T16:45:44.384Z</time></trkpt><trkpt lat="44.8451907" lon="10.4237412"><ele>30.4</ele><time>2026-05-04T16:45:46.383Z</time></trkpt><trkpt lat="44.8452209" lon="10.423657"><ele>30.0</ele><time>2026-05-04T16:45:47.383Z</time></trkpt><trkpt lat="44.8452471" lon="10.4234964"><ele>30.0</ele><time>2026-05-04T16:45:49.384Z</time></trkpt><trkpt lat="44.8452747" lon="10.4233316"><ele>30.0</ele><time>2026-05-04T16:45:51.383Z</time></trkpt><trkpt lat="44.8453048" lon="10.4231664"><ele>30.0</ele><time>2026-05-04T16:45:53.383Z</time></trkpt><trkpt lat="44.8453391" lon="10.4230058"><ele>30.0</ele><time>2026-05-04T16:45:55.384Z</time></trkpt><trkpt lat="44.8453768" lon="10.4228621"><ele>30.25</ele><time>2026-05-04T16:45:57.384Z</time></trkpt><trkpt lat="44.8454107" lon="10.4227085"><ele>30.5</ele><time>2026-05-04T16:45:59.383Z</time></trkpt><trkpt lat="44.8454392" lon="10.4225573"><ele>30.75</ele><time>2026-05-04T16:46:01.383Z</time></trkpt><trkpt lat="44.8454739" lon="10.4223927"><ele>31.0</ele><time>2026-05-04T16:46:03.384Z</time></trkpt><trkpt lat="44.8455058" lon="10.4222365"><ele>30.75</ele><time>2026-05-04T16:46:05.384Z</time></trkpt><trkpt lat="44.8455401" lon="10.4220831"><ele>30.5</ele><time>2026-05-04T16:46:07.384Z</time></trkpt><trkpt lat="44.8455757" lon="10.42193"><ele>30.25</ele><time>2026-05-04T16:46:09.383Z</time></trkpt><trkpt lat="44.8456026" lon="10.421758"><ele>30.0</ele><time>2026-05-04T16:46:11.384Z</time></trkpt><trkpt lat="44.8456369" lon="10.4215965"><ele>30.0</ele><time>2026-05-04T16:46:13.384Z</time></trkpt><trkpt lat="44.8456646" lon="10.4214366"><ele>30.0</ele><time>2026-05-04T16:46:15.383Z</time></trkpt><trkpt lat="44.845692" lon="10.4212646"><ele>30.0</ele><time>2026-05-04T16:46:17.384Z</time></trkpt><trkpt lat="44.8457364" lon="10.4211066"><ele>30.0</ele><time>2026-05-04T16:46:19.383Z</time></trkpt><trkpt lat="44.8457653" lon="10.4209496"><ele>30.2</ele><time>2026-05-04T16:46:21.384Z</time></trkpt><trkpt lat="44.8457884" lon="10.4208058"><ele>30.4</ele><time>2026-05-04T16:46:23.384Z</time></trkpt><trkpt lat="44.8458167" lon="10.4206446"><ele>30.6</ele><time>2026-05-04T16:46:25.383Z</time></trkpt><trkpt lat="44.8458193" lon="10.4204959"><ele>30.8</ele><time>2026-05-04T16:46:27.383Z</time></trkpt><trkpt lat="44.8458031" lon="10.4203354"><ele>31.0</ele><time>2026-05-04T16:46:29.384Z</time></trkpt><trkpt lat="44.8457861" lon="10.4201705"><ele>31.0</ele><time>2026-05-04T16:46:31.384Z</time></trkpt><trkpt lat="44.8457421" lon="10.4200105"><ele>31.0</ele><time>2026-05-04T16:46:33.384Z</time></trkpt><trkpt lat="44.8457121" lon="10.4199224"><ele>31.0</ele><time>2026-05-04T16:46:34.384Z</time></trkpt><trkpt lat="44.8456619" lon="10.4197621"><ele>31.0</ele><time>2026-05-04T16:46:36.384Z</time></trkpt><trkpt lat="44.8456255" lon="10.4196087"><ele>31.0</ele><time>2026-05-04T16:46:38.383Z</time></trkpt><trkpt lat="44.8455884" lon="10.4194553"><ele>30.8</ele><time>2026-05-04T16:46:40.383Z</time></trkpt><trkpt lat="44.8455675" lon="10.4193714"><ele>30.6</ele><time>2026-05-04T16:46:41.383Z</time></trkpt><trkpt lat="44.845532" lon="10.4192117"><ele>30.4</ele><time>2026-05-04T16:46:43.384Z</time></trkpt><trkpt lat="44.8454896" lon="10.4190555"><ele>30.2</ele><time>2026-05-04T16:46:45.384Z</time></trkpt><trkpt lat="44.8454426" lon="10.4189046"><ele>30.0</ele><time>2026-05-04T16:46:47.383Z</time></trkpt><trkpt lat="44.8454219" lon="10.4188186"><ele>30.5</ele><time>2026-05-04T16:46:48.384Z</time></trkpt><trkpt lat="44.8453858" lon="10.4186601"><ele>31.0</ele><time>2026-05-04T16:46:50.383Z</time></trkpt><trkpt lat="44.8453554" lon="10.4185005"><ele>31.5</ele><time>2026-05-04T16:46:52.383Z</time></trkpt><trkpt lat="44.8453187" lon="10.4183386"><ele>32.0</ele><time>2026-05-04T16:46:54.383Z</time></trkpt><trkpt lat="44.8452729" lon="10.4181848"><ele>32.0</ele><time>2026-05-04T16:46:56.384Z</time></trkpt><trkpt lat="44.845233" lon="10.4180262"><ele>32.0</ele><time>2026-05-04T16:46:58.384Z</time></trkpt><trkpt lat="44.845187" lon="10.4178633"><ele>32.0</ele><time>2026-05-04T16:47:00.384Z</time></trkpt><trkpt lat="44.8451588" lon="10.4177053"><ele>32.0</ele><time>2026-05-04T16:47:02.383Z</time></trkpt><trkpt lat="44.8451245" lon="10.4175507"><ele>31.8</ele><time>2026-05-04T16:47:04.384Z</time></trkpt><trkpt lat="44.8450764" lon="10.4173912"><ele>31.6</ele><time>2026-05-04T16:47:06.383Z</time></trkpt><trkpt lat="44.8450528" lon="10.4173047"><ele>31.400000000000002</ele><time>2026-05-04T16:47:07.383Z</time></trkpt><trkpt lat="44.8450349" lon="10.4172188"><ele>31.200000000000003</ele><time>2026-05-04T16:47:08.383Z</time></trkpt><trkpt lat="44.8449993" lon="10.4170645"><ele>31.0</ele><time>2026-05-04T16:47:10.384Z</time></trkpt><trkpt lat="44.8449573" lon="10.4169057"><ele>31.0</ele><time>2026-05-04T16:47:12.384Z</time></trkpt><trkpt lat="44.8449243" lon="10.4167431"><ele>31.0</ele><time>2026-05-04T16:47:14.383Z</time></trkpt><trkpt lat="44.8449037" lon="10.4166566"><ele>31.0</ele><time>2026-05-04T16:47:15.383Z</time></trkpt><trkpt lat="44.8448657" lon="10.4165115"><ele>31.0</ele><time>2026-05-04T16:47:17.383Z</time></trkpt><trkpt lat="44.8448379" lon="10.4163502"><ele>31.0</ele><time>2026-05-04T16:47:19.384Z</time></trkpt><trkpt lat="44.8448058" lon="10.4161933"><ele>30.75</ele><time>2026-05-04T16:47:21.383Z</time></trkpt><trkpt lat="44.8447733" lon="10.4160263"><ele>30.5</ele><time>2026-05-04T16:47:23.384Z</time></trkpt><trkpt lat="44.8447688" lon="10.4158567"><ele>30.25</ele><time>2026-05-04T16:47:25.384Z</time></trkpt><trkpt lat="44.8447578" lon="10.4157025"><ele>30.0</ele><time>2026-05-04T16:47:27.383Z</time></trkpt><trkpt lat="44.8447481" lon="10.4155354"><ele>29.75</ele><time>2026-05-04T16:47:29.383Z</time></trkpt><trkpt lat="44.844739" lon="10.4153704"><ele>29.5</ele><time>2026-05-04T16:47:31.383Z</time></trkpt><trkpt lat="44.8447356" lon="10.415202"><ele>29.25</ele><time>2026-05-04T16:47:33.384Z</time></trkpt><trkpt lat="44.8447433" lon="10.4150311"><ele>29.0</ele><time>2026-05-04T16:47:35.384Z</time></trkpt><trkpt lat="44.8447437" lon="10.4148684"><ele>29.0</ele><time>2026-05-04T16:47:37.383Z</time></trkpt><trkpt lat="44.8447427" lon="10.4147048"><ele>29.0</ele><time>2026-05-04T16:47:39.383Z</time></trkpt><trkpt lat="44.8447435" lon="10.4145531"><ele>29.0</ele><time>2026-05-04T16:47:41.383Z</time></trkpt><trkpt lat="44.8447496" lon="10.4143912"><ele>29.0</ele><time>2026-05-04T16:47:43.384Z</time></trkpt><trkpt lat="44.8447484" lon="10.4142321"><ele>29.0</ele><time>2026-05-04T16:47:45.383Z</time></trkpt><trkpt lat="44.8447569" lon="10.414076"><ele>29.0</ele><time>2026-05-04T16:47:47.384Z</time></trkpt><trkpt lat="44.8447557" lon="10.4139076"><ele>29.0</ele><time>2026-05-04T16:47:49.383Z</time></trkpt><trkpt lat="44.8447601" lon="10.4137376"><ele>29.0</ele><time>2026-05-04T16:47:51.383Z</time></trkpt><trkpt lat="44.8447654" lon="10.4135709"><ele>29.0</ele><time>2026-05-04T16:47:53.384Z</time></trkpt><trkpt lat="44.844772" lon="10.413415"><ele>29.0</ele><time>2026-05-04T16:47:55.384Z</time></trkpt><trkpt lat="44.844775" lon="10.4132471"><ele>29.0</ele><time>2026-05-04T16:47:57.383Z</time></trkpt><trkpt lat="44.8447806" lon="10.4130929"><ele>29.0</ele><time>2026-05-04T16:47:59.384Z</time></trkpt><trkpt lat="44.8447888" lon="10.4129317"><ele>29.25</ele><time>2026-05-04T16:48:01.383Z</time></trkpt><trkpt lat="44.8447902" lon="10.4127665"><ele>29.5</ele><time>2026-05-04T16:48:03.384Z</time></trkpt><trkpt lat="44.8447841" lon="10.4126033"><ele>29.75</ele><time>2026-05-04T16:48:05.384Z</time></trkpt><trkpt lat="44.8447887" lon="10.4124343"><ele>30.0</ele><time>2026-05-04T16:48:07.384Z</time></trkpt><trkpt lat="44.8447904" lon="10.4122678"><ele>30.25</ele><time>2026-05-04T16:48:09.384Z</time></trkpt><trkpt lat="44.8448007" lon="10.4120958"><ele>30.5</ele><time>2026-05-04T16:48:11.383Z</time></trkpt><trkpt lat="44.8448025" lon="10.4119361"><ele>30.75</ele><time>2026-05-04T16:48:13.384Z</time></trkpt><trkpt lat="44.8447971" lon="10.4117771"><ele>31.0</ele><time>2026-05-04T16:48:15.384Z</time></trkpt><trkpt lat="44.8448035" lon="10.4116161"><ele>31.0</ele><time>2026-05-04T16:48:17.384Z</time></trkpt><trkpt lat="44.8448138" lon="10.4114538"><ele>31.0</ele><time>2026-05-04T16:48:19.383Z</time></trkpt><trkpt lat="44.8448171" lon="10.4112813"><ele>31.0</ele><time>2026-05-04T16:48:21.383Z</time></trkpt><trkpt lat="44.8448263" lon="10.4111376"><ele>31.0</ele><time>2026-05-04T16:48:23.383Z</time></trkpt><trkpt lat="44.8448236" lon="10.4109957"><ele>31.0</ele><time>2026-05-04T16:48:25.384Z</time></trkpt><trkpt lat="44.8448287" lon="10.4108667"><ele>30.833333333333336</ele><time>2026-05-04T16:48:27.383Z</time></trkpt><trkpt lat="44.8448206" lon="10.4107393"><ele>30.666666666666668</ele><time>2026-05-04T16:48:29.384Z</time></trkpt><trkpt lat="44.8448224" lon="10.4106184"><ele>30.5</ele><time>2026-05-04T16:48:31.384Z</time></trkpt><trkpt lat="44.8448564" lon="10.4105198"><ele>30.333333333333336</ele><time>2026-05-04T16:48:33.383Z</time></trkpt><trkpt lat="44.8449241" lon="10.4104836"><ele>30.166666666666668</ele><time>2026-05-04T16:48:35.384Z</time></trkpt><trkpt lat="44.8449971" lon="10.4104986"><ele>30.0</ele><time>2026-05-04T16:48:46.383Z</time></trkpt><trkpt lat="44.8450077" lon="10.4103768"><ele>30.6</ele><time>2026-05-04T16:48:50.383Z</time></trkpt><trkpt lat="44.8449508" lon="10.4103025"><ele>31.2</ele><time>2026-05-04T16:48:52.383Z</time></trkpt><trkpt lat="44.8448731" lon="10.4102422"><ele>31.799999999999997</ele><time>2026-05-04T16:48:54.383Z</time></trkpt><trkpt lat="44.8447874" lon="10.4101743"><ele>32.4</ele><time>2026-05-04T16:48:56.383Z</time></trkpt><trkpt lat="44.8447095" lon="10.4101005"><ele>33.0</ele><time>2026-05-04T16:48:58.383Z</time></trkpt><trkpt lat="44.8446452" lon="10.4099953"><ele>33.0</ele><time>2026-05-04T16:49:00.383Z</time></trkpt><trkpt lat="44.8445667" lon="10.4099043"><ele>33.0</ele><time>2026-05-04T16:49:02.383Z</time></trkpt><trkpt lat="44.8444937" lon="10.4097957"><ele>33.0</ele><time>2026-05-04T16:49:04.384Z</time></trkpt><trkpt lat="44.8444178" lon="10.4096921"><ele>33.0</ele><time>2026-05-04T16:49:06.383Z</time></trkpt><trkpt lat="44.8443421" lon="10.4095847"><ele>33.0</ele><time>2026-05-04T16:49:08.384Z</time></trkpt><trkpt lat="44.8442673" lon="10.4094837"><ele>33.0</ele><time>2026-05-04T16:49:10.383Z</time></trkpt><trkpt lat="44.8441842" lon="10.4093808"><ele>33.0</ele><time>2026-05-04T16:49:12.384Z</time></trkpt><trkpt lat="44.8441043" lon="10.4092668"><ele>33.0</ele><time>2026-05-04T16:49:14.383Z</time></trkpt><trkpt lat="44.8440208" lon="10.4091609"><ele>33.0</ele><time>2026-05-04T16:49:16.384Z</time></trkpt><trkpt lat="44.8439406" lon="10.4090535"><ele>33.0</ele><time>2026-05-04T16:49:18.383Z</time></trkpt><trkpt lat="44.8438582" lon="10.4089551"><ele>33.0</ele><time>2026-05-04T16:49:20.384Z</time></trkpt><trkpt lat="44.8437776" lon="10.4088468"><ele>33.0</ele><time>2026-05-04T16:49:22.384Z</time></trkpt><trkpt lat="44.8436967" lon="10.4087309"><ele>33.0</ele><time>2026-05-04T16:49:24.384Z</time></trkpt><trkpt lat="44.8436103" lon="10.4086269"><ele>33.0</ele><time>2026-05-04T16:49:26.384Z</time></trkpt><trkpt lat="44.8435359" lon="10.408521"><ele>33.0</ele><time>2026-05-04T16:49:28.384Z</time></trkpt><trkpt lat="44.8434582" lon="10.4084089"><ele>32.75</ele><time>2026-05-04T16:49:30.383Z</time></trkpt><trkpt lat="44.8433683" lon="10.4082953"><ele>32.5</ele><time>2026-05-04T16:49:32.384Z</time></trkpt><trkpt lat="44.8432933" lon="10.4081738"><ele>32.25</ele><time>2026-05-04T16:49:34.383Z</time></trkpt><trkpt lat="44.8431969" lon="10.4080784"><ele>32.0</ele><time>2026-05-04T16:49:36.383Z</time></trkpt><trkpt lat="44.8431176" lon="10.4079622"><ele>32.0</ele><time>2026-05-04T16:49:38.383Z</time></trkpt><trkpt lat="44.8430296" lon="10.4078422"><ele>32.0</ele><time>2026-05-04T16:49:40.384Z</time></trkpt><trkpt lat="44.842944" lon="10.4077214"><ele>32.0</ele><time>2026-05-04T16:49:42.383Z</time></trkpt><trkpt lat="44.8428575" lon="10.407599"><ele>32.0</ele><time>2026-05-04T16:49:44.383Z</time></trkpt><trkpt lat="44.8427769" lon="10.4074836"><ele>32.0</ele><time>2026-05-04T16:49:46.384Z</time></trkpt><trkpt lat="44.842685" lon="10.4073702"><ele>32.0</ele><time>2026-05-04T16:49:48.384Z</time></trkpt><trkpt lat="44.8426054" lon="10.4072505"><ele>32.0</ele><time>2026-05-04T16:49:50.383Z</time></trkpt><trkpt lat="44.8425205" lon="10.4071368"><ele>32.0</ele><time>2026-05-04T16:49:52.384Z</time></trkpt><trkpt lat="44.8424332" lon="10.4070159"><ele>31.75</ele><time>2026-05-04T16:49:54.384Z</time></trkpt><trkpt lat="44.8423485" lon="10.4068975"><ele>31.5</ele><time>2026-05-04T16:49:56.384Z</time></trkpt><trkpt lat="44.8422613" lon="10.4067818"><ele>31.25</ele><time>2026-05-04T16:49:58.383Z</time></trkpt><trkpt lat="44.8421748" lon="10.4066612"><ele>31.0</ele><time>2026-05-04T16:50:00.384Z</time></trkpt><trkpt lat="44.842079" lon="10.4065499"><ele>31.0</ele><time>2026-05-04T16:50:02.383Z</time></trkpt><trkpt lat="44.8420016" lon="10.40643"><ele>31.0</ele><time>2026-05-04T16:50:04.383Z</time></trkpt><trkpt lat="44.8419081" lon="10.4063308"><ele>31.0</ele><time>2026-05-04T16:50:06.383Z</time></trkpt><trkpt lat="44.8418296" lon="10.4062238"><ele>31.0</ele><time>2026-05-04T16:50:08.383Z</time></trkpt><trkpt lat="44.8417453" lon="10.4060961"><ele>31.5</ele><time>2026-05-04T16:50:10.383Z</time></trkpt><trkpt lat="44.8416607" lon="10.4059693"><ele>32.0</ele><time>2026-05-04T16:50:12.383Z</time></trkpt><trkpt lat="44.8415783" lon="10.4058492"><ele>32.5</ele><time>2026-05-04T16:50:14.383Z</time></trkpt><trkpt lat="44.8415069" lon="10.4057393"><ele>33.0</ele><time>2026-05-04T16:50:16.383Z</time></trkpt><trkpt lat="44.8414261" lon="10.4056392"><ele>33.0</ele><time>2026-05-04T16:50:18.384Z</time></trkpt><trkpt lat="44.8413525" lon="10.4055412"><ele>33.0</ele><time>2026-05-04T16:50:20.384Z</time></trkpt><trkpt lat="44.8412654" lon="10.405435"><ele>33.0</ele><time>2026-05-04T16:50:22.383Z</time></trkpt><trkpt lat="44.8411894" lon="10.4053295"><ele>33.0</ele><time>2026-05-04T16:50:24.383Z</time></trkpt><trkpt lat="44.8411149" lon="10.4052178"><ele>33.0</ele><time>2026-05-04T16:50:26.384Z</time></trkpt><trkpt lat="44.8410263" lon="10.4050984"><ele>33.25</ele><time>2026-05-04T16:50:28.384Z</time></trkpt><trkpt lat="44.8409382" lon="10.4049909"><ele>33.5</ele><time>2026-05-04T16:50:30.384Z</time></trkpt><trkpt lat="44.8408483" lon="10.4048843"><ele>33.75</ele><time>2026-05-04T16:50:32.384Z</time></trkpt><trkpt lat="44.8407684" lon="10.4047712"><ele>34.0</ele><time>2026-05-04T16:50:34.384Z</time></trkpt><trkpt lat="44.8406813" lon="10.4046659"><ele>33.25</ele><time>2026-05-04T16:50:36.383Z</time></trkpt><trkpt lat="44.8405996" lon="10.404552"><ele>32.5</ele><time>2026-05-04T16:50:38.383Z</time></trkpt><trkpt lat="44.8405092" lon="10.4044421"><ele>31.75</ele><time>2026-05-04T16:50:40.384Z</time></trkpt><trkpt lat="44.8404266" lon="10.4043321"><ele>31.0</ele><time>2026-05-04T16:50:42.384Z</time></trkpt><trkpt lat="44.8403399" lon="10.4042112"><ele>31.0</ele><time>2026-05-04T16:50:44.384Z</time></trkpt><trkpt lat="44.840298" lon="10.4041414"><ele>31.0</ele><time>2026-05-04T16:50:45.383Z</time></trkpt><trkpt lat="44.8402081" lon="10.4040308"><ele>31.0</ele><time>2026-05-04T16:50:47.383Z</time></trkpt><trkpt lat="44.8401417" lon="10.4039164"><ele>31.0</ele><time>2026-05-04T16:50:49.384Z</time></trkpt><trkpt lat="44.8400707" lon="10.403798"><ele>31.0</ele><time>2026-05-04T16:50:51.383Z</time></trkpt><trkpt lat="44.8399847" lon="10.4036837"><ele>30.4</ele><time>2026-05-04T16:50:53.384Z</time></trkpt><trkpt lat="44.8399001" lon="10.40357"><ele>29.8</ele><time>2026-05-04T16:50:55.384Z</time></trkpt><trkpt lat="44.8398171" lon="10.4034569"><ele>29.199999999999996</ele><time>2026-05-04T16:50:57.384Z</time></trkpt><trkpt lat="44.8397327" lon="10.4033499"><ele>28.599999999999998</ele><time>2026-05-04T16:50:59.383Z</time></trkpt><trkpt lat="44.8396505" lon="10.4032613"><ele>28.0</ele><time>2026-05-04T16:51:01.383Z</time></trkpt><trkpt lat="44.8395754" lon="10.4031351"><ele>28.0</ele><time>2026-05-04T16:51:03.383Z</time></trkpt><trkpt lat="44.8395002" lon="10.4030123"><ele>28.0</ele><time>2026-05-04T16:51:05.384Z</time></trkpt><trkpt lat="44.8394215" lon="10.4028942"><ele>28.0</ele><time>2026-05-04T16:51:07.384Z</time></trkpt><trkpt lat="44.8393414" lon="10.4027879"><ele>28.0</ele><time>2026-05-04T16:51:09.384Z</time></trkpt><trkpt lat="44.8392642" lon="10.4026695"><ele>28.0</ele><time>2026-05-04T16:51:11.383Z</time></trkpt><trkpt lat="44.8391907" lon="10.402558"><ele>27.999999999999996</ele><time>2026-05-04T16:51:13.384Z</time></trkpt><trkpt lat="44.8391166" lon="10.40247"><ele>27.999999999999996</ele><time>2026-05-04T16:51:15.384Z</time></trkpt><trkpt lat="44.8390447" lon="10.402355"><ele>28.0</ele><time>2026-05-04T16:51:17.383Z</time></trkpt><trkpt lat="44.838963" lon="10.4022516"><ele>28.0</ele><time>2026-05-04T16:51:19.383Z</time></trkpt><trkpt lat="44.8388793" lon="10.4021613"><ele>28.0</ele><time>2026-05-04T16:51:21.383Z</time></trkpt><trkpt lat="44.8387831" lon="10.40208"><ele>27.999999999999996</ele><time>2026-05-04T16:51:23.384Z</time></trkpt><trkpt lat="44.8387086" lon="10.4019917"><ele>27.999999999999996</ele><time>2026-05-04T16:51:25.383Z</time></trkpt><trkpt lat="44.8386312" lon="10.4018822"><ele>28.0</ele><time>2026-05-04T16:51:27.383Z</time></trkpt><trkpt lat="44.8385517" lon="10.4017892"><ele>28.0</ele><time>2026-05-04T16:51:29.383Z</time></trkpt><trkpt lat="44.8384582" lon="10.4017166"><ele>29.5</ele><time>2026-05-04T16:51:31.384Z</time></trkpt><trkpt lat="44.8383778" lon="10.401597"><ele>31.0</ele><time>2026-05-04T16:51:33.383Z</time></trkpt><trkpt lat="44.8383009" lon="10.4014697"><ele>32.5</ele><time>2026-05-04T16:51:35.384Z</time></trkpt><trkpt lat="44.8382205" lon="10.4013595"><ele>34.0</ele><time>2026-05-04T16:51:37.383Z</time></trkpt><trkpt lat="44.8381366" lon="10.4012332"><ele>34.25</ele><time>2026-05-04T16:51:39.384Z</time></trkpt><trkpt lat="44.8380422" lon="10.4011375"><ele>34.5</ele><time>2026-05-04T16:51:41.383Z</time></trkpt><trkpt lat="44.8379598" lon="10.4010179"><ele>34.75</ele><time>2026-05-04T16:51:43.383Z</time></trkpt><trkpt lat="44.8378842" lon="10.4009011"><ele>35.0</ele><time>2026-05-04T16:51:45.384Z</time></trkpt><trkpt lat="44.8377982" lon="10.4007932"><ele>35.0</ele><time>2026-05-04T16:51:47.383Z</time></trkpt><trkpt lat="44.8377087" lon="10.4006783"><ele>35.0</ele><time>2026-05-04T16:51:49.383Z</time></trkpt><trkpt lat="44.8376274" lon="10.4005666"><ele>35.0</ele><time>2026-05-04T16:51:51.383Z</time></trkpt><trkpt lat="44.8375465" lon="10.4004664"><ele>35.0</ele><time>2026-05-04T16:51:53.383Z</time></trkpt><trkpt lat="44.837467" lon="10.4003629"><ele>34.8</ele><time>2026-05-04T16:51:55.383Z</time></trkpt><trkpt lat="44.8373878" lon="10.4002455"><ele>34.6</ele><time>2026-05-04T16:51:57.384Z</time></trkpt><trkpt lat="44.8373416" lon="10.4001833"><ele>34.4</ele><time>2026-05-04T16:51:58.383Z</time></trkpt><trkpt lat="44.8372693" lon="10.4000734"><ele>34.2</ele><time>2026-05-04T16:52:00.383Z</time></trkpt><trkpt lat="44.8371855" lon="10.3999571"><ele>34.0</ele><time>2026-05-04T16:52:02.384Z</time></trkpt><trkpt lat="44.8370972" lon="10.3998434"><ele>34.0</ele><time>2026-05-04T16:52:04.384Z</time></trkpt><trkpt lat="44.8370281" lon="10.3997323"><ele>34.0</ele><time>2026-05-04T16:52:06.383Z</time></trkpt><trkpt lat="44.8369449" lon="10.3996218"><ele>34.0</ele><time>2026-05-04T16:52:08.383Z</time></trkpt><trkpt lat="44.8368577" lon="10.399509"><ele>34.0</ele><time>2026-05-04T16:52:10.383Z</time></trkpt><trkpt lat="44.8367789" lon="10.3993902"><ele>33.8</ele><time>2026-05-04T16:52:12.383Z</time></trkpt><trkpt lat="44.8366948" lon="10.3992809"><ele>33.599999999999994</ele><time>2026-05-04T16:52:14.383Z</time></trkpt><trkpt lat="44.8366179" lon="10.3991607"><ele>33.4</ele><time>2026-05-04T16:52:16.383Z</time></trkpt><trkpt lat="44.8365347" lon="10.3990661"><ele>33.199999999999996</ele><time>2026-05-04T16:52:18.383Z</time></trkpt><trkpt lat="44.8364542" lon="10.398965"><ele>33.0</ele><time>2026-05-04T16:52:20.383Z</time></trkpt><trkpt lat="44.8363707" lon="10.3988641"><ele>32.6</ele><time>2026-05-04T16:52:22.383Z</time></trkpt><trkpt lat="44.8362882" lon="10.3987676"><ele>32.199999999999996</ele><time>2026-05-04T16:52:24.383Z</time></trkpt><trkpt lat="44.8362184" lon="10.3986376"><ele>31.8</ele><time>2026-05-04T16:52:26.384Z</time></trkpt><trkpt lat="44.8361416" lon="10.3985172"><ele>31.4</ele><time>2026-05-04T16:52:28.384Z</time></trkpt><trkpt lat="44.8360669" lon="10.3984183"><ele>31.0</ele><time>2026-05-04T16:52:30.384Z</time></trkpt><trkpt lat="44.8359987" lon="10.3983109"><ele>31.166666666666668</ele><time>2026-05-04T16:52:32.384Z</time></trkpt><trkpt lat="44.8359283" lon="10.3982021"><ele>31.333333333333336</ele><time>2026-05-04T16:52:34.383Z</time></trkpt><trkpt lat="44.835874" lon="10.3981564"><ele>31.5</ele><time>2026-05-04T16:52:35.384Z</time></trkpt><trkpt lat="44.8357982" lon="10.398062"><ele>31.666666666666664</ele><time>2026-05-04T16:52:37.383Z</time></trkpt><trkpt lat="44.8357103" lon="10.3979677"><ele>31.833333333333332</ele><time>2026-05-04T16:52:39.383Z</time></trkpt><trkpt lat="44.8356502" lon="10.3979293"><ele>32.0</ele><time>2026-05-04T16:52:40.383Z</time></trkpt><trkpt lat="44.8355942" lon="10.3978846"><ele>32.0</ele><time>2026-05-04T16:52:41.384Z</time></trkpt><trkpt lat="44.8354766" lon="10.3978257"><ele>32.0</ele><time>2026-05-04T16:52:43.384Z</time></trkpt><trkpt lat="44.8353682" lon="10.3977832"><ele>32.0</ele><time>2026-05-04T16:52:45.383Z</time></trkpt><trkpt lat="44.835264" lon="10.3977233"><ele>32.0</ele><time>2026-05-04T16:52:47.383Z</time></trkpt><trkpt lat="44.8351579" lon="10.3976772"><ele>32.4</ele><time>2026-05-04T16:52:49.384Z</time></trkpt><trkpt lat="44.8350642" lon="10.3976373"><ele>32.800000000000004</ele><time>2026-05-04T16:52:51.383Z</time></trkpt><trkpt lat="44.834979" lon="10.3976048"><ele>33.2</ele><time>2026-05-04T16:52:53.384Z</time></trkpt><trkpt lat="44.8349067" lon="10.3975537"><ele>33.6</ele><time>2026-05-04T16:52:55.384Z</time></trkpt><trkpt lat="44.8348105" lon="10.3975188"><ele>34.0</ele><time>2026-05-04T16:52:57.384Z</time></trkpt><trkpt lat="44.8347343" lon="10.3974504"><ele>34.0</ele><time>2026-05-04T16:52:59.383Z</time></trkpt><trkpt lat="44.8346405" lon="10.3973899"><ele>34.0</ele><time>2026-05-04T16:53:01.384Z</time></trkpt><trkpt lat="44.8345535" lon="10.3973119"><ele>34.0</ele><time>2026-05-04T16:53:03.383Z</time></trkpt><trkpt lat="44.8344585" lon="10.3972561"><ele>34.0</ele><time>2026-05-04T16:53:05.384Z</time></trkpt><trkpt lat="44.834367" lon="10.3971793"><ele>34.0</ele><time>2026-05-04T16:53:07.383Z</time></trkpt><trkpt lat="44.8342579" lon="10.3971458"><ele>34.6</ele><time>2026-05-04T16:53:09.383Z</time></trkpt><trkpt lat="44.8341592" lon="10.3971004"><ele>35.2</ele><time>2026-05-04T16:53:11.384Z</time></trkpt><trkpt lat="44.8340516" lon="10.3970558"><ele>35.800000000000004</ele><time>2026-05-04T16:53:13.383Z</time></trkpt><trkpt lat="44.833981" lon="10.39705"><ele>36.4</ele><time>2026-05-04T16:53:14.383Z</time></trkpt><trkpt lat="44.8339208" lon="10.3970221"><ele>37.0</ele><time>2026-05-04T16:53:15.384Z</time></trkpt><trkpt lat="44.8338271" lon="10.3969511"><ele>37.0</ele><time>2026-05-04T16:53:17.384Z</time></trkpt><trkpt lat="44.833726" lon="10.3968999"><ele>37.0</ele><time>2026-05-04T16:53:19.383Z</time></trkpt><trkpt lat="44.8336088" lon="10.3968712"><ele>37.0</ele><time>2026-05-04T16:53:21.383Z</time></trkpt><trkpt lat="44.8334993" lon="10.3968187"><ele>37.0</ele><time>2026-05-04T16:53:23.384Z</time></trkpt><trkpt lat="44.8333923" lon="10.3967593"><ele>37.0</ele><time>2026-05-04T16:53:25.383Z</time></trkpt><trkpt lat="44.833269" lon="10.3967228"><ele>37.0</ele><time>2026-05-04T16:53:27.384Z</time></trkpt><trkpt lat="44.8331668" lon="10.396669"><ele>37.0</ele><time>2026-05-04T16:53:29.383Z</time></trkpt><trkpt lat="44.8330608" lon="10.3966403"><ele>37.0</ele><time>2026-05-04T16:53:31.383Z</time></trkpt><trkpt lat="44.8329354" lon="10.3965981"><ele>37.0</ele><time>2026-05-04T16:53:33.384Z</time></trkpt><trkpt lat="44.8328388" lon="10.3965318"><ele>37.0</ele><time>2026-05-04T16:53:35.383Z</time></trkpt><trkpt lat="44.8327464" lon="10.3964756"><ele>37.0</ele><time>2026-05-04T16:53:37.383Z</time></trkpt><trkpt lat="44.8326507" lon="10.3964332"><ele>37.0</ele><time>2026-05-04T16:53:39.383Z</time></trkpt><trkpt lat="44.832549" lon="10.3964028"><ele>37.0</ele><time>2026-05-04T16:53:41.383Z</time></trkpt><trkpt lat="44.8324685" lon="10.3963504"><ele>36.6</ele><time>2026-05-04T16:53:43.383Z</time></trkpt><trkpt lat="44.8323758" lon="10.3962777"><ele>36.2</ele><time>2026-05-04T16:53:45.383Z</time></trkpt><trkpt lat="44.8323169" lon="10.3962377"><ele>35.8</ele><time>2026-05-04T16:53:46.383Z</time></trkpt><trkpt lat="44.8322188" lon="10.3961641"><ele>35.4</ele><time>2026-05-04T16:53:48.383Z</time></trkpt><trkpt lat="44.832124" lon="10.3961383"><ele>35.0</ele><time>2026-05-04T16:53:50.384Z</time></trkpt><trkpt lat="44.83203" lon="10.3960975"><ele>35.0</ele><time>2026-05-04T16:53:52.384Z</time></trkpt><trkpt lat="44.8319253" lon="10.3960771"><ele>35.0</ele><time>2026-05-04T16:53:54.383Z</time></trkpt><trkpt lat="44.8318078" lon="10.3960366"><ele>35.0</ele><time>2026-05-04T16:53:56.384Z</time></trkpt><trkpt lat="44.8317202" lon="10.395973"><ele>35.0</ele><time>2026-05-04T16:53:58.384Z</time></trkpt><trkpt lat="44.8316139" lon="10.3959239"><ele>35.0</ele><time>2026-05-04T16:54:00.383Z</time></trkpt><trkpt lat="44.8315136" lon="10.3958699"><ele>35.0</ele><time>2026-05-04T16:54:02.383Z</time></trkpt><trkpt lat="44.8314274" lon="10.3958371"><ele>35.0</ele><time>2026-05-04T16:54:04.383Z</time></trkpt><trkpt lat="44.8313619" lon="10.395791"><ele>35.0</ele><time>2026-05-04T16:54:06.384Z</time></trkpt><trkpt lat="44.8313296" lon="10.3957075"><ele>35.0</ele><time>2026-05-04T16:54:08.383Z</time></trkpt><trkpt lat="44.8313454" lon="10.3956125"><ele>35.0</ele><time>2026-05-04T16:54:10.384Z</time></trkpt><trkpt lat="44.8313749" lon="10.3955049"><ele>35.0</ele><time>2026-05-04T16:54:12.383Z</time></trkpt><trkpt lat="44.8314066" lon="10.3953785"><ele>34.8</ele><time>2026-05-04T16:54:14.383Z</time></trkpt><trkpt lat="44.8314328" lon="10.3952427"><ele>34.6</ele><time>2026-05-04T16:54:16.384Z</time></trkpt><trkpt lat="44.8314709" lon="10.3951169"><ele>34.4</ele><time>2026-05-04T16:54:18.383Z</time></trkpt><trkpt lat="44.8314992" lon="10.3949769"><ele>34.2</ele><time>2026-05-04T16:54:20.384Z</time></trkpt><trkpt lat="44.831533" lon="10.3948442"><ele>34.0</ele><time>2026-05-04T16:54:22.383Z</time></trkpt><trkpt lat="44.8315705" lon="10.3947114"><ele>34.4</ele><time>2026-05-04T16:54:24.384Z</time></trkpt><trkpt lat="44.8315895" lon="10.3945586"><ele>34.8</ele><time>2026-05-04T16:54:26.383Z</time></trkpt><trkpt lat="44.8316234" lon="10.3944168"><ele>35.2</ele><time>2026-05-04T16:54:28.384Z</time></trkpt><trkpt lat="44.8316575" lon="10.3942809"><ele>35.6</ele><time>2026-05-04T16:54:30.383Z</time></trkpt><trkpt lat="44.8316873" lon="10.3941538"><ele>36.0</ele><time>2026-05-04T16:54:32.384Z</time></trkpt><trkpt lat="44.8317242" lon="10.39403"><ele>36.0</ele><time>2026-05-04T16:54:34.384Z</time></trkpt><trkpt lat="44.8317495" lon="10.3939152"><ele>36.0</ele><time>2026-05-04T16:54:36.384Z</time></trkpt><trkpt lat="44.8317699" lon="10.3938034"><ele>36.0</ele><time>2026-05-04T16:54:38.384Z</time></trkpt><trkpt lat="44.8317577" lon="10.3936843"><ele>36.0</ele><time>2026-05-04T16:54:40.383Z</time></trkpt><trkpt lat="44.8316809" lon="10.393646"><ele>36.0</ele><time>2026-05-04T16:54:42.384Z</time></trkpt><trkpt lat="44.8316094" lon="10.3936113"><ele>36.0</ele><time>2026-05-04T16:54:44.383Z</time></trkpt><trkpt lat="44.8315209" lon="10.3935636"><ele>36.166666666666664</ele><time>2026-05-04T16:54:47.384Z</time></trkpt><trkpt lat="44.8314492" lon="10.393529"><ele>36.333333333333336</ele><time>2026-05-04T16:54:49.384Z</time></trkpt><trkpt lat="44.8313704" lon="10.3934871"><ele>36.5</ele><time>2026-05-04T16:54:51.383Z</time></trkpt><trkpt lat="44.8312854" lon="10.3934516"><ele>36.66666666666667</ele><time>2026-05-04T16:54:53.383Z</time></trkpt><trkpt lat="44.8311753" lon="10.393417"><ele>36.833333333333336</ele><time>2026-05-04T16:54:55.384Z</time></trkpt><trkpt lat="44.8311037" lon="10.3933833"><ele>37.0</ele><time>2026-05-04T16:54:57.383Z</time></trkpt><trkpt lat="44.8310393" lon="10.3933353"><ele>36.6</ele><time>2026-05-04T16:54:59.384Z</time></trkpt><trkpt lat="44.83096" lon="10.3932838"><ele>36.2</ele><time>2026-05-04T16:55:01.383Z</time></trkpt><trkpt lat="44.8308667" lon="10.3932423"><ele>35.8</ele><time>2026-05-04T16:55:03.383Z</time></trkpt><trkpt lat="44.8307756" lon="10.3931983"><ele>35.4</ele><time>2026-05-04T16:55:05.384Z</time></trkpt><trkpt lat="44.8306893" lon="10.3931541"><ele>35.0</ele><time>2026-05-04T16:55:07.383Z</time></trkpt><trkpt lat="44.8306045" lon="10.3931268"><ele>35.0</ele><time>2026-05-04T16:55:09.383Z</time></trkpt><trkpt lat="44.8305306" lon="10.3930857"><ele>35.0</ele><time>2026-05-04T16:55:11.384Z</time></trkpt><trkpt lat="44.8304561" lon="10.3930474"><ele>35.0</ele><time>2026-05-04T16:55:13.383Z</time></trkpt><trkpt lat="44.8303803" lon="10.3930092"><ele>35.0</ele><time>2026-05-04T16:55:15.383Z</time></trkpt><trkpt lat="44.830312" lon="10.3929716"><ele>35.0</ele><time>2026-05-04T16:55:17.383Z</time></trkpt><trkpt lat="44.8302326" lon="10.3929402"><ele>35.0</ele><time>2026-05-04T16:55:19.384Z</time></trkpt><trkpt lat="44.8301441" lon="10.3929076"><ele>35.2</ele><time>2026-05-04T16:55:21.384Z</time></trkpt><trkpt lat="44.8300655" lon="10.3928768"><ele>35.4</ele><time>2026-05-04T16:55:23.383Z</time></trkpt><trkpt lat="44.8299709" lon="10.3928196"><ele>35.6</ele><time>2026-05-04T16:55:25.384Z</time></trkpt><trkpt lat="44.8298742" lon="10.3927625"><ele>35.8</ele><time>2026-05-04T16:55:27.383Z</time></trkpt><trkpt lat="44.829779" lon="10.3927025"><ele>36.0</ele><time>2026-05-04T16:55:29.384Z</time></trkpt><trkpt lat="44.8296687" lon="10.3926823"><ele>36.0</ele><time>2026-05-04T16:55:31.383Z</time></trkpt><trkpt lat="44.8295738" lon="10.3926342"><ele>36.0</ele><time>2026-05-04T16:55:33.383Z</time></trkpt><trkpt lat="44.8295053" lon="10.3926085"><ele>36.0</ele><time>2026-05-04T16:55:35.383Z</time></trkpt><trkpt lat="44.8295173" lon="10.3925087"><ele>36.0</ele><time>2026-05-04T16:55:38.384Z</time></trkpt><trkpt lat="44.8295232" lon="10.3923709"><ele>36.0</ele><time>2026-05-04T16:55:41.383Z</time></trkpt><trkpt lat="44.8294959" lon="10.3922888"><ele>36.0</ele><time>2026-05-04T16:55:43.383Z</time></trkpt><trkpt lat="44.8294394" lon="10.3922355"><ele>36.0</ele><time>2026-05-04T16:55:45.383Z</time></trkpt><trkpt lat="44.8293688" lon="10.3921833"><ele>36.0</ele><time>2026-05-04T16:55:47.384Z</time></trkpt><trkpt lat="44.8292888" lon="10.3921385"><ele>36.0</ele><time>2026-05-04T16:55:49.384Z</time></trkpt><trkpt lat="44.8292313" lon="10.3920957"><ele>36.0</ele><time>2026-05-04T16:55:50.384Z</time></trkpt><trkpt lat="44.8291439" lon="10.3920545"><ele>36.0</ele><time>2026-05-04T16:55:52.383Z</time></trkpt><trkpt lat="44.8290263" lon="10.3920528"><ele>36.0</ele><time>2026-05-04T16:55:54.384Z</time></trkpt><trkpt lat="44.828936" lon="10.3920395"><ele>36.0</ele><time>2026-05-04T16:55:56.383Z</time></trkpt><trkpt lat="44.8288448" lon="10.3920013"><ele>36.0</ele><time>2026-05-04T16:55:58.384Z</time></trkpt><trkpt lat="44.8287488" lon="10.3919451"><ele>36.0</ele><time>2026-05-04T16:56:00.383Z</time></trkpt><trkpt lat="44.828647" lon="10.3919083"><ele>36.0</ele><time>2026-05-04T16:56:02.383Z</time></trkpt><trkpt lat="44.8285407" lon="10.3918795"><ele>36.0</ele><time>2026-05-04T16:56:04.383Z</time></trkpt><trkpt lat="44.8284789" lon="10.3918316"><ele>36.42857142857143</ele><time>2026-05-04T16:56:06.384Z</time></trkpt><trkpt lat="44.8284197" lon="10.3917709"><ele>36.85714285714286</ele><time>2026-05-04T16:56:08.383Z</time></trkpt><trkpt lat="44.828342" lon="10.3917239"><ele>37.28571428571429</ele><time>2026-05-04T16:56:10.384Z</time></trkpt><trkpt lat="44.8282677" lon="10.3916863"><ele>37.714285714285715</ele><time>2026-05-04T16:56:12.383Z</time></trkpt><trkpt lat="44.8282051" lon="10.3916379"><ele>38.14285714285714</ele><time>2026-05-04T16:56:21.383Z</time></trkpt><trkpt lat="44.8281505" lon="10.3916976"><ele>38.57142857142858</ele><time>2026-05-04T16:56:24.384Z</time></trkpt><trkpt lat="44.8281291" lon="10.3917848"><ele>39.0</ele><time>2026-05-04T16:56:26.384Z</time></trkpt><trkpt lat="44.8281147" lon="10.391902"><ele>39.0</ele><time>2026-05-04T16:56:28.384Z</time></trkpt><trkpt lat="44.8281036" lon="10.3920371"><ele>39.0</ele><time>2026-05-04T16:56:30.384Z</time></trkpt><trkpt lat="44.8280786" lon="10.3921641"><ele>39.0</ele><time>2026-05-04T16:56:32.384Z</time></trkpt><trkpt lat="44.8280537" lon="10.3922994"><ele>39.0</ele><time>2026-05-04T16:56:34.383Z</time></trkpt><trkpt lat="44.82803" lon="10.3924438"><ele>39.0</ele><time>2026-05-04T16:56:36.384Z</time></trkpt><trkpt lat="44.8280077" lon="10.392576"><ele>38.833333333333336</ele><time>2026-05-04T16:56:38.384Z</time></trkpt><trkpt lat="44.8279935" lon="10.3926959"><ele>38.666666666666664</ele><time>2026-05-04T16:56:40.383Z</time></trkpt><trkpt lat="44.827962" lon="10.3927759"><ele>38.5</ele><time>2026-05-04T16:56:43.384Z</time></trkpt><trkpt lat="44.8279012" lon="10.3927484"><ele>38.33333333333333</ele><time>2026-05-04T16:56:48.383Z</time></trkpt><trkpt lat="44.8278561" lon="10.3926359"><ele>38.166666666666664</ele><time>2026-05-04T16:56:51.384Z</time></trkpt><trkpt lat="44.8278151" lon="10.3925287"><ele>38.0</ele><time>2026-05-04T16:56:53.384Z</time></trkpt><trkpt lat="44.8277585" lon="10.3924129"><ele>38.0</ele><time>2026-05-04T16:56:55.384Z</time></trkpt><trkpt lat="44.8277047" lon="10.392308"><ele>38.0</ele><time>2026-05-04T16:56:57.384Z</time></trkpt><trkpt lat="44.8276514" lon="10.3921776"><ele>38.0</ele><time>2026-05-04T16:56:59.383Z</time></trkpt><trkpt lat="44.8275889" lon="10.3920482"><ele>38.0</ele><time>2026-05-04T16:57:01.383Z</time></trkpt><trkpt lat="44.8275393" lon="10.3919154"><ele>38.0</ele><time>2026-05-04T16:57:03.384Z</time></trkpt><trkpt lat="44.8274781" lon="10.3917811"><ele>38.0</ele><time>2026-05-04T16:57:05.384Z</time></trkpt><trkpt lat="44.8274209" lon="10.3916329"><ele>38.0</ele><time>2026-05-04T16:57:07.384Z</time></trkpt><trkpt lat="44.8273796" lon="10.3914834"><ele>38.0</ele><time>2026-05-04T16:57:09.383Z</time></trkpt><trkpt lat="44.8273139" lon="10.3913512"><ele>38.0</ele><time>2026-05-04T16:57:11.383Z</time></trkpt><trkpt lat="44.8272531" lon="10.3912027"><ele>38.0</ele><time>2026-05-04T16:57:13.383Z</time></trkpt><trkpt lat="44.8271967" lon="10.3910606"><ele>38.0</ele><time>2026-05-04T16:57:15.384Z</time></trkpt><trkpt lat="44.8271302" lon="10.3909373"><ele>38.0</ele><time>2026-05-04T16:57:17.384Z</time></trkpt><trkpt lat="44.8270794" lon="10.3907852"><ele>38.0</ele><time>2026-05-04T16:57:19.383Z</time></trkpt><trkpt lat="44.8270197" lon="10.3906398"><ele>38.0</ele><time>2026-05-04T16:57:21.384Z</time></trkpt><trkpt lat="44.8269739" lon="10.3905109"><ele>38.0</ele><time>2026-05-04T16:57:23.383Z</time></trkpt><trkpt lat="44.8269348" lon="10.3903937"><ele>38.0</ele><time>2026-05-04T16:57:25.384Z</time></trkpt><trkpt lat="44.8268672" lon="10.3902722"><ele>38.0</ele><time>2026-05-04T16:57:27.383Z</time></trkpt><trkpt lat="44.8268369" lon="10.3901718"><ele>38.0</ele><time>2026-05-04T16:57:29.384Z</time></trkpt><trkpt lat="44.8267827" lon="10.3900371"><ele>37.8</ele><time>2026-05-04T16:57:31.383Z</time></trkpt><trkpt lat="44.8267279" lon="10.3899055"><ele>37.599999999999994</ele><time>2026-05-04T16:57:33.383Z</time></trkpt><trkpt lat="44.826678" lon="10.3897805"><ele>37.400000000000006</ele><time>2026-05-04T16:57:35.383Z</time></trkpt><trkpt lat="44.8266183" lon="10.3896683"><ele>37.2</ele><time>2026-05-04T16:57:37.384Z</time></trkpt><trkpt lat="44.8265561" lon="10.3895392"><ele>37.0</ele><time>2026-05-04T16:57:39.384Z</time></trkpt><trkpt lat="44.8265017" lon="10.3894338"><ele>37.0</ele><time>2026-05-04T16:57:41.384Z</time></trkpt><trkpt lat="44.8264516" lon="10.3893099"><ele>37.0</ele><time>2026-05-04T16:57:43.383Z</time></trkpt><trkpt lat="44.8263855" lon="10.3891855"><ele>37.0</ele><time>2026-05-04T16:57:45.383Z</time></trkpt><trkpt lat="44.8263513" lon="10.3890868"><ele>37.0</ele><time>2026-05-04T16:57:47.384Z</time></trkpt><trkpt lat="44.8263011" lon="10.3889766"><ele>37.0</ele><time>2026-05-04T16:57:49.384Z</time></trkpt><trkpt lat="44.8262775" lon="10.3888721"><ele>36.833333333333336</ele><time>2026-05-04T16:57:51.384Z</time></trkpt><trkpt lat="44.8263209" lon="10.3887778"><ele>36.66666666666667</ele><time>2026-05-04T16:57:53.383Z</time></trkpt><trkpt lat="44.8264015" lon="10.3887258"><ele>36.5</ele><time>2026-05-04T16:57:55.384Z</time></trkpt><trkpt lat="44.8264739" lon="10.3886804"><ele>36.333333333333336</ele><time>2026-05-04T16:57:57.383Z</time></trkpt><trkpt lat="44.8265137" lon="10.3885955"><ele>36.166666666666664</ele><time>2026-05-04T16:57:59.383Z</time></trkpt><trkpt lat="44.8265035" lon="10.3884684"><ele>36.0</ele><time>2026-05-04T16:58:01.383Z</time></trkpt><trkpt lat="44.8265263" lon="10.388334"><ele>36.0</ele><time>2026-05-04T16:58:03.384Z</time></trkpt><trkpt lat="44.8266136" lon="10.3882442"><ele>36.0</ele><time>2026-05-04T16:58:05.383Z</time></trkpt><trkpt lat="44.8266918" lon="10.3881762"><ele>36.0</ele><time>2026-05-04T16:58:07.384Z</time></trkpt><trkpt lat="44.8267591" lon="10.3881215"><ele>36.0</ele><time>2026-05-04T16:58:09.384Z</time></trkpt><trkpt lat="44.8267648" lon="10.3880214"><ele>36.0</ele><time>2026-05-04T16:58:11.383Z</time></trkpt><trkpt lat="44.8267254" lon="10.3879188"><ele>36.0</ele><time>2026-05-04T16:58:13.384Z</time></trkpt><trkpt lat="44.8266803" lon="10.3878185"><ele>36.2</ele><time>2026-05-04T16:58:15.384Z</time></trkpt><trkpt lat="44.8266452" lon="10.3877185"><ele>36.400000000000006</ele><time>2026-05-04T16:58:17.383Z</time></trkpt><trkpt lat="44.8265619" lon="10.3876848"><ele>36.6</ele><time>2026-05-04T16:58:19.384Z</time></trkpt><trkpt lat="44.8264728" lon="10.3877452"><ele>36.800000000000004</ele><time>2026-05-04T16:58:21.384Z</time></trkpt><trkpt lat="44.8263826" lon="10.387822"><ele>37.0</ele><time>2026-05-04T16:58:23.383Z</time></trkpt><trkpt lat="44.8262759" lon="10.3878931"><ele>37.0</ele><time>2026-05-04T16:58:25.383Z</time></trkpt><trkpt lat="44.8261882" lon="10.3879762"><ele>37.0</ele><time>2026-05-04T16:58:27.384Z</time></trkpt><trkpt lat="44.8260992" lon="10.3880348"><ele>37.0</ele><time>2026-05-04T16:58:29.384Z</time></trkpt><trkpt lat="44.8260126" lon="10.3880703"><ele>37.0</ele><time>2026-05-04T16:58:31.384Z</time></trkpt><trkpt lat="44.8259293" lon="10.3880288"><ele>37.0</ele><time>2026-05-04T16:58:33.383Z</time></trkpt><trkpt lat="44.8258528" lon="10.3879387"><ele>37.4</ele><time>2026-05-04T16:58:35.383Z</time></trkpt><trkpt lat="44.8257948" lon="10.3878096"><ele>37.800000000000004</ele><time>2026-05-04T16:58:37.383Z</time></trkpt><trkpt lat="44.8257384" lon="10.3876721"><ele>38.2</ele><time>2026-05-04T16:58:39.383Z</time></trkpt><trkpt lat="44.825678" lon="10.3875448"><ele>38.6</ele><time>2026-05-04T16:58:41.383Z</time></trkpt><trkpt lat="44.825629" lon="10.3874249"><ele>39.0</ele><time>2026-05-04T16:58:43.383Z</time></trkpt><trkpt lat="44.8255755" lon="10.3873"><ele>39.0</ele><time>2026-05-04T16:58:45.384Z</time></trkpt><trkpt lat="44.8255211" lon="10.3871923"><ele>39.0</ele><time>2026-05-04T16:58:47.383Z</time></trkpt><trkpt lat="44.8254761" lon="10.3870629"><ele>39.0</ele><time>2026-05-04T16:58:49.384Z</time></trkpt><trkpt lat="44.8254279" lon="10.3869293"><ele>39.0</ele><time>2026-05-04T16:58:51.383Z</time></trkpt><trkpt lat="44.8253709" lon="10.3867742"><ele>39.0</ele><time>2026-05-04T16:58:53.384Z</time></trkpt><trkpt lat="44.8253301" lon="10.386694"><ele>38.833333333333336</ele><time>2026-05-04T16:58:54.384Z</time></trkpt><trkpt lat="44.8252917" lon="10.3866209"><ele>38.666666666666664</ele><time>2026-05-04T16:58:55.384Z</time></trkpt><trkpt lat="44.825229" lon="10.386469"><ele>38.5</ele><time>2026-05-04T16:58:57.384Z</time></trkpt><trkpt lat="44.8251621" lon="10.3863191"><ele>38.33333333333333</ele><time>2026-05-04T16:58:59.384Z</time></trkpt><trkpt lat="44.8251239" lon="10.3862433"><ele>38.166666666666664</ele><time>2026-05-04T16:59:00.383Z</time></trkpt><trkpt lat="44.8250844" lon="10.3861686"><ele>38.0</ele><time>2026-05-04T16:59:01.383Z</time></trkpt><trkpt lat="44.825028" lon="10.386025"><ele>38.5</ele><time>2026-05-04T16:59:03.384Z</time></trkpt><trkpt lat="44.8249558" lon="10.3858802"><ele>39.0</ele><time>2026-05-04T16:59:05.383Z</time></trkpt><trkpt lat="44.8248919" lon="10.3857521"><ele>39.5</ele><time>2026-05-04T16:59:07.383Z</time></trkpt><trkpt lat="44.8248353" lon="10.3856005"><ele>40.0</ele><time>2026-05-04T16:59:09.383Z</time></trkpt><trkpt lat="44.824767" lon="10.3854516"><ele>40.6</ele><time>2026-05-04T16:59:11.384Z</time></trkpt><trkpt lat="44.8247354" lon="10.3853746"><ele>41.2</ele><time>2026-05-04T16:59:12.384Z</time></trkpt><trkpt lat="44.8246767" lon="10.3852198"><ele>41.8</ele><time>2026-05-04T16:59:14.383Z</time></trkpt><trkpt lat="44.824624" lon="10.3850906"><ele>42.4</ele><time>2026-05-04T16:59:16.383Z</time></trkpt><trkpt lat="44.8245746" lon="10.384975"><ele>43.0</ele><time>2026-05-04T16:59:18.383Z</time></trkpt><trkpt lat="44.824549" lon="10.3848654"><ele>43.0</ele><time>2026-05-04T16:59:20.383Z</time></trkpt><trkpt lat="44.8245522" lon="10.3847529"><ele>43.0</ele><time>2026-05-04T16:59:21.383Z</time></trkpt><trkpt lat="44.82452" lon="10.3846471"><ele>43.0</ele><time>2026-05-04T16:59:22.384Z</time></trkpt><trkpt lat="44.8244087" lon="10.3845357"><ele>43.0</ele><time>2026-05-04T16:59:23.384Z</time></trkpt><trkpt lat="44.8243698" lon="10.3844514"><ele>43.0</ele><time>2026-05-04T16:59:24.384Z</time></trkpt><trkpt lat="44.8243268" lon="10.3843675"><ele>43.0</ele><time>2026-05-04T16:59:25.383Z</time></trkpt><trkpt lat="44.8242654" lon="10.3842194"><ele>41.8</ele><time>2026-05-04T16:59:27.384Z</time></trkpt><trkpt lat="44.8242023" lon="10.3840774"><ele>40.599999999999994</ele><time>2026-05-04T16:59:29.383Z</time></trkpt><trkpt lat="44.8241422" lon="10.3839416"><ele>39.400000000000006</ele><time>2026-05-04T16:59:31.383Z</time></trkpt><trkpt lat="44.8241138" lon="10.3837987"><ele>38.2</ele><time>2026-05-04T16:59:33.383Z</time></trkpt><trkpt lat="44.8241206" lon="10.3836455"><ele>37.0</ele><time>2026-05-04T16:59:35.384Z</time></trkpt><trkpt lat="44.8240911" lon="10.3835134"><ele>36.75</ele><time>2026-05-04T16:59:37.384Z</time></trkpt><trkpt lat="44.8240352" lon="10.3833897"><ele>36.5</ele><time>2026-05-04T16:59:39.383Z</time></trkpt><trkpt lat="44.8239734" lon="10.3832434"><ele>36.25</ele><time>2026-05-04T16:59:41.384Z</time></trkpt><trkpt lat="44.8239091" lon="10.3831019"><ele>36.0</ele><time>2026-05-04T16:59:43.383Z</time></trkpt><trkpt lat="44.8238486" lon="10.3829634"><ele>37.0</ele><time>2026-05-04T16:59:45.384Z</time></trkpt><trkpt lat="44.823816" lon="10.3828867"><ele>38.0</ele><time>2026-05-04T16:59:46.384Z</time></trkpt><trkpt lat="44.8237546" lon="10.3827394"><ele>39.0</ele><time>2026-05-04T16:59:48.384Z</time></trkpt><trkpt lat="44.823694" lon="10.3825943"><ele>40.0</ele><time>2026-05-04T16:59:50.384Z</time></trkpt><trkpt lat="44.8236408" lon="10.382464"><ele>41.0</ele><time>2026-05-04T16:59:52.383Z</time></trkpt><trkpt lat="44.8235769" lon="10.3823237"><ele>41.0</ele><time>2026-05-04T16:59:54.383Z</time></trkpt><trkpt lat="44.8235093" lon="10.3821895"><ele>41.0</ele><time>2026-05-04T16:59:56.383Z</time></trkpt><trkpt lat="44.8234757" lon="10.3821111"><ele>41.0</ele><time>2026-05-04T16:59:57.384Z</time></trkpt><trkpt lat="44.8234143" lon="10.3819689"><ele>41.0</ele><time>2026-05-04T16:59:59.384Z</time></trkpt><trkpt lat="44.8233526" lon="10.3818261"><ele>41.0</ele><time>2026-05-04T17:00:01.384Z</time></trkpt><trkpt lat="44.8232889" lon="10.38168"><ele>40.599999999999994</ele><time>2026-05-04T17:00:03.383Z</time></trkpt><trkpt lat="44.8232215" lon="10.3815363"><ele>40.199999999999996</ele><time>2026-05-04T17:00:05.384Z</time></trkpt><trkpt lat="44.8231657" lon="10.3813917"><ele>39.8</ele><time>2026-05-04T17:00:07.384Z</time></trkpt><trkpt lat="44.8231408" lon="10.3813051"><ele>39.4</ele><time>2026-05-04T17:00:08.384Z</time></trkpt><trkpt lat="44.8230929" lon="10.3811444"><ele>39.0</ele><time>2026-05-04T17:00:10.384Z</time></trkpt><trkpt lat="44.8230688" lon="10.3810583"><ele>39.0</ele><time>2026-05-04T17:00:11.383Z</time></trkpt><trkpt lat="44.8230468" lon="10.380974"><ele>39.0</ele><time>2026-05-04T17:00:12.383Z</time></trkpt><trkpt lat="44.8229973" lon="10.3808123"><ele>39.0</ele><time>2026-05-04T17:00:14.383Z</time></trkpt><trkpt lat="44.8228955" lon="10.3807152"><ele>39.0</ele><time>2026-05-04T17:00:16.383Z</time></trkpt><trkpt lat="44.8228091" lon="10.3805886"><ele>39.0</ele><time>2026-05-04T17:00:18.383Z</time></trkpt><trkpt lat="44.8227529" lon="10.3804325"><ele>39.25</ele><time>2026-05-04T17:00:20.383Z</time></trkpt><trkpt lat="44.8227332" lon="10.3802689"><ele>39.5</ele><time>2026-05-04T17:00:22.384Z</time></trkpt><trkpt lat="44.8227623" lon="10.3801158"><ele>39.75</ele><time>2026-05-04T17:00:24.383Z</time></trkpt><trkpt lat="44.822835" lon="10.3799866"><ele>40.0</ele><time>2026-05-04T17:00:26.383Z</time></trkpt><trkpt lat="44.8228786" lon="10.379836"><ele>40.0</ele><time>2026-05-04T17:00:28.383Z</time></trkpt><trkpt lat="44.8228958" lon="10.3797494"><ele>40.0</ele><time>2026-05-04T17:00:29.383Z</time></trkpt><trkpt lat="44.8229266" lon="10.3795904"><ele>40.0</ele><time>2026-05-04T17:00:31.384Z</time></trkpt><trkpt lat="44.8229456" lon="10.3795023"><ele>40.0</ele><time>2026-05-04T17:00:32.384Z</time></trkpt><trkpt lat="44.8229409" lon="10.3793283"><ele>40.0</ele><time>2026-05-04T17:00:34.383Z</time></trkpt><trkpt lat="44.8229015" lon="10.3791598"><ele>40.0</ele><time>2026-05-04T17:00:36.384Z</time></trkpt><trkpt lat="44.8228308" lon="10.379054"><ele>40.0</ele><time>2026-05-04T17:00:38.383Z</time></trkpt><trkpt lat="44.8227505" lon="10.378999"><ele>40.0</ele><time>2026-05-04T17:00:40.383Z</time></trkpt><trkpt lat="44.8226723" lon="10.3789455"><ele>40.0</ele><time>2026-05-04T17:00:42.384Z</time></trkpt><trkpt lat="44.8225948" lon="10.3789051"><ele>40.0</ele><time>2026-05-04T17:00:44.384Z</time></trkpt><trkpt lat="44.8225241" lon="10.3788561"><ele>40.0</ele><time>2026-05-04T17:00:46.384Z</time></trkpt><trkpt lat="44.8224581" lon="10.378803"><ele>40.4</ele><time>2026-05-04T17:00:48.384Z</time></trkpt><trkpt lat="44.8224102" lon="10.378716"><ele>40.8</ele><time>2026-05-04T17:00:50.383Z</time></trkpt><trkpt lat="44.8223495" lon="10.3786338"><ele>41.2</ele><time>2026-05-04T17:00:52.383Z</time></trkpt><trkpt lat="44.8222738" lon="10.3785489"><ele>41.6</ele><time>2026-05-04T17:00:54.384Z</time></trkpt><trkpt lat="44.8222146" lon="10.3784421"><ele>42.0</ele><time>2026-05-04T17:00:56.384Z</time></trkpt><trkpt lat="44.8221518" lon="10.3783135"><ele>42.0</ele><time>2026-05-04T17:00:58.384Z</time></trkpt><trkpt lat="44.8220856" lon="10.3781768"><ele>42.0</ele><time>2026-05-04T17:01:00.383Z</time></trkpt><trkpt lat="44.8220361" lon="10.3780444"><ele>42.0</ele><time>2026-05-04T17:01:02.383Z</time></trkpt><trkpt lat="44.8220172" lon="10.3779592"><ele>42.0</ele><time>2026-05-04T17:01:03.384Z</time></trkpt><trkpt lat="44.8219613" lon="10.3778129"><ele>42.0</ele><time>2026-05-04T17:01:05.383Z</time></trkpt><trkpt lat="44.8219117" lon="10.3776532"><ele>41.833333333333336</ele><time>2026-05-04T17:01:07.384Z</time></trkpt><trkpt lat="44.8218448" lon="10.3775063"><ele>41.666666666666664</ele><time>2026-05-04T17:01:09.383Z</time></trkpt><trkpt lat="44.821792" lon="10.3773439"><ele>41.5</ele><time>2026-05-04T17:01:11.384Z</time></trkpt><trkpt lat="44.8217609" lon="10.3772616"><ele>41.33333333333333</ele><time>2026-05-04T17:01:12.384Z</time></trkpt><trkpt lat="44.8217247" lon="10.3771825"><ele>41.166666666666664</ele><time>2026-05-04T17:01:13.384Z</time></trkpt><trkpt lat="44.821694" lon="10.3771021"><ele>41.0</ele><time>2026-05-04T17:01:14.384Z</time></trkpt><trkpt lat="44.8216594" lon="10.3769328"><ele>41.0</ele><time>2026-05-04T17:01:16.383Z</time></trkpt><trkpt lat="44.8216004" lon="10.376776"><ele>41.0</ele><time>2026-05-04T17:01:18.383Z</time></trkpt><trkpt lat="44.8215507" lon="10.376621"><ele>41.0</ele><time>2026-05-04T17:01:20.384Z</time></trkpt><trkpt lat="44.8215228" lon="10.3765387"><ele>41.0</ele><time>2026-05-04T17:01:21.383Z</time></trkpt><trkpt lat="44.8214793" lon="10.3763863"><ele>41.0</ele><time>2026-05-04T17:01:23.383Z</time></trkpt><trkpt lat="44.8214397" lon="10.3763035"><ele>41.4</ele><time>2026-05-04T17:01:24.383Z</time></trkpt><trkpt lat="44.8213854" lon="10.3761618"><ele>41.8</ele><time>2026-05-04T17:01:26.383Z</time></trkpt><trkpt lat="44.8213388" lon="10.3760113"><ele>42.199999999999996</ele><time>2026-05-04T17:01:28.383Z</time></trkpt><trkpt lat="44.8213337" lon="10.3758593"><ele>42.599999999999994</ele><time>2026-05-04T17:01:30.383Z</time></trkpt><trkpt lat="44.8213382" lon="10.3757684"><ele>43.0</ele><time>2026-05-04T17:01:31.383Z</time></trkpt><trkpt lat="44.8213312" lon="10.3756062"><ele>42.0</ele><time>2026-05-04T17:01:33.384Z</time></trkpt><trkpt lat="44.8212676" lon="10.3754708"><ele>41.0</ele><time>2026-05-04T17:01:35.383Z</time></trkpt><trkpt lat="44.821191" lon="10.3753586"><ele>40.0</ele><time>2026-05-04T17:01:37.383Z</time></trkpt><trkpt lat="44.8211441" lon="10.3752969"><ele>39.0</ele><time>2026-05-04T17:01:38.384Z</time></trkpt><trkpt lat="44.821054" lon="10.3751907"><ele>38.0</ele><time>2026-05-04T17:01:40.384Z</time></trkpt><trkpt lat="44.8209864" lon="10.37505"><ele>38.5</ele><time>2026-05-04T17:01:42.383Z</time></trkpt><trkpt lat="44.8209448" lon="10.3748923"><ele>39.0</ele><time>2026-05-04T17:01:44.383Z</time></trkpt><trkpt lat="44.8209131" lon="10.3747358"><ele>39.5</ele><time>2026-05-04T17:01:46.383Z</time></trkpt><trkpt lat="44.8208832" lon="10.3745822"><ele>40.0</ele><time>2026-05-04T17:01:48.383Z</time></trkpt><trkpt lat="44.8208608" lon="10.3744228"><ele>40.0</ele><time>2026-05-04T17:01:50.383Z</time></trkpt><trkpt lat="44.8208373" lon="10.3742649"><ele>40.0</ele><time>2026-05-04T17:01:52.384Z</time></trkpt><trkpt lat="44.8208054" lon="10.3741178"><ele>40.0</ele><time>2026-05-04T17:01:54.383Z</time></trkpt><trkpt lat="44.8207793" lon="10.3740367"><ele>40.0</ele><time>2026-05-04T17:01:55.383Z</time></trkpt><trkpt lat="44.8207243" lon="10.3738935"><ele>40.0</ele><time>2026-05-04T17:01:57.384Z</time></trkpt><trkpt lat="44.8206756" lon="10.3737495"><ele>40.0</ele><time>2026-05-04T17:01:59.383Z</time></trkpt><trkpt lat="44.820623" lon="10.3736089"><ele>40.0</ele><time>2026-05-04T17:02:01.383Z</time></trkpt><trkpt lat="44.8205821" lon="10.3734698"><ele>40.0</ele><time>2026-05-04T17:02:03.384Z</time></trkpt><trkpt lat="44.820547" lon="10.3733204"><ele>40.0</ele><time>2026-05-04T17:02:05.384Z</time></trkpt><trkpt lat="44.8205144" lon="10.3731718"><ele>40.0</ele><time>2026-05-04T17:02:07.383Z</time></trkpt><trkpt lat="44.8204883" lon="10.3730088"><ele>39.75</ele><time>2026-05-04T17:02:09.384Z</time></trkpt><trkpt lat="44.8204647" lon="10.3728409"><ele>39.5</ele><time>2026-05-04T17:02:11.384Z</time></trkpt><trkpt lat="44.8204553" lon="10.3726824"><ele>39.25</ele><time>2026-05-04T17:02:13.383Z</time></trkpt><trkpt lat="44.8204382" lon="10.3725137"><ele>39.0</ele><time>2026-05-04T17:02:15.384Z</time></trkpt><trkpt lat="44.8204222" lon="10.3723624"><ele>39.0</ele><time>2026-05-04T17:02:17.383Z</time></trkpt><trkpt lat="44.8204041" lon="10.3721983"><ele>39.0</ele><time>2026-05-04T17:02:19.384Z</time></trkpt><trkpt lat="44.8203897" lon="10.3720437"><ele>39.0</ele><time>2026-05-04T17:02:21.384Z</time></trkpt><trkpt lat="44.8203706" lon="10.3719095"><ele>39.0</ele><time>2026-05-04T17:02:23.384Z</time></trkpt><trkpt lat="44.8203394" lon="10.3718194"><ele>39.0</ele><time>2026-05-04T17:02:25.383Z</time></trkpt><trkpt lat="44.820318" lon="10.3717021"><ele>39.2</ele><time>2026-05-04T17:02:28.383Z</time></trkpt><trkpt lat="44.8203363" lon="10.3715552"><ele>39.4</ele><time>2026-05-04T17:02:30.384Z</time></trkpt><trkpt lat="44.8203366" lon="10.3714019"><ele>39.6</ele><time>2026-05-04T17:02:32.383Z</time></trkpt><trkpt lat="44.8203197" lon="10.3712713"><ele>39.8</ele><time>2026-05-04T17:02:34.383Z</time></trkpt><trkpt lat="44.8203126" lon="10.3711257"><ele>40.0</ele><time>2026-05-04T17:02:36.384Z</time></trkpt><trkpt lat="44.8202985" lon="10.370988"><ele>40.0</ele><time>2026-05-04T17:02:38.383Z</time></trkpt><trkpt lat="44.8202836" lon="10.3708845"><ele>40.0</ele><time>2026-05-04T17:02:40.383Z</time></trkpt><trkpt lat="44.8202482" lon="10.3707531"><ele>40.0</ele><time>2026-05-04T17:02:42.383Z</time></trkpt><trkpt lat="44.8202066" lon="10.3706312"><ele>40.0</ele><time>2026-05-04T17:02:44.383Z</time></trkpt><trkpt lat="44.820171" lon="10.3704962"><ele>40.0</ele><time>2026-05-04T17:02:46.383Z</time></trkpt><trkpt lat="44.8201487" lon="10.3703531"><ele>40.0</ele><time>2026-05-04T17:02:48.383Z</time></trkpt><trkpt lat="44.8201352" lon="10.370204"><ele>40.0</ele><time>2026-05-04T17:02:50.384Z</time></trkpt><trkpt lat="44.8201082" lon="10.3700766"><ele>40.0</ele><time>2026-05-04T17:02:52.384Z</time></trkpt><trkpt lat="44.8200871" lon="10.3699422"><ele>40.0</ele><time>2026-05-04T17:02:54.383Z</time></trkpt><trkpt lat="44.8200728" lon="10.3698004"><ele>40.0</ele><time>2026-05-04T17:02:56.383Z</time></trkpt><trkpt lat="44.8200537" lon="10.3696504"><ele>39.8</ele><time>2026-05-04T17:02:58.383Z</time></trkpt><trkpt lat="44.8200338" lon="10.3695051"><ele>39.6</ele><time>2026-05-04T17:03:00.384Z</time></trkpt><trkpt lat="44.8200143" lon="10.3693528"><ele>39.4</ele><time>2026-05-04T17:03:02.383Z</time></trkpt><trkpt lat="44.8199965" lon="10.3692033"><ele>39.2</ele><time>2026-05-04T17:03:04.384Z</time></trkpt><trkpt lat="44.8199817" lon="10.3690653"><ele>39.0</ele><time>2026-05-04T17:03:06.383Z</time></trkpt><trkpt lat="44.8199736" lon="10.3689221"><ele>39.2</ele><time>2026-05-04T17:03:08.384Z</time></trkpt><trkpt lat="44.8199693" lon="10.3687712"><ele>39.4</ele><time>2026-05-04T17:03:10.383Z</time></trkpt><trkpt lat="44.8199595" lon="10.3686177"><ele>39.6</ele><time>2026-05-04T17:03:12.384Z</time></trkpt><trkpt lat="44.8199534" lon="10.3684563"><ele>39.8</ele><time>2026-05-04T17:03:14.383Z</time></trkpt><trkpt lat="44.8199523" lon="10.3683059"><ele>40.0</ele><time>2026-05-04T17:03:16.383Z</time></trkpt><trkpt lat="44.8199492" lon="10.3681401"><ele>40.0</ele><time>2026-05-04T17:03:18.384Z</time></trkpt><trkpt lat="44.8199436" lon="10.3679799"><ele>40.0</ele><time>2026-05-04T17:03:20.384Z</time></trkpt><trkpt lat="44.8199531" lon="10.3678173"><ele>40.0</ele><time>2026-05-04T17:03:22.384Z</time></trkpt><trkpt lat="44.8199767" lon="10.3676349"><ele>40.0</ele><time>2026-05-04T17:03:24.384Z</time></trkpt><trkpt lat="44.8200045" lon="10.3674637"><ele>40.0</ele><time>2026-05-04T17:03:26.384Z</time></trkpt><trkpt lat="44.8200142" lon="10.3673754"><ele>40.0</ele><time>2026-05-04T17:03:27.384Z</time></trkpt><trkpt lat="44.8200257" lon="10.3672134"><ele>40.0</ele><time>2026-05-04T17:03:29.383Z</time></trkpt><trkpt lat="44.8200319" lon="10.3670536"><ele>40.0</ele><time>2026-05-04T17:03:31.384Z</time></trkpt><trkpt lat="44.8200407" lon="10.3669653"><ele>40.0</ele><time>2026-05-04T17:03:32.384Z</time></trkpt><trkpt lat="44.8200658" lon="10.3667965"><ele>40.25</ele><time>2026-05-04T17:03:34.384Z</time></trkpt><trkpt lat="44.8200799" lon="10.3666265"><ele>40.5</ele><time>2026-05-04T17:03:36.383Z</time></trkpt><trkpt lat="44.8201031" lon="10.3664639"><ele>40.75</ele><time>2026-05-04T17:03:38.383Z</time></trkpt><trkpt lat="44.8201159" lon="10.366291"><ele>41.0</ele><time>2026-05-04T17:03:40.384Z</time></trkpt><trkpt lat="44.82013" lon="10.3661258"><ele>40.4</ele><time>2026-05-04T17:03:42.383Z</time></trkpt><trkpt lat="44.8201464" lon="10.365967"><ele>39.8</ele><time>2026-05-04T17:03:44.384Z</time></trkpt><trkpt lat="44.8201741" lon="10.3658044"><ele>39.199999999999996</ele><time>2026-05-04T17:03:46.384Z</time></trkpt><trkpt lat="44.820181" lon="10.3657112"><ele>38.599999999999994</ele><time>2026-05-04T17:03:47.383Z</time></trkpt><trkpt lat="44.8201882" lon="10.3656218"><ele>38.0</ele><time>2026-05-04T17:03:48.384Z</time></trkpt><trkpt lat="44.8202149" lon="10.3654484"><ele>38.0</ele><time>2026-05-04T17:03:50.384Z</time></trkpt><trkpt lat="44.8202174" lon="10.365356"><ele>38.0</ele><time>2026-05-04T17:03:51.383Z</time></trkpt><trkpt lat="44.8202372" lon="10.3651943"><ele>38.0</ele><time>2026-05-04T17:03:53.384Z</time></trkpt><trkpt lat="44.8202635" lon="10.3650555"><ele>38.0</ele><time>2026-05-04T17:03:55.384Z</time></trkpt><trkpt lat="44.8202921" lon="10.36494"><ele>38.0</ele><time>2026-05-04T17:03:57.383Z</time></trkpt><trkpt lat="44.8203042" lon="10.3647996"><ele>38.0</ele><time>2026-05-04T17:03:59.383Z</time></trkpt><trkpt lat="44.8203134" lon="10.3646723"><ele>38.0</ele><time>2026-05-04T17:04:01.383Z</time></trkpt><trkpt lat="44.8203232" lon="10.3645414"><ele>38.0</ele><time>2026-05-04T17:04:03.383Z</time></trkpt><trkpt lat="44.8203451" lon="10.3644278"><ele>38.0</ele><time>2026-05-04T17:04:05.384Z</time></trkpt><trkpt lat="44.8204202" lon="10.3643867"><ele>38.0</ele><time>2026-05-04T17:04:07.384Z</time></trkpt><trkpt lat="44.8205004" lon="10.3644121"><ele>38.0</ele><time>2026-05-04T17:04:09.384Z</time></trkpt><trkpt lat="44.8205854" lon="10.3644469"><ele>38.0</ele><time>2026-05-04T17:04:11.383Z</time></trkpt><trkpt lat="44.8206813" lon="10.3644885"><ele>38.0</ele><time>2026-05-04T17:04:13.383Z</time></trkpt><trkpt lat="44.8207741" lon="10.3644669"><ele>38.0</ele><time>2026-05-04T17:04:15.383Z</time></trkpt><trkpt lat="44.8207893" lon="10.3643589"><ele>38.0</ele><time>2026-05-04T17:04:17.383Z</time></trkpt><trkpt lat="44.820719" lon="10.364287"><ele>38.0</ele><time>2026-05-04T17:04:19.384Z</time></trkpt><trkpt lat="44.8206217" lon="10.364243"><ele>38.0</ele><time>2026-05-04T17:04:21.383Z</time></trkpt><trkpt lat="44.8205548" lon="10.3642314"><ele>38.0</ele><time>2026-05-04T17:04:22.384Z</time></trkpt><trkpt lat="44.8204907" lon="10.3642064"><ele>38.0</ele><time>2026-05-04T17:04:23.383Z</time></trkpt><trkpt lat="44.8204229" lon="10.3641786"><ele>38.0</ele><time>2026-05-04T17:04:24.384Z</time></trkpt><trkpt lat="44.8202924" lon="10.3641228"><ele>38.0</ele><time>2026-05-04T17:04:26.384Z</time></trkpt><trkpt lat="44.8202212" lon="10.3641033"><ele>38.0</ele><time>2026-05-04T17:04:27.384Z</time></trkpt><trkpt lat="44.8201512" lon="10.3640842"><ele>37.8</ele><time>2026-05-04T17:04:28.383Z</time></trkpt><trkpt lat="44.8200434" lon="10.3640387"><ele>37.599999999999994</ele><time>2026-05-04T17:04:30.384Z</time></trkpt><trkpt lat="44.8199549" lon="10.3639636"><ele>37.400000000000006</ele><time>2026-05-04T17:04:32.383Z</time></trkpt><trkpt lat="44.8198577" lon="10.3639548"><ele>37.2</ele><time>2026-05-04T17:04:34.383Z</time></trkpt><trkpt lat="44.8197788" lon="10.3639047"><ele>37.0</ele><time>2026-05-04T17:04:36.383Z</time></trkpt><trkpt lat="44.8196858" lon="10.3638757"><ele>37.5</ele><time>2026-05-04T17:04:38.384Z</time></trkpt><trkpt lat="44.8195979" lon="10.3638184"><ele>38.0</ele><time>2026-05-04T17:04:40.383Z</time></trkpt><trkpt lat="44.8195096" lon="10.36378"><ele>38.5</ele><time>2026-05-04T17:04:42.383Z</time></trkpt><trkpt lat="44.8194257" lon="10.3637285"><ele>39.0</ele><time>2026-05-04T17:04:44.383Z</time></trkpt><trkpt lat="44.819355" lon="10.3636949"><ele>39.5</ele><time>2026-05-04T17:04:46.383Z</time></trkpt><trkpt lat="44.8192673" lon="10.3636657"><ele>40.0</ele><time>2026-05-04T17:04:48.384Z</time></trkpt><trkpt lat="44.8191861" lon="10.3636308"><ele>40.0</ele><time>2026-05-04T17:04:50.383Z</time></trkpt><trkpt lat="44.8191492" lon="10.3635539"><ele>40.0</ele><time>2026-05-04T17:04:52.384Z</time></trkpt><trkpt lat="44.8191439" lon="10.3634392"><ele>40.0</ele><time>2026-05-04T17:04:54.383Z</time></trkpt><trkpt lat="44.8191169" lon="10.363321"><ele>40.0</ele><time>2026-05-04T17:04:56.383Z</time></trkpt><trkpt lat="44.8190833" lon="10.3632027"><ele>40.0</ele><time>2026-05-04T17:04:58.384Z</time></trkpt><trkpt lat="44.8190533" lon="10.3631139"><ele>40.0</ele><time>2026-05-04T17:05:00.383Z</time></trkpt><trkpt lat="44.8190507" lon="10.3629974"><ele>40.0</ele><time>2026-05-04T17:05:02.384Z</time></trkpt><trkpt lat="44.8190323" lon="10.362895"><ele>40.0</ele><time>2026-05-04T17:05:04.383Z</time></trkpt><trkpt lat="44.8190205" lon="10.3627919"><ele>40.0</ele><time>2026-05-04T17:05:08.384Z</time></trkpt><trkpt lat="44.8190165" lon="10.3626784"><ele>40.0</ele><time>2026-05-04T17:05:11.383Z</time></trkpt><trkpt lat="44.819001" lon="10.3625674"><ele>40.0</ele><time>2026-05-04T17:05:13.383Z</time></trkpt><trkpt lat="44.8189754" lon="10.3624395"><ele>40.0</ele><time>2026-05-04T17:05:15.384Z</time></trkpt><trkpt lat="44.81899" lon="10.3622992"><ele>39.5</ele><time>2026-05-04T17:05:17.384Z</time></trkpt><trkpt lat="44.8190147" lon="10.3621656"><ele>39.0</ele><time>2026-05-04T17:05:19.383Z</time></trkpt><trkpt lat="44.8190636" lon="10.3620898"><ele>38.5</ele><time>2026-05-04T17:05:21.383Z</time></trkpt><trkpt lat="44.8191602" lon="10.3620571"><ele>38.0</ele><time>2026-05-04T17:05:23.383Z</time></trkpt><trkpt lat="44.8192006" lon="10.3619504"><ele>37.5</ele><time>2026-05-04T17:05:25.384Z</time></trkpt><trkpt lat="44.8192074" lon="10.3618373"><ele>37.0</ele><time>2026-05-04T17:05:27.383Z</time></trkpt><trkpt lat="44.8191491" lon="10.3617405"><ele>37.0</ele><time>2026-05-04T17:05:29.384Z</time></trkpt><trkpt lat="44.819071" lon="10.3616615"><ele>37.0</ele><time>2026-05-04T17:05:31.384Z</time></trkpt><trkpt lat="44.8190147" lon="10.3615729"><ele>37.0</ele><time>2026-05-04T17:05:33.383Z</time></trkpt><trkpt lat="44.8189321" lon="10.3614838"><ele>37.0</ele><time>2026-05-04T17:05:35.384Z</time></trkpt><trkpt lat="44.8188459" lon="10.3613891"><ele>37.0</ele><time>2026-05-04T17:05:37.384Z</time></trkpt><trkpt lat="44.8188028" lon="10.3612614"><ele>36.800000000000004</ele><time>2026-05-04T17:05:39.383Z</time></trkpt><trkpt lat="44.8187702" lon="10.3611144"><ele>36.6</ele><time>2026-05-04T17:05:41.383Z</time></trkpt><trkpt lat="44.81874" lon="10.3609628"><ele>36.400000000000006</ele><time>2026-05-04T17:05:43.384Z</time></trkpt><trkpt lat="44.8187189" lon="10.360824"><ele>36.2</ele><time>2026-05-04T17:05:45.383Z</time></trkpt><trkpt lat="44.8186911" lon="10.3606764"><ele>36.0</ele><time>2026-05-04T17:05:47.383Z</time></trkpt><trkpt lat="44.8186744" lon="10.3605211"><ele>37.0</ele><time>2026-05-04T17:05:49.384Z</time></trkpt><trkpt lat="44.8186584" lon="10.3603655"><ele>38.0</ele><time>2026-05-04T17:05:51.383Z</time></trkpt><trkpt lat="44.8186306" lon="10.3602004"><ele>39.0</ele><time>2026-05-04T17:05:53.384Z</time></trkpt><trkpt lat="44.818602" lon="10.360048"><ele>40.0</ele><time>2026-05-04T17:05:55.384Z</time></trkpt><trkpt lat="44.8185724" lon="10.3598954"><ele>40.0</ele><time>2026-05-04T17:05:57.384Z</time></trkpt><trkpt lat="44.8185342" lon="10.3597451"><ele>40.0</ele><time>2026-05-04T17:05:59.384Z</time></trkpt><trkpt lat="44.8185174" lon="10.3595827"><ele>40.0</ele><time>2026-05-04T17:06:01.383Z</time></trkpt><trkpt lat="44.8184952" lon="10.3594348"><ele>40.0</ele><time>2026-05-04T17:06:03.383Z</time></trkpt><trkpt lat="44.8184601" lon="10.3592803"><ele>40.0</ele><time>2026-05-04T17:06:05.384Z</time></trkpt><trkpt lat="44.8184343" lon="10.3591252"><ele>40.0</ele><time>2026-05-04T17:06:07.384Z</time></trkpt><trkpt lat="44.8184057" lon="10.3589676"><ele>40.0</ele><time>2026-05-04T17:06:09.384Z</time></trkpt><trkpt lat="44.8183757" lon="10.3588015"><ele>40.0</ele><time>2026-05-04T17:06:11.384Z</time></trkpt><trkpt lat="44.8183433" lon="10.3586512"><ele>40.0</ele><time>2026-05-04T17:06:13.384Z</time></trkpt><trkpt lat="44.8183188" lon="10.3584955"><ele>40.0</ele><time>2026-05-04T17:06:15.383Z</time></trkpt><trkpt lat="44.8182956" lon="10.3583325"><ele>40.0</ele><time>2026-05-04T17:06:17.384Z</time></trkpt><trkpt lat="44.8182621" lon="10.3581662"><ele>40.0</ele><time>2026-05-04T17:06:19.384Z</time></trkpt><trkpt lat="44.8182319" lon="10.3580186"><ele>40.0</ele><time>2026-05-04T17:06:21.384Z</time></trkpt><trkpt lat="44.8182066" lon="10.3578726"><ele>40.0</ele><time>2026-05-04T17:06:23.384Z</time></trkpt><trkpt lat="44.8181788" lon="10.3577246"><ele>40.0</ele><time>2026-05-04T17:06:25.384Z</time></trkpt><trkpt lat="44.8181418" lon="10.3575736"><ele>40.0</ele><time>2026-05-04T17:06:27.384Z</time></trkpt><trkpt lat="44.8181126" lon="10.3574207"><ele>40.0</ele><time>2026-05-04T17:06:29.384Z</time></trkpt><trkpt lat="44.8180964" lon="10.3572593"><ele>40.2</ele><time>2026-05-04T17:06:31.384Z</time></trkpt><trkpt lat="44.8180649" lon="10.3571077"><ele>40.4</ele><time>2026-05-04T17:06:33.383Z</time></trkpt><trkpt lat="44.8180352" lon="10.3569588"><ele>40.599999999999994</ele><time>2026-05-04T17:06:35.383Z</time></trkpt><trkpt lat="44.8180005" lon="10.3568116"><ele>40.8</ele><time>2026-05-04T17:06:37.384Z</time></trkpt><trkpt lat="44.8179761" lon="10.3566632"><ele>41.0</ele><time>2026-05-04T17:06:39.384Z</time></trkpt><trkpt lat="44.8179513" lon="10.3565074"><ele>41.4</ele><time>2026-05-04T17:06:41.383Z</time></trkpt><trkpt lat="44.8179209" lon="10.3563587"><ele>41.8</ele><time>2026-05-04T17:06:43.383Z</time></trkpt><trkpt lat="44.8179019" lon="10.3562732"><ele>42.199999999999996</ele><time>2026-05-04T17:06:44.384Z</time></trkpt><trkpt lat="44.8178723" lon="10.3561122"><ele>42.599999999999994</ele><time>2026-05-04T17:06:46.384Z</time></trkpt><trkpt lat="44.8178339" lon="10.3559544"><ele>43.0</ele><time>2026-05-04T17:06:48.384Z</time></trkpt><trkpt lat="44.8178034" lon="10.35579"><ele>43.0</ele><time>2026-05-04T17:06:50.384Z</time></trkpt><trkpt lat="44.8177801" lon="10.3556464"><ele>43.0</ele><time>2026-05-04T17:06:52.383Z</time></trkpt><trkpt lat="44.8177527" lon="10.3554882"><ele>43.0</ele><time>2026-05-04T17:06:54.383Z</time></trkpt><trkpt lat="44.8177231" lon="10.355327"><ele>43.0</ele><time>2026-05-04T17:06:56.383Z</time></trkpt><trkpt lat="44.8177197" lon="10.3551762"><ele>43.0</ele><time>2026-05-04T17:06:58.384Z</time></trkpt><trkpt lat="44.8177729" lon="10.3550528"><ele>42.833333333333336</ele><time>2026-05-04T17:07:00.384Z</time></trkpt><trkpt lat="44.8178525" lon="10.3549922"><ele>42.66666666666667</ele><time>2026-05-04T17:07:02.383Z</time></trkpt><trkpt lat="44.8179282" lon="10.3549878"><ele>42.5</ele><time>2026-05-04T17:07:04.383Z</time></trkpt><trkpt lat="44.8179651" lon="10.3549139"><ele>42.333333333333336</ele><time>2026-05-04T17:07:06.384Z</time></trkpt><trkpt lat="44.8179772" lon="10.3547965"><ele>42.166666666666664</ele><time>2026-05-04T17:07:08.383Z</time></trkpt><trkpt lat="44.8179542" lon="10.35468"><ele>42.0</ele><time>2026-05-04T17:07:10.384Z</time></trkpt><trkpt lat="44.8178619" lon="10.3546236"><ele>42.0</ele><time>2026-05-04T17:07:12.383Z</time></trkpt><trkpt lat="44.8177747" lon="10.3545612"><ele>42.0</ele><time>2026-05-04T17:07:14.383Z</time></trkpt><trkpt lat="44.8176792" lon="10.3544974"><ele>42.0</ele><time>2026-05-04T17:07:16.383Z</time></trkpt><trkpt lat="44.8176099" lon="10.3544099"><ele>42.0</ele><time>2026-05-04T17:07:18.383Z</time></trkpt><trkpt lat="44.8175739" lon="10.3542646"><ele>42.0</ele><time>2026-05-04T17:07:20.383Z</time></trkpt><trkpt lat="44.8175515" lon="10.3541174"><ele>42.2</ele><time>2026-05-04T17:07:22.383Z</time></trkpt><trkpt lat="44.8175121" lon="10.3539709"><ele>42.400000000000006</ele><time>2026-05-04T17:07:24.383Z</time></trkpt><trkpt lat="44.8174842" lon="10.3538292"><ele>42.599999999999994</ele><time>2026-05-04T17:07:26.384Z</time></trkpt><trkpt lat="44.8174556" lon="10.3536731"><ele>42.8</ele><time>2026-05-04T17:07:28.383Z</time></trkpt><trkpt lat="44.8174253" lon="10.35352"><ele>43.0</ele><time>2026-05-04T17:07:30.384Z</time></trkpt><trkpt lat="44.8173993" lon="10.353378"><ele>43.0</ele><time>2026-05-04T17:07:32.383Z</time></trkpt><trkpt lat="44.8173693" lon="10.3532562"><ele>43.0</ele><time>2026-05-04T17:07:34.383Z</time></trkpt><trkpt lat="44.8173441" lon="10.3531396"><ele>43.0</ele><time>2026-05-04T17:07:36.383Z</time></trkpt><trkpt lat="44.817296" lon="10.3530069"><ele>43.0</ele><time>2026-05-04T17:07:38.383Z</time></trkpt><trkpt lat="44.8172698" lon="10.3528576"><ele>43.0</ele><time>2026-05-04T17:07:40.383Z</time></trkpt><trkpt lat="44.8172268" lon="10.352694"><ele>43.0</ele><time>2026-05-04T17:07:42.383Z</time></trkpt><trkpt lat="44.8171878" lon="10.3525439"><ele>43.0</ele><time>2026-05-04T17:07:44.384Z</time></trkpt><trkpt lat="44.8171574" lon="10.3524123"><ele>43.0</ele><time>2026-05-04T17:07:46.383Z</time></trkpt><trkpt lat="44.8171054" lon="10.3522959"><ele>43.0</ele><time>2026-05-04T17:07:48.383Z</time></trkpt><trkpt lat="44.8170421" lon="10.3521654"><ele>43.0</ele><time>2026-05-04T17:07:50.383Z</time></trkpt><trkpt lat="44.8169937" lon="10.3520388"><ele>43.25</ele><time>2026-05-04T17:07:52.383Z</time></trkpt><trkpt lat="44.8169583" lon="10.3518952"><ele>43.5</ele><time>2026-05-04T17:07:54.383Z</time></trkpt><trkpt lat="44.8169169" lon="10.3517486"><ele>43.75</ele><time>2026-05-04T17:07:56.384Z</time></trkpt><trkpt lat="44.81687" lon="10.3516056"><ele>44.0</ele><time>2026-05-04T17:07:58.384Z</time></trkpt><trkpt lat="44.8168079" lon="10.3514633"><ele>43.75</ele><time>2026-05-04T17:08:00.383Z</time></trkpt><trkpt lat="44.8167558" lon="10.3513115"><ele>43.5</ele><time>2026-05-04T17:08:02.383Z</time></trkpt><trkpt lat="44.8166908" lon="10.3511714"><ele>43.25</ele><time>2026-05-04T17:08:04.384Z</time></trkpt><trkpt lat="44.8166368" lon="10.3510184"><ele>43.0</ele><time>2026-05-04T17:08:06.383Z</time></trkpt><trkpt lat="44.8165839" lon="10.3508664"><ele>43.0</ele><time>2026-05-04T17:08:08.384Z</time></trkpt><trkpt lat="44.8165378" lon="10.3507237"><ele>43.0</ele><time>2026-05-04T17:08:10.383Z</time></trkpt><trkpt lat="44.8164944" lon="10.3505671"><ele>43.0</ele><time>2026-05-04T17:08:12.383Z</time></trkpt><trkpt lat="44.8164436" lon="10.3504461"><ele>43.0</ele><time>2026-05-04T17:08:14.384Z</time></trkpt><trkpt lat="44.8163979" lon="10.3502984"><ele>43.0</ele><time>2026-05-04T17:08:16.383Z</time></trkpt><trkpt lat="44.8163354" lon="10.3501646"><ele>43.0</ele><time>2026-05-04T17:08:18.383Z</time></trkpt><trkpt lat="44.8162883" lon="10.3500313"><ele>43.0</ele><time>2026-05-04T17:08:20.384Z</time></trkpt><trkpt lat="44.8162392" lon="10.349906"><ele>43.0</ele><time>2026-05-04T17:08:22.383Z</time></trkpt><trkpt lat="44.8161927" lon="10.3497723"><ele>43.0</ele><time>2026-05-04T17:08:24.384Z</time></trkpt><trkpt lat="44.8161266" lon="10.3496431"><ele>43.0</ele><time>2026-05-04T17:08:26.383Z</time></trkpt><trkpt lat="44.8160618" lon="10.3495048"><ele>43.0</ele><time>2026-05-04T17:08:28.384Z</time></trkpt><trkpt lat="44.8159918" lon="10.3493617"><ele>43.0</ele><time>2026-05-04T17:08:30.384Z</time></trkpt><trkpt lat="44.8159257" lon="10.3492334"><ele>43.0</ele><time>2026-05-04T17:08:32.383Z</time></trkpt><trkpt lat="44.8158603" lon="10.3491016"><ele>43.0</ele><time>2026-05-04T17:08:34.383Z</time></trkpt><trkpt lat="44.8157758" lon="10.3490044"><ele>43.0</ele><time>2026-05-04T17:08:36.384Z</time></trkpt><trkpt lat="44.8156936" lon="10.3489114"><ele>43.0</ele><time>2026-05-04T17:08:38.384Z</time></trkpt><trkpt lat="44.8156313" lon="10.3487886"><ele>43.0</ele><time>2026-05-04T17:08:40.383Z</time></trkpt><trkpt lat="44.8155704" lon="10.3486616"><ele>43.0</ele><time>2026-05-04T17:08:42.384Z</time></trkpt><trkpt lat="44.8155054" lon="10.3485369"><ele>43.0</ele><time>2026-05-04T17:08:44.384Z</time></trkpt><trkpt lat="44.8154555" lon="10.3483837"><ele>43.4</ele><time>2026-05-04T17:08:46.384Z</time></trkpt><trkpt lat="44.815386" lon="10.3482699"><ele>43.8</ele><time>2026-05-04T17:08:48.383Z</time></trkpt><trkpt lat="44.815337" lon="10.3481738"><ele>44.2</ele><time>2026-05-04T17:08:50.384Z</time></trkpt><trkpt lat="44.815262" lon="10.3480789"><ele>44.6</ele><time>2026-05-04T17:08:52.383Z</time></trkpt><trkpt lat="44.8151853" lon="10.3479679"><ele>45.0</ele><time>2026-05-04T17:08:54.383Z</time></trkpt><trkpt lat="44.8151052" lon="10.3478499"><ele>45.6</ele><time>2026-05-04T17:08:56.384Z</time></trkpt><trkpt lat="44.8150136" lon="10.3477497"><ele>46.2</ele><time>2026-05-04T17:08:58.383Z</time></trkpt><trkpt lat="44.8149329" lon="10.3476674"><ele>46.8</ele><time>2026-05-04T17:09:00.384Z</time></trkpt><trkpt lat="44.8148659" lon="10.3475696"><ele>47.4</ele><time>2026-05-04T17:09:02.383Z</time></trkpt><trkpt lat="44.8147652" lon="10.347474"><ele>48.0</ele><time>2026-05-04T17:09:04.383Z</time></trkpt><trkpt lat="44.8146933" lon="10.3474212"><ele>48.0</ele><time>2026-05-04T17:09:06.384Z</time></trkpt><trkpt lat="44.8145818" lon="10.3473709"><ele>48.0</ele><time>2026-05-04T17:09:08.384Z</time></trkpt><trkpt lat="44.8144705" lon="10.3473036"><ele>48.0</ele><time>2026-05-04T17:09:10.383Z</time></trkpt><trkpt lat="44.8144085" lon="10.3472865"><ele>48.0</ele><time>2026-05-04T17:09:11.383Z</time></trkpt><trkpt lat="44.8143066" lon="10.3472476"><ele>48.0</ele><time>2026-05-04T17:09:13.383Z</time></trkpt><trkpt lat="44.8142002" lon="10.3472095"><ele>47.4</ele><time>2026-05-04T17:09:15.383Z</time></trkpt><trkpt lat="44.8141115" lon="10.3471883"><ele>46.8</ele><time>2026-05-04T17:09:17.383Z</time></trkpt><trkpt lat="44.8140097" lon="10.3472165"><ele>46.2</ele><time>2026-05-04T17:09:19.383Z</time></trkpt><trkpt lat="44.8139176" lon="10.3472339"><ele>45.6</ele><time>2026-05-04T17:09:21.383Z</time></trkpt><trkpt lat="44.8138232" lon="10.3472181"><ele>45.0</ele><time>2026-05-04T17:09:23.383Z</time></trkpt><trkpt lat="44.8137164" lon="10.3472264"><ele>45.0</ele><time>2026-05-04T17:09:25.383Z</time></trkpt><trkpt lat="44.8136087" lon="10.3472242"><ele>45.0</ele><time>2026-05-04T17:09:27.383Z</time></trkpt><trkpt lat="44.8134897" lon="10.3472196"><ele>45.0</ele><time>2026-05-04T17:09:29.384Z</time></trkpt><trkpt lat="44.8133931" lon="10.3471972"><ele>45.0</ele><time>2026-05-04T17:09:31.383Z</time></trkpt><trkpt lat="44.8133272" lon="10.3471972"><ele>45.0</ele><time>2026-05-04T17:09:32.383Z</time></trkpt><trkpt lat="44.8132583" lon="10.3471935"><ele>45.166666666666664</ele><time>2026-05-04T17:09:33.384Z</time></trkpt><trkpt lat="44.8131946" lon="10.3471925"><ele>45.333333333333336</ele><time>2026-05-04T17:09:34.384Z</time></trkpt><trkpt lat="44.8131277" lon="10.3471945"><ele>45.5</ele><time>2026-05-04T17:09:35.383Z</time></trkpt><trkpt lat="44.813062" lon="10.3471916"><ele>45.66666666666667</ele><time>2026-05-04T17:09:36.383Z</time></trkpt><trkpt lat="44.8129478" lon="10.3471518"><ele>45.833333333333336</ele><time>2026-05-04T17:09:38.384Z</time></trkpt><trkpt lat="44.8128272" lon="10.3471368"><ele>46.0</ele><time>2026-05-04T17:09:40.384Z</time></trkpt><trkpt lat="44.8127212" lon="10.3471236"><ele>45.599999999999994</ele><time>2026-05-04T17:09:42.383Z</time></trkpt><trkpt lat="44.8126195" lon="10.3471093"><ele>45.2</ele><time>2026-05-04T17:09:44.384Z</time></trkpt><trkpt lat="44.8125318" lon="10.3470958"><ele>44.8</ele><time>2026-05-04T17:09:46.383Z</time></trkpt><trkpt lat="44.812432" lon="10.3470828"><ele>44.400000000000006</ele><time>2026-05-04T17:09:48.384Z</time></trkpt><trkpt lat="44.8123348" lon="10.3471303"><ele>44.0</ele><time>2026-05-04T17:09:50.383Z</time></trkpt><trkpt lat="44.8122498" lon="10.3471629"><ele>44.0</ele><time>2026-05-04T17:09:53.384Z</time></trkpt><trkpt lat="44.8121866" lon="10.3470806"><ele>44.0</ele><time>2026-05-04T17:09:55.383Z</time></trkpt><trkpt lat="44.8121494" lon="10.3469914"><ele>44.0</ele><time>2026-05-04T17:09:57.383Z</time></trkpt><trkpt lat="44.8121526" lon="10.3468192"><ele>44.0</ele><time>2026-05-04T17:10:00.384Z</time></trkpt><trkpt lat="44.8121697" lon="10.3467313"><ele>44.0</ele><time>2026-05-04T17:10:01.383Z</time></trkpt><trkpt lat="44.812189" lon="10.3466102"><ele>44.0</ele><time>2026-05-04T17:10:03.384Z</time></trkpt><trkpt lat="44.8122198" lon="10.3464972"><ele>44.0</ele><time>2026-05-04T17:10:05.383Z</time></trkpt><trkpt lat="44.8122441" lon="10.3463843"><ele>44.0</ele><time>2026-05-04T17:10:07.383Z</time></trkpt><trkpt lat="44.8122574" lon="10.3462698"><ele>44.0</ele><time>2026-05-04T17:10:09.384Z</time></trkpt><trkpt lat="44.8122504" lon="10.3461783"><ele>44.0</ele><time>2026-05-04T17:10:11.384Z</time></trkpt><trkpt lat="44.8122687" lon="10.3460904"><ele>44.0</ele><time>2026-05-04T17:10:13.383Z</time></trkpt><trkpt lat="44.8123089" lon="10.3460097"><ele>44.0</ele><time>2026-05-04T17:10:15.383Z</time></trkpt><trkpt lat="44.8123538" lon="10.3459187"><ele>44.0</ele><time>2026-05-04T17:10:17.384Z</time></trkpt><trkpt lat="44.8123811" lon="10.3458186"><ele>44.166666666666664</ele><time>2026-05-04T17:10:19.383Z</time></trkpt><trkpt lat="44.8124007" lon="10.3457222"><ele>44.33333333333333</ele><time>2026-05-04T17:10:21.383Z</time></trkpt><trkpt lat="44.8124225" lon="10.3456308"><ele>44.5</ele><time>2026-05-04T17:10:24.383Z</time></trkpt><trkpt lat="44.812517" lon="10.3456502"><ele>44.666666666666664</ele><time>2026-05-04T17:10:27.384Z</time></trkpt><trkpt lat="44.812583" lon="10.3457212"><ele>44.833333333333336</ele><time>2026-05-04T17:10:29.384Z</time></trkpt><trkpt lat="44.8126536" lon="10.3457808"><ele>45.0</ele><time>2026-05-04T17:10:31.383Z</time></trkpt><trkpt lat="44.8127228" lon="10.3458135"><ele>45.2</ele><time>2026-05-04T17:10:33.383Z</time></trkpt><trkpt lat="44.8127856" lon="10.3457551"><ele>45.4</ele><time>2026-05-04T17:10:35.383Z</time></trkpt><trkpt lat="44.8127909" lon="10.3455927"><ele>45.599999999999994</ele><time>2026-05-04T17:10:37.384Z</time></trkpt><trkpt lat="44.8128276" lon="10.3454614"><ele>45.8</ele><time>2026-05-04T17:10:39.383Z</time></trkpt><trkpt lat="44.8128566" lon="10.3453098"><ele>46.0</ele><time>2026-05-04T17:10:41.383Z</time></trkpt><trkpt lat="44.8128821" lon="10.3451711"><ele>46.0</ele><time>2026-05-04T17:10:43.384Z</time></trkpt><trkpt lat="44.8129028" lon="10.3450125"><ele>46.0</ele><time>2026-05-04T17:10:45.384Z</time></trkpt><trkpt lat="44.8129169" lon="10.344875"><ele>46.0</ele><time>2026-05-04T17:10:47.384Z</time></trkpt><trkpt lat="44.8129521" lon="10.3447472"><ele>46.0</ele><time>2026-05-04T17:10:49.383Z</time></trkpt><trkpt lat="44.8129802" lon="10.3446154"><ele>46.0</ele><time>2026-05-04T17:10:51.384Z</time></trkpt><trkpt lat="44.8129961" lon="10.3444874"><ele>46.199999999999996</ele><time>2026-05-04T17:10:53.384Z</time></trkpt><trkpt lat="44.8130144" lon="10.3443628"><ele>46.4</ele><time>2026-05-04T17:10:55.384Z</time></trkpt><trkpt lat="44.8130475" lon="10.344232"><ele>46.6</ele><time>2026-05-04T17:10:57.384Z</time></trkpt><trkpt lat="44.8130875" lon="10.3440952"><ele>46.8</ele><time>2026-05-04T17:10:59.384Z</time></trkpt><trkpt lat="44.8131169" lon="10.3439611"><ele>47.0</ele><time>2026-05-04T17:11:01.384Z</time></trkpt><trkpt lat="44.8131471" lon="10.3438083"><ele>46.400000000000006</ele><time>2026-05-04T17:11:03.384Z</time></trkpt><trkpt lat="44.8131773" lon="10.3436576"><ele>45.800000000000004</ele><time>2026-05-04T17:11:05.384Z</time></trkpt><trkpt lat="44.8132149" lon="10.3435042"><ele>45.2</ele><time>2026-05-04T17:11:07.383Z</time></trkpt><trkpt lat="44.8132342" lon="10.3433639"><ele>44.6</ele><time>2026-05-04T17:11:09.384Z</time></trkpt><trkpt lat="44.8132645" lon="10.3432391"><ele>44.0</ele><time>2026-05-04T17:11:11.383Z</time></trkpt><trkpt lat="44.8132856" lon="10.3430881"><ele>44.6</ele><time>2026-05-04T17:11:13.384Z</time></trkpt><trkpt lat="44.8133098" lon="10.3429402"><ele>45.2</ele><time>2026-05-04T17:11:15.383Z</time></trkpt><trkpt lat="44.8133315" lon="10.3427957"><ele>45.800000000000004</ele><time>2026-05-04T17:11:17.383Z</time></trkpt><trkpt lat="44.8133563" lon="10.3426422"><ele>46.400000000000006</ele><time>2026-05-04T17:11:19.383Z</time></trkpt><trkpt lat="44.8133832" lon="10.342504"><ele>47.0</ele><time>2026-05-04T17:11:21.383Z</time></trkpt><trkpt lat="44.8134112" lon="10.3423772"><ele>47.0</ele><time>2026-05-04T17:11:23.383Z</time></trkpt><trkpt lat="44.8134257" lon="10.3422506"><ele>47.0</ele><time>2026-05-04T17:11:25.384Z</time></trkpt><trkpt lat="44.8134408" lon="10.342125"><ele>47.0</ele><time>2026-05-04T17:11:27.383Z</time></trkpt><trkpt lat="44.8134664" lon="10.3420361"><ele>47.0</ele><time>2026-05-04T17:11:29.384Z</time></trkpt><trkpt lat="44.8134585" lon="10.3419273"><ele>47.0</ele><time>2026-05-04T17:11:33.384Z</time></trkpt><trkpt lat="44.8133919" lon="10.3418704"><ele>47.0</ele><time>2026-05-04T17:11:35.383Z</time></trkpt><trkpt lat="44.8133072" lon="10.341814"><ele>47.0</ele><time>2026-05-04T17:11:37.383Z</time></trkpt><trkpt lat="44.813224" lon="10.3417813"><ele>47.0</ele><time>2026-05-04T17:11:39.383Z</time></trkpt><trkpt lat="44.8131353" lon="10.341739"><ele>47.0</ele><time>2026-05-04T17:11:41.383Z</time></trkpt><trkpt lat="44.8130303" lon="10.3416896"><ele>47.0</ele><time>2026-05-04T17:11:43.384Z</time></trkpt><trkpt lat="44.8129193" lon="10.3416546"><ele>47.0</ele><time>2026-05-04T17:11:45.384Z</time></trkpt><trkpt lat="44.8128103" lon="10.3416091"><ele>47.0</ele><time>2026-05-04T17:11:47.384Z</time></trkpt><trkpt lat="44.8126921" lon="10.3415697"><ele>47.0</ele><time>2026-05-04T17:11:49.383Z</time></trkpt><trkpt lat="44.8125804" lon="10.3415165"><ele>47.0</ele><time>2026-05-04T17:11:51.384Z</time></trkpt><trkpt lat="44.8124673" lon="10.3414805"><ele>47.0</ele><time>2026-05-04T17:11:53.383Z</time></trkpt><trkpt lat="44.8123592" lon="10.3414385"><ele>47.0</ele><time>2026-05-04T17:11:55.384Z</time></trkpt><trkpt lat="44.8122571" lon="10.341375"><ele>47.0</ele><time>2026-05-04T17:11:57.383Z</time></trkpt><trkpt lat="44.8121617" lon="10.3413308"><ele>47.0</ele><time>2026-05-04T17:11:59.384Z</time></trkpt><trkpt lat="44.8120845" lon="10.3412752"><ele>47.0</ele><time>2026-05-04T17:12:01.384Z</time></trkpt><trkpt lat="44.8120425" lon="10.3411876"><ele>47.0</ele><time>2026-05-04T17:12:03.384Z</time></trkpt><trkpt lat="44.8120919" lon="10.3410845"><ele>47.0</ele><time>2026-05-04T17:12:05.383Z</time></trkpt><trkpt lat="44.8121147" lon="10.3409761"><ele>47.0</ele><time>2026-05-04T17:12:07.383Z</time></trkpt><trkpt lat="44.812138" lon="10.3408433"><ele>47.0</ele><time>2026-05-04T17:12:09.383Z</time></trkpt><trkpt lat="44.8121514" lon="10.3407061"><ele>47.0</ele><time>2026-05-04T17:12:11.383Z</time></trkpt><trkpt lat="44.8121702" lon="10.3405795"><ele>47.0</ele><time>2026-05-04T17:12:13.383Z</time></trkpt><trkpt lat="44.8122086" lon="10.340453"><ele>47.0</ele><time>2026-05-04T17:12:15.384Z</time></trkpt><trkpt lat="44.812223" lon="10.3403398"><ele>47.0</ele><time>2026-05-04T17:12:17.383Z</time></trkpt><trkpt lat="44.8122571" lon="10.3402194"><ele>47.0</ele><time>2026-05-04T17:12:19.383Z</time></trkpt><trkpt lat="44.8122838" lon="10.340091"><ele>47.0</ele><time>2026-05-04T17:12:21.384Z</time></trkpt><trkpt lat="44.8123039" lon="10.339952"><ele>47.0</ele><time>2026-05-04T17:12:23.383Z</time></trkpt><trkpt lat="44.8123441" lon="10.3398333"><ele>47.400000000000006</ele><time>2026-05-04T17:12:25.383Z</time></trkpt><trkpt lat="44.8123594" lon="10.3397061"><ele>47.800000000000004</ele><time>2026-05-04T17:12:27.384Z</time></trkpt><trkpt lat="44.8123842" lon="10.339577"><ele>48.2</ele><time>2026-05-04T17:12:29.383Z</time></trkpt><trkpt lat="44.8124083" lon="10.3394506"><ele>48.6</ele><time>2026-05-04T17:12:31.383Z</time></trkpt><trkpt lat="44.8124408" lon="10.3393395"><ele>49.0</ele><time>2026-05-04T17:12:33.383Z</time></trkpt><trkpt lat="44.8124775" lon="10.339216"><ele>49.0</ele><time>2026-05-04T17:12:35.383Z</time></trkpt><trkpt lat="44.8125152" lon="10.3390851"><ele>49.0</ele><time>2026-05-04T17:12:37.384Z</time></trkpt><trkpt lat="44.8125294" lon="10.3389346"><ele>49.0</ele><time>2026-05-04T17:12:39.383Z</time></trkpt><trkpt lat="44.8125617" lon="10.3388059"><ele>49.0</ele><time>2026-05-04T17:12:41.384Z</time></trkpt><trkpt lat="44.8125832" lon="10.3386849"><ele>49.0</ele><time>2026-05-04T17:12:43.384Z</time></trkpt><trkpt lat="44.8126124" lon="10.3385577"><ele>49.2</ele><time>2026-05-04T17:12:45.383Z</time></trkpt><trkpt lat="44.8126454" lon="10.338413"><ele>49.400000000000006</ele><time>2026-05-04T17:12:47.384Z</time></trkpt><trkpt lat="44.8126664" lon="10.3382711"><ele>49.6</ele><time>2026-05-04T17:12:49.384Z</time></trkpt><trkpt lat="44.8126955" lon="10.3381292"><ele>49.8</ele><time>2026-05-04T17:12:51.384Z</time></trkpt><trkpt lat="44.8127286" lon="10.3380023"><ele>50.0</ele><time>2026-05-04T17:12:53.384Z</time></trkpt><trkpt lat="44.8127691" lon="10.3378797"><ele>50.0</ele><time>2026-05-04T17:12:55.383Z</time></trkpt><trkpt lat="44.8127956" lon="10.3376912"><ele>50.0</ele><time>2026-05-04T17:12:58.384Z</time></trkpt><trkpt lat="44.8128232" lon="10.3375599"><ele>50.0</ele><time>2026-05-04T17:13:00.384Z</time></trkpt><trkpt lat="44.8128573" lon="10.3374275"><ele>50.0</ele><time>2026-05-04T17:13:02.383Z</time></trkpt><trkpt lat="44.8128996" lon="10.3373145"><ele>50.0</ele><time>2026-05-04T17:13:04.383Z</time></trkpt><trkpt lat="44.8129647" lon="10.3372386"><ele>50.28571428571429</ele><time>2026-05-04T17:13:06.383Z</time></trkpt><trkpt lat="44.8130347" lon="10.3371976"><ele>50.57142857142857</ele><time>2026-05-04T17:13:08.384Z</time></trkpt><trkpt lat="44.8130785" lon="10.3371142"><ele>50.85714285714286</ele><time>2026-05-04T17:13:11.384Z</time></trkpt><trkpt lat="44.8130761" lon="10.3370122"><ele>51.142857142857146</ele><time>2026-05-04T17:13:14.384Z</time></trkpt><trkpt lat="44.8130236" lon="10.3369336"><ele>51.42857142857143</ele><time>2026-05-04T17:13:17.383Z</time></trkpt><trkpt lat="44.8129772" lon="10.3368716"><ele>51.714285714285715</ele><time>2026-05-04T17:13:19.383Z</time></trkpt><trkpt lat="44.8129801" lon="10.3367698"><ele>52.0</ele><time>2026-05-04T17:13:21.384Z</time></trkpt><trkpt lat="44.8130054" lon="10.3366598"><ele>52.0</ele><time>2026-05-04T17:13:23.383Z</time></trkpt><trkpt lat="44.8130384" lon="10.3365355"><ele>52.0</ele><time>2026-05-04T17:13:25.384Z</time></trkpt><trkpt lat="44.8130653" lon="10.3364139"><ele>52.0</ele><time>2026-05-04T17:13:27.383Z</time></trkpt><trkpt lat="44.8130903" lon="10.3362769"><ele>52.0</ele><time>2026-05-04T17:13:29.383Z</time></trkpt><trkpt lat="44.8131163" lon="10.3361619"><ele>52.0</ele><time>2026-05-04T17:13:31.383Z</time></trkpt><trkpt lat="44.8131448" lon="10.3360542"><ele>51.83333333333333</ele><time>2026-05-04T17:13:33.383Z</time></trkpt><trkpt lat="44.8131747" lon="10.3359626"><ele>51.666666666666664</ele><time>2026-05-04T17:13:35.384Z</time></trkpt><trkpt lat="44.8131921" lon="10.3358705"><ele>51.5</ele><time>2026-05-04T17:13:37.384Z</time></trkpt><trkpt lat="44.8132157" lon="10.3357595"><ele>51.33333333333333</ele><time>2026-05-04T17:13:39.383Z</time></trkpt><trkpt lat="44.8132333" lon="10.3356445"><ele>51.166666666666664</ele><time>2026-05-04T17:13:41.384Z</time></trkpt><trkpt lat="44.8132661" lon="10.3355243"><ele>51.0</ele><time>2026-05-04T17:13:43.384Z</time></trkpt><trkpt lat="44.8132924" lon="10.3353892"><ele>51.0</ele><time>2026-05-04T17:13:45.384Z</time></trkpt><trkpt lat="44.8133228" lon="10.3352467"><ele>51.0</ele><time>2026-05-04T17:13:47.384Z</time></trkpt><trkpt lat="44.8133664" lon="10.3351057"><ele>51.0</ele><time>2026-05-04T17:13:49.383Z</time></trkpt><trkpt lat="44.8133837" lon="10.3349476"><ele>51.0</ele><time>2026-05-04T17:13:51.384Z</time></trkpt><trkpt lat="44.8134053" lon="10.3347978"><ele>51.0</ele><time>2026-05-04T17:13:53.384Z</time></trkpt><trkpt lat="44.8134323" lon="10.334661"><ele>51.0</ele><time>2026-05-04T17:13:55.384Z</time></trkpt><trkpt lat="44.8134642" lon="10.3345381"><ele>51.0</ele><time>2026-05-04T17:13:57.384Z</time></trkpt><trkpt lat="44.8134955" lon="10.3344262"><ele>51.0</ele><time>2026-05-04T17:13:59.384Z</time></trkpt><trkpt lat="44.8135195" lon="10.33428"><ele>51.0</ele><time>2026-05-04T17:14:01.384Z</time></trkpt><trkpt lat="44.8135498" lon="10.3341711"><ele>51.0</ele><time>2026-05-04T17:14:03.384Z</time></trkpt><trkpt lat="44.8135755" lon="10.3340674"><ele>51.0</ele><time>2026-05-04T17:14:05.384Z</time></trkpt><trkpt lat="44.8136033" lon="10.3339583"><ele>51.599999999999994</ele><time>2026-05-04T17:14:07.383Z</time></trkpt><trkpt lat="44.8136331" lon="10.3338341"><ele>52.2</ele><time>2026-05-04T17:14:09.383Z</time></trkpt><trkpt lat="44.8136637" lon="10.3337005"><ele>52.800000000000004</ele><time>2026-05-04T17:14:11.383Z</time></trkpt><trkpt lat="44.8137028" lon="10.3335842"><ele>53.400000000000006</ele><time>2026-05-04T17:14:13.384Z</time></trkpt><trkpt lat="44.8137243" lon="10.3334533"><ele>54.0</ele><time>2026-05-04T17:14:15.384Z</time></trkpt><trkpt lat="44.8137509" lon="10.3333152"><ele>54.0</ele><time>2026-05-04T17:14:17.383Z</time></trkpt><trkpt lat="44.8137705" lon="10.3331573"><ele>54.00000000000001</ele><time>2026-05-04T17:14:19.384Z</time></trkpt><trkpt lat="44.8137957" lon="10.3330227"><ele>54.00000000000001</ele><time>2026-05-04T17:14:21.383Z</time></trkpt><trkpt lat="44.8138148" lon="10.3328755"><ele>54.0</ele><time>2026-05-04T17:14:23.384Z</time></trkpt><trkpt lat="44.8138496" lon="10.3327184"><ele>54.0</ele><time>2026-05-04T17:14:25.384Z</time></trkpt><trkpt lat="44.8138771" lon="10.3325768"><ele>53.833333333333336</ele><time>2026-05-04T17:14:27.383Z</time></trkpt><trkpt lat="44.8138915" lon="10.3324388"><ele>53.66666666666667</ele><time>2026-05-04T17:14:29.384Z</time></trkpt><trkpt lat="44.8139188" lon="10.3322912"><ele>53.5</ele><time>2026-05-04T17:14:31.383Z</time></trkpt><trkpt lat="44.813949" lon="10.3322049"><ele>53.333333333333336</ele><time>2026-05-04T17:14:32.383Z</time></trkpt><trkpt lat="44.8139769" lon="10.3320922"><ele>53.16666666666667</ele><time>2026-05-04T17:14:34.383Z</time></trkpt><trkpt lat="44.8139683" lon="10.3319705"><ele>53.0</ele><time>2026-05-04T17:14:36.384Z</time></trkpt><trkpt lat="44.8139881" lon="10.3318499"><ele>53.00000000000001</ele><time>2026-05-04T17:14:38.384Z</time></trkpt><trkpt lat="44.8140249" lon="10.3317265"><ele>53.0</ele><time>2026-05-04T17:14:40.383Z</time></trkpt><trkpt lat="44.8140564" lon="10.3316082"><ele>53.0</ele><time>2026-05-04T17:14:42.384Z</time></trkpt><trkpt lat="44.8140703" lon="10.3315098"><ele>53.0</ele><time>2026-05-04T17:14:44.384Z</time></trkpt><trkpt lat="44.8141062" lon="10.3313826"><ele>53.00000000000001</ele><time>2026-05-04T17:14:47.384Z</time></trkpt><trkpt lat="44.8140858" lon="10.331286"><ele>53.0</ele><time>2026-05-04T17:14:50.384Z</time></trkpt><trkpt lat="44.8140218" lon="10.3312616"><ele>53.00000000000001</ele><time>2026-05-04T17:14:52.383Z</time></trkpt><trkpt lat="44.8139289" lon="10.3312453"><ele>53.0</ele><time>2026-05-04T17:14:55.383Z</time></trkpt><trkpt lat="44.8138563" lon="10.331233"><ele>53.0</ele><time>2026-05-04T17:14:57.383Z</time></trkpt><trkpt lat="44.8137647" lon="10.3312327"><ele>53.0</ele><time>2026-05-04T17:14:59.383Z</time></trkpt><trkpt lat="44.8136766" lon="10.3312734"><ele>53.00000000000001</ele><time>2026-05-04T17:15:01.383Z</time></trkpt><trkpt lat="44.8136141" lon="10.3312349"><ele>53.0</ele><time>2026-05-04T17:15:03.384Z</time></trkpt><trkpt lat="44.813541" lon="10.3312399"><ele>53.599999999999994</ele><time>2026-05-04T17:15:06.383Z</time></trkpt><trkpt lat="44.8134698" lon="10.3311914"><ele>54.199999999999996</ele><time>2026-05-04T17:15:08.383Z</time></trkpt><trkpt lat="44.8133924" lon="10.33116"><ele>54.8</ele><time>2026-05-04T17:15:10.383Z</time></trkpt><trkpt lat="44.8132358" lon="10.3312234"><ele>55.4</ele><time>2026-05-04T17:15:13.383Z</time></trkpt><trkpt lat="44.8131637" lon="10.3311662"><ele>56.0</ele><time>2026-05-04T17:15:15.384Z</time></trkpt><trkpt lat="44.8131" lon="10.3311354"><ele>56.00000000000001</ele><time>2026-05-04T17:15:17.384Z</time></trkpt><trkpt lat="44.8130072" lon="10.3310945"><ele>56.0</ele><time>2026-05-04T17:15:20.383Z</time></trkpt><trkpt lat="44.8129252" lon="10.3311035"><ele>56.0</ele><time>2026-05-04T17:15:22.384Z</time></trkpt><trkpt lat="44.8128549" lon="10.3310894"><ele>56.0</ele><time>2026-05-04T17:15:27.384Z</time></trkpt><trkpt lat="44.8127853" lon="10.3310663"><ele>56.00000000000001</ele><time>2026-05-04T17:15:29.384Z</time></trkpt><trkpt lat="44.8127101" lon="10.3310237"><ele>56.0</ele><time>2026-05-04T17:15:32.384Z</time></trkpt><trkpt lat="44.8126154" lon="10.3310012"><ele>55.8</ele><time>2026-05-04T17:15:35.384Z</time></trkpt><trkpt lat="44.8125361" lon="10.3309934"><ele>55.599999999999994</ele><time>2026-05-04T17:15:37.383Z</time></trkpt><trkpt lat="44.812427" lon="10.3309502"><ele>55.4</ele><time>2026-05-04T17:15:40.384Z</time></trkpt><trkpt lat="44.8123126" lon="10.3309302"><ele>55.2</ele><time>2026-05-04T17:15:42.383Z</time></trkpt><trkpt lat="44.8122317" lon="10.3308982"><ele>55.0</ele><time>2026-05-04T17:15:44.384Z</time></trkpt><trkpt lat="44.8121176" lon="10.3309078"><ele>55.0</ele><time>2026-05-04T17:15:46.383Z</time></trkpt><trkpt lat="44.8120348" lon="10.330885"><ele>55.0</ele><time>2026-05-04T17:15:48.384Z</time></trkpt><trkpt lat="44.8119216" lon="10.3308793"><ele>55.0</ele><time>2026-05-04T17:15:50.383Z</time></trkpt><trkpt lat="44.8118312" lon="10.3308635"><ele>55.0</ele><time>2026-05-04T17:15:52.384Z</time></trkpt><trkpt lat="44.8117284" lon="10.3308281"><ele>55.0</ele><time>2026-05-04T17:15:54.383Z</time></trkpt><trkpt lat="44.8116281" lon="10.3308133"><ele>54.6</ele><time>2026-05-04T17:15:56.383Z</time></trkpt><trkpt lat="44.8115215" lon="10.3308009"><ele>54.2</ele><time>2026-05-04T17:15:58.383Z</time></trkpt><trkpt lat="44.8114335" lon="10.3307849"><ele>53.8</ele><time>2026-05-04T17:16:00.384Z</time></trkpt><trkpt lat="44.8113328" lon="10.330758"><ele>53.4</ele><time>2026-05-04T17:16:02.384Z</time></trkpt><trkpt lat="44.8112166" lon="10.3307551"><ele>53.0</ele><time>2026-05-04T17:16:04.384Z</time></trkpt><trkpt lat="44.8111292" lon="10.3307285"><ele>53.0</ele><time>2026-05-04T17:16:06.383Z</time></trkpt><trkpt lat="44.8110468" lon="10.3306819"><ele>53.0</ele><time>2026-05-04T17:16:08.383Z</time></trkpt><trkpt lat="44.8109625" lon="10.3306547"><ele>53.0</ele><time>2026-05-04T17:16:10.383Z</time></trkpt><trkpt lat="44.8108666" lon="10.3306414"><ele>53.0</ele><time>2026-05-04T17:16:12.383Z</time></trkpt><trkpt lat="44.8107731" lon="10.3306304"><ele>53.0</ele><time>2026-05-04T17:16:14.383Z</time></trkpt><trkpt lat="44.8106815" lon="10.3306114"><ele>53.0</ele><time>2026-05-04T17:16:16.383Z</time></trkpt><trkpt lat="44.8105762" lon="10.3305928"><ele>53.0</ele><time>2026-05-04T17:16:18.384Z</time></trkpt><trkpt lat="44.8104775" lon="10.3305412"><ele>53.0</ele><time>2026-05-04T17:16:21.384Z</time></trkpt><trkpt lat="44.8103709" lon="10.3305046"><ele>53.0</ele><time>2026-05-04T17:16:23.383Z</time></trkpt><trkpt lat="44.8103004" lon="10.3304135"><ele>53.0</ele><time>2026-05-04T17:16:25.384Z</time></trkpt><trkpt lat="44.8102652" lon="10.3303351"><ele>53.50000000000001</ele><time>2026-05-04T17:16:27.383Z</time></trkpt><trkpt lat="44.8102" lon="10.3303379"><ele>54.0</ele><time>2026-05-04T17:16:28.383Z</time></trkpt><trkpt lat="44.8100886" lon="10.3303579"><ele>54.5</ele><time>2026-05-04T17:16:30.383Z</time></trkpt><trkpt lat="44.8100206" lon="10.3303412"><ele>55.0</ele><time>2026-05-04T17:16:32.383Z</time></trkpt><trkpt lat="44.8099424" lon="10.3303311"><ele>55.50000000000001</ele><time>2026-05-04T17:16:34.383Z</time></trkpt><trkpt lat="44.8098261" lon="10.3303161"><ele>56.0</ele><time>2026-05-04T17:16:37.383Z</time></trkpt><trkpt lat="44.8096864" lon="10.3302562"><ele>56.0</ele><time>2026-05-04T17:16:38.384Z</time></trkpt><trkpt lat="44.8095166" lon="10.330183"><ele>56.0</ele><time>2026-05-04T17:16:39.384Z</time></trkpt><trkpt lat="44.809503" lon="10.3300424"><ele>56.0</ele><time>2026-05-04T17:16:40.384Z</time></trkpt><trkpt lat="44.8095251" lon="10.3302045"><ele>56.0</ele><time>2026-05-04T17:16:41.383Z</time></trkpt><trkpt lat="44.809468" lon="10.330243"><ele>56.00000000000001</ele><time>2026-05-04T17:16:42.384Z</time></trkpt><trkpt lat="44.8093769" lon="10.3302327"><ele>56.0</ele><time>2026-05-04T17:16:45.383Z</time></trkpt><trkpt lat="44.8093159" lon="10.3301463"><ele>56.0</ele><time>2026-05-04T17:16:48.383Z</time></trkpt><trkpt lat="44.8092942" lon="10.3300568"><ele>56.0</ele><time>2026-05-04T17:16:50.383Z</time></trkpt><trkpt lat="44.809254" lon="10.3299577"><ele>56.00000000000001</ele><time>2026-05-04T17:16:52.384Z</time></trkpt><trkpt lat="44.8092019" lon="10.3298791"><ele>56.0</ele><time>2026-05-04T17:16:54.384Z</time></trkpt><trkpt lat="44.8090957" lon="10.3298818"><ele>57.199999999999996</ele><time>2026-05-04T17:16:56.383Z</time></trkpt><trkpt lat="44.8090147" lon="10.3299103"><ele>58.39999999999999</ele><time>2026-05-04T17:16:58.384Z</time></trkpt><trkpt lat="44.8089254" lon="10.329893"><ele>59.6</ele><time>2026-05-04T17:17:00.383Z</time></trkpt><trkpt lat="44.8087675" lon="10.3298679"><ele>60.8</ele><time>2026-05-04T17:17:03.383Z</time></trkpt><trkpt lat="44.8086835" lon="10.3298553"><ele>62.0</ele><time>2026-05-04T17:17:05.384Z</time></trkpt><trkpt lat="44.80862" lon="10.329821"><ele>62.0</ele><time>2026-05-04T17:17:07.383Z</time></trkpt><trkpt lat="44.8085832" lon="10.3297268"><ele>62.00000000000001</ele><time>2026-05-04T17:17:11.384Z</time></trkpt><trkpt lat="44.8085519" lon="10.3296424"><ele>62.0</ele><time>2026-05-04T17:17:58.384Z</time></trkpt><trkpt lat="44.8084889" lon="10.3296285"><ele>62.0</ele><time>2026-05-04T17:18:01.384Z</time></trkpt><trkpt lat="44.808418" lon="10.3295907"><ele>62.00000000000001</ele><time>2026-05-04T17:18:04.383Z</time></trkpt><trkpt lat="44.8084102" lon="10.3295002"><ele>62.0</ele><time>2026-05-04T17:18:07.384Z</time></trkpt><trkpt lat="44.8084196" lon="10.3294101"><ele>62.0</ele><time>2026-05-04T17:18:09.384Z</time></trkpt><trkpt lat="44.8084705" lon="10.329267"><ele>61.85714285714286</ele><time>2026-05-04T17:18:12.384Z</time></trkpt><trkpt lat="44.8084888" lon="10.3291619"><ele>61.71428571428572</ele><time>2026-05-04T17:18:14.383Z</time></trkpt><trkpt lat="44.8085078" lon="10.3290756"><ele>61.57142857142857</ele><time>2026-05-04T17:18:16.384Z</time></trkpt><trkpt lat="44.8085311" lon="10.3289793"><ele>61.42857142857143</ele><time>2026-05-04T17:18:18.384Z</time></trkpt><trkpt lat="44.8085867" lon="10.3288622"><ele>61.285714285714285</ele><time>2026-05-04T17:18:21.383Z</time></trkpt><trkpt lat="44.8086394" lon="10.3288117"><ele>61.14285714285714</ele><time>2026-05-04T17:18:23.383Z</time></trkpt><trkpt lat="44.8086842" lon="10.3287429"><ele>60.99999999999999</ele><time>2026-05-04T17:18:25.383Z</time></trkpt><trkpt lat="44.8086821" lon="10.3286118"><ele>60.83333333333333</ele><time>2026-05-04T17:18:28.383Z</time></trkpt><trkpt lat="44.8086903" lon="10.3285195"><ele>60.666666666666664</ele><time>2026-05-04T17:18:30.383Z</time></trkpt><trkpt lat="44.8086912" lon="10.3283992"><ele>60.5</ele><time>2026-05-04T17:18:32.384Z</time></trkpt><trkpt lat="44.8087168" lon="10.3283057"><ele>60.33333333333333</ele><time>2026-05-04T17:18:34.383Z</time></trkpt><trkpt lat="44.8087492" lon="10.3282207"><ele>60.166666666666664</ele><time>2026-05-04T17:18:36.383Z</time></trkpt><trkpt lat="44.808764" lon="10.3281039"><ele>60.0</ele><time>2026-05-04T17:18:38.384Z</time></trkpt><trkpt lat="44.8087472" lon="10.3279578"><ele>60.0</ele><time>2026-05-04T17:18:40.383Z</time></trkpt><trkpt lat="44.8087291" lon="10.3278091"><ele>60.0</ele><time>2026-05-04T17:18:42.383Z</time></trkpt><trkpt lat="44.808722" lon="10.3276679"><ele>60.0</ele><time>2026-05-04T17:18:44.384Z</time></trkpt><trkpt lat="44.8087237" lon="10.3275436"><ele>60.0</ele><time>2026-05-04T17:18:46.384Z</time></trkpt><trkpt lat="44.8087269" lon="10.3274548"><ele>60.0</ele><time>2026-05-04T17:18:48.384Z</time></trkpt><trkpt lat="44.8087149" lon="10.327359"><ele>60.0</ele><time>2026-05-04T17:18:52.383Z</time></trkpt><trkpt lat="44.8086455" lon="10.3273316"><ele>60.0</ele><time>2026-05-04T17:18:54.384Z</time></trkpt><trkpt lat="44.80856" lon="10.3273131"><ele>60.0</ele><time>2026-05-04T17:18:56.383Z</time></trkpt><trkpt lat="44.8084711" lon="10.327279"><ele>60.0</ele><time>2026-05-04T17:18:58.384Z</time></trkpt><trkpt lat="44.8083879" lon="10.3272517"><ele>60.0</ele><time>2026-05-04T17:18:59.384Z</time></trkpt><trkpt lat="44.808289" lon="10.327183"><ele>60.0</ele><time>2026-05-04T17:19:01.384Z</time></trkpt><trkpt lat="44.8082408" lon="10.3271083"><ele>60.0</ele><time>2026-05-04T17:19:03.383Z</time></trkpt><trkpt lat="44.8082007" lon="10.3270382"><ele>60.2</ele><time>2026-05-04T17:19:05.384Z</time></trkpt><trkpt lat="44.8080914" lon="10.3269889"><ele>60.4</ele><time>2026-05-04T17:19:07.384Z</time></trkpt><trkpt lat="44.8080153" lon="10.3269368"><ele>60.599999999999994</ele><time>2026-05-04T17:19:09.383Z</time></trkpt><trkpt lat="44.8079175" lon="10.3268815"><ele>60.8</ele><time>2026-05-04T17:19:11.383Z</time></trkpt><trkpt lat="44.807842" lon="10.3268261"><ele>61.0</ele><time>2026-05-04T17:19:13.384Z</time></trkpt><trkpt lat="44.8077666" lon="10.3268046"><ele>61.0</ele><time>2026-05-04T17:19:15.383Z</time></trkpt><trkpt lat="44.8076736" lon="10.3267621"><ele>60.99999999999999</ele><time>2026-05-04T17:19:17.384Z</time></trkpt><trkpt lat="44.8075781" lon="10.3267083"><ele>60.99999999999999</ele><time>2026-05-04T17:19:19.384Z</time></trkpt><trkpt lat="44.8074836" lon="10.3266802"><ele>61.0</ele><time>2026-05-04T17:19:21.384Z</time></trkpt><trkpt lat="44.8074247" lon="10.3266472"><ele>61.0</ele><time>2026-05-04T17:19:22.384Z</time></trkpt><trkpt lat="44.8073289" lon="10.3265839"><ele>61.199999999999996</ele><time>2026-05-04T17:19:24.383Z</time></trkpt><trkpt lat="44.807234" lon="10.3265167"><ele>61.39999999999999</ele><time>2026-05-04T17:19:26.384Z</time></trkpt><trkpt lat="44.8071397" lon="10.3264618"><ele>61.6</ele><time>2026-05-04T17:19:28.383Z</time></trkpt><trkpt lat="44.8070383" lon="10.3264003"><ele>61.8</ele><time>2026-05-04T17:19:30.383Z</time></trkpt><trkpt lat="44.8069423" lon="10.326345"><ele>62.0</ele><time>2026-05-04T17:19:32.383Z</time></trkpt><trkpt lat="44.8068467" lon="10.3262918"><ele>61.2</ele><time>2026-05-04T17:19:34.383Z</time></trkpt><trkpt lat="44.8067413" lon="10.3262373"><ele>60.400000000000006</ele><time>2026-05-04T17:19:36.383Z</time></trkpt><trkpt lat="44.8066179" lon="10.3262323"><ele>59.599999999999994</ele><time>2026-05-04T17:19:38.384Z</time></trkpt><trkpt lat="44.8065261" lon="10.3262418"><ele>58.8</ele><time>2026-05-04T17:19:40.383Z</time></trkpt><trkpt lat="44.8064802" lon="10.3261461"><ele>58.0</ele><time>2026-05-04T17:19:42.383Z</time></trkpt><trkpt lat="44.8064187" lon="10.326079"><ele>58.0</ele><time>2026-05-04T17:19:44.383Z</time></trkpt><trkpt lat="44.8063288" lon="10.3260315"><ele>58.0</ele><time>2026-05-04T17:19:46.383Z</time></trkpt><trkpt lat="44.8062406" lon="10.3260052"><ele>58.0</ele><time>2026-05-04T17:19:48.383Z</time></trkpt><trkpt lat="44.8061436" lon="10.3259342"><ele>58.0</ele><time>2026-05-04T17:19:50.384Z</time></trkpt><trkpt lat="44.8060481" lon="10.3258691"><ele>58.0</ele><time>2026-05-04T17:19:52.384Z</time></trkpt><trkpt lat="44.8059685" lon="10.3258119"><ele>58.33333333333333</ele><time>2026-05-04T17:19:54.383Z</time></trkpt><trkpt lat="44.8058853" lon="10.3257801"><ele>58.666666666666664</ele><time>2026-05-04T17:19:56.383Z</time></trkpt><trkpt lat="44.8057891" lon="10.3257366"><ele>59.0</ele><time>2026-05-04T17:19:58.384Z</time></trkpt><trkpt lat="44.8057114" lon="10.3256932"><ele>59.33333333333333</ele><time>2026-05-04T17:20:00.383Z</time></trkpt><trkpt lat="44.8056275" lon="10.3256436"><ele>59.666666666666664</ele><time>2026-05-04T17:20:02.383Z</time></trkpt><trkpt lat="44.8055569" lon="10.3255967"><ele>60.0</ele><time>2026-05-04T17:20:04.383Z</time></trkpt><trkpt lat="44.8054712" lon="10.3255662"><ele>59.666666666666664</ele><time>2026-05-04T17:20:06.384Z</time></trkpt><trkpt lat="44.8053956" lon="10.3255165"><ele>59.33333333333333</ele><time>2026-05-04T17:20:08.383Z</time></trkpt><trkpt lat="44.8053278" lon="10.3254577"><ele>59.0</ele><time>2026-05-04T17:20:10.384Z</time></trkpt><trkpt lat="44.8052542" lon="10.3254246"><ele>58.666666666666664</ele><time>2026-05-04T17:20:12.384Z</time></trkpt><trkpt lat="44.8051768" lon="10.3253847"><ele>58.33333333333333</ele><time>2026-05-04T17:20:14.383Z</time></trkpt><trkpt lat="44.805105" lon="10.3253347"><ele>58.0</ele><time>2026-05-04T17:20:16.383Z</time></trkpt><trkpt lat="44.8050223" lon="10.3252793"><ele>57.99999999999999</ele><time>2026-05-04T17:20:19.383Z</time></trkpt><trkpt lat="44.8049807" lon="10.3251736"><ele>58.0</ele><time>2026-05-04T17:20:22.384Z</time></trkpt><trkpt lat="44.8050218" lon="10.325072"><ele>58.0</ele><time>2026-05-04T17:20:25.384Z</time></trkpt><trkpt lat="44.8050958" lon="10.3250158"><ele>58.0</ele><time>2026-05-04T17:20:29.383Z</time></trkpt><trkpt lat="44.8051785" lon="10.3250339"><ele>57.99999999999999</ele><time>2026-05-04T17:20:32.384Z</time></trkpt><trkpt lat="44.805255" lon="10.3250308"><ele>58.0</ele><time>2026-05-04T17:20:35.384Z</time></trkpt><trkpt lat="44.8052988" lon="10.3249238"><ele>58.14285714285715</ele><time>2026-05-04T17:20:38.384Z</time></trkpt><trkpt lat="44.805328" lon="10.3248374"><ele>58.28571428571429</ele><time>2026-05-04T17:20:40.384Z</time></trkpt><trkpt lat="44.805361" lon="10.324749"><ele>58.42857142857143</ele><time>2026-05-04T17:20:42.383Z</time></trkpt><trkpt lat="44.8053917" lon="10.324662"><ele>58.57142857142858</ele><time>2026-05-04T17:20:44.383Z</time></trkpt><trkpt lat="44.8054189" lon="10.3245813"><ele>58.71428571428572</ele><time>2026-05-04T17:20:46.383Z</time></trkpt><trkpt lat="44.8054516" lon="10.3244918"><ele>58.857142857142854</ele><time>2026-05-04T17:20:49.383Z</time></trkpt><trkpt lat="44.8054956" lon="10.3243949"><ele>59.0</ele><time>2026-05-04T17:20:55.384Z</time></trkpt><trkpt lat="44.8055364" lon="10.3242903"><ele>59.0</ele><time>2026-05-04T17:20:58.384Z</time></trkpt><trkpt lat="44.8055632" lon="10.324208"><ele>59.0</ele><time>2026-05-04T17:21:00.384Z</time></trkpt><trkpt lat="44.8055916" lon="10.3241266"><ele>59.0</ele><time>2026-05-04T17:21:02.383Z</time></trkpt><trkpt lat="44.8056327" lon="10.3240117"><ele>59.0</ele><time>2026-05-04T17:21:05.384Z</time></trkpt><trkpt lat="44.8056702" lon="10.3239348"><ele>59.0</ele><time>2026-05-04T17:21:07.383Z</time></trkpt><trkpt lat="44.8057154" lon="10.3238622"><ele>59.0</ele><time>2026-05-04T17:21:09.384Z</time></trkpt><trkpt lat="44.8057491" lon="10.3237841"><ele>59.0</ele><time>2026-05-04T17:21:11.383Z</time></trkpt><trkpt lat="44.8057832" lon="10.3236907"><ele>59.6</ele><time>2026-05-04T17:21:13.383Z</time></trkpt><trkpt lat="44.8058293" lon="10.3235739"><ele>60.2</ele><time>2026-05-04T17:21:15.383Z</time></trkpt><trkpt lat="44.8058761" lon="10.3234606"><ele>60.800000000000004</ele><time>2026-05-04T17:21:17.383Z</time></trkpt><trkpt lat="44.8059076" lon="10.3233477"><ele>61.400000000000006</ele><time>2026-05-04T17:21:19.383Z</time></trkpt><trkpt lat="44.8059697" lon="10.3232159"><ele>62.0</ele><time>2026-05-04T17:21:21.383Z</time></trkpt><trkpt lat="44.8060231" lon="10.323119"><ele>61.833333333333336</ele><time>2026-05-04T17:21:23.384Z</time></trkpt><trkpt lat="44.8060447" lon="10.3230238"><ele>61.66666666666667</ele><time>2026-05-04T17:21:25.383Z</time></trkpt><trkpt lat="44.8060215" lon="10.3229344"><ele>61.5</ele><time>2026-05-04T17:21:27.384Z</time></trkpt><trkpt lat="44.8059393" lon="10.3229351"><ele>61.33333333333333</ele><time>2026-05-04T17:21:29.384Z</time></trkpt><trkpt lat="44.8058515" lon="10.3229414"><ele>61.166666666666664</ele><time>2026-05-04T17:21:31.384Z</time></trkpt><trkpt lat="44.8057334" lon="10.3229661"><ele>61.0</ele><time>2026-05-04T17:21:33.384Z</time></trkpt><trkpt lat="44.8056445" lon="10.3229673"><ele>62.0</ele><time>2026-05-04T17:21:35.383Z</time></trkpt><trkpt lat="44.8055401" lon="10.3230053"><ele>62.99999999999999</ele><time>2026-05-04T17:21:37.384Z</time></trkpt><trkpt lat="44.8054439" lon="10.3230547"><ele>63.99999999999999</ele><time>2026-05-04T17:21:39.384Z</time></trkpt><trkpt lat="44.8053522" lon="10.3230654"><ele>65.0</ele><time>2026-05-04T17:21:41.383Z</time></trkpt><trkpt lat="44.8052608" lon="10.3230843"><ele>66.0</ele><time>2026-05-04T17:21:43.383Z</time></trkpt><trkpt lat="44.8051886" lon="10.3231105"><ele>65.16666666666667</ele><time>2026-05-04T17:21:44.383Z</time></trkpt><trkpt lat="44.805094" lon="10.3231442"><ele>64.33333333333333</ele><time>2026-05-04T17:21:46.384Z</time></trkpt><trkpt lat="44.8050158" lon="10.3231547"><ele>63.5</ele><time>2026-05-04T17:21:48.383Z</time></trkpt><trkpt lat="44.8049275" lon="10.3231665"><ele>62.666666666666664</ele><time>2026-05-04T17:21:50.383Z</time></trkpt><trkpt lat="44.8048486" lon="10.3232035"><ele>61.83333333333333</ele><time>2026-05-04T17:21:53.384Z</time></trkpt><trkpt lat="44.8047858" lon="10.3232262"><ele>61.0</ele><time>2026-05-04T17:21:55.383Z</time></trkpt><trkpt lat="44.8047093" lon="10.3232557"><ele>60.99999999999999</ele><time>2026-05-04T17:21:57.383Z</time></trkpt><trkpt lat="44.8046329" lon="10.3232631"><ele>61.0</ele><time>2026-05-04T17:21:59.383Z</time></trkpt><trkpt lat="44.804562" lon="10.3232613"><ele>61.0</ele><time>2026-05-04T17:22:01.384Z</time></trkpt><trkpt lat="44.8044906" lon="10.3232709"><ele>61.0</ele><time>2026-05-04T17:22:03.383Z</time></trkpt><trkpt lat="44.8044098" lon="10.3232973"><ele>60.99999999999999</ele><time>2026-05-04T17:22:05.383Z</time></trkpt><trkpt lat="44.8043403" lon="10.3233261"><ele>61.0</ele><time>2026-05-04T17:22:07.384Z</time></trkpt><trkpt lat="44.8042609" lon="10.3233438"><ele>60.33333333333333</ele><time>2026-05-04T17:22:10.383Z</time></trkpt><trkpt lat="44.8042025" lon="10.3233829"><ele>59.666666666666664</ele><time>2026-05-04T17:22:12.384Z</time></trkpt><trkpt lat="44.8041187" lon="10.3233986"><ele>59.0</ele><time>2026-05-04T17:22:14.384Z</time></trkpt><trkpt lat="44.804028" lon="10.3233869"><ele>58.33333333333333</ele><time>2026-05-04T17:22:16.383Z</time></trkpt><trkpt lat="44.8039251" lon="10.3233767"><ele>57.666666666666664</ele><time>2026-05-04T17:22:18.384Z</time></trkpt><trkpt lat="44.8038272" lon="10.3233652"><ele>57.0</ele><time>2026-05-04T17:22:20.384Z</time></trkpt><trkpt lat="44.8037309" lon="10.3233465"><ele>57.0</ele><time>2026-05-04T17:22:22.384Z</time></trkpt><trkpt lat="44.8036113" lon="10.3233531"><ele>57.0</ele><time>2026-05-04T17:22:25.384Z</time></trkpt><trkpt lat="44.8035492" lon="10.3233289"><ele>57.0</ele><time>2026-05-04T17:22:27.383Z</time></trkpt><trkpt lat="44.8033206" lon="10.3233048"><ele>57.0</ele><time>2026-05-04T17:22:33.383Z</time></trkpt><trkpt lat="44.8032325" lon="10.3232828"><ele>57.166666666666664</ele><time>2026-05-04T17:22:35.383Z</time></trkpt><trkpt lat="44.803171" lon="10.3232147"><ele>57.33333333333333</ele><time>2026-05-04T17:22:37.383Z</time></trkpt><trkpt lat="44.8030888" lon="10.3231495"><ele>57.5</ele><time>2026-05-04T17:22:39.383Z</time></trkpt><trkpt lat="44.8030112" lon="10.3230986"><ele>57.666666666666664</ele><time>2026-05-04T17:22:41.384Z</time></trkpt><trkpt lat="44.8029206" lon="10.3230786"><ele>57.83333333333333</ele><time>2026-05-04T17:22:43.384Z</time></trkpt><trkpt lat="44.8028426" lon="10.3230193"><ele>58.0</ele><time>2026-05-04T17:22:45.384Z</time></trkpt><trkpt lat="44.8027608" lon="10.3229906"><ele>58.33333333333333</ele><time>2026-05-04T17:22:47.384Z</time></trkpt><trkpt lat="44.8026958" lon="10.3229497"><ele>58.666666666666664</ele><time>2026-05-04T17:22:49.384Z</time></trkpt><trkpt lat="44.8026339" lon="10.3229261"><ele>59.0</ele><time>2026-05-04T17:22:51.384Z</time></trkpt><trkpt lat="44.8025556" lon="10.3228993"><ele>59.33333333333333</ele><time>2026-05-04T17:22:54.384Z</time></trkpt><trkpt lat="44.8024855" lon="10.3228232"><ele>59.666666666666664</ele><time>2026-05-04T17:22:58.384Z</time></trkpt><trkpt lat="44.8024275" lon="10.3227409"><ele>60.0</ele><time>2026-05-04T17:23:00.383Z</time></trkpt><trkpt lat="44.802324" lon="10.3226979"><ele>60.4</ele><time>2026-05-04T17:23:02.383Z</time></trkpt><trkpt lat="44.8022395" lon="10.3226414"><ele>60.8</ele><time>2026-05-04T17:23:04.384Z</time></trkpt><trkpt lat="44.8021526" lon="10.3225791"><ele>61.2</ele><time>2026-05-04T17:23:06.384Z</time></trkpt><trkpt lat="44.8020708" lon="10.3225199"><ele>61.6</ele><time>2026-05-04T17:23:08.384Z</time></trkpt><trkpt lat="44.8020063" lon="10.3224211"><ele>62.0</ele><time>2026-05-04T17:23:10.384Z</time></trkpt><trkpt lat="44.8019265" lon="10.3223845"><ele>62.0</ele><time>2026-05-04T17:23:12.384Z</time></trkpt><trkpt lat="44.8018503" lon="10.322353"><ele>62.0</ele><time>2026-05-04T17:23:13.383Z</time></trkpt><trkpt lat="44.8017284" lon="10.3223432"><ele>62.0</ele><time>2026-05-04T17:23:14.384Z</time></trkpt><trkpt lat="44.8016426" lon="10.3222891"><ele>62.0</ele><time>2026-05-04T17:23:16.383Z</time></trkpt><trkpt lat="44.8015445" lon="10.3222313"><ele>62.0</ele><time>2026-05-04T17:23:18.384Z</time></trkpt><trkpt lat="44.8015167" lon="10.3221441"><ele>62.2</ele><time>2026-05-04T17:23:20.383Z</time></trkpt><trkpt lat="44.8014634" lon="10.3220744"><ele>62.400000000000006</ele><time>2026-05-04T17:23:23.384Z</time></trkpt><trkpt lat="44.8013463" lon="10.3221242"><ele>62.599999999999994</ele><time>2026-05-04T17:23:24.383Z</time></trkpt><trkpt lat="44.8012723" lon="10.3221309"><ele>62.8</ele><time>2026-05-04T17:23:25.383Z</time></trkpt><trkpt lat="44.8012023" lon="10.3221356"><ele>63.0</ele><time>2026-05-04T17:23:26.383Z</time></trkpt><trkpt lat="44.8010739" lon="10.3220934"><ele>63.0</ele><time>2026-05-04T17:23:28.384Z</time></trkpt><trkpt lat="44.8010053" lon="10.3220587"><ele>63.0</ele><time>2026-05-04T17:23:29.383Z</time></trkpt><trkpt lat="44.8009459" lon="10.3220049"><ele>63.0</ele><time>2026-05-04T17:23:30.384Z</time></trkpt><trkpt lat="44.8008723" lon="10.321964"><ele>63.0</ele><time>2026-05-04T17:23:31.384Z</time></trkpt><trkpt lat="44.8008245" lon="10.3219006"><ele>63.0</ele><time>2026-05-04T17:23:32.383Z</time></trkpt><trkpt lat="44.8007615" lon="10.3218289"><ele>63.0</ele><time>2026-05-04T17:23:33.383Z</time></trkpt><trkpt lat="44.8007056" lon="10.3217702"><ele>63.0</ele><time>2026-05-04T17:23:34.384Z</time></trkpt><trkpt lat="44.8006254" lon="10.321735"><ele>62.666666666666664</ele><time>2026-05-04T17:23:35.383Z</time></trkpt><trkpt lat="44.8005616" lon="10.3216836"><ele>62.33333333333333</ele><time>2026-05-04T17:23:36.383Z</time></trkpt><trkpt lat="44.8004598" lon="10.3216269"><ele>62.0</ele><time>2026-05-04T17:23:38.383Z</time></trkpt><trkpt lat="44.8003932" lon="10.3215784"><ele>61.666666666666664</ele><time>2026-05-04T17:23:39.384Z</time></trkpt><trkpt lat="44.8003353" lon="10.3214559"><ele>61.33333333333333</ele><time>2026-05-04T17:23:41.384Z</time></trkpt><trkpt lat="44.8002819" lon="10.3214043"><ele>61.0</ele><time>2026-05-04T17:23:42.383Z</time></trkpt><trkpt lat="44.800222" lon="10.32136"><ele>60.99999999999999</ele><time>2026-05-04T17:23:43.384Z</time></trkpt><trkpt lat="44.8001666" lon="10.3213155"><ele>61.0</ele><time>2026-05-04T17:23:44.384Z</time></trkpt><trkpt lat="44.8001003" lon="10.3212732"><ele>61.0</ele><time>2026-05-04T17:23:45.384Z</time></trkpt><trkpt lat="44.800025" lon="10.3212347"><ele>61.0</ele><time>2026-05-04T17:23:46.383Z</time></trkpt><trkpt lat="44.7999566" lon="10.3211969"><ele>60.99999999999999</ele><time>2026-05-04T17:23:47.383Z</time></trkpt><trkpt lat="44.7998798" lon="10.3211929"><ele>61.0</ele><time>2026-05-04T17:23:48.384Z</time></trkpt><trkpt lat="44.7997875" lon="10.3211688"><ele>60.99999999999999</ele><time>2026-05-04T17:23:49.383Z</time></trkpt><trkpt lat="44.7996993" lon="10.3210595"><ele>61.0</ele><time>2026-05-04T17:23:51.384Z</time></trkpt><trkpt lat="44.7996288" lon="10.3210206"><ele>61.0</ele><time>2026-05-04T17:23:52.384Z</time></trkpt><trkpt lat="44.7995231" lon="10.320946"><ele>61.0</ele><time>2026-05-04T17:23:54.384Z</time></trkpt><trkpt lat="44.7994636" lon="10.3208976"><ele>60.99999999999999</ele><time>2026-05-04T17:23:55.383Z</time></trkpt><trkpt lat="44.7994052" lon="10.3208596"><ele>61.0</ele><time>2026-05-04T17:23:56.384Z</time></trkpt><trkpt lat="44.7993187" lon="10.3208321"><ele>61.33333333333333</ele><time>2026-05-04T17:23:57.383Z</time></trkpt><trkpt lat="44.799264" lon="10.3207878"><ele>61.666666666666664</ele><time>2026-05-04T17:23:58.384Z</time></trkpt><trkpt lat="44.7991579" lon="10.3206784"><ele>62.0</ele><time>2026-05-04T17:24:00.384Z</time></trkpt><trkpt lat="44.7990994" lon="10.3206348"><ele>62.33333333333333</ele><time>2026-05-04T17:24:01.383Z</time></trkpt><trkpt lat="44.7990498" lon="10.3205701"><ele>62.666666666666664</ele><time>2026-05-04T17:24:02.383Z</time></trkpt><trkpt lat="44.7989805" lon="10.3205304"><ele>63.0</ele><time>2026-05-04T17:24:03.383Z</time></trkpt><trkpt lat="44.798865" lon="10.3204484"><ele>63.0</ele><time>2026-05-04T17:24:05.383Z</time></trkpt><trkpt lat="44.7988013" lon="10.3204037"><ele>63.0</ele><time>2026-05-04T17:24:06.384Z</time></trkpt><trkpt lat="44.7987361" lon="10.3203735"><ele>63.0</ele><time>2026-05-04T17:24:07.384Z</time></trkpt><trkpt lat="44.7986749" lon="10.3203188"><ele>63.0</ele><time>2026-05-04T17:24:08.383Z</time></trkpt><trkpt lat="44.7985716" lon="10.3202344"><ele>63.0</ele><time>2026-05-04T17:24:10.383Z</time></trkpt><trkpt lat="44.7984712" lon="10.3201404"><ele>63.0</ele><time>2026-05-04T17:24:12.384Z</time></trkpt><trkpt lat="44.7983643" lon="10.3200463"><ele>63.0</ele><time>2026-05-04T17:24:14.384Z</time></trkpt><trkpt lat="44.7982821" lon="10.3199614"><ele>63.0</ele><time>2026-05-04T17:24:16.384Z</time></trkpt><trkpt lat="44.7981629" lon="10.3198888"><ele>63.0</ele><time>2026-05-04T17:24:18.384Z</time></trkpt><trkpt lat="44.7980965" lon="10.3198498"><ele>63.0</ele><time>2026-05-04T17:24:19.383Z</time></trkpt><trkpt lat="44.7980242" lon="10.3197224"><ele>63.0</ele><time>2026-05-04T17:24:21.383Z</time></trkpt><trkpt lat="44.7979659" lon="10.3196838"><ele>63.0</ele><time>2026-05-04T17:24:22.384Z</time></trkpt><trkpt lat="44.7979077" lon="10.3196412"><ele>63.0</ele><time>2026-05-04T17:24:23.384Z</time></trkpt><trkpt lat="44.7978461" lon="10.3195996"><ele>63.0</ele><time>2026-05-04T17:24:24.384Z</time></trkpt><trkpt lat="44.7977311" lon="10.3195297"><ele>63.0</ele><time>2026-05-04T17:24:26.383Z</time></trkpt><trkpt lat="44.7976308" lon="10.3194324"><ele>63.0</ele><time>2026-05-04T17:24:28.383Z</time></trkpt><trkpt lat="44.7975715" lon="10.3193989"><ele>63.0</ele><time>2026-05-04T17:24:29.383Z</time></trkpt><trkpt lat="44.7974703" lon="10.3193086"><ele>63.0</ele><time>2026-05-04T17:24:31.384Z</time></trkpt><trkpt lat="44.7973595" lon="10.3192163"><ele>63.0</ele><time>2026-05-04T17:24:33.383Z</time></trkpt><trkpt lat="44.7972877" lon="10.3191012"><ele>63.0</ele><time>2026-05-04T17:24:35.384Z</time></trkpt><trkpt lat="44.7971782" lon="10.319022"><ele>63.0</ele><time>2026-05-04T17:24:37.384Z</time></trkpt><trkpt lat="44.7970581" lon="10.3189486"><ele>63.0</ele><time>2026-05-04T17:24:39.383Z</time></trkpt><trkpt lat="44.7970005" lon="10.3189108"><ele>63.0</ele><time>2026-05-04T17:24:40.383Z</time></trkpt><trkpt lat="44.7969186" lon="10.3188013"><ele>63.0</ele><time>2026-05-04T17:24:42.383Z</time></trkpt><trkpt lat="44.7968331" lon="10.3186934"><ele>63.0</ele><time>2026-05-04T17:24:44.384Z</time></trkpt><trkpt lat="44.796766" lon="10.318658"><ele>63.2</ele><time>2026-05-04T17:24:45.383Z</time></trkpt><trkpt lat="44.7966743" lon="10.318565"><ele>63.4</ele><time>2026-05-04T17:24:47.383Z</time></trkpt><trkpt lat="44.7965754" lon="10.3185011"><ele>63.60000000000001</ele><time>2026-05-04T17:24:49.383Z</time></trkpt><trkpt lat="44.7964807" lon="10.3184331"><ele>63.800000000000004</ele><time>2026-05-04T17:24:51.383Z</time></trkpt><trkpt lat="44.7963975" lon="10.3183538"><ele>64.0</ele><time>2026-05-04T17:24:53.383Z</time></trkpt><trkpt lat="44.7963248" lon="10.3182527"><ele>63.99999999999999</ele><time>2026-05-04T17:24:55.384Z</time></trkpt><trkpt lat="44.7962786" lon="10.318137"><ele>64.0</ele><time>2026-05-04T17:24:57.383Z</time></trkpt><trkpt lat="44.7962576" lon="10.318004"><ele>64.0</ele><time>2026-05-04T17:24:59.383Z</time></trkpt><trkpt lat="44.7962886" lon="10.3178787"><ele>64.0</ele><time>2026-05-04T17:25:01.383Z</time></trkpt><trkpt lat="44.7963225" lon="10.3177681"><ele>63.99999999999999</ele><time>2026-05-04T17:25:03.384Z</time></trkpt><trkpt lat="44.7963437" lon="10.3176799"><ele>64.0</ele><time>2026-05-04T17:25:05.383Z</time></trkpt><trkpt lat="44.7963002" lon="10.3175587"><ele>64.0</ele><time>2026-05-04T17:25:08.384Z</time></trkpt><trkpt lat="44.7962663" lon="10.3174685"><ele>63.99999999999999</ele><time>2026-05-04T17:25:11.383Z</time></trkpt><trkpt lat="44.7962367" lon="10.3173876"><ele>64.0</ele><time>2026-05-04T17:25:13.383Z</time></trkpt><trkpt lat="44.796206" lon="10.3173028"><ele>64.0</ele><time>2026-05-04T17:25:15.383Z</time></trkpt><trkpt lat="44.7961526" lon="10.3172264"><ele>63.99999999999999</ele><time>2026-05-04T17:25:17.383Z</time></trkpt><trkpt lat="44.7961001" lon="10.3171647"><ele>64.0</ele><time>2026-05-04T17:25:19.383Z</time></trkpt><trkpt lat="44.796056" lon="10.3170868"><ele>64.0</ele><time>2026-05-04T17:25:21.384Z</time></trkpt><trkpt lat="44.7960214" lon="10.3170117"><ele>64.0</ele><time>2026-05-04T17:25:23.383Z</time></trkpt><trkpt lat="44.7959966" lon="10.3169033"><ele>64.0</ele><time>2026-05-04T17:25:25.383Z</time></trkpt><trkpt lat="44.7960272" lon="10.3167571"><ele>64.0</ele><time>2026-05-04T17:25:27.384Z</time></trkpt><trkpt lat="44.7960467" lon="10.3166342"><ele>64.0</ele><time>2026-05-04T17:25:29.383Z</time></trkpt><trkpt lat="44.7960675" lon="10.3165108"><ele>64.0</ele><time>2026-05-04T17:25:31.384Z</time></trkpt><trkpt lat="44.7961008" lon="10.3163854"><ele>63.800000000000004</ele><time>2026-05-04T17:25:33.384Z</time></trkpt><trkpt lat="44.7961484" lon="10.3162541"><ele>63.60000000000001</ele><time>2026-05-04T17:25:35.384Z</time></trkpt><trkpt lat="44.7961733" lon="10.3161177"><ele>63.4</ele><time>2026-05-04T17:25:37.384Z</time></trkpt><trkpt lat="44.7961957" lon="10.3159959"><ele>63.2</ele><time>2026-05-04T17:25:39.383Z</time></trkpt><trkpt lat="44.7962268" lon="10.3158392"><ele>63.0</ele><time>2026-05-04T17:25:41.383Z</time></trkpt><trkpt lat="44.796254" lon="10.3156908"><ele>63.2</ele><time>2026-05-04T17:25:43.384Z</time></trkpt><trkpt lat="44.7962893" lon="10.3155638"><ele>63.4</ele><time>2026-05-04T17:25:45.384Z</time></trkpt><trkpt lat="44.7963339" lon="10.3154295"><ele>63.60000000000001</ele><time>2026-05-04T17:25:47.384Z</time></trkpt><trkpt lat="44.7963656" lon="10.3152973"><ele>63.800000000000004</ele><time>2026-05-04T17:25:49.383Z</time></trkpt><trkpt lat="44.796399" lon="10.315157"><ele>64.0</ele><time>2026-05-04T17:25:51.384Z</time></trkpt><trkpt lat="44.796426" lon="10.3150415"><ele>64.0</ele><time>2026-05-04T17:25:53.384Z</time></trkpt><trkpt lat="44.796473" lon="10.3149253"><ele>64.0</ele><time>2026-05-04T17:25:55.383Z</time></trkpt><trkpt lat="44.7965062" lon="10.3148159"><ele>64.0</ele><time>2026-05-04T17:25:57.383Z</time></trkpt><trkpt lat="44.7965276" lon="10.3147037"><ele>66.0</ele><time>2026-05-04T17:25:59.383Z</time></trkpt><trkpt lat="44.7965597" lon="10.3145965"><ele>66.0</ele><time>2026-05-04T17:26:01.384Z</time></trkpt></trkseg></trk></gpx>